<?xml version="1.0" encoding="UTF-8" standalone="no" ?>
<gpx xmlns="http://www.topografix.com/GPX/1/1" xmlns:xsi="http://www.w3.org/2001/XMLSchema-instance" xsi:schemaLocation="http://www.topografix.com/GPX/1/1 http://www.topografix.com/GPX/1/1/gpx.xsd" version="1.1" creator="VisuGPX - https://www.visugpx.com">
  <metadata>
    <name>étape_6_Axat_Argeles_Variante_151 kms_1574 D+</name>
  </metadata>
  <trk>
    <name><![CDATA[étape_6_Axat_Argeles_Variante 2_151 kms_1574 D+]]></name>
    <extensions>
      <line xmlns="http://www.topografix.com/GPX/gpx_style/0/2">
        <color>0000FF</color>
        <width>4</width>
      </line>
    </extensions>
    <trkseg>
      <trkpt lat="42.8108" lon="2.23758">
        <ele>409</ele>
        <time>2021-08-30T21:03:09.000Z</time>
      </trkpt>
      <trkpt lat="42.8108" lon="2.23758">
        <ele>409</ele>
        <time>2021-08-30T21:03:09.000Z</time>
      </trkpt>
      <trkpt lat="42.8108" lon="2.23758">
        <ele>409</ele>
        <time>2021-08-30T21:03:09.000Z</time>
      </trkpt>
      <trkpt lat="42.8108" lon="2.23758">
        <ele>409</ele>
        <time>2021-08-30T21:03:09.000Z</time>
      </trkpt>
      <trkpt lat="42.8108" lon="2.23758">
        <ele>409</ele>
        <time>2021-08-30T21:03:09.000Z</time>
      </trkpt>
      <trkpt lat="42.8108" lon="2.23758">
        <ele>409</ele>
        <time>2021-08-30T21:03:09.000Z</time>
      </trkpt>
      <trkpt lat="42.81107" lon="2.23802">
        <ele>414</ele>
        <time>2021-08-30T21:03:30.781Z</time>
      </trkpt>
      <trkpt lat="42.81141" lon="2.23882">
        <ele>410</ele>
        <time>2021-08-30T21:03:36.339Z</time>
      </trkpt>
      <trkpt lat="42.81166" lon="2.23929">
        <ele>401</ele>
        <time>2021-08-30T21:03:39.927Z</time>
      </trkpt>
      <trkpt lat="42.81166" lon="2.2393">
        <ele>400.8</ele>
        <time>2021-08-30T21:03:39.989Z</time>
      </trkpt>
      <trkpt lat="42.81164" lon="2.2394">
        <ele>402.8</ele>
        <time>2021-08-30T21:03:44.756Z</time>
      </trkpt>
      <trkpt lat="42.81166" lon="2.23958">
        <ele>403.8</ele>
        <time>2021-08-30T21:03:49.291Z</time>
      </trkpt>
      <trkpt lat="42.81184" lon="2.23993">
        <ele>405.4</ele>
        <time>2021-08-30T21:03:58.263Z</time>
      </trkpt>
      <trkpt lat="42.8119" lon="2.24013">
        <ele>406.7</ele>
        <time>2021-08-30T21:04:03.964Z</time>
      </trkpt>
      <trkpt lat="42.81192" lon="2.24033">
        <ele>408.4</ele>
        <time>2021-08-30T21:04:11.278Z</time>
      </trkpt>
      <trkpt lat="42.81176" lon="2.24113">
        <ele>414.7</ele>
        <time>2021-08-30T21:04:37.916Z</time>
      </trkpt>
      <trkpt lat="42.81173" lon="2.24179">
        <ele>417.1</ele>
        <time>2021-08-30T21:04:51.655Z</time>
      </trkpt>
      <trkpt lat="42.81156" lon="2.24243">
        <ele>421.6</ele>
        <time>2021-08-30T21:05:10.908Z</time>
      </trkpt>
      <trkpt lat="42.81152" lon="2.24269">
        <ele>424.3</ele>
        <time>2021-08-30T21:05:23.126Z</time>
      </trkpt>
      <trkpt lat="42.81153" lon="2.24371">
        <ele>425.5</ele>
        <time>2021-08-30T21:05:37.383Z</time>
      </trkpt>
      <trkpt lat="42.81151" lon="2.24393">
        <ele>426.3</ele>
        <time>2021-08-30T21:05:41.981Z</time>
      </trkpt>
      <trkpt lat="42.81147" lon="2.24418">
        <ele>427.9</ele>
        <time>2021-08-30T21:05:48.917Z</time>
      </trkpt>
      <trkpt lat="42.81143" lon="2.2444">
        <ele>430.3</ele>
        <time>2021-08-30T21:05:59.341Z</time>
      </trkpt>
      <trkpt lat="42.8113" lon="2.24476">
        <ele>434.9</ele>
        <time>2021-08-30T21:06:17.796Z</time>
      </trkpt>
      <trkpt lat="42.81094" lon="2.24563">
        <ele>436.6</ele>
        <time>2021-08-30T21:06:32.920Z</time>
      </trkpt>
      <trkpt lat="42.81083" lon="2.24597">
        <ele>433</ele>
        <time>2021-08-30T21:06:35.216Z</time>
      </trkpt>
      <trkpt lat="42.81077" lon="2.24625">
        <ele>433.6</ele>
        <time>2021-08-30T21:06:39.897Z</time>
      </trkpt>
      <trkpt lat="42.81071" lon="2.24657">
        <ele>433.6</ele>
        <time>2021-08-30T21:06:43.835Z</time>
      </trkpt>
      <trkpt lat="42.81068" lon="2.24691">
        <ele>435.5</ele>
        <time>2021-08-30T21:06:52.416Z</time>
      </trkpt>
      <trkpt lat="42.81067" lon="2.24727">
        <ele>437.7</ele>
        <time>2021-08-30T21:07:02.019Z</time>
      </trkpt>
      <trkpt lat="42.81069" lon="2.24819">
        <ele>438.6</ele>
        <time>2021-08-30T21:07:14.520Z</time>
      </trkpt>
      <trkpt lat="42.81066" lon="2.24847">
        <ele>439.9</ele>
        <time>2021-08-30T21:07:20.952Z</time>
      </trkpt>
      <trkpt lat="42.81047" lon="2.24917">
        <ele>448.8</ele>
        <time>2021-08-30T21:07:55.279Z</time>
      </trkpt>
      <trkpt lat="42.81042" lon="2.24953">
        <ele>449.6</ele>
        <time>2021-08-30T21:08:01.286Z</time>
      </trkpt>
      <trkpt lat="42.81039" lon="2.25">
        <ele>448.7</ele>
        <time>2021-08-30T21:08:05.147Z</time>
      </trkpt>
      <trkpt lat="42.81039" lon="2.25021">
        <ele>448.4</ele>
        <time>2021-08-30T21:08:06.998Z</time>
      </trkpt>
      <trkpt lat="42.81042" lon="2.25041">
        <ele>447.4</ele>
        <time>2021-08-30T21:08:08.259Z</time>
      </trkpt>
      <trkpt lat="42.81052" lon="2.25085">
        <ele>445.7</ele>
        <time>2021-08-30T21:08:11.237Z</time>
      </trkpt>
      <trkpt lat="42.81076" lon="2.25172">
        <ele>451.3</ele>
        <time>2021-08-30T21:08:35.783Z</time>
      </trkpt>
      <trkpt lat="42.8108" lon="2.25184">
        <ele>451.7</ele>
        <time>2021-08-30T21:08:38.313Z</time>
      </trkpt>
      <trkpt lat="42.81089" lon="2.25211">
        <ele>454.8</ele>
        <time>2021-08-30T21:08:51.953Z</time>
      </trkpt>
      <trkpt lat="42.81097" lon="2.25235">
        <ele>458.7</ele>
        <time>2021-08-30T21:09:04.077Z</time>
      </trkpt>
      <trkpt lat="42.81102" lon="2.25263">
        <ele>461.7</ele>
        <time>2021-08-30T21:09:17.331Z</time>
      </trkpt>
      <trkpt lat="42.81105" lon="2.2536">
        <ele>466.2</ele>
        <time>2021-08-30T21:09:39.487Z</time>
      </trkpt>
      <trkpt lat="42.8111" lon="2.25396">
        <ele>466.7</ele>
        <time>2021-08-30T21:09:44.753Z</time>
      </trkpt>
      <trkpt lat="42.81111" lon="2.25413">
        <ele>466.7</ele>
        <time>2021-08-30T21:09:46.786Z</time>
      </trkpt>
      <trkpt lat="42.81111" lon="2.25484">
        <ele>469.1</ele>
        <time>2021-08-30T21:10:01.219Z</time>
      </trkpt>
      <trkpt lat="42.81112" lon="2.25515">
        <ele>470.6</ele>
        <time>2021-08-30T21:10:08.440Z</time>
      </trkpt>
      <trkpt lat="42.81114" lon="2.25552">
        <ele>473</ele>
        <time>2021-08-30T21:10:18.756Z</time>
      </trkpt>
      <trkpt lat="42.81118" lon="2.25586">
        <ele>475.2</ele>
        <time>2021-08-30T21:10:28.240Z</time>
      </trkpt>
      <trkpt lat="42.81128" lon="2.25631">
        <ele>477.3</ele>
        <time>2021-08-30T21:10:38.796Z</time>
      </trkpt>
      <trkpt lat="42.8113" lon="2.25658">
        <ele>478</ele>
        <time>2021-08-30T21:10:43.569Z</time>
      </trkpt>
      <trkpt lat="42.81131" lon="2.25776">
        <ele>477.9</ele>
        <time>2021-08-30T21:10:57.396Z</time>
      </trkpt>
      <trkpt lat="42.8113" lon="2.25789">
        <ele>477.8</ele>
        <time>2021-08-30T21:10:58.686Z</time>
      </trkpt>
      <trkpt lat="42.81126" lon="2.25808">
        <ele>477.3</ele>
        <time>2021-08-30T21:11:00.166Z</time>
      </trkpt>
      <trkpt lat="42.81114" lon="2.25843">
        <ele>475.6</ele>
        <time>2021-08-30T21:11:02.470Z</time>
      </trkpt>
      <trkpt lat="42.811" lon="2.25863">
        <ele>473.8</ele>
        <time>2021-08-30T21:11:04.178Z</time>
      </trkpt>
      <trkpt lat="42.81066" lon="2.25907">
        <ele>474</ele>
        <time>2021-08-30T21:11:12.108Z</time>
      </trkpt>
      <trkpt lat="42.81058" lon="2.25923">
        <ele>475.1</ele>
        <time>2021-08-30T21:11:17.030Z</time>
      </trkpt>
      <trkpt lat="42.81051" lon="2.25941">
        <ele>476</ele>
        <time>2021-08-30T21:11:21.583Z</time>
      </trkpt>
      <trkpt lat="42.81045" lon="2.25965">
        <ele>476.5</ele>
        <time>2021-08-30T21:11:25.594Z</time>
      </trkpt>
      <trkpt lat="42.81039" lon="2.26014">
        <ele>477.1</ele>
        <time>2021-08-30T21:11:32.569Z</time>
      </trkpt>
      <trkpt lat="42.81034" lon="2.26034">
        <ele>477.8</ele>
        <time>2021-08-30T21:11:36.839Z</time>
      </trkpt>
      <trkpt lat="42.81" lon="2.26124">
        <ele>479.5</ele>
        <time>2021-08-30T21:11:52.113Z</time>
      </trkpt>
      <trkpt lat="42.80994" lon="2.26146">
        <ele>481.1</ele>
        <time>2021-08-30T21:11:58.921Z</time>
      </trkpt>
      <trkpt lat="42.80994" lon="2.26156">
        <ele>481.3</ele>
        <time>2021-08-30T21:12:00.510Z</time>
      </trkpt>
      <trkpt lat="42.80992" lon="2.26173">
        <ele>482.5</ele>
        <time>2021-08-30T21:12:05.601Z</time>
      </trkpt>
      <trkpt lat="42.80989" lon="2.26209">
        <ele>486.3</ele>
        <time>2021-08-30T21:12:22.265Z</time>
      </trkpt>
      <trkpt lat="42.80982" lon="2.26231">
        <ele>488.3</ele>
        <time>2021-08-30T21:12:30.846Z</time>
      </trkpt>
      <trkpt lat="42.80971" lon="2.2626">
        <ele>490.2</ele>
        <time>2021-08-30T21:12:39.272Z</time>
      </trkpt>
      <trkpt lat="42.80961" lon="2.26284">
        <ele>491.4</ele>
        <time>2021-08-30T21:12:45.398Z</time>
      </trkpt>
      <trkpt lat="42.80956" lon="2.26313">
        <ele>493.1</ele>
        <time>2021-08-30T21:12:52.992Z</time>
      </trkpt>
      <trkpt lat="42.80954" lon="2.26353">
        <ele>494.5</ele>
        <time>2021-08-30T21:13:01.222Z</time>
      </trkpt>
      <trkpt lat="42.80955" lon="2.26377">
        <ele>495</ele>
        <time>2021-08-30T21:13:05.094Z</time>
      </trkpt>
      <trkpt lat="42.80956" lon="2.26395">
        <ele>495.4</ele>
        <time>2021-08-30T21:13:08.070Z</time>
      </trkpt>
      <trkpt lat="42.80989" lon="2.26647">
        <ele>499.6</ele>
        <time>2021-08-30T21:13:46.458Z</time>
      </trkpt>
      <trkpt lat="42.80995" lon="2.26715">
        <ele>499.2</ele>
        <time>2021-08-30T21:13:53.444Z</time>
      </trkpt>
      <trkpt lat="42.81009" lon="2.26929">
        <ele>501.3</ele>
        <time>2021-08-30T21:14:22.624Z</time>
      </trkpt>
      <trkpt lat="42.81009" lon="2.26947">
        <ele>502.9</ele>
        <time>2021-08-30T21:14:29.656Z</time>
      </trkpt>
      <trkpt lat="42.81012" lon="2.27099">
        <ele>511.7</ele>
        <time>2021-08-30T21:15:08.761Z</time>
      </trkpt>
      <trkpt lat="42.8103" lon="2.27441">
        <ele>519.7</ele>
        <time>2021-08-30T21:16:06.452Z</time>
      </trkpt>
      <trkpt lat="42.81036" lon="2.27534">
        <ele>524.8</ele>
        <time>2021-08-30T21:16:29.633Z</time>
      </trkpt>
      <trkpt lat="42.81048" lon="2.27632">
        <ele>525.1</ele>
        <time>2021-08-30T21:16:41.945Z</time>
      </trkpt>
      <trkpt lat="42.81068" lon="2.27756">
        <ele>524.8</ele>
        <time>2021-08-30T21:16:56.371Z</time>
      </trkpt>
      <trkpt lat="42.81072" lon="2.27786">
        <ele>523.9</ele>
        <time>2021-08-30T21:16:58.530Z</time>
      </trkpt>
      <trkpt lat="42.81089" lon="2.27905">
        <ele>519.3</ele>
        <time>2021-08-30T21:17:06.271Z</time>
      </trkpt>
      <trkpt lat="42.81093" lon="2.27954">
        <ele>516.6</ele>
        <time>2021-08-30T21:17:09.318Z</time>
      </trkpt>
      <trkpt lat="42.81096" lon="2.27991">
        <ele>514.5</ele>
        <time>2021-08-30T21:17:11.619Z</time>
      </trkpt>
      <trkpt lat="42.81102" lon="2.28111">
        <ele>513.1</ele>
        <time>2021-08-30T21:17:22.693Z</time>
      </trkpt>
      <trkpt lat="42.81104" lon="2.28131">
        <ele>512.7</ele>
        <time>2021-08-30T21:17:24.326Z</time>
      </trkpt>
      <trkpt lat="42.8111" lon="2.28173">
        <ele>511.9</ele>
        <time>2021-08-30T21:17:27.848Z</time>
      </trkpt>
      <trkpt lat="42.81117" lon="2.28208">
        <ele>511.1</ele>
        <time>2021-08-30T21:17:30.691Z</time>
      </trkpt>
      <trkpt lat="42.81158" lon="2.28356">
        <ele>506.1</ele>
        <time>2021-08-30T21:17:41.597Z</time>
      </trkpt>
      <trkpt lat="42.81164" lon="2.28383">
        <ele>503.9</ele>
        <time>2021-08-30T21:17:43.341Z</time>
      </trkpt>
      <trkpt lat="42.8117" lon="2.28421">
        <ele>501.2</ele>
        <time>2021-08-30T21:17:45.743Z</time>
      </trkpt>
      <trkpt lat="42.81171" lon="2.28439">
        <ele>500.1</ele>
        <time>2021-08-30T21:17:46.859Z</time>
      </trkpt>
      <trkpt lat="42.8117" lon="2.28456">
        <ele>498.7</ele>
        <time>2021-08-30T21:17:47.913Z</time>
      </trkpt>
      <trkpt lat="42.81166" lon="2.28486">
        <ele>496.1</ele>
        <time>2021-08-30T21:17:49.797Z</time>
      </trkpt>
      <trkpt lat="42.81152" lon="2.28538">
        <ele>497.4</ele>
        <time>2021-08-30T21:17:59.140Z</time>
      </trkpt>
      <trkpt lat="42.81146" lon="2.28555">
        <ele>498.1</ele>
        <time>2021-08-30T21:18:03.088Z</time>
      </trkpt>
      <trkpt lat="42.81145" lon="2.28558">
        <ele>498.3</ele>
        <time>2021-08-30T21:18:03.963Z</time>
      </trkpt>
      <trkpt lat="42.81128" lon="2.28605">
        <ele>498.9</ele>
        <time>2021-08-30T21:18:11.253Z</time>
      </trkpt>
      <trkpt lat="42.81123" lon="2.28628">
        <ele>498.2</ele>
        <time>2021-08-30T21:18:12.959Z</time>
      </trkpt>
      <trkpt lat="42.81119" lon="2.28662">
        <ele>496.7</ele>
        <time>2021-08-30T21:18:15.023Z</time>
      </trkpt>
      <trkpt lat="42.81119" lon="2.28697">
        <ele>494.5</ele>
        <time>2021-08-30T21:18:17.186Z</time>
      </trkpt>
      <trkpt lat="42.81121" lon="2.28714">
        <ele>493.4</ele>
        <time>2021-08-30T21:18:18.250Z</time>
      </trkpt>
      <trkpt lat="42.81125" lon="2.28733">
        <ele>492.5</ele>
        <time>2021-08-30T21:18:19.409Z</time>
      </trkpt>
      <trkpt lat="42.81136" lon="2.28769">
        <ele>491.6</ele>
        <time>2021-08-30T21:18:22.421Z</time>
      </trkpt>
      <trkpt lat="42.81146" lon="2.28796">
        <ele>490.9</ele>
        <time>2021-08-30T21:18:24.755Z</time>
      </trkpt>
      <trkpt lat="42.8118" lon="2.2888">
        <ele>489.5</ele>
        <time>2021-08-30T21:18:33.170Z</time>
      </trkpt>
      <trkpt lat="42.81198" lon="2.28947">
        <ele>491</ele>
        <time>2021-08-30T21:18:44.706Z</time>
      </trkpt>
      <trkpt lat="42.81206" lon="2.28986">
        <ele>492.2</ele>
        <time>2021-08-30T21:18:52.370Z</time>
      </trkpt>
      <trkpt lat="42.81226" lon="2.29255">
        <ele>484.5</ele>
        <time>2021-08-30T21:19:11.773Z</time>
      </trkpt>
      <trkpt lat="42.81227" lon="2.29268">
        <ele>484.2</ele>
        <time>2021-08-30T21:19:12.784Z</time>
      </trkpt>
      <trkpt lat="42.81228" lon="2.29319">
        <ele>482.4</ele>
        <time>2021-08-30T21:19:16.146Z</time>
      </trkpt>
      <trkpt lat="42.81227" lon="2.2935">
        <ele>481.3</ele>
        <time>2021-08-30T21:19:18.186Z</time>
      </trkpt>
      <trkpt lat="42.81226" lon="2.29395">
        <ele>480.1</ele>
        <time>2021-08-30T21:19:21.496Z</time>
      </trkpt>
      <trkpt lat="42.81226" lon="2.29446">
        <ele>480.2</ele>
        <time>2021-08-30T21:19:27.730Z</time>
      </trkpt>
      <trkpt lat="42.81225" lon="2.29477">
        <ele>480.7</ele>
        <time>2021-08-30T21:19:32.362Z</time>
      </trkpt>
      <trkpt lat="42.81223" lon="2.29624">
        <ele>476.5</ele>
        <time>2021-08-30T21:19:42.900Z</time>
      </trkpt>
      <trkpt lat="42.81213" lon="2.29739">
        <ele>470.8</ele>
        <time>2021-08-30T21:19:50.057Z</time>
      </trkpt>
      <trkpt lat="42.8121" lon="2.29756">
        <ele>469.5</ele>
        <time>2021-08-30T21:19:51.138Z</time>
      </trkpt>
      <trkpt lat="42.81202" lon="2.29801">
        <ele>466.3</ele>
        <time>2021-08-30T21:19:53.999Z</time>
      </trkpt>
      <trkpt lat="42.812" lon="2.29814">
        <ele>465.4</ele>
        <time>2021-08-30T21:19:54.820Z</time>
      </trkpt>
      <trkpt lat="42.812" lon="2.29828">
        <ele>464.8</ele>
        <time>2021-08-30T21:19:55.666Z</time>
      </trkpt>
      <trkpt lat="42.81199" lon="2.29877">
        <ele>463.9</ele>
        <time>2021-08-30T21:19:59.721Z</time>
      </trkpt>
      <trkpt lat="42.81197" lon="2.29908">
        <ele>463.2</ele>
        <time>2021-08-30T21:20:02.144Z</time>
      </trkpt>
      <trkpt lat="42.81187" lon="2.29966">
        <ele>461.7</ele>
        <time>2021-08-30T21:20:06.613Z</time>
      </trkpt>
      <trkpt lat="42.81163" lon="2.30044">
        <ele>457.6</ele>
        <time>2021-08-30T21:20:11.423Z</time>
      </trkpt>
      <trkpt lat="42.81161" lon="2.30054">
        <ele>457.4</ele>
        <time>2021-08-30T21:20:12.269Z</time>
      </trkpt>
      <trkpt lat="42.8116" lon="2.30068">
        <ele>456.9</ele>
        <time>2021-08-30T21:20:13.193Z</time>
      </trkpt>
      <trkpt lat="42.81157" lon="2.30183">
        <ele>452.2</ele>
        <time>2021-08-30T21:20:20.300Z</time>
      </trkpt>
      <trkpt lat="42.81155" lon="2.30202">
        <ele>452.3</ele>
        <time>2021-08-30T21:20:22.748Z</time>
      </trkpt>
      <trkpt lat="42.8115" lon="2.30214">
        <ele>452.2</ele>
        <time>2021-08-30T21:20:24.120Z</time>
      </trkpt>
      <trkpt lat="42.81144" lon="2.3023">
        <ele>452</ele>
        <time>2021-08-30T21:20:25.788Z</time>
      </trkpt>
      <trkpt lat="42.81139" lon="2.3024">
        <ele>451.8</ele>
        <time>2021-08-30T21:20:26.818Z</time>
      </trkpt>
      <trkpt lat="42.81129" lon="2.30256">
        <ele>451</ele>
        <time>2021-08-30T21:20:28.158Z</time>
      </trkpt>
      <trkpt lat="42.81124" lon="2.30263">
        <ele>450.6</ele>
        <time>2021-08-30T21:20:28.761Z</time>
      </trkpt>
      <trkpt lat="42.81117" lon="2.30274">
        <ele>449.9</ele>
        <time>2021-08-30T21:20:29.593Z</time>
      </trkpt>
      <trkpt lat="42.81105" lon="2.30298">
        <ele>448.7</ele>
        <time>2021-08-30T21:20:31.377Z</time>
      </trkpt>
      <trkpt lat="42.81086" lon="2.30329">
        <ele>447.2</ele>
        <time>2021-08-30T21:20:33.981Z</time>
      </trkpt>
      <trkpt lat="42.81076" lon="2.30344">
        <ele>448.5</ele>
        <time>2021-08-30T21:20:39.580Z</time>
      </trkpt>
      <trkpt lat="42.81051" lon="2.30404">
        <ele>450.1</ele>
        <time>2021-08-30T21:20:51.160Z</time>
      </trkpt>
      <trkpt lat="42.81036" lon="2.30441">
        <ele>449.2</ele>
        <time>2021-08-30T21:20:54.509Z</time>
      </trkpt>
      <trkpt lat="42.81028" lon="2.30465">
        <ele>447.8</ele>
        <time>2021-08-30T21:20:56.139Z</time>
      </trkpt>
      <trkpt lat="42.81025" lon="2.30472">
        <ele>447.4</ele>
        <time>2021-08-30T21:20:56.640Z</time>
      </trkpt>
      <trkpt lat="42.81007" lon="2.30519">
        <ele>443.6</ele>
        <time>2021-08-30T21:20:59.917Z</time>
      </trkpt>
      <trkpt lat="42.81001" lon="2.30542">
        <ele>441.4</ele>
        <time>2021-08-30T21:21:01.425Z</time>
      </trkpt>
      <trkpt lat="42.80997" lon="2.30563">
        <ele>439.4</ele>
        <time>2021-08-30T21:21:02.766Z</time>
      </trkpt>
      <trkpt lat="42.80994" lon="2.30582">
        <ele>437.4</ele>
        <time>2021-08-30T21:21:03.967Z</time>
      </trkpt>
      <trkpt lat="42.80992" lon="2.30591">
        <ele>436.9</ele>
        <time>2021-08-30T21:21:04.548Z</time>
      </trkpt>
      <trkpt lat="42.80987" lon="2.30618">
        <ele>435.8</ele>
        <time>2021-08-30T21:21:06.295Z</time>
      </trkpt>
      <trkpt lat="42.80979" lon="2.30663">
        <ele>434.4</ele>
        <time>2021-08-30T21:21:09.543Z</time>
      </trkpt>
      <trkpt lat="42.80978" lon="2.30667">
        <ele>434.4</ele>
        <time>2021-08-30T21:21:10.047Z</time>
      </trkpt>
      <trkpt lat="42.80978" lon="2.30674">
        <ele>434.6</ele>
        <time>2021-08-30T21:21:11.344Z</time>
      </trkpt>
      <trkpt lat="42.80978" lon="2.30685">
        <ele>435</ele>
        <time>2021-08-30T21:21:13.631Z</time>
      </trkpt>
      <trkpt lat="42.80986" lon="2.30722">
        <ele>435.4</ele>
        <time>2021-08-30T21:21:18.915Z</time>
      </trkpt>
      <trkpt lat="42.80987" lon="2.30728">
        <ele>435.5</ele>
        <time>2021-08-30T21:21:19.836Z</time>
      </trkpt>
      <trkpt lat="42.80991" lon="2.30743">
        <ele>435.6</ele>
        <time>2021-08-30T21:21:21.900Z</time>
      </trkpt>
      <trkpt lat="42.80993" lon="2.30747">
        <ele>435.6</ele>
        <time>2021-08-30T21:21:22.477Z</time>
      </trkpt>
      <trkpt lat="42.81006" lon="2.30795">
        <ele>434.1</ele>
        <time>2021-08-30T21:21:26.110Z</time>
      </trkpt>
      <trkpt lat="42.81011" lon="2.30807">
        <ele>433.6</ele>
        <time>2021-08-30T21:21:27.009Z</time>
      </trkpt>
      <trkpt lat="42.81019" lon="2.30822">
        <ele>432.9</ele>
        <time>2021-08-30T21:21:28.196Z</time>
      </trkpt>
      <trkpt lat="42.81032" lon="2.30841">
        <ele>431.9</ele>
        <time>2021-08-30T21:21:29.844Z</time>
      </trkpt>
      <trkpt lat="42.81038" lon="2.30856">
        <ele>431.7</ele>
        <time>2021-08-30T21:21:31.415Z</time>
      </trkpt>
      <trkpt lat="42.81039" lon="2.30888">
        <ele>432.3</ele>
        <time>2021-08-30T21:21:36.400Z</time>
      </trkpt>
      <trkpt lat="42.81035" lon="2.30919">
        <ele>433.5</ele>
        <time>2021-08-30T21:21:43.049Z</time>
      </trkpt>
      <trkpt lat="42.81035" lon="2.30953">
        <ele>434.8</ele>
        <time>2021-08-30T21:21:50.237Z</time>
      </trkpt>
      <trkpt lat="42.81041" lon="2.30981">
        <ele>434.9</ele>
        <time>2021-08-30T21:21:53.871Z</time>
      </trkpt>
      <trkpt lat="42.81067" lon="2.31053">
        <ele>434.9</ele>
        <time>2021-08-30T21:22:03.440Z</time>
      </trkpt>
      <trkpt lat="42.81088" lon="2.31112">
        <ele>434.4</ele>
        <time>2021-08-30T21:22:09.915Z</time>
      </trkpt>
      <trkpt lat="42.8116" lon="2.31315">
        <ele>429.8</ele>
        <time>2021-08-30T21:22:28.010Z</time>
      </trkpt>
      <trkpt lat="42.81185" lon="2.31392">
        <ele>428.3</ele>
        <time>2021-08-30T21:22:35.034Z</time>
      </trkpt>
      <trkpt lat="42.81209" lon="2.31484">
        <ele>427.8</ele>
        <time>2021-08-30T21:22:45.552Z</time>
      </trkpt>
      <trkpt lat="42.81268" lon="2.3172">
        <ele>427.5</ele>
        <time>2021-08-30T21:23:14.552Z</time>
      </trkpt>
      <trkpt lat="42.81273" lon="2.31746">
        <ele>427.5</ele>
        <time>2021-08-30T21:23:17.757Z</time>
      </trkpt>
      <trkpt lat="42.81275" lon="2.31768">
        <ele>427.8</ele>
        <time>2021-08-30T21:23:20.937Z</time>
      </trkpt>
      <trkpt lat="42.81275" lon="2.31777">
        <ele>428.1</ele>
        <time>2021-08-30T21:23:22.759Z</time>
      </trkpt>
      <trkpt lat="42.81275" lon="2.31788">
        <ele>428.4</ele>
        <time>2021-08-30T21:23:24.748Z</time>
      </trkpt>
      <trkpt lat="42.8127" lon="2.31834">
        <ele>430.4</ele>
        <time>2021-08-30T21:23:35.024Z</time>
      </trkpt>
      <trkpt lat="42.81269" lon="2.31854">
        <ele>431</ele>
        <time>2021-08-30T21:23:38.841Z</time>
      </trkpt>
      <trkpt lat="42.81273" lon="2.31891">
        <ele>431.3</ele>
        <time>2021-08-30T21:23:43.797Z</time>
      </trkpt>
      <trkpt lat="42.81297" lon="2.32012">
        <ele>427.7</ele>
        <time>2021-08-30T21:23:52.763Z</time>
      </trkpt>
      <trkpt lat="42.81304" lon="2.32032">
        <ele>425.9</ele>
        <time>2021-08-30T21:23:54.133Z</time>
      </trkpt>
      <trkpt lat="42.81335" lon="2.32102">
        <ele>418.7</ele>
        <time>2021-08-30T21:23:59.186Z</time>
      </trkpt>
      <trkpt lat="42.8134" lon="2.32133">
        <ele>419.8</ele>
        <time>2021-08-30T21:24:05.686Z</time>
      </trkpt>
      <trkpt lat="42.81342" lon="2.32143">
        <ele>420.1</ele>
        <time>2021-08-30T21:24:07.621Z</time>
      </trkpt>
      <trkpt lat="42.81344" lon="2.32157">
        <ele>420.6</ele>
        <time>2021-08-30T21:24:10.552Z</time>
      </trkpt>
      <trkpt lat="42.81347" lon="2.32192">
        <ele>420.8</ele>
        <time>2021-08-30T21:24:15.074Z</time>
      </trkpt>
      <trkpt lat="42.81345" lon="2.32223">
        <ele>420.8</ele>
        <time>2021-08-30T21:24:18.785Z</time>
      </trkpt>
      <trkpt lat="42.81329" lon="2.32281">
        <ele>419.5</ele>
        <time>2021-08-30T21:24:23.716Z</time>
      </trkpt>
      <trkpt lat="42.81327" lon="2.32295">
        <ele>419</ele>
        <time>2021-08-30T21:24:24.658Z</time>
      </trkpt>
      <trkpt lat="42.81327" lon="2.32303">
        <ele>418.5</ele>
        <time>2021-08-30T21:24:25.153Z</time>
      </trkpt>
      <trkpt lat="42.81329" lon="2.32321">
        <ele>416.9</ele>
        <time>2021-08-30T21:24:26.278Z</time>
      </trkpt>
      <trkpt lat="42.81353" lon="2.32468">
        <ele>419.3</ele>
        <time>2021-08-30T21:24:48.695Z</time>
      </trkpt>
      <trkpt lat="42.81355" lon="2.32489">
        <ele>418.6</ele>
        <time>2021-08-30T21:24:50.128Z</time>
      </trkpt>
      <trkpt lat="42.81357" lon="2.32589">
        <ele>415.8</ele>
        <time>2021-08-30T21:24:57.353Z</time>
      </trkpt>
      <trkpt lat="42.81357" lon="2.32608">
        <ele>415.3</ele>
        <time>2021-08-30T21:24:58.757Z</time>
      </trkpt>
      <trkpt lat="42.81343" lon="2.32673">
        <ele>414.8</ele>
        <time>2021-08-30T21:25:05.474Z</time>
      </trkpt>
      <trkpt lat="42.81338" lon="2.32701">
        <ele>414.7</ele>
        <time>2021-08-30T21:25:08.678Z</time>
      </trkpt>
      <trkpt lat="42.81336" lon="2.32765">
        <ele>413.2</ele>
        <time>2021-08-30T21:25:13.601Z</time>
      </trkpt>
      <trkpt lat="42.81336" lon="2.32836">
        <ele>410.8</ele>
        <time>2021-08-30T21:25:18.364Z</time>
      </trkpt>
      <trkpt lat="42.81337" lon="2.32867">
        <ele>410.7</ele>
        <time>2021-08-30T21:25:21.830Z</time>
      </trkpt>
      <trkpt lat="42.8134" lon="2.32903">
        <ele>410.5</ele>
        <time>2021-08-30T21:25:25.548Z</time>
      </trkpt>
      <trkpt lat="42.81347" lon="2.32947">
        <ele>409.8</ele>
        <time>2021-08-30T21:25:29.438Z</time>
      </trkpt>
      <trkpt lat="42.8136" lon="2.33028">
        <ele>408.1</ele>
        <time>2021-08-30T21:25:36.082Z</time>
      </trkpt>
      <trkpt lat="42.81364" lon="2.33056">
        <ele>407.4</ele>
        <time>2021-08-30T21:25:38.240Z</time>
      </trkpt>
      <trkpt lat="42.81367" lon="2.33084">
        <ele>406.8</ele>
        <time>2021-08-30T21:25:40.485Z</time>
      </trkpt>
      <trkpt lat="42.8137" lon="2.33122">
        <ele>406.5</ele>
        <time>2021-08-30T21:25:44.243Z</time>
      </trkpt>
      <trkpt lat="42.8137" lon="2.33123">
        <ele>406.5</ele>
        <time>2021-08-30T21:25:44.362Z</time>
      </trkpt>
      <trkpt lat="42.81369" lon="2.33159">
        <ele>406.7</ele>
        <time>2021-08-30T21:25:48.977Z</time>
      </trkpt>
      <trkpt lat="42.81365" lon="2.33198">
        <ele>407.6</ele>
        <time>2021-08-30T21:25:55.548Z</time>
      </trkpt>
      <trkpt lat="42.8136" lon="2.33231">
        <ele>408.6</ele>
        <time>2021-08-30T21:26:01.931Z</time>
      </trkpt>
      <trkpt lat="42.81351" lon="2.33284">
        <ele>409</ele>
        <time>2021-08-30T21:26:09.073Z</time>
      </trkpt>
      <trkpt lat="42.81339" lon="2.33343">
        <ele>408.4</ele>
        <time>2021-08-30T21:26:14.889Z</time>
      </trkpt>
      <trkpt lat="42.8132" lon="2.33454">
        <ele>407.3</ele>
        <time>2021-08-30T21:26:25.746Z</time>
      </trkpt>
      <trkpt lat="42.81293" lon="2.33593">
        <ele>401.3</ele>
        <time>2021-08-30T21:26:34.538Z</time>
      </trkpt>
      <trkpt lat="42.81284" lon="2.33623">
        <ele>399.9</ele>
        <time>2021-08-30T21:26:36.489Z</time>
      </trkpt>
      <trkpt lat="42.81272" lon="2.33654">
        <ele>398.5</ele>
        <time>2021-08-30T21:26:38.676Z</time>
      </trkpt>
      <trkpt lat="42.81265" lon="2.33671">
        <ele>397.8</ele>
        <time>2021-08-30T21:26:39.951Z</time>
      </trkpt>
      <trkpt lat="42.81259" lon="2.33689">
        <ele>397.6</ele>
        <time>2021-08-30T21:26:41.819Z</time>
      </trkpt>
      <trkpt lat="42.81254" lon="2.33703">
        <ele>397.4</ele>
        <time>2021-08-30T21:26:43.224Z</time>
      </trkpt>
      <trkpt lat="42.8125" lon="2.33731">
        <ele>396.1</ele>
        <time>2021-08-30T21:26:44.896Z</time>
      </trkpt>
      <trkpt lat="42.81241" lon="2.33876">
        <ele>393.8</ele>
        <time>2021-08-30T21:26:57.417Z</time>
      </trkpt>
      <trkpt lat="42.81242" lon="2.33901">
        <ele>393.4</ele>
        <time>2021-08-30T21:26:59.566Z</time>
      </trkpt>
      <trkpt lat="42.81245" lon="2.3392">
        <ele>392.8</ele>
        <time>2021-08-30T21:27:00.918Z</time>
      </trkpt>
      <trkpt lat="42.81272" lon="2.34032">
        <ele>391.3</ele>
        <time>2021-08-30T21:27:11.577Z</time>
      </trkpt>
      <trkpt lat="42.81276" lon="2.34055">
        <ele>391.4</ele>
        <time>2021-08-30T21:27:14.553Z</time>
      </trkpt>
      <trkpt lat="42.81278" lon="2.34094">
        <ele>391.5</ele>
        <time>2021-08-30T21:27:19.368Z</time>
      </trkpt>
      <trkpt lat="42.81278" lon="2.34109">
        <ele>391.8</ele>
        <time>2021-08-30T21:27:21.752Z</time>
      </trkpt>
      <trkpt lat="42.81278" lon="2.34182">
        <ele>392.7</ele>
        <time>2021-08-30T21:27:32.040Z</time>
      </trkpt>
      <trkpt lat="42.81278" lon="2.34201">
        <ele>392.7</ele>
        <time>2021-08-30T21:27:34.306Z</time>
      </trkpt>
      <trkpt lat="42.81278" lon="2.34238">
        <ele>392.7</ele>
        <time>2021-08-30T21:27:38.717Z</time>
      </trkpt>
      <trkpt lat="42.81279" lon="2.34261">
        <ele>392.3</ele>
        <time>2021-08-30T21:27:40.652Z</time>
      </trkpt>
      <trkpt lat="42.81282" lon="2.34427">
        <ele>386.9</ele>
        <time>2021-08-30T21:27:51.969Z</time>
      </trkpt>
      <trkpt lat="42.81282" lon="2.34445">
        <ele>386.8</ele>
        <time>2021-08-30T21:27:53.815Z</time>
      </trkpt>
      <trkpt lat="42.81287" lon="2.34591">
        <ele>383.7</ele>
        <time>2021-08-30T21:28:05.407Z</time>
      </trkpt>
      <trkpt lat="42.81287" lon="2.3464">
        <ele>382.9</ele>
        <time>2021-08-30T21:28:09.589Z</time>
      </trkpt>
      <trkpt lat="42.81285" lon="2.34743">
        <ele>382.1</ele>
        <time>2021-08-30T21:28:19.736Z</time>
      </trkpt>
      <trkpt lat="42.81284" lon="2.34758">
        <ele>381.8</ele>
        <time>2021-08-30T21:28:20.953Z</time>
      </trkpt>
      <trkpt lat="42.81282" lon="2.34901">
        <ele>378.5</ele>
        <time>2021-08-30T21:28:31.999Z</time>
      </trkpt>
      <trkpt lat="42.8128" lon="2.34946">
        <ele>377.7</ele>
        <time>2021-08-30T21:28:35.763Z</time>
      </trkpt>
      <trkpt lat="42.81279" lon="2.35043">
        <ele>376.2</ele>
        <time>2021-08-30T21:28:44.155Z</time>
      </trkpt>
      <trkpt lat="42.81276" lon="2.35081">
        <ele>375.9</ele>
        <time>2021-08-30T21:28:47.913Z</time>
      </trkpt>
      <trkpt lat="42.81272" lon="2.35106">
        <ele>376</ele>
        <time>2021-08-30T21:28:51.121Z</time>
      </trkpt>
      <trkpt lat="42.81267" lon="2.35133">
        <ele>376.1</ele>
        <time>2021-08-30T21:28:54.597Z</time>
      </trkpt>
      <trkpt lat="42.81263" lon="2.3515">
        <ele>376.1</ele>
        <time>2021-08-30T21:28:56.726Z</time>
      </trkpt>
      <trkpt lat="42.81243" lon="2.35222">
        <ele>375.3</ele>
        <time>2021-08-30T21:29:03.965Z</time>
      </trkpt>
      <trkpt lat="42.81239" lon="2.35234">
        <ele>375.5</ele>
        <time>2021-08-30T21:29:05.904Z</time>
      </trkpt>
      <trkpt lat="42.81232" lon="2.35269">
        <ele>376.1</ele>
        <time>2021-08-30T21:29:11.356Z</time>
      </trkpt>
      <trkpt lat="42.81229" lon="2.35293">
        <ele>376.7</ele>
        <time>2021-08-30T21:29:15.549Z</time>
      </trkpt>
      <trkpt lat="42.81228" lon="2.35321">
        <ele>377.1</ele>
        <time>2021-08-30T21:29:19.616Z</time>
      </trkpt>
      <trkpt lat="42.81234" lon="2.35358">
        <ele>376.2</ele>
        <time>2021-08-30T21:29:22.515Z</time>
      </trkpt>
      <trkpt lat="42.81241" lon="2.35387">
        <ele>374.9</ele>
        <time>2021-08-30T21:29:24.364Z</time>
      </trkpt>
      <trkpt lat="42.81239" lon="2.35405">
        <ele>375.5</ele>
        <time>2021-08-30T21:29:28.038Z</time>
      </trkpt>
      <trkpt lat="42.8124" lon="2.35424">
        <ele>375.4</ele>
        <time>2021-08-30T21:29:30.085Z</time>
      </trkpt>
      <trkpt lat="42.81244" lon="2.35438">
        <ele>374.8</ele>
        <time>2021-08-30T21:29:31.022Z</time>
      </trkpt>
      <trkpt lat="42.81267" lon="2.35497">
        <ele>373.7</ele>
        <time>2021-08-30T21:29:36.712Z</time>
      </trkpt>
      <trkpt lat="42.81274" lon="2.35512">
        <ele>373.4</ele>
        <time>2021-08-30T21:29:38.216Z</time>
      </trkpt>
      <trkpt lat="42.81274" lon="2.35536">
        <ele>373.6</ele>
        <time>2021-08-30T21:29:41.410Z</time>
      </trkpt>
      <trkpt lat="42.81271" lon="2.35554">
        <ele>374</ele>
        <time>2021-08-30T21:29:44.428Z</time>
      </trkpt>
      <trkpt lat="42.8127" lon="2.35565">
        <ele>374.2</ele>
        <time>2021-08-30T21:29:46.134Z</time>
      </trkpt>
      <trkpt lat="42.81269" lon="2.35578">
        <ele>374.4</ele>
        <time>2021-08-30T21:29:48.060Z</time>
      </trkpt>
      <trkpt lat="42.81268" lon="2.35594">
        <ele>374.9</ele>
        <time>2021-08-30T21:29:51.193Z</time>
      </trkpt>
      <trkpt lat="42.81268" lon="2.35607">
        <ele>375.4</ele>
        <time>2021-08-30T21:29:53.947Z</time>
      </trkpt>
      <trkpt lat="42.8127" lon="2.35621">
        <ele>375.8</ele>
        <time>2021-08-30T21:29:56.564Z</time>
      </trkpt>
      <trkpt lat="42.81272" lon="2.35638">
        <ele>376.3</ele>
        <time>2021-08-30T21:29:59.785Z</time>
      </trkpt>
      <trkpt lat="42.81281" lon="2.35703">
        <ele>379</ele>
        <time>2021-08-30T21:30:14.106Z</time>
      </trkpt>
      <trkpt lat="42.81289" lon="2.35763">
        <ele>382.7</ele>
        <time>2021-08-30T21:30:30.288Z</time>
      </trkpt>
      <trkpt lat="42.81294" lon="2.35816">
        <ele>387.5</ele>
        <time>2021-08-30T21:30:51.497Z</time>
      </trkpt>
      <trkpt lat="42.81297" lon="2.35857">
        <ele>389.8</ele>
        <time>2021-08-30T21:31:01.859Z</time>
      </trkpt>
      <trkpt lat="42.81297" lon="2.35902">
        <ele>391.4</ele>
        <time>2021-08-30T21:31:11.147Z</time>
      </trkpt>
      <trkpt lat="42.81254" lon="2.3641">
        <ele>371.2</ele>
        <time>2021-08-30T21:31:43.215Z</time>
      </trkpt>
      <trkpt lat="42.81249" lon="2.36437">
        <ele>370.8</ele>
        <time>2021-08-30T21:31:45.666Z</time>
      </trkpt>
      <trkpt lat="42.81234" lon="2.36499">
        <ele>370.2</ele>
        <time>2021-08-30T21:31:51.935Z</time>
      </trkpt>
      <trkpt lat="42.81232" lon="2.36508">
        <ele>370.1</ele>
        <time>2021-08-30T21:31:52.815Z</time>
      </trkpt>
      <trkpt lat="42.81215" lon="2.36568">
        <ele>368.6</ele>
        <time>2021-08-30T21:31:57.765Z</time>
      </trkpt>
      <trkpt lat="42.8121" lon="2.36595">
        <ele>367.4</ele>
        <time>2021-08-30T21:31:59.443Z</time>
      </trkpt>
      <trkpt lat="42.81207" lon="2.36659">
        <ele>363.9</ele>
        <time>2021-08-30T21:32:03.406Z</time>
      </trkpt>
      <trkpt lat="42.81202" lon="2.36823">
        <ele>357.5</ele>
        <time>2021-08-30T21:32:13.760Z</time>
      </trkpt>
      <trkpt lat="42.812" lon="2.36873">
        <ele>355.2</ele>
        <time>2021-08-30T21:32:16.685Z</time>
      </trkpt>
      <trkpt lat="42.81198" lon="2.3696">
        <ele>352.5</ele>
        <time>2021-08-30T21:32:22.730Z</time>
      </trkpt>
      <trkpt lat="42.81195" lon="2.37052">
        <ele>351.8</ele>
        <time>2021-08-30T21:32:31.825Z</time>
      </trkpt>
      <trkpt lat="42.81193" lon="2.37123">
        <ele>351.3</ele>
        <time>2021-08-30T21:32:38.915Z</time>
      </trkpt>
      <trkpt lat="42.8119" lon="2.37197">
        <ele>350</ele>
        <time>2021-08-30T21:32:45.123Z</time>
      </trkpt>
      <trkpt lat="42.8119" lon="2.3721">
        <ele>349.6</ele>
        <time>2021-08-30T21:32:46.029Z</time>
      </trkpt>
      <trkpt lat="42.8119" lon="2.37225">
        <ele>349.2</ele>
        <time>2021-08-30T21:32:47.131Z</time>
      </trkpt>
      <trkpt lat="42.81196" lon="2.37242">
        <ele>348.5</ele>
        <time>2021-08-30T21:32:48.348Z</time>
      </trkpt>
      <trkpt lat="42.81207" lon="2.37257">
        <ele>348.2</ele>
        <time>2021-08-30T21:32:50.222Z</time>
      </trkpt>
      <trkpt lat="42.81243" lon="2.37295">
        <ele>348.7</ele>
        <time>2021-08-30T21:32:58.450Z</time>
      </trkpt>
      <trkpt lat="42.8125" lon="2.37306">
        <ele>349</ele>
        <time>2021-08-30T21:33:00.787Z</time>
      </trkpt>
      <trkpt lat="42.81256" lon="2.37318">
        <ele>349</ele>
        <time>2021-08-30T21:33:02.519Z</time>
      </trkpt>
      <trkpt lat="42.81257" lon="2.37334">
        <ele>349.4</ele>
        <time>2021-08-30T21:33:05.298Z</time>
      </trkpt>
      <trkpt lat="42.81257" lon="2.37347">
        <ele>349.8</ele>
        <time>2021-08-30T21:33:07.815Z</time>
      </trkpt>
      <trkpt lat="42.81255" lon="2.37356">
        <ele>350.2</ele>
        <time>2021-08-30T21:33:09.884Z</time>
      </trkpt>
      <trkpt lat="42.81254" lon="2.37361">
        <ele>350.4</ele>
        <time>2021-08-30T21:33:10.983Z</time>
      </trkpt>
      <trkpt lat="42.81253" lon="2.37368">
        <ele>350.6</ele>
        <time>2021-08-30T21:33:12.292Z</time>
      </trkpt>
      <trkpt lat="42.81244" lon="2.37412">
        <ele>351.8</ele>
        <time>2021-08-30T21:33:20.397Z</time>
      </trkpt>
      <trkpt lat="42.81243" lon="2.37418">
        <ele>351.9</ele>
        <time>2021-08-30T21:33:21.317Z</time>
      </trkpt>
      <trkpt lat="42.81276" lon="2.37437">
        <ele>351.2</ele>
        <time>2021-08-30T21:33:25.618Z</time>
      </trkpt>
      <trkpt lat="42.81299" lon="2.37449">
        <ele>351</ele>
        <time>2021-08-30T21:33:29.035Z</time>
      </trkpt>
      <trkpt lat="42.81307" lon="2.37452">
        <ele>351</ele>
        <time>2021-08-30T21:33:30.384Z</time>
      </trkpt>
      <trkpt lat="42.81311" lon="2.37454">
        <ele>351</ele>
        <time>2021-08-30T21:33:31.076Z</time>
      </trkpt>
      <trkpt lat="42.81313" lon="2.37461">
        <ele>351.4</ele>
        <time>2021-08-30T21:33:32.915Z</time>
      </trkpt>
      <trkpt lat="42.81306" lon="2.37503">
        <ele>353.2</ele>
        <time>2021-08-30T21:33:42.324Z</time>
      </trkpt>
      <trkpt lat="42.81311" lon="2.37508">
        <ele>353.1</ele>
        <time>2021-08-30T21:33:43.100Z</time>
      </trkpt>
      <trkpt lat="42.81325" lon="2.37517">
        <ele>353</ele>
        <time>2021-08-30T21:33:45.389Z</time>
      </trkpt>
      <trkpt lat="42.8133" lon="2.37519">
        <ele>353</ele>
        <time>2021-08-30T21:33:46.236Z</time>
      </trkpt>
      <trkpt lat="42.81337" lon="2.37523">
        <ele>352.6</ele>
        <time>2021-08-30T21:33:46.891Z</time>
      </trkpt>
      <trkpt lat="42.81349" lon="2.37524">
        <ele>351.7</ele>
        <time>2021-08-30T21:33:47.904Z</time>
      </trkpt>
      <trkpt lat="42.8136" lon="2.37525">
        <ele>350.8</ele>
        <time>2021-08-30T21:33:48.833Z</time>
      </trkpt>
      <trkpt lat="42.8138" lon="2.3752">
        <ele>349.5</ele>
        <time>2021-08-30T21:33:50.435Z</time>
      </trkpt>
      <trkpt lat="42.81399" lon="2.37514">
        <ele>348.2</ele>
        <time>2021-08-30T21:33:51.941Z</time>
      </trkpt>
      <trkpt lat="42.81406" lon="2.37506">
        <ele>347.8</ele>
        <time>2021-08-30T21:33:52.794Z</time>
      </trkpt>
      <trkpt lat="42.81411" lon="2.37497">
        <ele>347.4</ele>
        <time>2021-08-30T21:33:53.536Z</time>
      </trkpt>
      <trkpt lat="42.81415" lon="2.37483">
        <ele>346.5</ele>
        <time>2021-08-30T21:33:54.465Z</time>
      </trkpt>
      <trkpt lat="42.81418" lon="2.37455">
        <ele>345.3</ele>
        <time>2021-08-30T21:33:56.182Z</time>
      </trkpt>
      <trkpt lat="42.81421" lon="2.37431">
        <ele>344.4</ele>
        <time>2021-08-30T21:33:57.754Z</time>
      </trkpt>
      <trkpt lat="42.81421" lon="2.37406">
        <ele>343.9</ele>
        <time>2021-08-30T21:33:59.772Z</time>
      </trkpt>
      <trkpt lat="42.8142" lon="2.37395">
        <ele>344</ele>
        <time>2021-08-30T21:34:01.262Z</time>
      </trkpt>
      <trkpt lat="42.81411" lon="2.37358">
        <ele>344</ele>
        <time>2021-08-30T21:34:05.909Z</time>
      </trkpt>
      <trkpt lat="42.81411" lon="2.3735">
        <ele>344</ele>
        <time>2021-08-30T21:34:06.863Z</time>
      </trkpt>
      <trkpt lat="42.81415" lon="2.37344">
        <ele>344</ele>
        <time>2021-08-30T21:34:07.830Z</time>
      </trkpt>
      <trkpt lat="42.81422" lon="2.37338">
        <ele>344.1</ele>
        <time>2021-08-30T21:34:09.341Z</time>
      </trkpt>
      <trkpt lat="42.81426" lon="2.37337">
        <ele>344.1</ele>
        <time>2021-08-30T21:34:10.002Z</time>
      </trkpt>
      <trkpt lat="42.8144" lon="2.37333">
        <ele>344.3</ele>
        <time>2021-08-30T21:34:12.669Z</time>
      </trkpt>
      <trkpt lat="42.81452" lon="2.37333">
        <ele>344.4</ele>
        <time>2021-08-30T21:34:14.780Z</time>
      </trkpt>
      <trkpt lat="42.81459" lon="2.3733">
        <ele>344.6</ele>
        <time>2021-08-30T21:34:16.370Z</time>
      </trkpt>
      <trkpt lat="42.81469" lon="2.37321">
        <ele>345</ele>
        <time>2021-08-30T21:34:19.175Z</time>
      </trkpt>
      <trkpt lat="42.81515" lon="2.37263">
        <ele>347.4</ele>
        <time>2021-08-30T21:34:34.864Z</time>
      </trkpt>
      <trkpt lat="42.81535" lon="2.37233">
        <ele>348.4</ele>
        <time>2021-08-30T21:34:41.849Z</time>
      </trkpt>
      <trkpt lat="42.81553" lon="2.37201">
        <ele>348.9</ele>
        <time>2021-08-30T21:34:47.538Z</time>
      </trkpt>
      <trkpt lat="42.81564" lon="2.37187">
        <ele>348.5</ele>
        <time>2021-08-30T21:34:49.206Z</time>
      </trkpt>
      <trkpt lat="42.81573" lon="2.37176">
        <ele>347.9</ele>
        <time>2021-08-30T21:34:50.277Z</time>
      </trkpt>
      <trkpt lat="42.81596" lon="2.37137">
        <ele>346.9</ele>
        <time>2021-08-30T21:34:54.318Z</time>
      </trkpt>
      <trkpt lat="42.81653" lon="2.3706">
        <ele>347.1</ele>
        <time>2021-08-30T21:35:07.665Z</time>
      </trkpt>
      <trkpt lat="42.81657" lon="2.37053">
        <ele>347.1</ele>
        <time>2021-08-30T21:35:08.723Z</time>
      </trkpt>
      <trkpt lat="42.8167" lon="2.37029">
        <ele>346.9</ele>
        <time>2021-08-30T21:35:11.718Z</time>
      </trkpt>
      <trkpt lat="42.81686" lon="2.36992">
        <ele>346.5</ele>
        <time>2021-08-30T21:35:15.833Z</time>
      </trkpt>
      <trkpt lat="42.81693" lon="2.36965">
        <ele>346.9</ele>
        <time>2021-08-30T21:35:19.969Z</time>
      </trkpt>
      <trkpt lat="42.81696" lon="2.36942">
        <ele>347.4</ele>
        <time>2021-08-30T21:35:23.770Z</time>
      </trkpt>
      <trkpt lat="42.81714" lon="2.36786">
        <ele>353.7</ele>
        <time>2021-08-30T21:35:57.666Z</time>
      </trkpt>
      <trkpt lat="42.81717" lon="2.36762">
        <ele>354.9</ele>
        <time>2021-08-30T21:36:03.386Z</time>
      </trkpt>
      <trkpt lat="42.81725" lon="2.36742">
        <ele>355.6</ele>
        <time>2021-08-30T21:36:07.793Z</time>
      </trkpt>
      <trkpt lat="42.81741" lon="2.36713">
        <ele>357</ele>
        <time>2021-08-30T21:36:15.489Z</time>
      </trkpt>
      <trkpt lat="42.81766" lon="2.36675">
        <ele>359.1</ele>
        <time>2021-08-30T21:36:26.572Z</time>
      </trkpt>
      <trkpt lat="42.81883" lon="2.36523">
        <ele>364.1</ele>
        <time>2021-08-30T21:37:03.229Z</time>
      </trkpt>
      <trkpt lat="42.81897" lon="2.36502">
        <ele>363.6</ele>
        <time>2021-08-30T21:37:05.603Z</time>
      </trkpt>
      <trkpt lat="42.81908" lon="2.36479">
        <ele>364.5</ele>
        <time>2021-08-30T21:37:11.134Z</time>
      </trkpt>
      <trkpt lat="42.81913" lon="2.36468">
        <ele>365</ele>
        <time>2021-08-30T21:37:13.880Z</time>
      </trkpt>
      <trkpt lat="42.81917" lon="2.36449">
        <ele>366.7</ele>
        <time>2021-08-30T21:37:21.247Z</time>
      </trkpt>
      <trkpt lat="42.81921" lon="2.36397">
        <ele>374.9</ele>
        <time>2021-08-30T21:37:45.291Z</time>
      </trkpt>
      <trkpt lat="42.81926" lon="2.36385">
        <ele>377</ele>
        <time>2021-08-30T21:37:51.637Z</time>
      </trkpt>
      <trkpt lat="42.81933" lon="2.36378">
        <ele>377.7</ele>
        <time>2021-08-30T21:37:54.724Z</time>
      </trkpt>
      <trkpt lat="42.81941" lon="2.36377">
        <ele>377.1</ele>
        <time>2021-08-30T21:37:55.401Z</time>
      </trkpt>
      <trkpt lat="42.81966" lon="2.36388">
        <ele>372.6</ele>
        <time>2021-08-30T21:37:57.614Z</time>
      </trkpt>
      <trkpt lat="42.81973" lon="2.36388">
        <ele>372</ele>
        <time>2021-08-30T21:37:58.204Z</time>
      </trkpt>
      <trkpt lat="42.81979" lon="2.36385">
        <ele>371.9</ele>
        <time>2021-08-30T21:37:59.008Z</time>
      </trkpt>
      <trkpt lat="42.81985" lon="2.36378">
        <ele>372.5</ele>
        <time>2021-08-30T21:38:01.713Z</time>
      </trkpt>
      <trkpt lat="42.8199" lon="2.36369">
        <ele>373.5</ele>
        <time>2021-08-30T21:38:06.100Z</time>
      </trkpt>
      <trkpt lat="42.82008" lon="2.36316">
        <ele>381.2</ele>
        <time>2021-08-30T21:38:32.958Z</time>
      </trkpt>
      <trkpt lat="42.82016" lon="2.363">
        <ele>383.9</ele>
        <time>2021-08-30T21:38:41.863Z</time>
      </trkpt>
      <trkpt lat="42.82024" lon="2.36288">
        <ele>385.5</ele>
        <time>2021-08-30T21:38:49.320Z</time>
      </trkpt>
      <trkpt lat="42.82054" lon="2.36259">
        <ele>386.7</ele>
        <time>2021-08-30T21:38:57.845Z</time>
      </trkpt>
      <trkpt lat="42.8207" lon="2.36224">
        <ele>391.9</ele>
        <time>2021-08-30T21:39:16.810Z</time>
      </trkpt>
      <trkpt lat="42.82079" lon="2.36211">
        <ele>393.2</ele>
        <time>2021-08-30T21:39:22.306Z</time>
      </trkpt>
      <trkpt lat="42.82131" lon="2.36146">
        <ele>397.2</ele>
        <time>2021-08-30T21:39:43.277Z</time>
      </trkpt>
      <trkpt lat="42.82167" lon="2.36106">
        <ele>400.4</ele>
        <time>2021-08-30T21:39:58.342Z</time>
      </trkpt>
      <trkpt lat="42.82182" lon="2.36084">
        <ele>404.2</ele>
        <time>2021-08-30T21:40:12.154Z</time>
      </trkpt>
      <trkpt lat="42.82207" lon="2.36045">
        <ele>404.3</ele>
        <time>2021-08-30T21:40:18.482Z</time>
      </trkpt>
      <trkpt lat="42.82243" lon="2.35991">
        <ele>407.2</ele>
        <time>2021-08-30T21:40:34.122Z</time>
      </trkpt>
      <trkpt lat="42.82265" lon="2.3595">
        <ele>408.5</ele>
        <time>2021-08-30T21:40:43.023Z</time>
      </trkpt>
      <trkpt lat="42.82279" lon="2.35923">
        <ele>411.2</ele>
        <time>2021-08-30T21:40:54.546Z</time>
      </trkpt>
      <trkpt lat="42.82289" lon="2.35908">
        <ele>413</ele>
        <time>2021-08-30T21:41:02.454Z</time>
      </trkpt>
      <trkpt lat="42.82302" lon="2.35894">
        <ele>414.8</ele>
        <time>2021-08-30T21:41:10.101Z</time>
      </trkpt>
      <trkpt lat="42.82312" lon="2.35879">
        <ele>416</ele>
        <time>2021-08-30T21:41:15.391Z</time>
      </trkpt>
      <trkpt lat="42.82381" lon="2.35763">
        <ele>421.7</ele>
        <time>2021-08-30T21:41:46.945Z</time>
      </trkpt>
      <trkpt lat="42.82388" lon="2.35755">
        <ele>422.7</ele>
        <time>2021-08-30T21:41:51.198Z</time>
      </trkpt>
      <trkpt lat="42.82408" lon="2.35739">
        <ele>425.6</ele>
        <time>2021-08-30T21:42:04.167Z</time>
      </trkpt>
      <trkpt lat="42.82445" lon="2.35724">
        <ele>426.4</ele>
        <time>2021-08-30T21:42:11.911Z</time>
      </trkpt>
      <trkpt lat="42.82463" lon="2.35713">
        <ele>427.2</ele>
        <time>2021-08-30T21:42:17.012Z</time>
      </trkpt>
      <trkpt lat="42.82484" lon="2.35694">
        <ele>430.3</ele>
        <time>2021-08-30T21:42:30.743Z</time>
      </trkpt>
      <trkpt lat="42.82488" lon="2.35686">
        <ele>431.6</ele>
        <time>2021-08-30T21:42:35.195Z</time>
      </trkpt>
      <trkpt lat="42.82491" lon="2.35676">
        <ele>433</ele>
        <time>2021-08-30T21:42:40.163Z</time>
      </trkpt>
      <trkpt lat="42.82491" lon="2.35666">
        <ele>433.9</ele>
        <time>2021-08-30T21:42:44.144Z</time>
      </trkpt>
      <trkpt lat="42.82482" lon="2.35629">
        <ele>434.6</ele>
        <time>2021-08-30T21:42:50.134Z</time>
      </trkpt>
      <trkpt lat="42.82481" lon="2.35615">
        <ele>435.4</ele>
        <time>2021-08-30T21:42:53.712Z</time>
      </trkpt>
      <trkpt lat="42.82481" lon="2.35605">
        <ele>436.2</ele>
        <time>2021-08-30T21:42:57.113Z</time>
      </trkpt>
      <trkpt lat="42.82485" lon="2.35591">
        <ele>438.5</ele>
        <time>2021-08-30T21:43:04.022Z</time>
      </trkpt>
      <trkpt lat="42.8249" lon="2.35577">
        <ele>440</ele>
        <time>2021-08-30T21:43:10.971Z</time>
      </trkpt>
      <trkpt lat="42.82496" lon="2.35566">
        <ele>440.4</ele>
        <time>2021-08-30T21:43:13.543Z</time>
      </trkpt>
      <trkpt lat="42.82519" lon="2.35531">
        <ele>440.2</ele>
        <time>2021-08-30T21:43:18.687Z</time>
      </trkpt>
      <trkpt lat="42.82536" lon="2.35507">
        <ele>443.3</ele>
        <time>2021-08-30T21:43:32.665Z</time>
      </trkpt>
      <trkpt lat="42.8257" lon="2.35468">
        <ele>451.4</ele>
        <time>2021-08-30T21:44:00.520Z</time>
      </trkpt>
      <trkpt lat="42.82581" lon="2.35452">
        <ele>453.8</ele>
        <time>2021-08-30T21:44:10.604Z</time>
      </trkpt>
      <trkpt lat="42.82594" lon="2.3543">
        <ele>456.3</ele>
        <time>2021-08-30T21:44:21.569Z</time>
      </trkpt>
      <trkpt lat="42.82633" lon="2.35341">
        <ele>472.7</ele>
        <time>2021-08-30T21:45:09.240Z</time>
      </trkpt>
      <trkpt lat="42.82642" lon="2.35314">
        <ele>477.8</ele>
        <time>2021-08-30T21:45:22.877Z</time>
      </trkpt>
      <trkpt lat="42.82661" lon="2.35218">
        <ele>484.2</ele>
        <time>2021-08-30T21:45:50.417Z</time>
      </trkpt>
      <trkpt lat="42.82667" lon="2.35197">
        <ele>484.3</ele>
        <time>2021-08-30T21:45:53.261Z</time>
      </trkpt>
      <trkpt lat="42.82692" lon="2.35139">
        <ele>493.2</ele>
        <time>2021-08-30T21:46:24.194Z</time>
      </trkpt>
      <trkpt lat="42.82706" lon="2.35097">
        <ele>495.1</ele>
        <time>2021-08-30T21:46:34.214Z</time>
      </trkpt>
      <trkpt lat="42.82714" lon="2.35078">
        <ele>496.5</ele>
        <time>2021-08-30T21:46:40.249Z</time>
      </trkpt>
      <trkpt lat="42.8282" lon="2.349">
        <ele>517.6</ele>
        <time>2021-08-30T21:48:14.799Z</time>
      </trkpt>
      <trkpt lat="42.82843" lon="2.3487">
        <ele>520.7</ele>
        <time>2021-08-30T21:48:27.919Z</time>
      </trkpt>
      <trkpt lat="42.8286" lon="2.34853">
        <ele>523</ele>
        <time>2021-08-30T21:48:37.697Z</time>
      </trkpt>
      <trkpt lat="42.82873" lon="2.34845">
        <ele>525.7</ele>
        <time>2021-08-30T21:48:46.639Z</time>
      </trkpt>
      <trkpt lat="42.82944" lon="2.34819">
        <ele>544.1</ele>
        <time>2021-08-30T21:49:32.729Z</time>
      </trkpt>
      <trkpt lat="42.82957" lon="2.34815">
        <ele>548.1</ele>
        <time>2021-08-30T21:49:41.084Z</time>
      </trkpt>
      <trkpt lat="42.8296" lon="2.34814">
        <ele>549.1</ele>
        <time>2021-08-30T21:49:43.020Z</time>
      </trkpt>
      <trkpt lat="42.82965" lon="2.3481">
        <ele>550.6</ele>
        <time>2021-08-30T21:49:46.654Z</time>
      </trkpt>
      <trkpt lat="42.82969" lon="2.34805">
        <ele>551.8</ele>
        <time>2021-08-30T21:49:50.056Z</time>
      </trkpt>
      <trkpt lat="42.82977" lon="2.34757">
        <ele>553.7</ele>
        <time>2021-08-30T21:50:00.496Z</time>
      </trkpt>
      <trkpt lat="42.82977" lon="2.34748">
        <ele>553.8</ele>
        <time>2021-08-30T21:50:01.742Z</time>
      </trkpt>
      <trkpt lat="42.82975" lon="2.34733">
        <ele>554.6</ele>
        <time>2021-08-30T21:50:05.442Z</time>
      </trkpt>
      <trkpt lat="42.82967" lon="2.34701">
        <ele>553.5</ele>
        <time>2021-08-30T21:50:07.745Z</time>
      </trkpt>
      <trkpt lat="42.82963" lon="2.3468">
        <ele>553</ele>
        <time>2021-08-30T21:50:09.421Z</time>
      </trkpt>
      <trkpt lat="42.82957" lon="2.34582">
        <ele>564.2</ele>
        <time>2021-08-30T21:50:54.636Z</time>
      </trkpt>
      <trkpt lat="42.82952" lon="2.34539">
        <ele>565.4</ele>
        <time>2021-08-30T21:51:02.550Z</time>
      </trkpt>
      <trkpt lat="42.82952" lon="2.34506">
        <ele>568.8</ele>
        <time>2021-08-30T21:51:17.723Z</time>
      </trkpt>
      <trkpt lat="42.82942" lon="2.34442">
        <ele>564.1</ele>
        <time>2021-08-30T21:51:21.766Z</time>
      </trkpt>
      <trkpt lat="42.8294" lon="2.34425">
        <ele>563.1</ele>
        <time>2021-08-30T21:51:22.830Z</time>
      </trkpt>
      <trkpt lat="42.82942" lon="2.34415">
        <ele>564.8</ele>
        <time>2021-08-30T21:51:27.595Z</time>
      </trkpt>
      <trkpt lat="42.82954" lon="2.34397">
        <ele>573.4</ele>
        <time>2021-08-30T21:51:38.780Z</time>
      </trkpt>
      <trkpt lat="42.82962" lon="2.34367">
        <ele>578.9</ele>
        <time>2021-08-30T21:51:53.457Z</time>
      </trkpt>
      <trkpt lat="42.82964" lon="2.34355">
        <ele>580.3</ele>
        <time>2021-08-30T21:51:59.115Z</time>
      </trkpt>
      <trkpt lat="42.82964" lon="2.34281">
        <ele>584.6</ele>
        <time>2021-08-30T21:52:18.193Z</time>
      </trkpt>
      <trkpt lat="42.82956" lon="2.34239">
        <ele>582.3</ele>
        <time>2021-08-30T21:52:20.874Z</time>
      </trkpt>
      <trkpt lat="42.82958" lon="2.34195">
        <ele>588.4</ele>
        <time>2021-08-30T21:52:41.143Z</time>
      </trkpt>
      <trkpt lat="42.8297" lon="2.34147">
        <ele>600.3</ele>
        <time>2021-08-30T21:53:04.460Z</time>
      </trkpt>
      <trkpt lat="42.82972" lon="2.34122">
        <ele>602.3</ele>
        <time>2021-08-30T21:53:12.954Z</time>
      </trkpt>
      <trkpt lat="42.82969" lon="2.34025">
        <ele>603.7</ele>
        <time>2021-08-30T21:53:27.069Z</time>
      </trkpt>
      <trkpt lat="42.82965" lon="2.33981">
        <ele>604.5</ele>
        <time>2021-08-30T21:53:33.892Z</time>
      </trkpt>
      <trkpt lat="42.82957" lon="2.33925">
        <ele>607.2</ele>
        <time>2021-08-30T21:53:47.035Z</time>
      </trkpt>
      <trkpt lat="42.82952" lon="2.33905">
        <ele>609.3</ele>
        <time>2021-08-30T21:53:56.750Z</time>
      </trkpt>
      <trkpt lat="42.82946" lon="2.33888">
        <ele>611.5</ele>
        <time>2021-08-30T21:54:05.424Z</time>
      </trkpt>
      <trkpt lat="42.82938" lon="2.33874">
        <ele>612.6</ele>
        <time>2021-08-30T21:54:10.204Z</time>
      </trkpt>
      <trkpt lat="42.8293" lon="2.33864">
        <ele>612.9</ele>
        <time>2021-08-30T21:54:12.567Z</time>
      </trkpt>
      <trkpt lat="42.82925" lon="2.3386">
        <ele>612.5</ele>
        <time>2021-08-30T21:54:13.055Z</time>
      </trkpt>
      <trkpt lat="42.82918" lon="2.3386">
        <ele>610.6</ele>
        <time>2021-08-30T21:54:13.645Z</time>
      </trkpt>
      <trkpt lat="42.82903" lon="2.33876">
        <ele>608.5</ele>
        <time>2021-08-30T21:54:15.249Z</time>
      </trkpt>
      <trkpt lat="42.82891" lon="2.3388">
        <ele>609.7</ele>
        <time>2021-08-30T21:54:20.329Z</time>
      </trkpt>
      <trkpt lat="42.82882" lon="2.3388">
        <ele>611.3</ele>
        <time>2021-08-30T21:54:25.971Z</time>
      </trkpt>
      <trkpt lat="42.82871" lon="2.33874">
        <ele>614</ele>
        <time>2021-08-30T21:54:33.399Z</time>
      </trkpt>
      <trkpt lat="42.82858" lon="2.33864">
        <ele>617.2</ele>
        <time>2021-08-30T21:54:42.757Z</time>
      </trkpt>
      <trkpt lat="42.82848" lon="2.33852">
        <ele>619.6</ele>
        <time>2021-08-30T21:54:51.108Z</time>
      </trkpt>
      <trkpt lat="42.82842" lon="2.33837">
        <ele>621.2</ele>
        <time>2021-08-30T21:54:58.362Z</time>
      </trkpt>
      <trkpt lat="42.82842" lon="2.33825">
        <ele>623.1</ele>
        <time>2021-08-30T21:55:03.879Z</time>
      </trkpt>
      <trkpt lat="42.82846" lon="2.33808">
        <ele>626.3</ele>
        <time>2021-08-30T21:55:12.088Z</time>
      </trkpt>
      <trkpt lat="42.82853" lon="2.33798">
        <ele>627.7</ele>
        <time>2021-08-30T21:55:18.444Z</time>
      </trkpt>
      <trkpt lat="42.8286" lon="2.33792">
        <ele>628.4</ele>
        <time>2021-08-30T21:55:21.484Z</time>
      </trkpt>
      <trkpt lat="42.8287" lon="2.33788">
        <ele>628.3</ele>
        <time>2021-08-30T21:55:22.902Z</time>
      </trkpt>
      <trkpt lat="42.82878" lon="2.3379">
        <ele>627.3</ele>
        <time>2021-08-30T21:55:23.587Z</time>
      </trkpt>
      <trkpt lat="42.82883" lon="2.33794">
        <ele>626.2</ele>
        <time>2021-08-30T21:55:24.075Z</time>
      </trkpt>
      <trkpt lat="42.82887" lon="2.33799">
        <ele>625</ele>
        <time>2021-08-30T21:55:24.533Z</time>
      </trkpt>
      <trkpt lat="42.8289" lon="2.3381">
        <ele>622.8</ele>
        <time>2021-08-30T21:55:25.258Z</time>
      </trkpt>
      <trkpt lat="42.8289" lon="2.3382">
        <ele>621</ele>
        <time>2021-08-30T21:55:25.876Z</time>
      </trkpt>
      <trkpt lat="42.82887" lon="2.33828">
        <ele>619.7</ele>
        <time>2021-08-30T21:55:26.431Z</time>
      </trkpt>
      <trkpt lat="42.82877" lon="2.33851">
        <ele>616.6</ele>
        <time>2021-08-30T21:55:28.083Z</time>
      </trkpt>
      <trkpt lat="42.82848" lon="2.33908">
        <ele>614.9</ele>
        <time>2021-08-30T21:55:33.332Z</time>
      </trkpt>
      <trkpt lat="42.82842" lon="2.33916">
        <ele>615.8</ele>
        <time>2021-08-30T21:55:37.149Z</time>
      </trkpt>
      <trkpt lat="42.82836" lon="2.3392">
        <ele>617</ele>
        <time>2021-08-30T21:55:41.336Z</time>
      </trkpt>
      <trkpt lat="42.82827" lon="2.33919">
        <ele>621.3</ele>
        <time>2021-08-30T21:55:46.997Z</time>
      </trkpt>
      <trkpt lat="42.82818" lon="2.33914">
        <ele>626.4</ele>
        <time>2021-08-30T21:55:53.090Z</time>
      </trkpt>
      <trkpt lat="42.82812" lon="2.33902">
        <ele>630.1</ele>
        <time>2021-08-30T21:55:59.768Z</time>
      </trkpt>
      <trkpt lat="42.82809" lon="2.33888">
        <ele>632.3</ele>
        <time>2021-08-30T21:56:06.474Z</time>
      </trkpt>
      <trkpt lat="42.82808" lon="2.33868">
        <ele>633.7</ele>
        <time>2021-08-30T21:56:12.412Z</time>
      </trkpt>
      <trkpt lat="42.8281" lon="2.33847">
        <ele>633.5</ele>
        <time>2021-08-30T21:56:14.436Z</time>
      </trkpt>
      <trkpt lat="42.82814" lon="2.33828">
        <ele>633</ele>
        <time>2021-08-30T21:56:15.916Z</time>
      </trkpt>
      <trkpt lat="42.82822" lon="2.33809">
        <ele>632.6</ele>
        <time>2021-08-30T21:56:17.730Z</time>
      </trkpt>
      <trkpt lat="42.82832" lon="2.3379">
        <ele>631.5</ele>
        <time>2021-08-30T21:56:19.080Z</time>
      </trkpt>
      <trkpt lat="42.82856" lon="2.3376">
        <ele>634.9</ele>
        <time>2021-08-30T21:56:33.462Z</time>
      </trkpt>
      <trkpt lat="42.82861" lon="2.3375">
        <ele>636.3</ele>
        <time>2021-08-30T21:56:39.027Z</time>
      </trkpt>
      <trkpt lat="42.82865" lon="2.33733">
        <ele>637.9</ele>
        <time>2021-08-30T21:56:46.089Z</time>
      </trkpt>
      <trkpt lat="42.82867" lon="2.33706">
        <ele>640.5</ele>
        <time>2021-08-30T21:56:58.082Z</time>
      </trkpt>
      <trkpt lat="42.82871" lon="2.33692">
        <ele>641.1</ele>
        <time>2021-08-30T21:57:01.307Z</time>
      </trkpt>
      <trkpt lat="42.82892" lon="2.33651">
        <ele>641.1</ele>
        <time>2021-08-30T21:57:07.269Z</time>
      </trkpt>
      <trkpt lat="42.82899" lon="2.33641">
        <ele>641.1</ele>
        <time>2021-08-30T21:57:08.917Z</time>
      </trkpt>
      <trkpt lat="42.8291" lon="2.33634">
        <ele>639.3</ele>
        <time>2021-08-30T21:57:09.939Z</time>
      </trkpt>
      <trkpt lat="42.82922" lon="2.3363">
        <ele>638.5</ele>
        <time>2021-08-30T21:57:10.907Z</time>
      </trkpt>
      <trkpt lat="42.82933" lon="2.3363">
        <ele>639.4</ele>
        <time>2021-08-30T21:57:14.856Z</time>
      </trkpt>
      <trkpt lat="42.8296" lon="2.33634">
        <ele>640.9</ele>
        <time>2021-08-30T21:57:22.849Z</time>
      </trkpt>
      <trkpt lat="42.8301" lon="2.33653">
        <ele>642.1</ele>
        <time>2021-08-30T21:57:33.552Z</time>
      </trkpt>
      <trkpt lat="42.83019" lon="2.33653">
        <ele>643.4</ele>
        <time>2021-08-30T21:57:39.195Z</time>
      </trkpt>
      <trkpt lat="42.83028" lon="2.3365">
        <ele>645.2</ele>
        <time>2021-08-30T21:57:45.003Z</time>
      </trkpt>
      <trkpt lat="42.83038" lon="2.33641">
        <ele>647.5</ele>
        <time>2021-08-30T21:57:52.515Z</time>
      </trkpt>
      <trkpt lat="42.83045" lon="2.33638">
        <ele>648.6</ele>
        <time>2021-08-30T21:57:57.115Z</time>
      </trkpt>
      <trkpt lat="42.83053" lon="2.33639">
        <ele>649.5</ele>
        <time>2021-08-30T21:58:00.962Z</time>
      </trkpt>
      <trkpt lat="42.8306" lon="2.33645">
        <ele>650</ele>
        <time>2021-08-30T21:58:03.485Z</time>
      </trkpt>
      <trkpt lat="42.83065" lon="2.33654">
        <ele>650.2</ele>
        <time>2021-08-30T21:58:05.213Z</time>
      </trkpt>
      <trkpt lat="42.83067" lon="2.33665">
        <ele>650.1</ele>
        <time>2021-08-30T21:58:06.308Z</time>
      </trkpt>
      <trkpt lat="42.83065" lon="2.33676">
        <ele>650.4</ele>
        <time>2021-08-30T21:58:08.326Z</time>
      </trkpt>
      <trkpt lat="42.8306" lon="2.33686">
        <ele>650.2</ele>
        <time>2021-08-30T21:58:09.355Z</time>
      </trkpt>
      <trkpt lat="42.83032" lon="2.33716">
        <ele>647.3</ele>
        <time>2021-08-30T21:58:12.355Z</time>
      </trkpt>
      <trkpt lat="42.83025" lon="2.33728">
        <ele>646.9</ele>
        <time>2021-08-30T21:58:13.491Z</time>
      </trkpt>
      <trkpt lat="42.83024" lon="2.33738">
        <ele>647.5</ele>
        <time>2021-08-30T21:58:16.132Z</time>
      </trkpt>
      <trkpt lat="42.83025" lon="2.3375">
        <ele>648.5</ele>
        <time>2021-08-30T21:58:20.414Z</time>
      </trkpt>
      <trkpt lat="42.83029" lon="2.3376">
        <ele>649.5</ele>
        <time>2021-08-30T21:58:24.784Z</time>
      </trkpt>
      <trkpt lat="42.83035" lon="2.33767">
        <ele>651.1</ele>
        <time>2021-08-30T21:58:29.735Z</time>
      </trkpt>
      <trkpt lat="42.83043" lon="2.33769">
        <ele>653.2</ele>
        <time>2021-08-30T21:58:34.834Z</time>
      </trkpt>
      <trkpt lat="42.8305" lon="2.33769">
        <ele>654.9</ele>
        <time>2021-08-30T21:58:39.223Z</time>
      </trkpt>
      <trkpt lat="42.83062" lon="2.33761">
        <ele>656.7</ele>
        <time>2021-08-30T21:58:47.597Z</time>
      </trkpt>
      <trkpt lat="42.83067" lon="2.33753">
        <ele>656.5</ele>
        <time>2021-08-30T21:58:48.457Z</time>
      </trkpt>
      <trkpt lat="42.83074" lon="2.33737">
        <ele>656.4</ele>
        <time>2021-08-30T21:58:50.374Z</time>
      </trkpt>
      <trkpt lat="42.83092" lon="2.33651">
        <ele>656.5</ele>
        <time>2021-08-30T21:59:01.186Z</time>
      </trkpt>
      <trkpt lat="42.83096" lon="2.33641">
        <ele>657.8</ele>
        <time>2021-08-30T21:59:06.423Z</time>
      </trkpt>
      <trkpt lat="42.83124" lon="2.33599">
        <ele>665</ele>
        <time>2021-08-30T21:59:32.519Z</time>
      </trkpt>
      <trkpt lat="42.8313" lon="2.33582">
        <ele>665.4</ele>
        <time>2021-08-30T21:59:35.578Z</time>
      </trkpt>
      <trkpt lat="42.8314" lon="2.33545">
        <ele>669.6</ele>
        <time>2021-08-30T21:59:53.708Z</time>
      </trkpt>
      <trkpt lat="42.83141" lon="2.3353">
        <ele>670.3</ele>
        <time>2021-08-30T21:59:57.149Z</time>
      </trkpt>
      <trkpt lat="42.83141" lon="2.33517">
        <ele>670.9</ele>
        <time>2021-08-30T22:00:00.109Z</time>
      </trkpt>
      <trkpt lat="42.83138" lon="2.33505">
        <ele>671</ele>
        <time>2021-08-30T22:00:01.786Z</time>
      </trkpt>
      <trkpt lat="42.83127" lon="2.33472">
        <ele>672.6</ele>
        <time>2021-08-30T22:00:09.881Z</time>
      </trkpt>
      <trkpt lat="42.83121" lon="2.3346">
        <ele>672.8</ele>
        <time>2021-08-30T22:00:11.972Z</time>
      </trkpt>
      <trkpt lat="42.83116" lon="2.33453">
        <ele>672.7</ele>
        <time>2021-08-30T22:00:12.893Z</time>
      </trkpt>
      <trkpt lat="42.8311" lon="2.33448">
        <ele>672.3</ele>
        <time>2021-08-30T22:00:13.479Z</time>
      </trkpt>
      <trkpt lat="42.83103" lon="2.33445">
        <ele>671.5</ele>
        <time>2021-08-30T22:00:14.098Z</time>
      </trkpt>
      <trkpt lat="42.83089" lon="2.33444">
        <ele>669.5</ele>
        <time>2021-08-30T22:00:15.279Z</time>
      </trkpt>
      <trkpt lat="42.83083" lon="2.33442">
        <ele>668.9</ele>
        <time>2021-08-30T22:00:15.799Z</time>
      </trkpt>
      <trkpt lat="42.83078" lon="2.33437">
        <ele>670.9</ele>
        <time>2021-08-30T22:00:19.686Z</time>
      </trkpt>
      <trkpt lat="42.83074" lon="2.33431">
        <ele>672.7</ele>
        <time>2021-08-30T22:00:23.414Z</time>
      </trkpt>
      <trkpt lat="42.83071" lon="2.33422">
        <ele>674.5</ele>
        <time>2021-08-30T22:00:27.960Z</time>
      </trkpt>
      <trkpt lat="42.8307" lon="2.33411">
        <ele>675.7</ele>
        <time>2021-08-30T22:00:33.056Z</time>
      </trkpt>
      <trkpt lat="42.83072" lon="2.334">
        <ele>675.8</ele>
        <time>2021-08-30T22:00:34.574Z</time>
      </trkpt>
      <trkpt lat="42.83082" lon="2.33367">
        <ele>674.1</ele>
        <time>2021-08-30T22:00:36.622Z</time>
      </trkpt>
      <trkpt lat="42.83088" lon="2.33353">
        <ele>675</ele>
        <time>2021-08-30T22:00:40.686Z</time>
      </trkpt>
      <trkpt lat="42.83101" lon="2.33331">
        <ele>677.5</ele>
        <time>2021-08-30T22:00:51.651Z</time>
      </trkpt>
      <trkpt lat="42.83118" lon="2.33312">
        <ele>680.6</ele>
        <time>2021-08-30T22:01:05.431Z</time>
      </trkpt>
      <trkpt lat="42.83138" lon="2.33293">
        <ele>681.5</ele>
        <time>2021-08-30T22:01:11.418Z</time>
      </trkpt>
      <trkpt lat="42.83151" lon="2.33283">
        <ele>680.7</ele>
        <time>2021-08-30T22:01:12.697Z</time>
      </trkpt>
      <trkpt lat="42.83165" lon="2.33275">
        <ele>679.1</ele>
        <time>2021-08-30T22:01:13.975Z</time>
      </trkpt>
      <trkpt lat="42.83175" lon="2.33272">
        <ele>678.7</ele>
        <time>2021-08-30T22:01:14.975Z</time>
      </trkpt>
      <trkpt lat="42.83192" lon="2.33271">
        <ele>678.3</ele>
        <time>2021-08-30T22:01:16.926Z</time>
      </trkpt>
      <trkpt lat="42.83303" lon="2.33295">
        <ele>682.6</ele>
        <time>2021-08-30T22:01:45.050Z</time>
      </trkpt>
      <trkpt lat="42.83311" lon="2.33295">
        <ele>683.1</ele>
        <time>2021-08-30T22:01:47.526Z</time>
      </trkpt>
      <trkpt lat="42.83329" lon="2.33289">
        <ele>683.6</ele>
        <time>2021-08-30T22:01:51.527Z</time>
      </trkpt>
      <trkpt lat="42.83336" lon="2.33283">
        <ele>684</ele>
        <time>2021-08-30T22:01:53.852Z</time>
      </trkpt>
      <trkpt lat="42.83347" lon="2.33272">
        <ele>685.5</ele>
        <time>2021-08-30T22:02:00.238Z</time>
      </trkpt>
      <trkpt lat="42.83464" lon="2.33118">
        <ele>695.7</ele>
        <time>2021-08-30T22:02:50.658Z</time>
      </trkpt>
      <trkpt lat="42.83479" lon="2.33092">
        <ele>695.5</ele>
        <time>2021-08-30T22:02:54.018Z</time>
      </trkpt>
      <trkpt lat="42.83487" lon="2.33074">
        <ele>695.6</ele>
        <time>2021-08-30T22:02:56.685Z</time>
      </trkpt>
      <trkpt lat="42.83542" lon="2.32907">
        <ele>705.4</ele>
        <time>2021-08-30T22:03:41.609Z</time>
      </trkpt>
      <trkpt lat="42.8355" lon="2.32891">
        <ele>705.5</ele>
        <time>2021-08-30T22:03:44.076Z</time>
      </trkpt>
      <trkpt lat="42.83564" lon="2.32873">
        <ele>704</ele>
        <time>2021-08-30T22:03:45.697Z</time>
      </trkpt>
      <trkpt lat="42.83577" lon="2.32862">
        <ele>701.8</ele>
        <time>2021-08-30T22:03:46.986Z</time>
      </trkpt>
      <trkpt lat="42.83599" lon="2.32851">
        <ele>701</ele>
        <time>2021-08-30T22:03:49.386Z</time>
      </trkpt>
      <trkpt lat="42.83641" lon="2.32829">
        <ele>700.6</ele>
        <time>2021-08-30T22:03:55.564Z</time>
      </trkpt>
      <trkpt lat="42.83664" lon="2.32817">
        <ele>701.2</ele>
        <time>2021-08-30T22:04:00.716Z</time>
      </trkpt>
      <trkpt lat="42.83685" lon="2.32803">
        <ele>704.2</ele>
        <time>2021-08-30T22:04:14.367Z</time>
      </trkpt>
      <trkpt lat="42.8371" lon="2.32782">
        <ele>706.1</ele>
        <time>2021-08-30T22:04:23.602Z</time>
      </trkpt>
      <trkpt lat="42.83738" lon="2.32756">
        <ele>704.7</ele>
        <time>2021-08-30T22:04:26.837Z</time>
      </trkpt>
      <trkpt lat="42.83784" lon="2.32715">
        <ele>702.8</ele>
        <time>2021-08-30T22:04:32.442Z</time>
      </trkpt>
      <trkpt lat="42.83822" lon="2.32674">
        <ele>697.5</ele>
        <time>2021-08-30T22:04:36.524Z</time>
      </trkpt>
      <trkpt lat="42.83831" lon="2.32658">
        <ele>696.1</ele>
        <time>2021-08-30T22:04:37.770Z</time>
      </trkpt>
      <trkpt lat="42.83834" lon="2.3266">
        <ele>696</ele>
        <time>2021-08-30T22:04:38.127Z</time>
      </trkpt>
      <trkpt lat="42.83887" lon="2.32675">
        <ele>698.6</ele>
        <time>2021-08-30T22:04:53.315Z</time>
      </trkpt>
      <trkpt lat="42.83901" lon="2.32678">
        <ele>699.4</ele>
        <time>2021-08-30T22:04:57.520Z</time>
      </trkpt>
      <trkpt lat="42.83913" lon="2.32674">
        <ele>699.1</ele>
        <time>2021-08-30T22:04:58.925Z</time>
      </trkpt>
      <trkpt lat="42.83923" lon="2.32663">
        <ele>698.9</ele>
        <time>2021-08-30T22:05:00.543Z</time>
      </trkpt>
      <trkpt lat="42.83969" lon="2.3258">
        <ele>697.4</ele>
        <time>2021-08-30T22:05:09.690Z</time>
      </trkpt>
      <trkpt lat="42.83996" lon="2.32527">
        <ele>686.8</ele>
        <time>2021-08-30T22:05:13.676Z</time>
      </trkpt>
      <trkpt lat="42.84005" lon="2.32519">
        <ele>685.7</ele>
        <time>2021-08-30T22:05:14.581Z</time>
      </trkpt>
      <trkpt lat="42.84074" lon="2.32476">
        <ele>685.5</ele>
        <time>2021-08-30T22:05:26.433Z</time>
      </trkpt>
      <trkpt lat="42.84112" lon="2.32466">
        <ele>684.4</ele>
        <time>2021-08-30T22:05:30.639Z</time>
      </trkpt>
      <trkpt lat="42.84141" lon="2.32449">
        <ele>680.9</ele>
        <time>2021-08-30T22:05:33.299Z</time>
      </trkpt>
      <trkpt lat="42.84175" lon="2.32437">
        <ele>679.2</ele>
        <time>2021-08-30T22:05:36.445Z</time>
      </trkpt>
      <trkpt lat="42.84195" lon="2.32418">
        <ele>675.3</ele>
        <time>2021-08-30T22:05:38.498Z</time>
      </trkpt>
      <trkpt lat="42.8422" lon="2.32367">
        <ele>667.7</ele>
        <time>2021-08-30T22:05:42.288Z</time>
      </trkpt>
      <trkpt lat="42.84234" lon="2.32348">
        <ele>665.7</ele>
        <time>2021-08-30T22:05:43.951Z</time>
      </trkpt>
      <trkpt lat="42.84244" lon="2.32348">
        <ele>666.6</ele>
        <time>2021-08-30T22:05:47.803Z</time>
      </trkpt>
      <trkpt lat="42.8426" lon="2.32359">
        <ele>666.7</ele>
        <time>2021-08-30T22:05:50.872Z</time>
      </trkpt>
      <trkpt lat="42.84296" lon="2.324">
        <ele>665.2</ele>
        <time>2021-08-30T22:05:55.783Z</time>
      </trkpt>
      <trkpt lat="42.84317" lon="2.32434">
        <ele>665.2</ele>
        <time>2021-08-30T22:06:01.081Z</time>
      </trkpt>
      <trkpt lat="42.84343" lon="2.32505">
        <ele>665.6</ele>
        <time>2021-08-30T22:06:11.175Z</time>
      </trkpt>
      <trkpt lat="42.84367" lon="2.32551">
        <ele>662.9</ele>
        <time>2021-08-30T22:06:14.405Z</time>
      </trkpt>
      <trkpt lat="42.84474" lon="2.32703">
        <ele>648</ele>
        <time>2021-08-30T22:06:27.420Z</time>
      </trkpt>
      <trkpt lat="42.84558" lon="2.32826">
        <ele>638</ele>
        <time>2021-08-30T22:06:37.803Z</time>
      </trkpt>
      <trkpt lat="42.84585" lon="2.32866">
        <ele>636.6</ele>
        <time>2021-08-30T22:06:41.847Z</time>
      </trkpt>
      <trkpt lat="42.84591" lon="2.32872">
        <ele>636.4</ele>
        <time>2021-08-30T22:06:42.669Z</time>
      </trkpt>
      <trkpt lat="42.84601" lon="2.32879">
        <ele>635.8</ele>
        <time>2021-08-30T22:06:43.633Z</time>
      </trkpt>
      <trkpt lat="42.84636" lon="2.3287">
        <ele>631</ele>
        <time>2021-08-30T22:06:46.634Z</time>
      </trkpt>
      <trkpt lat="42.84645" lon="2.32869">
        <ele>629.9</ele>
        <time>2021-08-30T22:06:47.395Z</time>
      </trkpt>
      <trkpt lat="42.84652" lon="2.32871">
        <ele>629.3</ele>
        <time>2021-08-30T22:06:47.997Z</time>
      </trkpt>
      <trkpt lat="42.8466" lon="2.32879">
        <ele>629.1</ele>
        <time>2021-08-30T22:06:49.179Z</time>
      </trkpt>
      <trkpt lat="42.8467" lon="2.32894">
        <ele>629.7</ele>
        <time>2021-08-30T22:06:53.013Z</time>
      </trkpt>
      <trkpt lat="42.84709" lon="2.32959">
        <ele>631</ele>
        <time>2021-08-30T22:07:05.421Z</time>
      </trkpt>
      <trkpt lat="42.84718" lon="2.32965">
        <ele>630.3</ele>
        <time>2021-08-30T22:07:06.265Z</time>
      </trkpt>
      <trkpt lat="42.84728" lon="2.32962">
        <ele>629.6</ele>
        <time>2021-08-30T22:07:07.128Z</time>
      </trkpt>
      <trkpt lat="42.84732" lon="2.32958">
        <ele>629.3</ele>
        <time>2021-08-30T22:07:07.530Z</time>
      </trkpt>
      <trkpt lat="42.84737" lon="2.32949">
        <ele>629.1</ele>
        <time>2021-08-30T22:07:08.472Z</time>
      </trkpt>
      <trkpt lat="42.84736" lon="2.32937">
        <ele>629.3</ele>
        <time>2021-08-30T22:07:10.287Z</time>
      </trkpt>
      <trkpt lat="42.84732" lon="2.32921">
        <ele>629.6</ele>
        <time>2021-08-30T22:07:12.875Z</time>
      </trkpt>
      <trkpt lat="42.84725" lon="2.3291">
        <ele>629.5</ele>
        <time>2021-08-30T22:07:14.332Z</time>
      </trkpt>
      <trkpt lat="42.84714" lon="2.32881">
        <ele>627.8</ele>
        <time>2021-08-30T22:07:16.349Z</time>
      </trkpt>
      <trkpt lat="42.84711" lon="2.32869">
        <ele>627</ele>
        <time>2021-08-30T22:07:17.132Z</time>
      </trkpt>
      <trkpt lat="42.84711" lon="2.32861">
        <ele>626.5</ele>
        <time>2021-08-30T22:07:17.626Z</time>
      </trkpt>
      <trkpt lat="42.84723" lon="2.3281">
        <ele>624.5</ele>
        <time>2021-08-30T22:07:21.067Z</time>
      </trkpt>
      <trkpt lat="42.84726" lon="2.32771">
        <ele>624.1</ele>
        <time>2021-08-30T22:07:24.765Z</time>
      </trkpt>
      <trkpt lat="42.84729" lon="2.32765">
        <ele>623.9</ele>
        <time>2021-08-30T22:07:25.292Z</time>
      </trkpt>
      <trkpt lat="42.84733" lon="2.32758">
        <ele>623.7</ele>
        <time>2021-08-30T22:07:25.982Z</time>
      </trkpt>
      <trkpt lat="42.84739" lon="2.32751">
        <ele>623.4</ele>
        <time>2021-08-30T22:07:26.761Z</time>
      </trkpt>
      <trkpt lat="42.84738" lon="2.32759">
        <ele>623.6</ele>
        <time>2021-08-30T22:07:28.158Z</time>
      </trkpt>
      <trkpt lat="42.84739" lon="2.32784">
        <ele>624</ele>
        <time>2021-08-30T22:07:31.886Z</time>
      </trkpt>
      <trkpt lat="42.8477" lon="2.32885">
        <ele>629.5</ele>
        <time>2021-08-30T22:07:57.851Z</time>
      </trkpt>
      <trkpt lat="42.8478" lon="2.32905">
        <ele>630.9</ele>
        <time>2021-08-30T22:08:04.072Z</time>
      </trkpt>
      <trkpt lat="42.84794" lon="2.32923">
        <ele>632.1</ele>
        <time>2021-08-30T22:08:10.022Z</time>
      </trkpt>
      <trkpt lat="42.84798" lon="2.32932">
        <ele>632.2</ele>
        <time>2021-08-30T22:08:11.446Z</time>
      </trkpt>
      <trkpt lat="42.84801" lon="2.32942">
        <ele>632.3</ele>
        <time>2021-08-30T22:08:12.901Z</time>
      </trkpt>
      <trkpt lat="42.84804" lon="2.32974">
        <ele>632</ele>
        <time>2021-08-30T22:08:15.991Z</time>
      </trkpt>
      <trkpt lat="42.84818" lon="2.33023">
        <ele>633.1</ele>
        <time>2021-08-30T22:08:24.475Z</time>
      </trkpt>
      <trkpt lat="42.84818" lon="2.33049">
        <ele>633.5</ele>
        <time>2021-08-30T22:08:28.311Z</time>
      </trkpt>
      <trkpt lat="42.8481" lon="2.33109">
        <ele>633.9</ele>
        <time>2021-08-30T22:08:36.227Z</time>
      </trkpt>
      <trkpt lat="42.84814" lon="2.33134">
        <ele>634.2</ele>
        <time>2021-08-30T22:08:39.799Z</time>
      </trkpt>
      <trkpt lat="42.8482" lon="2.33149">
        <ele>634.3</ele>
        <time>2021-08-30T22:08:41.996Z</time>
      </trkpt>
      <trkpt lat="42.84831" lon="2.33165">
        <ele>634.1</ele>
        <time>2021-08-30T22:08:44.103Z</time>
      </trkpt>
      <trkpt lat="42.84848" lon="2.33189">
        <ele>637.3</ele>
        <time>2021-08-30T22:08:58.878Z</time>
      </trkpt>
      <trkpt lat="42.84867" lon="2.33212">
        <ele>640.6</ele>
        <time>2021-08-30T22:09:14.031Z</time>
      </trkpt>
      <trkpt lat="42.84871" lon="2.33222">
        <ele>641.1</ele>
        <time>2021-08-30T22:09:16.569Z</time>
      </trkpt>
      <trkpt lat="42.8487" lon="2.33232">
        <ele>640.7</ele>
        <time>2021-08-30T22:09:17.200Z</time>
      </trkpt>
      <trkpt lat="42.84859" lon="2.33261">
        <ele>639.2</ele>
        <time>2021-08-30T22:09:19.105Z</time>
      </trkpt>
      <trkpt lat="42.84858" lon="2.33276">
        <ele>639.3</ele>
        <time>2021-08-30T22:09:21.063Z</time>
      </trkpt>
      <trkpt lat="42.84861" lon="2.33292">
        <ele>639.8</ele>
        <time>2021-08-30T22:09:24.228Z</time>
      </trkpt>
      <trkpt lat="42.84867" lon="2.3331">
        <ele>640.6</ele>
        <time>2021-08-30T22:09:28.493Z</time>
      </trkpt>
      <trkpt lat="42.84886" lon="2.33339">
        <ele>642.6</ele>
        <time>2021-08-30T22:09:37.829Z</time>
      </trkpt>
      <trkpt lat="42.8489" lon="2.33351">
        <ele>643.5</ele>
        <time>2021-08-30T22:09:41.657Z</time>
      </trkpt>
      <trkpt lat="42.84892" lon="2.33366">
        <ele>644.4</ele>
        <time>2021-08-30T22:09:45.628Z</time>
      </trkpt>
      <trkpt lat="42.84891" lon="2.3338">
        <ele>644.9</ele>
        <time>2021-08-30T22:09:48.530Z</time>
      </trkpt>
      <trkpt lat="42.84888" lon="2.33397">
        <ele>645</ele>
        <time>2021-08-30T22:09:50.774Z</time>
      </trkpt>
      <trkpt lat="42.84872" lon="2.33436">
        <ele>643</ele>
        <time>2021-08-30T22:09:53.416Z</time>
      </trkpt>
      <trkpt lat="42.84869" lon="2.33462">
        <ele>643.3</ele>
        <time>2021-08-30T22:09:57.073Z</time>
      </trkpt>
      <trkpt lat="42.8489" lon="2.33533">
        <ele>648</ele>
        <time>2021-08-30T22:10:17.552Z</time>
      </trkpt>
      <trkpt lat="42.8491" lon="2.33602">
        <ele>647.3</ele>
        <time>2021-08-30T22:10:24.641Z</time>
      </trkpt>
      <trkpt lat="42.84933" lon="2.33693">
        <ele>646.6</ele>
        <time>2021-08-30T22:10:34.198Z</time>
      </trkpt>
      <trkpt lat="42.84942" lon="2.33704">
        <ele>647.9</ele>
        <time>2021-08-30T22:10:39.713Z</time>
      </trkpt>
      <trkpt lat="42.84961" lon="2.33703">
        <ele>649.8</ele>
        <time>2021-08-30T22:10:47.744Z</time>
      </trkpt>
      <trkpt lat="42.84983" lon="2.33686">
        <ele>651.2</ele>
        <time>2021-08-30T22:10:55.192Z</time>
      </trkpt>
      <trkpt lat="42.85" lon="2.33657">
        <ele>653.2</ele>
        <time>2021-08-30T22:11:04.335Z</time>
      </trkpt>
      <trkpt lat="42.85016" lon="2.33601">
        <ele>660.9</ele>
        <time>2021-08-30T22:11:31.960Z</time>
      </trkpt>
      <trkpt lat="42.85044" lon="2.33558">
        <ele>665.7</ele>
        <time>2021-08-30T22:11:52.560Z</time>
      </trkpt>
      <trkpt lat="42.85047" lon="2.33556">
        <ele>665.9</ele>
        <time>2021-08-30T22:11:53.575Z</time>
      </trkpt>
      <trkpt lat="42.85055" lon="2.33557">
        <ele>665.9</ele>
        <time>2021-08-30T22:11:54.881Z</time>
      </trkpt>
      <trkpt lat="42.85062" lon="2.33567">
        <ele>665.3</ele>
        <time>2021-08-30T22:11:55.710Z</time>
      </trkpt>
      <trkpt lat="42.85063" lon="2.33574">
        <ele>664.9</ele>
        <time>2021-08-30T22:11:56.150Z</time>
      </trkpt>
      <trkpt lat="42.85061" lon="2.33583">
        <ele>664.2</ele>
        <time>2021-08-30T22:11:56.731Z</time>
      </trkpt>
      <trkpt lat="42.85051" lon="2.33611">
        <ele>662.5</ele>
        <time>2021-08-30T22:11:58.655Z</time>
      </trkpt>
      <trkpt lat="42.85048" lon="2.33622">
        <ele>661.8</ele>
        <time>2021-08-30T22:11:59.380Z</time>
      </trkpt>
      <trkpt lat="42.85048" lon="2.33631">
        <ele>661.3</ele>
        <time>2021-08-30T22:11:59.936Z</time>
      </trkpt>
      <trkpt lat="42.85051" lon="2.33657">
        <ele>660.4</ele>
        <time>2021-08-30T22:12:01.691Z</time>
      </trkpt>
      <trkpt lat="42.85051" lon="2.33665">
        <ele>660</ele>
        <time>2021-08-30T22:12:02.185Z</time>
      </trkpt>
      <trkpt lat="42.85049" lon="2.33675">
        <ele>660.2</ele>
        <time>2021-08-30T22:12:03.813Z</time>
      </trkpt>
      <trkpt lat="42.85035" lon="2.33698">
        <ele>659.3</ele>
        <time>2021-08-30T22:12:05.912Z</time>
      </trkpt>
      <trkpt lat="42.85018" lon="2.33772">
        <ele>660.9</ele>
        <time>2021-08-30T22:12:18.362Z</time>
      </trkpt>
      <trkpt lat="42.84996" lon="2.33833">
        <ele>661.5</ele>
        <time>2021-08-30T22:12:27.467Z</time>
      </trkpt>
      <trkpt lat="42.84994" lon="2.33869">
        <ele>663</ele>
        <time>2021-08-30T22:12:35.333Z</time>
      </trkpt>
      <trkpt lat="42.8499" lon="2.33884">
        <ele>663.3</ele>
        <time>2021-08-30T22:12:37.819Z</time>
      </trkpt>
      <trkpt lat="42.84988" lon="2.33887">
        <ele>663.2</ele>
        <time>2021-08-30T22:12:38.125Z</time>
      </trkpt>
      <trkpt lat="42.84984" lon="2.33891">
        <ele>662.9</ele>
        <time>2021-08-30T22:12:38.527Z</time>
      </trkpt>
      <trkpt lat="42.84953" lon="2.33908">
        <ele>660</ele>
        <time>2021-08-30T22:12:41.341Z</time>
      </trkpt>
      <trkpt lat="42.84945" lon="2.33919">
        <ele>659.6</ele>
        <time>2021-08-30T22:12:42.493Z</time>
      </trkpt>
      <trkpt lat="42.84938" lon="2.33934">
        <ele>659.7</ele>
        <time>2021-08-30T22:12:44.772Z</time>
      </trkpt>
      <trkpt lat="42.84934" lon="2.33949">
        <ele>660.2</ele>
        <time>2021-08-30T22:12:47.897Z</time>
      </trkpt>
      <trkpt lat="42.84929" lon="2.33979">
        <ele>661.4</ele>
        <time>2021-08-30T22:12:54.445Z</time>
      </trkpt>
      <trkpt lat="42.8493" lon="2.34002">
        <ele>663</ele>
        <time>2021-08-30T22:13:01.235Z</time>
      </trkpt>
      <trkpt lat="42.84929" lon="2.34018">
        <ele>663.8</ele>
        <time>2021-08-30T22:13:05.027Z</time>
      </trkpt>
      <trkpt lat="42.84917" lon="2.3412">
        <ele>667.3</ele>
        <time>2021-08-30T22:13:26.031Z</time>
      </trkpt>
      <trkpt lat="42.84919" lon="2.34156">
        <ele>668.6</ele>
        <time>2021-08-30T22:13:33.510Z</time>
      </trkpt>
      <trkpt lat="42.84919" lon="2.34162">
        <ele>668.8</ele>
        <time>2021-08-30T22:13:34.724Z</time>
      </trkpt>
      <trkpt lat="42.84929" lon="2.34222">
        <ele>666</ele>
        <time>2021-08-30T22:13:38.332Z</time>
      </trkpt>
      <trkpt lat="42.84931" lon="2.3424">
        <ele>665</ele>
        <time>2021-08-30T22:13:39.456Z</time>
      </trkpt>
      <trkpt lat="42.84931" lon="2.34254">
        <ele>664.2</ele>
        <time>2021-08-30T22:13:40.321Z</time>
      </trkpt>
      <trkpt lat="42.84928" lon="2.34266">
        <ele>663.7</ele>
        <time>2021-08-30T22:13:41.116Z</time>
      </trkpt>
      <trkpt lat="42.84922" lon="2.3428">
        <ele>663.6</ele>
        <time>2021-08-30T22:13:42.759Z</time>
      </trkpt>
      <trkpt lat="42.84915" lon="2.3429">
        <ele>663.8</ele>
        <time>2021-08-30T22:13:44.770Z</time>
      </trkpt>
      <trkpt lat="42.84907" lon="2.34297">
        <ele>664.2</ele>
        <time>2021-08-30T22:13:47.284Z</time>
      </trkpt>
      <trkpt lat="42.849" lon="2.34301">
        <ele>664.7</ele>
        <time>2021-08-30T22:13:49.691Z</time>
      </trkpt>
      <trkpt lat="42.84881" lon="2.34305">
        <ele>666.4</ele>
        <time>2021-08-30T22:13:56.994Z</time>
      </trkpt>
      <trkpt lat="42.84873" lon="2.34309">
        <ele>667</ele>
        <time>2021-08-30T22:13:59.789Z</time>
      </trkpt>
      <trkpt lat="42.84866" lon="2.34318">
        <ele>667</ele>
        <time>2021-08-30T22:14:01.353Z</time>
      </trkpt>
      <trkpt lat="42.84863" lon="2.34328">
        <ele>666.6</ele>
        <time>2021-08-30T22:14:02.050Z</time>
      </trkpt>
      <trkpt lat="42.84861" lon="2.34339">
        <ele>666.1</ele>
        <time>2021-08-30T22:14:02.724Z</time>
      </trkpt>
      <trkpt lat="42.84861" lon="2.34356">
        <ele>665.3</ele>
        <time>2021-08-30T22:14:03.705Z</time>
      </trkpt>
      <trkpt lat="42.84864" lon="2.34412">
        <ele>662.3</ele>
        <time>2021-08-30T22:14:07.173Z</time>
      </trkpt>
      <trkpt lat="42.84867" lon="2.34425">
        <ele>661.9</ele>
        <time>2021-08-30T22:14:08.139Z</time>
      </trkpt>
      <trkpt lat="42.84902" lon="2.34498">
        <ele>657.5</ele>
        <time>2021-08-30T22:14:13.526Z</time>
      </trkpt>
      <trkpt lat="42.84912" lon="2.34523">
        <ele>656.6</ele>
        <time>2021-08-30T22:14:15.488Z</time>
      </trkpt>
      <trkpt lat="42.84943" lon="2.34631">
        <ele>658.1</ele>
        <time>2021-08-30T22:14:31.973Z</time>
      </trkpt>
      <trkpt lat="42.84951" lon="2.34647">
        <ele>658.1</ele>
        <time>2021-08-30T22:14:34.280Z</time>
      </trkpt>
      <trkpt lat="42.84974" lon="2.34672">
        <ele>656.6</ele>
        <time>2021-08-30T22:14:36.856Z</time>
      </trkpt>
      <trkpt lat="42.84979" lon="2.3468">
        <ele>656.1</ele>
        <time>2021-08-30T22:14:37.459Z</time>
      </trkpt>
      <trkpt lat="42.84986" lon="2.34697">
        <ele>655.8</ele>
        <time>2021-08-30T22:14:39.146Z</time>
      </trkpt>
      <trkpt lat="42.84995" lon="2.34731">
        <ele>655.8</ele>
        <time>2021-08-30T22:14:43.454Z</time>
      </trkpt>
      <trkpt lat="42.85006" lon="2.34774">
        <ele>654.6</ele>
        <time>2021-08-30T22:14:46.813Z</time>
      </trkpt>
      <trkpt lat="42.8501" lon="2.348">
        <ele>653.3</ele>
        <time>2021-08-30T22:14:48.454Z</time>
      </trkpt>
      <trkpt lat="42.85011" lon="2.34826">
        <ele>652.2</ele>
        <time>2021-08-30T22:14:50.036Z</time>
      </trkpt>
      <trkpt lat="42.85008" lon="2.34912">
        <ele>648.4</ele>
        <time>2021-08-30T22:14:55.158Z</time>
      </trkpt>
      <trkpt lat="42.85006" lon="2.34932">
        <ele>648.1</ele>
        <time>2021-08-30T22:14:56.920Z</time>
      </trkpt>
      <trkpt lat="42.85002" lon="2.34951">
        <ele>648.3</ele>
        <time>2021-08-30T22:14:59.616Z</time>
      </trkpt>
      <trkpt lat="42.84988" lon="2.34993">
        <ele>649.8</ele>
        <time>2021-08-30T22:15:08.875Z</time>
      </trkpt>
      <trkpt lat="42.84981" lon="2.35003">
        <ele>650.7</ele>
        <time>2021-08-30T22:15:12.737Z</time>
      </trkpt>
      <trkpt lat="42.84971" lon="2.35013">
        <ele>652</ele>
        <time>2021-08-30T22:15:18.238Z</time>
      </trkpt>
      <trkpt lat="42.84967" lon="2.3502">
        <ele>652.6</ele>
        <time>2021-08-30T22:15:20.794Z</time>
      </trkpt>
      <trkpt lat="42.84965" lon="2.35029">
        <ele>652.8</ele>
        <time>2021-08-30T22:15:22.320Z</time>
      </trkpt>
      <trkpt lat="42.84966" lon="2.35037">
        <ele>652.6</ele>
        <time>2021-08-30T22:15:22.933Z</time>
      </trkpt>
      <trkpt lat="42.84972" lon="2.3505">
        <ele>651.4</ele>
        <time>2021-08-30T22:15:23.882Z</time>
      </trkpt>
      <trkpt lat="42.84981" lon="2.35079">
        <ele>649.5</ele>
        <time>2021-08-30T22:15:25.827Z</time>
      </trkpt>
      <trkpt lat="42.84985" lon="2.35087">
        <ele>648.8</ele>
        <time>2021-08-30T22:15:26.425Z</time>
      </trkpt>
      <trkpt lat="42.84992" lon="2.35091">
        <ele>647.5</ele>
        <time>2021-08-30T22:15:27.064Z</time>
      </trkpt>
      <trkpt lat="42.84999" lon="2.35093">
        <ele>646.3</ele>
        <time>2021-08-30T22:15:27.667Z</time>
      </trkpt>
      <trkpt lat="42.85026" lon="2.35097">
        <ele>643</ele>
        <time>2021-08-30T22:15:29.955Z</time>
      </trkpt>
      <trkpt lat="42.85036" lon="2.35101">
        <ele>641.9</ele>
        <time>2021-08-30T22:15:30.833Z</time>
      </trkpt>
      <trkpt lat="42.85053" lon="2.35111">
        <ele>640</ele>
        <time>2021-08-30T22:15:32.393Z</time>
      </trkpt>
      <trkpt lat="42.85058" lon="2.35119">
        <ele>639.5</ele>
        <time>2021-08-30T22:15:32.996Z</time>
      </trkpt>
      <trkpt lat="42.85061" lon="2.35128">
        <ele>639.2</ele>
        <time>2021-08-30T22:15:33.687Z</time>
      </trkpt>
      <trkpt lat="42.85062" lon="2.35138">
        <ele>639.2</ele>
        <time>2021-08-30T22:15:34.890Z</time>
      </trkpt>
      <trkpt lat="42.8506" lon="2.35146">
        <ele>639.6</ele>
        <time>2021-08-30T22:15:36.837Z</time>
      </trkpt>
      <trkpt lat="42.85039" lon="2.35184">
        <ele>642.4</ele>
        <time>2021-08-30T22:15:49.204Z</time>
      </trkpt>
      <trkpt lat="42.85036" lon="2.35195">
        <ele>642.8</ele>
        <time>2021-08-30T22:15:51.594Z</time>
      </trkpt>
      <trkpt lat="42.85035" lon="2.35206">
        <ele>642.9</ele>
        <time>2021-08-30T22:15:53.083Z</time>
      </trkpt>
      <trkpt lat="42.85036" lon="2.35216">
        <ele>642.9</ele>
        <time>2021-08-30T22:15:54.286Z</time>
      </trkpt>
      <trkpt lat="42.8504" lon="2.35224">
        <ele>642.5</ele>
        <time>2021-08-30T22:15:54.880Z</time>
      </trkpt>
      <trkpt lat="42.85046" lon="2.3523">
        <ele>642</ele>
        <time>2021-08-30T22:15:55.507Z</time>
      </trkpt>
      <trkpt lat="42.85078" lon="2.35238">
        <ele>639.2</ele>
        <time>2021-08-30T22:15:58.248Z</time>
      </trkpt>
      <trkpt lat="42.85083" lon="2.35243">
        <ele>638.9</ele>
        <time>2021-08-30T22:15:58.803Z</time>
      </trkpt>
      <trkpt lat="42.85088" lon="2.35258">
        <ele>638.2</ele>
        <time>2021-08-30T22:15:59.801Z</time>
      </trkpt>
      <trkpt lat="42.85087" lon="2.35267">
        <ele>637.8</ele>
        <time>2021-08-30T22:16:00.344Z</time>
      </trkpt>
      <trkpt lat="42.85085" lon="2.35275">
        <ele>637.6</ele>
        <time>2021-08-30T22:16:00.991Z</time>
      </trkpt>
      <trkpt lat="42.85067" lon="2.35295">
        <ele>639</ele>
        <time>2021-08-30T22:16:08.067Z</time>
      </trkpt>
      <trkpt lat="42.85064" lon="2.35302">
        <ele>639.1</ele>
        <time>2021-08-30T22:16:09.209Z</time>
      </trkpt>
      <trkpt lat="42.85062" lon="2.35312">
        <ele>639.1</ele>
        <time>2021-08-30T22:16:10.444Z</time>
      </trkpt>
      <trkpt lat="42.85064" lon="2.35323">
        <ele>638.5</ele>
        <time>2021-08-30T22:16:11.144Z</time>
      </trkpt>
      <trkpt lat="42.85067" lon="2.35334">
        <ele>637.7</ele>
        <time>2021-08-30T22:16:11.869Z</time>
      </trkpt>
      <trkpt lat="42.85086" lon="2.35371">
        <ele>633.8</ele>
        <time>2021-08-30T22:16:14.659Z</time>
      </trkpt>
      <trkpt lat="42.85089" lon="2.35385">
        <ele>633.1</ele>
        <time>2021-08-30T22:16:15.492Z</time>
      </trkpt>
      <trkpt lat="42.8509" lon="2.35415">
        <ele>632.2</ele>
        <time>2021-08-30T22:16:17.604Z</time>
      </trkpt>
      <trkpt lat="42.85088" lon="2.3543">
        <ele>632.1</ele>
        <time>2021-08-30T22:16:19.138Z</time>
      </trkpt>
      <trkpt lat="42.85083" lon="2.35445">
        <ele>632.4</ele>
        <time>2021-08-30T22:16:21.679Z</time>
      </trkpt>
      <trkpt lat="42.85047" lon="2.35527">
        <ele>639.6</ele>
        <time>2021-08-30T22:16:52.113Z</time>
      </trkpt>
      <trkpt lat="42.85044" lon="2.35542">
        <ele>639.8</ele>
        <time>2021-08-30T22:16:54.321Z</time>
      </trkpt>
      <trkpt lat="42.85041" lon="2.35559">
        <ele>640.1</ele>
        <time>2021-08-30T22:16:56.973Z</time>
      </trkpt>
      <trkpt lat="42.85041" lon="2.35575">
        <ele>639.5</ele>
        <time>2021-08-30T22:16:57.999Z</time>
      </trkpt>
      <trkpt lat="42.85047" lon="2.3563">
        <ele>636.3</ele>
        <time>2021-08-30T22:17:01.433Z</time>
      </trkpt>
      <trkpt lat="42.85048" lon="2.35674">
        <ele>634.7</ele>
        <time>2021-08-30T22:17:04.295Z</time>
      </trkpt>
      <trkpt lat="42.85041" lon="2.35756">
        <ele>633.3</ele>
        <time>2021-08-30T22:17:11.266Z</time>
      </trkpt>
      <trkpt lat="42.85035" lon="2.35797">
        <ele>632.7</ele>
        <time>2021-08-30T22:17:14.945Z</time>
      </trkpt>
      <trkpt lat="42.85035" lon="2.3581">
        <ele>632</ele>
        <time>2021-08-30T22:17:15.748Z</time>
      </trkpt>
      <trkpt lat="42.85047" lon="2.35856">
        <ele>627.2</ele>
        <time>2021-08-30T22:17:18.763Z</time>
      </trkpt>
      <trkpt lat="42.85053" lon="2.35911">
        <ele>625</ele>
        <time>2021-08-30T22:17:22.245Z</time>
      </trkpt>
      <trkpt lat="42.85056" lon="2.35961">
        <ele>621.6</ele>
        <time>2021-08-30T22:17:25.343Z</time>
      </trkpt>
      <trkpt lat="42.85055" lon="2.35971">
        <ele>621.2</ele>
        <time>2021-08-30T22:17:25.975Z</time>
      </trkpt>
      <trkpt lat="42.85053" lon="2.35979">
        <ele>621.2</ele>
        <time>2021-08-30T22:17:26.982Z</time>
      </trkpt>
      <trkpt lat="42.85048" lon="2.35983">
        <ele>622.1</ele>
        <time>2021-08-30T22:17:30.616Z</time>
      </trkpt>
      <trkpt lat="42.85042" lon="2.35984">
        <ele>623.4</ele>
        <time>2021-08-30T22:17:34.405Z</time>
      </trkpt>
      <trkpt lat="42.8503" lon="2.35982">
        <ele>626.2</ele>
        <time>2021-08-30T22:17:41.985Z</time>
      </trkpt>
      <trkpt lat="42.85025" lon="2.35983">
        <ele>627.3</ele>
        <time>2021-08-30T22:17:45.153Z</time>
      </trkpt>
      <trkpt lat="42.85019" lon="2.35987">
        <ele>628.4</ele>
        <time>2021-08-30T22:17:49.340Z</time>
      </trkpt>
      <trkpt lat="42.85016" lon="2.35994">
        <ele>628.7</ele>
        <time>2021-08-30T22:17:51.034Z</time>
      </trkpt>
      <trkpt lat="42.85015" lon="2.36004">
        <ele>628.6</ele>
        <time>2021-08-30T22:17:51.991Z</time>
      </trkpt>
      <trkpt lat="42.85015" lon="2.36013">
        <ele>628.7</ele>
        <time>2021-08-30T22:17:53.236Z</time>
      </trkpt>
      <trkpt lat="42.85018" lon="2.3602">
        <ele>628</ele>
        <time>2021-08-30T22:17:53.737Z</time>
      </trkpt>
      <trkpt lat="42.85041" lon="2.36053">
        <ele>622.3</ele>
        <time>2021-08-30T22:17:56.549Z</time>
      </trkpt>
      <trkpt lat="42.85048" lon="2.36075">
        <ele>620.4</ele>
        <time>2021-08-30T22:17:58.030Z</time>
      </trkpt>
      <trkpt lat="42.85049" lon="2.36088">
        <ele>620</ele>
        <time>2021-08-30T22:17:58.942Z</time>
      </trkpt>
      <trkpt lat="42.85046" lon="2.36113">
        <ele>620.5</ele>
        <time>2021-08-30T22:18:02.949Z</time>
      </trkpt>
      <trkpt lat="42.85025" lon="2.36185">
        <ele>625.3</ele>
        <time>2021-08-30T22:18:23.809Z</time>
      </trkpt>
      <trkpt lat="42.85023" lon="2.36196">
        <ele>625.8</ele>
        <time>2021-08-30T22:18:26.339Z</time>
      </trkpt>
      <trkpt lat="42.85023" lon="2.36204">
        <ele>625.8</ele>
        <time>2021-08-30T22:18:27.293Z</time>
      </trkpt>
      <trkpt lat="42.85029" lon="2.36225">
        <ele>623.8</ele>
        <time>2021-08-30T22:18:28.685Z</time>
      </trkpt>
      <trkpt lat="42.8503" lon="2.36237">
        <ele>623.4</ele>
        <time>2021-08-30T22:18:29.501Z</time>
      </trkpt>
      <trkpt lat="42.85029" lon="2.36264">
        <ele>623.3</ele>
        <time>2021-08-30T22:18:32.491Z</time>
      </trkpt>
      <trkpt lat="42.85022" lon="2.36299">
        <ele>624.7</ele>
        <time>2021-08-30T22:18:40.183Z</time>
      </trkpt>
      <trkpt lat="42.8502" lon="2.36327">
        <ele>624.7</ele>
        <time>2021-08-30T22:18:43.536Z</time>
      </trkpt>
      <trkpt lat="42.85036" lon="2.36427">
        <ele>616.8</ele>
        <time>2021-08-30T22:18:49.857Z</time>
      </trkpt>
      <trkpt lat="42.85035" lon="2.36508">
        <ele>618.2</ele>
        <time>2021-08-30T22:19:02.169Z</time>
      </trkpt>
      <trkpt lat="42.85042" lon="2.36612">
        <ele>614.7</ele>
        <time>2021-08-30T22:19:09.194Z</time>
      </trkpt>
      <trkpt lat="42.85058" lon="2.36752">
        <ele>602.6</ele>
        <time>2021-08-30T22:19:17.945Z</time>
      </trkpt>
      <trkpt lat="42.85069" lon="2.3683">
        <ele>603.3</ele>
        <time>2021-08-30T22:19:28.582Z</time>
      </trkpt>
      <trkpt lat="42.85088" lon="2.36906">
        <ele>603.3</ele>
        <time>2021-08-30T22:19:38.150Z</time>
      </trkpt>
      <trkpt lat="42.85098" lon="2.36944">
        <ele>603.4</ele>
        <time>2021-08-30T22:19:43.115Z</time>
      </trkpt>
      <trkpt lat="42.85105" lon="2.36971">
        <ele>603.6</ele>
        <time>2021-08-30T22:19:46.853Z</time>
      </trkpt>
      <trkpt lat="42.85107" lon="2.37016">
        <ele>605.5</ele>
        <time>2021-08-30T22:19:56.731Z</time>
      </trkpt>
      <trkpt lat="42.85111" lon="2.37027">
        <ele>605.7</ele>
        <time>2021-08-30T22:19:58.568Z</time>
      </trkpt>
      <trkpt lat="42.85116" lon="2.37035">
        <ele>605.9</ele>
        <time>2021-08-30T22:20:00.212Z</time>
      </trkpt>
      <trkpt lat="42.85123" lon="2.37043">
        <ele>605.9</ele>
        <time>2021-08-30T22:20:01.696Z</time>
      </trkpt>
      <trkpt lat="42.85131" lon="2.37046">
        <ele>605.7</ele>
        <time>2021-08-30T22:20:02.641Z</time>
      </trkpt>
      <trkpt lat="42.85137" lon="2.37045">
        <ele>605.4</ele>
        <time>2021-08-30T22:20:03.177Z</time>
      </trkpt>
      <trkpt lat="42.85141" lon="2.37042">
        <ele>604.9</ele>
        <time>2021-08-30T22:20:03.562Z</time>
      </trkpt>
      <trkpt lat="42.85156" lon="2.37028">
        <ele>602.7</ele>
        <time>2021-08-30T22:20:05.093Z</time>
      </trkpt>
      <trkpt lat="42.85161" lon="2.37023">
        <ele>601.9</ele>
        <time>2021-08-30T22:20:05.615Z</time>
      </trkpt>
      <trkpt lat="42.85189" lon="2.36998">
        <ele>603.3</ele>
        <time>2021-08-30T22:20:14.434Z</time>
      </trkpt>
      <trkpt lat="42.85203" lon="2.36983">
        <ele>603.9</ele>
        <time>2021-08-30T22:20:18.619Z</time>
      </trkpt>
      <trkpt lat="42.85213" lon="2.36967">
        <ele>603.1</ele>
        <time>2021-08-30T22:20:19.959Z</time>
      </trkpt>
      <trkpt lat="42.85225" lon="2.36939">
        <ele>600.2</ele>
        <time>2021-08-30T22:20:21.962Z</time>
      </trkpt>
      <trkpt lat="42.8523" lon="2.36932">
        <ele>599.6</ele>
        <time>2021-08-30T22:20:22.566Z</time>
      </trkpt>
      <trkpt lat="42.85236" lon="2.36928">
        <ele>599.6</ele>
        <time>2021-08-30T22:20:23.651Z</time>
      </trkpt>
      <trkpt lat="42.85242" lon="2.36927">
        <ele>600.1</ele>
        <time>2021-08-30T22:20:25.838Z</time>
      </trkpt>
      <trkpt lat="42.85255" lon="2.36937">
        <ele>603.3</ele>
        <time>2021-08-30T22:20:35.195Z</time>
      </trkpt>
      <trkpt lat="42.85275" lon="2.36954">
        <ele>607.1</ele>
        <time>2021-08-30T22:20:49.969Z</time>
      </trkpt>
      <trkpt lat="42.85298" lon="2.36981">
        <ele>612.2</ele>
        <time>2021-08-30T22:21:08.993Z</time>
      </trkpt>
      <trkpt lat="42.85316" lon="2.36996">
        <ele>614.6</ele>
        <time>2021-08-30T22:21:19.291Z</time>
      </trkpt>
      <trkpt lat="42.85323" lon="2.36998">
        <ele>614.8</ele>
        <time>2021-08-30T22:21:20.854Z</time>
      </trkpt>
      <trkpt lat="42.85329" lon="2.36994">
        <ele>614.2</ele>
        <time>2021-08-30T22:21:21.417Z</time>
      </trkpt>
      <trkpt lat="42.85334" lon="2.36989">
        <ele>613.6</ele>
        <time>2021-08-30T22:21:21.939Z</time>
      </trkpt>
      <trkpt lat="42.85335" lon="2.3698">
        <ele>612.5</ele>
        <time>2021-08-30T22:21:22.501Z</time>
      </trkpt>
      <trkpt lat="42.85331" lon="2.36963">
        <ele>609.6</ele>
        <time>2021-08-30T22:21:23.604Z</time>
      </trkpt>
      <trkpt lat="42.85335" lon="2.36945">
        <ele>607.4</ele>
        <time>2021-08-30T22:21:24.766Z</time>
      </trkpt>
      <trkpt lat="42.85342" lon="2.36939">
        <ele>608.1</ele>
        <time>2021-08-30T22:21:27.806Z</time>
      </trkpt>
      <trkpt lat="42.8537" lon="2.36933">
        <ele>613.2</ele>
        <time>2021-08-30T22:21:45.575Z</time>
      </trkpt>
      <trkpt lat="42.85413" lon="2.36894">
        <ele>615.2</ele>
        <time>2021-08-30T22:21:58.583Z</time>
      </trkpt>
      <trkpt lat="42.85438" lon="2.36854">
        <ele>612.5</ele>
        <time>2021-08-30T22:22:01.830Z</time>
      </trkpt>
      <trkpt lat="42.85447" lon="2.36844">
        <ele>612.9</ele>
        <time>2021-08-30T22:22:04.586Z</time>
      </trkpt>
      <trkpt lat="42.85483" lon="2.3682">
        <ele>617.9</ele>
        <time>2021-08-30T22:22:26.916Z</time>
      </trkpt>
      <trkpt lat="42.85571" lon="2.36739">
        <ele>611.7</ele>
        <time>2021-08-30T22:22:35.656Z</time>
      </trkpt>
      <trkpt lat="42.85597" lon="2.36719">
        <ele>608.6</ele>
        <time>2021-08-30T22:22:38.171Z</time>
      </trkpt>
      <trkpt lat="42.85604" lon="2.36717">
        <ele>608.1</ele>
        <time>2021-08-30T22:22:38.773Z</time>
      </trkpt>
      <trkpt lat="42.85612" lon="2.36718">
        <ele>608.1</ele>
        <time>2021-08-30T22:22:40.079Z</time>
      </trkpt>
      <trkpt lat="42.85618" lon="2.36724">
        <ele>609</ele>
        <time>2021-08-30T22:22:44.032Z</time>
      </trkpt>
      <trkpt lat="42.85636" lon="2.36761">
        <ele>613.4</ele>
        <time>2021-08-30T22:23:04.440Z</time>
      </trkpt>
      <trkpt lat="42.85645" lon="2.36797">
        <ele>616.5</ele>
        <time>2021-08-30T22:23:17.666Z</time>
      </trkpt>
      <trkpt lat="42.8565" lon="2.36804">
        <ele>616.8</ele>
        <time>2021-08-30T22:23:19.556Z</time>
      </trkpt>
      <trkpt lat="42.85654" lon="2.36808">
        <ele>616.8</ele>
        <time>2021-08-30T22:23:20.362Z</time>
      </trkpt>
      <trkpt lat="42.85663" lon="2.3681">
        <ele>616.1</ele>
        <time>2021-08-30T22:23:21.130Z</time>
      </trkpt>
      <trkpt lat="42.85672" lon="2.36807">
        <ele>616.6</ele>
        <time>2021-08-30T22:23:23.833Z</time>
      </trkpt>
      <trkpt lat="42.8568" lon="2.36792">
        <ele>616.8</ele>
        <time>2021-08-30T22:23:26.388Z</time>
      </trkpt>
      <trkpt lat="42.85697" lon="2.36735">
        <ele>614.8</ele>
        <time>2021-08-30T22:23:30.578Z</time>
      </trkpt>
      <trkpt lat="42.85701" lon="2.36704">
        <ele>612.8</ele>
        <time>2021-08-30T22:23:32.522Z</time>
      </trkpt>
      <trkpt lat="42.85702" lon="2.36664">
        <ele>609.4</ele>
        <time>2021-08-30T22:23:34.994Z</time>
      </trkpt>
      <trkpt lat="42.85705" lon="2.36649">
        <ele>608.9</ele>
        <time>2021-08-30T22:23:36.057Z</time>
      </trkpt>
      <trkpt lat="42.85711" lon="2.3664">
        <ele>609.2</ele>
        <time>2021-08-30T22:23:38.152Z</time>
      </trkpt>
      <trkpt lat="42.85736" lon="2.36624">
        <ele>611.7</ele>
        <time>2021-08-30T22:23:48.839Z</time>
      </trkpt>
      <trkpt lat="42.85757" lon="2.36606">
        <ele>612</ele>
        <time>2021-08-30T22:23:53.372Z</time>
      </trkpt>
      <trkpt lat="42.8577" lon="2.3659">
        <ele>611.1</ele>
        <time>2021-08-30T22:23:54.900Z</time>
      </trkpt>
      <trkpt lat="42.85803" lon="2.36543">
        <ele>612.3</ele>
        <time>2021-08-30T22:24:04.976Z</time>
      </trkpt>
      <trkpt lat="42.85808" lon="2.36539">
        <ele>612.6</ele>
        <time>2021-08-30T22:24:06.643Z</time>
      </trkpt>
      <trkpt lat="42.85823" lon="2.36537">
        <ele>613.9</ele>
        <time>2021-08-30T22:24:12.261Z</time>
      </trkpt>
      <trkpt lat="42.8583" lon="2.36541">
        <ele>614.7</ele>
        <time>2021-08-30T22:24:15.647Z</time>
      </trkpt>
      <trkpt lat="42.8584" lon="2.36554">
        <ele>614.8</ele>
        <time>2021-08-30T22:24:18.052Z</time>
      </trkpt>
      <trkpt lat="42.85847" lon="2.3657">
        <ele>614.9</ele>
        <time>2021-08-30T22:24:20.431Z</time>
      </trkpt>
      <trkpt lat="42.85854" lon="2.366">
        <ele>617.5</ele>
        <time>2021-08-30T22:24:31.559Z</time>
      </trkpt>
      <trkpt lat="42.85858" lon="2.36608">
        <ele>618.3</ele>
        <time>2021-08-30T22:24:34.983Z</time>
      </trkpt>
      <trkpt lat="42.85867" lon="2.36625">
        <ele>620.3</ele>
        <time>2021-08-30T22:24:44.178Z</time>
      </trkpt>
      <trkpt lat="42.85873" lon="2.36631">
        <ele>620.8</ele>
        <time>2021-08-30T22:24:46.561Z</time>
      </trkpt>
      <trkpt lat="42.8588" lon="2.36634">
        <ele>620.9</ele>
        <time>2021-08-30T22:24:47.924Z</time>
      </trkpt>
      <trkpt lat="42.8589" lon="2.36632">
        <ele>620</ele>
        <time>2021-08-30T22:24:48.775Z</time>
      </trkpt>
      <trkpt lat="42.85921" lon="2.36604">
        <ele>612.8</ele>
        <time>2021-08-30T22:24:51.908Z</time>
      </trkpt>
      <trkpt lat="42.8594" lon="2.36595">
        <ele>610.2</ele>
        <time>2021-08-30T22:24:53.602Z</time>
      </trkpt>
      <trkpt lat="42.85947" lon="2.36591">
        <ele>608.9</ele>
        <time>2021-08-30T22:24:54.241Z</time>
      </trkpt>
      <trkpt lat="42.8596" lon="2.36585">
        <ele>606.8</ele>
        <time>2021-08-30T22:24:55.398Z</time>
      </trkpt>
      <trkpt lat="42.85973" lon="2.36585">
        <ele>606</ele>
        <time>2021-08-30T22:24:56.441Z</time>
      </trkpt>
      <trkpt lat="42.85985" lon="2.36589">
        <ele>606.4</ele>
        <time>2021-08-30T22:24:59.296Z</time>
      </trkpt>
      <trkpt lat="42.86005" lon="2.36602">
        <ele>610.1</ele>
        <time>2021-08-30T22:25:13.185Z</time>
      </trkpt>
      <trkpt lat="42.86019" lon="2.36611">
        <ele>614.3</ele>
        <time>2021-08-30T22:25:22.888Z</time>
      </trkpt>
      <trkpt lat="42.86032" lon="2.36618">
        <ele>617.4</ele>
        <time>2021-08-30T22:25:31.650Z</time>
      </trkpt>
      <trkpt lat="42.8604" lon="2.3662">
        <ele>618.7</ele>
        <time>2021-08-30T22:25:36.749Z</time>
      </trkpt>
      <trkpt lat="42.86051" lon="2.36617">
        <ele>619.3</ele>
        <time>2021-08-30T22:25:40.012Z</time>
      </trkpt>
      <trkpt lat="42.86055" lon="2.36612">
        <ele>618.8</ele>
        <time>2021-08-30T22:25:40.469Z</time>
      </trkpt>
      <trkpt lat="42.86058" lon="2.36607">
        <ele>618.2</ele>
        <time>2021-08-30T22:25:40.868Z</time>
      </trkpt>
      <trkpt lat="42.86058" lon="2.36594">
        <ele>615.7</ele>
        <time>2021-08-30T22:25:41.671Z</time>
      </trkpt>
      <trkpt lat="42.86054" lon="2.3658">
        <ele>612.7</ele>
        <time>2021-08-30T22:25:42.598Z</time>
      </trkpt>
      <trkpt lat="42.86053" lon="2.36567">
        <ele>611</ele>
        <time>2021-08-30T22:25:43.406Z</time>
      </trkpt>
      <trkpt lat="42.86059" lon="2.36523">
        <ele>607.5</ele>
        <time>2021-08-30T22:25:46.169Z</time>
      </trkpt>
      <trkpt lat="42.86058" lon="2.3648">
        <ele>602.4</ele>
        <time>2021-08-30T22:25:48.826Z</time>
      </trkpt>
      <trkpt lat="42.86062" lon="2.36461">
        <ele>601.2</ele>
        <time>2021-08-30T22:25:50.047Z</time>
      </trkpt>
      <trkpt lat="42.86072" lon="2.36433">
        <ele>600</ele>
        <time>2021-08-30T22:25:52.020Z</time>
      </trkpt>
      <trkpt lat="42.86075" lon="2.36419">
        <ele>598.7</ele>
        <time>2021-08-30T22:25:52.921Z</time>
      </trkpt>
      <trkpt lat="42.86077" lon="2.36393">
        <ele>597.4</ele>
        <time>2021-08-30T22:25:54.535Z</time>
      </trkpt>
      <trkpt lat="42.86076" lon="2.36373">
        <ele>596.1</ele>
        <time>2021-08-30T22:25:55.773Z</time>
      </trkpt>
      <trkpt lat="42.86069" lon="2.36341">
        <ele>593.2</ele>
        <time>2021-08-30T22:25:57.835Z</time>
      </trkpt>
      <trkpt lat="42.86062" lon="2.36319">
        <ele>591.2</ele>
        <time>2021-08-30T22:25:59.316Z</time>
      </trkpt>
      <trkpt lat="42.8606" lon="2.36304">
        <ele>590.4</ele>
        <time>2021-08-30T22:26:00.258Z</time>
      </trkpt>
      <trkpt lat="42.8606" lon="2.36293">
        <ele>590.1</ele>
        <time>2021-08-30T22:26:01.059Z</time>
      </trkpt>
      <trkpt lat="42.86066" lon="2.36275">
        <ele>590.7</ele>
        <time>2021-08-30T22:26:04.854Z</time>
      </trkpt>
      <trkpt lat="42.86071" lon="2.36267">
        <ele>591.6</ele>
        <time>2021-08-30T22:26:08.748Z</time>
      </trkpt>
      <trkpt lat="42.86077" lon="2.36264">
        <ele>592.8</ele>
        <time>2021-08-30T22:26:12.754Z</time>
      </trkpt>
      <trkpt lat="42.86085" lon="2.36264">
        <ele>593.9</ele>
        <time>2021-08-30T22:26:17.770Z</time>
      </trkpt>
      <trkpt lat="42.86093" lon="2.36268">
        <ele>592.7</ele>
        <time>2021-08-30T22:26:18.488Z</time>
      </trkpt>
      <trkpt lat="42.86103" lon="2.36276">
        <ele>591.7</ele>
        <time>2021-08-30T22:26:19.464Z</time>
      </trkpt>
      <trkpt lat="42.86127" lon="2.36309">
        <ele>592.8</ele>
        <time>2021-08-30T22:26:27.328Z</time>
      </trkpt>
      <trkpt lat="42.86133" lon="2.36313">
        <ele>593.2</ele>
        <time>2021-08-30T22:26:29.358Z</time>
      </trkpt>
      <trkpt lat="42.86141" lon="2.36316">
        <ele>593.4</ele>
        <time>2021-08-30T22:26:31.088Z</time>
      </trkpt>
      <trkpt lat="42.86155" lon="2.36314">
        <ele>592.7</ele>
        <time>2021-08-30T22:26:32.335Z</time>
      </trkpt>
      <trkpt lat="42.86182" lon="2.36304">
        <ele>590.1</ele>
        <time>2021-08-30T22:26:34.692Z</time>
      </trkpt>
      <trkpt lat="42.86209" lon="2.36297">
        <ele>588.8</ele>
        <time>2021-08-30T22:26:37.178Z</time>
      </trkpt>
      <trkpt lat="42.86219" lon="2.36292">
        <ele>587.7</ele>
        <time>2021-08-30T22:26:38.075Z</time>
      </trkpt>
      <trkpt lat="42.86257" lon="2.3626">
        <ele>581.9</ele>
        <time>2021-08-30T22:26:41.837Z</time>
      </trkpt>
      <trkpt lat="42.86283" lon="2.36248">
        <ele>584.7</ele>
        <time>2021-08-30T22:26:53.671Z</time>
      </trkpt>
      <trkpt lat="42.86293" lon="2.36242">
        <ele>585.4</ele>
        <time>2021-08-30T22:26:57.091Z</time>
      </trkpt>
      <trkpt lat="42.86364" lon="2.36183">
        <ele>580</ele>
        <time>2021-08-30T22:27:03.591Z</time>
      </trkpt>
      <trkpt lat="42.86397" lon="2.36158">
        <ele>575.7</ele>
        <time>2021-08-30T22:27:06.771Z</time>
      </trkpt>
      <trkpt lat="42.86425" lon="2.36132">
        <ele>572.6</ele>
        <time>2021-08-30T22:27:09.625Z</time>
      </trkpt>
      <trkpt lat="42.86436" lon="2.36115">
        <ele>570.3</ele>
        <time>2021-08-30T22:27:11.025Z</time>
      </trkpt>
      <trkpt lat="42.86445" lon="2.36103">
        <ele>568.8</ele>
        <time>2021-08-30T22:27:12.085Z</time>
      </trkpt>
      <trkpt lat="42.86458" lon="2.3609">
        <ele>567.5</ele>
        <time>2021-08-30T22:27:13.443Z</time>
      </trkpt>
      <trkpt lat="42.86476" lon="2.36077">
        <ele>566.6</ele>
        <time>2021-08-30T22:27:15.337Z</time>
      </trkpt>
      <trkpt lat="42.86489" lon="2.36074">
        <ele>567.3</ele>
        <time>2021-08-30T22:27:19.162Z</time>
      </trkpt>
      <trkpt lat="42.86499" lon="2.36072">
        <ele>567.9</ele>
        <time>2021-08-30T22:27:22.222Z</time>
      </trkpt>
      <trkpt lat="42.86533" lon="2.36076">
        <ele>572.6</ele>
        <time>2021-08-30T22:27:43.617Z</time>
      </trkpt>
      <trkpt lat="42.86541" lon="2.36074">
        <ele>572.9</ele>
        <time>2021-08-30T22:27:45.614Z</time>
      </trkpt>
      <trkpt lat="42.86549" lon="2.36068">
        <ele>572.1</ele>
        <time>2021-08-30T22:27:46.383Z</time>
      </trkpt>
      <trkpt lat="42.86564" lon="2.36048">
        <ele>568.3</ele>
        <time>2021-08-30T22:27:48.150Z</time>
      </trkpt>
      <trkpt lat="42.86572" lon="2.36044">
        <ele>568</ele>
        <time>2021-08-30T22:27:49.013Z</time>
      </trkpt>
      <trkpt lat="42.86591" lon="2.36041">
        <ele>569.1</ele>
        <time>2021-08-30T22:27:54.731Z</time>
      </trkpt>
      <trkpt lat="42.866" lon="2.36036">
        <ele>568.8</ele>
        <time>2021-08-30T22:27:55.760Z</time>
      </trkpt>
      <trkpt lat="42.8661" lon="2.36028">
        <ele>567.9</ele>
        <time>2021-08-30T22:27:56.736Z</time>
      </trkpt>
      <trkpt lat="42.8663" lon="2.36003">
        <ele>564.4</ele>
        <time>2021-08-30T22:27:59.022Z</time>
      </trkpt>
      <trkpt lat="42.86634" lon="2.35993">
        <ele>563</ele>
        <time>2021-08-30T22:27:59.725Z</time>
      </trkpt>
      <trkpt lat="42.86637" lon="2.35966">
        <ele>558.5</ele>
        <time>2021-08-30T22:28:01.411Z</time>
      </trkpt>
      <trkpt lat="42.86641" lon="2.35954">
        <ele>556.9</ele>
        <time>2021-08-30T22:28:02.225Z</time>
      </trkpt>
      <trkpt lat="42.86648" lon="2.35941">
        <ele>555.5</ele>
        <time>2021-08-30T22:28:03.221Z</time>
      </trkpt>
      <trkpt lat="42.86662" lon="2.35927">
        <ele>555.1</ele>
        <time>2021-08-30T22:28:05.223Z</time>
      </trkpt>
      <trkpt lat="42.86677" lon="2.35921">
        <ele>554.4</ele>
        <time>2021-08-30T22:28:06.669Z</time>
      </trkpt>
      <trkpt lat="42.86688" lon="2.35919">
        <ele>553.7</ele>
        <time>2021-08-30T22:28:07.549Z</time>
      </trkpt>
      <trkpt lat="42.86707" lon="2.35922">
        <ele>553.5</ele>
        <time>2021-08-30T22:28:10.121Z</time>
      </trkpt>
      <trkpt lat="42.86755" lon="2.35934">
        <ele>553.7</ele>
        <time>2021-08-30T22:28:18.362Z</time>
      </trkpt>
      <trkpt lat="42.86771" lon="2.35941">
        <ele>553.7</ele>
        <time>2021-08-30T22:28:21.093Z</time>
      </trkpt>
      <trkpt lat="42.86788" lon="2.35962">
        <ele>555.9</ele>
        <time>2021-08-30T22:28:30.417Z</time>
      </trkpt>
      <trkpt lat="42.86791" lon="2.35966">
        <ele>556.3</ele>
        <time>2021-08-30T22:28:32.113Z</time>
      </trkpt>
      <trkpt lat="42.86804" lon="2.3598">
        <ele>557.5</ele>
        <time>2021-08-30T22:28:37.632Z</time>
      </trkpt>
      <trkpt lat="42.86813" lon="2.35983">
        <ele>557.2</ele>
        <time>2021-08-30T22:28:38.598Z</time>
      </trkpt>
      <trkpt lat="42.86818" lon="2.35983">
        <ele>556.7</ele>
        <time>2021-08-30T22:28:39.020Z</time>
      </trkpt>
      <trkpt lat="42.86825" lon="2.35981">
        <ele>555.8</ele>
        <time>2021-08-30T22:28:39.622Z</time>
      </trkpt>
      <trkpt lat="42.86831" lon="2.35976">
        <ele>554.5</ele>
        <time>2021-08-30T22:28:40.215Z</time>
      </trkpt>
      <trkpt lat="42.86834" lon="2.35969">
        <ele>553.3</ele>
        <time>2021-08-30T22:28:40.715Z</time>
      </trkpt>
      <trkpt lat="42.86846" lon="2.35935">
        <ele>549.5</ele>
        <time>2021-08-30T22:28:43.045Z</time>
      </trkpt>
      <trkpt lat="42.86859" lon="2.35902">
        <ele>546.5</ele>
        <time>2021-08-30T22:28:45.359Z</time>
      </trkpt>
      <trkpt lat="42.86869" lon="2.35889">
        <ele>545.9</ele>
        <time>2021-08-30T22:28:46.652Z</time>
      </trkpt>
      <trkpt lat="42.8689" lon="2.35866">
        <ele>544.5</ele>
        <time>2021-08-30T22:28:48.991Z</time>
      </trkpt>
      <trkpt lat="42.86905" lon="2.35847">
        <ele>542.6</ele>
        <time>2021-08-30T22:28:50.715Z</time>
      </trkpt>
      <trkpt lat="42.86915" lon="2.35839">
        <ele>541.9</ele>
        <time>2021-08-30T22:28:51.654Z</time>
      </trkpt>
      <trkpt lat="42.86953" lon="2.35822">
        <ele>542.9</ele>
        <time>2021-08-30T22:29:00.086Z</time>
      </trkpt>
      <trkpt lat="42.86975" lon="2.35809">
        <ele>542.4</ele>
        <time>2021-08-30T22:29:02.920Z</time>
      </trkpt>
      <trkpt lat="42.87003" lon="2.35778">
        <ele>537.7</ele>
        <time>2021-08-30T22:29:05.958Z</time>
      </trkpt>
      <trkpt lat="42.8701" lon="2.35772">
        <ele>536.9</ele>
        <time>2021-08-30T22:29:06.654Z</time>
      </trkpt>
      <trkpt lat="42.87034" lon="2.35763">
        <ele>537.2</ele>
        <time>2021-08-30T22:29:11.202Z</time>
      </trkpt>
      <trkpt lat="42.87047" lon="2.35752">
        <ele>536</ele>
        <time>2021-08-30T22:29:12.491Z</time>
      </trkpt>
      <trkpt lat="42.8708" lon="2.35698">
        <ele>529.2</ele>
        <time>2021-08-30T22:29:16.832Z</time>
      </trkpt>
      <trkpt lat="42.87091" lon="2.35685">
        <ele>527.8</ele>
        <time>2021-08-30T22:29:18.058Z</time>
      </trkpt>
      <trkpt lat="42.87107" lon="2.35678">
        <ele>527.5</ele>
        <time>2021-08-30T22:29:20.116Z</time>
      </trkpt>
      <trkpt lat="42.87142" lon="2.35675">
        <ele>529</ele>
        <time>2021-08-30T22:29:29.488Z</time>
      </trkpt>
      <trkpt lat="42.87161" lon="2.35668">
        <ele>528.9</ele>
        <time>2021-08-30T22:29:32.456Z</time>
      </trkpt>
      <trkpt lat="42.872" lon="2.35646">
        <ele>524.3</ele>
        <time>2021-08-30T22:29:36.011Z</time>
      </trkpt>
      <trkpt lat="42.87276" lon="2.35623">
        <ele>519</ele>
        <time>2021-08-30T22:29:42.569Z</time>
      </trkpt>
      <trkpt lat="42.87301" lon="2.35607">
        <ele>515.2</ele>
        <time>2021-08-30T22:29:44.896Z</time>
      </trkpt>
      <trkpt lat="42.87313" lon="2.35601">
        <ele>513.6</ele>
        <time>2021-08-30T22:29:45.972Z</time>
      </trkpt>
      <trkpt lat="42.87341" lon="2.35599">
        <ele>511.7</ele>
        <time>2021-08-30T22:29:48.334Z</time>
      </trkpt>
      <trkpt lat="42.87367" lon="2.35602">
        <ele>510.9</ele>
        <time>2021-08-30T22:29:51.104Z</time>
      </trkpt>
      <trkpt lat="42.87395" lon="2.35601">
        <ele>509.5</ele>
        <time>2021-08-30T22:29:53.579Z</time>
      </trkpt>
      <trkpt lat="42.87409" lon="2.35609">
        <ele>510</ele>
        <time>2021-08-30T22:29:57.112Z</time>
      </trkpt>
      <trkpt lat="42.87419" lon="2.35611">
        <ele>509.9</ele>
        <time>2021-08-30T22:29:58.481Z</time>
      </trkpt>
      <trkpt lat="42.87429" lon="2.35608">
        <ele>509.3</ele>
        <time>2021-08-30T22:29:59.323Z</time>
      </trkpt>
      <trkpt lat="42.87473" lon="2.35596">
        <ele>506.6</ele>
        <time>2021-08-30T22:30:02.965Z</time>
      </trkpt>
      <trkpt lat="42.87506" lon="2.35592">
        <ele>504.8</ele>
        <time>2021-08-30T22:30:05.785Z</time>
      </trkpt>
      <trkpt lat="42.87571" lon="2.35586">
        <ele>498.3</ele>
        <time>2021-08-30T22:30:11.274Z</time>
      </trkpt>
      <trkpt lat="42.87578" lon="2.35589">
        <ele>498</ele>
        <time>2021-08-30T22:30:11.978Z</time>
      </trkpt>
      <trkpt lat="42.87585" lon="2.35595">
        <ele>497.8</ele>
        <time>2021-08-30T22:30:12.919Z</time>
      </trkpt>
      <trkpt lat="42.87592" lon="2.35602">
        <ele>496.9</ele>
        <time>2021-08-30T22:30:13.650Z</time>
      </trkpt>
      <trkpt lat="42.87598" lon="2.35613">
        <ele>496.7</ele>
        <time>2021-08-30T22:30:14.851Z</time>
      </trkpt>
      <trkpt lat="42.87603" lon="2.35632">
        <ele>497.4</ele>
        <time>2021-08-30T22:30:18.983Z</time>
      </trkpt>
      <trkpt lat="42.87608" lon="2.35682">
        <ele>501</ele>
        <time>2021-08-30T22:30:34.220Z</time>
      </trkpt>
      <trkpt lat="42.87612" lon="2.35688">
        <ele>500.7</ele>
        <time>2021-08-30T22:30:34.743Z</time>
      </trkpt>
      <trkpt lat="42.87623" lon="2.35691">
        <ele>498.6</ele>
        <time>2021-08-30T22:30:35.688Z</time>
      </trkpt>
      <trkpt lat="42.87624" lon="2.35703">
        <ele>499.5</ele>
        <time>2021-08-30T22:30:39.492Z</time>
      </trkpt>
      <trkpt lat="42.87638" lon="2.35793">
        <ele>503.7</ele>
        <time>2021-08-30T22:31:00.333Z</time>
      </trkpt>
      <trkpt lat="42.87644" lon="2.35817">
        <ele>504.4</ele>
        <time>2021-08-30T22:31:04.944Z</time>
      </trkpt>
      <trkpt lat="42.87661" lon="2.35846">
        <ele>504.7</ele>
        <time>2021-08-30T22:31:09.865Z</time>
      </trkpt>
      <trkpt lat="42.87683" lon="2.35889">
        <ele>510</ele>
        <time>2021-08-30T22:31:33.959Z</time>
      </trkpt>
      <trkpt lat="42.87689" lon="2.35896">
        <ele>511.1</ele>
        <time>2021-08-30T22:31:38.908Z</time>
      </trkpt>
      <trkpt lat="42.87694" lon="2.35899">
        <ele>511.6</ele>
        <time>2021-08-30T22:31:41.041Z</time>
      </trkpt>
      <trkpt lat="42.87699" lon="2.359">
        <ele>511.8</ele>
        <time>2021-08-30T22:31:42.329Z</time>
      </trkpt>
      <trkpt lat="42.87728" lon="2.35893">
        <ele>510.7</ele>
        <time>2021-08-30T22:31:45.251Z</time>
      </trkpt>
      <trkpt lat="42.87738" lon="2.35894">
        <ele>510.9</ele>
        <time>2021-08-30T22:31:47.245Z</time>
      </trkpt>
      <trkpt lat="42.87764" lon="2.35904">
        <ele>513.2</ele>
        <time>2021-08-30T22:31:57.219Z</time>
      </trkpt>
      <trkpt lat="42.87775" lon="2.35903">
        <ele>513.4</ele>
        <time>2021-08-30T22:31:59.368Z</time>
      </trkpt>
      <trkpt lat="42.87798" lon="2.35883">
        <ele>511.5</ele>
        <time>2021-08-30T22:32:01.666Z</time>
      </trkpt>
      <trkpt lat="42.87811" lon="2.35876">
        <ele>511.3</ele>
        <time>2021-08-30T22:32:03.454Z</time>
      </trkpt>
      <trkpt lat="42.87822" lon="2.35878">
        <ele>512.2</ele>
        <time>2021-08-30T22:32:07.415Z</time>
      </trkpt>
      <trkpt lat="42.87829" lon="2.35882">
        <ele>513</ele>
        <time>2021-08-30T22:32:10.802Z</time>
      </trkpt>
      <trkpt lat="42.87841" lon="2.35899">
        <ele>515.5</ele>
        <time>2021-08-30T22:32:21.646Z</time>
      </trkpt>
      <trkpt lat="42.87865" lon="2.35981">
        <ele>524.2</ele>
        <time>2021-08-30T22:33:02.212Z</time>
      </trkpt>
      <trkpt lat="42.87873" lon="2.36">
        <ele>525.2</ele>
        <time>2021-08-30T22:33:07.175Z</time>
      </trkpt>
      <trkpt lat="42.87883" lon="2.36007">
        <ele>525</ele>
        <time>2021-08-30T22:33:08.552Z</time>
      </trkpt>
      <trkpt lat="42.87893" lon="2.36006">
        <ele>523.9</ele>
        <time>2021-08-30T22:33:09.397Z</time>
      </trkpt>
      <trkpt lat="42.87918" lon="2.35974">
        <ele>520.6</ele>
        <time>2021-08-30T22:33:12.285Z</time>
      </trkpt>
      <trkpt lat="42.87926" lon="2.35969">
        <ele>520.2</ele>
        <time>2021-08-30T22:33:13.094Z</time>
      </trkpt>
      <trkpt lat="42.87934" lon="2.35971">
        <ele>519.9</ele>
        <time>2021-08-30T22:33:13.905Z</time>
      </trkpt>
      <trkpt lat="42.87938" lon="2.35978">
        <ele>520</ele>
        <time>2021-08-30T22:33:15.135Z</time>
      </trkpt>
      <trkpt lat="42.87938" lon="2.35985">
        <ele>520.2</ele>
        <time>2021-08-30T22:33:16.432Z</time>
      </trkpt>
      <trkpt lat="42.87918" lon="2.36022">
        <ele>522.8</ele>
        <time>2021-08-30T22:33:28.081Z</time>
      </trkpt>
      <trkpt lat="42.8791" lon="2.36046">
        <ele>525.7</ele>
        <time>2021-08-30T22:33:40.194Z</time>
      </trkpt>
      <trkpt lat="42.87911" lon="2.36091">
        <ele>529.4</ele>
        <time>2021-08-30T22:33:56.012Z</time>
      </trkpt>
      <trkpt lat="42.87907" lon="2.36103">
        <ele>530.9</ele>
        <time>2021-08-30T22:34:02.069Z</time>
      </trkpt>
      <trkpt lat="42.879" lon="2.36107">
        <ele>532.3</ele>
        <time>2021-08-30T22:34:06.826Z</time>
      </trkpt>
      <trkpt lat="42.87894" lon="2.36108">
        <ele>533.3</ele>
        <time>2021-08-30T22:34:10.616Z</time>
      </trkpt>
      <trkpt lat="42.87886" lon="2.36102">
        <ele>534.1</ele>
        <time>2021-08-30T22:34:14.060Z</time>
      </trkpt>
      <trkpt lat="42.87879" lon="2.36091">
        <ele>534.4</ele>
        <time>2021-08-30T22:34:16.396Z</time>
      </trkpt>
      <trkpt lat="42.87853" lon="2.36068">
        <ele>535.9</ele>
        <time>2021-08-30T22:34:25.112Z</time>
      </trkpt>
      <trkpt lat="42.87827" lon="2.3605">
        <ele>536.2</ele>
        <time>2021-08-30T22:34:30.344Z</time>
      </trkpt>
      <trkpt lat="42.87817" lon="2.36045">
        <ele>535.4</ele>
        <time>2021-08-30T22:34:31.241Z</time>
      </trkpt>
      <trkpt lat="42.87808" lon="2.36043">
        <ele>535</ele>
        <time>2021-08-30T22:34:32.092Z</time>
      </trkpt>
      <trkpt lat="42.87799" lon="2.36047">
        <ele>535.5</ele>
        <time>2021-08-30T22:34:34.832Z</time>
      </trkpt>
      <trkpt lat="42.87793" lon="2.36055">
        <ele>536.6</ele>
        <time>2021-08-30T22:34:39.922Z</time>
      </trkpt>
      <trkpt lat="42.87779" lon="2.36078">
        <ele>539.6</ele>
        <time>2021-08-30T22:34:53.659Z</time>
      </trkpt>
      <trkpt lat="42.87743" lon="2.36129">
        <ele>545.4</ele>
        <time>2021-08-30T22:35:18.434Z</time>
      </trkpt>
      <trkpt lat="42.87719" lon="2.36175">
        <ele>550.1</ele>
        <time>2021-08-30T22:35:38.593Z</time>
      </trkpt>
      <trkpt lat="42.8771" lon="2.36196">
        <ele>551.9</ele>
        <time>2021-08-30T22:35:46.200Z</time>
      </trkpt>
      <trkpt lat="42.87702" lon="2.36205">
        <ele>552.5</ele>
        <time>2021-08-30T22:35:49.307Z</time>
      </trkpt>
      <trkpt lat="42.87695" lon="2.36207">
        <ele>552.4</ele>
        <time>2021-08-30T22:35:50.226Z</time>
      </trkpt>
      <trkpt lat="42.87676" lon="2.36198">
        <ele>550.9</ele>
        <time>2021-08-30T22:35:51.920Z</time>
      </trkpt>
      <trkpt lat="42.87668" lon="2.36198">
        <ele>550.7</ele>
        <time>2021-08-30T22:35:52.822Z</time>
      </trkpt>
      <trkpt lat="42.87657" lon="2.36202">
        <ele>552</ele>
        <time>2021-08-30T22:35:58.407Z</time>
      </trkpt>
      <trkpt lat="42.87652" lon="2.36211">
        <ele>553.4</ele>
        <time>2021-08-30T22:36:03.595Z</time>
      </trkpt>
      <trkpt lat="42.87651" lon="2.36221">
        <ele>554.5</ele>
        <time>2021-08-30T22:36:08.232Z</time>
      </trkpt>
      <trkpt lat="42.87654" lon="2.3623">
        <ele>555</ele>
        <time>2021-08-30T22:36:10.584Z</time>
      </trkpt>
      <trkpt lat="42.87662" lon="2.3624">
        <ele>554.8</ele>
        <time>2021-08-30T22:36:11.904Z</time>
      </trkpt>
      <trkpt lat="42.87697" lon="2.36268">
        <ele>558.6</ele>
        <time>2021-08-30T22:36:28.056Z</time>
      </trkpt>
      <trkpt lat="42.87706" lon="2.36269">
        <ele>559</ele>
        <time>2021-08-30T22:36:30.525Z</time>
      </trkpt>
      <trkpt lat="42.87717" lon="2.36266">
        <ele>559</ele>
        <time>2021-08-30T22:36:32.349Z</time>
      </trkpt>
      <trkpt lat="42.87748" lon="2.36251">
        <ele>559</ele>
        <time>2021-08-30T22:36:37.695Z</time>
      </trkpt>
      <trkpt lat="42.87756" lon="2.3625">
        <ele>558.1</ele>
        <time>2021-08-30T22:36:38.372Z</time>
      </trkpt>
      <trkpt lat="42.87762" lon="2.36251">
        <ele>557.3</ele>
        <time>2021-08-30T22:36:38.881Z</time>
      </trkpt>
      <trkpt lat="42.87768" lon="2.36258">
        <ele>556.9</ele>
        <time>2021-08-30T22:36:39.574Z</time>
      </trkpt>
      <trkpt lat="42.87771" lon="2.3627">
        <ele>557.1</ele>
        <time>2021-08-30T22:36:41.455Z</time>
      </trkpt>
      <trkpt lat="42.87769" lon="2.36326">
        <ele>560.5</ele>
        <time>2021-08-30T22:36:56.323Z</time>
      </trkpt>
      <trkpt lat="42.87764" lon="2.36375">
        <ele>562.5</ele>
        <time>2021-08-30T22:37:06.987Z</time>
      </trkpt>
      <trkpt lat="42.87759" lon="2.36393">
        <ele>563.8</ele>
        <time>2021-08-30T22:37:12.527Z</time>
      </trkpt>
      <trkpt lat="42.8775" lon="2.36409">
        <ele>565.9</ele>
        <time>2021-08-30T22:37:21.793Z</time>
      </trkpt>
      <trkpt lat="42.87737" lon="2.36427">
        <ele>568.5</ele>
        <time>2021-08-30T22:37:33.404Z</time>
      </trkpt>
      <trkpt lat="42.87724" lon="2.36436">
        <ele>570.8</ele>
        <time>2021-08-30T22:37:42.543Z</time>
      </trkpt>
      <trkpt lat="42.87709" lon="2.36443">
        <ele>573.2</ele>
        <time>2021-08-30T22:37:52.482Z</time>
      </trkpt>
      <trkpt lat="42.87672" lon="2.36456">
        <ele>578.7</ele>
        <time>2021-08-30T22:38:16.435Z</time>
      </trkpt>
      <trkpt lat="42.87665" lon="2.36465">
        <ele>579.9</ele>
        <time>2021-08-30T22:38:21.794Z</time>
      </trkpt>
      <trkpt lat="42.87664" lon="2.36476">
        <ele>580.5</ele>
        <time>2021-08-30T22:38:24.530Z</time>
      </trkpt>
      <trkpt lat="42.87669" lon="2.36488">
        <ele>580.3</ele>
        <time>2021-08-30T22:38:25.742Z</time>
      </trkpt>
      <trkpt lat="42.87677" lon="2.3649">
        <ele>579.4</ele>
        <time>2021-08-30T22:38:26.427Z</time>
      </trkpt>
      <trkpt lat="42.87704" lon="2.36483">
        <ele>575.7</ele>
        <time>2021-08-30T22:38:28.742Z</time>
      </trkpt>
      <trkpt lat="42.87718" lon="2.36484">
        <ele>574</ele>
        <time>2021-08-30T22:38:29.923Z</time>
      </trkpt>
      <trkpt lat="42.87733" lon="2.36496">
        <ele>572.8</ele>
        <time>2021-08-30T22:38:31.388Z</time>
      </trkpt>
      <trkpt lat="42.87745" lon="2.36512">
        <ele>573.6</ele>
        <time>2021-08-30T22:38:36.085Z</time>
      </trkpt>
      <trkpt lat="42.87777" lon="2.3662">
        <ele>584</ele>
        <time>2021-08-30T22:39:21.916Z</time>
      </trkpt>
      <trkpt lat="42.87787" lon="2.36667">
        <ele>587.7</ele>
        <time>2021-08-30T22:39:37.558Z</time>
      </trkpt>
      <trkpt lat="42.87795" lon="2.36733">
        <ele>590.9</ele>
        <time>2021-08-30T22:39:53.040Z</time>
      </trkpt>
      <trkpt lat="42.87792" lon="2.36795">
        <ele>598.3</ele>
        <time>2021-08-30T22:40:21.586Z</time>
      </trkpt>
      <trkpt lat="42.87795" lon="2.36817">
        <ele>600.6</ele>
        <time>2021-08-30T22:40:31.867Z</time>
      </trkpt>
      <trkpt lat="42.878" lon="2.36831">
        <ele>601.7</ele>
        <time>2021-08-30T22:40:36.526Z</time>
      </trkpt>
      <trkpt lat="42.87808" lon="2.36835">
        <ele>601.2</ele>
        <time>2021-08-30T22:40:37.226Z</time>
      </trkpt>
      <trkpt lat="42.87814" lon="2.36834">
        <ele>600.4</ele>
        <time>2021-08-30T22:40:37.736Z</time>
      </trkpt>
      <trkpt lat="42.8783" lon="2.36812">
        <ele>594.9</ele>
        <time>2021-08-30T22:40:39.649Z</time>
      </trkpt>
      <trkpt lat="42.8784" lon="2.36805">
        <ele>593.2</ele>
        <time>2021-08-30T22:40:40.596Z</time>
      </trkpt>
      <trkpt lat="42.87851" lon="2.36805">
        <ele>593.2</ele>
        <time>2021-08-30T22:40:42.384Z</time>
      </trkpt>
      <trkpt lat="42.87877" lon="2.36816">
        <ele>594.8</ele>
        <time>2021-08-30T22:40:50.592Z</time>
      </trkpt>
      <trkpt lat="42.87889" lon="2.36824">
        <ele>595.9</ele>
        <time>2021-08-30T22:40:55.410Z</time>
      </trkpt>
      <trkpt lat="42.87894" lon="2.36833">
        <ele>597.2</ele>
        <time>2021-08-30T22:41:00.598Z</time>
      </trkpt>
      <trkpt lat="42.87896" lon="2.36845">
        <ele>598.5</ele>
        <time>2021-08-30T22:41:06.252Z</time>
      </trkpt>
      <trkpt lat="42.87885" lon="2.36891">
        <ele>603.6</ele>
        <time>2021-08-30T22:41:28.482Z</time>
      </trkpt>
      <trkpt lat="42.87873" lon="2.36982">
        <ele>612.7</ele>
        <time>2021-08-30T22:42:10.960Z</time>
      </trkpt>
      <trkpt lat="42.8787" lon="2.3702">
        <ele>615.4</ele>
        <time>2021-08-30T22:42:22.397Z</time>
      </trkpt>
      <trkpt lat="42.87864" lon="2.37045">
        <ele>616.5</ele>
        <time>2021-08-30T22:42:28.142Z</time>
      </trkpt>
      <trkpt lat="42.87855" lon="2.37061">
        <ele>617</ele>
        <time>2021-08-30T22:42:31.623Z</time>
      </trkpt>
      <trkpt lat="42.87845" lon="2.37078">
        <ele>617.4</ele>
        <time>2021-08-30T22:42:34.992Z</time>
      </trkpt>
      <trkpt lat="42.87841" lon="2.37092">
        <ele>618</ele>
        <time>2021-08-30T22:42:38.217Z</time>
      </trkpt>
      <trkpt lat="42.87842" lon="2.37106">
        <ele>618.9</ele>
        <time>2021-08-30T22:42:42.094Z</time>
      </trkpt>
      <trkpt lat="42.87851" lon="2.37123">
        <ele>620.3</ele>
        <time>2021-08-30T22:42:48.072Z</time>
      </trkpt>
      <trkpt lat="42.87857" lon="2.37133">
        <ele>621.2</ele>
        <time>2021-08-30T22:42:51.890Z</time>
      </trkpt>
      <trkpt lat="42.87862" lon="2.37142">
        <ele>622</ele>
        <time>2021-08-30T22:42:55.278Z</time>
      </trkpt>
      <trkpt lat="42.87865" lon="2.37167">
        <ele>623.5</ele>
        <time>2021-08-30T22:43:01.888Z</time>
      </trkpt>
      <trkpt lat="42.87868" lon="2.37251">
        <ele>628.3</ele>
        <time>2021-08-30T22:43:23.319Z</time>
      </trkpt>
      <trkpt lat="42.87869" lon="2.37283">
        <ele>630.4</ele>
        <time>2021-08-30T22:43:32.316Z</time>
      </trkpt>
      <trkpt lat="42.87866" lon="2.37354">
        <ele>634</ele>
        <time>2021-08-30T22:43:49.244Z</time>
      </trkpt>
      <trkpt lat="42.87879" lon="2.37444">
        <ele>635</ele>
        <time>2021-08-30T22:44:01.894Z</time>
      </trkpt>
      <trkpt lat="42.87878" lon="2.37461">
        <ele>635</ele>
        <time>2021-08-30T22:44:03.925Z</time>
      </trkpt>
      <trkpt lat="42.87873" lon="2.37472">
        <ele>635</ele>
        <time>2021-08-30T22:44:05.467Z</time>
      </trkpt>
      <trkpt lat="42.87858" lon="2.37497">
        <ele>634.6</ele>
        <time>2021-08-30T22:44:08.401Z</time>
      </trkpt>
      <trkpt lat="42.87854" lon="2.37516">
        <ele>634.9</ele>
        <time>2021-08-30T22:44:11.307Z</time>
      </trkpt>
      <trkpt lat="42.87855" lon="2.37545">
        <ele>635.7</ele>
        <time>2021-08-30T22:44:16.582Z</time>
      </trkpt>
      <trkpt lat="42.87861" lon="2.37578">
        <ele>637.5</ele>
        <time>2021-08-30T22:44:24.871Z</time>
      </trkpt>
      <trkpt lat="42.87871" lon="2.37638">
        <ele>639.3</ele>
        <time>2021-08-30T22:44:36.425Z</time>
      </trkpt>
      <trkpt lat="42.8788" lon="2.37702">
        <ele>641</ele>
        <time>2021-08-30T22:44:47.942Z</time>
      </trkpt>
      <trkpt lat="42.8788" lon="2.37703">
        <ele>641</ele>
        <time>2021-08-30T22:44:48.061Z</time>
      </trkpt>
      <trkpt lat="42.8789" lon="2.37781">
        <ele>641.8</ele>
        <time>2021-08-30T22:44:58.856Z</time>
      </trkpt>
      <trkpt lat="42.87895" lon="2.37805">
        <ele>641.7</ele>
        <time>2021-08-30T22:45:01.598Z</time>
      </trkpt>
      <trkpt lat="42.87906" lon="2.37842">
        <ele>641.5</ele>
        <time>2021-08-30T22:45:05.903Z</time>
      </trkpt>
      <trkpt lat="42.87919" lon="2.37879">
        <ele>642.5</ele>
        <time>2021-08-30T22:45:12.931Z</time>
      </trkpt>
      <trkpt lat="42.87925" lon="2.37904">
        <ele>643.9</ele>
        <time>2021-08-30T22:45:19.364Z</time>
      </trkpt>
      <trkpt lat="42.87935" lon="2.37952">
        <ele>648.1</ele>
        <time>2021-08-30T22:45:37.436Z</time>
      </trkpt>
      <trkpt lat="42.87942" lon="2.37997">
        <ele>652</ele>
        <time>2021-08-30T22:45:54.257Z</time>
      </trkpt>
      <trkpt lat="42.87943" lon="2.38014">
        <ele>653.6</ele>
        <time>2021-08-30T22:46:01.524Z</time>
      </trkpt>
      <trkpt lat="42.87939" lon="2.38025">
        <ele>653.7</ele>
        <time>2021-08-30T22:46:03.153Z</time>
      </trkpt>
      <trkpt lat="42.8792" lon="2.38048">
        <ele>652.2</ele>
        <time>2021-08-30T22:46:05.233Z</time>
      </trkpt>
      <trkpt lat="42.87915" lon="2.38062">
        <ele>652.9</ele>
        <time>2021-08-30T22:46:08.737Z</time>
      </trkpt>
      <trkpt lat="42.87912" lon="2.38095">
        <ele>655.1</ele>
        <time>2021-08-30T22:46:18.145Z</time>
      </trkpt>
      <trkpt lat="42.87907" lon="2.38102">
        <ele>655</ele>
        <time>2021-08-30T22:46:19.066Z</time>
      </trkpt>
      <trkpt lat="42.87884" lon="2.38108">
        <ele>653.7</ele>
        <time>2021-08-30T22:46:21.040Z</time>
      </trkpt>
      <trkpt lat="42.87876" lon="2.38113">
        <ele>653.3</ele>
        <time>2021-08-30T22:46:21.849Z</time>
      </trkpt>
      <trkpt lat="42.87872" lon="2.38122">
        <ele>653.4</ele>
        <time>2021-08-30T22:46:23.272Z</time>
      </trkpt>
      <trkpt lat="42.87872" lon="2.3814">
        <ele>654.2</ele>
        <time>2021-08-30T22:46:27.302Z</time>
      </trkpt>
      <trkpt lat="42.87892" lon="2.38251">
        <ele>658.8</ele>
        <time>2021-08-30T22:46:51.901Z</time>
      </trkpt>
      <trkpt lat="42.87915" lon="2.38357">
        <ele>661.9</ele>
        <time>2021-08-30T22:47:12.174Z</time>
      </trkpt>
      <trkpt lat="42.87922" lon="2.38387">
        <ele>663.5</ele>
        <time>2021-08-30T22:47:19.683Z</time>
      </trkpt>
      <trkpt lat="42.87925" lon="2.38408">
        <ele>664.5</ele>
        <time>2021-08-30T22:47:24.581Z</time>
      </trkpt>
      <trkpt lat="42.87918" lon="2.38423">
        <ele>664.7</ele>
        <time>2021-08-30T22:47:27.046Z</time>
      </trkpt>
      <trkpt lat="42.87909" lon="2.38428">
        <ele>665.2</ele>
        <time>2021-08-30T22:47:29.834Z</time>
      </trkpt>
      <trkpt lat="42.87888" lon="2.3843">
        <ele>665.7</ele>
        <time>2021-08-30T22:47:34.207Z</time>
      </trkpt>
      <trkpt lat="42.87874" lon="2.3844">
        <ele>666.9</ele>
        <time>2021-08-30T22:47:39.618Z</time>
      </trkpt>
      <trkpt lat="42.87868" lon="2.38451">
        <ele>668.1</ele>
        <time>2021-08-30T22:47:44.856Z</time>
      </trkpt>
      <trkpt lat="42.87868" lon="2.3846">
        <ele>669</ele>
        <time>2021-08-30T22:47:48.991Z</time>
      </trkpt>
      <trkpt lat="42.87869" lon="2.38469">
        <ele>670</ele>
        <time>2021-08-30T22:47:53.173Z</time>
      </trkpt>
      <trkpt lat="42.87871" lon="2.38487">
        <ele>671.8</ele>
        <time>2021-08-30T22:48:01.537Z</time>
      </trkpt>
      <trkpt lat="42.87876" lon="2.38506">
        <ele>673</ele>
        <time>2021-08-30T22:48:06.818Z</time>
      </trkpt>
      <trkpt lat="42.87882" lon="2.38534">
        <ele>673.3</ele>
        <time>2021-08-30T22:48:10.806Z</time>
      </trkpt>
      <trkpt lat="42.87901" lon="2.38619">
        <ele>673.1</ele>
        <time>2021-08-30T22:48:20.915Z</time>
      </trkpt>
      <trkpt lat="42.87907" lon="2.38654">
        <ele>672.2</ele>
        <time>2021-08-30T22:48:23.612Z</time>
      </trkpt>
      <trkpt lat="42.87908" lon="2.38663">
        <ele>672</ele>
        <time>2021-08-30T22:48:24.325Z</time>
      </trkpt>
      <trkpt lat="42.87906" lon="2.38687">
        <ele>671.4</ele>
        <time>2021-08-30T22:48:26.142Z</time>
      </trkpt>
      <trkpt lat="42.87896" lon="2.38737">
        <ele>669.9</ele>
        <time>2021-08-30T22:48:29.834Z</time>
      </trkpt>
      <trkpt lat="42.87896" lon="2.38777">
        <ele>669.3</ele>
        <time>2021-08-30T22:48:33.315Z</time>
      </trkpt>
      <trkpt lat="42.87908" lon="2.38854">
        <ele>669.8</ele>
        <time>2021-08-30T22:48:43.500Z</time>
      </trkpt>
      <trkpt lat="42.87912" lon="2.38897">
        <ele>670.9</ele>
        <time>2021-08-30T22:48:51.061Z</time>
      </trkpt>
      <trkpt lat="42.87912" lon="2.38912">
        <ele>671.2</ele>
        <time>2021-08-30T22:48:53.443Z</time>
      </trkpt>
      <trkpt lat="42.8791" lon="2.38922">
        <ele>670.9</ele>
        <time>2021-08-30T22:48:54.182Z</time>
      </trkpt>
      <trkpt lat="42.87909" lon="2.38927">
        <ele>670.7</ele>
        <time>2021-08-30T22:48:54.510Z</time>
      </trkpt>
      <trkpt lat="42.87906" lon="2.38938">
        <ele>670.1</ele>
        <time>2021-08-30T22:48:55.234Z</time>
      </trkpt>
      <trkpt lat="42.87895" lon="2.38956">
        <ele>668.5</ele>
        <time>2021-08-30T22:48:56.681Z</time>
      </trkpt>
      <trkpt lat="42.87882" lon="2.38965">
        <ele>667.1</ele>
        <time>2021-08-30T22:48:57.909Z</time>
      </trkpt>
      <trkpt lat="42.87856" lon="2.38976">
        <ele>664.4</ele>
        <time>2021-08-30T22:49:00.202Z</time>
      </trkpt>
      <trkpt lat="42.8784" lon="2.38988">
        <ele>663.2</ele>
        <time>2021-08-30T22:49:01.622Z</time>
      </trkpt>
      <trkpt lat="42.87828" lon="2.39008">
        <ele>662.9</ele>
        <time>2021-08-30T22:49:04.000Z</time>
      </trkpt>
      <trkpt lat="42.87824" lon="2.3902">
        <ele>663</ele>
        <time>2021-08-30T22:49:05.734Z</time>
      </trkpt>
      <trkpt lat="42.87822" lon="2.39033">
        <ele>663.2</ele>
        <time>2021-08-30T22:49:07.683Z</time>
      </trkpt>
      <trkpt lat="42.87821" lon="2.39046">
        <ele>663.5</ele>
        <time>2021-08-30T22:49:09.867Z</time>
      </trkpt>
      <trkpt lat="42.87821" lon="2.39093">
        <ele>664.5</ele>
        <time>2021-08-30T22:49:17.493Z</time>
      </trkpt>
      <trkpt lat="42.87824" lon="2.39234">
        <ele>661</ele>
        <time>2021-08-30T22:49:28.111Z</time>
      </trkpt>
      <trkpt lat="42.87824" lon="2.39269">
        <ele>659.5</ele>
        <time>2021-08-30T22:49:30.221Z</time>
      </trkpt>
      <trkpt lat="42.87827" lon="2.39298">
        <ele>658.8</ele>
        <time>2021-08-30T22:49:32.454Z</time>
      </trkpt>
      <trkpt lat="42.87831" lon="2.39323">
        <ele>658.2</ele>
        <time>2021-08-30T22:49:34.417Z</time>
      </trkpt>
      <trkpt lat="42.87848" lon="2.3943">
        <ele>657.7</ele>
        <time>2021-08-30T22:49:46.321Z</time>
      </trkpt>
      <trkpt lat="42.8785" lon="2.39442">
        <ele>657.7</ele>
        <time>2021-08-30T22:49:47.787Z</time>
      </trkpt>
      <trkpt lat="42.8785" lon="2.39466">
        <ele>657.3</ele>
        <time>2021-08-30T22:49:49.821Z</time>
      </trkpt>
      <trkpt lat="42.87841" lon="2.3952">
        <ele>655.2</ele>
        <time>2021-08-30T22:49:53.353Z</time>
      </trkpt>
      <trkpt lat="42.87839" lon="2.39546">
        <ele>654.8</ele>
        <time>2021-08-30T22:49:55.617Z</time>
      </trkpt>
      <trkpt lat="42.87844" lon="2.39587">
        <ele>655.5</ele>
        <time>2021-08-30T22:50:01.888Z</time>
      </trkpt>
      <trkpt lat="42.87843" lon="2.396">
        <ele>655.4</ele>
        <time>2021-08-30T22:50:03.176Z</time>
      </trkpt>
      <trkpt lat="42.8784" lon="2.39616">
        <ele>655</ele>
        <time>2021-08-30T22:50:04.430Z</time>
      </trkpt>
      <trkpt lat="42.87831" lon="2.3964">
        <ele>653.9</ele>
        <time>2021-08-30T22:50:06.093Z</time>
      </trkpt>
      <trkpt lat="42.87829" lon="2.39649">
        <ele>653.8</ele>
        <time>2021-08-30T22:50:06.972Z</time>
      </trkpt>
      <trkpt lat="42.87831" lon="2.39669">
        <ele>654</ele>
        <time>2021-08-30T22:50:09.717Z</time>
      </trkpt>
      <trkpt lat="42.87847" lon="2.39709">
        <ele>657.8</ele>
        <time>2021-08-30T22:50:26.023Z</time>
      </trkpt>
      <trkpt lat="42.8785" lon="2.39732">
        <ele>659.1</ele>
        <time>2021-08-30T22:50:31.885Z</time>
      </trkpt>
      <trkpt lat="42.87847" lon="2.39759">
        <ele>659.9</ele>
        <time>2021-08-30T22:50:37.017Z</time>
      </trkpt>
      <trkpt lat="42.87845" lon="2.39772">
        <ele>660.2</ele>
        <time>2021-08-30T22:50:39.221Z</time>
      </trkpt>
      <trkpt lat="42.87841" lon="2.39782">
        <ele>660.3</ele>
        <time>2021-08-30T22:50:40.745Z</time>
      </trkpt>
      <trkpt lat="42.87836" lon="2.3979">
        <ele>660.2</ele>
        <time>2021-08-30T22:50:41.748Z</time>
      </trkpt>
      <trkpt lat="42.8783" lon="2.39796">
        <ele>660.3</ele>
        <time>2021-08-30T22:50:43.127Z</time>
      </trkpt>
      <trkpt lat="42.87823" lon="2.39802">
        <ele>660.7</ele>
        <time>2021-08-30T22:50:45.452Z</time>
      </trkpt>
      <trkpt lat="42.878" lon="2.39807">
        <ele>661.7</ele>
        <time>2021-08-30T22:50:51.691Z</time>
      </trkpt>
      <trkpt lat="42.87785" lon="2.39807">
        <ele>662.2</ele>
        <time>2021-08-30T22:50:55.201Z</time>
      </trkpt>
      <trkpt lat="42.87756" lon="2.39797">
        <ele>661.7</ele>
        <time>2021-08-30T22:50:58.916Z</time>
      </trkpt>
      <trkpt lat="42.87734" lon="2.39781">
        <ele>658.9</ele>
        <time>2021-08-30T22:51:01.016Z</time>
      </trkpt>
      <trkpt lat="42.8772" lon="2.39774">
        <ele>657.4</ele>
        <time>2021-08-30T22:51:02.272Z</time>
      </trkpt>
      <trkpt lat="42.87709" lon="2.39771">
        <ele>656.5</ele>
        <time>2021-08-30T22:51:03.217Z</time>
      </trkpt>
      <trkpt lat="42.87699" lon="2.39771">
        <ele>656.2</ele>
        <time>2021-08-30T22:51:04.286Z</time>
      </trkpt>
      <trkpt lat="42.87692" lon="2.39772">
        <ele>656.1</ele>
        <time>2021-08-30T22:51:05.188Z</time>
      </trkpt>
      <trkpt lat="42.87682" lon="2.39775">
        <ele>656.2</ele>
        <time>2021-08-30T22:51:07.015Z</time>
      </trkpt>
      <trkpt lat="42.87643" lon="2.39791">
        <ele>659.1</ele>
        <time>2021-08-30T22:51:20.458Z</time>
      </trkpt>
      <trkpt lat="42.87612" lon="2.3981">
        <ele>658.6</ele>
        <time>2021-08-30T22:51:24.784Z</time>
      </trkpt>
      <trkpt lat="42.87592" lon="2.39828">
        <ele>654.3</ele>
        <time>2021-08-30T22:51:26.803Z</time>
      </trkpt>
      <trkpt lat="42.87571" lon="2.39856">
        <ele>657.5</ele>
        <time>2021-08-30T22:51:40.404Z</time>
      </trkpt>
      <trkpt lat="42.8756" lon="2.39867">
        <ele>659.5</ele>
        <time>2021-08-30T22:51:48.954Z</time>
      </trkpt>
      <trkpt lat="42.87522" lon="2.39894">
        <ele>659</ele>
        <time>2021-08-30T22:51:54.624Z</time>
      </trkpt>
      <trkpt lat="42.87508" lon="2.39907">
        <ele>656</ele>
        <time>2021-08-30T22:51:56.051Z</time>
      </trkpt>
      <trkpt lat="42.87454" lon="2.39981">
        <ele>659.4</ele>
        <time>2021-08-30T22:52:17.025Z</time>
      </trkpt>
      <trkpt lat="42.87435" lon="2.40016">
        <ele>654.7</ele>
        <time>2021-08-30T22:52:19.715Z</time>
      </trkpt>
      <trkpt lat="42.8742" lon="2.4005">
        <ele>648.8</ele>
        <time>2021-08-30T22:52:22.165Z</time>
      </trkpt>
      <trkpt lat="42.87409" lon="2.40091">
        <ele>645.4</ele>
        <time>2021-08-30T22:52:24.860Z</time>
      </trkpt>
      <trkpt lat="42.87406" lon="2.40116">
        <ele>644.2</ele>
        <time>2021-08-30T22:52:26.315Z</time>
      </trkpt>
      <trkpt lat="42.87408" lon="2.40137">
        <ele>642.2</ele>
        <time>2021-08-30T22:52:27.623Z</time>
      </trkpt>
      <trkpt lat="42.87412" lon="2.40157">
        <ele>640.2</ele>
        <time>2021-08-30T22:52:28.903Z</time>
      </trkpt>
      <trkpt lat="42.87428" lon="2.40208">
        <ele>640.9</ele>
        <time>2021-08-30T22:52:36.748Z</time>
      </trkpt>
      <trkpt lat="42.87427" lon="2.40233">
        <ele>638.6</ele>
        <time>2021-08-30T22:52:38.294Z</time>
      </trkpt>
      <trkpt lat="42.87418" lon="2.40278">
        <ele>631.7</ele>
        <time>2021-08-30T22:52:41.174Z</time>
      </trkpt>
      <trkpt lat="42.87425" lon="2.40345">
        <ele>633.4</ele>
        <time>2021-08-30T22:52:52.925Z</time>
      </trkpt>
      <trkpt lat="42.87427" lon="2.4042">
        <ele>633</ele>
        <time>2021-08-30T22:53:00.645Z</time>
      </trkpt>
      <trkpt lat="42.87413" lon="2.40456">
        <ele>631.8</ele>
        <time>2021-08-30T22:53:03.529Z</time>
      </trkpt>
      <trkpt lat="42.87395" lon="2.40495">
        <ele>629.8</ele>
        <time>2021-08-30T22:53:06.292Z</time>
      </trkpt>
      <trkpt lat="42.87387" lon="2.40504">
        <ele>627.8</ele>
        <time>2021-08-30T22:53:07.166Z</time>
      </trkpt>
      <trkpt lat="42.87358" lon="2.40523">
        <ele>619.2</ele>
        <time>2021-08-30T22:53:09.876Z</time>
      </trkpt>
      <trkpt lat="42.87325" lon="2.40597">
        <ele>621.5</ele>
        <time>2021-08-30T22:53:25.319Z</time>
      </trkpt>
      <trkpt lat="42.87302" lon="2.40638">
        <ele>622.7</ele>
        <time>2021-08-30T22:53:33.988Z</time>
      </trkpt>
      <trkpt lat="42.87292" lon="2.40649">
        <ele>621.4</ele>
        <time>2021-08-30T22:53:35.070Z</time>
      </trkpt>
      <trkpt lat="42.87239" lon="2.40684">
        <ele>609.1</ele>
        <time>2021-08-30T22:53:40.030Z</time>
      </trkpt>
      <trkpt lat="42.87224" lon="2.40705">
        <ele>607.8</ele>
        <time>2021-08-30T22:53:41.770Z</time>
      </trkpt>
      <trkpt lat="42.87218" lon="2.40726">
        <ele>608</ele>
        <time>2021-08-30T22:53:44.790Z</time>
      </trkpt>
      <trkpt lat="42.87218" lon="2.40749">
        <ele>609.8</ele>
        <time>2021-08-30T22:53:52.419Z</time>
      </trkpt>
      <trkpt lat="42.87222" lon="2.4077">
        <ele>610.3</ele>
        <time>2021-08-30T22:53:56.050Z</time>
      </trkpt>
      <trkpt lat="42.87256" lon="2.40839">
        <ele>618.6</ele>
        <time>2021-08-30T22:54:34.252Z</time>
      </trkpt>
      <trkpt lat="42.87263" lon="2.40864">
        <ele>618.7</ele>
        <time>2021-08-30T22:54:37.596Z</time>
      </trkpt>
      <trkpt lat="42.87264" lon="2.40888">
        <ele>616.7</ele>
        <time>2021-08-30T22:54:39.081Z</time>
      </trkpt>
      <trkpt lat="42.87252" lon="2.40922">
        <ele>611.1</ele>
        <time>2021-08-30T22:54:41.410Z</time>
      </trkpt>
      <trkpt lat="42.87221" lon="2.40966">
        <ele>605.5</ele>
        <time>2021-08-30T22:54:45.179Z</time>
      </trkpt>
      <trkpt lat="42.87207" lon="2.40993">
        <ele>602.6</ele>
        <time>2021-08-30T22:54:47.221Z</time>
      </trkpt>
      <trkpt lat="42.87191" lon="2.41051">
        <ele>598.8</ele>
        <time>2021-08-30T22:54:51.047Z</time>
      </trkpt>
      <trkpt lat="42.87182" lon="2.41089">
        <ele>596</ele>
        <time>2021-08-30T22:54:53.513Z</time>
      </trkpt>
      <trkpt lat="42.87176" lon="2.41124">
        <ele>593.6</ele>
        <time>2021-08-30T22:54:55.732Z</time>
      </trkpt>
      <trkpt lat="42.87179" lon="2.41169">
        <ele>594.6</ele>
        <time>2021-08-30T22:55:03.173Z</time>
      </trkpt>
      <trkpt lat="42.87179" lon="2.41239">
        <ele>595.1</ele>
        <time>2021-08-30T22:55:12.329Z</time>
      </trkpt>
      <trkpt lat="42.87179" lon="2.41244">
        <ele>595.1</ele>
        <time>2021-08-30T22:55:12.924Z</time>
      </trkpt>
      <trkpt lat="42.87166" lon="2.41296">
        <ele>592.6</ele>
        <time>2021-08-30T22:55:16.144Z</time>
      </trkpt>
      <trkpt lat="42.87133" lon="2.4136">
        <ele>583.7</ele>
        <time>2021-08-30T22:55:20.975Z</time>
      </trkpt>
      <trkpt lat="42.8713" lon="2.41385">
        <ele>582.2</ele>
        <time>2021-08-30T22:55:22.539Z</time>
      </trkpt>
      <trkpt lat="42.87138" lon="2.41412">
        <ele>583.6</ele>
        <time>2021-08-30T22:55:29.296Z</time>
      </trkpt>
      <trkpt lat="42.87135" lon="2.41433">
        <ele>584.4</ele>
        <time>2021-08-30T22:55:33.782Z</time>
      </trkpt>
      <trkpt lat="42.87124" lon="2.41441">
        <ele>582.4</ele>
        <time>2021-08-30T22:55:34.832Z</time>
      </trkpt>
      <trkpt lat="42.87108" lon="2.41444">
        <ele>578.6</ele>
        <time>2021-08-30T22:55:36.193Z</time>
      </trkpt>
      <trkpt lat="42.87078" lon="2.41455">
        <ele>572.7</ele>
        <time>2021-08-30T22:55:38.810Z</time>
      </trkpt>
      <trkpt lat="42.87064" lon="2.41475">
        <ele>571.7</ele>
        <time>2021-08-30T22:55:40.611Z</time>
      </trkpt>
      <trkpt lat="42.87059" lon="2.41489">
        <ele>571.2</ele>
        <time>2021-08-30T22:55:41.676Z</time>
      </trkpt>
      <trkpt lat="42.87039" lon="2.41532">
        <ele>570.2</ele>
        <time>2021-08-30T22:55:45.805Z</time>
      </trkpt>
      <trkpt lat="42.87014" lon="2.41567">
        <ele>566.2</ele>
        <time>2021-08-30T22:55:48.822Z</time>
      </trkpt>
      <trkpt lat="42.86917" lon="2.41656">
        <ele>552.1</ele>
        <time>2021-08-30T22:55:58.670Z</time>
      </trkpt>
      <trkpt lat="42.86905" lon="2.41673">
        <ele>550.5</ele>
        <time>2021-08-30T22:56:00.127Z</time>
      </trkpt>
      <trkpt lat="42.86892" lon="2.41729">
        <ele>549.7</ele>
        <time>2021-08-30T22:56:05.355Z</time>
      </trkpt>
      <trkpt lat="42.86887" lon="2.41765">
        <ele>548.8</ele>
        <time>2021-08-30T22:56:08.124Z</time>
      </trkpt>
      <trkpt lat="42.86888" lon="2.41784">
        <ele>548.8</ele>
        <time>2021-08-30T22:56:10.393Z</time>
      </trkpt>
      <trkpt lat="42.86885" lon="2.41803">
        <ele>547.6</ele>
        <time>2021-08-30T22:56:11.593Z</time>
      </trkpt>
      <trkpt lat="42.86873" lon="2.41814">
        <ele>544.6</ele>
        <time>2021-08-30T22:56:12.811Z</time>
      </trkpt>
      <trkpt lat="42.86856" lon="2.41839">
        <ele>541.1</ele>
        <time>2021-08-30T22:56:14.916Z</time>
      </trkpt>
      <trkpt lat="42.86853" lon="2.41864">
        <ele>541.5</ele>
        <time>2021-08-30T22:56:18.676Z</time>
      </trkpt>
      <trkpt lat="42.86845" lon="2.41899">
        <ele>541.3</ele>
        <time>2021-08-30T22:56:22.439Z</time>
      </trkpt>
      <trkpt lat="42.86837" lon="2.4193">
        <ele>540.3</ele>
        <time>2021-08-30T22:56:24.736Z</time>
      </trkpt>
      <trkpt lat="42.86822" lon="2.41963">
        <ele>536.9</ele>
        <time>2021-08-30T22:56:27.134Z</time>
      </trkpt>
      <trkpt lat="42.86798" lon="2.42043">
        <ele>533.2</ele>
        <time>2021-08-30T22:56:32.350Z</time>
      </trkpt>
      <trkpt lat="42.86788" lon="2.42071">
        <ele>532.2</ele>
        <time>2021-08-30T22:56:34.481Z</time>
      </trkpt>
      <trkpt lat="42.86723" lon="2.42136">
        <ele>525.9</ele>
        <time>2021-08-30T22:56:41.271Z</time>
      </trkpt>
      <trkpt lat="42.86717" lon="2.42146">
        <ele>525.6</ele>
        <time>2021-08-30T22:56:42.266Z</time>
      </trkpt>
      <trkpt lat="42.8671" lon="2.42157">
        <ele>525.4</ele>
        <time>2021-08-30T22:56:43.560Z</time>
      </trkpt>
      <trkpt lat="42.86691" lon="2.42192">
        <ele>524.9</ele>
        <time>2021-08-30T22:56:47.576Z</time>
      </trkpt>
      <trkpt lat="42.86689" lon="2.42195">
        <ele>524.8</ele>
        <time>2021-08-30T22:56:47.882Z</time>
      </trkpt>
      <trkpt lat="42.86679" lon="2.42208">
        <ele>524.5</ele>
        <time>2021-08-30T22:56:49.499Z</time>
      </trkpt>
      <trkpt lat="42.86619" lon="2.42263">
        <ele>519.8</ele>
        <time>2021-08-30T22:56:55.148Z</time>
      </trkpt>
      <trkpt lat="42.86605" lon="2.42279">
        <ele>518.8</ele>
        <time>2021-08-30T22:56:56.698Z</time>
      </trkpt>
      <trkpt lat="42.86542" lon="2.42354">
        <ele>514.7</ele>
        <time>2021-08-30T22:57:04.146Z</time>
      </trkpt>
      <trkpt lat="42.86481" lon="2.42428">
        <ele>508.7</ele>
        <time>2021-08-30T22:57:11.022Z</time>
      </trkpt>
      <trkpt lat="42.86469" lon="2.42458">
        <ele>507.1</ele>
        <time>2021-08-30T22:57:12.998Z</time>
      </trkpt>
      <trkpt lat="42.86461" lon="2.42498">
        <ele>505.9</ele>
        <time>2021-08-30T22:57:15.952Z</time>
      </trkpt>
      <trkpt lat="42.86429" lon="2.4254">
        <ele>502</ele>
        <time>2021-08-30T22:57:19.692Z</time>
      </trkpt>
      <trkpt lat="42.86399" lon="2.42587">
        <ele>499.4</ele>
        <time>2021-08-30T22:57:23.499Z</time>
      </trkpt>
      <trkpt lat="42.86358" lon="2.42637">
        <ele>496.8</ele>
        <time>2021-08-30T22:57:28.475Z</time>
      </trkpt>
      <trkpt lat="42.86355" lon="2.42641">
        <ele>496.6</ele>
        <time>2021-08-30T22:57:28.853Z</time>
      </trkpt>
      <trkpt lat="42.8634" lon="2.42657">
        <ele>495.5</ele>
        <time>2021-08-30T22:57:30.428Z</time>
      </trkpt>
      <trkpt lat="42.86326" lon="2.42683">
        <ele>494.1</ele>
        <time>2021-08-30T22:57:32.363Z</time>
      </trkpt>
      <trkpt lat="42.86323" lon="2.427">
        <ele>493.6</ele>
        <time>2021-08-30T22:57:33.614Z</time>
      </trkpt>
      <trkpt lat="42.86321" lon="2.42718">
        <ele>493.1</ele>
        <time>2021-08-30T22:57:34.937Z</time>
      </trkpt>
      <trkpt lat="42.8632" lon="2.42749">
        <ele>492.6</ele>
        <time>2021-08-30T22:57:37.591Z</time>
      </trkpt>
      <trkpt lat="42.86322" lon="2.42761">
        <ele>492</ele>
        <time>2021-08-30T22:57:38.288Z</time>
      </trkpt>
      <trkpt lat="42.86326" lon="2.42769">
        <ele>491.7</ele>
        <time>2021-08-30T22:57:38.960Z</time>
      </trkpt>
      <trkpt lat="42.86335" lon="2.4278">
        <ele>491.6</ele>
        <time>2021-08-30T22:57:40.633Z</time>
      </trkpt>
      <trkpt lat="42.86361" lon="2.42782">
        <ele>492.9</ele>
        <time>2021-08-30T22:57:48.031Z</time>
      </trkpt>
      <trkpt lat="42.86375" lon="2.42788">
        <ele>493.3</ele>
        <time>2021-08-30T22:57:51.210Z</time>
      </trkpt>
      <trkpt lat="42.8638" lon="2.42795">
        <ele>493.1</ele>
        <time>2021-08-30T22:57:51.992Z</time>
      </trkpt>
      <trkpt lat="42.86382" lon="2.42803">
        <ele>492.6</ele>
        <time>2021-08-30T22:57:52.514Z</time>
      </trkpt>
      <trkpt lat="42.86382" lon="2.42811">
        <ele>492.1</ele>
        <time>2021-08-30T22:57:53.008Z</time>
      </trkpt>
      <trkpt lat="42.86377" lon="2.42827">
        <ele>490.6</ele>
        <time>2021-08-30T22:57:54.082Z</time>
      </trkpt>
      <trkpt lat="42.86373" lon="2.42836">
        <ele>490.2</ele>
        <time>2021-08-30T22:57:54.753Z</time>
      </trkpt>
      <trkpt lat="42.86368" lon="2.42841">
        <ele>490.3</ele>
        <time>2021-08-30T22:57:55.935Z</time>
      </trkpt>
      <trkpt lat="42.86361" lon="2.42846">
        <ele>490.2</ele>
        <time>2021-08-30T22:57:56.968Z</time>
      </trkpt>
      <trkpt lat="42.86322" lon="2.42865">
        <ele>488.1</ele>
        <time>2021-08-30T22:58:00.604Z</time>
      </trkpt>
      <trkpt lat="42.86299" lon="2.42884">
        <ele>486.8</ele>
        <time>2021-08-30T22:58:03.013Z</time>
      </trkpt>
      <trkpt lat="42.86288" lon="2.42894">
        <ele>485.8</ele>
        <time>2021-08-30T22:58:04.127Z</time>
      </trkpt>
      <trkpt lat="42.86281" lon="2.42904">
        <ele>485.1</ele>
        <time>2021-08-30T22:58:04.981Z</time>
      </trkpt>
      <trkpt lat="42.86271" lon="2.42927">
        <ele>483.8</ele>
        <time>2021-08-30T22:58:06.498Z</time>
      </trkpt>
      <trkpt lat="42.86262" lon="2.42967">
        <ele>482.2</ele>
        <time>2021-08-30T22:58:09.157Z</time>
      </trkpt>
      <trkpt lat="42.8626" lon="2.42995">
        <ele>481.5</ele>
        <time>2021-08-30T22:58:11.273Z</time>
      </trkpt>
      <trkpt lat="42.86259" lon="2.43058">
        <ele>481.8</ele>
        <time>2021-08-30T22:58:19.256Z</time>
      </trkpt>
      <trkpt lat="42.86254" lon="2.43142">
        <ele>483</ele>
        <time>2021-08-30T22:58:31.470Z</time>
      </trkpt>
      <trkpt lat="42.86258" lon="2.43191">
        <ele>484.1</ele>
        <time>2021-08-30T22:58:39.614Z</time>
      </trkpt>
      <trkpt lat="42.86256" lon="2.43247">
        <ele>482.5</ele>
        <time>2021-08-30T22:58:43.630Z</time>
      </trkpt>
      <trkpt lat="42.86257" lon="2.43276">
        <ele>482.1</ele>
        <time>2021-08-30T22:58:46.208Z</time>
      </trkpt>
      <trkpt lat="42.86257" lon="2.43281">
        <ele>482</ele>
        <time>2021-08-30T22:58:46.611Z</time>
      </trkpt>
      <trkpt lat="42.86259" lon="2.43311">
        <ele>481.8</ele>
        <time>2021-08-30T22:58:49.636Z</time>
      </trkpt>
      <trkpt lat="42.86255" lon="2.4343">
        <ele>482.5</ele>
        <time>2021-08-30T22:59:04.953Z</time>
      </trkpt>
      <trkpt lat="42.86251" lon="2.43482">
        <ele>482.1</ele>
        <time>2021-08-30T22:59:10.108Z</time>
      </trkpt>
      <trkpt lat="42.86226" lon="2.43571">
        <ele>482.9</ele>
        <time>2021-08-30T22:59:22.794Z</time>
      </trkpt>
      <trkpt lat="42.86216" lon="2.43605">
        <ele>481.4</ele>
        <time>2021-08-30T22:59:25.051Z</time>
      </trkpt>
      <trkpt lat="42.86201" lon="2.43681">
        <ele>477.9</ele>
        <time>2021-08-30T22:59:29.716Z</time>
      </trkpt>
      <trkpt lat="42.86201" lon="2.43684">
        <ele>477.9</ele>
        <time>2021-08-30T22:59:30.073Z</time>
      </trkpt>
      <trkpt lat="42.86196" lon="2.43713">
        <ele>476.3</ele>
        <time>2021-08-30T22:59:31.913Z</time>
      </trkpt>
      <trkpt lat="42.86193" lon="2.43745">
        <ele>474.9</ele>
        <time>2021-08-30T22:59:33.847Z</time>
      </trkpt>
      <trkpt lat="42.86192" lon="2.43768">
        <ele>474.7</ele>
        <time>2021-08-30T22:59:36.077Z</time>
      </trkpt>
      <trkpt lat="42.86193" lon="2.4381">
        <ele>475</ele>
        <time>2021-08-30T22:59:41.574Z</time>
      </trkpt>
      <trkpt lat="42.86199" lon="2.43898">
        <ele>474.7</ele>
        <time>2021-08-30T22:59:51.406Z</time>
      </trkpt>
      <trkpt lat="42.86202" lon="2.43917">
        <ele>474.7</ele>
        <time>2021-08-30T22:59:53.722Z</time>
      </trkpt>
      <trkpt lat="42.86223" lon="2.43985">
        <ele>475.8</ele>
        <time>2021-08-30T23:00:04.526Z</time>
      </trkpt>
      <trkpt lat="42.86226" lon="2.44002">
        <ele>476</ele>
        <time>2021-08-30T23:00:06.956Z</time>
      </trkpt>
      <trkpt lat="42.86225" lon="2.44008">
        <ele>476.2</ele>
        <time>2021-08-30T23:00:08.191Z</time>
      </trkpt>
      <trkpt lat="42.86221" lon="2.44015">
        <ele>476.1</ele>
        <time>2021-08-30T23:00:09.012Z</time>
      </trkpt>
      <trkpt lat="42.86196" lon="2.4405">
        <ele>473.7</ele>
        <time>2021-08-30T23:00:12.030Z</time>
      </trkpt>
      <trkpt lat="42.86181" lon="2.44079">
        <ele>471.8</ele>
        <time>2021-08-30T23:00:14.222Z</time>
      </trkpt>
      <trkpt lat="42.86176" lon="2.44093">
        <ele>471.2</ele>
        <time>2021-08-30T23:00:15.208Z</time>
      </trkpt>
      <trkpt lat="42.86173" lon="2.44108">
        <ele>471</ele>
        <time>2021-08-30T23:00:16.610Z</time>
      </trkpt>
      <trkpt lat="42.86172" lon="2.44124">
        <ele>471.2</ele>
        <time>2021-08-30T23:00:18.875Z</time>
      </trkpt>
      <trkpt lat="42.86168" lon="2.44221">
        <ele>472</ele>
        <time>2021-08-30T23:00:31.778Z</time>
      </trkpt>
      <trkpt lat="42.86165" lon="2.44284">
        <ele>472.2</ele>
        <time>2021-08-30T23:00:39.610Z</time>
      </trkpt>
      <trkpt lat="42.86147" lon="2.44387">
        <ele>471</ele>
        <time>2021-08-30T23:00:49.399Z</time>
      </trkpt>
      <trkpt lat="42.86147" lon="2.44398">
        <ele>471.1</ele>
        <time>2021-08-30T23:00:50.878Z</time>
      </trkpt>
      <trkpt lat="42.86149" lon="2.44407">
        <ele>471.3</ele>
        <time>2021-08-30T23:00:52.404Z</time>
      </trkpt>
      <trkpt lat="42.86152" lon="2.44415">
        <ele>471.6</ele>
        <time>2021-08-30T23:00:54.223Z</time>
      </trkpt>
      <trkpt lat="42.86156" lon="2.44419">
        <ele>472</ele>
        <time>2021-08-30T23:00:55.987Z</time>
      </trkpt>
      <trkpt lat="42.86167" lon="2.44424">
        <ele>473.1</ele>
        <time>2021-08-30T23:01:00.654Z</time>
      </trkpt>
      <trkpt lat="42.86225" lon="2.44417">
        <ele>475.1</ele>
        <time>2021-08-30T23:01:14.463Z</time>
      </trkpt>
      <trkpt lat="42.86234" lon="2.44422">
        <ele>475.6</ele>
        <time>2021-08-30T23:01:17.251Z</time>
      </trkpt>
      <trkpt lat="42.86242" lon="2.44436">
        <ele>476.6</ele>
        <time>2021-08-30T23:01:21.739Z</time>
      </trkpt>
      <trkpt lat="42.86244" lon="2.44445">
        <ele>477.1</ele>
        <time>2021-08-30T23:01:24.037Z</time>
      </trkpt>
      <trkpt lat="42.86242" lon="2.44461">
        <ele>477.7</ele>
        <time>2021-08-30T23:01:27.428Z</time>
      </trkpt>
      <trkpt lat="42.86238" lon="2.4447">
        <ele>477.9</ele>
        <time>2021-08-30T23:01:29.073Z</time>
      </trkpt>
      <trkpt lat="42.86176" lon="2.44538">
        <ele>478.3</ele>
        <time>2021-08-30T23:01:42.627Z</time>
      </trkpt>
      <trkpt lat="42.86166" lon="2.44552">
        <ele>478.9</ele>
        <time>2021-08-30T23:01:46.405Z</time>
      </trkpt>
      <trkpt lat="42.86163" lon="2.44565">
        <ele>479.7</ele>
        <time>2021-08-30T23:01:49.941Z</time>
      </trkpt>
      <trkpt lat="42.86162" lon="2.44577">
        <ele>480.7</ele>
        <time>2021-08-30T23:01:54.224Z</time>
      </trkpt>
      <trkpt lat="42.86164" lon="2.44587">
        <ele>481.6</ele>
        <time>2021-08-30T23:01:58.140Z</time>
      </trkpt>
      <trkpt lat="42.86169" lon="2.44597">
        <ele>482.1</ele>
        <time>2021-08-30T23:02:00.771Z</time>
      </trkpt>
      <trkpt lat="42.86196" lon="2.44627">
        <ele>483.6</ele>
        <time>2021-08-30T23:02:10.120Z</time>
      </trkpt>
      <trkpt lat="42.86235" lon="2.44673">
        <ele>485.2</ele>
        <time>2021-08-30T23:02:21.827Z</time>
      </trkpt>
      <trkpt lat="42.86246" lon="2.44686">
        <ele>485.4</ele>
        <time>2021-08-30T23:02:24.533Z</time>
      </trkpt>
      <trkpt lat="42.86274" lon="2.44717">
        <ele>487.5</ele>
        <time>2021-08-30T23:02:35.367Z</time>
      </trkpt>
      <trkpt lat="42.86287" lon="2.44737">
        <ele>488.4</ele>
        <time>2021-08-30T23:02:40.791Z</time>
      </trkpt>
      <trkpt lat="42.86292" lon="2.44751">
        <ele>488.6</ele>
        <time>2021-08-30T23:02:43.001Z</time>
      </trkpt>
      <trkpt lat="42.86296" lon="2.44768">
        <ele>490.1</ele>
        <time>2021-08-30T23:02:49.451Z</time>
      </trkpt>
      <trkpt lat="42.86312" lon="2.44876">
        <ele>496.7</ele>
        <time>2021-08-30T23:03:18.427Z</time>
      </trkpt>
      <trkpt lat="42.86319" lon="2.4496">
        <ele>499.9</ele>
        <time>2021-08-30T23:03:36.230Z</time>
      </trkpt>
      <trkpt lat="42.86319" lon="2.45023">
        <ele>499.5</ele>
        <time>2021-08-30T23:03:42.590Z</time>
      </trkpt>
      <trkpt lat="42.86318" lon="2.45043">
        <ele>498.2</ele>
        <time>2021-08-30T23:03:43.828Z</time>
      </trkpt>
      <trkpt lat="42.86315" lon="2.45057">
        <ele>497.4</ele>
        <time>2021-08-30T23:03:44.729Z</time>
      </trkpt>
      <trkpt lat="42.86307" lon="2.4507">
        <ele>497.2</ele>
        <time>2021-08-30T23:03:46.286Z</time>
      </trkpt>
      <trkpt lat="42.86236" lon="2.45167">
        <ele>489.3</ele>
        <time>2021-08-30T23:03:54.751Z</time>
      </trkpt>
      <trkpt lat="42.86205" lon="2.45213">
        <ele>489.7</ele>
        <time>2021-08-30T23:04:02.843Z</time>
      </trkpt>
      <trkpt lat="42.862" lon="2.45231">
        <ele>489.1</ele>
        <time>2021-08-30T23:04:04.176Z</time>
      </trkpt>
      <trkpt lat="42.86199" lon="2.45251">
        <ele>487.4</ele>
        <time>2021-08-30T23:04:05.414Z</time>
      </trkpt>
      <trkpt lat="42.86213" lon="2.45317">
        <ele>480</ele>
        <time>2021-08-30T23:04:09.657Z</time>
      </trkpt>
      <trkpt lat="42.86213" lon="2.45336">
        <ele>478.9</ele>
        <time>2021-08-30T23:04:10.830Z</time>
      </trkpt>
      <trkpt lat="42.86207" lon="2.45405">
        <ele>475.7</ele>
        <time>2021-08-30T23:04:14.878Z</time>
      </trkpt>
      <trkpt lat="42.86207" lon="2.45421">
        <ele>474.8</ele>
        <time>2021-08-30T23:04:15.866Z</time>
      </trkpt>
      <trkpt lat="42.86209" lon="2.45439">
        <ele>473.9</ele>
        <time>2021-08-30T23:04:16.991Z</time>
      </trkpt>
      <trkpt lat="42.86212" lon="2.45449">
        <ele>472.9</ele>
        <time>2021-08-30T23:04:17.658Z</time>
      </trkpt>
      <trkpt lat="42.86221" lon="2.45468">
        <ele>470.1</ele>
        <time>2021-08-30T23:04:19.055Z</time>
      </trkpt>
      <trkpt lat="42.86225" lon="2.45479">
        <ele>468.8</ele>
        <time>2021-08-30T23:04:19.813Z</time>
      </trkpt>
      <trkpt lat="42.86226" lon="2.45491">
        <ele>468.4</ele>
        <time>2021-08-30T23:04:20.629Z</time>
      </trkpt>
      <trkpt lat="42.86227" lon="2.45534">
        <ele>467.7</ele>
        <time>2021-08-30T23:04:24.300Z</time>
      </trkpt>
      <trkpt lat="42.86232" lon="2.45562">
        <ele>466</ele>
        <time>2021-08-30T23:04:26.080Z</time>
      </trkpt>
      <trkpt lat="42.86237" lon="2.45604">
        <ele>463</ele>
        <time>2021-08-30T23:04:28.707Z</time>
      </trkpt>
      <trkpt lat="42.86235" lon="2.45638">
        <ele>461.2</ele>
        <time>2021-08-30T23:04:30.814Z</time>
      </trkpt>
      <trkpt lat="42.86229" lon="2.45672">
        <ele>460.2</ele>
        <time>2021-08-30T23:04:33.317Z</time>
      </trkpt>
      <trkpt lat="42.86182" lon="2.45805">
        <ele>454.7</ele>
        <time>2021-08-30T23:04:42.810Z</time>
      </trkpt>
      <trkpt lat="42.86173" lon="2.45828">
        <ele>452.5</ele>
        <time>2021-08-30T23:04:44.420Z</time>
      </trkpt>
      <trkpt lat="42.8617" lon="2.45853">
        <ele>451</ele>
        <time>2021-08-30T23:04:45.984Z</time>
      </trkpt>
      <trkpt lat="42.8617" lon="2.45879">
        <ele>449.8</ele>
        <time>2021-08-30T23:04:47.497Z</time>
      </trkpt>
      <trkpt lat="42.86173" lon="2.45913">
        <ele>448.2</ele>
        <time>2021-08-30T23:04:49.478Z</time>
      </trkpt>
      <trkpt lat="42.86176" lon="2.45929">
        <ele>448</ele>
        <time>2021-08-30T23:04:50.986Z</time>
      </trkpt>
      <trkpt lat="42.86178" lon="2.45935">
        <ele>448</ele>
        <time>2021-08-30T23:04:51.771Z</time>
      </trkpt>
      <trkpt lat="42.86181" lon="2.45946">
        <ele>448.1</ele>
        <time>2021-08-30T23:04:53.336Z</time>
      </trkpt>
      <trkpt lat="42.86182" lon="2.45952">
        <ele>448.1</ele>
        <time>2021-08-30T23:04:54.069Z</time>
      </trkpt>
      <trkpt lat="42.86183" lon="2.45961">
        <ele>448.1</ele>
        <time>2021-08-30T23:04:55.153Z</time>
      </trkpt>
      <trkpt lat="42.86186" lon="2.45974">
        <ele>448.2</ele>
        <time>2021-08-30T23:04:56.941Z</time>
      </trkpt>
      <trkpt lat="42.86192" lon="2.46005">
        <ele>448.6</ele>
        <time>2021-08-30T23:05:01.467Z</time>
      </trkpt>
      <trkpt lat="42.86163" lon="2.46011">
        <ele>448.6</ele>
        <time>2021-08-30T23:05:06.234Z</time>
      </trkpt>
      <trkpt lat="42.86149" lon="2.46016">
        <ele>448.7</ele>
        <time>2021-08-30T23:05:08.745Z</time>
      </trkpt>
      <trkpt lat="42.8614" lon="2.46017">
        <ele>448.6</ele>
        <time>2021-08-30T23:05:09.950Z</time>
      </trkpt>
      <trkpt lat="42.86138" lon="2.46017">
        <ele>448.5</ele>
        <time>2021-08-30T23:05:10.126Z</time>
      </trkpt>
      <trkpt lat="42.86095" lon="2.46019">
        <ele>447.9</ele>
        <time>2021-08-30T23:05:15.657Z</time>
      </trkpt>
      <trkpt lat="42.86083" lon="2.46016">
        <ele>447.6</ele>
        <time>2021-08-30T23:05:17.039Z</time>
      </trkpt>
      <trkpt lat="42.86081" lon="2.46016">
        <ele>447.6</ele>
        <time>2021-08-30T23:05:17.364Z</time>
      </trkpt>
      <trkpt lat="42.86069" lon="2.46016">
        <ele>447.6</ele>
        <time>2021-08-30T23:05:19.315Z</time>
      </trkpt>
      <trkpt lat="42.86061" lon="2.46018">
        <ele>447.7</ele>
        <time>2021-08-30T23:05:20.805Z</time>
      </trkpt>
      <trkpt lat="42.86054" lon="2.4603">
        <ele>448.1</ele>
        <time>2021-08-30T23:05:23.515Z</time>
      </trkpt>
      <trkpt lat="42.86051" lon="2.46036">
        <ele>448.2</ele>
        <time>2021-08-30T23:05:24.560Z</time>
      </trkpt>
      <trkpt lat="42.86047" lon="2.46045">
        <ele>448.3</ele>
        <time>2021-08-30T23:05:25.983Z</time>
      </trkpt>
      <trkpt lat="42.86044" lon="2.4605">
        <ele>448.4</ele>
        <time>2021-08-30T23:05:26.938Z</time>
      </trkpt>
      <trkpt lat="42.86037" lon="2.46056">
        <ele>448.5</ele>
        <time>2021-08-30T23:05:28.449Z</time>
      </trkpt>
      <trkpt lat="42.85984" lon="2.46064">
        <ele>448.1</ele>
        <time>2021-08-30T23:05:35.910Z</time>
      </trkpt>
      <trkpt lat="42.85959" lon="2.46075">
        <ele>447.6</ele>
        <time>2021-08-30T23:05:39.083Z</time>
      </trkpt>
      <trkpt lat="42.85938" lon="2.46086">
        <ele>446.8</ele>
        <time>2021-08-30T23:05:41.355Z</time>
      </trkpt>
      <trkpt lat="42.85924" lon="2.46094">
        <ele>447.1</ele>
        <time>2021-08-30T23:05:44.367Z</time>
      </trkpt>
      <trkpt lat="42.85916" lon="2.461">
        <ele>447.4</ele>
        <time>2021-08-30T23:05:46.490Z</time>
      </trkpt>
      <trkpt lat="42.8588" lon="2.46134">
        <ele>446.6</ele>
        <time>2021-08-30T23:05:51.827Z</time>
      </trkpt>
      <trkpt lat="42.85838" lon="2.4617">
        <ele>441.3</ele>
        <time>2021-08-30T23:05:56.006Z</time>
      </trkpt>
      <trkpt lat="42.85814" lon="2.46182">
        <ele>442.7</ele>
        <time>2021-08-30T23:06:03.505Z</time>
      </trkpt>
      <trkpt lat="42.85789" lon="2.46191">
        <ele>443.9</ele>
        <time>2021-08-30T23:06:10.685Z</time>
      </trkpt>
      <trkpt lat="42.85777" lon="2.46195">
        <ele>444.3</ele>
        <time>2021-08-30T23:06:13.539Z</time>
      </trkpt>
      <trkpt lat="42.85763" lon="2.46199">
        <ele>444.5</ele>
        <time>2021-08-30T23:06:16.205Z</time>
      </trkpt>
      <trkpt lat="42.85745" lon="2.46205">
        <ele>444.6</ele>
        <time>2021-08-30T23:06:19.374Z</time>
      </trkpt>
      <trkpt lat="42.85729" lon="2.46215">
        <ele>444.4</ele>
        <time>2021-08-30T23:06:21.712Z</time>
      </trkpt>
      <trkpt lat="42.85707" lon="2.46238">
        <ele>442.3</ele>
        <time>2021-08-30T23:06:24.047Z</time>
      </trkpt>
      <trkpt lat="42.85689" lon="2.46265">
        <ele>440.7</ele>
        <time>2021-08-30T23:06:26.225Z</time>
      </trkpt>
      <trkpt lat="42.85659" lon="2.46328">
        <ele>438.5</ele>
        <time>2021-08-30T23:06:31.555Z</time>
      </trkpt>
      <trkpt lat="42.85628" lon="2.4639">
        <ele>435.6</ele>
        <time>2021-08-30T23:06:36.303Z</time>
      </trkpt>
      <trkpt lat="42.85603" lon="2.46434">
        <ele>433.8</ele>
        <time>2021-08-30T23:06:40.102Z</time>
      </trkpt>
      <trkpt lat="42.85583" lon="2.46453">
        <ele>433.7</ele>
        <time>2021-08-30T23:06:43.829Z</time>
      </trkpt>
      <trkpt lat="42.85572" lon="2.46458">
        <ele>433.9</ele>
        <time>2021-08-30T23:06:46.068Z</time>
      </trkpt>
      <trkpt lat="42.85553" lon="2.46458">
        <ele>433</ele>
        <time>2021-08-30T23:06:47.785Z</time>
      </trkpt>
      <trkpt lat="42.85536" lon="2.46469">
        <ele>432.9</ele>
        <time>2021-08-30T23:06:50.613Z</time>
      </trkpt>
      <trkpt lat="42.85483" lon="2.46518">
        <ele>431.7</ele>
        <time>2021-08-30T23:06:58.373Z</time>
      </trkpt>
      <trkpt lat="42.85452" lon="2.46558">
        <ele>431.3</ele>
        <time>2021-08-30T23:07:04.195Z</time>
      </trkpt>
      <trkpt lat="42.85382" lon="2.46636">
        <ele>426.4</ele>
        <time>2021-08-30T23:07:11.897Z</time>
      </trkpt>
      <trkpt lat="42.85374" lon="2.46642">
        <ele>425.8</ele>
        <time>2021-08-30T23:07:12.607Z</time>
      </trkpt>
      <trkpt lat="42.85362" lon="2.46645">
        <ele>424.2</ele>
        <time>2021-08-30T23:07:13.635Z</time>
      </trkpt>
      <trkpt lat="42.85336" lon="2.46644">
        <ele>420.1</ele>
        <time>2021-08-30T23:07:15.826Z</time>
      </trkpt>
      <trkpt lat="42.85327" lon="2.46646">
        <ele>419.8</ele>
        <time>2021-08-30T23:07:16.772Z</time>
      </trkpt>
      <trkpt lat="42.85321" lon="2.46651">
        <ele>420</ele>
        <time>2021-08-30T23:07:18.317Z</time>
      </trkpt>
      <trkpt lat="42.85315" lon="2.46659">
        <ele>420.3</ele>
        <time>2021-08-30T23:07:20.345Z</time>
      </trkpt>
      <trkpt lat="42.85307" lon="2.4668">
        <ele>421.9</ele>
        <time>2021-08-30T23:07:27.162Z</time>
      </trkpt>
      <trkpt lat="42.85301" lon="2.46702">
        <ele>423.8</ele>
        <time>2021-08-30T23:07:35.257Z</time>
      </trkpt>
      <trkpt lat="42.85262" lon="2.46901">
        <ele>421.4</ele>
        <time>2021-08-30T23:07:54.203Z</time>
      </trkpt>
      <trkpt lat="42.85256" lon="2.46945">
        <ele>418.7</ele>
        <time>2021-08-30T23:07:56.967Z</time>
      </trkpt>
      <trkpt lat="42.85246" lon="2.46999">
        <ele>415.8</ele>
        <time>2021-08-30T23:08:00.407Z</time>
      </trkpt>
      <trkpt lat="42.85241" lon="2.47012">
        <ele>418.4</ele>
        <time>2021-08-30T23:08:07.154Z</time>
      </trkpt>
      <trkpt lat="42.85231" lon="2.47022">
        <ele>420.4</ele>
        <time>2021-08-30T23:08:14.928Z</time>
      </trkpt>
      <trkpt lat="42.85206" lon="2.47036">
        <ele>423.2</ele>
        <time>2021-08-30T23:08:26.767Z</time>
      </trkpt>
      <trkpt lat="42.8518" lon="2.47039">
        <ele>423.5</ele>
        <time>2021-08-30T23:08:31.507Z</time>
      </trkpt>
      <trkpt lat="42.85166" lon="2.47036">
        <ele>422.4</ele>
        <time>2021-08-30T23:08:32.701Z</time>
      </trkpt>
      <trkpt lat="42.85153" lon="2.47038">
        <ele>424.3</ele>
        <time>2021-08-30T23:08:40.903Z</time>
      </trkpt>
      <trkpt lat="42.85144" lon="2.47043">
        <ele>426.7</ele>
        <time>2021-08-30T23:08:46.995Z</time>
      </trkpt>
      <trkpt lat="42.85125" lon="2.47046">
        <ele>429.5</ele>
        <time>2021-08-30T23:08:58.987Z</time>
      </trkpt>
      <trkpt lat="42.85113" lon="2.47045">
        <ele>430.5</ele>
        <time>2021-08-30T23:09:03.353Z</time>
      </trkpt>
      <trkpt lat="42.85092" lon="2.47037">
        <ele>430.2</ele>
        <time>2021-08-30T23:09:06.162Z</time>
      </trkpt>
      <trkpt lat="42.85081" lon="2.47025">
        <ele>427.6</ele>
        <time>2021-08-30T23:09:07.349Z</time>
      </trkpt>
      <trkpt lat="42.85069" lon="2.47016">
        <ele>425.9</ele>
        <time>2021-08-30T23:09:08.502Z</time>
      </trkpt>
      <trkpt lat="42.85057" lon="2.47017">
        <ele>427</ele>
        <time>2021-08-30T23:09:13.195Z</time>
      </trkpt>
      <trkpt lat="42.84991" lon="2.47057">
        <ele>429.6</ele>
        <time>2021-08-30T23:09:30.709Z</time>
      </trkpt>
      <trkpt lat="42.84934" lon="2.47128">
        <ele>422.9</ele>
        <time>2021-08-30T23:09:37.212Z</time>
      </trkpt>
      <trkpt lat="42.84923" lon="2.47136">
        <ele>420.6</ele>
        <time>2021-08-30T23:09:38.263Z</time>
      </trkpt>
      <trkpt lat="42.84914" lon="2.47138">
        <ele>419.6</ele>
        <time>2021-08-30T23:09:39.031Z</time>
      </trkpt>
      <trkpt lat="42.849" lon="2.47135">
        <ele>422.5</ele>
        <time>2021-08-30T23:09:47.916Z</time>
      </trkpt>
      <trkpt lat="42.84873" lon="2.47121">
        <ele>425.4</ele>
        <time>2021-08-30T23:10:00.172Z</time>
      </trkpt>
      <trkpt lat="42.84827" lon="2.47095">
        <ele>426.2</ele>
        <time>2021-08-30T23:10:09.662Z</time>
      </trkpt>
      <trkpt lat="42.8481" lon="2.47083">
        <ele>430.7</ele>
        <time>2021-08-30T23:10:21.663Z</time>
      </trkpt>
      <trkpt lat="42.84802" lon="2.47068">
        <ele>432.5</ele>
        <time>2021-08-30T23:10:30.058Z</time>
      </trkpt>
      <trkpt lat="42.848" lon="2.47048">
        <ele>430.5</ele>
        <time>2021-08-30T23:10:31.305Z</time>
      </trkpt>
      <trkpt lat="42.84799" lon="2.47013">
        <ele>425.5</ele>
        <time>2021-08-30T23:10:33.468Z</time>
      </trkpt>
      <trkpt lat="42.84809" lon="2.46957">
        <ele>416.3</ele>
        <time>2021-08-30T23:10:37.028Z</time>
      </trkpt>
      <trkpt lat="42.84815" lon="2.46918">
        <ele>412.1</ele>
        <time>2021-08-30T23:10:39.490Z</time>
      </trkpt>
      <trkpt lat="42.84815" lon="2.46905">
        <ele>412.8</ele>
        <time>2021-08-30T23:10:42.690Z</time>
      </trkpt>
      <trkpt lat="42.84811" lon="2.46889">
        <ele>413.8</ele>
        <time>2021-08-30T23:10:47.099Z</time>
      </trkpt>
      <trkpt lat="42.84773" lon="2.46831">
        <ele>410.1</ele>
        <time>2021-08-30T23:10:51.561Z</time>
      </trkpt>
      <trkpt lat="42.84763" lon="2.46806">
        <ele>415.7</ele>
        <time>2021-08-30T23:11:04.651Z</time>
      </trkpt>
      <trkpt lat="42.84759" lon="2.46802">
        <ele>416.2</ele>
        <time>2021-08-30T23:11:06.764Z</time>
      </trkpt>
      <trkpt lat="42.84754" lon="2.46804">
        <ele>414.6</ele>
        <time>2021-08-30T23:11:07.203Z</time>
      </trkpt>
      <trkpt lat="42.8474" lon="2.46821">
        <ele>413.4</ele>
        <time>2021-08-30T23:11:08.679Z</time>
      </trkpt>
      <trkpt lat="42.84735" lon="2.46836">
        <ele>411.9</ele>
        <time>2021-08-30T23:11:09.697Z</time>
      </trkpt>
      <trkpt lat="42.84729" lon="2.46864">
        <ele>415.7</ele>
        <time>2021-08-30T23:11:23.106Z</time>
      </trkpt>
      <trkpt lat="42.84713" lon="2.46889">
        <ele>418.6</ele>
        <time>2021-08-30T23:11:35.755Z</time>
      </trkpt>
      <trkpt lat="42.84706" lon="2.4691">
        <ele>417.5</ele>
        <time>2021-08-30T23:11:37.077Z</time>
      </trkpt>
      <trkpt lat="42.84696" lon="2.46925">
        <ele>416.8</ele>
        <time>2021-08-30T23:11:38.424Z</time>
      </trkpt>
      <trkpt lat="42.84679" lon="2.46944">
        <ele>414.9</ele>
        <time>2021-08-30T23:11:40.276Z</time>
      </trkpt>
      <trkpt lat="42.84638" lon="2.46978">
        <ele>413.9</ele>
        <time>2021-08-30T23:11:45.950Z</time>
      </trkpt>
      <trkpt lat="42.84629" lon="2.4699">
        <ele>413</ele>
        <time>2021-08-30T23:11:47.010Z</time>
      </trkpt>
      <trkpt lat="42.84621" lon="2.47003">
        <ele>411.7</ele>
        <time>2021-08-30T23:11:48.058Z</time>
      </trkpt>
      <trkpt lat="42.84618" lon="2.47017">
        <ele>411.6</ele>
        <time>2021-08-30T23:11:49.518Z</time>
      </trkpt>
      <trkpt lat="42.84621" lon="2.47103">
        <ele>408.5</ele>
        <time>2021-08-30T23:11:55.137Z</time>
      </trkpt>
      <trkpt lat="42.84624" lon="2.47125">
        <ele>406.6</ele>
        <time>2021-08-30T23:11:56.520Z</time>
      </trkpt>
      <trkpt lat="42.84624" lon="2.47136">
        <ele>405.5</ele>
        <time>2021-08-30T23:11:57.199Z</time>
      </trkpt>
      <trkpt lat="42.8462" lon="2.47163">
        <ele>402.2</ele>
        <time>2021-08-30T23:11:58.900Z</time>
      </trkpt>
      <trkpt lat="42.8462" lon="2.47178">
        <ele>401.9</ele>
        <time>2021-08-30T23:12:00.110Z</time>
      </trkpt>
      <trkpt lat="42.84624" lon="2.47189">
        <ele>402.2</ele>
        <time>2021-08-30T23:12:02.217Z</time>
      </trkpt>
      <trkpt lat="42.84637" lon="2.47212">
        <ele>401.2</ele>
        <time>2021-08-30T23:12:04.148Z</time>
      </trkpt>
      <trkpt lat="42.84654" lon="2.47225">
        <ele>398.3</ele>
        <time>2021-08-30T23:12:05.790Z</time>
      </trkpt>
      <trkpt lat="42.84659" lon="2.47231">
        <ele>396.8</ele>
        <time>2021-08-30T23:12:06.351Z</time>
      </trkpt>
      <trkpt lat="42.84666" lon="2.47253">
        <ele>391.9</ele>
        <time>2021-08-30T23:12:07.833Z</time>
      </trkpt>
      <trkpt lat="42.84679" lon="2.47295">
        <ele>394.1</ele>
        <time>2021-08-30T23:12:18.431Z</time>
      </trkpt>
      <trkpt lat="42.84683" lon="2.47316">
        <ele>394.1</ele>
        <time>2021-08-30T23:12:21.016Z</time>
      </trkpt>
      <trkpt lat="42.84683" lon="2.47375">
        <ele>392.8</ele>
        <time>2021-08-30T23:12:25.637Z</time>
      </trkpt>
      <trkpt lat="42.84683" lon="2.47431">
        <ele>393.9</ele>
        <time>2021-08-30T23:12:34.481Z</time>
      </trkpt>
      <trkpt lat="42.84683" lon="2.47473">
        <ele>395.8</ele>
        <time>2021-08-30T23:12:43.959Z</time>
      </trkpt>
      <trkpt lat="42.84681" lon="2.47483">
        <ele>395.1</ele>
        <time>2021-08-30T23:12:44.600Z</time>
      </trkpt>
      <trkpt lat="42.84649" lon="2.47527">
        <ele>394.8</ele>
        <time>2021-08-30T23:12:51.307Z</time>
      </trkpt>
      <trkpt lat="42.84638" lon="2.4754">
        <ele>397.5</ele>
        <time>2021-08-30T23:13:00.432Z</time>
      </trkpt>
      <trkpt lat="42.84632" lon="2.47551">
        <ele>398.3</ele>
        <time>2021-08-30T23:13:03.976Z</time>
      </trkpt>
      <trkpt lat="42.84629" lon="2.47571">
        <ele>398</ele>
        <time>2021-08-30T23:13:05.762Z</time>
      </trkpt>
      <trkpt lat="42.84628" lon="2.4759">
        <ele>397.7</ele>
        <time>2021-08-30T23:13:07.401Z</time>
      </trkpt>
      <trkpt lat="42.84631" lon="2.47665">
        <ele>399.5</ele>
        <time>2021-08-30T23:13:20.178Z</time>
      </trkpt>
      <trkpt lat="42.84612" lon="2.4773">
        <ele>387.4</ele>
        <time>2021-08-30T23:13:24.500Z</time>
      </trkpt>
      <trkpt lat="42.84608" lon="2.47742">
        <ele>384.6</ele>
        <time>2021-08-30T23:13:25.314Z</time>
      </trkpt>
      <trkpt lat="42.84602" lon="2.47751">
        <ele>381.8</ele>
        <time>2021-08-30T23:13:26.065Z</time>
      </trkpt>
      <trkpt lat="42.8459" lon="2.47773">
        <ele>383.3</ele>
        <time>2021-08-30T23:13:32.878Z</time>
      </trkpt>
      <trkpt lat="42.84561" lon="2.4781">
        <ele>387.1</ele>
        <time>2021-08-30T23:13:48.986Z</time>
      </trkpt>
      <trkpt lat="42.84551" lon="2.47818">
        <ele>386.3</ele>
        <time>2021-08-30T23:13:49.963Z</time>
      </trkpt>
      <trkpt lat="42.84544" lon="2.4782">
        <ele>385.1</ele>
        <time>2021-08-30T23:13:50.566Z</time>
      </trkpt>
      <trkpt lat="42.84528" lon="2.47818">
        <ele>382.6</ele>
        <time>2021-08-30T23:13:51.919Z</time>
      </trkpt>
      <trkpt lat="42.84515" lon="2.47829">
        <ele>378.5</ele>
        <time>2021-08-30T23:13:53.208Z</time>
      </trkpt>
      <trkpt lat="42.84501" lon="2.47845">
        <ele>378.9</ele>
        <time>2021-08-30T23:13:56.922Z</time>
      </trkpt>
      <trkpt lat="42.84496" lon="2.47854">
        <ele>381.9</ele>
        <time>2021-08-30T23:14:02.112Z</time>
      </trkpt>
      <trkpt lat="42.84496" lon="2.47854">
        <ele>381.9</ele>
        <time>2021-08-30T23:14:02.112Z</time>
      </trkpt>
      <trkpt lat="42.84474" lon="2.47856">
        <ele>381.5</ele>
        <time>2021-08-30T23:14:04.804Z</time>
      </trkpt>
      <trkpt lat="42.84459" lon="2.47845">
        <ele>375.5</ele>
        <time>2021-08-30T23:14:06.239Z</time>
      </trkpt>
      <trkpt lat="42.84446" lon="2.47845">
        <ele>374.5</ele>
        <time>2021-08-30T23:14:07.334Z</time>
      </trkpt>
      <trkpt lat="42.84437" lon="2.47846">
        <ele>374.3</ele>
        <time>2021-08-30T23:14:08.386Z</time>
      </trkpt>
      <trkpt lat="42.84426" lon="2.47855">
        <ele>378.2</ele>
        <time>2021-08-30T23:14:16.428Z</time>
      </trkpt>
      <trkpt lat="42.84412" lon="2.47878">
        <ele>389.6</ele>
        <time>2021-08-30T23:14:30.169Z</time>
      </trkpt>
      <trkpt lat="42.84399" lon="2.47889">
        <ele>392.8</ele>
        <time>2021-08-30T23:14:39.760Z</time>
      </trkpt>
      <trkpt lat="42.84396" lon="2.47894">
        <ele>394.3</ele>
        <time>2021-08-30T23:14:42.730Z</time>
      </trkpt>
      <trkpt lat="42.84392" lon="2.47909">
        <ele>399.2</ele>
        <time>2021-08-30T23:14:50.067Z</time>
      </trkpt>
      <trkpt lat="42.84388" lon="2.47914">
        <ele>399.7</ele>
        <time>2021-08-30T23:14:52.197Z</time>
      </trkpt>
      <trkpt lat="42.84374" lon="2.47921">
        <ele>400.3</ele>
        <time>2021-08-30T23:14:56.036Z</time>
      </trkpt>
      <trkpt lat="42.84368" lon="2.47931">
        <ele>409.2</ele>
        <time>2021-08-30T23:15:01.975Z</time>
      </trkpt>
      <trkpt lat="42.84356" lon="2.47959">
        <ele>437.3</ele>
        <time>2021-08-30T23:15:16.884Z</time>
      </trkpt>
      <trkpt lat="42.84345" lon="2.47983">
        <ele>463</ele>
        <time>2021-08-30T23:15:29.894Z</time>
      </trkpt>
      <trkpt lat="42.84341" lon="2.47987">
        <ele>467.2</ele>
        <time>2021-08-30T23:15:33.004Z</time>
      </trkpt>
      <trkpt lat="42.84338" lon="2.47988">
        <ele>468</ele>
        <time>2021-08-30T23:15:34.940Z</time>
      </trkpt>
      <trkpt lat="42.84315" lon="2.47985">
        <ele>463.2</ele>
        <time>2021-08-30T23:15:36.886Z</time>
      </trkpt>
      <trkpt lat="42.84303" lon="2.4799">
        <ele>467.4</ele>
        <time>2021-08-30T23:15:44.753Z</time>
      </trkpt>
      <trkpt lat="42.84292" lon="2.47989">
        <ele>465.7</ele>
        <time>2021-08-30T23:15:45.682Z</time>
      </trkpt>
      <trkpt lat="42.84271" lon="2.47981">
        <ele>459.3</ele>
        <time>2021-08-30T23:15:47.518Z</time>
      </trkpt>
      <trkpt lat="42.84267" lon="2.47984">
        <ele>461.1</ele>
        <time>2021-08-30T23:15:50.380Z</time>
      </trkpt>
      <trkpt lat="42.84264" lon="2.47993">
        <ele>465.8</ele>
        <time>2021-08-30T23:15:54.925Z</time>
      </trkpt>
      <trkpt lat="42.8426" lon="2.47999">
        <ele>468.3</ele>
        <time>2021-08-30T23:15:58.653Z</time>
      </trkpt>
      <trkpt lat="42.84252" lon="2.47997">
        <ele>466.1</ele>
        <time>2021-08-30T23:15:59.338Z</time>
      </trkpt>
      <trkpt lat="42.84227" lon="2.47986">
        <ele>461.5</ele>
        <time>2021-08-30T23:16:01.551Z</time>
      </trkpt>
      <trkpt lat="42.84212" lon="2.47983">
        <ele>460.5</ele>
        <time>2021-08-30T23:16:02.727Z</time>
      </trkpt>
      <trkpt lat="42.84195" lon="2.47986">
        <ele>461.6</ele>
        <time>2021-08-30T23:16:08.098Z</time>
      </trkpt>
      <trkpt lat="42.84187" lon="2.4799">
        <ele>462.9</ele>
        <time>2021-08-30T23:16:13.440Z</time>
      </trkpt>
      <trkpt lat="42.84177" lon="2.47989">
        <ele>462.6</ele>
        <time>2021-08-30T23:16:14.512Z</time>
      </trkpt>
      <trkpt lat="42.84153" lon="2.47979">
        <ele>459.6</ele>
        <time>2021-08-30T23:16:16.626Z</time>
      </trkpt>
      <trkpt lat="42.84136" lon="2.47967">
        <ele>455.6</ele>
        <time>2021-08-30T23:16:18.239Z</time>
      </trkpt>
      <trkpt lat="42.8412" lon="2.47949">
        <ele>449</ele>
        <time>2021-08-30T23:16:19.986Z</time>
      </trkpt>
      <trkpt lat="42.8411" lon="2.47931">
        <ele>442</ele>
        <time>2021-08-30T23:16:21.381Z</time>
      </trkpt>
      <trkpt lat="42.84105" lon="2.47927">
        <ele>440.3</ele>
        <time>2021-08-30T23:16:21.870Z</time>
      </trkpt>
      <trkpt lat="42.84094" lon="2.47925">
        <ele>438.9</ele>
        <time>2021-08-30T23:16:22.805Z</time>
      </trkpt>
      <trkpt lat="42.84081" lon="2.47932">
        <ele>440.8</ele>
        <time>2021-08-30T23:16:31.567Z</time>
      </trkpt>
      <trkpt lat="42.84063" lon="2.47934">
        <ele>437.9</ele>
        <time>2021-08-30T23:16:33.089Z</time>
      </trkpt>
      <trkpt lat="42.84046" lon="2.47919">
        <ele>429.9</ele>
        <time>2021-08-30T23:16:34.794Z</time>
      </trkpt>
      <trkpt lat="42.84043" lon="2.47921">
        <ele>430</ele>
        <time>2021-08-30T23:16:35.542Z</time>
      </trkpt>
      <trkpt lat="42.8404" lon="2.47933">
        <ele>433</ele>
        <time>2021-08-30T23:16:41.370Z</time>
      </trkpt>
      <trkpt lat="42.84036" lon="2.47939">
        <ele>433.8</ele>
        <time>2021-08-30T23:16:45.098Z</time>
      </trkpt>
      <trkpt lat="42.84019" lon="2.47943">
        <ele>431.1</ele>
        <time>2021-08-30T23:16:46.552Z</time>
      </trkpt>
      <trkpt lat="42.84009" lon="2.47949">
        <ele>430</ele>
        <time>2021-08-30T23:16:47.472Z</time>
      </trkpt>
      <trkpt lat="42.84" lon="2.47945">
        <ele>427.1</ele>
        <time>2021-08-30T23:16:48.269Z</time>
      </trkpt>
      <trkpt lat="42.83994" lon="2.47945">
        <ele>425.7</ele>
        <time>2021-08-30T23:16:48.775Z</time>
      </trkpt>
      <trkpt lat="42.83985" lon="2.47956">
        <ele>425.3</ele>
        <time>2021-08-30T23:16:50.026Z</time>
      </trkpt>
      <trkpt lat="42.83976" lon="2.47957">
        <ele>423.1</ele>
        <time>2021-08-30T23:16:50.787Z</time>
      </trkpt>
      <trkpt lat="42.83965" lon="2.47963">
        <ele>421.1</ele>
        <time>2021-08-30T23:16:51.785Z</time>
      </trkpt>
      <trkpt lat="42.83953" lon="2.47962">
        <ele>417.8</ele>
        <time>2021-08-30T23:16:52.798Z</time>
      </trkpt>
      <trkpt lat="42.83938" lon="2.47979">
        <ele>415.2</ele>
        <time>2021-08-30T23:16:54.441Z</time>
      </trkpt>
      <trkpt lat="42.83909" lon="2.47991">
        <ele>408.3</ele>
        <time>2021-08-30T23:16:56.994Z</time>
      </trkpt>
      <trkpt lat="42.83906" lon="2.47989">
        <ele>407.8</ele>
        <time>2021-08-30T23:16:57.275Z</time>
      </trkpt>
      <trkpt lat="42.83901" lon="2.47974">
        <ele>407.3</ele>
        <time>2021-08-30T23:16:58.429Z</time>
      </trkpt>
      <trkpt lat="42.83897" lon="2.47971">
        <ele>407.1</ele>
        <time>2021-08-30T23:16:58.855Z</time>
      </trkpt>
      <trkpt lat="42.83887" lon="2.47972">
        <ele>406.2</ele>
        <time>2021-08-30T23:16:59.699Z</time>
      </trkpt>
      <trkpt lat="42.83874" lon="2.47978">
        <ele>404.3</ele>
        <time>2021-08-30T23:17:00.856Z</time>
      </trkpt>
      <trkpt lat="42.83856" lon="2.47979">
        <ele>402.1</ele>
        <time>2021-08-30T23:17:02.373Z</time>
      </trkpt>
      <trkpt lat="42.83848" lon="2.47983">
        <ele>400.2</ele>
        <time>2021-08-30T23:17:03.091Z</time>
      </trkpt>
      <trkpt lat="42.83845" lon="2.47998">
        <ele>395.9</ele>
        <time>2021-08-30T23:17:04.052Z</time>
      </trkpt>
      <trkpt lat="42.83838" lon="2.48007">
        <ele>394.5</ele>
        <time>2021-08-30T23:17:04.862Z</time>
      </trkpt>
      <trkpt lat="42.83832" lon="2.48029">
        <ele>394.2</ele>
        <time>2021-08-30T23:17:06.981Z</time>
      </trkpt>
      <trkpt lat="42.83832" lon="2.48042">
        <ele>394.9</ele>
        <time>2021-08-30T23:17:10.182Z</time>
      </trkpt>
      <trkpt lat="42.83835" lon="2.48054">
        <ele>396.8</ele>
        <time>2021-08-30T23:17:16.010Z</time>
      </trkpt>
      <trkpt lat="42.83839" lon="2.48068">
        <ele>399.3</ele>
        <time>2021-08-30T23:17:22.918Z</time>
      </trkpt>
      <trkpt lat="42.83842" lon="2.48084">
        <ele>402</ele>
        <time>2021-08-30T23:17:30.510Z</time>
      </trkpt>
      <trkpt lat="42.83838" lon="2.48106">
        <ele>405</ele>
        <time>2021-08-30T23:17:40.930Z</time>
      </trkpt>
      <trkpt lat="42.83828" lon="2.48128">
        <ele>406</ele>
        <time>2021-08-30T23:17:46.421Z</time>
      </trkpt>
      <trkpt lat="42.83819" lon="2.48144">
        <ele>407.2</ele>
        <time>2021-08-30T23:17:51.701Z</time>
      </trkpt>
      <trkpt lat="42.83813" lon="2.4815">
        <ele>407.1</ele>
        <time>2021-08-30T23:17:52.664Z</time>
      </trkpt>
      <trkpt lat="42.83801" lon="2.48156">
        <ele>405.8</ele>
        <time>2021-08-30T23:17:53.741Z</time>
      </trkpt>
      <trkpt lat="42.8379" lon="2.48158">
        <ele>403.8</ele>
        <time>2021-08-30T23:17:54.675Z</time>
      </trkpt>
      <trkpt lat="42.83771" lon="2.48163">
        <ele>401.2</ele>
        <time>2021-08-30T23:17:56.306Z</time>
      </trkpt>
      <trkpt lat="42.83758" lon="2.48166">
        <ele>399.5</ele>
        <time>2021-08-30T23:17:57.416Z</time>
      </trkpt>
      <trkpt lat="42.83729" lon="2.48172">
        <ele>399.8</ele>
        <time>2021-08-30T23:18:02.677Z</time>
      </trkpt>
      <trkpt lat="42.83702" lon="2.48187">
        <ele>405.4</ele>
        <time>2021-08-30T23:18:20.955Z</time>
      </trkpt>
      <trkpt lat="42.83692" lon="2.4819">
        <ele>406.5</ele>
        <time>2021-08-30T23:18:25.621Z</time>
      </trkpt>
      <trkpt lat="42.83684" lon="2.4819">
        <ele>406.4</ele>
        <time>2021-08-30T23:18:26.668Z</time>
      </trkpt>
      <trkpt lat="42.83667" lon="2.48181">
        <ele>402.7</ele>
        <time>2021-08-30T23:18:28.204Z</time>
      </trkpt>
      <trkpt lat="42.83634" lon="2.48156">
        <ele>407.6</ele>
        <time>2021-08-30T23:18:50.690Z</time>
      </trkpt>
      <trkpt lat="42.83621" lon="2.48143">
        <ele>407.6</ele>
        <time>2021-08-30T23:18:53.311Z</time>
      </trkpt>
      <trkpt lat="42.83609" lon="2.48124">
        <ele>404.2</ele>
        <time>2021-08-30T23:18:54.860Z</time>
      </trkpt>
      <trkpt lat="42.83597" lon="2.48101">
        <ele>398.9</ele>
        <time>2021-08-30T23:18:56.604Z</time>
      </trkpt>
      <trkpt lat="42.83586" lon="2.48069">
        <ele>390.6</ele>
        <time>2021-08-30T23:18:58.787Z</time>
      </trkpt>
      <trkpt lat="42.83581" lon="2.4806">
        <ele>388.4</ele>
        <time>2021-08-30T23:18:59.484Z</time>
      </trkpt>
      <trkpt lat="42.83575" lon="2.48052">
        <ele>385</ele>
        <time>2021-08-30T23:19:00.191Z</time>
      </trkpt>
      <trkpt lat="42.83568" lon="2.48047">
        <ele>382.4</ele>
        <time>2021-08-30T23:19:00.857Z</time>
      </trkpt>
      <trkpt lat="42.83558" lon="2.48045">
        <ele>380.6</ele>
        <time>2021-08-30T23:19:01.709Z</time>
      </trkpt>
      <trkpt lat="42.8355" lon="2.48046">
        <ele>380.2</ele>
        <time>2021-08-30T23:19:02.420Z</time>
      </trkpt>
      <trkpt lat="42.83543" lon="2.48049">
        <ele>380.8</ele>
        <time>2021-08-30T23:19:05.053Z</time>
      </trkpt>
      <trkpt lat="42.835" lon="2.48092">
        <ele>397.8</ele>
        <time>2021-08-30T23:19:38.483Z</time>
      </trkpt>
      <trkpt lat="42.8348" lon="2.48102">
        <ele>394.6</ele>
        <time>2021-08-30T23:19:40.278Z</time>
      </trkpt>
      <trkpt lat="42.83469" lon="2.48104">
        <ele>391.2</ele>
        <time>2021-08-30T23:19:41.212Z</time>
      </trkpt>
      <trkpt lat="42.83458" lon="2.481">
        <ele>385.2</ele>
        <time>2021-08-30T23:19:42.172Z</time>
      </trkpt>
      <trkpt lat="42.83438" lon="2.48082">
        <ele>369.6</ele>
        <time>2021-08-30T23:19:44.190Z</time>
      </trkpt>
      <trkpt lat="42.8343" lon="2.48077">
        <ele>364.2</ele>
        <time>2021-08-30T23:19:44.932Z</time>
      </trkpt>
      <trkpt lat="42.83422" lon="2.48076">
        <ele>360.7</ele>
        <time>2021-08-30T23:19:45.609Z</time>
      </trkpt>
      <trkpt lat="42.83415" lon="2.4808">
        <ele>359.7</ele>
        <time>2021-08-30T23:19:46.248Z</time>
      </trkpt>
      <trkpt lat="42.8341" lon="2.48087">
        <ele>360.3</ele>
        <time>2021-08-30T23:19:48.862Z</time>
      </trkpt>
      <trkpt lat="42.83406" lon="2.481">
        <ele>363.8</ele>
        <time>2021-08-30T23:19:55.344Z</time>
      </trkpt>
      <trkpt lat="42.834" lon="2.48123">
        <ele>370.3</ele>
        <time>2021-08-30T23:20:06.567Z</time>
      </trkpt>
      <trkpt lat="42.83393" lon="2.48142">
        <ele>374.3</ele>
        <time>2021-08-30T23:20:16.343Z</time>
      </trkpt>
      <trkpt lat="42.8339" lon="2.48156">
        <ele>378.3</ele>
        <time>2021-08-30T23:20:23.048Z</time>
      </trkpt>
      <trkpt lat="42.8339" lon="2.48205">
        <ele>384.8</ele>
        <time>2021-08-30T23:20:45.576Z</time>
      </trkpt>
      <trkpt lat="42.83391" lon="2.48247">
        <ele>387.7</ele>
        <time>2021-08-30T23:20:57.894Z</time>
      </trkpt>
      <trkpt lat="42.83392" lon="2.48268">
        <ele>384.9</ele>
        <time>2021-08-30T23:20:59.194Z</time>
      </trkpt>
      <trkpt lat="42.83403" lon="2.4831">
        <ele>382.3</ele>
        <time>2021-08-30T23:21:01.950Z</time>
      </trkpt>
      <trkpt lat="42.83412" lon="2.48331">
        <ele>382.3</ele>
        <time>2021-08-30T23:21:04.849Z</time>
      </trkpt>
      <trkpt lat="42.83423" lon="2.4835">
        <ele>381.6</ele>
        <time>2021-08-30T23:21:06.575Z</time>
      </trkpt>
      <trkpt lat="42.83436" lon="2.48369">
        <ele>381.1</ele>
        <time>2021-08-30T23:21:08.696Z</time>
      </trkpt>
      <trkpt lat="42.83454" lon="2.48391">
        <ele>381.4</ele>
        <time>2021-08-30T23:21:13.128Z</time>
      </trkpt>
      <trkpt lat="42.83488" lon="2.48426">
        <ele>384.5</ele>
        <time>2021-08-30T23:21:27.359Z</time>
      </trkpt>
      <trkpt lat="42.83506" lon="2.48447">
        <ele>387.6</ele>
        <time>2021-08-30T23:21:41.678Z</time>
      </trkpt>
      <trkpt lat="42.83516" lon="2.48465">
        <ele>388.5</ele>
        <time>2021-08-30T23:21:46.523Z</time>
      </trkpt>
      <trkpt lat="42.83525" lon="2.48484">
        <ele>389.1</ele>
        <time>2021-08-30T23:21:50.555Z</time>
      </trkpt>
      <trkpt lat="42.83529" lon="2.48499">
        <ele>388.4</ele>
        <time>2021-08-30T23:21:51.508Z</time>
      </trkpt>
      <trkpt lat="42.8353" lon="2.48514">
        <ele>388.4</ele>
        <time>2021-08-30T23:21:53.303Z</time>
      </trkpt>
      <trkpt lat="42.83528" lon="2.48528">
        <ele>387.1</ele>
        <time>2021-08-30T23:21:54.184Z</time>
      </trkpt>
      <trkpt lat="42.83517" lon="2.48556">
        <ele>380.9</ele>
        <time>2021-08-30T23:21:56.146Z</time>
      </trkpt>
      <trkpt lat="42.83514" lon="2.48571">
        <ele>378.8</ele>
        <time>2021-08-30T23:21:57.107Z</time>
      </trkpt>
      <trkpt lat="42.83515" lon="2.48588">
        <ele>378.2</ele>
        <time>2021-08-30T23:21:58.231Z</time>
      </trkpt>
      <trkpt lat="42.8352" lon="2.48608">
        <ele>377.8</ele>
        <time>2021-08-30T23:21:59.964Z</time>
      </trkpt>
      <trkpt lat="42.83531" lon="2.48637">
        <ele>379.8</ele>
        <time>2021-08-30T23:22:08.684Z</time>
      </trkpt>
      <trkpt lat="42.83577" lon="2.48729">
        <ele>387.1</ele>
        <time>2021-08-30T23:22:39.967Z</time>
      </trkpt>
      <trkpt lat="42.8359" lon="2.48772">
        <ele>385</ele>
        <time>2021-08-30T23:22:42.705Z</time>
      </trkpt>
      <trkpt lat="42.83596" lon="2.48809">
        <ele>382.6</ele>
        <time>2021-08-30T23:22:45.046Z</time>
      </trkpt>
      <trkpt lat="42.83611" lon="2.48858">
        <ele>386.8</ele>
        <time>2021-08-30T23:23:02.871Z</time>
      </trkpt>
      <trkpt lat="42.83612" lon="2.48874">
        <ele>386.7</ele>
        <time>2021-08-30T23:23:04.496Z</time>
      </trkpt>
      <trkpt lat="42.83614" lon="2.48945">
        <ele>387.6</ele>
        <time>2021-08-30T23:23:14.557Z</time>
      </trkpt>
      <trkpt lat="42.83611" lon="2.48967">
        <ele>387.7</ele>
        <time>2021-08-30T23:23:17.381Z</time>
      </trkpt>
      <trkpt lat="42.83604" lon="2.48993">
        <ele>387.1</ele>
        <time>2021-08-30T23:23:19.563Z</time>
      </trkpt>
      <trkpt lat="42.83587" lon="2.49033">
        <ele>381.3</ele>
        <time>2021-08-30T23:23:22.419Z</time>
      </trkpt>
      <trkpt lat="42.83582" lon="2.49045">
        <ele>379.9</ele>
        <time>2021-08-30T23:23:23.272Z</time>
      </trkpt>
      <trkpt lat="42.83578" lon="2.49055">
        <ele>379.7</ele>
        <time>2021-08-30T23:23:24.225Z</time>
      </trkpt>
      <trkpt lat="42.83575" lon="2.49076">
        <ele>379.1</ele>
        <time>2021-08-30T23:23:25.768Z</time>
      </trkpt>
      <trkpt lat="42.83579" lon="2.49097">
        <ele>377.9</ele>
        <time>2021-08-30T23:23:27.109Z</time>
      </trkpt>
      <trkpt lat="42.83585" lon="2.49108">
        <ele>377.7</ele>
        <time>2021-08-30T23:23:28.311Z</time>
      </trkpt>
      <trkpt lat="42.83604" lon="2.49146">
        <ele>380.8</ele>
        <time>2021-08-30T23:23:41.525Z</time>
      </trkpt>
      <trkpt lat="42.83608" lon="2.49166">
        <ele>380.7</ele>
        <time>2021-08-30T23:23:43.770Z</time>
      </trkpt>
      <trkpt lat="42.83608" lon="2.49188">
        <ele>381.4</ele>
        <time>2021-08-30T23:23:48.122Z</time>
      </trkpt>
      <trkpt lat="42.83604" lon="2.49209">
        <ele>381</ele>
        <time>2021-08-30T23:23:49.914Z</time>
      </trkpt>
      <trkpt lat="42.83595" lon="2.49229">
        <ele>379.5</ele>
        <time>2021-08-30T23:23:51.363Z</time>
      </trkpt>
      <trkpt lat="42.83587" lon="2.49237">
        <ele>378.1</ele>
        <time>2021-08-30T23:23:52.199Z</time>
      </trkpt>
      <trkpt lat="42.83574" lon="2.4924">
        <ele>377.8</ele>
        <time>2021-08-30T23:23:53.724Z</time>
      </trkpt>
      <trkpt lat="42.83564" lon="2.49238">
        <ele>378</ele>
        <time>2021-08-30T23:23:55.731Z</time>
      </trkpt>
      <trkpt lat="42.83538" lon="2.49215">
        <ele>375.6</ele>
        <time>2021-08-30T23:23:58.342Z</time>
      </trkpt>
      <trkpt lat="42.83522" lon="2.49204">
        <ele>373.6</ele>
        <time>2021-08-30T23:23:59.851Z</time>
      </trkpt>
      <trkpt lat="42.83504" lon="2.49196">
        <ele>371.5</ele>
        <time>2021-08-30T23:24:01.446Z</time>
      </trkpt>
      <trkpt lat="42.83485" lon="2.49193">
        <ele>369.2</ele>
        <time>2021-08-30T23:24:03.057Z</time>
      </trkpt>
      <trkpt lat="42.83466" lon="2.49195">
        <ele>367.5</ele>
        <time>2021-08-30T23:24:04.663Z</time>
      </trkpt>
      <trkpt lat="42.83451" lon="2.49203">
        <ele>366.5</ele>
        <time>2021-08-30T23:24:05.951Z</time>
      </trkpt>
      <trkpt lat="42.83431" lon="2.49221">
        <ele>364.3</ele>
        <time>2021-08-30T23:24:07.969Z</time>
      </trkpt>
      <trkpt lat="42.83411" lon="2.49245">
        <ele>360</ele>
        <time>2021-08-30T23:24:10.214Z</time>
      </trkpt>
      <trkpt lat="42.83404" lon="2.49264">
        <ele>359.5</ele>
        <time>2021-08-30T23:24:11.845Z</time>
      </trkpt>
      <trkpt lat="42.83397" lon="2.49312">
        <ele>360.5</ele>
        <time>2021-08-30T23:24:19.677Z</time>
      </trkpt>
      <trkpt lat="42.83389" lon="2.49325">
        <ele>358.7</ele>
        <time>2021-08-30T23:24:20.726Z</time>
      </trkpt>
      <trkpt lat="42.83382" lon="2.49332">
        <ele>356.7</ele>
        <time>2021-08-30T23:24:21.457Z</time>
      </trkpt>
      <trkpt lat="42.83369" lon="2.49337">
        <ele>352.7</ele>
        <time>2021-08-30T23:24:22.595Z</time>
      </trkpt>
      <trkpt lat="42.83364" lon="2.49342">
        <ele>351.3</ele>
        <time>2021-08-30T23:24:23.117Z</time>
      </trkpt>
      <trkpt lat="42.83358" lon="2.49357">
        <ele>350</ele>
        <time>2021-08-30T23:24:24.173Z</time>
      </trkpt>
      <trkpt lat="42.83349" lon="2.49399">
        <ele>348.4</ele>
        <time>2021-08-30T23:24:27.011Z</time>
      </trkpt>
      <trkpt lat="42.83349" lon="2.49414">
        <ele>348.9</ele>
        <time>2021-08-30T23:24:30.047Z</time>
      </trkpt>
      <trkpt lat="42.83347" lon="2.49427">
        <ele>349.4</ele>
        <time>2021-08-30T23:24:32.840Z</time>
      </trkpt>
      <trkpt lat="42.83341" lon="2.49436">
        <ele>348.1</ele>
        <time>2021-08-30T23:24:33.591Z</time>
      </trkpt>
      <trkpt lat="42.83325" lon="2.4944">
        <ele>344.5</ele>
        <time>2021-08-30T23:24:34.961Z</time>
      </trkpt>
      <trkpt lat="42.83318" lon="2.49445">
        <ele>343.9</ele>
        <time>2021-08-30T23:24:35.627Z</time>
      </trkpt>
      <trkpt lat="42.8331" lon="2.49455">
        <ele>343.6</ele>
        <time>2021-08-30T23:24:36.816Z</time>
      </trkpt>
      <trkpt lat="42.83282" lon="2.49498">
        <ele>341.8</ele>
        <time>2021-08-30T23:24:40.794Z</time>
      </trkpt>
      <trkpt lat="42.83261" lon="2.49529">
        <ele>338.6</ele>
        <time>2021-08-30T23:24:43.401Z</time>
      </trkpt>
      <trkpt lat="42.83236" lon="2.49579">
        <ele>337.2</ele>
        <time>2021-08-30T23:24:48.069Z</time>
      </trkpt>
      <trkpt lat="42.83219" lon="2.49621">
        <ele>333.9</ele>
        <time>2021-08-30T23:24:51.033Z</time>
      </trkpt>
      <trkpt lat="42.83213" lon="2.4963">
        <ele>332.9</ele>
        <time>2021-08-30T23:24:51.784Z</time>
      </trkpt>
      <trkpt lat="42.83206" lon="2.49638">
        <ele>331.8</ele>
        <time>2021-08-30T23:24:52.554Z</time>
      </trkpt>
      <trkpt lat="42.83184" lon="2.49652">
        <ele>328.6</ele>
        <time>2021-08-30T23:24:54.599Z</time>
      </trkpt>
      <trkpt lat="42.8318" lon="2.49658">
        <ele>327.9</ele>
        <time>2021-08-30T23:24:55.100Z</time>
      </trkpt>
      <trkpt lat="42.83178" lon="2.49665">
        <ele>327.4</ele>
        <time>2021-08-30T23:24:55.564Z</time>
      </trkpt>
      <trkpt lat="42.83178" lon="2.49672">
        <ele>327.4</ele>
        <time>2021-08-30T23:24:56.398Z</time>
      </trkpt>
      <trkpt lat="42.8318" lon="2.49681">
        <ele>327.7</ele>
        <time>2021-08-30T23:24:58.262Z</time>
      </trkpt>
      <trkpt lat="42.83187" lon="2.49696">
        <ele>328.5</ele>
        <time>2021-08-30T23:25:02.266Z</time>
      </trkpt>
      <trkpt lat="42.83189" lon="2.49705">
        <ele>328.8</ele>
        <time>2021-08-30T23:25:04.129Z</time>
      </trkpt>
      <trkpt lat="42.83188" lon="2.49712">
        <ele>328.7</ele>
        <time>2021-08-30T23:25:04.760Z</time>
      </trkpt>
      <trkpt lat="42.83186" lon="2.49721">
        <ele>328.5</ele>
        <time>2021-08-30T23:25:05.505Z</time>
      </trkpt>
      <trkpt lat="42.83182" lon="2.49729">
        <ele>328.2</ele>
        <time>2021-08-30T23:25:06.177Z</time>
      </trkpt>
      <trkpt lat="42.83176" lon="2.49734">
        <ele>327.7</ele>
        <time>2021-08-30T23:25:06.770Z</time>
      </trkpt>
      <trkpt lat="42.83168" lon="2.49737">
        <ele>327</ele>
        <time>2021-08-30T23:25:07.469Z</time>
      </trkpt>
      <trkpt lat="42.83161" lon="2.49737">
        <ele>326.5</ele>
        <time>2021-08-30T23:25:08.059Z</time>
      </trkpt>
      <trkpt lat="42.83122" lon="2.49724">
        <ele>324.2</ele>
        <time>2021-08-30T23:25:11.394Z</time>
      </trkpt>
      <trkpt lat="42.83113" lon="2.49726">
        <ele>323.7</ele>
        <time>2021-08-30T23:25:12.167Z</time>
      </trkpt>
      <trkpt lat="42.83085" lon="2.49748">
        <ele>322.1</ele>
        <time>2021-08-30T23:25:15.034Z</time>
      </trkpt>
      <trkpt lat="42.83045" lon="2.49759">
        <ele>319.6</ele>
        <time>2021-08-30T23:25:18.318Z</time>
      </trkpt>
      <trkpt lat="42.83026" lon="2.49759">
        <ele>317.8</ele>
        <time>2021-08-30T23:25:19.918Z</time>
      </trkpt>
      <trkpt lat="42.83015" lon="2.49758">
        <ele>316.5</ele>
        <time>2021-08-30T23:25:20.847Z</time>
      </trkpt>
      <trkpt lat="42.83006" lon="2.49754">
        <ele>315.1</ele>
        <time>2021-08-30T23:25:21.645Z</time>
      </trkpt>
      <trkpt lat="42.82989" lon="2.49735">
        <ele>314.8</ele>
        <time>2021-08-30T23:25:24.481Z</time>
      </trkpt>
      <trkpt lat="42.8298" lon="2.49728">
        <ele>315</ele>
        <time>2021-08-30T23:25:26.527Z</time>
      </trkpt>
      <trkpt lat="42.82948" lon="2.49721">
        <ele>314.7</ele>
        <time>2021-08-30T23:25:30.955Z</time>
      </trkpt>
      <trkpt lat="42.82912" lon="2.49708">
        <ele>313.8</ele>
        <time>2021-08-30T23:25:35.195Z</time>
      </trkpt>
      <trkpt lat="42.82887" lon="2.49701">
        <ele>314.9</ele>
        <time>2021-08-30T23:25:42.049Z</time>
      </trkpt>
      <trkpt lat="42.8287" lon="2.49691">
        <ele>314.7</ele>
        <time>2021-08-30T23:25:44.527Z</time>
      </trkpt>
      <trkpt lat="42.82853" lon="2.49673">
        <ele>312.7</ele>
        <time>2021-08-30T23:25:46.341Z</time>
      </trkpt>
      <trkpt lat="42.82818" lon="2.49617">
        <ele>307.2</ele>
        <time>2021-08-30T23:25:50.887Z</time>
      </trkpt>
      <trkpt lat="42.82805" lon="2.49604">
        <ele>305.7</ele>
        <time>2021-08-30T23:25:52.245Z</time>
      </trkpt>
      <trkpt lat="42.82778" lon="2.49588">
        <ele>303.3</ele>
        <time>2021-08-30T23:25:54.725Z</time>
      </trkpt>
      <trkpt lat="42.82755" lon="2.4958">
        <ele>302.1</ele>
        <time>2021-08-30T23:25:56.812Z</time>
      </trkpt>
      <trkpt lat="42.82742" lon="2.49581">
        <ele>301.6</ele>
        <time>2021-08-30T23:25:58.091Z</time>
      </trkpt>
      <trkpt lat="42.82734" lon="2.49585">
        <ele>301.4</ele>
        <time>2021-08-30T23:25:59.068Z</time>
      </trkpt>
      <trkpt lat="42.82694" lon="2.4961">
        <ele>301.1</ele>
        <time>2021-08-30T23:26:05.544Z</time>
      </trkpt>
      <trkpt lat="42.82686" lon="2.49617">
        <ele>300.8</ele>
        <time>2021-08-30T23:26:06.543Z</time>
      </trkpt>
      <trkpt lat="42.82668" lon="2.49643">
        <ele>299.6</ele>
        <time>2021-08-30T23:26:08.948Z</time>
      </trkpt>
      <trkpt lat="42.82658" lon="2.4965">
        <ele>299</ele>
        <time>2021-08-30T23:26:09.913Z</time>
      </trkpt>
      <trkpt lat="42.8264" lon="2.49654">
        <ele>297.7</ele>
        <time>2021-08-30T23:26:11.449Z</time>
      </trkpt>
      <trkpt lat="42.82598" lon="2.49675">
        <ele>295.1</ele>
        <time>2021-08-30T23:26:15.141Z</time>
      </trkpt>
      <trkpt lat="42.82561" lon="2.49698">
        <ele>293.8</ele>
        <time>2021-08-30T23:26:19.399Z</time>
      </trkpt>
      <trkpt lat="42.82538" lon="2.49706">
        <ele>291.7</ele>
        <time>2021-08-30T23:26:21.399Z</time>
      </trkpt>
      <trkpt lat="42.82528" lon="2.49713">
        <ele>290.8</ele>
        <time>2021-08-30T23:26:22.346Z</time>
      </trkpt>
      <trkpt lat="42.82513" lon="2.49727">
        <ele>289.1</ele>
        <time>2021-08-30T23:26:23.877Z</time>
      </trkpt>
      <trkpt lat="42.82498" lon="2.49741">
        <ele>287</ele>
        <time>2021-08-30T23:26:25.409Z</time>
      </trkpt>
      <trkpt lat="42.82491" lon="2.49748">
        <ele>286.6</ele>
        <time>2021-08-30T23:26:26.203Z</time>
      </trkpt>
      <trkpt lat="42.82481" lon="2.4975">
        <ele>286.1</ele>
        <time>2021-08-30T23:26:27.100Z</time>
      </trkpt>
      <trkpt lat="42.8243" lon="2.49743">
        <ele>283.9</ele>
        <time>2021-08-30T23:26:31.924Z</time>
      </trkpt>
      <trkpt lat="42.82421" lon="2.49747">
        <ele>283.3</ele>
        <time>2021-08-30T23:26:32.673Z</time>
      </trkpt>
      <trkpt lat="42.82368" lon="2.49771">
        <ele>281</ele>
        <time>2021-08-30T23:26:38.015Z</time>
      </trkpt>
      <trkpt lat="42.82336" lon="2.4979">
        <ele>280.1</ele>
        <time>2021-08-30T23:26:41.918Z</time>
      </trkpt>
      <trkpt lat="42.82306" lon="2.49803">
        <ele>279.7</ele>
        <time>2021-08-30T23:26:46.029Z</time>
      </trkpt>
      <trkpt lat="42.82285" lon="2.49808">
        <ele>279.4</ele>
        <time>2021-08-30T23:26:48.765Z</time>
      </trkpt>
      <trkpt lat="42.82222" lon="2.49808">
        <ele>278.8</ele>
        <time>2021-08-30T23:26:57.342Z</time>
      </trkpt>
      <trkpt lat="42.8222" lon="2.49808">
        <ele>278.8</ele>
        <time>2021-08-30T23:26:57.667Z</time>
      </trkpt>
      <trkpt lat="42.82179" lon="2.49808">
        <ele>279</ele>
        <time>2021-08-30T23:27:04.643Z</time>
      </trkpt>
      <trkpt lat="42.82139" lon="2.49804">
        <ele>278.6</ele>
        <time>2021-08-30T23:27:10.070Z</time>
      </trkpt>
      <trkpt lat="42.82116" lon="2.49794">
        <ele>278.1</ele>
        <time>2021-08-30T23:27:12.929Z</time>
      </trkpt>
      <trkpt lat="42.82113" lon="2.49792">
        <ele>278</ele>
        <time>2021-08-30T23:27:13.287Z</time>
      </trkpt>
      <trkpt lat="42.82062" lon="2.49761">
        <ele>276.3</ele>
        <time>2021-08-30T23:27:19.227Z</time>
      </trkpt>
      <trkpt lat="42.82042" lon="2.49757">
        <ele>275.5</ele>
        <time>2021-08-30T23:27:21.190Z</time>
      </trkpt>
      <trkpt lat="42.81985" lon="2.49761">
        <ele>273.4</ele>
        <time>2021-08-30T23:27:26.884Z</time>
      </trkpt>
      <trkpt lat="42.81975" lon="2.49763">
        <ele>273.1</ele>
        <time>2021-08-30T23:27:27.968Z</time>
      </trkpt>
      <trkpt lat="42.81914" lon="2.49791">
        <ele>270.9</ele>
        <time>2021-08-30T23:27:34.559Z</time>
      </trkpt>
      <trkpt lat="42.81861" lon="2.49813">
        <ele>267.8</ele>
        <time>2021-08-30T23:27:39.212Z</time>
      </trkpt>
      <trkpt lat="42.81854" lon="2.49816">
        <ele>267.3</ele>
        <time>2021-08-30T23:27:39.830Z</time>
      </trkpt>
      <trkpt lat="42.81819" lon="2.49838">
        <ele>265.1</ele>
        <time>2021-08-30T23:27:43.038Z</time>
      </trkpt>
      <trkpt lat="42.8179" lon="2.49861">
        <ele>265.3</ele>
        <time>2021-08-30T23:27:48.806Z</time>
      </trkpt>
      <trkpt lat="42.81737" lon="2.49919">
        <ele>264.4</ele>
        <time>2021-08-30T23:27:57.621Z</time>
      </trkpt>
      <trkpt lat="42.81714" lon="2.49941">
        <ele>263.6</ele>
        <time>2021-08-30T23:28:00.673Z</time>
      </trkpt>
      <trkpt lat="42.81705" lon="2.4995">
        <ele>263.2</ele>
        <time>2021-08-30T23:28:01.797Z</time>
      </trkpt>
      <trkpt lat="42.81689" lon="2.49962">
        <ele>262.6</ele>
        <time>2021-08-30T23:28:03.692Z</time>
      </trkpt>
      <trkpt lat="42.81644" lon="2.49998">
        <ele>261.7</ele>
        <time>2021-08-30T23:28:10.130Z</time>
      </trkpt>
      <trkpt lat="42.81632" lon="2.50005">
        <ele>261.8</ele>
        <time>2021-08-30T23:28:12.412Z</time>
      </trkpt>
      <trkpt lat="42.8158" lon="2.50034">
        <ele>262.9</ele>
        <time>2021-08-30T23:28:23.539Z</time>
      </trkpt>
      <trkpt lat="42.81573" lon="2.50037">
        <ele>262.8</ele>
        <time>2021-08-30T23:28:24.486Z</time>
      </trkpt>
      <trkpt lat="42.81558" lon="2.50046">
        <ele>262.6</ele>
        <time>2021-08-30T23:28:26.640Z</time>
      </trkpt>
      <trkpt lat="42.8155" lon="2.50051">
        <ele>262.4</ele>
        <time>2021-08-30T23:28:27.659Z</time>
      </trkpt>
      <trkpt lat="42.81529" lon="2.5007">
        <ele>261.8</ele>
        <time>2021-08-30T23:28:30.540Z</time>
      </trkpt>
      <trkpt lat="42.81502" lon="2.5009">
        <ele>260.4</ele>
        <time>2021-08-30T23:28:33.363Z</time>
      </trkpt>
      <trkpt lat="42.81465" lon="2.50115">
        <ele>259.8</ele>
        <time>2021-08-30T23:28:38.633Z</time>
      </trkpt>
      <trkpt lat="42.81457" lon="2.5012">
        <ele>259.7</ele>
        <time>2021-08-30T23:28:39.802Z</time>
      </trkpt>
      <trkpt lat="42.81426" lon="2.5014">
        <ele>259.7</ele>
        <time>2021-08-30T23:28:45.376Z</time>
      </trkpt>
      <trkpt lat="42.81413" lon="2.5015">
        <ele>259.8</ele>
        <time>2021-08-30T23:28:47.961Z</time>
      </trkpt>
      <trkpt lat="42.81404" lon="2.50161">
        <ele>259.8</ele>
        <time>2021-08-30T23:28:49.926Z</time>
      </trkpt>
      <trkpt lat="42.81388" lon="2.50189">
        <ele>260.3</ele>
        <time>2021-08-30T23:28:55.061Z</time>
      </trkpt>
      <trkpt lat="42.81383" lon="2.50193">
        <ele>260.2</ele>
        <time>2021-08-30T23:28:55.777Z</time>
      </trkpt>
      <trkpt lat="42.81379" lon="2.50194">
        <ele>259.9</ele>
        <time>2021-08-30T23:28:56.119Z</time>
      </trkpt>
      <trkpt lat="42.81371" lon="2.50192">
        <ele>259.2</ele>
        <time>2021-08-30T23:28:56.804Z</time>
      </trkpt>
      <trkpt lat="42.81362" lon="2.50192">
        <ele>258.6</ele>
        <time>2021-08-30T23:28:57.499Z</time>
      </trkpt>
      <trkpt lat="42.81353" lon="2.50196">
        <ele>258.2</ele>
        <time>2021-08-30T23:28:58.395Z</time>
      </trkpt>
      <trkpt lat="42.81334" lon="2.50225">
        <ele>258.5</ele>
        <time>2021-08-30T23:29:03.526Z</time>
      </trkpt>
      <trkpt lat="42.8132" lon="2.50237">
        <ele>259</ele>
        <time>2021-08-30T23:29:07.243Z</time>
      </trkpt>
      <trkpt lat="42.81314" lon="2.50237">
        <ele>258.9</ele>
        <time>2021-08-30T23:29:07.989Z</time>
      </trkpt>
      <trkpt lat="42.81307" lon="2.50237">
        <ele>258.8</ele>
        <time>2021-08-30T23:29:08.885Z</time>
      </trkpt>
      <trkpt lat="42.81291" lon="2.50225">
        <ele>257.7</ele>
        <time>2021-08-30T23:29:10.367Z</time>
      </trkpt>
      <trkpt lat="42.81276" lon="2.50219">
        <ele>256.9</ele>
        <time>2021-08-30T23:29:11.734Z</time>
      </trkpt>
      <trkpt lat="42.8127" lon="2.5022">
        <ele>256.9</ele>
        <time>2021-08-30T23:29:12.716Z</time>
      </trkpt>
      <trkpt lat="42.81264" lon="2.50221">
        <ele>256.8</ele>
        <time>2021-08-30T23:29:13.468Z</time>
      </trkpt>
      <trkpt lat="42.81253" lon="2.50229">
        <ele>257.3</ele>
        <time>2021-08-30T23:29:16.671Z</time>
      </trkpt>
      <trkpt lat="42.81245" lon="2.50247">
        <ele>258.6</ele>
        <time>2021-08-30T23:29:22.327Z</time>
      </trkpt>
      <trkpt lat="42.81233" lon="2.50283">
        <ele>261</ele>
        <time>2021-08-30T23:29:32.822Z</time>
      </trkpt>
      <trkpt lat="42.81232" lon="2.50287">
        <ele>261.3</ele>
        <time>2021-08-30T23:29:34.092Z</time>
      </trkpt>
      <trkpt lat="42.81225" lon="2.50316">
        <ele>263</ele>
        <time>2021-08-30T23:29:41.759Z</time>
      </trkpt>
      <trkpt lat="42.81221" lon="2.50316">
        <ele>262.7</ele>
        <time>2021-08-30T23:29:42.096Z</time>
      </trkpt>
      <trkpt lat="42.81165" lon="2.50316">
        <ele>259.4</ele>
        <time>2021-08-30T23:29:46.687Z</time>
      </trkpt>
      <trkpt lat="42.81158" lon="2.50315">
        <ele>259.5</ele>
        <time>2021-08-30T23:29:48.002Z</time>
      </trkpt>
      <trkpt lat="42.81149" lon="2.50313">
        <ele>259.6</ele>
        <time>2021-08-30T23:29:49.650Z</time>
      </trkpt>
      <trkpt lat="42.8113" lon="2.5035">
        <ele>261.3</ele>
        <time>2021-08-30T23:29:59.148Z</time>
      </trkpt>
      <trkpt lat="42.81107" lon="2.50323">
        <ele>260.9</ele>
        <time>2021-08-30T23:30:03.088Z</time>
      </trkpt>
      <trkpt lat="42.81094" lon="2.50312">
        <ele>260.5</ele>
        <time>2021-08-30T23:30:04.792Z</time>
      </trkpt>
      <trkpt lat="42.81082" lon="2.50305">
        <ele>260.3</ele>
        <time>2021-08-30T23:30:06.441Z</time>
      </trkpt>
      <trkpt lat="42.81065" lon="2.503">
        <ele>260</ele>
        <time>2021-08-30T23:30:08.587Z</time>
      </trkpt>
      <trkpt lat="42.81061" lon="2.50299">
        <ele>259.9</ele>
        <time>2021-08-30T23:30:09.048Z</time>
      </trkpt>
      <trkpt lat="42.81041" lon="2.50293">
        <ele>259.4</ele>
        <time>2021-08-30T23:30:11.373Z</time>
      </trkpt>
      <trkpt lat="42.81027" lon="2.50291">
        <ele>259.1</ele>
        <time>2021-08-30T23:30:13.029Z</time>
      </trkpt>
      <trkpt lat="42.81015" lon="2.50294">
        <ele>259.3</ele>
        <time>2021-08-30T23:30:15.362Z</time>
      </trkpt>
      <trkpt lat="42.80997" lon="2.50302">
        <ele>259.9</ele>
        <time>2021-08-30T23:30:19.698Z</time>
      </trkpt>
      <trkpt lat="42.80994" lon="2.50303">
        <ele>259.9</ele>
        <time>2021-08-30T23:30:20.200Z</time>
      </trkpt>
      <trkpt lat="42.80981" lon="2.50307">
        <ele>259.7</ele>
        <time>2021-08-30T23:30:21.891Z</time>
      </trkpt>
      <trkpt lat="42.80978" lon="2.50308">
        <ele>259.7</ele>
        <time>2021-08-30T23:30:22.393Z</time>
      </trkpt>
      <trkpt lat="42.80962" lon="2.50315">
        <ele>259.6</ele>
        <time>2021-08-30T23:30:24.896Z</time>
      </trkpt>
      <trkpt lat="42.80951" lon="2.50319">
        <ele>259.5</ele>
        <time>2021-08-30T23:30:26.461Z</time>
      </trkpt>
      <trkpt lat="42.8095" lon="2.50319">
        <ele>259.4</ele>
        <time>2021-08-30T23:30:26.545Z</time>
      </trkpt>
      <trkpt lat="42.80938" lon="2.50325">
        <ele>259.4</ele>
        <time>2021-08-30T23:30:28.623Z</time>
      </trkpt>
      <trkpt lat="42.80937" lon="2.50325">
        <ele>259.3</ele>
        <time>2021-08-30T23:30:28.707Z</time>
      </trkpt>
      <trkpt lat="42.80934" lon="2.50316">
        <ele>258.5</ele>
        <time>2021-08-30T23:30:29.318Z</time>
      </trkpt>
      <trkpt lat="42.80928" lon="2.50294">
        <ele>256.6</ele>
        <time>2021-08-30T23:30:30.769Z</time>
      </trkpt>
      <trkpt lat="42.80927" lon="2.50288">
        <ele>256.1</ele>
        <time>2021-08-30T23:30:31.149Z</time>
      </trkpt>
      <trkpt lat="42.80916" lon="2.50253">
        <ele>253.2</ele>
        <time>2021-08-30T23:30:33.502Z</time>
      </trkpt>
      <trkpt lat="42.80913" lon="2.50242">
        <ele>252.7</ele>
        <time>2021-08-30T23:30:34.213Z</time>
      </trkpt>
      <trkpt lat="42.80911" lon="2.50242">
        <ele>252.7</ele>
        <time>2021-08-30T23:30:34.538Z</time>
      </trkpt>
      <trkpt lat="42.80885" lon="2.50234">
        <ele>252.4</ele>
        <time>2021-08-30T23:30:38.085Z</time>
      </trkpt>
      <trkpt lat="42.80881" lon="2.50233">
        <ele>252.4</ele>
        <time>2021-08-30T23:30:38.746Z</time>
      </trkpt>
      <trkpt lat="42.80869" lon="2.50235">
        <ele>252.5</ele>
        <time>2021-08-30T23:30:40.872Z</time>
      </trkpt>
      <trkpt lat="42.80851" lon="2.50235">
        <ele>252.5</ele>
        <time>2021-08-30T23:30:43.798Z</time>
      </trkpt>
      <trkpt lat="42.80796" lon="2.50239">
        <ele>252.1</ele>
        <time>2021-08-30T23:30:51.530Z</time>
      </trkpt>
      <trkpt lat="42.80759" lon="2.50239">
        <ele>251.6</ele>
        <time>2021-08-30T23:30:56.312Z</time>
      </trkpt>
      <trkpt lat="42.80699" lon="2.50243">
        <ele>253.3</ele>
        <time>2021-08-30T23:31:09.493Z</time>
      </trkpt>
      <trkpt lat="42.80676" lon="2.50245">
        <ele>254.3</ele>
        <time>2021-08-30T23:31:15.710Z</time>
      </trkpt>
      <trkpt lat="42.8062" lon="2.50259">
        <ele>255.2</ele>
        <time>2021-08-30T23:31:26.530Z</time>
      </trkpt>
      <trkpt lat="42.80603" lon="2.50259">
        <ele>255.2</ele>
        <time>2021-08-30T23:31:29.294Z</time>
      </trkpt>
      <trkpt lat="42.80548" lon="2.50234">
        <ele>255.2</ele>
        <time>2021-08-30T23:31:38.717Z</time>
      </trkpt>
      <trkpt lat="42.80467" lon="2.50195">
        <ele>262</ele>
        <time>2021-08-30T23:32:08.898Z</time>
      </trkpt>
      <trkpt lat="42.8046" lon="2.50189">
        <ele>263</ele>
        <time>2021-08-30T23:32:13.289Z</time>
      </trkpt>
      <trkpt lat="42.80451" lon="2.50182">
        <ele>264.3</ele>
        <time>2021-08-30T23:32:19.114Z</time>
      </trkpt>
      <trkpt lat="42.80439" lon="2.50166">
        <ele>265.1</ele>
        <time>2021-08-30T23:32:23.812Z</time>
      </trkpt>
      <trkpt lat="42.80418" lon="2.50122">
        <ele>264.4</ele>
        <time>2021-08-30T23:32:28.512Z</time>
      </trkpt>
      <trkpt lat="42.80406" lon="2.50087">
        <ele>264.7</ele>
        <time>2021-08-30T23:32:33.613Z</time>
      </trkpt>
      <trkpt lat="42.80395" lon="2.50057">
        <ele>265.6</ele>
        <time>2021-08-30T23:32:39.628Z</time>
      </trkpt>
      <trkpt lat="42.80371" lon="2.49987">
        <ele>263.2</ele>
        <time>2021-08-30T23:32:44.992Z</time>
      </trkpt>
      <trkpt lat="42.80362" lon="2.49965">
        <ele>261.7</ele>
        <time>2021-08-30T23:32:46.549Z</time>
      </trkpt>
      <trkpt lat="42.80338" lon="2.49916">
        <ele>256.5</ele>
        <time>2021-08-30T23:32:50.191Z</time>
      </trkpt>
      <trkpt lat="42.8033" lon="2.49906">
        <ele>256.4</ele>
        <time>2021-08-30T23:32:51.675Z</time>
      </trkpt>
      <trkpt lat="42.80306" lon="2.49882">
        <ele>256.9</ele>
        <time>2021-08-30T23:32:57.393Z</time>
      </trkpt>
      <trkpt lat="42.80255" lon="2.49838">
        <ele>252.9</ele>
        <time>2021-08-30T23:33:02.065Z</time>
      </trkpt>
      <trkpt lat="42.80231" lon="2.4982">
        <ele>253</ele>
        <time>2021-08-30T23:33:06.672Z</time>
      </trkpt>
      <trkpt lat="42.80211" lon="2.49808">
        <ele>254</ele>
        <time>2021-08-30T23:33:12.715Z</time>
      </trkpt>
      <trkpt lat="42.80183" lon="2.49795">
        <ele>255.4</ele>
        <time>2021-08-30T23:33:20.977Z</time>
      </trkpt>
      <trkpt lat="42.80169" lon="2.4979">
        <ele>256.1</ele>
        <time>2021-08-30T23:33:25.047Z</time>
      </trkpt>
      <trkpt lat="42.80155" lon="2.49785">
        <ele>260.2</ele>
        <time>2021-08-30T23:33:34.120Z</time>
      </trkpt>
      <trkpt lat="42.80139" lon="2.49782">
        <ele>265.9</ele>
        <time>2021-08-30T23:33:44.245Z</time>
      </trkpt>
      <trkpt lat="42.80112" lon="2.49782">
        <ele>276</ele>
        <time>2021-08-30T23:34:01.173Z</time>
      </trkpt>
      <trkpt lat="42.80096" lon="2.49786">
        <ele>282.5</ele>
        <time>2021-08-30T23:34:11.371Z</time>
      </trkpt>
      <trkpt lat="42.80068" lon="2.49795">
        <ele>286.7</ele>
        <time>2021-08-30T23:34:29.407Z</time>
      </trkpt>
      <trkpt lat="42.8006" lon="2.49796">
        <ele>286</ele>
        <time>2021-08-30T23:34:30.084Z</time>
      </trkpt>
      <trkpt lat="42.80046" lon="2.49793">
        <ele>284</ele>
        <time>2021-08-30T23:34:31.277Z</time>
      </trkpt>
      <trkpt lat="42.80023" lon="2.49781">
        <ele>278.6</ele>
        <time>2021-08-30T23:34:33.352Z</time>
      </trkpt>
      <trkpt lat="42.79993" lon="2.49761">
        <ele>268</ele>
        <time>2021-08-30T23:34:36.166Z</time>
      </trkpt>
      <trkpt lat="42.79985" lon="2.49755">
        <ele>264</ele>
        <time>2021-08-30T23:34:36.935Z</time>
      </trkpt>
      <trkpt lat="42.79973" lon="2.49751">
        <ele>259.5</ele>
        <time>2021-08-30T23:34:37.976Z</time>
      </trkpt>
      <trkpt lat="42.79953" lon="2.4975">
        <ele>253.5</ele>
        <time>2021-08-30T23:34:39.662Z</time>
      </trkpt>
      <trkpt lat="42.79947" lon="2.49746">
        <ele>252.9</ele>
        <time>2021-08-30T23:34:40.225Z</time>
      </trkpt>
      <trkpt lat="42.79943" lon="2.4974">
        <ele>253.5</ele>
        <time>2021-08-30T23:34:42.760Z</time>
      </trkpt>
      <trkpt lat="42.79937" lon="2.49711">
        <ele>259.6</ele>
        <time>2021-08-30T23:34:56.621Z</time>
      </trkpt>
      <trkpt lat="42.79935" lon="2.49706">
        <ele>260.1</ele>
        <time>2021-08-30T23:34:58.805Z</time>
      </trkpt>
      <trkpt lat="42.79932" lon="2.49703">
        <ele>259.6</ele>
        <time>2021-08-30T23:34:59.119Z</time>
      </trkpt>
      <trkpt lat="42.79924" lon="2.49699">
        <ele>257.2</ele>
        <time>2021-08-30T23:34:59.837Z</time>
      </trkpt>
      <trkpt lat="42.79825" lon="2.4967">
        <ele>253.1</ele>
        <time>2021-08-30T23:35:09.586Z</time>
      </trkpt>
      <trkpt lat="42.79812" lon="2.49669">
        <ele>252.8</ele>
        <time>2021-08-30T23:35:11.088Z</time>
      </trkpt>
      <trkpt lat="42.79804" lon="2.49669">
        <ele>252.6</ele>
        <time>2021-08-30T23:35:11.990Z</time>
      </trkpt>
      <trkpt lat="42.79745" lon="2.49677">
        <ele>249.3</ele>
        <time>2021-08-30T23:35:16.983Z</time>
      </trkpt>
      <trkpt lat="42.79693" lon="2.49675">
        <ele>246.9</ele>
        <time>2021-08-30T23:35:21.737Z</time>
      </trkpt>
      <trkpt lat="42.79682" lon="2.49678">
        <ele>246.2</ele>
        <time>2021-08-30T23:35:22.632Z</time>
      </trkpt>
      <trkpt lat="42.79675" lon="2.49683">
        <ele>245.6</ele>
        <time>2021-08-30T23:35:23.298Z</time>
      </trkpt>
      <trkpt lat="42.7967" lon="2.49687">
        <ele>245.1</ele>
        <time>2021-08-30T23:35:23.786Z</time>
      </trkpt>
      <trkpt lat="42.7966" lon="2.497">
        <ele>244.5</ele>
        <time>2021-08-30T23:35:25.081Z</time>
      </trkpt>
      <trkpt lat="42.7965" lon="2.49714">
        <ele>243.9</ele>
        <time>2021-08-30T23:35:26.444Z</time>
      </trkpt>
      <trkpt lat="42.79541" lon="2.49961">
        <ele>238.5</ele>
        <time>2021-08-30T23:35:50.161Z</time>
      </trkpt>
      <trkpt lat="42.79504" lon="2.5002">
        <ele>237.6</ele>
        <time>2021-08-30T23:35:57.314Z</time>
      </trkpt>
      <trkpt lat="42.79404" lon="2.50165">
        <ele>241.2</ele>
        <time>2021-08-30T23:36:27.971Z</time>
      </trkpt>
      <trkpt lat="42.79376" lon="2.50218">
        <ele>247.5</ele>
        <time>2021-08-30T23:36:57.182Z</time>
      </trkpt>
      <trkpt lat="42.79361" lon="2.50253">
        <ele>249.3</ele>
        <time>2021-08-30T23:37:06.261Z</time>
      </trkpt>
      <trkpt lat="42.79342" lon="2.50303">
        <ele>252.8</ele>
        <time>2021-08-30T23:37:21.461Z</time>
      </trkpt>
      <trkpt lat="42.79329" lon="2.50343">
        <ele>256.5</ele>
        <time>2021-08-30T23:37:37.399Z</time>
      </trkpt>
      <trkpt lat="42.79324" lon="2.50368">
        <ele>258.2</ele>
        <time>2021-08-30T23:37:44.684Z</time>
      </trkpt>
      <trkpt lat="42.79322" lon="2.50471">
        <ele>251.5</ele>
        <time>2021-08-30T23:37:51.054Z</time>
      </trkpt>
      <trkpt lat="42.79326" lon="2.50518">
        <ele>246.2</ele>
        <time>2021-08-30T23:37:53.979Z</time>
      </trkpt>
      <trkpt lat="42.79334" lon="2.50577">
        <ele>239.4</ele>
        <time>2021-08-30T23:37:57.688Z</time>
      </trkpt>
      <trkpt lat="42.79345" lon="2.50626">
        <ele>240.4</ele>
        <time>2021-08-30T23:38:05.768Z</time>
      </trkpt>
      <trkpt lat="42.79353" lon="2.5067">
        <ele>241.5</ele>
        <time>2021-08-30T23:38:13.524Z</time>
      </trkpt>
      <trkpt lat="42.79356" lon="2.50749">
        <ele>239.9</ele>
        <time>2021-08-30T23:38:19.892Z</time>
      </trkpt>
      <trkpt lat="42.79341" lon="2.51081">
        <ele>237.1</ele>
        <time>2021-08-30T23:38:52.279Z</time>
      </trkpt>
      <trkpt lat="42.79335" lon="2.51142">
        <ele>236.3</ele>
        <time>2021-08-30T23:38:57.821Z</time>
      </trkpt>
      <trkpt lat="42.79325" lon="2.51206">
        <ele>239.1</ele>
        <time>2021-08-30T23:39:12.254Z</time>
      </trkpt>
      <trkpt lat="42.79276" lon="2.515">
        <ele>239.6</ele>
        <time>2021-08-30T23:39:48.973Z</time>
      </trkpt>
      <trkpt lat="42.79266" lon="2.51577">
        <ele>235.7</ele>
        <time>2021-08-30T23:39:53.807Z</time>
      </trkpt>
      <trkpt lat="42.79257" lon="2.51634">
        <ele>234.6</ele>
        <time>2021-08-30T23:39:58.596Z</time>
      </trkpt>
      <trkpt lat="42.79221" lon="2.51798">
        <ele>232.6</ele>
        <time>2021-08-30T23:40:14.350Z</time>
      </trkpt>
      <trkpt lat="42.79206" lon="2.51848">
        <ele>233.1</ele>
        <time>2021-08-30T23:40:21.635Z</time>
      </trkpt>
      <trkpt lat="42.79189" lon="2.51895">
        <ele>234.2</ele>
        <time>2021-08-30T23:40:30.104Z</time>
      </trkpt>
      <trkpt lat="42.79175" lon="2.51925">
        <ele>234.5</ele>
        <time>2021-08-30T23:40:34.843Z</time>
      </trkpt>
      <trkpt lat="42.7915" lon="2.51968">
        <ele>236.2</ele>
        <time>2021-08-30T23:40:45.514Z</time>
      </trkpt>
      <trkpt lat="42.79103" lon="2.52075">
        <ele>234.1</ele>
        <time>2021-08-30T23:40:56.077Z</time>
      </trkpt>
      <trkpt lat="42.79086" lon="2.52117">
        <ele>232.4</ele>
        <time>2021-08-30T23:40:59.233Z</time>
      </trkpt>
      <trkpt lat="42.79042" lon="2.52197">
        <ele>235.6</ele>
        <time>2021-08-30T23:41:19.092Z</time>
      </trkpt>
      <trkpt lat="42.79034" lon="2.52224">
        <ele>234.7</ele>
        <time>2021-08-30T23:41:21.118Z</time>
      </trkpt>
      <trkpt lat="42.79024" lon="2.52267">
        <ele>232.9</ele>
        <time>2021-08-30T23:41:23.935Z</time>
      </trkpt>
      <trkpt lat="42.79014" lon="2.52294">
        <ele>232.2</ele>
        <time>2021-08-30T23:41:26.270Z</time>
      </trkpt>
      <trkpt lat="42.79005" lon="2.52312">
        <ele>231.5</ele>
        <time>2021-08-30T23:41:27.762Z</time>
      </trkpt>
      <trkpt lat="42.78991" lon="2.5233">
        <ele>230.7</ele>
        <time>2021-08-30T23:41:29.597Z</time>
      </trkpt>
      <trkpt lat="42.78974" lon="2.52344">
        <ele>230.5</ele>
        <time>2021-08-30T23:41:32.281Z</time>
      </trkpt>
      <trkpt lat="42.78896" lon="2.52394">
        <ele>229.9</ele>
        <time>2021-08-30T23:41:44.942Z</time>
      </trkpt>
      <trkpt lat="42.78839" lon="2.52424">
        <ele>229.2</ele>
        <time>2021-08-30T23:41:53.051Z</time>
      </trkpt>
      <trkpt lat="42.78822" lon="2.52437">
        <ele>229.7</ele>
        <time>2021-08-30T23:41:57.193Z</time>
      </trkpt>
      <trkpt lat="42.78809" lon="2.52444">
        <ele>230.4</ele>
        <time>2021-08-30T23:42:01.168Z</time>
      </trkpt>
      <trkpt lat="42.78778" lon="2.52446">
        <ele>233.1</ele>
        <time>2021-08-30T23:42:12.810Z</time>
      </trkpt>
      <trkpt lat="42.78743" lon="2.52444">
        <ele>235.5</ele>
        <time>2021-08-30T23:42:24.141Z</time>
      </trkpt>
      <trkpt lat="42.7872" lon="2.5244">
        <ele>234.3</ele>
        <time>2021-08-30T23:42:26.158Z</time>
      </trkpt>
      <trkpt lat="42.78696" lon="2.52432">
        <ele>233.1</ele>
        <time>2021-08-30T23:42:28.368Z</time>
      </trkpt>
      <trkpt lat="42.78668" lon="2.52421">
        <ele>230.9</ele>
        <time>2021-08-30T23:42:30.823Z</time>
      </trkpt>
      <trkpt lat="42.78651" lon="2.52408">
        <ele>232.6</ele>
        <time>2021-08-30T23:42:38.150Z</time>
      </trkpt>
      <trkpt lat="42.78636" lon="2.52391">
        <ele>234.7</ele>
        <time>2021-08-30T23:42:47.059Z</time>
      </trkpt>
      <trkpt lat="42.78629" lon="2.52379">
        <ele>235.7</ele>
        <time>2021-08-30T23:42:51.350Z</time>
      </trkpt>
      <trkpt lat="42.78585" lon="2.523">
        <ele>233.1</ele>
        <time>2021-08-30T23:42:58.688Z</time>
      </trkpt>
      <trkpt lat="42.78563" lon="2.52211">
        <ele>239.6</ele>
        <time>2021-08-30T23:43:26.290Z</time>
      </trkpt>
      <trkpt lat="42.78552" lon="2.52144">
        <ele>243.6</ele>
        <time>2021-08-30T23:43:44.025Z</time>
      </trkpt>
      <trkpt lat="42.78548" lon="2.52135">
        <ele>243.8</ele>
        <time>2021-08-30T23:43:45.670Z</time>
      </trkpt>
      <trkpt lat="42.78537" lon="2.5211">
        <ele>243.4</ele>
        <time>2021-08-30T23:43:48.264Z</time>
      </trkpt>
      <trkpt lat="42.78517" lon="2.52078">
        <ele>239.7</ele>
        <time>2021-08-30T23:43:50.863Z</time>
      </trkpt>
      <trkpt lat="42.78438" lon="2.52017">
        <ele>241.4</ele>
        <time>2021-08-30T23:44:08.677Z</time>
      </trkpt>
      <trkpt lat="42.78423" lon="2.52014">
        <ele>239.2</ele>
        <time>2021-08-30T23:44:09.954Z</time>
      </trkpt>
      <trkpt lat="42.78414" lon="2.52009">
        <ele>239.1</ele>
        <time>2021-08-30T23:44:11.264Z</time>
      </trkpt>
      <trkpt lat="42.78402" lon="2.52011">
        <ele>239</ele>
        <time>2021-08-30T23:44:12.938Z</time>
      </trkpt>
      <trkpt lat="42.78375" lon="2.52019">
        <ele>237.8</ele>
        <time>2021-08-30T23:44:15.526Z</time>
      </trkpt>
      <trkpt lat="42.78347" lon="2.52017">
        <ele>238.8</ele>
        <time>2021-08-30T23:44:22.295Z</time>
      </trkpt>
      <trkpt lat="42.78328" lon="2.5202">
        <ele>238.1</ele>
        <time>2021-08-30T23:44:24.207Z</time>
      </trkpt>
      <trkpt lat="42.78282" lon="2.52041">
        <ele>231.8</ele>
        <time>2021-08-30T23:44:28.294Z</time>
      </trkpt>
      <trkpt lat="42.78249" lon="2.52059">
        <ele>227.8</ele>
        <time>2021-08-30T23:44:31.289Z</time>
      </trkpt>
      <trkpt lat="42.78242" lon="2.52061">
        <ele>227.2</ele>
        <time>2021-08-30T23:44:31.891Z</time>
      </trkpt>
      <trkpt lat="42.78219" lon="2.52059">
        <ele>226.6</ele>
        <time>2021-08-30T23:44:34.461Z</time>
      </trkpt>
      <trkpt lat="42.78206" lon="2.52051">
        <ele>226.4</ele>
        <time>2021-08-30T23:44:36.293Z</time>
      </trkpt>
      <trkpt lat="42.78201" lon="2.52044">
        <ele>226.3</ele>
        <time>2021-08-30T23:44:37.215Z</time>
      </trkpt>
      <trkpt lat="42.78198" lon="2.52035">
        <ele>226.3</ele>
        <time>2021-08-30T23:44:38.394Z</time>
      </trkpt>
      <trkpt lat="42.78198" lon="2.52011">
        <ele>226.8</ele>
        <time>2021-08-30T23:44:42.263Z</time>
      </trkpt>
      <trkpt lat="42.78202" lon="2.51995">
        <ele>227.9</ele>
        <time>2021-08-30T23:44:46.985Z</time>
      </trkpt>
      <trkpt lat="42.7822" lon="2.51945">
        <ele>232.9</ele>
        <time>2021-08-30T23:45:09.066Z</time>
      </trkpt>
      <trkpt lat="42.78226" lon="2.5192">
        <ele>235.1</ele>
        <time>2021-08-30T23:45:18.511Z</time>
      </trkpt>
      <trkpt lat="42.78231" lon="2.51858">
        <ele>238.9</ele>
        <time>2021-08-30T23:45:35.112Z</time>
      </trkpt>
      <trkpt lat="42.7823" lon="2.51833">
        <ele>239.8</ele>
        <time>2021-08-30T23:45:40.300Z</time>
      </trkpt>
      <trkpt lat="42.78229" lon="2.51826">
        <ele>241</ele>
        <time>2021-08-30T23:45:43.581Z</time>
      </trkpt>
      <trkpt lat="42.78227" lon="2.51821">
        <ele>241.4</ele>
        <time>2021-08-30T23:45:45.277Z</time>
      </trkpt>
      <trkpt lat="42.78208" lon="2.51797">
        <ele>240.4</ele>
        <time>2021-08-30T23:45:47.817Z</time>
      </trkpt>
      <trkpt lat="42.78174" lon="2.51744">
        <ele>237.7</ele>
        <time>2021-08-30T23:45:52.293Z</time>
      </trkpt>
      <trkpt lat="42.78162" lon="2.51715">
        <ele>240.8</ele>
        <time>2021-08-30T23:46:06.284Z</time>
      </trkpt>
      <trkpt lat="42.78158" lon="2.51711">
        <ele>241.9</ele>
        <time>2021-08-30T23:46:09.395Z</time>
      </trkpt>
      <trkpt lat="42.78148" lon="2.51711">
        <ele>242.9</ele>
        <time>2021-08-30T23:46:13.622Z</time>
      </trkpt>
      <trkpt lat="42.78145" lon="2.51714">
        <ele>242.6</ele>
        <time>2021-08-30T23:46:13.935Z</time>
      </trkpt>
      <trkpt lat="42.7814" lon="2.51722">
        <ele>241.3</ele>
        <time>2021-08-30T23:46:14.585Z</time>
      </trkpt>
      <trkpt lat="42.78136" lon="2.51729">
        <ele>240</ele>
        <time>2021-08-30T23:46:15.133Z</time>
      </trkpt>
      <trkpt lat="42.78126" lon="2.51741">
        <ele>237.7</ele>
        <time>2021-08-30T23:46:16.256Z</time>
      </trkpt>
      <trkpt lat="42.78115" lon="2.51745">
        <ele>237.2</ele>
        <time>2021-08-30T23:46:17.318Z</time>
      </trkpt>
      <trkpt lat="42.78103" lon="2.51745">
        <ele>237.7</ele>
        <time>2021-08-30T23:46:20.472Z</time>
      </trkpt>
      <trkpt lat="42.7807" lon="2.51736">
        <ele>245.3</ele>
        <time>2021-08-30T23:46:41.571Z</time>
      </trkpt>
      <trkpt lat="42.7805" lon="2.51737">
        <ele>250.5</ele>
        <time>2021-08-30T23:46:54.118Z</time>
      </trkpt>
      <trkpt lat="42.78027" lon="2.51752">
        <ele>250.6</ele>
        <time>2021-08-30T23:46:58.418Z</time>
      </trkpt>
      <trkpt lat="42.77983" lon="2.51797">
        <ele>249.5</ele>
        <time>2021-08-30T23:47:04.988Z</time>
      </trkpt>
      <trkpt lat="42.7796" lon="2.51856">
        <ele>247.2</ele>
        <time>2021-08-30T23:47:09.439Z</time>
      </trkpt>
      <trkpt lat="42.77957" lon="2.51868">
        <ele>247.4</ele>
        <time>2021-08-30T23:47:11.322Z</time>
      </trkpt>
      <trkpt lat="42.7794" lon="2.52061">
        <ele>236.2</ele>
        <time>2021-08-30T23:47:23.342Z</time>
      </trkpt>
      <trkpt lat="42.7794" lon="2.5209">
        <ele>233.4</ele>
        <time>2021-08-30T23:47:25.135Z</time>
      </trkpt>
      <trkpt lat="42.77943" lon="2.52112">
        <ele>229.9</ele>
        <time>2021-08-30T23:47:26.518Z</time>
      </trkpt>
      <trkpt lat="42.77939" lon="2.52129">
        <ele>228.4</ele>
        <time>2021-08-30T23:47:27.622Z</time>
      </trkpt>
      <trkpt lat="42.77932" lon="2.5214">
        <ele>228</ele>
        <time>2021-08-30T23:47:28.682Z</time>
      </trkpt>
      <trkpt lat="42.77922" lon="2.52146">
        <ele>228.3</ele>
        <time>2021-08-30T23:47:31.054Z</time>
      </trkpt>
      <trkpt lat="42.77891" lon="2.52147">
        <ele>233.9</ele>
        <time>2021-08-30T23:47:50.495Z</time>
      </trkpt>
      <trkpt lat="42.77866" lon="2.52153">
        <ele>237</ele>
        <time>2021-08-30T23:48:04.173Z</time>
      </trkpt>
      <trkpt lat="42.77848" lon="2.52159">
        <ele>238.3</ele>
        <time>2021-08-30T23:48:10.241Z</time>
      </trkpt>
      <trkpt lat="42.77781" lon="2.52211">
        <ele>238.9</ele>
        <time>2021-08-30T23:48:23.736Z</time>
      </trkpt>
      <trkpt lat="42.77762" lon="2.52245">
        <ele>232.9</ele>
        <time>2021-08-30T23:48:26.378Z</time>
      </trkpt>
      <trkpt lat="42.77758" lon="2.52278">
        <ele>229.9</ele>
        <time>2021-08-30T23:48:28.446Z</time>
      </trkpt>
      <trkpt lat="42.77757" lon="2.52307">
        <ele>227.7</ele>
        <time>2021-08-30T23:48:30.242Z</time>
      </trkpt>
      <trkpt lat="42.77762" lon="2.52351">
        <ele>223.7</ele>
        <time>2021-08-30T23:48:32.995Z</time>
      </trkpt>
      <trkpt lat="42.77764" lon="2.52394">
        <ele>219.6</ele>
        <time>2021-08-30T23:48:35.659Z</time>
      </trkpt>
      <trkpt lat="42.77759" lon="2.52416">
        <ele>217.4</ele>
        <time>2021-08-30T23:48:37.083Z</time>
      </trkpt>
      <trkpt lat="42.77751" lon="2.52424">
        <ele>216.8</ele>
        <time>2021-08-30T23:48:37.887Z</time>
      </trkpt>
      <trkpt lat="42.77745" lon="2.52427">
        <ele>216.7</ele>
        <time>2021-08-30T23:48:38.691Z</time>
      </trkpt>
      <trkpt lat="42.77735" lon="2.52426">
        <ele>216.8</ele>
        <time>2021-08-30T23:48:40.485Z</time>
      </trkpt>
      <trkpt lat="42.77716" lon="2.52404">
        <ele>217.5</ele>
        <time>2021-08-30T23:48:45.941Z</time>
      </trkpt>
      <trkpt lat="42.777" lon="2.52364">
        <ele>219.1</ele>
        <time>2021-08-30T23:48:55.312Z</time>
      </trkpt>
      <trkpt lat="42.77677" lon="2.52283">
        <ele>224.5</ele>
        <time>2021-08-30T23:49:18.762Z</time>
      </trkpt>
      <trkpt lat="42.77666" lon="2.52263">
        <ele>226.3</ele>
        <time>2021-08-30T23:49:26.377Z</time>
      </trkpt>
      <trkpt lat="42.77655" lon="2.5225">
        <ele>227.2</ele>
        <time>2021-08-30T23:49:30.863Z</time>
      </trkpt>
      <trkpt lat="42.77621" lon="2.52235">
        <ele>228.5</ele>
        <time>2021-08-30T23:49:39.574Z</time>
      </trkpt>
      <trkpt lat="42.77575" lon="2.52218">
        <ele>227.1</ele>
        <time>2021-08-30T23:49:44.702Z</time>
      </trkpt>
      <trkpt lat="42.77538" lon="2.52186">
        <ele>225.7</ele>
        <time>2021-08-30T23:49:49.292Z</time>
      </trkpt>
      <trkpt lat="42.77529" lon="2.52168">
        <ele>222.7</ele>
        <time>2021-08-30T23:49:50.639Z</time>
      </trkpt>
      <trkpt lat="42.77526" lon="2.52143">
        <ele>222.3</ele>
        <time>2021-08-30T23:49:52.821Z</time>
      </trkpt>
      <trkpt lat="42.77529" lon="2.52089">
        <ele>224.4</ele>
        <time>2021-08-30T23:50:04.332Z</time>
      </trkpt>
      <trkpt lat="42.77529" lon="2.52036">
        <ele>227.8</ele>
        <time>2021-08-30T23:50:18.977Z</time>
      </trkpt>
      <trkpt lat="42.77524" lon="2.52001">
        <ele>227.6</ele>
        <time>2021-08-30T23:50:22.632Z</time>
      </trkpt>
      <trkpt lat="42.77512" lon="2.51953">
        <ele>227.7</ele>
        <time>2021-08-30T23:50:28.835Z</time>
      </trkpt>
      <trkpt lat="42.77486" lon="2.51871">
        <ele>228.9</ele>
        <time>2021-08-30T23:50:41.638Z</time>
      </trkpt>
      <trkpt lat="42.7747" lon="2.51835">
        <ele>227.5</ele>
        <time>2021-08-30T23:50:44.482Z</time>
      </trkpt>
      <trkpt lat="42.77413" lon="2.51765">
        <ele>217.6</ele>
        <time>2021-08-30T23:50:50.947Z</time>
      </trkpt>
      <trkpt lat="42.7738" lon="2.51741">
        <ele>216.2</ele>
        <time>2021-08-30T23:50:54.657Z</time>
      </trkpt>
      <trkpt lat="42.77363" lon="2.51735">
        <ele>214.7</ele>
        <time>2021-08-30T23:50:56.136Z</time>
      </trkpt>
      <trkpt lat="42.77337" lon="2.51733">
        <ele>211.2</ele>
        <time>2021-08-30T23:50:58.330Z</time>
      </trkpt>
      <trkpt lat="42.77329" lon="2.51728">
        <ele>211.9</ele>
        <time>2021-08-30T23:51:01.432Z</time>
      </trkpt>
      <trkpt lat="42.77325" lon="2.5172">
        <ele>213.4</ele>
        <time>2021-08-30T23:51:05.886Z</time>
      </trkpt>
      <trkpt lat="42.77323" lon="2.51708">
        <ele>215.1</ele>
        <time>2021-08-30T23:51:11.549Z</time>
      </trkpt>
      <trkpt lat="42.77324" lon="2.51696">
        <ele>216.6</ele>
        <time>2021-08-30T23:51:17.107Z</time>
      </trkpt>
      <trkpt lat="42.77331" lon="2.5165">
        <ele>222.6</ele>
        <time>2021-08-30T23:51:38.726Z</time>
      </trkpt>
      <trkpt lat="42.77334" lon="2.51617">
        <ele>226.6</ele>
        <time>2021-08-30T23:51:54.029Z</time>
      </trkpt>
      <trkpt lat="42.77326" lon="2.51583">
        <ele>228.1</ele>
        <time>2021-08-30T23:52:01.848Z</time>
      </trkpt>
      <trkpt lat="42.77317" lon="2.5156">
        <ele>228.1</ele>
        <time>2021-08-30T23:52:04.958Z</time>
      </trkpt>
      <trkpt lat="42.77285" lon="2.51488">
        <ele>223.2</ele>
        <time>2021-08-30T23:52:10.163Z</time>
      </trkpt>
      <trkpt lat="42.7727" lon="2.51463">
        <ele>221.4</ele>
        <time>2021-08-30T23:52:12.160Z</time>
      </trkpt>
      <trkpt lat="42.77256" lon="2.51446">
        <ele>219</ele>
        <time>2021-08-30T23:52:13.740Z</time>
      </trkpt>
      <trkpt lat="42.7723" lon="2.51428">
        <ele>216.5</ele>
        <time>2021-08-30T23:52:16.197Z</time>
      </trkpt>
      <trkpt lat="42.77219" lon="2.51413">
        <ele>216.6</ele>
        <time>2021-08-30T23:52:18.885Z</time>
      </trkpt>
      <trkpt lat="42.77199" lon="2.51355">
        <ele>223.9</ele>
        <time>2021-08-30T23:52:48.375Z</time>
      </trkpt>
      <trkpt lat="42.77189" lon="2.51337">
        <ele>223.5</ele>
        <time>2021-08-30T23:52:50.262Z</time>
      </trkpt>
      <trkpt lat="42.77175" lon="2.51321">
        <ele>221</ele>
        <time>2021-08-30T23:52:51.802Z</time>
      </trkpt>
      <trkpt lat="42.77163" lon="2.51314">
        <ele>218.8</ele>
        <time>2021-08-30T23:52:52.901Z</time>
      </trkpt>
      <trkpt lat="42.77127" lon="2.5131">
        <ele>217.5</ele>
        <time>2021-08-30T23:52:56.534Z</time>
      </trkpt>
      <trkpt lat="42.77111" lon="2.51315">
        <ele>215.9</ele>
        <time>2021-08-30T23:52:57.916Z</time>
      </trkpt>
      <trkpt lat="42.77075" lon="2.51341">
        <ele>210.8</ele>
        <time>2021-08-30T23:53:01.349Z</time>
      </trkpt>
      <trkpt lat="42.77062" lon="2.51357">
        <ele>208.7</ele>
        <time>2021-08-30T23:53:02.825Z</time>
      </trkpt>
      <trkpt lat="42.77055" lon="2.51371">
        <ele>207.1</ele>
        <time>2021-08-30T23:53:03.873Z</time>
      </trkpt>
      <trkpt lat="42.77049" lon="2.51387">
        <ele>205.6</ele>
        <time>2021-08-30T23:53:04.984Z</time>
      </trkpt>
      <trkpt lat="42.7704" lon="2.51392">
        <ele>205.4</ele>
        <time>2021-08-30T23:53:06.137Z</time>
      </trkpt>
      <trkpt lat="42.77029" lon="2.51389">
        <ele>206.2</ele>
        <time>2021-08-30T23:53:09.843Z</time>
      </trkpt>
      <trkpt lat="42.77012" lon="2.51379">
        <ele>207.5</ele>
        <time>2021-08-30T23:53:15.908Z</time>
      </trkpt>
      <trkpt lat="42.77003" lon="2.51374">
        <ele>208</ele>
        <time>2021-08-30T23:53:18.697Z</time>
      </trkpt>
      <trkpt lat="42.76987" lon="2.51375">
        <ele>208.5</ele>
        <time>2021-08-30T23:53:22.343Z</time>
      </trkpt>
      <trkpt lat="42.76975" lon="2.51381">
        <ele>208.4</ele>
        <time>2021-08-30T23:53:24.124Z</time>
      </trkpt>
      <trkpt lat="42.76957" lon="2.51395">
        <ele>207.3</ele>
        <time>2021-08-30T23:53:25.907Z</time>
      </trkpt>
      <trkpt lat="42.76942" lon="2.514">
        <ele>206.8</ele>
        <time>2021-08-30T23:53:27.518Z</time>
      </trkpt>
      <trkpt lat="42.76923" lon="2.51401">
        <ele>206.6</ele>
        <time>2021-08-30T23:53:30.072Z</time>
      </trkpt>
      <trkpt lat="42.7689" lon="2.51395">
        <ele>204.7</ele>
        <time>2021-08-30T23:53:32.843Z</time>
      </trkpt>
      <trkpt lat="42.76861" lon="2.51386">
        <ele>202.9</ele>
        <time>2021-08-30T23:53:35.251Z</time>
      </trkpt>
      <trkpt lat="42.76849" lon="2.51374">
        <ele>203.4</ele>
        <time>2021-08-30T23:53:38.746Z</time>
      </trkpt>
      <trkpt lat="42.76834" lon="2.51353">
        <ele>205</ele>
        <time>2021-08-30T23:53:46.021Z</time>
      </trkpt>
      <trkpt lat="42.7682" lon="2.51318">
        <ele>207</ele>
        <time>2021-08-30T23:53:55.474Z</time>
      </trkpt>
      <trkpt lat="42.76813" lon="2.51298">
        <ele>207.5</ele>
        <time>2021-08-30T23:53:59.154Z</time>
      </trkpt>
      <trkpt lat="42.76811" lon="2.51285">
        <ele>208.3</ele>
        <time>2021-08-30T23:54:02.662Z</time>
      </trkpt>
      <trkpt lat="42.76813" lon="2.51272">
        <ele>210</ele>
        <time>2021-08-30T23:54:08.775Z</time>
      </trkpt>
      <trkpt lat="42.76816" lon="2.51258">
        <ele>212.1</ele>
        <time>2021-08-30T23:54:15.487Z</time>
      </trkpt>
      <trkpt lat="42.76825" lon="2.51232">
        <ele>216.6</ele>
        <time>2021-08-30T23:54:28.717Z</time>
      </trkpt>
      <trkpt lat="42.76826" lon="2.51223">
        <ele>217.5</ele>
        <time>2021-08-30T23:54:32.906Z</time>
      </trkpt>
      <trkpt lat="42.76827" lon="2.51213">
        <ele>218.5</ele>
        <time>2021-08-30T23:54:37.551Z</time>
      </trkpt>
      <trkpt lat="42.76824" lon="2.51204">
        <ele>218.8</ele>
        <time>2021-08-30T23:54:39.449Z</time>
      </trkpt>
      <trkpt lat="42.76816" lon="2.51197">
        <ele>218.2</ele>
        <time>2021-08-30T23:54:40.203Z</time>
      </trkpt>
      <trkpt lat="42.76808" lon="2.51196">
        <ele>217.2</ele>
        <time>2021-08-30T23:54:40.880Z</time>
      </trkpt>
      <trkpt lat="42.76798" lon="2.51201">
        <ele>215</ele>
        <time>2021-08-30T23:54:41.778Z</time>
      </trkpt>
      <trkpt lat="42.76784" lon="2.51214">
        <ele>210.8</ele>
        <time>2021-08-30T23:54:43.205Z</time>
      </trkpt>
      <trkpt lat="42.76776" lon="2.51219">
        <ele>208.5</ele>
        <time>2021-08-30T23:54:43.947Z</time>
      </trkpt>
      <trkpt lat="42.76759" lon="2.51217">
        <ele>205.8</ele>
        <time>2021-08-30T23:54:45.384Z</time>
      </trkpt>
      <trkpt lat="42.76749" lon="2.51209">
        <ele>205.7</ele>
        <time>2021-08-30T23:54:46.982Z</time>
      </trkpt>
      <trkpt lat="42.76717" lon="2.51143">
        <ele>213.2</ele>
        <time>2021-08-30T23:55:21.270Z</time>
      </trkpt>
      <trkpt lat="42.76707" lon="2.51127">
        <ele>214.8</ele>
        <time>2021-08-30T23:55:28.035Z</time>
      </trkpt>
      <trkpt lat="42.76695" lon="2.51114">
        <ele>215.3</ele>
        <time>2021-08-30T23:55:31.589Z</time>
      </trkpt>
      <trkpt lat="42.76682" lon="2.51103">
        <ele>215.3</ele>
        <time>2021-08-30T23:55:34.077Z</time>
      </trkpt>
      <trkpt lat="42.76663" lon="2.51089">
        <ele>216.3</ele>
        <time>2021-08-30T23:55:40.070Z</time>
      </trkpt>
      <trkpt lat="42.76653" lon="2.51085">
        <ele>219.2</ele>
        <time>2021-08-30T23:55:46.604Z</time>
      </trkpt>
      <trkpt lat="42.76646" lon="2.51087">
        <ele>220.1</ele>
        <time>2021-08-30T23:55:50.645Z</time>
      </trkpt>
      <trkpt lat="42.76636" lon="2.51093">
        <ele>220.5</ele>
        <time>2021-08-30T23:55:53.317Z</time>
      </trkpt>
      <trkpt lat="42.76614" lon="2.51124">
        <ele>216.7</ele>
        <time>2021-08-30T23:55:55.983Z</time>
      </trkpt>
      <trkpt lat="42.76566" lon="2.51183">
        <ele>214.4</ele>
        <time>2021-08-30T23:56:02.512Z</time>
      </trkpt>
      <trkpt lat="42.76526" lon="2.51225">
        <ele>217.7</ele>
        <time>2021-08-30T23:56:18.469Z</time>
      </trkpt>
      <trkpt lat="42.76514" lon="2.51236">
        <ele>218.2</ele>
        <time>2021-08-30T23:56:21.910Z</time>
      </trkpt>
      <trkpt lat="42.76463" lon="2.51273">
        <ele>218.1</ele>
        <time>2021-08-30T23:56:31.059Z</time>
      </trkpt>
      <trkpt lat="42.76448" lon="2.51291">
        <ele>215.5</ele>
        <time>2021-08-30T23:56:32.743Z</time>
      </trkpt>
      <trkpt lat="42.76434" lon="2.51316">
        <ele>210.7</ele>
        <time>2021-08-30T23:56:34.688Z</time>
      </trkpt>
      <trkpt lat="42.76429" lon="2.51322">
        <ele>209.9</ele>
        <time>2021-08-30T23:56:35.249Z</time>
      </trkpt>
      <trkpt lat="42.76422" lon="2.51325">
        <ele>210.4</ele>
        <time>2021-08-30T23:56:37.616Z</time>
      </trkpt>
      <trkpt lat="42.76416" lon="2.51324">
        <ele>211.9</ele>
        <time>2021-08-30T23:56:41.406Z</time>
      </trkpt>
      <trkpt lat="42.76409" lon="2.51319">
        <ele>214.5</ele>
        <time>2021-08-30T23:56:46.361Z</time>
      </trkpt>
      <trkpt lat="42.76404" lon="2.51311">
        <ele>217.6</ele>
        <time>2021-08-30T23:56:51.197Z</time>
      </trkpt>
      <trkpt lat="42.76393" lon="2.51286">
        <ele>226.4</ele>
        <time>2021-08-30T23:57:04.612Z</time>
      </trkpt>
      <trkpt lat="42.76388" lon="2.51279">
        <ele>229</ele>
        <time>2021-08-30T23:57:09.107Z</time>
      </trkpt>
      <trkpt lat="42.76377" lon="2.51275">
        <ele>231.5</ele>
        <time>2021-08-30T23:57:16.245Z</time>
      </trkpt>
      <trkpt lat="42.76359" lon="2.51281">
        <ele>232.2</ele>
        <time>2021-08-30T23:57:20.851Z</time>
      </trkpt>
      <trkpt lat="42.7635" lon="2.51288">
        <ele>231.6</ele>
        <time>2021-08-30T23:57:21.707Z</time>
      </trkpt>
      <trkpt lat="42.76318" lon="2.5132">
        <ele>231.3</ele>
        <time>2021-08-30T23:57:27.258Z</time>
      </trkpt>
      <trkpt lat="42.76255" lon="2.51391">
        <ele>233.8</ele>
        <time>2021-08-30T23:57:45.718Z</time>
      </trkpt>
      <trkpt lat="42.7624" lon="2.51419">
        <ele>230.7</ele>
        <time>2021-08-30T23:57:47.862Z</time>
      </trkpt>
      <trkpt lat="42.76222" lon="2.51449">
        <ele>229.2</ele>
        <time>2021-08-30T23:57:50.317Z</time>
      </trkpt>
      <trkpt lat="42.76208" lon="2.51467">
        <ele>229.9</ele>
        <time>2021-08-30T23:57:55.009Z</time>
      </trkpt>
      <trkpt lat="42.76204" lon="2.51472">
        <ele>230.3</ele>
        <time>2021-08-30T23:57:56.835Z</time>
      </trkpt>
      <trkpt lat="42.76189" lon="2.51489">
        <ele>232.3</ele>
        <time>2021-08-30T23:58:05.288Z</time>
      </trkpt>
      <trkpt lat="42.76182" lon="2.51493">
        <ele>233.9</ele>
        <time>2021-08-30T23:58:10.047Z</time>
      </trkpt>
      <trkpt lat="42.7618" lon="2.51497">
        <ele>234.1</ele>
        <time>2021-08-30T23:58:11.101Z</time>
      </trkpt>
      <trkpt lat="42.76166" lon="2.5151">
        <ele>236.5</ele>
        <time>2021-08-30T23:58:21.723Z</time>
      </trkpt>
      <trkpt lat="42.76153" lon="2.51522">
        <ele>236.3</ele>
        <time>2021-08-30T23:58:23.773Z</time>
      </trkpt>
      <trkpt lat="42.76149" lon="2.51527">
        <ele>236.2</ele>
        <time>2021-08-30T23:58:24.434Z</time>
      </trkpt>
      <trkpt lat="42.76135" lon="2.5154">
        <ele>236.8</ele>
        <time>2021-08-30T23:58:28.510Z</time>
      </trkpt>
      <trkpt lat="42.76141" lon="2.51553">
        <ele>234.4</ele>
        <time>2021-08-30T23:58:29.460Z</time>
      </trkpt>
      <trkpt lat="42.76144" lon="2.51565">
        <ele>232.5</ele>
        <time>2021-08-30T23:58:30.244Z</time>
      </trkpt>
      <trkpt lat="42.76145" lon="2.51575">
        <ele>231.2</ele>
        <time>2021-08-30T23:58:30.868Z</time>
      </trkpt>
      <trkpt lat="42.76144" lon="2.51585">
        <ele>230.2</ele>
        <time>2021-08-30T23:58:31.492Z</time>
      </trkpt>
      <trkpt lat="42.76144" lon="2.5159">
        <ele>229.4</ele>
        <time>2021-08-30T23:58:31.802Z</time>
      </trkpt>
      <trkpt lat="42.76141" lon="2.51606">
        <ele>227.7</ele>
        <time>2021-08-30T23:58:32.823Z</time>
      </trkpt>
      <trkpt lat="42.7612" lon="2.51677">
        <ele>226.2</ele>
        <time>2021-08-30T23:58:39.046Z</time>
      </trkpt>
      <trkpt lat="42.76114" lon="2.51689">
        <ele>226.3</ele>
        <time>2021-08-30T23:58:40.941Z</time>
      </trkpt>
      <trkpt lat="42.76083" lon="2.51737">
        <ele>228.3</ele>
        <time>2021-08-30T23:58:53.454Z</time>
      </trkpt>
      <trkpt lat="42.76022" lon="2.51807">
        <ele>223.6</ele>
        <time>2021-08-30T23:58:59.994Z</time>
      </trkpt>
      <trkpt lat="42.76013" lon="2.51815">
        <ele>224.1</ele>
        <time>2021-08-30T23:59:02.980Z</time>
      </trkpt>
      <trkpt lat="42.75998" lon="2.51824">
        <ele>226</ele>
        <time>2021-08-30T23:59:11.180Z</time>
      </trkpt>
      <trkpt lat="42.75974" lon="2.51853">
        <ele>223</ele>
        <time>2021-08-30T23:59:13.883Z</time>
      </trkpt>
      <trkpt lat="42.75957" lon="2.51866">
        <ele>223.1</ele>
        <time>2021-08-30T23:59:17.208Z</time>
      </trkpt>
      <trkpt lat="42.75937" lon="2.51887">
        <ele>221.3</ele>
        <time>2021-08-30T23:59:19.336Z</time>
      </trkpt>
      <trkpt lat="42.75909" lon="2.51905">
        <ele>222</ele>
        <time>2021-08-30T23:59:25.683Z</time>
      </trkpt>
      <trkpt lat="42.75903" lon="2.51913">
        <ele>220.6</ele>
        <time>2021-08-30T23:59:26.390Z</time>
      </trkpt>
      <trkpt lat="42.7589" lon="2.51947">
        <ele>214</ele>
        <time>2021-08-30T23:59:28.761Z</time>
      </trkpt>
      <trkpt lat="42.75885" lon="2.51952">
        <ele>213.7</ele>
        <time>2021-08-30T23:59:29.317Z</time>
      </trkpt>
      <trkpt lat="42.75864" lon="2.5196">
        <ele>215.7</ele>
        <time>2021-08-30T23:59:37.846Z</time>
      </trkpt>
      <trkpt lat="42.75858" lon="2.51965">
        <ele>215.6</ele>
        <time>2021-08-30T23:59:38.747Z</time>
      </trkpt>
      <trkpt lat="42.75837" lon="2.51995">
        <ele>212.5</ele>
        <time>2021-08-30T23:59:41.311Z</time>
      </trkpt>
      <trkpt lat="42.75828" lon="2.52005">
        <ele>212.1</ele>
        <time>2021-08-30T23:59:42.497Z</time>
      </trkpt>
      <trkpt lat="42.75818" lon="2.52015">
        <ele>212.3</ele>
        <time>2021-08-30T23:59:44.863Z</time>
      </trkpt>
      <trkpt lat="42.75792" lon="2.52027">
        <ele>215.8</ele>
        <time>2021-08-31T00:00:00.713Z</time>
      </trkpt>
      <trkpt lat="42.75787" lon="2.52033">
        <ele>215.7</ele>
        <time>2021-08-31T00:00:01.558Z</time>
      </trkpt>
      <trkpt lat="42.75785" lon="2.52042">
        <ele>214.2</ele>
        <time>2021-08-31T00:00:02.140Z</time>
      </trkpt>
      <trkpt lat="42.75783" lon="2.52071">
        <ele>208.7</ele>
        <time>2021-08-31T00:00:03.941Z</time>
      </trkpt>
      <trkpt lat="42.7578" lon="2.52084">
        <ele>206.7</ele>
        <time>2021-08-31T00:00:04.784Z</time>
      </trkpt>
      <trkpt lat="42.7576" lon="2.52128">
        <ele>204.4</ele>
        <time>2021-08-31T00:00:07.860Z</time>
      </trkpt>
      <trkpt lat="42.7575" lon="2.52162">
        <ele>200.8</ele>
        <time>2021-08-31T00:00:10.125Z</time>
      </trkpt>
      <trkpt lat="42.75743" lon="2.52184">
        <ele>199.6</ele>
        <time>2021-08-31T00:00:11.608Z</time>
      </trkpt>
      <trkpt lat="42.7572" lon="2.52238">
        <ele>198.4</ele>
        <time>2021-08-31T00:00:16.712Z</time>
      </trkpt>
      <trkpt lat="42.75709" lon="2.52258">
        <ele>198.4</ele>
        <time>2021-08-31T00:00:19.694Z</time>
      </trkpt>
      <trkpt lat="42.75697" lon="2.52277">
        <ele>198.5</ele>
        <time>2021-08-31T00:00:22.842Z</time>
      </trkpt>
      <trkpt lat="42.7569" lon="2.52288">
        <ele>198.5</ele>
        <time>2021-08-31T00:00:24.579Z</time>
      </trkpt>
      <trkpt lat="42.75682" lon="2.52312">
        <ele>197</ele>
        <time>2021-08-31T00:00:26.210Z</time>
      </trkpt>
      <trkpt lat="42.75669" lon="2.524">
        <ele>190.3</ele>
        <time>2021-08-31T00:00:31.762Z</time>
      </trkpt>
      <trkpt lat="42.75667" lon="2.52408">
        <ele>189.8</ele>
        <time>2021-08-31T00:00:32.285Z</time>
      </trkpt>
      <trkpt lat="42.75663" lon="2.52415">
        <ele>189</ele>
        <time>2021-08-31T00:00:32.833Z</time>
      </trkpt>
      <trkpt lat="42.75648" lon="2.52429">
        <ele>187.3</ele>
        <time>2021-08-31T00:00:34.365Z</time>
      </trkpt>
      <trkpt lat="42.75623" lon="2.52445">
        <ele>185.6</ele>
        <time>2021-08-31T00:00:36.583Z</time>
      </trkpt>
      <trkpt lat="42.75595" lon="2.52461">
        <ele>184.2</ele>
        <time>2021-08-31T00:00:39.359Z</time>
      </trkpt>
      <trkpt lat="42.75586" lon="2.52465">
        <ele>183.9</ele>
        <time>2021-08-31T00:00:40.354Z</time>
      </trkpt>
      <trkpt lat="42.75579" lon="2.52469">
        <ele>184.2</ele>
        <time>2021-08-31T00:00:42.288Z</time>
      </trkpt>
      <trkpt lat="42.75524" lon="2.52498">
        <ele>191.5</ele>
        <time>2021-08-31T00:01:14.733Z</time>
      </trkpt>
      <trkpt lat="42.75523" lon="2.52499">
        <ele>191.6</ele>
        <time>2021-08-31T00:01:15.174Z</time>
      </trkpt>
      <trkpt lat="42.75519" lon="2.52505">
        <ele>192.5</ele>
        <time>2021-08-31T00:01:18.905Z</time>
      </trkpt>
      <trkpt lat="42.75517" lon="2.52514">
        <ele>193.1</ele>
        <time>2021-08-31T00:01:21.493Z</time>
      </trkpt>
      <trkpt lat="42.75518" lon="2.52541">
        <ele>194.1</ele>
        <time>2021-08-31T00:01:27.149Z</time>
      </trkpt>
      <trkpt lat="42.75523" lon="2.52571">
        <ele>194.4</ele>
        <time>2021-08-31T00:01:31.329Z</time>
      </trkpt>
      <trkpt lat="42.75527" lon="2.52578">
        <ele>193.9</ele>
        <time>2021-08-31T00:01:31.877Z</time>
      </trkpt>
      <trkpt lat="42.75546" lon="2.52595">
        <ele>192.6</ele>
        <time>2021-08-31T00:01:33.768Z</time>
      </trkpt>
      <trkpt lat="42.75555" lon="2.52607">
        <ele>192.6</ele>
        <time>2021-08-31T00:01:35.815Z</time>
      </trkpt>
      <trkpt lat="42.75577" lon="2.52662">
        <ele>195.1</ele>
        <time>2021-08-31T00:01:49.270Z</time>
      </trkpt>
      <trkpt lat="42.75588" lon="2.52681">
        <ele>195.9</ele>
        <time>2021-08-31T00:01:54.160Z</time>
      </trkpt>
      <trkpt lat="42.75631" lon="2.52736">
        <ele>193.8</ele>
        <time>2021-08-31T00:02:00.115Z</time>
      </trkpt>
      <trkpt lat="42.75694" lon="2.52812">
        <ele>190</ele>
        <time>2021-08-31T00:02:07.875Z</time>
      </trkpt>
      <trkpt lat="42.75724" lon="2.52843">
        <ele>188.7</ele>
        <time>2021-08-31T00:02:11.718Z</time>
      </trkpt>
      <trkpt lat="42.75753" lon="2.52871">
        <ele>187</ele>
        <time>2021-08-31T00:02:14.919Z</time>
      </trkpt>
      <trkpt lat="42.75765" lon="2.52887">
        <ele>187.4</ele>
        <time>2021-08-31T00:02:18.410Z</time>
      </trkpt>
      <trkpt lat="42.75776" lon="2.52912">
        <ele>188.5</ele>
        <time>2021-08-31T00:02:24.548Z</time>
      </trkpt>
      <trkpt lat="42.75796" lon="2.52972">
        <ele>186.2</ele>
        <time>2021-08-31T00:02:28.915Z</time>
      </trkpt>
      <trkpt lat="42.75801" lon="2.5299">
        <ele>185.6</ele>
        <time>2021-08-31T00:02:30.251Z</time>
      </trkpt>
      <trkpt lat="42.75803" lon="2.53004">
        <ele>185.3</ele>
        <time>2021-08-31T00:02:31.386Z</time>
      </trkpt>
      <trkpt lat="42.75804" lon="2.53018">
        <ele>184.5</ele>
        <time>2021-08-31T00:02:32.256Z</time>
      </trkpt>
      <trkpt lat="42.75803" lon="2.53033">
        <ele>184.1</ele>
        <time>2021-08-31T00:02:33.366Z</time>
      </trkpt>
      <trkpt lat="42.75801" lon="2.53047">
        <ele>183.7</ele>
        <time>2021-08-31T00:02:34.397Z</time>
      </trkpt>
      <trkpt lat="42.75796" lon="2.53062">
        <ele>183.6</ele>
        <time>2021-08-31T00:02:36.072Z</time>
      </trkpt>
      <trkpt lat="42.75781" lon="2.53089">
        <ele>183.4</ele>
        <time>2021-08-31T00:02:39.524Z</time>
      </trkpt>
      <trkpt lat="42.75772" lon="2.53105">
        <ele>182.4</ele>
        <time>2021-08-31T00:02:40.771Z</time>
      </trkpt>
      <trkpt lat="42.75757" lon="2.53134">
        <ele>179.9</ele>
        <time>2021-08-31T00:02:42.965Z</time>
      </trkpt>
      <trkpt lat="42.75753" lon="2.53146">
        <ele>178.6</ele>
        <time>2021-08-31T00:02:43.781Z</time>
      </trkpt>
      <trkpt lat="42.75747" lon="2.53175">
        <ele>175.5</ele>
        <time>2021-08-31T00:02:45.644Z</time>
      </trkpt>
      <trkpt lat="42.75747" lon="2.53189">
        <ele>174.3</ele>
        <time>2021-08-31T00:02:46.510Z</time>
      </trkpt>
      <trkpt lat="42.75753" lon="2.53339">
        <ele>181.3</ele>
        <time>2021-08-31T00:03:20.891Z</time>
      </trkpt>
      <trkpt lat="42.7575" lon="2.53367">
        <ele>188.3</ele>
        <time>2021-08-31T00:03:33.916Z</time>
      </trkpt>
      <trkpt lat="42.75741" lon="2.53387">
        <ele>191.8</ele>
        <time>2021-08-31T00:03:44.714Z</time>
      </trkpt>
      <trkpt lat="42.75731" lon="2.534">
        <ele>192.7</ele>
        <time>2021-08-31T00:03:49.075Z</time>
      </trkpt>
      <trkpt lat="42.75698" lon="2.53431">
        <ele>190.1</ele>
        <time>2021-08-31T00:03:52.212Z</time>
      </trkpt>
      <trkpt lat="42.75689" lon="2.53441">
        <ele>189.4</ele>
        <time>2021-08-31T00:03:53.154Z</time>
      </trkpt>
      <trkpt lat="42.75634" lon="2.5349">
        <ele>186.4</ele>
        <time>2021-08-31T00:03:59.187Z</time>
      </trkpt>
      <trkpt lat="42.75619" lon="2.53515">
        <ele>187.2</ele>
        <time>2021-08-31T00:04:04.764Z</time>
      </trkpt>
      <trkpt lat="42.75607" lon="2.53544">
        <ele>187.7</ele>
        <time>2021-08-31T00:04:09.653Z</time>
      </trkpt>
      <trkpt lat="42.7557" lon="2.53679">
        <ele>188.7</ele>
        <time>2021-08-31T00:04:28.480Z</time>
      </trkpt>
      <trkpt lat="42.75559" lon="2.53713">
        <ele>189.6</ele>
        <time>2021-08-31T00:04:34.835Z</time>
      </trkpt>
      <trkpt lat="42.75525" lon="2.5377">
        <ele>187.6</ele>
        <time>2021-08-31T00:04:40.199Z</time>
      </trkpt>
      <trkpt lat="42.75518" lon="2.53787">
        <ele>187.1</ele>
        <time>2021-08-31T00:04:41.653Z</time>
      </trkpt>
      <trkpt lat="42.75516" lon="2.53792">
        <ele>186.9</ele>
        <time>2021-08-31T00:04:42.030Z</time>
      </trkpt>
      <trkpt lat="42.75509" lon="2.53819">
        <ele>186.7</ele>
        <time>2021-08-31T00:04:44.892Z</time>
      </trkpt>
      <trkpt lat="42.75503" lon="2.5389">
        <ele>187.1</ele>
        <time>2021-08-31T00:04:54.062Z</time>
      </trkpt>
      <trkpt lat="42.75494" lon="2.53938">
        <ele>189.4</ele>
        <time>2021-08-31T00:05:05.381Z</time>
      </trkpt>
      <trkpt lat="42.75483" lon="2.53966">
        <ele>191.5</ele>
        <time>2021-08-31T00:05:14.367Z</time>
      </trkpt>
      <trkpt lat="42.75473" lon="2.53987">
        <ele>192.2</ele>
        <time>2021-08-31T00:05:18.955Z</time>
      </trkpt>
      <trkpt lat="42.75464" lon="2.54007">
        <ele>192.8</ele>
        <time>2021-08-31T00:05:23.066Z</time>
      </trkpt>
      <trkpt lat="42.75443" lon="2.54056">
        <ele>193.7</ele>
        <time>2021-08-31T00:05:31.508Z</time>
      </trkpt>
      <trkpt lat="42.75431" lon="2.54092">
        <ele>193.9</ele>
        <time>2021-08-31T00:05:36.544Z</time>
      </trkpt>
      <trkpt lat="42.75415" lon="2.54153">
        <ele>192</ele>
        <time>2021-08-31T00:05:41.147Z</time>
      </trkpt>
      <trkpt lat="42.75403" lon="2.54212">
        <ele>193.8</ele>
        <time>2021-08-31T00:05:52.686Z</time>
      </trkpt>
      <trkpt lat="42.75389" lon="2.54257">
        <ele>193.8</ele>
        <time>2021-08-31T00:05:58.519Z</time>
      </trkpt>
      <trkpt lat="42.75376" lon="2.54288">
        <ele>194.7</ele>
        <time>2021-08-31T00:06:04.734Z</time>
      </trkpt>
      <trkpt lat="42.7536" lon="2.54317">
        <ele>194.2</ele>
        <time>2021-08-31T00:06:07.961Z</time>
      </trkpt>
      <trkpt lat="42.75332" lon="2.5436">
        <ele>193.4</ele>
        <time>2021-08-31T00:06:13.063Z</time>
      </trkpt>
      <trkpt lat="42.75305" lon="2.5441">
        <ele>194.4</ele>
        <time>2021-08-31T00:06:22.334Z</time>
      </trkpt>
      <trkpt lat="42.75275" lon="2.54479">
        <ele>194.1</ele>
        <time>2021-08-31T00:06:31.212Z</time>
      </trkpt>
      <trkpt lat="42.7524" lon="2.54572">
        <ele>197.6</ele>
        <time>2021-08-31T00:06:52.411Z</time>
      </trkpt>
      <trkpt lat="42.75221" lon="2.54603">
        <ele>197.9</ele>
        <time>2021-08-31T00:06:57.723Z</time>
      </trkpt>
      <trkpt lat="42.75154" lon="2.54683">
        <ele>191.8</ele>
        <time>2021-08-31T00:07:05.229Z</time>
      </trkpt>
      <trkpt lat="42.7514" lon="2.54709">
        <ele>191.7</ele>
        <time>2021-08-31T00:07:08.844Z</time>
      </trkpt>
      <trkpt lat="42.75118" lon="2.54756">
        <ele>192.4</ele>
        <time>2021-08-31T00:07:16.732Z</time>
      </trkpt>
      <trkpt lat="42.75112" lon="2.54774">
        <ele>192.7</ele>
        <time>2021-08-31T00:07:19.642Z</time>
      </trkpt>
      <trkpt lat="42.75105" lon="2.54796">
        <ele>193.3</ele>
        <time>2021-08-31T00:07:23.802Z</time>
      </trkpt>
      <trkpt lat="42.75094" lon="2.54855">
        <ele>195.1</ele>
        <time>2021-08-31T00:07:35.314Z</time>
      </trkpt>
      <trkpt lat="42.7509" lon="2.54919">
        <ele>195.2</ele>
        <time>2021-08-31T00:07:43.132Z</time>
      </trkpt>
      <trkpt lat="42.75094" lon="2.54972">
        <ele>196.9</ele>
        <time>2021-08-31T00:07:53.695Z</time>
      </trkpt>
      <trkpt lat="42.75101" lon="2.55013">
        <ele>198.1</ele>
        <time>2021-08-31T00:08:01.492Z</time>
      </trkpt>
      <trkpt lat="42.75123" lon="2.55106">
        <ele>192.5</ele>
        <time>2021-08-31T00:08:07.536Z</time>
      </trkpt>
      <trkpt lat="42.75126" lon="2.55123">
        <ele>190.5</ele>
        <time>2021-08-31T00:08:08.618Z</time>
      </trkpt>
      <trkpt lat="42.75132" lon="2.55154">
        <ele>186.6</ele>
        <time>2021-08-31T00:08:10.601Z</time>
      </trkpt>
      <trkpt lat="42.75135" lon="2.55187">
        <ele>185.4</ele>
        <time>2021-08-31T00:08:12.774Z</time>
      </trkpt>
      <trkpt lat="42.75135" lon="2.55223">
        <ele>186.5</ele>
        <time>2021-08-31T00:08:19.717Z</time>
      </trkpt>
      <trkpt lat="42.7513" lon="2.55256">
        <ele>187.5</ele>
        <time>2021-08-31T00:08:26.103Z</time>
      </trkpt>
      <trkpt lat="42.75123" lon="2.55288">
        <ele>189.8</ele>
        <time>2021-08-31T00:08:35.877Z</time>
      </trkpt>
      <trkpt lat="42.7511" lon="2.55323">
        <ele>190.4</ele>
        <time>2021-08-31T00:08:41.662Z</time>
      </trkpt>
      <trkpt lat="42.75087" lon="2.55366">
        <ele>191.7</ele>
        <time>2021-08-31T00:08:50.795Z</time>
      </trkpt>
      <trkpt lat="42.75039" lon="2.55448">
        <ele>193</ele>
        <time>2021-08-31T00:09:05.601Z</time>
      </trkpt>
      <trkpt lat="42.75021" lon="2.55483">
        <ele>191.9</ele>
        <time>2021-08-31T00:09:08.786Z</time>
      </trkpt>
      <trkpt lat="42.75009" lon="2.55517">
        <ele>190.5</ele>
        <time>2021-08-31T00:09:11.221Z</time>
      </trkpt>
      <trkpt lat="42.75004" lon="2.55546">
        <ele>189.2</ele>
        <time>2021-08-31T00:09:13.008Z</time>
      </trkpt>
      <trkpt lat="42.74999" lon="2.55592">
        <ele>188.6</ele>
        <time>2021-08-31T00:09:17.205Z</time>
      </trkpt>
      <trkpt lat="42.74998" lon="2.55789">
        <ele>200.1</ele>
        <time>2021-08-31T00:10:08.169Z</time>
      </trkpt>
      <trkpt lat="42.74998" lon="2.55797">
        <ele>200.2</ele>
        <time>2021-08-31T00:10:09.300Z</time>
      </trkpt>
      <trkpt lat="42.74997" lon="2.55852">
        <ele>200.6</ele>
        <time>2021-08-31T00:10:16.521Z</time>
      </trkpt>
      <trkpt lat="42.74994" lon="2.55875">
        <ele>200.3</ele>
        <time>2021-08-31T00:10:18.632Z</time>
      </trkpt>
      <trkpt lat="42.7499" lon="2.55904">
        <ele>199.8</ele>
        <time>2021-08-31T00:10:21.129Z</time>
      </trkpt>
      <trkpt lat="42.74979" lon="2.55941">
        <ele>200.3</ele>
        <time>2021-08-31T00:10:26.776Z</time>
      </trkpt>
      <trkpt lat="42.74973" lon="2.55959">
        <ele>200.7</ele>
        <time>2021-08-31T00:10:29.932Z</time>
      </trkpt>
      <trkpt lat="42.7497" lon="2.55966">
        <ele>200.7</ele>
        <time>2021-08-31T00:10:30.899Z</time>
      </trkpt>
      <trkpt lat="42.74951" lon="2.56004">
        <ele>200</ele>
        <time>2021-08-31T00:10:34.896Z</time>
      </trkpt>
      <trkpt lat="42.74905" lon="2.56074">
        <ele>202.1</ele>
        <time>2021-08-31T00:10:50.444Z</time>
      </trkpt>
      <trkpt lat="42.74865" lon="2.5614">
        <ele>202.7</ele>
        <time>2021-08-31T00:11:01.637Z</time>
      </trkpt>
      <trkpt lat="42.74853" lon="2.56182">
        <ele>204.5</ele>
        <time>2021-08-31T00:11:11.321Z</time>
      </trkpt>
      <trkpt lat="42.74849" lon="2.5622">
        <ele>205.6</ele>
        <time>2021-08-31T00:11:18.452Z</time>
      </trkpt>
      <trkpt lat="42.7485" lon="2.5625">
        <ele>207.6</ele>
        <time>2021-08-31T00:11:26.998Z</time>
      </trkpt>
      <trkpt lat="42.74824" lon="2.56258">
        <ele>201.5</ele>
        <time>2021-08-31T00:11:29.243Z</time>
      </trkpt>
      <trkpt lat="42.74817" lon="2.56263">
        <ele>199.6</ele>
        <time>2021-08-31T00:11:29.909Z</time>
      </trkpt>
      <trkpt lat="42.7481" lon="2.56276">
        <ele>197.5</ele>
        <time>2021-08-31T00:11:30.906Z</time>
      </trkpt>
      <trkpt lat="42.7481" lon="2.56299">
        <ele>196.9</ele>
        <time>2021-08-31T00:11:32.613Z</time>
      </trkpt>
      <trkpt lat="42.74827" lon="2.56368">
        <ele>201.9</ele>
        <time>2021-08-31T00:11:53.868Z</time>
      </trkpt>
      <trkpt lat="42.74832" lon="2.56416">
        <ele>205.6</ele>
        <time>2021-08-31T00:12:09.515Z</time>
      </trkpt>
      <trkpt lat="42.74832" lon="2.56451">
        <ele>208.9</ele>
        <time>2021-08-31T00:12:24.535Z</time>
      </trkpt>
      <trkpt lat="42.74817" lon="2.56515">
        <ele>210.1</ele>
        <time>2021-08-31T00:12:34.852Z</time>
      </trkpt>
      <trkpt lat="42.74807" lon="2.56541">
        <ele>210.2</ele>
        <time>2021-08-31T00:12:38.511Z</time>
      </trkpt>
      <trkpt lat="42.74803" lon="2.56551">
        <ele>210.3</ele>
        <time>2021-08-31T00:12:40.037Z</time>
      </trkpt>
      <trkpt lat="42.74796" lon="2.56561">
        <ele>209.5</ele>
        <time>2021-08-31T00:12:40.892Z</time>
      </trkpt>
      <trkpt lat="42.74718" lon="2.56676">
        <ele>201.9</ele>
        <time>2021-08-31T00:12:49.802Z</time>
      </trkpt>
      <trkpt lat="42.74708" lon="2.56698">
        <ele>200</ele>
        <time>2021-08-31T00:12:51.402Z</time>
      </trkpt>
      <trkpt lat="42.74702" lon="2.56723">
        <ele>199.3</ele>
        <time>2021-08-31T00:12:53.340Z</time>
      </trkpt>
      <trkpt lat="42.74697" lon="2.5678">
        <ele>199.9</ele>
        <time>2021-08-31T00:13:01.219Z</time>
      </trkpt>
      <trkpt lat="42.74692" lon="2.56802">
        <ele>199.4</ele>
        <time>2021-08-31T00:13:03.035Z</time>
      </trkpt>
      <trkpt lat="42.74679" lon="2.56826">
        <ele>196.9</ele>
        <time>2021-08-31T00:13:04.880Z</time>
      </trkpt>
      <trkpt lat="42.74661" lon="2.56842">
        <ele>196.1</ele>
        <time>2021-08-31T00:13:07.016Z</time>
      </trkpt>
      <trkpt lat="42.74646" lon="2.56849">
        <ele>197.2</ele>
        <time>2021-08-31T00:13:12.177Z</time>
      </trkpt>
      <trkpt lat="42.74627" lon="2.56851">
        <ele>196.5</ele>
        <time>2021-08-31T00:13:14.080Z</time>
      </trkpt>
      <trkpt lat="42.74576" lon="2.56848">
        <ele>191.6</ele>
        <time>2021-08-31T00:13:18.380Z</time>
      </trkpt>
      <trkpt lat="42.74554" lon="2.56852">
        <ele>189.3</ele>
        <time>2021-08-31T00:13:20.250Z</time>
      </trkpt>
      <trkpt lat="42.74528" lon="2.5687">
        <ele>189.4</ele>
        <time>2021-08-31T00:13:25.145Z</time>
      </trkpt>
      <trkpt lat="42.74452" lon="2.56945">
        <ele>186.2</ele>
        <time>2021-08-31T00:13:34.763Z</time>
      </trkpt>
      <trkpt lat="42.74432" lon="2.56975">
        <ele>186</ele>
        <time>2021-08-31T00:13:39.148Z</time>
      </trkpt>
      <trkpt lat="42.74398" lon="2.57042">
        <ele>191</ele>
        <time>2021-08-31T00:14:00.945Z</time>
      </trkpt>
      <trkpt lat="42.74356" lon="2.57131">
        <ele>191.3</ele>
        <time>2021-08-31T00:14:14.036Z</time>
      </trkpt>
      <trkpt lat="42.7435" lon="2.57139">
        <ele>190</ele>
        <time>2021-08-31T00:14:14.743Z</time>
      </trkpt>
      <trkpt lat="42.74333" lon="2.57143">
        <ele>182.7</ele>
        <time>2021-08-31T00:14:16.197Z</time>
      </trkpt>
      <trkpt lat="42.74314" lon="2.57141">
        <ele>179.2</ele>
        <time>2021-08-31T00:14:17.802Z</time>
      </trkpt>
      <trkpt lat="42.74133" lon="2.571">
        <ele>169</ele>
        <time>2021-08-31T00:14:33.261Z</time>
      </trkpt>
      <trkpt lat="42.74124" lon="2.57098">
        <ele>169.3</ele>
        <time>2021-08-31T00:14:35.383Z</time>
      </trkpt>
      <trkpt lat="42.74117" lon="2.57099">
        <ele>169.5</ele>
        <time>2021-08-31T00:14:36.929Z</time>
      </trkpt>
      <trkpt lat="42.74104" lon="2.57105">
        <ele>169.7</ele>
        <time>2021-08-31T00:14:39.504Z</time>
      </trkpt>
      <trkpt lat="42.74094" lon="2.57114">
        <ele>169.7</ele>
        <time>2021-08-31T00:14:41.452Z</time>
      </trkpt>
      <trkpt lat="42.74086" lon="2.57125">
        <ele>169.5</ele>
        <time>2021-08-31T00:14:42.849Z</time>
      </trkpt>
      <trkpt lat="42.74058" lon="2.57157">
        <ele>170.5</ele>
        <time>2021-08-31T00:14:50.778Z</time>
      </trkpt>
      <trkpt lat="42.74037" lon="2.57169">
        <ele>171.8</ele>
        <time>2021-08-31T00:14:57.565Z</time>
      </trkpt>
      <trkpt lat="42.74025" lon="2.57173">
        <ele>172.6</ele>
        <time>2021-08-31T00:15:01.452Z</time>
      </trkpt>
      <trkpt lat="42.74007" lon="2.57171">
        <ele>174.1</ele>
        <time>2021-08-31T00:15:08.004Z</time>
      </trkpt>
      <trkpt lat="42.73992" lon="2.57164">
        <ele>175.2</ele>
        <time>2021-08-31T00:15:13.166Z</time>
      </trkpt>
      <trkpt lat="42.73978" lon="2.57155">
        <ele>175.8</ele>
        <time>2021-08-31T00:15:17.067Z</time>
      </trkpt>
      <trkpt lat="42.73966" lon="2.57137">
        <ele>176.8</ele>
        <time>2021-08-31T00:15:22.350Z</time>
      </trkpt>
      <trkpt lat="42.73954" lon="2.57114">
        <ele>178.1</ele>
        <time>2021-08-31T00:15:28.775Z</time>
      </trkpt>
      <trkpt lat="42.73924" lon="2.57051">
        <ele>180.9</ele>
        <time>2021-08-31T00:15:44.527Z</time>
      </trkpt>
      <trkpt lat="42.73906" lon="2.57009">
        <ele>183</ele>
        <time>2021-08-31T00:15:55.299Z</time>
      </trkpt>
      <trkpt lat="42.73901" lon="2.56995">
        <ele>183.6</ele>
        <time>2021-08-31T00:15:58.602Z</time>
      </trkpt>
      <trkpt lat="42.73894" lon="2.56976">
        <ele>184.1</ele>
        <time>2021-08-31T00:16:02.193Z</time>
      </trkpt>
      <trkpt lat="42.73885" lon="2.56941">
        <ele>185.3</ele>
        <time>2021-08-31T00:16:09.615Z</time>
      </trkpt>
      <trkpt lat="42.73884" lon="2.56868">
        <ele>188.3</ele>
        <time>2021-08-31T00:16:25.474Z</time>
      </trkpt>
      <trkpt lat="42.73884" lon="2.56867">
        <ele>188.4</ele>
        <time>2021-08-31T00:16:25.934Z</time>
      </trkpt>
      <trkpt lat="42.73878" lon="2.56845">
        <ele>190.7</ele>
        <time>2021-08-31T00:16:36.740Z</time>
      </trkpt>
      <trkpt lat="42.73866" lon="2.56828">
        <ele>194.8</ele>
        <time>2021-08-31T00:16:47.597Z</time>
      </trkpt>
      <trkpt lat="42.7386" lon="2.56825">
        <ele>196.5</ele>
        <time>2021-08-31T00:16:51.604Z</time>
      </trkpt>
      <trkpt lat="42.73848" lon="2.56827">
        <ele>198.9</ele>
        <time>2021-08-31T00:16:59.183Z</time>
      </trkpt>
      <trkpt lat="42.73794" lon="2.56843">
        <ele>203.3</ele>
        <time>2021-08-31T00:17:18.672Z</time>
      </trkpt>
      <trkpt lat="42.73759" lon="2.56851">
        <ele>205.3</ele>
        <time>2021-08-31T00:17:29.197Z</time>
      </trkpt>
      <trkpt lat="42.73735" lon="2.56857">
        <ele>206.4</ele>
        <time>2021-08-31T00:17:35.915Z</time>
      </trkpt>
      <trkpt lat="42.73719" lon="2.56858">
        <ele>207.4</ele>
        <time>2021-08-31T00:17:40.871Z</time>
      </trkpt>
      <trkpt lat="42.73682" lon="2.56838">
        <ele>210.4</ele>
        <time>2021-08-31T00:17:54.439Z</time>
      </trkpt>
      <trkpt lat="42.73659" lon="2.56833">
        <ele>211.2</ele>
        <time>2021-08-31T00:17:59.963Z</time>
      </trkpt>
      <trkpt lat="42.73644" lon="2.56836">
        <ele>211.6</ele>
        <time>2021-08-31T00:18:03.213Z</time>
      </trkpt>
      <trkpt lat="42.73593" lon="2.56838">
        <ele>213</ele>
        <time>2021-08-31T00:18:14.290Z</time>
      </trkpt>
      <trkpt lat="42.73579" lon="2.56832">
        <ele>214.2</ele>
        <time>2021-08-31T00:18:19.557Z</time>
      </trkpt>
      <trkpt lat="42.73561" lon="2.56815">
        <ele>219.3</ele>
        <time>2021-08-31T00:18:33.291Z</time>
      </trkpt>
      <trkpt lat="42.7355" lon="2.56805">
        <ele>221.6</ele>
        <time>2021-08-31T00:18:41.584Z</time>
      </trkpt>
      <trkpt lat="42.73533" lon="2.56794">
        <ele>224.2</ele>
        <time>2021-08-31T00:18:53.384Z</time>
      </trkpt>
      <trkpt lat="42.73524" lon="2.56793">
        <ele>225.4</ele>
        <time>2021-08-31T00:18:59.001Z</time>
      </trkpt>
      <trkpt lat="42.7352" lon="2.56794">
        <ele>226</ele>
        <time>2021-08-31T00:19:01.551Z</time>
      </trkpt>
      <trkpt lat="42.73514" lon="2.56801">
        <ele>227.3</ele>
        <time>2021-08-31T00:19:06.505Z</time>
      </trkpt>
      <trkpt lat="42.73513" lon="2.56811">
        <ele>228.2</ele>
        <time>2021-08-31T00:19:10.464Z</time>
      </trkpt>
      <trkpt lat="42.73519" lon="2.56832">
        <ele>228.4</ele>
        <time>2021-08-31T00:19:13.489Z</time>
      </trkpt>
      <trkpt lat="42.73529" lon="2.56858">
        <ele>230.2</ele>
        <time>2021-08-31T00:19:21.338Z</time>
      </trkpt>
      <trkpt lat="42.73538" lon="2.56892">
        <ele>232.8</ele>
        <time>2021-08-31T00:19:32.338Z</time>
      </trkpt>
      <trkpt lat="42.73538" lon="2.56908">
        <ele>235.2</ele>
        <time>2021-08-31T00:19:39.706Z</time>
      </trkpt>
      <trkpt lat="42.73538" lon="2.56944">
        <ele>241.7</ele>
        <time>2021-08-31T00:19:56.283Z</time>
      </trkpt>
      <trkpt lat="42.73545" lon="2.56962">
        <ele>243</ele>
        <time>2021-08-31T00:20:01.891Z</time>
      </trkpt>
      <trkpt lat="42.73553" lon="2.56983">
        <ele>245.4</ele>
        <time>2021-08-31T00:20:12.784Z</time>
      </trkpt>
      <trkpt lat="42.73554" lon="2.5699">
        <ele>246.7</ele>
        <time>2021-08-31T00:20:16.068Z</time>
      </trkpt>
      <trkpt lat="42.73554" lon="2.56999">
        <ele>248.8</ele>
        <time>2021-08-31T00:20:20.212Z</time>
      </trkpt>
      <trkpt lat="42.73553" lon="2.57007">
        <ele>249.2</ele>
        <time>2021-08-31T00:20:22.120Z</time>
      </trkpt>
      <trkpt lat="42.7355" lon="2.57021">
        <ele>249.9</ele>
        <time>2021-08-31T00:20:25.505Z</time>
      </trkpt>
      <trkpt lat="42.73557" lon="2.57017">
        <ele>248.6</ele>
        <time>2021-08-31T00:20:26.145Z</time>
      </trkpt>
      <trkpt lat="42.7355" lon="2.57021">
        <ele>249.9</ele>
        <time>2021-08-31T00:20:30.904Z</time>
      </trkpt>
      <trkpt lat="42.73534" lon="2.57039">
        <ele>252.4</ele>
        <time>2021-08-31T00:20:41.860Z</time>
      </trkpt>
      <trkpt lat="42.73522" lon="2.57052">
        <ele>253.9</ele>
        <time>2021-08-31T00:20:48.207Z</time>
      </trkpt>
      <trkpt lat="42.73516" lon="2.57058">
        <ele>254.5</ele>
        <time>2021-08-31T00:20:50.853Z</time>
      </trkpt>
      <trkpt lat="42.73503" lon="2.57067">
        <ele>255.6</ele>
        <time>2021-08-31T00:20:55.827Z</time>
      </trkpt>
      <trkpt lat="42.73496" lon="2.57071">
        <ele>256.9</ele>
        <time>2021-08-31T00:21:00.586Z</time>
      </trkpt>
      <trkpt lat="42.73493" lon="2.57073">
        <ele>257.6</ele>
        <time>2021-08-31T00:21:02.680Z</time>
      </trkpt>
      <trkpt lat="42.73487" lon="2.57083">
        <ele>258.8</ele>
        <time>2021-08-31T00:21:08.087Z</time>
      </trkpt>
      <trkpt lat="42.73485" lon="2.57087">
        <ele>259</ele>
        <time>2021-08-31T00:21:09.140Z</time>
      </trkpt>
      <trkpt lat="42.73459" lon="2.57168">
        <ele>260.2</ele>
        <time>2021-08-31T00:21:21.844Z</time>
      </trkpt>
      <trkpt lat="42.73453" lon="2.57177">
        <ele>261.7</ele>
        <time>2021-08-31T00:21:27.441Z</time>
      </trkpt>
      <trkpt lat="42.73446" lon="2.5719">
        <ele>263.1</ele>
        <time>2021-08-31T00:21:33.528Z</time>
      </trkpt>
      <trkpt lat="42.73434" lon="2.57215">
        <ele>264.8</ele>
        <time>2021-08-31T00:21:41.132Z</time>
      </trkpt>
      <trkpt lat="42.73421" lon="2.57286">
        <ele>261.6</ele>
        <time>2021-08-31T00:21:45.517Z</time>
      </trkpt>
      <trkpt lat="42.73414" lon="2.5732">
        <ele>259.5</ele>
        <time>2021-08-31T00:21:47.702Z</time>
      </trkpt>
      <trkpt lat="42.73396" lon="2.5736">
        <ele>263.3</ele>
        <time>2021-08-31T00:22:03.888Z</time>
      </trkpt>
      <trkpt lat="42.7338" lon="2.57386">
        <ele>266.8</ele>
        <time>2021-08-31T00:22:19.508Z</time>
      </trkpt>
      <trkpt lat="42.73369" lon="2.57401">
        <ele>268.9</ele>
        <time>2021-08-31T00:22:29.268Z</time>
      </trkpt>
      <trkpt lat="42.73344" lon="2.57438">
        <ele>272.1</ele>
        <time>2021-08-31T00:22:43.081Z</time>
      </trkpt>
      <trkpt lat="42.73322" lon="2.57468">
        <ele>272.7</ele>
        <time>2021-08-31T00:22:49.227Z</time>
      </trkpt>
      <trkpt lat="42.73243" lon="2.57546">
        <ele>279.3</ele>
        <time>2021-08-31T00:23:20.585Z</time>
      </trkpt>
      <trkpt lat="42.73223" lon="2.57561">
        <ele>280.8</ele>
        <time>2021-08-31T00:23:27.818Z</time>
      </trkpt>
      <trkpt lat="42.7318" lon="2.57588">
        <ele>284.6</ele>
        <time>2021-08-31T00:23:44.603Z</time>
      </trkpt>
      <trkpt lat="42.73176" lon="2.576">
        <ele>286.6</ele>
        <time>2021-08-31T00:23:50.671Z</time>
      </trkpt>
      <trkpt lat="42.73173" lon="2.57615">
        <ele>288.7</ele>
        <time>2021-08-31T00:23:57.830Z</time>
      </trkpt>
      <trkpt lat="42.73176" lon="2.57632">
        <ele>290.3</ele>
        <time>2021-08-31T00:24:04.969Z</time>
      </trkpt>
      <trkpt lat="42.73182" lon="2.57638">
        <ele>290.4</ele>
        <time>2021-08-31T00:24:06.349Z</time>
      </trkpt>
      <trkpt lat="42.73191" lon="2.57644">
        <ele>290.3</ele>
        <time>2021-08-31T00:24:07.705Z</time>
      </trkpt>
      <trkpt lat="42.73223" lon="2.57643">
        <ele>287.2</ele>
        <time>2021-08-31T00:24:10.401Z</time>
      </trkpt>
      <trkpt lat="42.73248" lon="2.57652">
        <ele>286.5</ele>
        <time>2021-08-31T00:24:13.253Z</time>
      </trkpt>
      <trkpt lat="42.73258" lon="2.57653">
        <ele>286.8</ele>
        <time>2021-08-31T00:24:15.498Z</time>
      </trkpt>
      <trkpt lat="42.73273" lon="2.57647">
        <ele>286.1</ele>
        <time>2021-08-31T00:24:16.944Z</time>
      </trkpt>
      <trkpt lat="42.73291" lon="2.57635">
        <ele>284.2</ele>
        <time>2021-08-31T00:24:18.633Z</time>
      </trkpt>
      <trkpt lat="42.73307" lon="2.57631">
        <ele>283.8</ele>
        <time>2021-08-31T00:24:20.476Z</time>
      </trkpt>
      <trkpt lat="42.7332" lon="2.5763">
        <ele>283.8</ele>
        <time>2021-08-31T00:24:22.593Z</time>
      </trkpt>
      <trkpt lat="42.73333" lon="2.5763">
        <ele>284.1</ele>
        <time>2021-08-31T00:24:25.272Z</time>
      </trkpt>
      <trkpt lat="42.7334" lon="2.5763">
        <ele>284</ele>
        <time>2021-08-31T00:24:26.168Z</time>
      </trkpt>
      <trkpt lat="42.73379" lon="2.57616">
        <ele>280.7</ele>
        <time>2021-08-31T00:24:29.566Z</time>
      </trkpt>
      <trkpt lat="42.73393" lon="2.57617">
        <ele>280.8</ele>
        <time>2021-08-31T00:24:32.004Z</time>
      </trkpt>
      <trkpt lat="42.73403" lon="2.57625">
        <ele>282.2</ele>
        <time>2021-08-31T00:24:38.145Z</time>
      </trkpt>
      <trkpt lat="42.7341" lon="2.57637">
        <ele>284.1</ele>
        <time>2021-08-31T00:24:45.202Z</time>
      </trkpt>
      <trkpt lat="42.73416" lon="2.57659">
        <ele>287.7</ele>
        <time>2021-08-31T00:24:56.009Z</time>
      </trkpt>
      <trkpt lat="42.73418" lon="2.57687">
        <ele>291.8</ele>
        <time>2021-08-31T00:25:08.963Z</time>
      </trkpt>
      <trkpt lat="42.73421" lon="2.57711">
        <ele>295</ele>
        <time>2021-08-31T00:25:20.174Z</time>
      </trkpt>
      <trkpt lat="42.73424" lon="2.57728">
        <ele>297.1</ele>
        <time>2021-08-31T00:25:28.225Z</time>
      </trkpt>
      <trkpt lat="42.73431" lon="2.57745">
        <ele>298.8</ele>
        <time>2021-08-31T00:25:35.629Z</time>
      </trkpt>
      <trkpt lat="42.73443" lon="2.57777">
        <ele>299.5</ele>
        <time>2021-08-31T00:25:41.295Z</time>
      </trkpt>
      <trkpt lat="42.73448" lon="2.57798">
        <ele>300.2</ele>
        <time>2021-08-31T00:25:45.654Z</time>
      </trkpt>
      <trkpt lat="42.73447" lon="2.57814">
        <ele>301.1</ele>
        <time>2021-08-31T00:25:49.705Z</time>
      </trkpt>
      <trkpt lat="42.73443" lon="2.57832">
        <ele>302.4</ele>
        <time>2021-08-31T00:25:55.226Z</time>
      </trkpt>
      <trkpt lat="42.73433" lon="2.5785">
        <ele>300.8</ele>
        <time>2021-08-31T00:25:56.623Z</time>
      </trkpt>
      <trkpt lat="42.73407" lon="2.5787">
        <ele>299.8</ele>
        <time>2021-08-31T00:25:59.702Z</time>
      </trkpt>
      <trkpt lat="42.73381" lon="2.57886">
        <ele>301.3</ele>
        <time>2021-08-31T00:26:07.950Z</time>
      </trkpt>
      <trkpt lat="42.73358" lon="2.57896">
        <ele>303.8</ele>
        <time>2021-08-31T00:26:18.521Z</time>
      </trkpt>
      <trkpt lat="42.73347" lon="2.57907">
        <ele>305</ele>
        <time>2021-08-31T00:26:23.682Z</time>
      </trkpt>
      <trkpt lat="42.73322" lon="2.57943">
        <ele>304.7</ele>
        <time>2021-08-31T00:26:28.723Z</time>
      </trkpt>
      <trkpt lat="42.73314" lon="2.57951">
        <ele>304.2</ele>
        <time>2021-08-31T00:26:29.597Z</time>
      </trkpt>
      <trkpt lat="42.73303" lon="2.57955">
        <ele>304.2</ele>
        <time>2021-08-31T00:26:31.447Z</time>
      </trkpt>
      <trkpt lat="42.73292" lon="2.57957">
        <ele>304.3</ele>
        <time>2021-08-31T00:26:33.413Z</time>
      </trkpt>
      <trkpt lat="42.73281" lon="2.57954">
        <ele>304.9</ele>
        <time>2021-08-31T00:26:36.676Z</time>
      </trkpt>
      <trkpt lat="42.73192" lon="2.57917">
        <ele>308.7</ele>
        <time>2021-08-31T00:27:00.840Z</time>
      </trkpt>
      <trkpt lat="42.73179" lon="2.57909">
        <ele>309</ele>
        <time>2021-08-31T00:27:03.712Z</time>
      </trkpt>
      <trkpt lat="42.73164" lon="2.57892">
        <ele>309.7</ele>
        <time>2021-08-31T00:27:08.436Z</time>
      </trkpt>
      <trkpt lat="42.73146" lon="2.57872">
        <ele>310.7</ele>
        <time>2021-08-31T00:27:14.670Z</time>
      </trkpt>
      <trkpt lat="42.73089" lon="2.57827">
        <ele>315</ele>
        <time>2021-08-31T00:27:35.477Z</time>
      </trkpt>
      <trkpt lat="42.73082" lon="2.57823">
        <ele>315.8</ele>
        <time>2021-08-31T00:27:38.864Z</time>
      </trkpt>
      <trkpt lat="42.7307" lon="2.57816">
        <ele>318.5</ele>
        <time>2021-08-31T00:27:47.049Z</time>
      </trkpt>
      <trkpt lat="42.7306" lon="2.57813">
        <ele>320.7</ele>
        <time>2021-08-31T00:27:53.468Z</time>
      </trkpt>
      <trkpt lat="42.73051" lon="2.57814">
        <ele>322.4</ele>
        <time>2021-08-31T00:27:59.130Z</time>
      </trkpt>
      <trkpt lat="42.73041" lon="2.57823">
        <ele>324.1</ele>
        <time>2021-08-31T00:28:06.645Z</time>
      </trkpt>
      <trkpt lat="42.73034" lon="2.57845">
        <ele>324.8</ele>
        <time>2021-08-31T00:28:11.146Z</time>
      </trkpt>
      <trkpt lat="42.73028" lon="2.5789">
        <ele>325.1</ele>
        <time>2021-08-31T00:28:17.093Z</time>
      </trkpt>
      <trkpt lat="42.73027" lon="2.57915">
        <ele>324.9</ele>
        <time>2021-08-31T00:28:19.553Z</time>
      </trkpt>
      <trkpt lat="42.73033" lon="2.57975">
        <ele>319.8</ele>
        <time>2021-08-31T00:28:23.300Z</time>
      </trkpt>
      <trkpt lat="42.73032" lon="2.57977">
        <ele>319.9</ele>
        <time>2021-08-31T00:28:23.827Z</time>
      </trkpt>
      <trkpt lat="42.7303" lon="2.5799">
        <ele>319.5</ele>
        <time>2021-08-31T00:28:24.762Z</time>
      </trkpt>
      <trkpt lat="42.73023" lon="2.58">
        <ele>320.3</ele>
        <time>2021-08-31T00:28:28.317Z</time>
      </trkpt>
      <trkpt lat="42.73021" lon="2.58">
        <ele>320.7</ele>
        <time>2021-08-31T00:28:29.571Z</time>
      </trkpt>
      <trkpt lat="42.7301" lon="2.58001">
        <ele>322.8</ele>
        <time>2021-08-31T00:28:36.483Z</time>
      </trkpt>
      <trkpt lat="42.72991" lon="2.57995">
        <ele>326.5</ele>
        <time>2021-08-31T00:28:48.711Z</time>
      </trkpt>
      <trkpt lat="42.72975" lon="2.57997">
        <ele>328.3</ele>
        <time>2021-08-31T00:28:56.404Z</time>
      </trkpt>
      <trkpt lat="42.72957" lon="2.58004">
        <ele>329.8</ele>
        <time>2021-08-31T00:29:03.033Z</time>
      </trkpt>
      <trkpt lat="42.7294" lon="2.58007">
        <ele>331.5</ele>
        <time>2021-08-31T00:29:10.221Z</time>
      </trkpt>
      <trkpt lat="42.72871" lon="2.57995">
        <ele>342.1</ele>
        <time>2021-08-31T00:29:53.831Z</time>
      </trkpt>
      <trkpt lat="42.72855" lon="2.58">
        <ele>343.9</ele>
        <time>2021-08-31T00:30:01.490Z</time>
      </trkpt>
      <trkpt lat="42.72849" lon="2.5801">
        <ele>344.5</ele>
        <time>2021-08-31T00:30:04.442Z</time>
      </trkpt>
      <trkpt lat="42.72845" lon="2.5803">
        <ele>344.7</ele>
        <time>2021-08-31T00:30:07.255Z</time>
      </trkpt>
      <trkpt lat="42.72847" lon="2.58063">
        <ele>343.5</ele>
        <time>2021-08-31T00:30:09.416Z</time>
      </trkpt>
      <trkpt lat="42.72858" lon="2.58121">
        <ele>342.7</ele>
        <time>2021-08-31T00:30:14.785Z</time>
      </trkpt>
      <trkpt lat="42.72861" lon="2.58147">
        <ele>343.6</ele>
        <time>2021-08-31T00:30:20.159Z</time>
      </trkpt>
      <trkpt lat="42.72864" lon="2.58166">
        <ele>344.2</ele>
        <time>2021-08-31T00:30:23.931Z</time>
      </trkpt>
      <trkpt lat="42.72871" lon="2.58179">
        <ele>343.5</ele>
        <time>2021-08-31T00:30:24.901Z</time>
      </trkpt>
      <trkpt lat="42.72891" lon="2.58204">
        <ele>341.9</ele>
        <time>2021-08-31T00:30:27.127Z</time>
      </trkpt>
      <trkpt lat="42.72904" lon="2.58221">
        <ele>341.3</ele>
        <time>2021-08-31T00:30:28.989Z</time>
      </trkpt>
      <trkpt lat="42.72913" lon="2.58243">
        <ele>341.8</ele>
        <time>2021-08-31T00:30:32.985Z</time>
      </trkpt>
      <trkpt lat="42.72915" lon="2.5826">
        <ele>341.9</ele>
        <time>2021-08-31T00:30:35.201Z</time>
      </trkpt>
      <trkpt lat="42.72914" lon="2.58274">
        <ele>341.6</ele>
        <time>2021-08-31T00:30:36.317Z</time>
      </trkpt>
      <trkpt lat="42.72911" lon="2.58285">
        <ele>341.6</ele>
        <time>2021-08-31T00:30:37.718Z</time>
      </trkpt>
      <trkpt lat="42.72909" lon="2.58292">
        <ele>341.6</ele>
        <time>2021-08-31T00:30:38.615Z</time>
      </trkpt>
      <trkpt lat="42.72896" lon="2.58302">
        <ele>342.5</ele>
        <time>2021-08-31T00:30:43.165Z</time>
      </trkpt>
      <trkpt lat="42.72871" lon="2.58318">
        <ele>344.2</ele>
        <time>2021-08-31T00:30:51.658Z</time>
      </trkpt>
      <trkpt lat="42.72859" lon="2.58333">
        <ele>344.9</ele>
        <time>2021-08-31T00:30:56.025Z</time>
      </trkpt>
      <trkpt lat="42.7284" lon="2.58374">
        <ele>343.4</ele>
        <time>2021-08-31T00:30:59.401Z</time>
      </trkpt>
      <trkpt lat="42.72827" lon="2.58391">
        <ele>343.1</ele>
        <time>2021-08-31T00:31:01.642Z</time>
      </trkpt>
      <trkpt lat="42.72804" lon="2.58403">
        <ele>342.7</ele>
        <time>2021-08-31T00:31:04.719Z</time>
      </trkpt>
      <trkpt lat="42.7279" lon="2.58403">
        <ele>343</ele>
        <time>2021-08-31T00:31:07.550Z</time>
      </trkpt>
      <trkpt lat="42.72762" lon="2.58392">
        <ele>345.2</ele>
        <time>2021-08-31T00:31:17.494Z</time>
      </trkpt>
      <trkpt lat="42.72723" lon="2.58383">
        <ele>344.8</ele>
        <time>2021-08-31T00:31:22.837Z</time>
      </trkpt>
      <trkpt lat="42.72709" lon="2.58376">
        <ele>344.7</ele>
        <time>2021-08-31T00:31:25.035Z</time>
      </trkpt>
      <trkpt lat="42.72692" lon="2.58357">
        <ele>345.6</ele>
        <time>2021-08-31T00:31:30.754Z</time>
      </trkpt>
      <trkpt lat="42.72684" lon="2.58339">
        <ele>347</ele>
        <time>2021-08-31T00:31:36.737Z</time>
      </trkpt>
      <trkpt lat="42.72674" lon="2.58283">
        <ele>351.7</ele>
        <time>2021-08-31T00:31:56.784Z</time>
      </trkpt>
      <trkpt lat="42.72666" lon="2.58269">
        <ele>352.9</ele>
        <time>2021-08-31T00:32:01.898Z</time>
      </trkpt>
      <trkpt lat="42.72653" lon="2.58259">
        <ele>353.6</ele>
        <time>2021-08-31T00:32:06.056Z</time>
      </trkpt>
      <trkpt lat="42.72611" lon="2.58248">
        <ele>353.2</ele>
        <time>2021-08-31T00:32:11.893Z</time>
      </trkpt>
      <trkpt lat="42.72588" lon="2.58229">
        <ele>354.2</ele>
        <time>2021-08-31T00:32:18.523Z</time>
      </trkpt>
      <trkpt lat="42.72575" lon="2.5822">
        <ele>356.4</ele>
        <time>2021-08-31T00:32:27.666Z</time>
      </trkpt>
      <trkpt lat="42.72566" lon="2.5822">
        <ele>358</ele>
        <time>2021-08-31T00:32:33.309Z</time>
      </trkpt>
      <trkpt lat="42.72556" lon="2.58225">
        <ele>359.5</ele>
        <time>2021-08-31T00:32:39.988Z</time>
      </trkpt>
      <trkpt lat="42.72547" lon="2.58239">
        <ele>360.4</ele>
        <time>2021-08-31T00:32:44.322Z</time>
      </trkpt>
      <trkpt lat="42.72541" lon="2.58257">
        <ele>361.3</ele>
        <time>2021-08-31T00:32:48.801Z</time>
      </trkpt>
      <trkpt lat="42.7254" lon="2.58284">
        <ele>362</ele>
        <time>2021-08-31T00:32:53.568Z</time>
      </trkpt>
      <trkpt lat="42.72544" lon="2.58307">
        <ele>361.3</ele>
        <time>2021-08-31T00:32:55.242Z</time>
      </trkpt>
      <trkpt lat="42.72561" lon="2.58342">
        <ele>356.2</ele>
        <time>2021-08-31T00:32:57.839Z</time>
      </trkpt>
      <trkpt lat="42.72568" lon="2.58358">
        <ele>353.8</ele>
        <time>2021-08-31T00:32:58.991Z</time>
      </trkpt>
      <trkpt lat="42.72568" lon="2.58374">
        <ele>353.7</ele>
        <time>2021-08-31T00:33:00.614Z</time>
      </trkpt>
      <trkpt lat="42.72562" lon="2.5839">
        <ele>355.4</ele>
        <time>2021-08-31T00:33:08.370Z</time>
      </trkpt>
      <trkpt lat="42.72539" lon="2.58423">
        <ele>361.4</ele>
        <time>2021-08-31T00:33:29.320Z</time>
      </trkpt>
      <trkpt lat="42.72515" lon="2.58467">
        <ele>364.1</ele>
        <time>2021-08-31T00:33:42.203Z</time>
      </trkpt>
      <trkpt lat="42.72514" lon="2.58469">
        <ele>364.2</ele>
        <time>2021-08-31T00:33:42.729Z</time>
      </trkpt>
      <trkpt lat="42.72463" lon="2.58596">
        <ele>365.2</ele>
        <time>2021-08-31T00:34:01.641Z</time>
      </trkpt>
      <trkpt lat="42.72452" lon="2.58632">
        <ele>367.3</ele>
        <time>2021-08-31T00:34:11.249Z</time>
      </trkpt>
      <trkpt lat="42.72447" lon="2.58655">
        <ele>368</ele>
        <time>2021-08-31T00:34:15.751Z</time>
      </trkpt>
      <trkpt lat="42.72439" lon="2.58717">
        <ele>368.9</ele>
        <time>2021-08-31T00:34:24.898Z</time>
      </trkpt>
      <trkpt lat="42.72434" lon="2.58744">
        <ele>369.4</ele>
        <time>2021-08-31T00:34:29.182Z</time>
      </trkpt>
      <trkpt lat="42.72426" lon="2.58765">
        <ele>369.5</ele>
        <time>2021-08-31T00:34:32.164Z</time>
      </trkpt>
      <trkpt lat="42.72416" lon="2.58777">
        <ele>370.1</ele>
        <time>2021-08-31T00:34:35.833Z</time>
      </trkpt>
      <trkpt lat="42.72403" lon="2.58799">
        <ele>371.3</ele>
        <time>2021-08-31T00:34:42.048Z</time>
      </trkpt>
      <trkpt lat="42.72396" lon="2.58824">
        <ele>371.3</ele>
        <time>2021-08-31T00:34:45.242Z</time>
      </trkpt>
      <trkpt lat="42.72394" lon="2.58886">
        <ele>370.3</ele>
        <time>2021-08-31T00:34:50.566Z</time>
      </trkpt>
      <trkpt lat="42.72389" lon="2.58908">
        <ele>370.8</ele>
        <time>2021-08-31T00:34:54.336Z</time>
      </trkpt>
      <trkpt lat="42.72382" lon="2.58918">
        <ele>371.7</ele>
        <time>2021-08-31T00:34:58.200Z</time>
      </trkpt>
      <trkpt lat="42.72344" lon="2.58947">
        <ele>377</ele>
        <time>2021-08-31T00:35:21.540Z</time>
      </trkpt>
      <trkpt lat="42.72317" lon="2.58975">
        <ele>380.1</ele>
        <time>2021-08-31T00:35:34.769Z</time>
      </trkpt>
      <trkpt lat="42.72296" lon="2.59">
        <ele>381.9</ele>
        <time>2021-08-31T00:35:43.532Z</time>
      </trkpt>
      <trkpt lat="42.72279" lon="2.59024">
        <ele>383</ele>
        <time>2021-08-31T00:35:50.268Z</time>
      </trkpt>
      <trkpt lat="42.72264" lon="2.59051">
        <ele>383.7</ele>
        <time>2021-08-31T00:35:55.714Z</time>
      </trkpt>
      <trkpt lat="42.72252" lon="2.59077">
        <ele>384</ele>
        <time>2021-08-31T00:35:59.889Z</time>
      </trkpt>
      <trkpt lat="42.72249" lon="2.59095">
        <ele>385.1</ele>
        <time>2021-08-31T00:36:04.730Z</time>
      </trkpt>
      <trkpt lat="42.72253" lon="2.5912">
        <ele>386.3</ele>
        <time>2021-08-31T00:36:10.605Z</time>
      </trkpt>
      <trkpt lat="42.7227" lon="2.59181">
        <ele>388.6</ele>
        <time>2021-08-31T00:36:24.050Z</time>
      </trkpt>
      <trkpt lat="42.72279" lon="2.59258">
        <ele>391.6</ele>
        <time>2021-08-31T00:36:40.586Z</time>
      </trkpt>
      <trkpt lat="42.72272" lon="2.59328">
        <ele>391.6</ele>
        <time>2021-08-31T00:36:49.022Z</time>
      </trkpt>
      <trkpt lat="42.7226" lon="2.59391">
        <ele>390.1</ele>
        <time>2021-08-31T00:36:54.060Z</time>
      </trkpt>
      <trkpt lat="42.72253" lon="2.59409">
        <ele>390</ele>
        <time>2021-08-31T00:36:56.266Z</time>
      </trkpt>
      <trkpt lat="42.72243" lon="2.59424">
        <ele>390.6</ele>
        <time>2021-08-31T00:37:00.101Z</time>
      </trkpt>
      <trkpt lat="42.72212" lon="2.59459">
        <ele>393.5</ele>
        <time>2021-08-31T00:37:13.476Z</time>
      </trkpt>
      <trkpt lat="42.72172" lon="2.59567">
        <ele>398.1</ele>
        <time>2021-08-31T00:37:39.026Z</time>
      </trkpt>
      <trkpt lat="42.72171" lon="2.59592">
        <ele>398.4</ele>
        <time>2021-08-31T00:37:42.540Z</time>
      </trkpt>
      <trkpt lat="42.72177" lon="2.59614">
        <ele>398.1</ele>
        <time>2021-08-31T00:37:44.664Z</time>
      </trkpt>
      <trkpt lat="42.72198" lon="2.59648">
        <ele>395.5</ele>
        <time>2021-08-31T00:37:47.413Z</time>
      </trkpt>
      <trkpt lat="42.72206" lon="2.59666">
        <ele>394.9</ele>
        <time>2021-08-31T00:37:48.925Z</time>
      </trkpt>
      <trkpt lat="42.72208" lon="2.59681">
        <ele>395</ele>
        <time>2021-08-31T00:37:50.908Z</time>
      </trkpt>
      <trkpt lat="42.72204" lon="2.59689">
        <ele>396</ele>
        <time>2021-08-31T00:37:55.365Z</time>
      </trkpt>
      <trkpt lat="42.72194" lon="2.59703">
        <ele>398.1</ele>
        <time>2021-08-31T00:38:04.358Z</time>
      </trkpt>
      <trkpt lat="42.72175" lon="2.59722">
        <ele>401.6</ele>
        <time>2021-08-31T00:38:19.139Z</time>
      </trkpt>
      <trkpt lat="42.72154" lon="2.59752">
        <ele>406</ele>
        <time>2021-08-31T00:38:38.224Z</time>
      </trkpt>
      <trkpt lat="42.72146" lon="2.59776">
        <ele>407.2</ele>
        <time>2021-08-31T00:38:44.196Z</time>
      </trkpt>
      <trkpt lat="42.7214" lon="2.59821">
        <ele>406.9</ele>
        <time>2021-08-31T00:38:48.807Z</time>
      </trkpt>
      <trkpt lat="42.72143" lon="2.5985">
        <ele>406.7</ele>
        <time>2021-08-31T00:38:51.745Z</time>
      </trkpt>
      <trkpt lat="42.72149" lon="2.59862">
        <ele>406.4</ele>
        <time>2021-08-31T00:38:52.908Z</time>
      </trkpt>
      <trkpt lat="42.72156" lon="2.59886">
        <ele>406.9</ele>
        <time>2021-08-31T00:38:56.973Z</time>
      </trkpt>
      <trkpt lat="42.72161" lon="2.59905">
        <ele>407.6</ele>
        <time>2021-08-31T00:39:01.111Z</time>
      </trkpt>
      <trkpt lat="42.72153" lon="2.59936">
        <ele>408.9</ele>
        <time>2021-08-31T00:39:08.149Z</time>
      </trkpt>
      <trkpt lat="42.72131" lon="2.60004">
        <ele>409.5</ele>
        <time>2021-08-31T00:39:18.015Z</time>
      </trkpt>
      <trkpt lat="42.72115" lon="2.60026">
        <ele>408.7</ele>
        <time>2021-08-31T00:39:20.320Z</time>
      </trkpt>
      <trkpt lat="42.72099" lon="2.60049">
        <ele>407.8</ele>
        <time>2021-08-31T00:39:22.600Z</time>
      </trkpt>
      <trkpt lat="42.72088" lon="2.6009">
        <ele>405.3</ele>
        <time>2021-08-31T00:39:25.301Z</time>
      </trkpt>
      <trkpt lat="42.72084" lon="2.60123">
        <ele>402.2</ele>
        <time>2021-08-31T00:39:27.371Z</time>
      </trkpt>
      <trkpt lat="42.72076" lon="2.60149">
        <ele>400.9</ele>
        <time>2021-08-31T00:39:29.018Z</time>
      </trkpt>
      <trkpt lat="42.72053" lon="2.60196">
        <ele>399.5</ele>
        <time>2021-08-31T00:39:33.285Z</time>
      </trkpt>
      <trkpt lat="42.72034" lon="2.60238">
        <ele>396.7</ele>
        <time>2021-08-31T00:39:36.338Z</time>
      </trkpt>
      <trkpt lat="42.72012" lon="2.60264">
        <ele>395.4</ele>
        <time>2021-08-31T00:39:39.038Z</time>
      </trkpt>
      <trkpt lat="42.71959" lon="2.60352">
        <ele>391.5</ele>
        <time>2021-08-31T00:39:46.643Z</time>
      </trkpt>
      <trkpt lat="42.71948" lon="2.60379">
        <ele>389.8</ele>
        <time>2021-08-31T00:39:48.554Z</time>
      </trkpt>
      <trkpt lat="42.71943" lon="2.60401">
        <ele>387.6</ele>
        <time>2021-08-31T00:39:49.980Z</time>
      </trkpt>
      <trkpt lat="42.71933" lon="2.60422">
        <ele>385.9</ele>
        <time>2021-08-31T00:39:51.529Z</time>
      </trkpt>
      <trkpt lat="42.71892" lon="2.60453">
        <ele>386.9</ele>
        <time>2021-08-31T00:40:01.002Z</time>
      </trkpt>
      <trkpt lat="42.71868" lon="2.60506">
        <ele>381.9</ele>
        <time>2021-08-31T00:40:04.855Z</time>
      </trkpt>
      <trkpt lat="42.71854" lon="2.60522">
        <ele>382.3</ele>
        <time>2021-08-31T00:40:08.572Z</time>
      </trkpt>
      <trkpt lat="42.71868" lon="2.60506">
        <ele>381.9</ele>
        <time>2021-08-31T00:40:10.707Z</time>
      </trkpt>
      <trkpt lat="42.71864" lon="2.60517">
        <ele>381.2</ele>
        <time>2021-08-31T00:40:11.467Z</time>
      </trkpt>
      <trkpt lat="42.71842" lon="2.60587">
        <ele>376</ele>
        <time>2021-08-31T00:40:16.180Z</time>
      </trkpt>
      <trkpt lat="42.71829" lon="2.60629">
        <ele>373.3</ele>
        <time>2021-08-31T00:40:19.000Z</time>
      </trkpt>
      <trkpt lat="42.71823" lon="2.60648">
        <ele>371.6</ele>
        <time>2021-08-31T00:40:20.280Z</time>
      </trkpt>
      <trkpt lat="42.71818" lon="2.60664">
        <ele>370.2</ele>
        <time>2021-08-31T00:40:21.357Z</time>
      </trkpt>
      <trkpt lat="42.71811" lon="2.60689">
        <ele>367</ele>
        <time>2021-08-31T00:40:23.013Z</time>
      </trkpt>
      <trkpt lat="42.71804" lon="2.60711">
        <ele>364.4</ele>
        <time>2021-08-31T00:40:24.496Z</time>
      </trkpt>
      <trkpt lat="42.718" lon="2.60724">
        <ele>363</ele>
        <time>2021-08-31T00:40:25.369Z</time>
      </trkpt>
      <trkpt lat="42.71796" lon="2.6074">
        <ele>361.3</ele>
        <time>2021-08-31T00:40:26.415Z</time>
      </trkpt>
      <trkpt lat="42.71787" lon="2.60748">
        <ele>361.4</ele>
        <time>2021-08-31T00:40:28.325Z</time>
      </trkpt>
      <trkpt lat="42.71773" lon="2.60754">
        <ele>362.5</ele>
        <time>2021-08-31T00:40:33.311Z</time>
      </trkpt>
      <trkpt lat="42.71766" lon="2.60751">
        <ele>363.8</ele>
        <time>2021-08-31T00:40:37.912Z</time>
      </trkpt>
      <trkpt lat="42.7176" lon="2.60747">
        <ele>365</ele>
        <time>2021-08-31T00:40:42.101Z</time>
      </trkpt>
      <trkpt lat="42.71749" lon="2.60738">
        <ele>367</ele>
        <time>2021-08-31T00:40:50.147Z</time>
      </trkpt>
      <trkpt lat="42.71744" lon="2.60725">
        <ele>367.4</ele>
        <time>2021-08-31T00:40:52.802Z</time>
      </trkpt>
      <trkpt lat="42.71738" lon="2.60689">
        <ele>370.1</ele>
        <time>2021-08-31T00:41:04.216Z</time>
      </trkpt>
      <trkpt lat="42.71736" lon="2.6068">
        <ele>370.7</ele>
        <time>2021-08-31T00:41:06.804Z</time>
      </trkpt>
      <trkpt lat="42.71732" lon="2.60669">
        <ele>371.2</ele>
        <time>2021-08-31T00:41:09.462Z</time>
      </trkpt>
      <trkpt lat="42.71724" lon="2.60655">
        <ele>371.4</ele>
        <time>2021-08-31T00:41:11.926Z</time>
      </trkpt>
      <trkpt lat="42.71707" lon="2.60639">
        <ele>370.5</ele>
        <time>2021-08-31T00:41:13.860Z</time>
      </trkpt>
      <trkpt lat="42.71695" lon="2.60633">
        <ele>369.3</ele>
        <time>2021-08-31T00:41:14.937Z</time>
      </trkpt>
      <trkpt lat="42.71675" lon="2.6063">
        <ele>366.7</ele>
        <time>2021-08-31T00:41:16.632Z</time>
      </trkpt>
      <trkpt lat="42.71671" lon="2.60634">
        <ele>365.8</ele>
        <time>2021-08-31T00:41:17.051Z</time>
      </trkpt>
      <trkpt lat="42.71667" lon="2.60638">
        <ele>364.8</ele>
        <time>2021-08-31T00:41:17.469Z</time>
      </trkpt>
      <trkpt lat="42.71661" lon="2.60647">
        <ele>363.9</ele>
        <time>2021-08-31T00:41:18.221Z</time>
      </trkpt>
      <trkpt lat="42.71657" lon="2.60654">
        <ele>363.2</ele>
        <time>2021-08-31T00:41:18.770Z</time>
      </trkpt>
      <trkpt lat="42.7165" lon="2.6066">
        <ele>362.5</ele>
        <time>2021-08-31T00:41:19.467Z</time>
      </trkpt>
      <trkpt lat="42.71642" lon="2.60658">
        <ele>362.7</ele>
        <time>2021-08-31T00:41:21.173Z</time>
      </trkpt>
      <trkpt lat="42.71621" lon="2.60645">
        <ele>364.2</ele>
        <time>2021-08-31T00:41:28.446Z</time>
      </trkpt>
      <trkpt lat="42.7161" lon="2.60643">
        <ele>364.6</ele>
        <time>2021-08-31T00:41:31.138Z</time>
      </trkpt>
      <trkpt lat="42.71601" lon="2.60648">
        <ele>363.9</ele>
        <time>2021-08-31T00:41:31.957Z</time>
      </trkpt>
      <trkpt lat="42.71596" lon="2.60655">
        <ele>362.9</ele>
        <time>2021-08-31T00:41:32.562Z</time>
      </trkpt>
      <trkpt lat="42.71584" lon="2.60683">
        <ele>358.3</ele>
        <time>2021-08-31T00:41:34.568Z</time>
      </trkpt>
      <trkpt lat="42.71574" lon="2.60689">
        <ele>358.7</ele>
        <time>2021-08-31T00:41:37.240Z</time>
      </trkpt>
      <trkpt lat="42.71551" lon="2.60689">
        <ele>362.1</ele>
        <time>2021-08-31T00:41:51.660Z</time>
      </trkpt>
      <trkpt lat="42.7154" lon="2.607">
        <ele>362.1</ele>
        <time>2021-08-31T00:41:53.878Z</time>
      </trkpt>
      <trkpt lat="42.71535" lon="2.60713">
        <ele>360.8</ele>
        <time>2021-08-31T00:41:54.787Z</time>
      </trkpt>
      <trkpt lat="42.71527" lon="2.60741">
        <ele>357.8</ele>
        <time>2021-08-31T00:41:56.646Z</time>
      </trkpt>
      <trkpt lat="42.71507" lon="2.60784">
        <ele>353.1</ele>
        <time>2021-08-31T00:41:59.796Z</time>
      </trkpt>
      <trkpt lat="42.71493" lon="2.60805">
        <ele>350.5</ele>
        <time>2021-08-31T00:42:01.552Z</time>
      </trkpt>
      <trkpt lat="42.7148" lon="2.60817">
        <ele>349.1</ele>
        <time>2021-08-31T00:42:02.875Z</time>
      </trkpt>
      <trkpt lat="42.71466" lon="2.60828">
        <ele>347.7</ele>
        <time>2021-08-31T00:42:04.237Z</time>
      </trkpt>
      <trkpt lat="42.71449" lon="2.60839">
        <ele>346.4</ele>
        <time>2021-08-31T00:42:05.823Z</time>
      </trkpt>
      <trkpt lat="42.71428" lon="2.60841">
        <ele>347.3</ele>
        <time>2021-08-31T00:42:11.447Z</time>
      </trkpt>
      <trkpt lat="42.71367" lon="2.60841">
        <ele>350.8</ele>
        <time>2021-08-31T00:42:29.664Z</time>
      </trkpt>
      <trkpt lat="42.7136" lon="2.60845">
        <ele>350</ele>
        <time>2021-08-31T00:42:30.303Z</time>
      </trkpt>
      <trkpt lat="42.71351" lon="2.60857">
        <ele>347</ele>
        <time>2021-08-31T00:42:31.365Z</time>
      </trkpt>
      <trkpt lat="42.71339" lon="2.60879">
        <ele>341.1</ele>
        <time>2021-08-31T00:42:33.061Z</time>
      </trkpt>
      <trkpt lat="42.71316" lon="2.60907">
        <ele>334.8</ele>
        <time>2021-08-31T00:42:35.661Z</time>
      </trkpt>
      <trkpt lat="42.71294" lon="2.60939">
        <ele>333.2</ele>
        <time>2021-08-31T00:42:38.513Z</time>
      </trkpt>
      <trkpt lat="42.71278" lon="2.60965">
        <ele>332.7</ele>
        <time>2021-08-31T00:42:41.486Z</time>
      </trkpt>
      <trkpt lat="42.71267" lon="2.60986">
        <ele>331.8</ele>
        <time>2021-08-31T00:42:43.197Z</time>
      </trkpt>
      <trkpt lat="42.71261" lon="2.61007">
        <ele>330.7</ele>
        <time>2021-08-31T00:42:44.477Z</time>
      </trkpt>
      <trkpt lat="42.71255" lon="2.61039">
        <ele>329.9</ele>
        <time>2021-08-31T00:42:46.992Z</time>
      </trkpt>
      <trkpt lat="42.7125" lon="2.61092">
        <ele>327.6</ele>
        <time>2021-08-31T00:42:50.220Z</time>
      </trkpt>
      <trkpt lat="42.71248" lon="2.61128">
        <ele>326</ele>
        <time>2021-08-31T00:42:52.371Z</time>
      </trkpt>
      <trkpt lat="42.71243" lon="2.61156">
        <ele>324.9</ele>
        <time>2021-08-31T00:42:54.210Z</time>
      </trkpt>
      <trkpt lat="42.71237" lon="2.61176">
        <ele>324</ele>
        <time>2021-08-31T00:42:55.536Z</time>
      </trkpt>
      <trkpt lat="42.71224" lon="2.61195">
        <ele>322.7</ele>
        <time>2021-08-31T00:42:57.143Z</time>
      </trkpt>
      <trkpt lat="42.71211" lon="2.61205">
        <ele>321.9</ele>
        <time>2021-08-31T00:42:58.422Z</time>
      </trkpt>
      <trkpt lat="42.71197" lon="2.61209">
        <ele>321.5</ele>
        <time>2021-08-31T00:42:59.984Z</time>
      </trkpt>
      <trkpt lat="42.71152" lon="2.61214">
        <ele>320.2</ele>
        <time>2021-08-31T00:43:04.872Z</time>
      </trkpt>
      <trkpt lat="42.71127" lon="2.61221">
        <ele>317.9</ele>
        <time>2021-08-31T00:43:07.022Z</time>
      </trkpt>
      <trkpt lat="42.71111" lon="2.61229">
        <ele>316.2</ele>
        <time>2021-08-31T00:43:08.458Z</time>
      </trkpt>
      <trkpt lat="42.71088" lon="2.61245">
        <ele>313.6</ele>
        <time>2021-08-31T00:43:10.634Z</time>
      </trkpt>
      <trkpt lat="42.71077" lon="2.61246">
        <ele>313.2</ele>
        <time>2021-08-31T00:43:11.740Z</time>
      </trkpt>
      <trkpt lat="42.71066" lon="2.61238">
        <ele>313.4</ele>
        <time>2021-08-31T00:43:14.116Z</time>
      </trkpt>
      <trkpt lat="42.71045" lon="2.61212">
        <ele>313.2</ele>
        <time>2021-08-31T00:43:18.281Z</time>
      </trkpt>
      <trkpt lat="42.71024" lon="2.61192">
        <ele>311.2</ele>
        <time>2021-08-31T00:43:20.440Z</time>
      </trkpt>
      <trkpt lat="42.70988" lon="2.61164">
        <ele>307.6</ele>
        <time>2021-08-31T00:43:23.934Z</time>
      </trkpt>
      <trkpt lat="42.70983" lon="2.61151">
        <ele>307.2</ele>
        <time>2021-08-31T00:43:25.006Z</time>
      </trkpt>
      <trkpt lat="42.70982" lon="2.61135">
        <ele>306.4</ele>
        <time>2021-08-31T00:43:26.000Z</time>
      </trkpt>
      <trkpt lat="42.7099" lon="2.61106">
        <ele>304.2</ele>
        <time>2021-08-31T00:43:27.918Z</time>
      </trkpt>
      <trkpt lat="42.70991" lon="2.61095">
        <ele>303.5</ele>
        <time>2021-08-31T00:43:28.604Z</time>
      </trkpt>
      <trkpt lat="42.70989" lon="2.61085">
        <ele>303.1</ele>
        <time>2021-08-31T00:43:29.262Z</time>
      </trkpt>
      <trkpt lat="42.70984" lon="2.61076">
        <ele>303.3</ele>
        <time>2021-08-31T00:43:30.992Z</time>
      </trkpt>
      <trkpt lat="42.7097" lon="2.61058">
        <ele>303.9</ele>
        <time>2021-08-31T00:43:35.372Z</time>
      </trkpt>
      <trkpt lat="42.70946" lon="2.61032">
        <ele>304.2</ele>
        <time>2021-08-31T00:43:40.849Z</time>
      </trkpt>
      <trkpt lat="42.709" lon="2.60975">
        <ele>301.5</ele>
        <time>2021-08-31T00:43:46.678Z</time>
      </trkpt>
      <trkpt lat="42.70878" lon="2.60944">
        <ele>299.2</ele>
        <time>2021-08-31T00:43:49.346Z</time>
      </trkpt>
      <trkpt lat="42.70869" lon="2.60937">
        <ele>298.5</ele>
        <time>2021-08-31T00:43:50.219Z</time>
      </trkpt>
      <trkpt lat="42.70862" lon="2.60937">
        <ele>298.3</ele>
        <time>2021-08-31T00:43:50.979Z</time>
      </trkpt>
      <trkpt lat="42.70853" lon="2.60941">
        <ele>298.3</ele>
        <time>2021-08-31T00:43:52.518Z</time>
      </trkpt>
      <trkpt lat="42.70844" lon="2.6095">
        <ele>298.7</ele>
        <time>2021-08-31T00:43:55.219Z</time>
      </trkpt>
      <trkpt lat="42.7083" lon="2.60966">
        <ele>299.4</ele>
        <time>2021-08-31T00:43:59.796Z</time>
      </trkpt>
      <trkpt lat="42.70819" lon="2.60977">
        <ele>299.3</ele>
        <time>2021-08-31T00:44:01.711Z</time>
      </trkpt>
      <trkpt lat="42.70817" lon="2.60979">
        <ele>299.3</ele>
        <time>2021-08-31T00:44:02.114Z</time>
      </trkpt>
      <trkpt lat="42.70799" lon="2.60992">
        <ele>298.2</ele>
        <time>2021-08-31T00:44:03.854Z</time>
      </trkpt>
      <trkpt lat="42.70765" lon="2.61023">
        <ele>296.6</ele>
        <time>2021-08-31T00:44:07.847Z</time>
      </trkpt>
      <trkpt lat="42.70744" lon="2.61039">
        <ele>295.4</ele>
        <time>2021-08-31T00:44:09.976Z</time>
      </trkpt>
      <trkpt lat="42.70732" lon="2.61056">
        <ele>295.4</ele>
        <time>2021-08-31T00:44:12.791Z</time>
      </trkpt>
      <trkpt lat="42.70717" lon="2.61099">
        <ele>295.8</ele>
        <time>2021-08-31T00:44:19.142Z</time>
      </trkpt>
      <trkpt lat="42.70704" lon="2.61121">
        <ele>295.6</ele>
        <time>2021-08-31T00:44:21.961Z</time>
      </trkpt>
      <trkpt lat="42.70694" lon="2.61134">
        <ele>295</ele>
        <time>2021-08-31T00:44:23.257Z</time>
      </trkpt>
      <trkpt lat="42.70681" lon="2.61147">
        <ele>294</ele>
        <time>2021-08-31T00:44:24.548Z</time>
      </trkpt>
      <trkpt lat="42.70675" lon="2.61149">
        <ele>293.2</ele>
        <time>2021-08-31T00:44:25.069Z</time>
      </trkpt>
      <trkpt lat="42.7066" lon="2.61156">
        <ele>291.5</ele>
        <time>2021-08-31T00:44:26.405Z</time>
      </trkpt>
      <trkpt lat="42.70623" lon="2.61168">
        <ele>286.8</ele>
        <time>2021-08-31T00:44:29.609Z</time>
      </trkpt>
      <trkpt lat="42.70608" lon="2.61176">
        <ele>285.4</ele>
        <time>2021-08-31T00:44:30.966Z</time>
      </trkpt>
      <trkpt lat="42.7058" lon="2.61202">
        <ele>284.1</ele>
        <time>2021-08-31T00:44:34.297Z</time>
      </trkpt>
      <trkpt lat="42.70569" lon="2.61208">
        <ele>283.7</ele>
        <time>2021-08-31T00:44:35.516Z</time>
      </trkpt>
      <trkpt lat="42.70523" lon="2.61212">
        <ele>280</ele>
        <time>2021-08-31T00:44:39.399Z</time>
      </trkpt>
      <trkpt lat="42.7049" lon="2.61212">
        <ele>276.1</ele>
        <time>2021-08-31T00:44:42.179Z</time>
      </trkpt>
      <trkpt lat="42.70481" lon="2.61216">
        <ele>274.9</ele>
        <time>2021-08-31T00:44:42.977Z</time>
      </trkpt>
      <trkpt lat="42.70472" lon="2.61225">
        <ele>274.4</ele>
        <time>2021-08-31T00:44:44.010Z</time>
      </trkpt>
      <trkpt lat="42.70445" lon="2.61278">
        <ele>274.2</ele>
        <time>2021-08-31T00:44:51.246Z</time>
      </trkpt>
      <trkpt lat="42.70439" lon="2.61286">
        <ele>273.6</ele>
        <time>2021-08-31T00:44:51.953Z</time>
      </trkpt>
      <trkpt lat="42.7043" lon="2.61288">
        <ele>272.1</ele>
        <time>2021-08-31T00:44:52.721Z</time>
      </trkpt>
      <trkpt lat="42.70408" lon="2.61283">
        <ele>267.5</ele>
        <time>2021-08-31T00:44:54.601Z</time>
      </trkpt>
      <trkpt lat="42.704" lon="2.61284">
        <ele>265.6</ele>
        <time>2021-08-31T00:44:55.277Z</time>
      </trkpt>
      <trkpt lat="42.70388" lon="2.61293">
        <ele>263.2</ele>
        <time>2021-08-31T00:44:56.432Z</time>
      </trkpt>
      <trkpt lat="42.70382" lon="2.61309">
        <ele>262.5</ele>
        <time>2021-08-31T00:44:57.568Z</time>
      </trkpt>
      <trkpt lat="42.70383" lon="2.61328">
        <ele>263.7</ele>
        <time>2021-08-31T00:45:02.762Z</time>
      </trkpt>
      <trkpt lat="42.70404" lon="2.61369">
        <ele>269.4</ele>
        <time>2021-08-31T00:45:25.787Z</time>
      </trkpt>
      <trkpt lat="42.70406" lon="2.61391">
        <ele>270.1</ele>
        <time>2021-08-31T00:45:30.153Z</time>
      </trkpt>
      <trkpt lat="42.70402" lon="2.61407">
        <ele>269.6</ele>
        <time>2021-08-31T00:45:31.352Z</time>
      </trkpt>
      <trkpt lat="42.70395" lon="2.61417">
        <ele>268.7</ele>
        <time>2021-08-31T00:45:32.207Z</time>
      </trkpt>
      <trkpt lat="42.70385" lon="2.61418">
        <ele>267.2</ele>
        <time>2021-08-31T00:45:33.051Z</time>
      </trkpt>
      <trkpt lat="42.70363" lon="2.61404">
        <ele>262.9</ele>
        <time>2021-08-31T00:45:35.098Z</time>
      </trkpt>
      <trkpt lat="42.70355" lon="2.61401">
        <ele>261.4</ele>
        <time>2021-08-31T00:45:35.797Z</time>
      </trkpt>
      <trkpt lat="42.70343" lon="2.61404">
        <ele>259.6</ele>
        <time>2021-08-31T00:45:36.824Z</time>
      </trkpt>
      <trkpt lat="42.70318" lon="2.61438">
        <ele>261.3</ele>
        <time>2021-08-31T00:45:46.746Z</time>
      </trkpt>
      <trkpt lat="42.70305" lon="2.61446">
        <ele>261.2</ele>
        <time>2021-08-31T00:45:48.840Z</time>
      </trkpt>
      <trkpt lat="42.70292" lon="2.61445">
        <ele>259</ele>
        <time>2021-08-31T00:45:49.937Z</time>
      </trkpt>
      <trkpt lat="42.70264" lon="2.61438">
        <ele>253.2</ele>
        <time>2021-08-31T00:45:52.336Z</time>
      </trkpt>
      <trkpt lat="42.70251" lon="2.61438">
        <ele>251.3</ele>
        <time>2021-08-31T00:45:53.431Z</time>
      </trkpt>
      <trkpt lat="42.70237" lon="2.61448">
        <ele>252.5</ele>
        <time>2021-08-31T00:45:58.843Z</time>
      </trkpt>
      <trkpt lat="42.70207" lon="2.61491">
        <ele>254.7</ele>
        <time>2021-08-31T00:46:11.266Z</time>
      </trkpt>
      <trkpt lat="42.70163" lon="2.61547">
        <ele>252.5</ele>
        <time>2021-08-31T00:46:17.293Z</time>
      </trkpt>
      <trkpt lat="42.70146" lon="2.6156">
        <ele>250.2</ele>
        <time>2021-08-31T00:46:18.936Z</time>
      </trkpt>
      <trkpt lat="42.70129" lon="2.61567">
        <ele>246.6</ele>
        <time>2021-08-31T00:46:20.433Z</time>
      </trkpt>
      <trkpt lat="42.7012" lon="2.61573">
        <ele>244.7</ele>
        <time>2021-08-31T00:46:21.277Z</time>
      </trkpt>
      <trkpt lat="42.70113" lon="2.61585">
        <ele>243.7</ele>
        <time>2021-08-31T00:46:22.225Z</time>
      </trkpt>
      <trkpt lat="42.70103" lon="2.61609">
        <ele>242.7</ele>
        <time>2021-08-31T00:46:24.027Z</time>
      </trkpt>
      <trkpt lat="42.70097" lon="2.61631">
        <ele>242.6</ele>
        <time>2021-08-31T00:46:26.601Z</time>
      </trkpt>
      <trkpt lat="42.70083" lon="2.61667">
        <ele>241</ele>
        <time>2021-08-31T00:46:29.169Z</time>
      </trkpt>
      <trkpt lat="42.70071" lon="2.61686">
        <ele>241.6</ele>
        <time>2021-08-31T00:46:33.435Z</time>
      </trkpt>
      <trkpt lat="42.70056" lon="2.61699">
        <ele>241</ele>
        <time>2021-08-31T00:46:35.264Z</time>
      </trkpt>
      <trkpt lat="42.70018" lon="2.61709">
        <ele>236.7</ele>
        <time>2021-08-31T00:46:38.524Z</time>
      </trkpt>
      <trkpt lat="42.69987" lon="2.61722">
        <ele>234.1</ele>
        <time>2021-08-31T00:46:41.257Z</time>
      </trkpt>
      <trkpt lat="42.69971" lon="2.61724">
        <ele>232.6</ele>
        <time>2021-08-31T00:46:42.611Z</time>
      </trkpt>
      <trkpt lat="42.69948" lon="2.61726">
        <ele>230.2</ele>
        <time>2021-08-31T00:46:44.552Z</time>
      </trkpt>
      <trkpt lat="42.69936" lon="2.61736">
        <ele>228.2</ele>
        <time>2021-08-31T00:46:45.738Z</time>
      </trkpt>
      <trkpt lat="42.69921" lon="2.61755">
        <ele>224.8</ele>
        <time>2021-08-31T00:46:47.464Z</time>
      </trkpt>
      <trkpt lat="42.69912" lon="2.61793">
        <ele>225.7</ele>
        <time>2021-08-31T00:46:54.097Z</time>
      </trkpt>
      <trkpt lat="42.69914" lon="2.61835">
        <ele>225.6</ele>
        <time>2021-08-31T00:46:58.887Z</time>
      </trkpt>
      <trkpt lat="42.6991" lon="2.61849">
        <ele>226.4</ele>
        <time>2021-08-31T00:47:02.566Z</time>
      </trkpt>
      <trkpt lat="42.69888" lon="2.61874">
        <ele>230.4</ele>
        <time>2021-08-31T00:47:20.536Z</time>
      </trkpt>
      <trkpt lat="42.69885" lon="2.61883">
        <ele>230.7</ele>
        <time>2021-08-31T00:47:22.435Z</time>
      </trkpt>
      <trkpt lat="42.69889" lon="2.61918">
        <ele>229.2</ele>
        <time>2021-08-31T00:47:24.592Z</time>
      </trkpt>
      <trkpt lat="42.69887" lon="2.61937">
        <ele>228.1</ele>
        <time>2021-08-31T00:47:25.780Z</time>
      </trkpt>
      <trkpt lat="42.69883" lon="2.61954">
        <ele>227</ele>
        <time>2021-08-31T00:47:26.886Z</time>
      </trkpt>
      <trkpt lat="42.69874" lon="2.61961">
        <ele>226.5</ele>
        <time>2021-08-31T00:47:27.816Z</time>
      </trkpt>
      <trkpt lat="42.69859" lon="2.61962">
        <ele>226.4</ele>
        <time>2021-08-31T00:47:30.031Z</time>
      </trkpt>
      <trkpt lat="42.69821" lon="2.61951">
        <ele>229.1</ele>
        <time>2021-08-31T00:47:42.689Z</time>
      </trkpt>
      <trkpt lat="42.69802" lon="2.61951">
        <ele>228.7</ele>
        <time>2021-08-31T00:47:44.931Z</time>
      </trkpt>
      <trkpt lat="42.69749" lon="2.6196">
        <ele>225.5</ele>
        <time>2021-08-31T00:47:49.275Z</time>
      </trkpt>
      <trkpt lat="42.69733" lon="2.61956">
        <ele>223.2</ele>
        <time>2021-08-31T00:47:50.646Z</time>
      </trkpt>
      <trkpt lat="42.69727" lon="2.61949">
        <ele>223.2</ele>
        <time>2021-08-31T00:47:51.930Z</time>
      </trkpt>
      <trkpt lat="42.69723" lon="2.61929">
        <ele>225.8</ele>
        <time>2021-08-31T00:48:01.481Z</time>
      </trkpt>
      <trkpt lat="42.69724" lon="2.61878">
        <ele>234</ele>
        <time>2021-08-31T00:48:24.988Z</time>
      </trkpt>
      <trkpt lat="42.6972" lon="2.61864">
        <ele>235.1</ele>
        <time>2021-08-31T00:48:29.638Z</time>
      </trkpt>
      <trkpt lat="42.69707" lon="2.61835">
        <ele>236.4</ele>
        <time>2021-08-31T00:48:36.831Z</time>
      </trkpt>
      <trkpt lat="42.69693" lon="2.61816">
        <ele>236.8</ele>
        <time>2021-08-31T00:48:40.776Z</time>
      </trkpt>
      <trkpt lat="42.69682" lon="2.61807">
        <ele>236.3</ele>
        <time>2021-08-31T00:48:42.030Z</time>
      </trkpt>
      <trkpt lat="42.69644" lon="2.61801">
        <ele>233.9</ele>
        <time>2021-08-31T00:48:45.073Z</time>
      </trkpt>
      <trkpt lat="42.69633" lon="2.61798">
        <ele>234.4</ele>
        <time>2021-08-31T00:48:48.152Z</time>
      </trkpt>
      <trkpt lat="42.69628" lon="2.61794">
        <ele>235.3</ele>
        <time>2021-08-31T00:48:51.788Z</time>
      </trkpt>
      <trkpt lat="42.69624" lon="2.61782">
        <ele>238</ele>
        <time>2021-08-31T00:48:57.860Z</time>
      </trkpt>
      <trkpt lat="42.69621" lon="2.6176">
        <ele>243.1</ele>
        <time>2021-08-31T00:49:08.170Z</time>
      </trkpt>
      <trkpt lat="42.69616" lon="2.61753">
        <ele>244.7</ele>
        <time>2021-08-31T00:49:12.667Z</time>
      </trkpt>
      <trkpt lat="42.6961" lon="2.61748">
        <ele>245.6</ele>
        <time>2021-08-31T00:49:16.753Z</time>
      </trkpt>
      <trkpt lat="42.69601" lon="2.61747">
        <ele>245.6</ele>
        <time>2021-08-31T00:49:18.220Z</time>
      </trkpt>
      <trkpt lat="42.69595" lon="2.61747">
        <ele>245.5</ele>
        <time>2021-08-31T00:49:18.966Z</time>
      </trkpt>
      <trkpt lat="42.69589" lon="2.61751">
        <ele>244.8</ele>
        <time>2021-08-31T00:49:19.529Z</time>
      </trkpt>
      <trkpt lat="42.6957" lon="2.61774">
        <ele>241.2</ele>
        <time>2021-08-31T00:49:21.671Z</time>
      </trkpt>
      <trkpt lat="42.69552" lon="2.61799">
        <ele>238</ele>
        <time>2021-08-31T00:49:23.838Z</time>
      </trkpt>
      <trkpt lat="42.69544" lon="2.61807">
        <ele>237.3</ele>
        <time>2021-08-31T00:49:24.675Z</time>
      </trkpt>
      <trkpt lat="42.69522" lon="2.61816">
        <ele>238.6</ele>
        <time>2021-08-31T00:49:31.498Z</time>
      </trkpt>
      <trkpt lat="42.69492" lon="2.61823">
        <ele>240.3</ele>
        <time>2021-08-31T00:49:40.494Z</time>
      </trkpt>
      <trkpt lat="42.69467" lon="2.61827">
        <ele>239.1</ele>
        <time>2021-08-31T00:49:42.763Z</time>
      </trkpt>
      <trkpt lat="42.69449" lon="2.61824">
        <ele>239.7</ele>
        <time>2021-08-31T00:49:46.993Z</time>
      </trkpt>
      <trkpt lat="42.69434" lon="2.61818">
        <ele>241.1</ele>
        <time>2021-08-31T00:49:52.990Z</time>
      </trkpt>
      <trkpt lat="42.69416" lon="2.61816">
        <ele>241.8</ele>
        <time>2021-08-31T00:49:57.542Z</time>
      </trkpt>
      <trkpt lat="42.69405" lon="2.6182">
        <ele>243.7</ele>
        <time>2021-08-31T00:50:04.680Z</time>
      </trkpt>
      <trkpt lat="42.69394" lon="2.61832">
        <ele>244.1</ele>
        <time>2021-08-31T00:50:07.776Z</time>
      </trkpt>
      <trkpt lat="42.69383" lon="2.61849">
        <ele>241.6</ele>
        <time>2021-08-31T00:50:09.179Z</time>
      </trkpt>
      <trkpt lat="42.69375" lon="2.61854">
        <ele>242.2</ele>
        <time>2021-08-31T00:50:12.018Z</time>
      </trkpt>
      <trkpt lat="42.69356" lon="2.61859">
        <ele>246</ele>
        <time>2021-08-31T00:50:24.151Z</time>
      </trkpt>
      <trkpt lat="42.6934" lon="2.61873">
        <ele>245.8</ele>
        <time>2021-08-31T00:50:26.707Z</time>
      </trkpt>
      <trkpt lat="42.69227" lon="2.61993">
        <ele>244.5</ele>
        <time>2021-08-31T00:50:46.342Z</time>
      </trkpt>
      <trkpt lat="42.69211" lon="2.61997">
        <ele>245.2</ele>
        <time>2021-08-31T00:50:50.707Z</time>
      </trkpt>
      <trkpt lat="42.69192" lon="2.61993">
        <ele>247.6</ele>
        <time>2021-08-31T00:51:01.427Z</time>
      </trkpt>
      <trkpt lat="42.69177" lon="2.61983">
        <ele>250.1</ele>
        <time>2021-08-31T00:51:11.899Z</time>
      </trkpt>
      <trkpt lat="42.69155" lon="2.61948">
        <ele>253.4</ele>
        <time>2021-08-31T00:51:25.865Z</time>
      </trkpt>
      <trkpt lat="42.6914" lon="2.61935">
        <ele>253</ele>
        <time>2021-08-31T00:51:27.929Z</time>
      </trkpt>
      <trkpt lat="42.691" lon="2.61918">
        <ele>249.9</ele>
        <time>2021-08-31T00:51:31.459Z</time>
      </trkpt>
      <trkpt lat="42.69094" lon="2.61911">
        <ele>249.8</ele>
        <time>2021-08-31T00:51:32.492Z</time>
      </trkpt>
      <trkpt lat="42.69084" lon="2.61889">
        <ele>250.4</ele>
        <time>2021-08-31T00:51:36.839Z</time>
      </trkpt>
      <trkpt lat="42.69066" lon="2.61822">
        <ele>250.7</ele>
        <time>2021-08-31T00:51:45.833Z</time>
      </trkpt>
      <trkpt lat="42.69062" lon="2.61799">
        <ele>250.2</ele>
        <time>2021-08-31T00:51:47.714Z</time>
      </trkpt>
      <trkpt lat="42.69061" lon="2.61766">
        <ele>250.7</ele>
        <time>2021-08-31T00:51:52.577Z</time>
      </trkpt>
      <trkpt lat="42.69061" lon="2.6174">
        <ele>252.1</ele>
        <time>2021-08-31T00:51:58.985Z</time>
      </trkpt>
      <trkpt lat="42.69056" lon="2.61716">
        <ele>253.2</ele>
        <time>2021-08-31T00:52:04.561Z</time>
      </trkpt>
      <trkpt lat="42.69046" lon="2.61689">
        <ele>253.6</ele>
        <time>2021-08-31T00:52:08.886Z</time>
      </trkpt>
      <trkpt lat="42.69036" lon="2.61677">
        <ele>252.6</ele>
        <time>2021-08-31T00:52:10.010Z</time>
      </trkpt>
      <trkpt lat="42.69022" lon="2.61667">
        <ele>250.7</ele>
        <time>2021-08-31T00:52:11.342Z</time>
      </trkpt>
      <trkpt lat="42.69004" lon="2.61664">
        <ele>247.1</ele>
        <time>2021-08-31T00:52:12.869Z</time>
      </trkpt>
      <trkpt lat="42.68944" lon="2.61663">
        <ele>238.8</ele>
        <time>2021-08-31T00:52:17.925Z</time>
      </trkpt>
      <trkpt lat="42.68929" lon="2.61655">
        <ele>237</ele>
        <time>2021-08-31T00:52:19.282Z</time>
      </trkpt>
      <trkpt lat="42.6892" lon="2.61643">
        <ele>236.1</ele>
        <time>2021-08-31T00:52:20.344Z</time>
      </trkpt>
      <trkpt lat="42.68914" lon="2.61622">
        <ele>235.8</ele>
        <time>2021-08-31T00:52:22.366Z</time>
      </trkpt>
      <trkpt lat="42.68912" lon="2.61601">
        <ele>236.1</ele>
        <time>2021-08-31T00:52:25.438Z</time>
      </trkpt>
      <trkpt lat="42.68912" lon="2.6158">
        <ele>236.7</ele>
        <time>2021-08-31T00:52:29.334Z</time>
      </trkpt>
      <trkpt lat="42.68907" lon="2.61563">
        <ele>236.9</ele>
        <time>2021-08-31T00:52:31.867Z</time>
      </trkpt>
      <trkpt lat="42.68898" lon="2.61556">
        <ele>236.2</ele>
        <time>2021-08-31T00:52:32.740Z</time>
      </trkpt>
      <trkpt lat="42.68891" lon="2.61556">
        <ele>235.3</ele>
        <time>2021-08-31T00:52:33.330Z</time>
      </trkpt>
      <trkpt lat="42.68879" lon="2.61562">
        <ele>233.8</ele>
        <time>2021-08-31T00:52:34.407Z</time>
      </trkpt>
      <trkpt lat="42.68843" lon="2.61626">
        <ele>227.1</ele>
        <time>2021-08-31T00:52:39.397Z</time>
      </trkpt>
      <trkpt lat="42.68836" lon="2.61634">
        <ele>225.7</ele>
        <time>2021-08-31T00:52:40.167Z</time>
      </trkpt>
      <trkpt lat="42.68823" lon="2.6164">
        <ele>223.3</ele>
        <time>2021-08-31T00:52:41.324Z</time>
      </trkpt>
      <trkpt lat="42.68808" lon="2.61641">
        <ele>220.9</ele>
        <time>2021-08-31T00:52:42.589Z</time>
      </trkpt>
      <trkpt lat="42.68797" lon="2.61635">
        <ele>219.7</ele>
        <time>2021-08-31T00:52:43.588Z</time>
      </trkpt>
      <trkpt lat="42.68788" lon="2.61618">
        <ele>219.8</ele>
        <time>2021-08-31T00:52:46.249Z</time>
      </trkpt>
      <trkpt lat="42.68784" lon="2.61593">
        <ele>221.6</ele>
        <time>2021-08-31T00:52:53.879Z</time>
      </trkpt>
      <trkpt lat="42.68785" lon="2.6156">
        <ele>222</ele>
        <time>2021-08-31T00:52:58.527Z</time>
      </trkpt>
      <trkpt lat="42.6878" lon="2.61563">
        <ele>221.4</ele>
        <time>2021-08-31T00:52:58.987Z</time>
      </trkpt>
      <trkpt lat="42.68785" lon="2.6156">
        <ele>222</ele>
        <time>2021-08-31T00:53:01.541Z</time>
      </trkpt>
      <trkpt lat="42.68791" lon="2.6153">
        <ele>222.1</ele>
        <time>2021-08-31T00:53:05.410Z</time>
      </trkpt>
      <trkpt lat="42.68803" lon="2.61488">
        <ele>223.2</ele>
        <time>2021-08-31T00:53:13.148Z</time>
      </trkpt>
      <trkpt lat="42.68804" lon="2.61475">
        <ele>223.3</ele>
        <time>2021-08-31T00:53:14.874Z</time>
      </trkpt>
      <trkpt lat="42.68802" lon="2.61463">
        <ele>222.9</ele>
        <time>2021-08-31T00:53:15.715Z</time>
      </trkpt>
      <trkpt lat="42.68791" lon="2.61442">
        <ele>221.8</ele>
        <time>2021-08-31T00:53:17.280Z</time>
      </trkpt>
      <trkpt lat="42.68785" lon="2.61437">
        <ele>221.3</ele>
        <time>2021-08-31T00:53:17.873Z</time>
      </trkpt>
      <trkpt lat="42.68772" lon="2.61435">
        <ele>220.1</ele>
        <time>2021-08-31T00:53:18.975Z</time>
      </trkpt>
      <trkpt lat="42.68767" lon="2.61434">
        <ele>219.7</ele>
        <time>2021-08-31T00:53:19.401Z</time>
      </trkpt>
      <trkpt lat="42.68726" lon="2.61423">
        <ele>221.2</ele>
        <time>2021-08-31T00:53:29.521Z</time>
      </trkpt>
      <trkpt lat="42.68712" lon="2.61421">
        <ele>223</ele>
        <time>2021-08-31T00:53:37.689Z</time>
      </trkpt>
      <trkpt lat="42.68701" lon="2.61425">
        <ele>223.6</ele>
        <time>2021-08-31T00:53:40.983Z</time>
      </trkpt>
      <trkpt lat="42.68692" lon="2.61432">
        <ele>223.3</ele>
        <time>2021-08-31T00:53:42.104Z</time>
      </trkpt>
      <trkpt lat="42.68651" lon="2.61489">
        <ele>214</ele>
        <time>2021-08-31T00:53:47.042Z</time>
      </trkpt>
      <trkpt lat="42.68639" lon="2.61501">
        <ele>212.9</ele>
        <time>2021-08-31T00:53:48.297Z</time>
      </trkpt>
      <trkpt lat="42.6863" lon="2.61508">
        <ele>212.8</ele>
        <time>2021-08-31T00:53:49.706Z</time>
      </trkpt>
      <trkpt lat="42.68606" lon="2.61522">
        <ele>212.6</ele>
        <time>2021-08-31T00:53:53.352Z</time>
      </trkpt>
      <trkpt lat="42.68579" lon="2.61554">
        <ele>207.2</ele>
        <time>2021-08-31T00:53:56.369Z</time>
      </trkpt>
      <trkpt lat="42.68563" lon="2.61563">
        <ele>204.9</ele>
        <time>2021-08-31T00:53:57.828Z</time>
      </trkpt>
      <trkpt lat="42.68551" lon="2.61566">
        <ele>204</ele>
        <time>2021-08-31T00:53:58.855Z</time>
      </trkpt>
      <trkpt lat="42.68534" lon="2.61566">
        <ele>203.5</ele>
        <time>2021-08-31T00:54:00.684Z</time>
      </trkpt>
      <trkpt lat="42.68519" lon="2.61557">
        <ele>204.7</ele>
        <time>2021-08-31T00:54:06.178Z</time>
      </trkpt>
      <trkpt lat="42.68491" lon="2.61524">
        <ele>208.5</ele>
        <time>2021-08-31T00:54:22.240Z</time>
      </trkpt>
      <trkpt lat="42.68481" lon="2.61519">
        <ele>208.5</ele>
        <time>2021-08-31T00:54:23.972Z</time>
      </trkpt>
      <trkpt lat="42.6847" lon="2.61519">
        <ele>207.6</ele>
        <time>2021-08-31T00:54:24.898Z</time>
      </trkpt>
      <trkpt lat="42.68434" lon="2.61527">
        <ele>203.3</ele>
        <time>2021-08-31T00:54:27.971Z</time>
      </trkpt>
      <trkpt lat="42.68427" lon="2.61526">
        <ele>202.9</ele>
        <time>2021-08-31T00:54:28.558Z</time>
      </trkpt>
      <trkpt lat="42.68423" lon="2.61526">
        <ele>202.5</ele>
        <time>2021-08-31T00:54:28.895Z</time>
      </trkpt>
      <trkpt lat="42.68415" lon="2.61523">
        <ele>202.3</ele>
        <time>2021-08-31T00:54:29.841Z</time>
      </trkpt>
      <trkpt lat="42.68397" lon="2.61514">
        <ele>201</ele>
        <time>2021-08-31T00:54:31.456Z</time>
      </trkpt>
      <trkpt lat="42.68389" lon="2.61508">
        <ele>200.8</ele>
        <time>2021-08-31T00:54:32.524Z</time>
      </trkpt>
      <trkpt lat="42.68385" lon="2.61502">
        <ele>201.3</ele>
        <time>2021-08-31T00:54:34.700Z</time>
      </trkpt>
      <trkpt lat="42.6838" lon="2.61503">
        <ele>200.3</ele>
        <time>2021-08-31T00:54:35.126Z</time>
      </trkpt>
      <trkpt lat="42.68372" lon="2.61501">
        <ele>199.3</ele>
        <time>2021-08-31T00:54:35.811Z</time>
      </trkpt>
      <trkpt lat="42.68346" lon="2.61482">
        <ele>197.4</ele>
        <time>2021-08-31T00:54:38.129Z</time>
      </trkpt>
      <trkpt lat="42.68332" lon="2.61469">
        <ele>196.8</ele>
        <time>2021-08-31T00:54:39.844Z</time>
      </trkpt>
      <trkpt lat="42.68322" lon="2.61455">
        <ele>196.4</ele>
        <time>2021-08-31T00:54:41.413Z</time>
      </trkpt>
      <trkpt lat="42.68309" lon="2.6143">
        <ele>196.7</ele>
        <time>2021-08-31T00:54:45.580Z</time>
      </trkpt>
      <trkpt lat="42.68299" lon="2.61417">
        <ele>196.1</ele>
        <time>2021-08-31T00:54:46.877Z</time>
      </trkpt>
      <trkpt lat="42.68265" lon="2.61392">
        <ele>191.7</ele>
        <time>2021-08-31T00:54:50.133Z</time>
      </trkpt>
      <trkpt lat="42.68247" lon="2.6137">
        <ele>190.9</ele>
        <time>2021-08-31T00:54:52.639Z</time>
      </trkpt>
      <trkpt lat="42.68234" lon="2.61348">
        <ele>190.3</ele>
        <time>2021-08-31T00:54:54.882Z</time>
      </trkpt>
      <trkpt lat="42.6822" lon="2.61314">
        <ele>189.7</ele>
        <time>2021-08-31T00:54:58.266Z</time>
      </trkpt>
      <trkpt lat="42.68206" lon="2.61277">
        <ele>188.8</ele>
        <time>2021-08-31T00:55:01.555Z</time>
      </trkpt>
      <trkpt lat="42.68192" lon="2.61231">
        <ele>190.9</ele>
        <time>2021-08-31T00:55:12.486Z</time>
      </trkpt>
      <trkpt lat="42.68185" lon="2.61225">
        <ele>190.6</ele>
        <time>2021-08-31T00:55:13.315Z</time>
      </trkpt>
      <trkpt lat="42.68172" lon="2.61219">
        <ele>189.3</ele>
        <time>2021-08-31T00:55:14.472Z</time>
      </trkpt>
      <trkpt lat="42.68151" lon="2.61212">
        <ele>187.1</ele>
        <time>2021-08-31T00:55:16.293Z</time>
      </trkpt>
      <trkpt lat="42.68139" lon="2.61212">
        <ele>185</ele>
        <time>2021-08-31T00:55:17.304Z</time>
      </trkpt>
      <trkpt lat="42.68131" lon="2.61215">
        <ele>183.2</ele>
        <time>2021-08-31T00:55:18.003Z</time>
      </trkpt>
      <trkpt lat="42.68116" lon="2.61228">
        <ele>178.7</ele>
        <time>2021-08-31T00:55:19.502Z</time>
      </trkpt>
      <trkpt lat="42.68106" lon="2.61234">
        <ele>176.3</ele>
        <time>2021-08-31T00:55:20.423Z</time>
      </trkpt>
      <trkpt lat="42.68098" lon="2.61235">
        <ele>175</ele>
        <time>2021-08-31T00:55:21.099Z</time>
      </trkpt>
      <trkpt lat="42.68089" lon="2.61233">
        <ele>173.9</ele>
        <time>2021-08-31T00:55:21.868Z</time>
      </trkpt>
      <trkpt lat="42.6808" lon="2.61225">
        <ele>173.7</ele>
        <time>2021-08-31T00:55:23.173Z</time>
      </trkpt>
      <trkpt lat="42.68073" lon="2.61214">
        <ele>174.2</ele>
        <time>2021-08-31T00:55:26.149Z</time>
      </trkpt>
      <trkpt lat="42.68067" lon="2.612">
        <ele>174.9</ele>
        <time>2021-08-31T00:55:29.741Z</time>
      </trkpt>
      <trkpt lat="42.68053" lon="2.61156">
        <ele>176.5</ele>
        <time>2021-08-31T00:55:39.465Z</time>
      </trkpt>
      <trkpt lat="42.68036" lon="2.61115">
        <ele>176.3</ele>
        <time>2021-08-31T00:55:44.632Z</time>
      </trkpt>
      <trkpt lat="42.68021" lon="2.61087">
        <ele>174.8</ele>
        <time>2021-08-31T00:55:46.721Z</time>
      </trkpt>
      <trkpt lat="42.68011" lon="2.61078">
        <ele>173.6</ele>
        <time>2021-08-31T00:55:47.731Z</time>
      </trkpt>
      <trkpt lat="42.68004" lon="2.61076">
        <ele>172.3</ele>
        <time>2021-08-31T00:55:48.334Z</time>
      </trkpt>
      <trkpt lat="42.67992" lon="2.6108">
        <ele>171.7</ele>
        <time>2021-08-31T00:55:49.439Z</time>
      </trkpt>
      <trkpt lat="42.67984" lon="2.61089">
        <ele>172</ele>
        <time>2021-08-31T00:55:51.734Z</time>
      </trkpt>
      <trkpt lat="42.67978" lon="2.61102">
        <ele>172.3</ele>
        <time>2021-08-31T00:55:54.158Z</time>
      </trkpt>
      <trkpt lat="42.67977" lon="2.61119">
        <ele>171.7</ele>
        <time>2021-08-31T00:55:55.287Z</time>
      </trkpt>
      <trkpt lat="42.67982" lon="2.61138">
        <ele>170.1</ele>
        <time>2021-08-31T00:55:56.536Z</time>
      </trkpt>
      <trkpt lat="42.68009" lon="2.61192">
        <ele>167.6</ele>
        <time>2021-08-31T00:56:00.703Z</time>
      </trkpt>
      <trkpt lat="42.6803" lon="2.61237">
        <ele>168.9</ele>
        <time>2021-08-31T00:56:09.852Z</time>
      </trkpt>
      <trkpt lat="42.68038" lon="2.61274">
        <ele>166.6</ele>
        <time>2021-08-31T00:56:12.241Z</time>
      </trkpt>
      <trkpt lat="42.68039" lon="2.61318">
        <ele>162.4</ele>
        <time>2021-08-31T00:56:14.967Z</time>
      </trkpt>
      <trkpt lat="42.68037" lon="2.61363">
        <ele>160</ele>
        <time>2021-08-31T00:56:17.759Z</time>
      </trkpt>
      <trkpt lat="42.68032" lon="2.61395">
        <ele>159.1</ele>
        <time>2021-08-31T00:56:20.144Z</time>
      </trkpt>
      <trkpt lat="42.68024" lon="2.61415">
        <ele>158.9</ele>
        <time>2021-08-31T00:56:22.351Z</time>
      </trkpt>
      <trkpt lat="42.68016" lon="2.6143">
        <ele>159.8</ele>
        <time>2021-08-31T00:56:26.678Z</time>
      </trkpt>
      <trkpt lat="42.68012" lon="2.61438">
        <ele>160.4</ele>
        <time>2021-08-31T00:56:29.287Z</time>
      </trkpt>
      <trkpt lat="42.68012" lon="2.6145">
        <ele>161</ele>
        <time>2021-08-31T00:56:32.130Z</time>
      </trkpt>
      <trkpt lat="42.68014" lon="2.61465">
        <ele>161.5</ele>
        <time>2021-08-31T00:56:35.206Z</time>
      </trkpt>
      <trkpt lat="42.6805" lon="2.61521">
        <ele>157.5</ele>
        <time>2021-08-31T00:56:39.814Z</time>
      </trkpt>
      <trkpt lat="42.68057" lon="2.61534">
        <ele>156.1</ele>
        <time>2021-08-31T00:56:40.812Z</time>
      </trkpt>
      <trkpt lat="42.68058" lon="2.61541">
        <ele>155.7</ele>
        <time>2021-08-31T00:56:41.253Z</time>
      </trkpt>
      <trkpt lat="42.68059" lon="2.6155">
        <ele>155.2</ele>
        <time>2021-08-31T00:56:41.817Z</time>
      </trkpt>
      <trkpt lat="42.68057" lon="2.61565">
        <ele>154.9</ele>
        <time>2021-08-31T00:56:43.057Z</time>
      </trkpt>
      <trkpt lat="42.68043" lon="2.61599">
        <ele>155.2</ele>
        <time>2021-08-31T00:56:48.207Z</time>
      </trkpt>
      <trkpt lat="42.6803" lon="2.61639">
        <ele>154.6</ele>
        <time>2021-08-31T00:56:52.108Z</time>
      </trkpt>
      <trkpt lat="42.68013" lon="2.61706">
        <ele>151.1</ele>
        <time>2021-08-31T00:56:56.498Z</time>
      </trkpt>
      <trkpt lat="42.68001" lon="2.6175">
        <ele>148</ele>
        <time>2021-08-31T00:56:59.404Z</time>
      </trkpt>
      <trkpt lat="42.68" lon="2.61763">
        <ele>147.1</ele>
        <time>2021-08-31T00:57:00.214Z</time>
      </trkpt>
      <trkpt lat="42.68" lon="2.61776">
        <ele>146.1</ele>
        <time>2021-08-31T00:57:01.019Z</time>
      </trkpt>
      <trkpt lat="42.68006" lon="2.6181">
        <ele>144.1</ele>
        <time>2021-08-31T00:57:03.185Z</time>
      </trkpt>
      <trkpt lat="42.68008" lon="2.6183">
        <ele>143.1</ele>
        <time>2021-08-31T00:57:04.435Z</time>
      </trkpt>
      <trkpt lat="42.68006" lon="2.61838">
        <ele>142.7</ele>
        <time>2021-08-31T00:57:04.922Z</time>
      </trkpt>
      <trkpt lat="42.68002" lon="2.61844">
        <ele>142.2</ele>
        <time>2021-08-31T00:57:05.424Z</time>
      </trkpt>
      <trkpt lat="42.67965" lon="2.61855">
        <ele>141.9</ele>
        <time>2021-08-31T00:57:10.693Z</time>
      </trkpt>
      <trkpt lat="42.67953" lon="2.61858">
        <ele>141.7</ele>
        <time>2021-08-31T00:57:12.215Z</time>
      </trkpt>
      <trkpt lat="42.67942" lon="2.61857">
        <ele>141.7</ele>
        <time>2021-08-31T00:57:14.007Z</time>
      </trkpt>
      <trkpt lat="42.67928" lon="2.61853">
        <ele>141.8</ele>
        <time>2021-08-31T00:57:16.491Z</time>
      </trkpt>
      <trkpt lat="42.67865" lon="2.61824">
        <ele>142.9</ele>
        <time>2021-08-31T00:57:29.231Z</time>
      </trkpt>
      <trkpt lat="42.67836" lon="2.6181">
        <ele>145.3</ele>
        <time>2021-08-31T00:57:39.941Z</time>
      </trkpt>
      <trkpt lat="42.67801" lon="2.61793">
        <ele>147.4</ele>
        <time>2021-08-31T00:57:50.974Z</time>
      </trkpt>
      <trkpt lat="42.67785" lon="2.61785">
        <ele>147.7</ele>
        <time>2021-08-31T00:57:54.277Z</time>
      </trkpt>
      <trkpt lat="42.67726" lon="2.61742">
        <ele>148</ele>
        <time>2021-08-31T00:58:05.623Z</time>
      </trkpt>
      <trkpt lat="42.6771" lon="2.61728">
        <ele>147.9</ele>
        <time>2021-08-31T00:58:08.484Z</time>
      </trkpt>
      <trkpt lat="42.67698" lon="2.61716">
        <ele>147.6</ele>
        <time>2021-08-31T00:58:10.260Z</time>
      </trkpt>
      <trkpt lat="42.67686" lon="2.61698">
        <ele>147.4</ele>
        <time>2021-08-31T00:58:12.639Z</time>
      </trkpt>
      <trkpt lat="42.6768" lon="2.61685">
        <ele>147.4</ele>
        <time>2021-08-31T00:58:14.473Z</time>
      </trkpt>
      <trkpt lat="42.67677" lon="2.61677">
        <ele>147.3</ele>
        <time>2021-08-31T00:58:15.309Z</time>
      </trkpt>
      <trkpt lat="42.67675" lon="2.61672">
        <ele>147.3</ele>
        <time>2021-08-31T00:58:15.989Z</time>
      </trkpt>
      <trkpt lat="42.67662" lon="2.61628">
        <ele>148.2</ele>
        <time>2021-08-31T00:58:23.411Z</time>
      </trkpt>
      <trkpt lat="42.67657" lon="2.61615">
        <ele>148.4</ele>
        <time>2021-08-31T00:58:25.523Z</time>
      </trkpt>
      <trkpt lat="42.6765" lon="2.616">
        <ele>148.4</ele>
        <time>2021-08-31T00:58:27.646Z</time>
      </trkpt>
      <trkpt lat="42.67646" lon="2.6159">
        <ele>148.4</ele>
        <time>2021-08-31T00:58:29.006Z</time>
      </trkpt>
      <trkpt lat="42.67635" lon="2.61575">
        <ele>147.3</ele>
        <time>2021-08-31T00:58:30.318Z</time>
      </trkpt>
      <trkpt lat="42.67634" lon="2.61568">
        <ele>147.4</ele>
        <time>2021-08-31T00:58:31.351Z</time>
      </trkpt>
      <trkpt lat="42.67631" lon="2.61562">
        <ele>147.1</ele>
        <time>2021-08-31T00:58:31.798Z</time>
      </trkpt>
      <trkpt lat="42.67627" lon="2.61559">
        <ele>146.5</ele>
        <time>2021-08-31T00:58:32.183Z</time>
      </trkpt>
      <trkpt lat="42.67622" lon="2.61559">
        <ele>145.8</ele>
        <time>2021-08-31T00:58:32.604Z</time>
      </trkpt>
      <trkpt lat="42.67618" lon="2.61561">
        <ele>145.1</ele>
        <time>2021-08-31T00:58:32.963Z</time>
      </trkpt>
      <trkpt lat="42.67615" lon="2.61564">
        <ele>144.5</ele>
        <time>2021-08-31T00:58:33.277Z</time>
      </trkpt>
      <trkpt lat="42.67608" lon="2.61569">
        <ele>143.2</ele>
        <time>2021-08-31T00:58:33.943Z</time>
      </trkpt>
      <trkpt lat="42.67598" lon="2.61574">
        <ele>141.5</ele>
        <time>2021-08-31T00:58:34.840Z</time>
      </trkpt>
      <trkpt lat="42.67596" lon="2.61573">
        <ele>141.2</ele>
        <time>2021-08-31T00:58:35.020Z</time>
      </trkpt>
      <trkpt lat="42.67512" lon="2.61574">
        <ele>137.2</ele>
        <time>2021-08-31T00:58:42.597Z</time>
      </trkpt>
      <trkpt lat="42.67421" lon="2.61578">
        <ele>138</ele>
        <time>2021-08-31T00:58:58.691Z</time>
      </trkpt>
      <trkpt lat="42.67402" lon="2.61579">
        <ele>138.4</ele>
        <time>2021-08-31T00:59:02.519Z</time>
      </trkpt>
      <trkpt lat="42.67374" lon="2.61582">
        <ele>139</ele>
        <time>2021-08-31T00:59:08.195Z</time>
      </trkpt>
      <trkpt lat="42.67363" lon="2.61587">
        <ele>139.2</ele>
        <time>2021-08-31T00:59:10.434Z</time>
      </trkpt>
      <trkpt lat="42.67353" lon="2.61592">
        <ele>139.4</ele>
        <time>2021-08-31T00:59:12.525Z</time>
      </trkpt>
      <trkpt lat="42.67343" lon="2.616">
        <ele>139.4</ele>
        <time>2021-08-31T00:59:14.411Z</time>
      </trkpt>
      <trkpt lat="42.67257" lon="2.61673">
        <ele>141.5</ele>
        <time>2021-08-31T00:59:34.747Z</time>
      </trkpt>
      <trkpt lat="42.67223" lon="2.61703">
        <ele>141.8</ele>
        <time>2021-08-31T00:59:41.813Z</time>
      </trkpt>
      <trkpt lat="42.67206" lon="2.61718">
        <ele>142.5</ele>
        <time>2021-08-31T00:59:46.632Z</time>
      </trkpt>
      <trkpt lat="42.67165" lon="2.61755">
        <ele>146.5</ele>
        <time>2021-08-31T01:00:04.223Z</time>
      </trkpt>
      <trkpt lat="42.67162" lon="2.61757">
        <ele>146.8</ele>
        <time>2021-08-31T01:00:05.507Z</time>
      </trkpt>
      <trkpt lat="42.67161" lon="2.61755">
        <ele>146.8</ele>
        <time>2021-08-31T01:00:05.796Z</time>
      </trkpt>
      <trkpt lat="42.67157" lon="2.61754">
        <ele>147</ele>
        <time>2021-08-31T01:00:06.946Z</time>
      </trkpt>
      <trkpt lat="42.67155" lon="2.61755">
        <ele>147.2</ele>
        <time>2021-08-31T01:00:07.796Z</time>
      </trkpt>
      <trkpt lat="42.67153" lon="2.61757">
        <ele>147.5</ele>
        <time>2021-08-31T01:00:09.113Z</time>
      </trkpt>
      <trkpt lat="42.67152" lon="2.61762">
        <ele>147.9</ele>
        <time>2021-08-31T01:00:10.805Z</time>
      </trkpt>
      <trkpt lat="42.67152" lon="2.61765">
        <ele>148.1</ele>
        <time>2021-08-31T01:00:11.660Z</time>
      </trkpt>
      <trkpt lat="42.67148" lon="2.61768">
        <ele>148.5</ele>
        <time>2021-08-31T01:00:13.382Z</time>
      </trkpt>
      <trkpt lat="42.67129" lon="2.61777">
        <ele>150.4</ele>
        <time>2021-08-31T01:00:21.449Z</time>
      </trkpt>
      <trkpt lat="42.67124" lon="2.61781">
        <ele>150.9</ele>
        <time>2021-08-31T01:00:23.610Z</time>
      </trkpt>
      <trkpt lat="42.67117" lon="2.61785">
        <ele>151.6</ele>
        <time>2021-08-31T01:00:26.593Z</time>
      </trkpt>
      <trkpt lat="42.67109" lon="2.6179">
        <ele>152.4</ele>
        <time>2021-08-31T01:00:30.010Z</time>
      </trkpt>
      <trkpt lat="42.67027" lon="2.61847">
        <ele>156.8</ele>
        <time>2021-08-31T01:00:55.807Z</time>
      </trkpt>
      <trkpt lat="42.67023" lon="2.6185">
        <ele>156.9</ele>
        <time>2021-08-31T01:00:56.736Z</time>
      </trkpt>
      <trkpt lat="42.67021" lon="2.61856">
        <ele>157</ele>
        <time>2021-08-31T01:00:57.707Z</time>
      </trkpt>
      <trkpt lat="42.67018" lon="2.61864">
        <ele>157.2</ele>
        <time>2021-08-31T01:00:59.192Z</time>
      </trkpt>
      <trkpt lat="42.66985" lon="2.61942">
        <ele>157</ele>
        <time>2021-08-31T01:01:09.471Z</time>
      </trkpt>
      <trkpt lat="42.66979" lon="2.61951">
        <ele>156.6</ele>
        <time>2021-08-31T01:01:10.297Z</time>
      </trkpt>
      <trkpt lat="42.66977" lon="2.61952">
        <ele>156.5</ele>
        <time>2021-08-31T01:01:10.491Z</time>
      </trkpt>
      <trkpt lat="42.66972" lon="2.61938">
        <ele>156.7</ele>
        <time>2021-08-31T01:01:12.705Z</time>
      </trkpt>
      <trkpt lat="42.66964" lon="2.6192">
        <ele>157</ele>
        <time>2021-08-31T01:01:15.762Z</time>
      </trkpt>
      <trkpt lat="42.66944" lon="2.61876">
        <ele>157.2</ele>
        <time>2021-08-31T01:01:22.257Z</time>
      </trkpt>
      <trkpt lat="42.66906" lon="2.61796">
        <ele>156.9</ele>
        <time>2021-08-31T01:01:32.938Z</time>
      </trkpt>
      <trkpt lat="42.66898" lon="2.6178">
        <ele>156.6</ele>
        <time>2021-08-31T01:01:34.616Z</time>
      </trkpt>
      <trkpt lat="42.66895" lon="2.61773">
        <ele>156.5</ele>
        <time>2021-08-31T01:01:35.355Z</time>
      </trkpt>
      <trkpt lat="42.6689" lon="2.61762">
        <ele>156.4</ele>
        <time>2021-08-31T01:01:36.633Z</time>
      </trkpt>
      <trkpt lat="42.66841" lon="2.61655">
        <ele>157.5</ele>
        <time>2021-08-31T01:01:53.535Z</time>
      </trkpt>
      <trkpt lat="42.66836" lon="2.6164">
        <ele>157</ele>
        <time>2021-08-31T01:01:54.693Z</time>
      </trkpt>
      <trkpt lat="42.66829" lon="2.61626">
        <ele>156.5</ele>
        <time>2021-08-31T01:01:55.895Z</time>
      </trkpt>
      <trkpt lat="42.66824" lon="2.6162">
        <ele>156.2</ele>
        <time>2021-08-31T01:01:56.511Z</time>
      </trkpt>
      <trkpt lat="42.66822" lon="2.61616">
        <ele>156.1</ele>
        <time>2021-08-31T01:01:56.898Z</time>
      </trkpt>
      <trkpt lat="42.66818" lon="2.61606">
        <ele>155.7</ele>
        <time>2021-08-31T01:01:57.652Z</time>
      </trkpt>
      <trkpt lat="42.66788" lon="2.61527">
        <ele>155.3</ele>
        <time>2021-08-31T01:02:07.368Z</time>
      </trkpt>
      <trkpt lat="42.66775" lon="2.61486">
        <ele>155.8</ele>
        <time>2021-08-31T01:02:13.569Z</time>
      </trkpt>
      <trkpt lat="42.66767" lon="2.61467">
        <ele>156.3</ele>
        <time>2021-08-31T01:02:17.226Z</time>
      </trkpt>
      <trkpt lat="42.66762" lon="2.61454">
        <ele>156.7</ele>
        <time>2021-08-31T01:02:19.882Z</time>
      </trkpt>
      <trkpt lat="42.66757" lon="2.61441">
        <ele>157.1</ele>
        <time>2021-08-31T01:02:22.537Z</time>
      </trkpt>
      <trkpt lat="42.66738" lon="2.61394">
        <ele>157.9</ele>
        <time>2021-08-31T01:02:30.410Z</time>
      </trkpt>
      <trkpt lat="42.66729" lon="2.61372">
        <ele>158</ele>
        <time>2021-08-31T01:02:33.575Z</time>
      </trkpt>
      <trkpt lat="42.66724" lon="2.6136">
        <ele>158.1</ele>
        <time>2021-08-31T01:02:35.387Z</time>
      </trkpt>
      <trkpt lat="42.66705" lon="2.61311">
        <ele>159.1</ele>
        <time>2021-08-31T01:02:43.929Z</time>
      </trkpt>
      <trkpt lat="42.66695" lon="2.6129">
        <ele>159.9</ele>
        <time>2021-08-31T01:02:48.899Z</time>
      </trkpt>
      <trkpt lat="42.66668" lon="2.6122">
        <ele>161.2</ele>
        <time>2021-08-31T01:03:00.780Z</time>
      </trkpt>
      <trkpt lat="42.66664" lon="2.61211">
        <ele>161</ele>
        <time>2021-08-31T01:03:01.644Z</time>
      </trkpt>
      <trkpt lat="42.66613" lon="2.61077">
        <ele>160</ele>
        <time>2021-08-31T01:03:16.853Z</time>
      </trkpt>
      <trkpt lat="42.66595" lon="2.61029">
        <ele>160.6</ele>
        <time>2021-08-31T01:03:24.330Z</time>
      </trkpt>
      <trkpt lat="42.66591" lon="2.61019">
        <ele>160.7</ele>
        <time>2021-08-31T01:03:25.857Z</time>
      </trkpt>
      <trkpt lat="42.66574" lon="2.60976">
        <ele>160.6</ele>
        <time>2021-08-31T01:03:31.454Z</time>
      </trkpt>
      <trkpt lat="42.66529" lon="2.60861">
        <ele>161.2</ele>
        <time>2021-08-31T01:03:47.971Z</time>
      </trkpt>
      <trkpt lat="42.66522" lon="2.60843">
        <ele>161.7</ele>
        <time>2021-08-31T01:03:51.477Z</time>
      </trkpt>
      <trkpt lat="42.66495" lon="2.60774">
        <ele>161.9</ele>
        <time>2021-08-31T01:04:01.126Z</time>
      </trkpt>
      <trkpt lat="42.66454" lon="2.60669">
        <ele>159.5</ele>
        <time>2021-08-31T01:04:10.727Z</time>
      </trkpt>
      <trkpt lat="42.66397" lon="2.60523">
        <ele>160.3</ele>
        <time>2021-08-31T01:04:31.751Z</time>
      </trkpt>
      <trkpt lat="42.66381" lon="2.60482">
        <ele>161.5</ele>
        <time>2021-08-31T01:04:39.934Z</time>
      </trkpt>
      <trkpt lat="42.66362" lon="2.60434">
        <ele>163.1</ele>
        <time>2021-08-31T01:04:50.204Z</time>
      </trkpt>
      <trkpt lat="42.66355" lon="2.60416">
        <ele>163.5</ele>
        <time>2021-08-31T01:04:53.427Z</time>
      </trkpt>
      <trkpt lat="42.66339" lon="2.60388">
        <ele>163.9</ele>
        <time>2021-08-31T01:04:58.358Z</time>
      </trkpt>
      <trkpt lat="42.6633" lon="2.60377">
        <ele>164</ele>
        <time>2021-08-31T01:05:00.486Z</time>
      </trkpt>
      <trkpt lat="42.66325" lon="2.60374">
        <ele>163.9</ele>
        <time>2021-08-31T01:05:01.152Z</time>
      </trkpt>
      <trkpt lat="42.66321" lon="2.6037">
        <ele>163.8</ele>
        <time>2021-08-31T01:05:01.744Z</time>
      </trkpt>
      <trkpt lat="42.66301" lon="2.60359">
        <ele>163.5</ele>
        <time>2021-08-31T01:05:04.518Z</time>
      </trkpt>
      <trkpt lat="42.66287" lon="2.60355">
        <ele>163.2</ele>
        <time>2021-08-31T01:05:06.207Z</time>
      </trkpt>
      <trkpt lat="42.66238" lon="2.60351">
        <ele>162.9</ele>
        <time>2021-08-31T01:05:13.503Z</time>
      </trkpt>
      <trkpt lat="42.66232" lon="2.60348">
        <ele>163.1</ele>
        <time>2021-08-31T01:05:14.959Z</time>
      </trkpt>
      <trkpt lat="42.66223" lon="2.60335">
        <ele>163.3</ele>
        <time>2021-08-31T01:05:17.439Z</time>
      </trkpt>
      <trkpt lat="42.66217" lon="2.60323">
        <ele>163.6</ele>
        <time>2021-08-31T01:05:19.775Z</time>
      </trkpt>
      <trkpt lat="42.66215" lon="2.60313">
        <ele>163.8</ele>
        <time>2021-08-31T01:05:21.406Z</time>
      </trkpt>
      <trkpt lat="42.66214" lon="2.60305">
        <ele>163.8</ele>
        <time>2021-08-31T01:05:22.376Z</time>
      </trkpt>
      <trkpt lat="42.66216" lon="2.603">
        <ele>163.8</ele>
        <time>2021-08-31T01:05:23.056Z</time>
      </trkpt>
      <trkpt lat="42.66216" lon="2.60293">
        <ele>163.8</ele>
        <time>2021-08-31T01:05:23.893Z</time>
      </trkpt>
      <trkpt lat="42.66214" lon="2.60286">
        <ele>163.9</ele>
        <time>2021-08-31T01:05:24.969Z</time>
      </trkpt>
      <trkpt lat="42.66216" lon="2.60275">
        <ele>163.9</ele>
        <time>2021-08-31T01:05:26.324Z</time>
      </trkpt>
      <trkpt lat="42.66219" lon="2.60259">
        <ele>163.9</ele>
        <time>2021-08-31T01:05:28.297Z</time>
      </trkpt>
      <trkpt lat="42.66228" lon="2.60233">
        <ele>164.5</ele>
        <time>2021-08-31T01:05:32.939Z</time>
      </trkpt>
      <trkpt lat="42.66247" lon="2.60183">
        <ele>165.7</ele>
        <time>2021-08-31T01:05:42.099Z</time>
      </trkpt>
      <trkpt lat="42.66249" lon="2.60178">
        <ele>165.7</ele>
        <time>2021-08-31T01:05:42.779Z</time>
      </trkpt>
      <trkpt lat="42.66253" lon="2.60177">
        <ele>165.7</ele>
        <time>2021-08-31T01:05:43.440Z</time>
      </trkpt>
      <trkpt lat="42.66256" lon="2.60174">
        <ele>165.8</ele>
        <time>2021-08-31T01:05:44.243Z</time>
      </trkpt>
      <trkpt lat="42.66258" lon="2.60169">
        <ele>165.9</ele>
        <time>2021-08-31T01:05:45.114Z</time>
      </trkpt>
      <trkpt lat="42.66258" lon="2.60166">
        <ele>165.9</ele>
        <time>2021-08-31T01:05:45.472Z</time>
      </trkpt>
      <trkpt lat="42.66257" lon="2.60162">
        <ele>166</ele>
        <time>2021-08-31T01:05:46.188Z</time>
      </trkpt>
      <trkpt lat="42.66255" lon="2.60158">
        <ele>166.1</ele>
        <time>2021-08-31T01:05:46.967Z</time>
      </trkpt>
      <trkpt lat="42.66252" lon="2.60155">
        <ele>166.2</ele>
        <time>2021-08-31T01:05:47.770Z</time>
      </trkpt>
      <trkpt lat="42.6625" lon="2.60146">
        <ele>166.5</ele>
        <time>2021-08-31T01:05:49.635Z</time>
      </trkpt>
      <trkpt lat="42.66236" lon="2.60108">
        <ele>168.2</ele>
        <time>2021-08-31T01:05:58.781Z</time>
      </trkpt>
      <trkpt lat="42.66227" lon="2.60083">
        <ele>169.6</ele>
        <time>2021-08-31T01:06:05.396Z</time>
      </trkpt>
      <trkpt lat="42.66211" lon="2.60044">
        <ele>169.8</ele>
        <time>2021-08-31T01:06:11.049Z</time>
      </trkpt>
      <trkpt lat="42.662" lon="2.60023">
        <ele>170.4</ele>
        <time>2021-08-31T01:06:15.388Z</time>
      </trkpt>
      <trkpt lat="42.66155" lon="2.59962">
        <ele>170</ele>
        <time>2021-08-31T01:06:24.807Z</time>
      </trkpt>
      <trkpt lat="42.6613" lon="2.59932">
        <ele>171</ele>
        <time>2021-08-31T01:06:32.279Z</time>
      </trkpt>
      <trkpt lat="42.66116" lon="2.5991">
        <ele>172</ele>
        <time>2021-08-31T01:06:38.233Z</time>
      </trkpt>
      <trkpt lat="42.66092" lon="2.59862">
        <ele>173.4</ele>
        <time>2021-08-31T01:06:48.150Z</time>
      </trkpt>
      <trkpt lat="42.66081" lon="2.5983">
        <ele>173.1</ele>
        <time>2021-08-31T01:06:51.593Z</time>
      </trkpt>
      <trkpt lat="42.66055" lon="2.59672">
        <ele>174.2</ele>
        <time>2021-08-31T01:07:12.735Z</time>
      </trkpt>
      <trkpt lat="42.66036" lon="2.59611">
        <ele>174</ele>
        <time>2021-08-31T01:07:20.185Z</time>
      </trkpt>
      <trkpt lat="42.66034" lon="2.59604">
        <ele>174</ele>
        <time>2021-08-31T01:07:21.082Z</time>
      </trkpt>
      <trkpt lat="42.66021" lon="2.59564">
        <ele>175.2</ele>
        <time>2021-08-31T01:07:29.024Z</time>
      </trkpt>
      <trkpt lat="42.66015" lon="2.59542">
        <ele>176.2</ele>
        <time>2021-08-31T01:07:34.198Z</time>
      </trkpt>
      <trkpt lat="42.6601" lon="2.59518">
        <ele>176.9</ele>
        <time>2021-08-31T01:07:38.781Z</time>
      </trkpt>
      <trkpt lat="42.66007" lon="2.59489">
        <ele>176.9</ele>
        <time>2021-08-31T01:07:42.282Z</time>
      </trkpt>
      <trkpt lat="42.66005" lon="2.59456">
        <ele>176.2</ele>
        <time>2021-08-31T01:07:44.919Z</time>
      </trkpt>
      <trkpt lat="42.66002" lon="2.59436">
        <ele>176.2</ele>
        <time>2021-08-31T01:07:47.359Z</time>
      </trkpt>
      <trkpt lat="42.65968" lon="2.59311">
        <ele>175.1</ele>
        <time>2021-08-31T01:08:00.406Z</time>
      </trkpt>
      <trkpt lat="42.65964" lon="2.59297">
        <ele>175.2</ele>
        <time>2021-08-31T01:08:02.363Z</time>
      </trkpt>
      <trkpt lat="42.65958" lon="2.59281">
        <ele>175.5</ele>
        <time>2021-08-31T01:08:05.074Z</time>
      </trkpt>
      <trkpt lat="42.65952" lon="2.59266">
        <ele>175.9</ele>
        <time>2021-08-31T01:08:07.956Z</time>
      </trkpt>
      <trkpt lat="42.65935" lon="2.59227">
        <ele>177.2</ele>
        <time>2021-08-31T01:08:16.386Z</time>
      </trkpt>
      <trkpt lat="42.65908" lon="2.59167">
        <ele>178.7</ele>
        <time>2021-08-31T01:08:27.835Z</time>
      </trkpt>
      <trkpt lat="42.65884" lon="2.59115">
        <ele>178.1</ele>
        <time>2021-08-31T01:08:33.687Z</time>
      </trkpt>
      <trkpt lat="42.65845" lon="2.59027">
        <ele>178.5</ele>
        <time>2021-08-31T01:08:46.594Z</time>
      </trkpt>
      <trkpt lat="42.65818" lon="2.58957">
        <ele>179.2</ele>
        <time>2021-08-31T01:08:57.214Z</time>
      </trkpt>
      <trkpt lat="42.65807" lon="2.58927">
        <ele>179.5</ele>
        <time>2021-08-31T01:09:01.723Z</time>
      </trkpt>
      <trkpt lat="42.65799" lon="2.58905">
        <ele>179.5</ele>
        <time>2021-08-31T01:09:04.657Z</time>
      </trkpt>
      <trkpt lat="42.65792" lon="2.58881">
        <ele>179.3</ele>
        <time>2021-08-31T01:09:07.208Z</time>
      </trkpt>
      <trkpt lat="42.65787" lon="2.58855">
        <ele>179.1</ele>
        <time>2021-08-31T01:09:09.877Z</time>
      </trkpt>
      <trkpt lat="42.65784" lon="2.58819">
        <ele>179.1</ele>
        <time>2021-08-31T01:09:14.208Z</time>
      </trkpt>
      <trkpt lat="42.65784" lon="2.58779">
        <ele>179.4</ele>
        <time>2021-08-31T01:09:19.482Z</time>
      </trkpt>
      <trkpt lat="42.65784" lon="2.58731">
        <ele>179.6</ele>
        <time>2021-08-31T01:09:25.533Z</time>
      </trkpt>
      <trkpt lat="42.65783" lon="2.58665">
        <ele>179.8</ele>
        <time>2021-08-31T01:09:33.734Z</time>
      </trkpt>
      <trkpt lat="42.65783" lon="2.58639">
        <ele>180.1</ele>
        <time>2021-08-31T01:09:37.363Z</time>
      </trkpt>
      <trkpt lat="42.65782" lon="2.58617">
        <ele>180.4</ele>
        <time>2021-08-31T01:09:40.536Z</time>
      </trkpt>
      <trkpt lat="42.65776" lon="2.58599">
        <ele>180.8</ele>
        <time>2021-08-31T01:09:43.694Z</time>
      </trkpt>
      <trkpt lat="42.65768" lon="2.58582">
        <ele>181.4</ele>
        <time>2021-08-31T01:09:47.525Z</time>
      </trkpt>
      <trkpt lat="42.65757" lon="2.58568">
        <ele>181.8</ele>
        <time>2021-08-31T01:09:50.761Z</time>
      </trkpt>
      <trkpt lat="42.65749" lon="2.5856">
        <ele>182</ele>
        <time>2021-08-31T01:09:52.740Z</time>
      </trkpt>
      <trkpt lat="42.6574" lon="2.58555">
        <ele>182.2</ele>
        <time>2021-08-31T01:09:54.687Z</time>
      </trkpt>
      <trkpt lat="42.6573" lon="2.58552">
        <ele>182.5</ele>
        <time>2021-08-31T01:09:56.962Z</time>
      </trkpt>
      <trkpt lat="42.65716" lon="2.5855">
        <ele>182.8</ele>
        <time>2021-08-31T01:09:59.805Z</time>
      </trkpt>
      <trkpt lat="42.65703" lon="2.58553">
        <ele>183.1</ele>
        <time>2021-08-31T01:10:02.513Z</time>
      </trkpt>
      <trkpt lat="42.65692" lon="2.5856">
        <ele>183.4</ele>
        <time>2021-08-31T01:10:05.064Z</time>
      </trkpt>
      <trkpt lat="42.65673" lon="2.58574">
        <ele>183.8</ele>
        <time>2021-08-31T01:10:09.294Z</time>
      </trkpt>
      <trkpt lat="42.65657" lon="2.58577">
        <ele>183.7</ele>
        <time>2021-08-31T01:10:11.692Z</time>
      </trkpt>
      <trkpt lat="42.65653" lon="2.58577">
        <ele>183.5</ele>
        <time>2021-08-31T01:10:12.045Z</time>
      </trkpt>
      <trkpt lat="42.6565" lon="2.58572">
        <ele>183.5</ele>
        <time>2021-08-31T01:10:12.816Z</time>
      </trkpt>
      <trkpt lat="42.65644" lon="2.58569">
        <ele>183.3</ele>
        <time>2021-08-31T01:10:13.490Z</time>
      </trkpt>
      <trkpt lat="42.65634" lon="2.5856">
        <ele>183</ele>
        <time>2021-08-31T01:10:14.843Z</time>
      </trkpt>
      <trkpt lat="42.6562" lon="2.58534">
        <ele>183</ele>
        <time>2021-08-31T01:10:18.695Z</time>
      </trkpt>
      <trkpt lat="42.65609" lon="2.58505">
        <ele>183.2</ele>
        <time>2021-08-31T01:10:22.918Z</time>
      </trkpt>
      <trkpt lat="42.65569" lon="2.58411">
        <ele>184</ele>
        <time>2021-08-31T01:10:37.211Z</time>
      </trkpt>
      <trkpt lat="42.65509" lon="2.58278">
        <ele>185.9</ele>
        <time>2021-08-31T01:10:59.197Z</time>
      </trkpt>
      <trkpt lat="42.65486" lon="2.58227">
        <ele>186.2</ele>
        <time>2021-08-31T01:11:06.825Z</time>
      </trkpt>
      <trkpt lat="42.6544" lon="2.58125">
        <ele>186.5</ele>
        <time>2021-08-31T01:11:21.588Z</time>
      </trkpt>
      <trkpt lat="42.65418" lon="2.58074">
        <ele>187.1</ele>
        <time>2021-08-31T01:11:29.679Z</time>
      </trkpt>
      <trkpt lat="42.65408" lon="2.58054">
        <ele>187.3</ele>
        <time>2021-08-31T01:11:32.902Z</time>
      </trkpt>
      <trkpt lat="42.65358" lon="2.57944">
        <ele>190.2</ele>
        <time>2021-08-31T01:11:54.351Z</time>
      </trkpt>
      <trkpt lat="42.65283" lon="2.57776">
        <ele>189.4</ele>
        <time>2021-08-31T01:12:16.008Z</time>
      </trkpt>
      <trkpt lat="42.65195" lon="2.5758">
        <ele>193.2</ele>
        <time>2021-08-31T01:12:50.585Z</time>
      </trkpt>
      <trkpt lat="42.65182" lon="2.57552">
        <ele>194.8</ele>
        <time>2021-08-31T01:12:58.300Z</time>
      </trkpt>
      <trkpt lat="42.6518" lon="2.57584">
        <ele>193</ele>
        <time>2021-08-31T01:13:00.290Z</time>
      </trkpt>
      <trkpt lat="42.65175" lon="2.57614">
        <ele>193.3</ele>
        <time>2021-08-31T01:13:04.476Z</time>
      </trkpt>
      <trkpt lat="42.65172" lon="2.57636">
        <ele>193.5</ele>
        <time>2021-08-31T01:13:07.486Z</time>
      </trkpt>
      <trkpt lat="42.65128" lon="2.57776">
        <ele>200.1</ele>
        <time>2021-08-31T01:13:41.290Z</time>
      </trkpt>
      <trkpt lat="42.65025" lon="2.58073">
        <ele>203.8</ele>
        <time>2021-08-31T01:14:26.953Z</time>
      </trkpt>
      <trkpt lat="42.65005" lon="2.58144">
        <ele>200.4</ele>
        <time>2021-08-31T01:14:31.469Z</time>
      </trkpt>
      <trkpt lat="42.64985" lon="2.58217">
        <ele>200.6</ele>
        <time>2021-08-31T01:14:41.090Z</time>
      </trkpt>
      <trkpt lat="42.64975" lon="2.5826">
        <ele>201.6</ele>
        <time>2021-08-31T01:14:48.538Z</time>
      </trkpt>
      <trkpt lat="42.64955" lon="2.5833">
        <ele>205.2</ele>
        <time>2021-08-31T01:15:05.969Z</time>
      </trkpt>
      <trkpt lat="42.64922" lon="2.58471">
        <ele>199.7</ele>
        <time>2021-08-31T01:15:15.539Z</time>
      </trkpt>
      <trkpt lat="42.64917" lon="2.58498">
        <ele>197.1</ele>
        <time>2021-08-31T01:15:17.264Z</time>
      </trkpt>
      <trkpt lat="42.64914" lon="2.5856">
        <ele>195.3</ele>
        <time>2021-08-31T01:15:21.710Z</time>
      </trkpt>
      <trkpt lat="42.6491" lon="2.58592">
        <ele>195.1</ele>
        <time>2021-08-31T01:15:25.011Z</time>
      </trkpt>
      <trkpt lat="42.6491" lon="2.58604">
        <ele>195.3</ele>
        <time>2021-08-31T01:15:26.821Z</time>
      </trkpt>
      <trkpt lat="42.64923" lon="2.58654">
        <ele>195.1</ele>
        <time>2021-08-31T01:15:32.700Z</time>
      </trkpt>
      <trkpt lat="42.64928" lon="2.58686">
        <ele>193.7</ele>
        <time>2021-08-31T01:15:34.684Z</time>
      </trkpt>
      <trkpt lat="42.64927" lon="2.58706">
        <ele>192.7</ele>
        <time>2021-08-31T01:15:35.926Z</time>
      </trkpt>
      <trkpt lat="42.64914" lon="2.58735">
        <ele>192</ele>
        <time>2021-08-31T01:15:38.653Z</time>
      </trkpt>
      <trkpt lat="42.64907" lon="2.58758">
        <ele>190.4</ele>
        <time>2021-08-31T01:15:40.195Z</time>
      </trkpt>
      <trkpt lat="42.64903" lon="2.58757">
        <ele>190.5</ele>
        <time>2021-08-31T01:15:41.048Z</time>
      </trkpt>
      <trkpt lat="42.64895" lon="2.58758">
        <ele>190.4</ele>
        <time>2021-08-31T01:15:42.101Z</time>
      </trkpt>
      <trkpt lat="42.6486" lon="2.58772">
        <ele>189.2</ele>
        <time>2021-08-31T01:15:45.886Z</time>
      </trkpt>
      <trkpt lat="42.64848" lon="2.58773">
        <ele>189.1</ele>
        <time>2021-08-31T01:15:47.549Z</time>
      </trkpt>
      <trkpt lat="42.64839" lon="2.58772">
        <ele>189.2</ele>
        <time>2021-08-31T01:15:49.183Z</time>
      </trkpt>
      <trkpt lat="42.6482" lon="2.58766">
        <ele>189.8</ele>
        <time>2021-08-31T01:15:53.597Z</time>
      </trkpt>
      <trkpt lat="42.64778" lon="2.5875">
        <ele>191.8</ele>
        <time>2021-08-31T01:16:05.665Z</time>
      </trkpt>
      <trkpt lat="42.64765" lon="2.58748">
        <ele>192.1</ele>
        <time>2021-08-31T01:16:08.357Z</time>
      </trkpt>
      <trkpt lat="42.64734" lon="2.58752">
        <ele>192.7</ele>
        <time>2021-08-31T01:16:14.503Z</time>
      </trkpt>
      <trkpt lat="42.64679" lon="2.58752">
        <ele>196</ele>
        <time>2021-08-31T01:16:31.231Z</time>
      </trkpt>
      <trkpt lat="42.64647" lon="2.58742">
        <ele>199.1</ele>
        <time>2021-08-31T01:16:44.393Z</time>
      </trkpt>
      <trkpt lat="42.64638" lon="2.58743">
        <ele>198.8</ele>
        <time>2021-08-31T01:16:45.326Z</time>
      </trkpt>
      <trkpt lat="42.64624" lon="2.5875">
        <ele>197.1</ele>
        <time>2021-08-31T01:16:46.583Z</time>
      </trkpt>
      <trkpt lat="42.64612" lon="2.58752">
        <ele>196.8</ele>
        <time>2021-08-31T01:16:47.950Z</time>
      </trkpt>
      <trkpt lat="42.64601" lon="2.58747">
        <ele>197.7</ele>
        <time>2021-08-31T01:16:51.974Z</time>
      </trkpt>
      <trkpt lat="42.64588" lon="2.58737">
        <ele>200.2</ele>
        <time>2021-08-31T01:17:01.338Z</time>
      </trkpt>
      <trkpt lat="42.64583" lon="2.58735">
        <ele>200.7</ele>
        <time>2021-08-31T01:17:03.457Z</time>
      </trkpt>
      <trkpt lat="42.64527" lon="2.58731">
        <ele>201.2</ele>
        <time>2021-08-31T01:17:13.382Z</time>
      </trkpt>
      <trkpt lat="42.6448" lon="2.58719">
        <ele>205.1</ele>
        <time>2021-08-31T01:17:30.516Z</time>
      </trkpt>
      <trkpt lat="42.64446" lon="2.58708">
        <ele>209</ele>
        <time>2021-08-31T01:17:47.169Z</time>
      </trkpt>
      <trkpt lat="42.6444" lon="2.58708">
        <ele>209.1</ele>
        <time>2021-08-31T01:17:48.320Z</time>
      </trkpt>
      <trkpt lat="42.64412" lon="2.58721">
        <ele>206</ele>
        <time>2021-08-31T01:17:50.813Z</time>
      </trkpt>
      <trkpt lat="42.64389" lon="2.58722">
        <ele>208.1</ele>
        <time>2021-08-31T01:17:59.776Z</time>
      </trkpt>
      <trkpt lat="42.64334" lon="2.58733">
        <ele>210.4</ele>
        <time>2021-08-31T01:18:14.325Z</time>
      </trkpt>
      <trkpt lat="42.64324" lon="2.58737">
        <ele>212.3</ele>
        <time>2021-08-31T01:18:20.860Z</time>
      </trkpt>
      <trkpt lat="42.64297" lon="2.58752">
        <ele>216.4</ele>
        <time>2021-08-31T01:18:39.147Z</time>
      </trkpt>
      <trkpt lat="42.64251" lon="2.58785">
        <ele>222.5</ele>
        <time>2021-08-31T01:19:05.583Z</time>
      </trkpt>
      <trkpt lat="42.64238" lon="2.58798">
        <ele>220.1</ele>
        <time>2021-08-31T01:19:06.942Z</time>
      </trkpt>
      <trkpt lat="42.64232" lon="2.58814">
        <ele>216.3</ele>
        <time>2021-08-31T01:19:08.055Z</time>
      </trkpt>
      <trkpt lat="42.64229" lon="2.58841">
        <ele>210.5</ele>
        <time>2021-08-31T01:19:09.747Z</time>
      </trkpt>
      <trkpt lat="42.64224" lon="2.58854">
        <ele>208.9</ele>
        <time>2021-08-31T01:19:10.656Z</time>
      </trkpt>
      <trkpt lat="42.64219" lon="2.58863">
        <ele>208</ele>
        <time>2021-08-31T01:19:11.355Z</time>
      </trkpt>
      <trkpt lat="42.64215" lon="2.58868">
        <ele>207.7</ele>
        <time>2021-08-31T01:19:11.815Z</time>
      </trkpt>
      <trkpt lat="42.64207" lon="2.58872">
        <ele>207.8</ele>
        <time>2021-08-31T01:19:13.367Z</time>
      </trkpt>
      <trkpt lat="42.64201" lon="2.58873">
        <ele>208.2</ele>
        <time>2021-08-31T01:19:15.289Z</time>
      </trkpt>
      <trkpt lat="42.64194" lon="2.58873">
        <ele>208.8</ele>
        <time>2021-08-31T01:19:17.886Z</time>
      </trkpt>
      <trkpt lat="42.64179" lon="2.58868">
        <ele>210.8</ele>
        <time>2021-08-31T01:19:27.047Z</time>
      </trkpt>
      <trkpt lat="42.64156" lon="2.5885">
        <ele>212</ele>
        <time>2021-08-31T01:19:34.361Z</time>
      </trkpt>
      <trkpt lat="42.64129" lon="2.58835">
        <ele>208.6</ele>
        <time>2021-08-31T01:19:36.818Z</time>
      </trkpt>
      <trkpt lat="42.64119" lon="2.58819">
        <ele>208.9</ele>
        <time>2021-08-31T01:19:39.871Z</time>
      </trkpt>
      <trkpt lat="42.64118" lon="2.58809">
        <ele>210.2</ele>
        <time>2021-08-31T01:19:44.526Z</time>
      </trkpt>
      <trkpt lat="42.6412" lon="2.5878">
        <ele>214.9</ele>
        <time>2021-08-31T01:19:57.959Z</time>
      </trkpt>
      <trkpt lat="42.64119" lon="2.58768">
        <ele>216.3</ele>
        <time>2021-08-31T01:20:03.528Z</time>
      </trkpt>
      <trkpt lat="42.64102" lon="2.58701">
        <ele>217.9</ele>
        <time>2021-08-31T01:20:15.316Z</time>
      </trkpt>
      <trkpt lat="42.64097" lon="2.58669">
        <ele>219.1</ele>
        <time>2021-08-31T01:20:22.149Z</time>
      </trkpt>
      <trkpt lat="42.64095" lon="2.58621">
        <ele>219.5</ele>
        <time>2021-08-31T01:20:28.562Z</time>
      </trkpt>
      <trkpt lat="42.64099" lon="2.58568">
        <ele>222.6</ele>
        <time>2021-08-31T01:20:42.324Z</time>
      </trkpt>
      <trkpt lat="42.64094" lon="2.58535">
        <ele>223.9</ele>
        <time>2021-08-31T01:20:49.483Z</time>
      </trkpt>
      <trkpt lat="42.64085" lon="2.58507">
        <ele>222.8</ele>
        <time>2021-08-31T01:20:51.487Z</time>
      </trkpt>
      <trkpt lat="42.64067" lon="2.58464">
        <ele>222.9</ele>
        <time>2021-08-31T01:20:57.556Z</time>
      </trkpt>
      <trkpt lat="42.64056" lon="2.58433">
        <ele>222.7</ele>
        <time>2021-08-31T01:21:01.079Z</time>
      </trkpt>
      <trkpt lat="42.64049" lon="2.58409">
        <ele>223.3</ele>
        <time>2021-08-31T01:21:05.423Z</time>
      </trkpt>
      <trkpt lat="42.64042" lon="2.58358">
        <ele>228.4</ele>
        <time>2021-08-31T01:21:29.350Z</time>
      </trkpt>
      <trkpt lat="42.64038" lon="2.58342">
        <ele>229.2</ele>
        <time>2021-08-31T01:21:33.249Z</time>
      </trkpt>
      <trkpt lat="42.63991" lon="2.58264">
        <ele>236.7</ele>
        <time>2021-08-31T01:22:04.945Z</time>
      </trkpt>
      <trkpt lat="42.63976" lon="2.58251">
        <ele>236.6</ele>
        <time>2021-08-31T01:22:07.607Z</time>
      </trkpt>
      <trkpt lat="42.63945" lon="2.58238">
        <ele>234.6</ele>
        <time>2021-08-31T01:22:10.210Z</time>
      </trkpt>
      <trkpt lat="42.63935" lon="2.58236">
        <ele>233</ele>
        <time>2021-08-31T01:22:11.062Z</time>
      </trkpt>
      <trkpt lat="42.63923" lon="2.58236">
        <ele>230.1</ele>
        <time>2021-08-31T01:22:12.073Z</time>
      </trkpt>
      <trkpt lat="42.63879" lon="2.58241">
        <ele>222.7</ele>
        <time>2021-08-31T01:22:15.792Z</time>
      </trkpt>
      <trkpt lat="42.63864" lon="2.58237">
        <ele>223.2</ele>
        <time>2021-08-31T01:22:19.340Z</time>
      </trkpt>
      <trkpt lat="42.63856" lon="2.58232">
        <ele>224.2</ele>
        <time>2021-08-31T01:22:23.629Z</time>
      </trkpt>
      <trkpt lat="42.63843" lon="2.5822">
        <ele>227.5</ele>
        <time>2021-08-31T01:22:33.480Z</time>
      </trkpt>
      <trkpt lat="42.63838" lon="2.58211">
        <ele>229.8</ele>
        <time>2021-08-31T01:22:38.682Z</time>
      </trkpt>
      <trkpt lat="42.63817" lon="2.58166">
        <ele>242.4</ele>
        <time>2021-08-31T01:23:03.260Z</time>
      </trkpt>
      <trkpt lat="42.63797" lon="2.58133">
        <ele>245.9</ele>
        <time>2021-08-31T01:23:18.195Z</time>
      </trkpt>
      <trkpt lat="42.63785" lon="2.58117">
        <ele>245.8</ele>
        <time>2021-08-31T01:23:20.699Z</time>
      </trkpt>
      <trkpt lat="42.63771" lon="2.58106">
        <ele>243.6</ele>
        <time>2021-08-31T01:23:22.062Z</time>
      </trkpt>
      <trkpt lat="42.63765" lon="2.58105">
        <ele>242</ele>
        <time>2021-08-31T01:23:22.571Z</time>
      </trkpt>
      <trkpt lat="42.63759" lon="2.58106">
        <ele>240.2</ele>
        <time>2021-08-31T01:23:23.080Z</time>
      </trkpt>
      <trkpt lat="42.6375" lon="2.58113">
        <ele>237.6</ele>
        <time>2021-08-31T01:23:23.954Z</time>
      </trkpt>
      <trkpt lat="42.63747" lon="2.58125">
        <ele>238.4</ele>
        <time>2021-08-31T01:23:27.416Z</time>
      </trkpt>
      <trkpt lat="42.63758" lon="2.58158">
        <ele>236.4</ele>
        <time>2021-08-31T01:23:29.661Z</time>
      </trkpt>
      <trkpt lat="42.63761" lon="2.58181">
        <ele>234.8</ele>
        <time>2021-08-31T01:23:31.109Z</time>
      </trkpt>
      <trkpt lat="42.63756" lon="2.58231">
        <ele>230.4</ele>
        <time>2021-08-31T01:23:34.236Z</time>
      </trkpt>
      <trkpt lat="42.63754" lon="2.58281">
        <ele>228.4</ele>
        <time>2021-08-31T01:23:37.373Z</time>
      </trkpt>
      <trkpt lat="42.63747" lon="2.5833">
        <ele>229.9</ele>
        <time>2021-08-31T01:23:46.910Z</time>
      </trkpt>
      <trkpt lat="42.63747" lon="2.58367">
        <ele>224.6</ele>
        <time>2021-08-31T01:23:49.203Z</time>
      </trkpt>
      <trkpt lat="42.63744" lon="2.58391">
        <ele>222.6</ele>
        <time>2021-08-31T01:23:50.712Z</time>
      </trkpt>
      <trkpt lat="42.63738" lon="2.58402">
        <ele>223.9</ele>
        <time>2021-08-31T01:23:56.651Z</time>
      </trkpt>
      <trkpt lat="42.63733" lon="2.58408">
        <ele>226</ele>
        <time>2021-08-31T01:24:00.832Z</time>
      </trkpt>
      <trkpt lat="42.6372" lon="2.58417">
        <ele>232</ele>
        <time>2021-08-31T01:24:09.979Z</time>
      </trkpt>
      <trkpt lat="42.63677" lon="2.58441">
        <ele>248</ele>
        <time>2021-08-31T01:24:39.121Z</time>
      </trkpt>
      <trkpt lat="42.63661" lon="2.58456">
        <ele>248.2</ele>
        <time>2021-08-31T01:24:42.609Z</time>
      </trkpt>
      <trkpt lat="42.63636" lon="2.585">
        <ele>235.4</ele>
        <time>2021-08-31T01:24:46.054Z</time>
      </trkpt>
      <trkpt lat="42.63627" lon="2.58514">
        <ele>234.1</ele>
        <time>2021-08-31T01:24:47.207Z</time>
      </trkpt>
      <trkpt lat="42.63619" lon="2.58517">
        <ele>234.7</ele>
        <time>2021-08-31T01:24:49.969Z</time>
      </trkpt>
      <trkpt lat="42.63611" lon="2.58515">
        <ele>236.8</ele>
        <time>2021-08-31T01:24:55.068Z</time>
      </trkpt>
      <trkpt lat="42.63556" lon="2.58473">
        <ele>264.7</ele>
        <time>2021-08-31T01:25:34.619Z</time>
      </trkpt>
      <trkpt lat="42.63548" lon="2.5847">
        <ele>267.5</ele>
        <time>2021-08-31T01:25:39.821Z</time>
      </trkpt>
      <trkpt lat="42.6354" lon="2.58468">
        <ele>269.3</ele>
        <time>2021-08-31T01:25:44.921Z</time>
      </trkpt>
      <trkpt lat="42.63525" lon="2.5847">
        <ele>270.8</ele>
        <time>2021-08-31T01:25:51.262Z</time>
      </trkpt>
      <trkpt lat="42.6351" lon="2.5848">
        <ele>267.6</ele>
        <time>2021-08-31T01:25:52.670Z</time>
      </trkpt>
      <trkpt lat="42.63494" lon="2.58495">
        <ele>265.2</ele>
        <time>2021-08-31T01:25:54.307Z</time>
      </trkpt>
      <trkpt lat="42.6348" lon="2.58516">
        <ele>264.6</ele>
        <time>2021-08-31T01:25:56.564Z</time>
      </trkpt>
      <trkpt lat="42.63449" lon="2.58594">
        <ele>249.4</ele>
        <time>2021-08-31T01:26:02.059Z</time>
      </trkpt>
      <trkpt lat="42.63434" lon="2.58618">
        <ele>248.6</ele>
        <time>2021-08-31T01:26:04.423Z</time>
      </trkpt>
      <trkpt lat="42.63428" lon="2.58625">
        <ele>248</ele>
        <time>2021-08-31T01:26:05.089Z</time>
      </trkpt>
      <trkpt lat="42.63421" lon="2.5863">
        <ele>248.6</ele>
        <time>2021-08-31T01:26:07.795Z</time>
      </trkpt>
      <trkpt lat="42.63408" lon="2.58634">
        <ele>248.8</ele>
        <time>2021-08-31T01:26:10.307Z</time>
      </trkpt>
      <trkpt lat="42.634" lon="2.58634">
        <ele>249</ele>
        <time>2021-08-31T01:26:11.994Z</time>
      </trkpt>
      <trkpt lat="42.63381" lon="2.58629">
        <ele>251.1</ele>
        <time>2021-08-31T01:26:20.913Z</time>
      </trkpt>
      <trkpt lat="42.63364" lon="2.58621">
        <ele>255.1</ele>
        <time>2021-08-31T01:26:32.192Z</time>
      </trkpt>
      <trkpt lat="42.63353" lon="2.58614">
        <ele>258.2</ele>
        <time>2021-08-31T01:26:39.807Z</time>
      </trkpt>
      <trkpt lat="42.63328" lon="2.58591">
        <ele>269.3</ele>
        <time>2021-08-31T01:26:58.733Z</time>
      </trkpt>
      <trkpt lat="42.63319" lon="2.58588">
        <ele>270.1</ele>
        <time>2021-08-31T01:27:02.189Z</time>
      </trkpt>
      <trkpt lat="42.63304" lon="2.58586">
        <ele>269.6</ele>
        <time>2021-08-31T01:27:03.748Z</time>
      </trkpt>
      <trkpt lat="42.63296" lon="2.58583">
        <ele>270.4</ele>
        <time>2021-08-31T01:27:07.137Z</time>
      </trkpt>
      <trkpt lat="42.63291" lon="2.5858">
        <ele>271.3</ele>
        <time>2021-08-31T01:27:10.563Z</time>
      </trkpt>
      <trkpt lat="42.63279" lon="2.58567">
        <ele>275.5</ele>
        <time>2021-08-31T01:27:20.184Z</time>
      </trkpt>
      <trkpt lat="42.63273" lon="2.58563">
        <ele>276.6</ele>
        <time>2021-08-31T01:27:24.374Z</time>
      </trkpt>
      <trkpt lat="42.6325" lon="2.58561">
        <ele>275.1</ele>
        <time>2021-08-31T01:27:26.174Z</time>
      </trkpt>
      <trkpt lat="42.63245" lon="2.58559">
        <ele>276.7</ele>
        <time>2021-08-31T01:27:29.441Z</time>
      </trkpt>
      <trkpt lat="42.63236" lon="2.5855">
        <ele>280.8</ele>
        <time>2021-08-31T01:27:36.446Z</time>
      </trkpt>
      <trkpt lat="42.63226" lon="2.58534">
        <ele>287</ele>
        <time>2021-08-31T01:27:46.130Z</time>
      </trkpt>
      <trkpt lat="42.63222" lon="2.5853">
        <ele>288.6</ele>
        <time>2021-08-31T01:27:49.243Z</time>
      </trkpt>
      <trkpt lat="42.63217" lon="2.58529">
        <ele>289.3</ele>
        <time>2021-08-31T01:27:52.412Z</time>
      </trkpt>
      <trkpt lat="42.63206" lon="2.5853">
        <ele>289.9</ele>
        <time>2021-08-31T01:27:55.638Z</time>
      </trkpt>
      <trkpt lat="42.63201" lon="2.58534">
        <ele>289.3</ele>
        <time>2021-08-31T01:27:56.127Z</time>
      </trkpt>
      <trkpt lat="42.63178" lon="2.58566">
        <ele>285</ele>
        <time>2021-08-31T01:27:58.900Z</time>
      </trkpt>
      <trkpt lat="42.63164" lon="2.58582">
        <ele>284.8</ele>
        <time>2021-08-31T01:28:01.344Z</time>
      </trkpt>
      <trkpt lat="42.6314" lon="2.58597">
        <ele>286.1</ele>
        <time>2021-08-31T01:28:08.813Z</time>
      </trkpt>
      <trkpt lat="42.63136" lon="2.58603">
        <ele>285.3</ele>
        <time>2021-08-31T01:28:09.315Z</time>
      </trkpt>
      <trkpt lat="42.63133" lon="2.58609">
        <ele>284.1</ele>
        <time>2021-08-31T01:28:09.765Z</time>
      </trkpt>
      <trkpt lat="42.63132" lon="2.58618">
        <ele>281.8</ele>
        <time>2021-08-31T01:28:10.329Z</time>
      </trkpt>
      <trkpt lat="42.63133" lon="2.58633">
        <ele>277.2</ele>
        <time>2021-08-31T01:28:11.262Z</time>
      </trkpt>
      <trkpt lat="42.63132" lon="2.58659">
        <ele>269.5</ele>
        <time>2021-08-31T01:28:12.876Z</time>
      </trkpt>
      <trkpt lat="42.63123" lon="2.5867">
        <ele>267.9</ele>
        <time>2021-08-31T01:28:13.896Z</time>
      </trkpt>
      <trkpt lat="42.63118" lon="2.58671">
        <ele>268.7</ele>
        <time>2021-08-31T01:28:17.064Z</time>
      </trkpt>
      <trkpt lat="42.63112" lon="2.58669">
        <ele>271.2</ele>
        <time>2021-08-31T01:28:20.937Z</time>
      </trkpt>
      <trkpt lat="42.63103" lon="2.58662">
        <ele>275.8</ele>
        <time>2021-08-31T01:28:27.438Z</time>
      </trkpt>
      <trkpt lat="42.63092" lon="2.58656">
        <ele>279.9</ele>
        <time>2021-08-31T01:28:34.869Z</time>
      </trkpt>
      <trkpt lat="42.63064" lon="2.58658">
        <ele>284.9</ele>
        <time>2021-08-31T01:28:52.448Z</time>
      </trkpt>
      <trkpt lat="42.63057" lon="2.58656">
        <ele>287</ele>
        <time>2021-08-31T01:28:56.932Z</time>
      </trkpt>
      <trkpt lat="42.63043" lon="2.58649">
        <ele>292.3</ele>
        <time>2021-08-31T01:29:06.284Z</time>
      </trkpt>
      <trkpt lat="42.63037" lon="2.58648">
        <ele>293.9</ele>
        <time>2021-08-31T01:29:10.074Z</time>
      </trkpt>
      <trkpt lat="42.63031" lon="2.58649">
        <ele>294.6</ele>
        <time>2021-08-31T01:29:13.094Z</time>
      </trkpt>
      <trkpt lat="42.62973" lon="2.58682">
        <ele>289.9</ele>
        <time>2021-08-31T01:29:18.391Z</time>
      </trkpt>
      <trkpt lat="42.62965" lon="2.58694">
        <ele>285.9</ele>
        <time>2021-08-31T01:29:19.395Z</time>
      </trkpt>
      <trkpt lat="42.62957" lon="2.58721">
        <ele>274.9</ele>
        <time>2021-08-31T01:29:21.199Z</time>
      </trkpt>
      <trkpt lat="42.62953" lon="2.58726">
        <ele>273.3</ele>
        <time>2021-08-31T01:29:21.657Z</time>
      </trkpt>
      <trkpt lat="42.62947" lon="2.58729">
        <ele>273</ele>
        <time>2021-08-31T01:29:22.237Z</time>
      </trkpt>
      <trkpt lat="42.62941" lon="2.58729">
        <ele>274.5</ele>
        <time>2021-08-31T01:29:25.999Z</time>
      </trkpt>
      <trkpt lat="42.62927" lon="2.58722">
        <ele>280.7</ele>
        <time>2021-08-31T01:29:35.351Z</time>
      </trkpt>
      <trkpt lat="42.62895" lon="2.58715">
        <ele>291.4</ele>
        <time>2021-08-31T01:29:55.671Z</time>
      </trkpt>
      <trkpt lat="42.62886" lon="2.58716">
        <ele>293.4</ele>
        <time>2021-08-31T01:30:01.332Z</time>
      </trkpt>
      <trkpt lat="42.62878" lon="2.58719">
        <ele>294.4</ele>
        <time>2021-08-31T01:30:05.715Z</time>
      </trkpt>
      <trkpt lat="42.62864" lon="2.5873">
        <ele>293.9</ele>
        <time>2021-08-31T01:30:07.427Z</time>
      </trkpt>
      <trkpt lat="42.62847" lon="2.58755">
        <ele>289.8</ele>
        <time>2021-08-31T01:30:09.537Z</time>
      </trkpt>
      <trkpt lat="42.62841" lon="2.58806">
        <ele>277.6</ele>
        <time>2021-08-31T01:30:12.739Z</time>
      </trkpt>
      <trkpt lat="42.62833" lon="2.58845">
        <ele>273.5</ele>
        <time>2021-08-31T01:30:15.248Z</time>
      </trkpt>
      <trkpt lat="42.62836" lon="2.58862">
        <ele>271.5</ele>
        <time>2021-08-31T01:30:16.332Z</time>
      </trkpt>
      <trkpt lat="42.62846" lon="2.58885">
        <ele>266.6</ele>
        <time>2021-08-31T01:30:17.988Z</time>
      </trkpt>
      <trkpt lat="42.62849" lon="2.58906">
        <ele>264.6</ele>
        <time>2021-08-31T01:30:19.314Z</time>
      </trkpt>
      <trkpt lat="42.62853" lon="2.58963">
        <ele>258.4</ele>
        <time>2021-08-31T01:30:22.863Z</time>
      </trkpt>
      <trkpt lat="42.62853" lon="2.58973">
        <ele>257.5</ele>
        <time>2021-08-31T01:30:23.483Z</time>
      </trkpt>
      <trkpt lat="42.6285" lon="2.58984">
        <ele>257.2</ele>
        <time>2021-08-31T01:30:24.362Z</time>
      </trkpt>
      <trkpt lat="42.62846" lon="2.58989">
        <ele>257.7</ele>
        <time>2021-08-31T01:30:26.493Z</time>
      </trkpt>
      <trkpt lat="42.6284" lon="2.5899">
        <ele>258.8</ele>
        <time>2021-08-31T01:30:30.282Z</time>
      </trkpt>
      <trkpt lat="42.62834" lon="2.58988">
        <ele>260.5</ele>
        <time>2021-08-31T01:30:34.156Z</time>
      </trkpt>
      <trkpt lat="42.62822" lon="2.58981">
        <ele>261.8</ele>
        <time>2021-08-31T01:30:39.651Z</time>
      </trkpt>
      <trkpt lat="42.62807" lon="2.58969">
        <ele>263.3</ele>
        <time>2021-08-31T01:30:46.135Z</time>
      </trkpt>
      <trkpt lat="42.62793" lon="2.58954">
        <ele>264.6</ele>
        <time>2021-08-31T01:30:52.097Z</time>
      </trkpt>
      <trkpt lat="42.62787" lon="2.58945">
        <ele>265.2</ele>
        <time>2021-08-31T01:30:54.958Z</time>
      </trkpt>
      <trkpt lat="42.62769" lon="2.58907">
        <ele>267.5</ele>
        <time>2021-08-31T01:31:05.766Z</time>
      </trkpt>
      <trkpt lat="42.62764" lon="2.589">
        <ele>268.3</ele>
        <time>2021-08-31T01:31:09.181Z</time>
      </trkpt>
      <trkpt lat="42.62752" lon="2.58895">
        <ele>268.6</ele>
        <time>2021-08-31T01:31:11.793Z</time>
      </trkpt>
      <trkpt lat="42.62746" lon="2.58897">
        <ele>269.4</ele>
        <time>2021-08-31T01:31:15.458Z</time>
      </trkpt>
      <trkpt lat="42.6274" lon="2.58899">
        <ele>270.4</ele>
        <time>2021-08-31T01:31:19.331Z</time>
      </trkpt>
      <trkpt lat="42.62736" lon="2.58903">
        <ele>270.7</ele>
        <time>2021-08-31T01:31:20.845Z</time>
      </trkpt>
      <trkpt lat="42.62734" lon="2.58908">
        <ele>270.4</ele>
        <time>2021-08-31T01:31:21.198Z</time>
      </trkpt>
      <trkpt lat="42.62733" lon="2.58921">
        <ele>269.4</ele>
        <time>2021-08-31T01:31:22.008Z</time>
      </trkpt>
      <trkpt lat="42.62736" lon="2.58938">
        <ele>268.6</ele>
        <time>2021-08-31T01:31:23.036Z</time>
      </trkpt>
      <trkpt lat="42.62744" lon="2.58965">
        <ele>266.1</ele>
        <time>2021-08-31T01:31:24.840Z</time>
      </trkpt>
      <trkpt lat="42.62764" lon="2.59017">
        <ele>262.6</ele>
        <time>2021-08-31T01:31:28.477Z</time>
      </trkpt>
      <trkpt lat="42.6277" lon="2.59044">
        <ele>261.9</ele>
        <time>2021-08-31T01:31:30.612Z</time>
      </trkpt>
      <trkpt lat="42.6278" lon="2.59098">
        <ele>258.4</ele>
        <time>2021-08-31T01:31:34.063Z</time>
      </trkpt>
      <trkpt lat="42.62785" lon="2.59144">
        <ele>254.6</ele>
        <time>2021-08-31T01:31:36.945Z</time>
      </trkpt>
      <trkpt lat="42.62784" lon="2.59186">
        <ele>252.3</ele>
        <time>2021-08-31T01:31:39.550Z</time>
      </trkpt>
      <trkpt lat="42.62774" lon="2.59239">
        <ele>250.4</ele>
        <time>2021-08-31T01:31:43.195Z</time>
      </trkpt>
      <trkpt lat="42.62772" lon="2.59269">
        <ele>248.3</ele>
        <time>2021-08-31T01:31:45.062Z</time>
      </trkpt>
      <trkpt lat="42.62766" lon="2.59289">
        <ele>247.1</ele>
        <time>2021-08-31T01:31:46.401Z</time>
      </trkpt>
      <trkpt lat="42.62757" lon="2.59304">
        <ele>245.6</ele>
        <time>2021-08-31T01:31:47.601Z</time>
      </trkpt>
      <trkpt lat="42.62742" lon="2.59312">
        <ele>245.7</ele>
        <time>2021-08-31T01:31:50.378Z</time>
      </trkpt>
      <trkpt lat="42.62734" lon="2.59313">
        <ele>246.7</ele>
        <time>2021-08-31T01:31:54.837Z</time>
      </trkpt>
      <trkpt lat="42.62728" lon="2.59312">
        <ele>247.8</ele>
        <time>2021-08-31T01:31:58.627Z</time>
      </trkpt>
      <trkpt lat="42.62717" lon="2.59306">
        <ele>249.8</ele>
        <time>2021-08-31T01:32:06.058Z</time>
      </trkpt>
      <trkpt lat="42.62696" lon="2.59277">
        <ele>252.7</ele>
        <time>2021-08-31T01:32:18.337Z</time>
      </trkpt>
      <trkpt lat="42.62678" lon="2.59243">
        <ele>253.7</ele>
        <time>2021-08-31T01:32:25.465Z</time>
      </trkpt>
      <trkpt lat="42.62665" lon="2.59223">
        <ele>257.8</ele>
        <time>2021-08-31T01:32:37.775Z</time>
      </trkpt>
      <trkpt lat="42.62651" lon="2.59213">
        <ele>261.2</ele>
        <time>2021-08-31T01:32:47.690Z</time>
      </trkpt>
      <trkpt lat="42.62627" lon="2.59209">
        <ele>263.9</ele>
        <time>2021-08-31T01:32:59.221Z</time>
      </trkpt>
      <trkpt lat="42.62621" lon="2.59206">
        <ele>264.2</ele>
        <time>2021-08-31T01:33:01.002Z</time>
      </trkpt>
      <trkpt lat="42.62616" lon="2.59199">
        <ele>264.1</ele>
        <time>2021-08-31T01:33:01.925Z</time>
      </trkpt>
      <trkpt lat="42.6261" lon="2.59186">
        <ele>262.9</ele>
        <time>2021-08-31T01:33:02.877Z</time>
      </trkpt>
      <trkpt lat="42.62595" lon="2.59152">
        <ele>260.9</ele>
        <time>2021-08-31T01:33:05.334Z</time>
      </trkpt>
      <trkpt lat="42.62589" lon="2.59148">
        <ele>260.7</ele>
        <time>2021-08-31T01:33:06.049Z</time>
      </trkpt>
      <trkpt lat="42.62579" lon="2.59143">
        <ele>260.5</ele>
        <time>2021-08-31T01:33:07.340Z</time>
      </trkpt>
      <trkpt lat="42.62571" lon="2.59144">
        <ele>260.5</ele>
        <time>2021-08-31T01:33:08.646Z</time>
      </trkpt>
      <trkpt lat="42.62544" lon="2.59168">
        <ele>259.8</ele>
        <time>2021-08-31T01:33:12.423Z</time>
      </trkpt>
      <trkpt lat="42.62531" lon="2.59174">
        <ele>263.1</ele>
        <time>2021-08-31T01:33:21.030Z</time>
      </trkpt>
      <trkpt lat="42.62517" lon="2.59175">
        <ele>264.7</ele>
        <time>2021-08-31T01:33:27.902Z</time>
      </trkpt>
      <trkpt lat="42.62507" lon="2.59172">
        <ele>264.1</ele>
        <time>2021-08-31T01:33:28.744Z</time>
      </trkpt>
      <trkpt lat="42.62482" lon="2.5916">
        <ele>266.7</ele>
        <time>2021-08-31T01:33:39.743Z</time>
      </trkpt>
      <trkpt lat="42.62457" lon="2.59141">
        <ele>270.5</ele>
        <time>2021-08-31T01:33:57.504Z</time>
      </trkpt>
      <trkpt lat="42.62434" lon="2.59118">
        <ele>270.1</ele>
        <time>2021-08-31T01:34:01.171Z</time>
      </trkpt>
      <trkpt lat="42.62411" lon="2.59091">
        <ele>264.5</ele>
        <time>2021-08-31T01:34:03.732Z</time>
      </trkpt>
      <trkpt lat="42.624" lon="2.59083">
        <ele>262</ele>
        <time>2021-08-31T01:34:04.783Z</time>
      </trkpt>
      <trkpt lat="42.62395" lon="2.59081">
        <ele>262</ele>
        <time>2021-08-31T01:34:05.630Z</time>
      </trkpt>
      <trkpt lat="42.62389" lon="2.59081">
        <ele>261.7</ele>
        <time>2021-08-31T01:34:06.160Z</time>
      </trkpt>
      <trkpt lat="42.62361" lon="2.59093">
        <ele>261.4</ele>
        <time>2021-08-31T01:34:10.120Z</time>
      </trkpt>
      <trkpt lat="42.62345" lon="2.59104">
        <ele>261.9</ele>
        <time>2021-08-31T01:34:14.034Z</time>
      </trkpt>
      <trkpt lat="42.62332" lon="2.59118">
        <ele>263.2</ele>
        <time>2021-08-31T01:34:19.825Z</time>
      </trkpt>
      <trkpt lat="42.6232" lon="2.59138">
        <ele>267</ele>
        <time>2021-08-31T01:34:31.730Z</time>
      </trkpt>
      <trkpt lat="42.62304" lon="2.59184">
        <ele>271.4</ele>
        <time>2021-08-31T01:34:50.814Z</time>
      </trkpt>
      <trkpt lat="42.62297" lon="2.59231">
        <ele>274.8</ele>
        <time>2021-08-31T01:35:05.217Z</time>
      </trkpt>
      <trkpt lat="42.62293" lon="2.59246">
        <ele>275.1</ele>
        <time>2021-08-31T01:35:07.708Z</time>
      </trkpt>
      <trkpt lat="42.62284" lon="2.59253">
        <ele>273.6</ele>
        <time>2021-08-31T01:35:08.582Z</time>
      </trkpt>
      <trkpt lat="42.62268" lon="2.59253">
        <ele>269.6</ele>
        <time>2021-08-31T01:35:09.930Z</time>
      </trkpt>
      <trkpt lat="42.62259" lon="2.59254">
        <ele>267.3</ele>
        <time>2021-08-31T01:35:10.690Z</time>
      </trkpt>
      <trkpt lat="42.62254" lon="2.59256">
        <ele>266.3</ele>
        <time>2021-08-31T01:35:11.129Z</time>
      </trkpt>
      <trkpt lat="42.62247" lon="2.59271">
        <ele>266.6</ele>
        <time>2021-08-31T01:35:13.819Z</time>
      </trkpt>
      <trkpt lat="42.6224" lon="2.59301">
        <ele>268.3</ele>
        <time>2021-08-31T01:35:21.594Z</time>
      </trkpt>
      <trkpt lat="42.62227" lon="2.59324">
        <ele>269.5</ele>
        <time>2021-08-31T01:35:27.917Z</time>
      </trkpt>
      <trkpt lat="42.62211" lon="2.59332">
        <ele>270</ele>
        <time>2021-08-31T01:35:31.706Z</time>
      </trkpt>
      <trkpt lat="42.62204" lon="2.59334">
        <ele>270.5</ele>
        <time>2021-08-31T01:35:34.044Z</time>
      </trkpt>
      <trkpt lat="42.6218" lon="2.59334">
        <ele>272.1</ele>
        <time>2021-08-31T01:35:41.701Z</time>
      </trkpt>
      <trkpt lat="42.62152" lon="2.59339">
        <ele>273.4</ele>
        <time>2021-08-31T01:35:49.524Z</time>
      </trkpt>
      <trkpt lat="42.62134" lon="2.59339">
        <ele>273.3</ele>
        <time>2021-08-31T01:35:52.220Z</time>
      </trkpt>
      <trkpt lat="42.62126" lon="2.59335">
        <ele>273.1</ele>
        <time>2021-08-31T01:35:53.198Z</time>
      </trkpt>
      <trkpt lat="42.62118" lon="2.59329">
        <ele>274.6</ele>
        <time>2021-08-31T01:35:58.927Z</time>
      </trkpt>
      <trkpt lat="42.62113" lon="2.59321">
        <ele>277.1</ele>
        <time>2021-08-31T01:36:03.769Z</time>
      </trkpt>
      <trkpt lat="42.62107" lon="2.59303">
        <ele>283.4</ele>
        <time>2021-08-31T01:36:12.885Z</time>
      </trkpt>
      <trkpt lat="42.62103" lon="2.59297">
        <ele>285.6</ele>
        <time>2021-08-31T01:36:16.620Z</time>
      </trkpt>
      <trkpt lat="42.62092" lon="2.59292">
        <ele>287.2</ele>
        <time>2021-08-31T01:36:23.892Z</time>
      </trkpt>
      <trkpt lat="42.6208" lon="2.59298">
        <ele>286.1</ele>
        <time>2021-08-31T01:36:24.969Z</time>
      </trkpt>
      <trkpt lat="42.62061" lon="2.59311">
        <ele>285.3</ele>
        <time>2021-08-31T01:36:27.075Z</time>
      </trkpt>
      <trkpt lat="42.62032" lon="2.59325">
        <ele>286.7</ele>
        <time>2021-08-31T01:36:35.570Z</time>
      </trkpt>
      <trkpt lat="42.6199" lon="2.59349">
        <ele>294.1</ele>
        <time>2021-08-31T01:37:04.135Z</time>
      </trkpt>
      <trkpt lat="42.61983" lon="2.59356">
        <ele>297.6</ele>
        <time>2021-08-31T01:37:09.583Z</time>
      </trkpt>
      <trkpt lat="42.61978" lon="2.59363">
        <ele>299.5</ele>
        <time>2021-08-31T01:37:14.084Z</time>
      </trkpt>
      <trkpt lat="42.61973" lon="2.59374">
        <ele>300.4</ele>
        <time>2021-08-31T01:37:17.904Z</time>
      </trkpt>
      <trkpt lat="42.61968" lon="2.59398">
        <ele>299.8</ele>
        <time>2021-08-31T01:37:19.812Z</time>
      </trkpt>
      <trkpt lat="42.61968" lon="2.59409">
        <ele>297.8</ele>
        <time>2021-08-31T01:37:20.494Z</time>
      </trkpt>
      <trkpt lat="42.6197" lon="2.59421">
        <ele>295.6</ele>
        <time>2021-08-31T01:37:21.257Z</time>
      </trkpt>
      <trkpt lat="42.61977" lon="2.59445">
        <ele>293.2</ele>
        <time>2021-08-31T01:37:22.857Z</time>
      </trkpt>
      <trkpt lat="42.61993" lon="2.59484">
        <ele>286.8</ele>
        <time>2021-08-31T01:37:25.625Z</time>
      </trkpt>
      <trkpt lat="42.62009" lon="2.59512">
        <ele>284.6</ele>
        <time>2021-08-31T01:37:27.823Z</time>
      </trkpt>
      <trkpt lat="42.62034" lon="2.59549">
        <ele>286</ele>
        <time>2021-08-31T01:37:37.023Z</time>
      </trkpt>
      <trkpt lat="42.62042" lon="2.59564">
        <ele>286.4</ele>
        <time>2021-08-31T01:37:40.053Z</time>
      </trkpt>
      <trkpt lat="42.62044" lon="2.59572">
        <ele>286.6</ele>
        <time>2021-08-31T01:37:41.486Z</time>
      </trkpt>
      <trkpt lat="42.62042" lon="2.59584">
        <ele>287</ele>
        <time>2021-08-31T01:37:43.957Z</time>
      </trkpt>
      <trkpt lat="42.62036" lon="2.59593">
        <ele>286.8</ele>
        <time>2021-08-31T01:37:44.996Z</time>
      </trkpt>
      <trkpt lat="42.6203" lon="2.59597">
        <ele>286.6</ele>
        <time>2021-08-31T01:37:45.711Z</time>
      </trkpt>
      <trkpt lat="42.62013" lon="2.59608">
        <ele>285.3</ele>
        <time>2021-08-31T01:37:47.297Z</time>
      </trkpt>
      <trkpt lat="42.61972" lon="2.59642">
        <ele>287.4</ele>
        <time>2021-08-31T01:38:00.319Z</time>
      </trkpt>
      <trkpt lat="42.61919" lon="2.59681">
        <ele>291.7</ele>
        <time>2021-08-31T01:38:20.233Z</time>
      </trkpt>
      <trkpt lat="42.61907" lon="2.59696">
        <ele>292.7</ele>
        <time>2021-08-31T01:38:25.239Z</time>
      </trkpt>
      <trkpt lat="42.61886" lon="2.59742">
        <ele>288.2</ele>
        <time>2021-08-31T01:38:28.595Z</time>
      </trkpt>
      <trkpt lat="42.61881" lon="2.59751">
        <ele>287.2</ele>
        <time>2021-08-31T01:38:29.294Z</time>
      </trkpt>
      <trkpt lat="42.61869" lon="2.59766">
        <ele>289.3</ele>
        <time>2021-08-31T01:38:38.874Z</time>
      </trkpt>
      <trkpt lat="42.61861" lon="2.59772">
        <ele>290.1</ele>
        <time>2021-08-31T01:38:42.318Z</time>
      </trkpt>
      <trkpt lat="42.61841" lon="2.5978">
        <ele>290.9</ele>
        <time>2021-08-31T01:38:47.544Z</time>
      </trkpt>
      <trkpt lat="42.61823" lon="2.59781">
        <ele>291.4</ele>
        <time>2021-08-31T01:38:51.470Z</time>
      </trkpt>
      <trkpt lat="42.61801" lon="2.59777">
        <ele>292.7</ele>
        <time>2021-08-31T01:38:58.153Z</time>
      </trkpt>
      <trkpt lat="42.61762" lon="2.59766">
        <ele>296.4</ele>
        <time>2021-08-31T01:39:13.899Z</time>
      </trkpt>
      <trkpt lat="42.61735" lon="2.59762">
        <ele>301.8</ele>
        <time>2021-08-31T01:39:30.926Z</time>
      </trkpt>
      <trkpt lat="42.61718" lon="2.59762">
        <ele>306.5</ele>
        <time>2021-08-31T01:39:41.584Z</time>
      </trkpt>
      <trkpt lat="42.61705" lon="2.59763">
        <ele>309.8</ele>
        <time>2021-08-31T01:39:49.747Z</time>
      </trkpt>
      <trkpt lat="42.61686" lon="2.59769">
        <ele>313.4</ele>
        <time>2021-08-31T01:40:01.977Z</time>
      </trkpt>
      <trkpt lat="42.61672" lon="2.59782">
        <ele>312.8</ele>
        <time>2021-08-31T01:40:03.692Z</time>
      </trkpt>
      <trkpt lat="42.61663" lon="2.598">
        <ele>310.5</ele>
        <time>2021-08-31T01:40:05.041Z</time>
      </trkpt>
      <trkpt lat="42.61658" lon="2.59825">
        <ele>306.7</ele>
        <time>2021-08-31T01:40:06.647Z</time>
      </trkpt>
      <trkpt lat="42.61659" lon="2.5985">
        <ele>303.8</ele>
        <time>2021-08-31T01:40:08.200Z</time>
      </trkpt>
      <trkpt lat="42.61668" lon="2.59879">
        <ele>299.2</ele>
        <time>2021-08-31T01:40:10.151Z</time>
      </trkpt>
      <trkpt lat="42.61684" lon="2.59922">
        <ele>299.4</ele>
        <time>2021-08-31T01:40:16.228Z</time>
      </trkpt>
      <trkpt lat="42.6169" lon="2.59932">
        <ele>298</ele>
        <time>2021-08-31T01:40:17.028Z</time>
      </trkpt>
      <trkpt lat="42.61707" lon="2.59949">
        <ele>294.9</ele>
        <time>2021-08-31T01:40:18.806Z</time>
      </trkpt>
      <trkpt lat="42.61734" lon="2.59967">
        <ele>290.9</ele>
        <time>2021-08-31T01:40:21.340Z</time>
      </trkpt>
      <trkpt lat="42.61739" lon="2.59976">
        <ele>290</ele>
        <time>2021-08-31T01:40:22.039Z</time>
      </trkpt>
      <trkpt lat="42.61739" lon="2.59981">
        <ele>289.8</ele>
        <time>2021-08-31T01:40:22.352Z</time>
      </trkpt>
      <trkpt lat="42.61733" lon="2.59992">
        <ele>290</ele>
        <time>2021-08-31T01:40:24.354Z</time>
      </trkpt>
      <trkpt lat="42.61724" lon="2.59997">
        <ele>290.6</ele>
        <time>2021-08-31T01:40:27.347Z</time>
      </trkpt>
      <trkpt lat="42.61719" lon="2.59998">
        <ele>291.1</ele>
        <time>2021-08-31T01:40:29.461Z</time>
      </trkpt>
      <trkpt lat="42.61712" lon="2.59998">
        <ele>291.8</ele>
        <time>2021-08-31T01:40:32.420Z</time>
      </trkpt>
      <trkpt lat="42.61683" lon="2.5999">
        <ele>295.2</ele>
        <time>2021-08-31T01:40:47.052Z</time>
      </trkpt>
      <trkpt lat="42.61674" lon="2.59991">
        <ele>295.9</ele>
        <time>2021-08-31T01:40:50.183Z</time>
      </trkpt>
      <trkpt lat="42.61661" lon="2.60001">
        <ele>299.9</ele>
        <time>2021-08-31T01:40:59.548Z</time>
      </trkpt>
      <trkpt lat="42.61656" lon="2.60009">
        <ele>303.3</ele>
        <time>2021-08-31T01:41:04.391Z</time>
      </trkpt>
      <trkpt lat="42.61648" lon="2.60031">
        <ele>307.1</ele>
        <time>2021-08-31T01:41:15.712Z</time>
      </trkpt>
      <trkpt lat="42.61642" lon="2.60067">
        <ele>308.6</ele>
        <time>2021-08-31T01:41:23.706Z</time>
      </trkpt>
      <trkpt lat="42.61643" lon="2.60096">
        <ele>306.3</ele>
        <time>2021-08-31T01:41:25.506Z</time>
      </trkpt>
      <trkpt lat="42.6165" lon="2.60171">
        <ele>301.5</ele>
        <time>2021-08-31T01:41:30.192Z</time>
      </trkpt>
      <trkpt lat="42.6165" lon="2.60189">
        <ele>301.2</ele>
        <time>2021-08-31T01:41:31.727Z</time>
      </trkpt>
      <trkpt lat="42.61647" lon="2.60207">
        <ele>301.5</ele>
        <time>2021-08-31T01:41:34.494Z</time>
      </trkpt>
      <trkpt lat="42.6164" lon="2.60223">
        <ele>301.9</ele>
        <time>2021-08-31T01:41:37.534Z</time>
      </trkpt>
      <trkpt lat="42.61633" lon="2.60232">
        <ele>302</ele>
        <time>2021-08-31T01:41:39.264Z</time>
      </trkpt>
      <trkpt lat="42.6162" lon="2.6024">
        <ele>302.2</ele>
        <time>2021-08-31T01:41:41.926Z</time>
      </trkpt>
      <trkpt lat="42.61613" lon="2.60242">
        <ele>302.3</ele>
        <time>2021-08-31T01:41:43.259Z</time>
      </trkpt>
      <trkpt lat="42.61592" lon="2.60243">
        <ele>303.1</ele>
        <time>2021-08-31T01:41:48.503Z</time>
      </trkpt>
      <trkpt lat="42.61557" lon="2.60238">
        <ele>306.5</ele>
        <time>2021-08-31T01:42:02.903Z</time>
      </trkpt>
      <trkpt lat="42.61504" lon="2.60222">
        <ele>313.2</ele>
        <time>2021-08-31T01:42:32.632Z</time>
      </trkpt>
      <trkpt lat="42.61467" lon="2.60219">
        <ele>313.5</ele>
        <time>2021-08-31T01:42:39.139Z</time>
      </trkpt>
      <trkpt lat="42.61437" lon="2.60224">
        <ele>312.3</ele>
        <time>2021-08-31T01:42:42.071Z</time>
      </trkpt>
      <trkpt lat="42.614" lon="2.60232">
        <ele>309.5</ele>
        <time>2021-08-31T01:42:45.227Z</time>
      </trkpt>
      <trkpt lat="42.61376" lon="2.60233">
        <ele>307.5</ele>
        <time>2021-08-31T01:42:47.250Z</time>
      </trkpt>
      <trkpt lat="42.61344" lon="2.60227">
        <ele>305.8</ele>
        <time>2021-08-31T01:42:50.040Z</time>
      </trkpt>
      <trkpt lat="42.61333" lon="2.60227">
        <ele>305</ele>
        <time>2021-08-31T01:42:50.967Z</time>
      </trkpt>
      <trkpt lat="42.61304" lon="2.60235">
        <ele>303.5</ele>
        <time>2021-08-31T01:42:53.565Z</time>
      </trkpt>
      <trkpt lat="42.61289" lon="2.60232">
        <ele>303.7</ele>
        <time>2021-08-31T01:42:56.368Z</time>
      </trkpt>
      <trkpt lat="42.61273" lon="2.60222">
        <ele>305.3</ele>
        <time>2021-08-31T01:43:03.203Z</time>
      </trkpt>
      <trkpt lat="42.61244" lon="2.60197">
        <ele>309.6</ele>
        <time>2021-08-31T01:43:22.445Z</time>
      </trkpt>
      <trkpt lat="42.6121" lon="2.60161">
        <ele>316.2</ele>
        <time>2021-08-31T01:43:49.469Z</time>
      </trkpt>
      <trkpt lat="42.61199" lon="2.60153">
        <ele>319.2</ele>
        <time>2021-08-31T01:43:57.291Z</time>
      </trkpt>
      <trkpt lat="42.61193" lon="2.60151">
        <ele>320</ele>
        <time>2021-08-31T01:44:00.955Z</time>
      </trkpt>
      <trkpt lat="42.61187" lon="2.60151">
        <ele>320.1</ele>
        <time>2021-08-31T01:44:02.106Z</time>
      </trkpt>
      <trkpt lat="42.61171" lon="2.60155">
        <ele>318.6</ele>
        <time>2021-08-31T01:44:03.477Z</time>
      </trkpt>
      <trkpt lat="42.61156" lon="2.60163">
        <ele>319.9</ele>
        <time>2021-08-31T01:44:09.209Z</time>
      </trkpt>
      <trkpt lat="42.6115" lon="2.60167">
        <ele>320.4</ele>
        <time>2021-08-31T01:44:11.477Z</time>
      </trkpt>
      <trkpt lat="42.61136" lon="2.60182">
        <ele>323.9</ele>
        <time>2021-08-31T01:44:22.654Z</time>
      </trkpt>
      <trkpt lat="42.61127" lon="2.60199">
        <ele>325.2</ele>
        <time>2021-08-31T01:44:28.307Z</time>
      </trkpt>
      <trkpt lat="42.61124" lon="2.6021">
        <ele>324.9</ele>
        <time>2021-08-31T01:44:29.186Z</time>
      </trkpt>
      <trkpt lat="42.6112" lon="2.60233">
        <ele>322.6</ele>
        <time>2021-08-31T01:44:30.651Z</time>
      </trkpt>
      <trkpt lat="42.6112" lon="2.60246">
        <ele>320.7</ele>
        <time>2021-08-31T01:44:31.457Z</time>
      </trkpt>
      <trkpt lat="42.61123" lon="2.60268">
        <ele>319.9</ele>
        <time>2021-08-31T01:44:32.930Z</time>
      </trkpt>
      <trkpt lat="42.61127" lon="2.60281">
        <ele>319.1</ele>
        <time>2021-08-31T01:44:33.803Z</time>
      </trkpt>
      <trkpt lat="42.61163" lon="2.60347">
        <ele>313.2</ele>
        <time>2021-08-31T01:44:38.897Z</time>
      </trkpt>
      <trkpt lat="42.61168" lon="2.60359">
        <ele>312.8</ele>
        <time>2021-08-31T01:44:39.884Z</time>
      </trkpt>
      <trkpt lat="42.61172" lon="2.60386">
        <ele>313.4</ele>
        <time>2021-08-31T01:44:44.404Z</time>
      </trkpt>
      <trkpt lat="42.61173" lon="2.60404">
        <ele>313.9</ele>
        <time>2021-08-31T01:44:47.700Z</time>
      </trkpt>
      <trkpt lat="42.61172" lon="2.60414">
        <ele>314.3</ele>
        <time>2021-08-31T01:44:49.865Z</time>
      </trkpt>
      <trkpt lat="42.61167" lon="2.60428">
        <ele>314.4</ele>
        <time>2021-08-31T01:44:51.888Z</time>
      </trkpt>
      <trkpt lat="42.6116" lon="2.60433">
        <ele>314.2</ele>
        <time>2021-08-31T01:44:52.778Z</time>
      </trkpt>
      <trkpt lat="42.61151" lon="2.60436">
        <ele>314.2</ele>
        <time>2021-08-31T01:44:54.284Z</time>
      </trkpt>
      <trkpt lat="42.61138" lon="2.60432">
        <ele>314.9</ele>
        <time>2021-08-31T01:44:58.136Z</time>
      </trkpt>
      <trkpt lat="42.61124" lon="2.60424">
        <ele>315.9</ele>
        <time>2021-08-31T01:45:02.952Z</time>
      </trkpt>
      <trkpt lat="42.61109" lon="2.60414">
        <ele>317.4</ele>
        <time>2021-08-31T01:45:09.375Z</time>
      </trkpt>
      <trkpt lat="42.61074" lon="2.60384">
        <ele>323.5</ele>
        <time>2021-08-31T01:45:35.318Z</time>
      </trkpt>
      <trkpt lat="42.61053" lon="2.6037">
        <ele>327</ele>
        <time>2021-08-31T01:45:49.983Z</time>
      </trkpt>
      <trkpt lat="42.61032" lon="2.60362">
        <ele>329.6</ele>
        <time>2021-08-31T01:46:01.325Z</time>
      </trkpt>
      <trkpt lat="42.61021" lon="2.60362">
        <ele>330.2</ele>
        <time>2021-08-31T01:46:04.548Z</time>
      </trkpt>
      <trkpt lat="42.6101" lon="2.60364">
        <ele>330.4</ele>
        <time>2021-08-31T01:46:06.708Z</time>
      </trkpt>
      <trkpt lat="42.60983" lon="2.60373">
        <ele>332</ele>
        <time>2021-08-31T01:46:15.021Z</time>
      </trkpt>
      <trkpt lat="42.60954" lon="2.60387">
        <ele>333.3</ele>
        <time>2021-08-31T01:46:23.180Z</time>
      </trkpt>
      <trkpt lat="42.60933" lon="2.60403">
        <ele>332</ele>
        <time>2021-08-31T01:46:25.236Z</time>
      </trkpt>
      <trkpt lat="42.60922" lon="2.60418">
        <ele>329.3</ele>
        <time>2021-08-31T01:46:26.548Z</time>
      </trkpt>
      <trkpt lat="42.60886" lon="2.60487">
        <ele>331.9</ele>
        <time>2021-08-31T01:46:42.936Z</time>
      </trkpt>
      <trkpt lat="42.60844" lon="2.60532">
        <ele>335.6</ele>
        <time>2021-08-31T01:47:00.322Z</time>
      </trkpt>
      <trkpt lat="42.60836" lon="2.60548">
        <ele>335.3</ele>
        <time>2021-08-31T01:47:02.001Z</time>
      </trkpt>
      <trkpt lat="42.60833" lon="2.60558">
        <ele>334.8</ele>
        <time>2021-08-31T01:47:02.632Z</time>
      </trkpt>
      <trkpt lat="42.60831" lon="2.60576">
        <ele>333.4</ele>
        <time>2021-08-31T01:47:03.761Z</time>
      </trkpt>
      <trkpt lat="42.60831" lon="2.60588">
        <ele>332.2</ele>
        <time>2021-08-31T01:47:04.505Z</time>
      </trkpt>
      <trkpt lat="42.60836" lon="2.60629">
        <ele>328.2</ele>
        <time>2021-08-31T01:47:07.082Z</time>
      </trkpt>
      <trkpt lat="42.60836" lon="2.60638">
        <ele>327.6</ele>
        <time>2021-08-31T01:47:07.640Z</time>
      </trkpt>
      <trkpt lat="42.60833" lon="2.60647">
        <ele>327.5</ele>
        <time>2021-08-31T01:47:08.577Z</time>
      </trkpt>
      <trkpt lat="42.60826" lon="2.60655">
        <ele>327.6</ele>
        <time>2021-08-31T01:47:10.229Z</time>
      </trkpt>
      <trkpt lat="42.60819" lon="2.60659">
        <ele>328.1</ele>
        <time>2021-08-31T01:47:12.637Z</time>
      </trkpt>
      <trkpt lat="42.60785" lon="2.60671">
        <ele>330.7</ele>
        <time>2021-08-31T01:47:24.485Z</time>
      </trkpt>
      <trkpt lat="42.60773" lon="2.60668">
        <ele>331.8</ele>
        <time>2021-08-31T01:47:29.191Z</time>
      </trkpt>
      <trkpt lat="42.60768" lon="2.60665">
        <ele>332.6</ele>
        <time>2021-08-31T01:47:32.618Z</time>
      </trkpt>
      <trkpt lat="42.60749" lon="2.60658">
        <ele>335.8</ele>
        <time>2021-08-31T01:47:44.960Z</time>
      </trkpt>
      <trkpt lat="42.60743" lon="2.60659">
        <ele>336.9</ele>
        <time>2021-08-31T01:47:48.750Z</time>
      </trkpt>
      <trkpt lat="42.60736" lon="2.60668">
        <ele>337.2</ele>
        <time>2021-08-31T01:47:50.941Z</time>
      </trkpt>
      <trkpt lat="42.60733" lon="2.6068">
        <ele>338.8</ele>
        <time>2021-08-31T01:47:56.789Z</time>
      </trkpt>
      <trkpt lat="42.60733" lon="2.60689">
        <ele>339.5</ele>
        <time>2021-08-31T01:47:59.752Z</time>
      </trkpt>
      <trkpt lat="42.60736" lon="2.60699">
        <ele>339.3</ele>
        <time>2021-08-31T01:48:00.647Z</time>
      </trkpt>
      <trkpt lat="42.60744" lon="2.6071">
        <ele>337.8</ele>
        <time>2021-08-31T01:48:01.606Z</time>
      </trkpt>
      <trkpt lat="42.60776" lon="2.60737">
        <ele>332.5</ele>
        <time>2021-08-31T01:48:04.780Z</time>
      </trkpt>
      <trkpt lat="42.60781" lon="2.60743">
        <ele>331.6</ele>
        <time>2021-08-31T01:48:05.342Z</time>
      </trkpt>
      <trkpt lat="42.60788" lon="2.60756">
        <ele>330.3</ele>
        <time>2021-08-31T01:48:06.340Z</time>
      </trkpt>
      <trkpt lat="42.6079" lon="2.60764">
        <ele>329.8</ele>
        <time>2021-08-31T01:48:06.864Z</time>
      </trkpt>
      <trkpt lat="42.6079" lon="2.60773">
        <ele>329.7</ele>
        <time>2021-08-31T01:48:07.704Z</time>
      </trkpt>
      <trkpt lat="42.60785" lon="2.60793">
        <ele>330.8</ele>
        <time>2021-08-31T01:48:12.817Z</time>
      </trkpt>
      <trkpt lat="42.60726" lon="2.60863">
        <ele>339.8</ele>
        <time>2021-08-31T01:48:51.549Z</time>
      </trkpt>
      <trkpt lat="42.60687" lon="2.60894">
        <ele>343</ele>
        <time>2021-08-31T01:49:06.420Z</time>
      </trkpt>
      <trkpt lat="42.60667" lon="2.60908">
        <ele>344.9</ele>
        <time>2021-08-31T01:49:14.678Z</time>
      </trkpt>
      <trkpt lat="42.60652" lon="2.60911">
        <ele>347.1</ele>
        <time>2021-08-31T01:49:24.183Z</time>
      </trkpt>
      <trkpt lat="42.6064" lon="2.6091">
        <ele>349.6</ele>
        <time>2021-08-31T01:49:31.721Z</time>
      </trkpt>
      <trkpt lat="42.6061" lon="2.60904">
        <ele>356.7</ele>
        <time>2021-08-31T01:49:50.731Z</time>
      </trkpt>
      <trkpt lat="42.60596" lon="2.60907">
        <ele>358.7</ele>
        <time>2021-08-31T01:49:59.617Z</time>
      </trkpt>
      <trkpt lat="42.60586" lon="2.60915">
        <ele>358.9</ele>
        <time>2021-08-31T01:50:01.857Z</time>
      </trkpt>
      <trkpt lat="42.6058" lon="2.60929">
        <ele>360.2</ele>
        <time>2021-08-31T01:50:07.383Z</time>
      </trkpt>
      <trkpt lat="42.60581" lon="2.60941">
        <ele>360.3</ele>
        <time>2021-08-31T01:50:08.994Z</time>
      </trkpt>
      <trkpt lat="42.60587" lon="2.60955">
        <ele>358.9</ele>
        <time>2021-08-31T01:50:09.998Z</time>
      </trkpt>
      <trkpt lat="42.60617" lon="2.61002">
        <ele>349.2</ele>
        <time>2021-08-31T01:50:13.856Z</time>
      </trkpt>
      <trkpt lat="42.6062" lon="2.61013">
        <ele>347.6</ele>
        <time>2021-08-31T01:50:14.583Z</time>
      </trkpt>
      <trkpt lat="42.60621" lon="2.6102">
        <ele>347</ele>
        <time>2021-08-31T01:50:15.025Z</time>
      </trkpt>
      <trkpt lat="42.6062" lon="2.61037">
        <ele>346.7</ele>
        <time>2021-08-31T01:50:16.459Z</time>
      </trkpt>
      <trkpt lat="42.60613" lon="2.61059">
        <ele>349</ele>
        <time>2021-08-31T01:50:27.051Z</time>
      </trkpt>
      <trkpt lat="42.60603" lon="2.61079">
        <ele>352.5</ele>
        <time>2021-08-31T01:50:38.208Z</time>
      </trkpt>
      <trkpt lat="42.60593" lon="2.61095">
        <ele>355.6</ele>
        <time>2021-08-31T01:50:47.893Z</time>
      </trkpt>
      <trkpt lat="42.60579" lon="2.61106">
        <ele>358.5</ele>
        <time>2021-08-31T01:50:58.032Z</time>
      </trkpt>
      <trkpt lat="42.60526" lon="2.61122">
        <ele>362.6</ele>
        <time>2021-08-31T01:51:16.561Z</time>
      </trkpt>
      <trkpt lat="42.6049" lon="2.61141">
        <ele>364.1</ele>
        <time>2021-08-31T01:51:26.304Z</time>
      </trkpt>
      <trkpt lat="42.60474" lon="2.61146">
        <ele>367.1</ele>
        <time>2021-08-31T01:51:36.597Z</time>
      </trkpt>
      <trkpt lat="42.60457" lon="2.6115">
        <ele>371.2</ele>
        <time>2021-08-31T01:51:47.414Z</time>
      </trkpt>
      <trkpt lat="42.60449" lon="2.61156">
        <ele>372.2</ele>
        <time>2021-08-31T01:51:51.667Z</time>
      </trkpt>
      <trkpt lat="42.6044" lon="2.61177">
        <ele>370.2</ele>
        <time>2021-08-31T01:51:53.174Z</time>
      </trkpt>
      <trkpt lat="42.60422" lon="2.61201">
        <ele>371.2</ele>
        <time>2021-08-31T01:51:59.611Z</time>
      </trkpt>
      <trkpt lat="42.60417" lon="2.61211">
        <ele>371.1</ele>
        <time>2021-08-31T01:52:00.796Z</time>
      </trkpt>
      <trkpt lat="42.60403" lon="2.61302">
        <ele>357.3</ele>
        <time>2021-08-31T01:52:06.560Z</time>
      </trkpt>
      <trkpt lat="42.604" lon="2.61311">
        <ele>355.9</ele>
        <time>2021-08-31T01:52:07.173Z</time>
      </trkpt>
      <trkpt lat="42.60397" lon="2.61317">
        <ele>354.6</ele>
        <time>2021-08-31T01:52:07.623Z</time>
      </trkpt>
      <trkpt lat="42.60393" lon="2.61321">
        <ele>353.7</ele>
        <time>2021-08-31T01:52:08.041Z</time>
      </trkpt>
      <trkpt lat="42.60382" lon="2.61322">
        <ele>353</ele>
        <time>2021-08-31T01:52:08.913Z</time>
      </trkpt>
      <trkpt lat="42.60377" lon="2.6132">
        <ele>353.3</ele>
        <time>2021-08-31T01:52:10.472Z</time>
      </trkpt>
      <trkpt lat="42.60373" lon="2.61316">
        <ele>354.3</ele>
        <time>2021-08-31T01:52:13.585Z</time>
      </trkpt>
      <trkpt lat="42.60354" lon="2.61285">
        <ele>363.2</ele>
        <time>2021-08-31T01:52:32.201Z</time>
      </trkpt>
      <trkpt lat="42.60301" lon="2.61223">
        <ele>374.6</ele>
        <time>2021-08-31T01:53:16.049Z</time>
      </trkpt>
      <trkpt lat="42.60284" lon="2.61195">
        <ele>377.6</ele>
        <time>2021-08-31T01:53:28.878Z</time>
      </trkpt>
      <trkpt lat="42.60265" lon="2.61173">
        <ele>379</ele>
        <time>2021-08-31T01:53:36.267Z</time>
      </trkpt>
      <trkpt lat="42.60257" lon="2.61166">
        <ele>379.1</ele>
        <time>2021-08-31T01:53:37.978Z</time>
      </trkpt>
      <trkpt lat="42.6024" lon="2.61158">
        <ele>379.9</ele>
        <time>2021-08-31T01:53:42.912Z</time>
      </trkpt>
      <trkpt lat="42.60225" lon="2.61154">
        <ele>380.6</ele>
        <time>2021-08-31T01:53:47.140Z</time>
      </trkpt>
      <trkpt lat="42.60213" lon="2.61145">
        <ele>383.5</ele>
        <time>2021-08-31T01:53:55.734Z</time>
      </trkpt>
      <trkpt lat="42.60204" lon="2.61137">
        <ele>386.7</ele>
        <time>2021-08-31T01:54:02.476Z</time>
      </trkpt>
      <trkpt lat="42.6016" lon="2.61121">
        <ele>393.1</ele>
        <time>2021-08-31T01:54:31.033Z</time>
      </trkpt>
      <trkpt lat="42.60144" lon="2.61118">
        <ele>399.2</ele>
        <time>2021-08-31T01:54:41.159Z</time>
      </trkpt>
      <trkpt lat="42.60139" lon="2.61121">
        <ele>400</ele>
        <time>2021-08-31T01:54:44.586Z</time>
      </trkpt>
      <trkpt lat="42.60133" lon="2.61135">
        <ele>396.3</ele>
        <time>2021-08-31T01:54:45.590Z</time>
      </trkpt>
      <trkpt lat="42.60126" lon="2.61164">
        <ele>387.9</ele>
        <time>2021-08-31T01:54:47.483Z</time>
      </trkpt>
      <trkpt lat="42.60111" lon="2.61201">
        <ele>383.8</ele>
        <time>2021-08-31T01:54:50.102Z</time>
      </trkpt>
      <trkpt lat="42.60093" lon="2.6127">
        <ele>376.3</ele>
        <time>2021-08-31T01:54:54.642Z</time>
      </trkpt>
      <trkpt lat="42.60082" lon="2.613">
        <ele>375</ele>
        <time>2021-08-31T01:54:56.771Z</time>
      </trkpt>
      <trkpt lat="42.60074" lon="2.61333">
        <ele>371</ele>
        <time>2021-08-31T01:54:58.926Z</time>
      </trkpt>
      <trkpt lat="42.6007" lon="2.61373">
        <ele>367.3</ele>
        <time>2021-08-31T01:55:01.429Z</time>
      </trkpt>
      <trkpt lat="42.60068" lon="2.61383">
        <ele>366.6</ele>
        <time>2021-08-31T01:55:02.072Z</time>
      </trkpt>
      <trkpt lat="42.60064" lon="2.61394">
        <ele>366.4</ele>
        <time>2021-08-31T01:55:03.124Z</time>
      </trkpt>
      <trkpt lat="42.60054" lon="2.61411">
        <ele>366.9</ele>
        <time>2021-08-31T01:55:06.770Z</time>
      </trkpt>
      <trkpt lat="42.60044" lon="2.61424">
        <ele>367.5</ele>
        <time>2021-08-31T01:55:10.501Z</time>
      </trkpt>
      <trkpt lat="42.60015" lon="2.61461">
        <ele>367.3</ele>
        <time>2021-08-31T01:55:16.505Z</time>
      </trkpt>
      <trkpt lat="42.60001" lon="2.61475">
        <ele>366.9</ele>
        <time>2021-08-31T01:55:18.510Z</time>
      </trkpt>
      <trkpt lat="42.59987" lon="2.61481">
        <ele>364.9</ele>
        <time>2021-08-31T01:55:19.747Z</time>
      </trkpt>
      <trkpt lat="42.59978" lon="2.61482">
        <ele>364.1</ele>
        <time>2021-08-31T01:55:20.508Z</time>
      </trkpt>
      <trkpt lat="42.59967" lon="2.61481">
        <ele>363.8</ele>
        <time>2021-08-31T01:55:21.722Z</time>
      </trkpt>
      <trkpt lat="42.59954" lon="2.61475">
        <ele>364.4</ele>
        <time>2021-08-31T01:55:25.443Z</time>
      </trkpt>
      <trkpt lat="42.59947" lon="2.61467">
        <ele>365.5</ele>
        <time>2021-08-31T01:55:30.260Z</time>
      </trkpt>
      <trkpt lat="42.59938" lon="2.61448">
        <ele>368.5</ele>
        <time>2021-08-31T01:55:40.687Z</time>
      </trkpt>
      <trkpt lat="42.59932" lon="2.61424">
        <ele>372.3</ele>
        <time>2021-08-31T01:55:52.384Z</time>
      </trkpt>
      <trkpt lat="42.59926" lon="2.61395">
        <ele>375.3</ele>
        <time>2021-08-31T01:56:06.286Z</time>
      </trkpt>
      <trkpt lat="42.59922" lon="2.61343">
        <ele>380</ele>
        <time>2021-08-31T01:56:27.023Z</time>
      </trkpt>
      <trkpt lat="42.5992" lon="2.61336">
        <ele>380.3</ele>
        <time>2021-08-31T01:56:28.640Z</time>
      </trkpt>
      <trkpt lat="42.59913" lon="2.61328">
        <ele>381.6</ele>
        <time>2021-08-31T01:56:34.374Z</time>
      </trkpt>
      <trkpt lat="42.59909" lon="2.61326">
        <ele>382.3</ele>
        <time>2021-08-31T01:56:37.047Z</time>
      </trkpt>
      <trkpt lat="42.59896" lon="2.61326">
        <ele>383.3</ele>
        <time>2021-08-31T01:56:41.533Z</time>
      </trkpt>
      <trkpt lat="42.59888" lon="2.61337">
        <ele>382.5</ele>
        <time>2021-08-31T01:56:42.492Z</time>
      </trkpt>
      <trkpt lat="42.59874" lon="2.61397">
        <ele>380.4</ele>
        <time>2021-08-31T01:56:46.758Z</time>
      </trkpt>
      <trkpt lat="42.5987" lon="2.61431">
        <ele>377.5</ele>
        <time>2021-08-31T01:56:48.893Z</time>
      </trkpt>
      <trkpt lat="42.59872" lon="2.61464">
        <ele>372</ele>
        <time>2021-08-31T01:56:50.946Z</time>
      </trkpt>
      <trkpt lat="42.59869" lon="2.61475">
        <ele>370.6</ele>
        <time>2021-08-31T01:56:51.674Z</time>
      </trkpt>
      <trkpt lat="42.59864" lon="2.61486">
        <ele>369.7</ele>
        <time>2021-08-31T01:56:52.475Z</time>
      </trkpt>
      <trkpt lat="42.59852" lon="2.61496">
        <ele>370.2</ele>
        <time>2021-08-31T01:56:55.867Z</time>
      </trkpt>
      <trkpt lat="42.59844" lon="2.615">
        <ele>371.1</ele>
        <time>2021-08-31T01:56:59.677Z</time>
      </trkpt>
      <trkpt lat="42.59788" lon="2.61518">
        <ele>377.8</ele>
        <time>2021-08-31T01:57:28.637Z</time>
      </trkpt>
      <trkpt lat="42.59714" lon="2.61573">
        <ele>374</ele>
        <time>2021-08-31T01:57:36.423Z</time>
      </trkpt>
      <trkpt lat="42.59703" lon="2.61579">
        <ele>373.5</ele>
        <time>2021-08-31T01:57:37.546Z</time>
      </trkpt>
      <trkpt lat="42.59698" lon="2.6158">
        <ele>373.8</ele>
        <time>2021-08-31T01:57:39.076Z</time>
      </trkpt>
      <trkpt lat="42.59686" lon="2.61577">
        <ele>376.2</ele>
        <time>2021-08-31T01:57:46.726Z</time>
      </trkpt>
      <trkpt lat="42.59649" lon="2.61559">
        <ele>385.5</ele>
        <time>2021-08-31T01:58:11.365Z</time>
      </trkpt>
      <trkpt lat="42.59619" lon="2.6155">
        <ele>391</ele>
        <time>2021-08-31T01:58:30.626Z</time>
      </trkpt>
      <trkpt lat="42.59602" lon="2.61552">
        <ele>391.4</ele>
        <time>2021-08-31T01:58:34.158Z</time>
      </trkpt>
      <trkpt lat="42.59593" lon="2.61556">
        <ele>390.5</ele>
        <time>2021-08-31T01:58:34.956Z</time>
      </trkpt>
      <trkpt lat="42.59566" lon="2.61573">
        <ele>387.3</ele>
        <time>2021-08-31T01:58:37.463Z</time>
      </trkpt>
      <trkpt lat="42.59549" lon="2.61587">
        <ele>386</ele>
        <time>2021-08-31T01:58:39.012Z</time>
      </trkpt>
      <trkpt lat="42.59523" lon="2.61617">
        <ele>385</ele>
        <time>2021-08-31T01:58:42.685Z</time>
      </trkpt>
      <trkpt lat="42.59502" lon="2.61651">
        <ele>383.9</ele>
        <time>2021-08-31T01:58:46.047Z</time>
      </trkpt>
      <trkpt lat="42.59495" lon="2.61654">
        <ele>383.4</ele>
        <time>2021-08-31T01:58:46.666Z</time>
      </trkpt>
      <trkpt lat="42.59486" lon="2.61648">
        <ele>383.3</ele>
        <time>2021-08-31T01:58:48.022Z</time>
      </trkpt>
      <trkpt lat="42.5947" lon="2.61625">
        <ele>385.5</ele>
        <time>2021-08-31T01:58:57.363Z</time>
      </trkpt>
      <trkpt lat="42.59435" lon="2.61591">
        <ele>388.2</ele>
        <time>2021-08-31T01:59:10.707Z</time>
      </trkpt>
      <trkpt lat="42.59423" lon="2.61571">
        <ele>391.4</ele>
        <time>2021-08-31T01:59:22.615Z</time>
      </trkpt>
      <trkpt lat="42.59414" lon="2.61549">
        <ele>396</ele>
        <time>2021-08-31T01:59:34.231Z</time>
      </trkpt>
      <trkpt lat="42.59399" lon="2.6154">
        <ele>395.6</ele>
        <time>2021-08-31T01:59:36.093Z</time>
      </trkpt>
      <trkpt lat="42.59388" lon="2.61541">
        <ele>393.4</ele>
        <time>2021-08-31T01:59:37.022Z</time>
      </trkpt>
      <trkpt lat="42.59377" lon="2.61547">
        <ele>390.3</ele>
        <time>2021-08-31T01:59:38.020Z</time>
      </trkpt>
      <trkpt lat="42.59362" lon="2.61545">
        <ele>388.1</ele>
        <time>2021-08-31T01:59:39.290Z</time>
      </trkpt>
      <trkpt lat="42.59357" lon="2.61541">
        <ele>388.4</ele>
        <time>2021-08-31T01:59:40.958Z</time>
      </trkpt>
      <trkpt lat="42.59337" lon="2.61508">
        <ele>394.4</ele>
        <time>2021-08-31T02:00:00.686Z</time>
      </trkpt>
      <trkpt lat="42.59324" lon="2.61493">
        <ele>396.8</ele>
        <time>2021-08-31T02:00:11.379Z</time>
      </trkpt>
      <trkpt lat="42.5927" lon="2.61452">
        <ele>395.9</ele>
        <time>2021-08-31T02:00:19.272Z</time>
      </trkpt>
      <trkpt lat="42.59257" lon="2.61439">
        <ele>395.3</ele>
        <time>2021-08-31T02:00:20.876Z</time>
      </trkpt>
      <trkpt lat="42.59242" lon="2.61415">
        <ele>396.8</ele>
        <time>2021-08-31T02:00:28.166Z</time>
      </trkpt>
      <trkpt lat="42.59216" lon="2.61343">
        <ele>403.8</ele>
        <time>2021-08-31T02:00:58.633Z</time>
      </trkpt>
      <trkpt lat="42.59207" lon="2.61326">
        <ele>404.7</ele>
        <time>2021-08-31T02:01:03.269Z</time>
      </trkpt>
      <trkpt lat="42.59195" lon="2.61307">
        <ele>406</ele>
        <time>2021-08-31T02:01:09.321Z</time>
      </trkpt>
      <trkpt lat="42.59142" lon="2.61244">
        <ele>409.6</ele>
        <time>2021-08-31T02:01:29.485Z</time>
      </trkpt>
      <trkpt lat="42.59134" lon="2.61239">
        <ele>409.5</ele>
        <time>2021-08-31T02:01:30.655Z</time>
      </trkpt>
      <trkpt lat="42.59124" lon="2.61238">
        <ele>406.5</ele>
        <time>2021-08-31T02:01:31.500Z</time>
      </trkpt>
      <trkpt lat="42.59113" lon="2.61233">
        <ele>404.9</ele>
        <time>2021-08-31T02:01:32.477Z</time>
      </trkpt>
      <trkpt lat="42.59097" lon="2.61224">
        <ele>403.8</ele>
        <time>2021-08-31T02:01:33.846Z</time>
      </trkpt>
      <trkpt lat="42.59067" lon="2.61219">
        <ele>401.1</ele>
        <time>2021-08-31T02:01:36.393Z</time>
      </trkpt>
      <trkpt lat="42.59055" lon="2.61215">
        <ele>402.4</ele>
        <time>2021-08-31T02:01:41.895Z</time>
      </trkpt>
      <trkpt lat="42.5905" lon="2.61212">
        <ele>403.4</ele>
        <time>2021-08-31T02:01:45.322Z</time>
      </trkpt>
      <trkpt lat="42.59031" lon="2.61195">
        <ele>407.8</ele>
        <time>2021-08-31T02:01:59.585Z</time>
      </trkpt>
      <trkpt lat="42.59025" lon="2.61194">
        <ele>407.6</ele>
        <time>2021-08-31T02:02:00.211Z</time>
      </trkpt>
      <trkpt lat="42.59018" lon="2.61195">
        <ele>406.7</ele>
        <time>2021-08-31T02:02:00.804Z</time>
      </trkpt>
      <trkpt lat="42.5901" lon="2.61199">
        <ele>405.1</ele>
        <time>2021-08-31T02:02:01.522Z</time>
      </trkpt>
      <trkpt lat="42.58999" lon="2.61209">
        <ele>402.7</ele>
        <time>2021-08-31T02:02:02.637Z</time>
      </trkpt>
      <trkpt lat="42.58994" lon="2.6122">
        <ele>401.7</ele>
        <time>2021-08-31T02:02:03.439Z</time>
      </trkpt>
      <trkpt lat="42.58993" lon="2.61236">
        <ele>398.7</ele>
        <time>2021-08-31T02:02:04.435Z</time>
      </trkpt>
      <trkpt lat="42.58995" lon="2.61319">
        <ele>389.9</ele>
        <time>2021-08-31T02:02:09.586Z</time>
      </trkpt>
      <trkpt lat="42.58993" lon="2.61337">
        <ele>388.7</ele>
        <time>2021-08-31T02:02:10.715Z</time>
      </trkpt>
      <trkpt lat="42.58989" lon="2.61352">
        <ele>388.1</ele>
        <time>2021-08-31T02:02:11.743Z</time>
      </trkpt>
      <trkpt lat="42.58981" lon="2.61361">
        <ele>388.1</ele>
        <time>2021-08-31T02:02:13.431Z</time>
      </trkpt>
      <trkpt lat="42.58972" lon="2.61366">
        <ele>388.3</ele>
        <time>2021-08-31T02:02:15.379Z</time>
      </trkpt>
      <trkpt lat="42.58961" lon="2.61364">
        <ele>389.6</ele>
        <time>2021-08-31T02:02:21.010Z</time>
      </trkpt>
      <trkpt lat="42.58945" lon="2.61351">
        <ele>393.1</ele>
        <time>2021-08-31T02:02:32.699Z</time>
      </trkpt>
      <trkpt lat="42.58938" lon="2.61342">
        <ele>395.5</ele>
        <time>2021-08-31T02:02:38.741Z</time>
      </trkpt>
      <trkpt lat="42.58928" lon="2.61332">
        <ele>398.6</ele>
        <time>2021-08-31T02:02:46.527Z</time>
      </trkpt>
      <trkpt lat="42.58915" lon="2.61326">
        <ele>402</ele>
        <time>2021-08-31T02:02:55.134Z</time>
      </trkpt>
      <trkpt lat="42.58884" lon="2.61324">
        <ele>408.1</ele>
        <time>2021-08-31T02:03:14.591Z</time>
      </trkpt>
      <trkpt lat="42.58873" lon="2.61327">
        <ele>409.9</ele>
        <time>2021-08-31T02:03:21.625Z</time>
      </trkpt>
      <trkpt lat="42.58865" lon="2.61332">
        <ele>410.2</ele>
        <time>2021-08-31T02:03:23.706Z</time>
      </trkpt>
      <trkpt lat="42.58857" lon="2.61343">
        <ele>410</ele>
        <time>2021-08-31T02:03:25.105Z</time>
      </trkpt>
      <trkpt lat="42.58848" lon="2.61367">
        <ele>407.5</ele>
        <time>2021-08-31T02:03:26.776Z</time>
      </trkpt>
      <trkpt lat="42.58843" lon="2.61397">
        <ele>403.8</ele>
        <time>2021-08-31T02:03:28.683Z</time>
      </trkpt>
      <trkpt lat="42.58827" lon="2.61644">
        <ele>403</ele>
        <time>2021-08-31T02:03:56.488Z</time>
      </trkpt>
      <trkpt lat="42.58822" lon="2.61666">
        <ele>404</ele>
        <time>2021-08-31T02:04:01.608Z</time>
      </trkpt>
      <trkpt lat="42.58808" lon="2.61715">
        <ele>399.8</ele>
        <time>2021-08-31T02:04:04.868Z</time>
      </trkpt>
      <trkpt lat="42.588" lon="2.61732">
        <ele>398.9</ele>
        <time>2021-08-31T02:04:06.070Z</time>
      </trkpt>
      <trkpt lat="42.58789" lon="2.61748">
        <ele>398.4</ele>
        <time>2021-08-31T02:04:07.774Z</time>
      </trkpt>
      <trkpt lat="42.58774" lon="2.61761">
        <ele>399.7</ele>
        <time>2021-08-31T02:04:13.731Z</time>
      </trkpt>
      <trkpt lat="42.58762" lon="2.61765">
        <ele>401.2</ele>
        <time>2021-08-31T02:04:20.330Z</time>
      </trkpt>
      <trkpt lat="42.58715" lon="2.61769">
        <ele>407.3</ele>
        <time>2021-08-31T02:04:48.278Z</time>
      </trkpt>
      <trkpt lat="42.5869" lon="2.61779">
        <ele>407.8</ele>
        <time>2021-08-31T02:04:53.417Z</time>
      </trkpt>
      <trkpt lat="42.58623" lon="2.618">
        <ele>409</ele>
        <time>2021-08-31T02:05:06.720Z</time>
      </trkpt>
      <trkpt lat="42.5858" lon="2.61819">
        <ele>408</ele>
        <time>2021-08-31T02:05:11.989Z</time>
      </trkpt>
      <trkpt lat="42.5856" lon="2.61832">
        <ele>405.5</ele>
        <time>2021-08-31T02:05:13.857Z</time>
      </trkpt>
      <trkpt lat="42.58536" lon="2.61851">
        <ele>403.7</ele>
        <time>2021-08-31T02:05:16.031Z</time>
      </trkpt>
      <trkpt lat="42.58524" lon="2.61858">
        <ele>403.4</ele>
        <time>2021-08-31T02:05:17.539Z</time>
      </trkpt>
      <trkpt lat="42.58519" lon="2.61859">
        <ele>403.5</ele>
        <time>2021-08-31T02:05:18.542Z</time>
      </trkpt>
      <trkpt lat="42.58508" lon="2.61857">
        <ele>404.3</ele>
        <time>2021-08-31T02:05:22.230Z</time>
      </trkpt>
      <trkpt lat="42.58494" lon="2.61843">
        <ele>406.2</ele>
        <time>2021-08-31T02:05:30.309Z</time>
      </trkpt>
      <trkpt lat="42.5849" lon="2.61841">
        <ele>406.1</ele>
        <time>2021-08-31T02:05:30.798Z</time>
      </trkpt>
      <trkpt lat="42.58479" lon="2.61839">
        <ele>405.4</ele>
        <time>2021-08-31T02:05:31.679Z</time>
      </trkpt>
      <trkpt lat="42.5846" lon="2.61842">
        <ele>403.7</ele>
        <time>2021-08-31T02:05:33.290Z</time>
      </trkpt>
      <trkpt lat="42.58453" lon="2.61839">
        <ele>403.2</ele>
        <time>2021-08-31T02:05:33.909Z</time>
      </trkpt>
      <trkpt lat="42.58406" lon="2.61785">
        <ele>407.2</ele>
        <time>2021-08-31T02:05:53.309Z</time>
      </trkpt>
      <trkpt lat="42.584" lon="2.61774">
        <ele>408</ele>
        <time>2021-08-31T02:05:56.856Z</time>
      </trkpt>
      <trkpt lat="42.58397" lon="2.61765">
        <ele>408.8</ele>
        <time>2021-08-31T02:06:00.262Z</time>
      </trkpt>
      <trkpt lat="42.58396" lon="2.61722">
        <ele>415.1</ele>
        <time>2021-08-31T02:06:20.121Z</time>
      </trkpt>
      <trkpt lat="42.58394" lon="2.61705">
        <ele>417.6</ele>
        <time>2021-08-31T02:06:28.067Z</time>
      </trkpt>
      <trkpt lat="42.5839" lon="2.61694">
        <ele>419</ele>
        <time>2021-08-31T02:06:33.731Z</time>
      </trkpt>
      <trkpt lat="42.58382" lon="2.61686">
        <ele>419.2</ele>
        <time>2021-08-31T02:06:35.710Z</time>
      </trkpt>
      <trkpt lat="42.58371" lon="2.61685">
        <ele>417.7</ele>
        <time>2021-08-31T02:06:36.639Z</time>
      </trkpt>
      <trkpt lat="42.58356" lon="2.61688">
        <ele>415</ele>
        <time>2021-08-31T02:06:37.917Z</time>
      </trkpt>
      <trkpt lat="42.58349" lon="2.61687">
        <ele>414.3</ele>
        <time>2021-08-31T02:06:38.510Z</time>
      </trkpt>
      <trkpt lat="42.58333" lon="2.61681">
        <ele>413.3</ele>
        <time>2021-08-31T02:06:39.856Z</time>
      </trkpt>
      <trkpt lat="42.58317" lon="2.61677">
        <ele>414.7</ele>
        <time>2021-08-31T02:06:45.910Z</time>
      </trkpt>
      <trkpt lat="42.58301" lon="2.61677">
        <ele>415.5</ele>
        <time>2021-08-31T02:06:50.457Z</time>
      </trkpt>
      <trkpt lat="42.58286" lon="2.6168">
        <ele>415.8</ele>
        <time>2021-08-31T02:06:53.467Z</time>
      </trkpt>
      <trkpt lat="42.58195" lon="2.6171">
        <ele>417.4</ele>
        <time>2021-08-31T02:07:11.512Z</time>
      </trkpt>
      <trkpt lat="42.58171" lon="2.61719">
        <ele>417.6</ele>
        <time>2021-08-31T02:07:15.880Z</time>
      </trkpt>
      <trkpt lat="42.58152" lon="2.61717">
        <ele>417.9</ele>
        <time>2021-08-31T02:07:19.500Z</time>
      </trkpt>
      <trkpt lat="42.5814" lon="2.61718">
        <ele>417.2</ele>
        <time>2021-08-31T02:07:20.491Z</time>
      </trkpt>
      <trkpt lat="42.58114" lon="2.61733">
        <ele>413.4</ele>
        <time>2021-08-31T02:07:22.871Z</time>
      </trkpt>
      <trkpt lat="42.58107" lon="2.61735">
        <ele>412.9</ele>
        <time>2021-08-31T02:07:23.473Z</time>
      </trkpt>
      <trkpt lat="42.58096" lon="2.61734">
        <ele>412.8</ele>
        <time>2021-08-31T02:07:24.983Z</time>
      </trkpt>
      <trkpt lat="42.58091" lon="2.61732">
        <ele>413</ele>
        <time>2021-08-31T02:07:26.290Z</time>
      </trkpt>
      <trkpt lat="42.58068" lon="2.61719">
        <ele>413.4</ele>
        <time>2021-08-31T02:07:31.037Z</time>
      </trkpt>
      <trkpt lat="42.58063" lon="2.61715">
        <ele>413.5</ele>
        <time>2021-08-31T02:07:32.157Z</time>
      </trkpt>
      <trkpt lat="42.58056" lon="2.61705">
        <ele>414.1</ele>
        <time>2021-08-31T02:07:35.227Z</time>
      </trkpt>
      <trkpt lat="42.58053" lon="2.61692">
        <ele>415.4</ele>
        <time>2021-08-31T02:07:41.185Z</time>
      </trkpt>
      <trkpt lat="42.58054" lon="2.61668">
        <ele>418.6</ele>
        <time>2021-08-31T02:07:52.282Z</time>
      </trkpt>
      <trkpt lat="42.58064" lon="2.61601">
        <ele>425</ele>
        <time>2021-08-31T02:08:21.210Z</time>
      </trkpt>
      <trkpt lat="42.58068" lon="2.61521">
        <ele>430.5</ele>
        <time>2021-08-31T02:08:44.605Z</time>
      </trkpt>
      <trkpt lat="42.58067" lon="2.61481">
        <ele>436.2</ele>
        <time>2021-08-31T02:09:03.081Z</time>
      </trkpt>
      <trkpt lat="42.58061" lon="2.61454">
        <ele>440.8</ele>
        <time>2021-08-31T02:09:16.100Z</time>
      </trkpt>
      <trkpt lat="42.58047" lon="2.61432">
        <ele>440.1</ele>
        <time>2021-08-31T02:09:18.325Z</time>
      </trkpt>
      <trkpt lat="42.58028" lon="2.61416">
        <ele>434.9</ele>
        <time>2021-08-31T02:09:20.209Z</time>
      </trkpt>
      <trkpt lat="42.58008" lon="2.61406">
        <ele>427.9</ele>
        <time>2021-08-31T02:09:22.004Z</time>
      </trkpt>
      <trkpt lat="42.57986" lon="2.61404">
        <ele>423.9</ele>
        <time>2021-08-31T02:09:23.862Z</time>
      </trkpt>
      <trkpt lat="42.57969" lon="2.61405">
        <ele>422.7</ele>
        <time>2021-08-31T02:09:25.295Z</time>
      </trkpt>
      <trkpt lat="42.57959" lon="2.61407">
        <ele>421.7</ele>
        <time>2021-08-31T02:09:26.147Z</time>
      </trkpt>
      <trkpt lat="42.57938" lon="2.61419">
        <ele>419.4</ele>
        <time>2021-08-31T02:09:28.066Z</time>
      </trkpt>
      <trkpt lat="42.57929" lon="2.6143">
        <ele>418.7</ele>
        <time>2021-08-31T02:09:29.068Z</time>
      </trkpt>
      <trkpt lat="42.57923" lon="2.61439">
        <ele>418.2</ele>
        <time>2021-08-31T02:09:29.819Z</time>
      </trkpt>
      <trkpt lat="42.57921" lon="2.61454">
        <ele>417.6</ele>
        <time>2021-08-31T02:09:30.782Z</time>
      </trkpt>
      <trkpt lat="42.57924" lon="2.61468">
        <ele>417</ele>
        <time>2021-08-31T02:09:31.684Z</time>
      </trkpt>
      <trkpt lat="42.57929" lon="2.61477">
        <ele>416.5</ele>
        <time>2021-08-31T02:09:32.358Z</time>
      </trkpt>
      <trkpt lat="42.57948" lon="2.61498">
        <ele>414.6</ele>
        <time>2021-08-31T02:09:34.421Z</time>
      </trkpt>
      <trkpt lat="42.57958" lon="2.61503">
        <ele>414.2</ele>
        <time>2021-08-31T02:09:35.477Z</time>
      </trkpt>
      <trkpt lat="42.57971" lon="2.61499">
        <ele>413.4</ele>
        <time>2021-08-31T02:09:36.560Z</time>
      </trkpt>
      <trkpt lat="42.57977" lon="2.61505">
        <ele>413.2</ele>
        <time>2021-08-31T02:09:37.384Z</time>
      </trkpt>
      <trkpt lat="42.57978" lon="2.61517">
        <ele>413.5</ele>
        <time>2021-08-31T02:09:39.476Z</time>
      </trkpt>
      <trkpt lat="42.57973" lon="2.6154">
        <ele>414.7</ele>
        <time>2021-08-31T02:09:45.164Z</time>
      </trkpt>
      <trkpt lat="42.57941" lon="2.61612">
        <ele>422.5</ele>
        <time>2021-08-31T02:10:20.201Z</time>
      </trkpt>
      <trkpt lat="42.57909" lon="2.61692">
        <ele>426.5</ele>
        <time>2021-08-31T02:10:40.542Z</time>
      </trkpt>
      <trkpt lat="42.57896" lon="2.6171">
        <ele>427.9</ele>
        <time>2021-08-31T02:10:46.873Z</time>
      </trkpt>
      <trkpt lat="42.57885" lon="2.61719">
        <ele>429.8</ele>
        <time>2021-08-31T02:10:54.924Z</time>
      </trkpt>
      <trkpt lat="42.57845" lon="2.61738">
        <ele>437.8</ele>
        <time>2021-08-31T02:11:21.491Z</time>
      </trkpt>
      <trkpt lat="42.57837" lon="2.6174">
        <ele>439.5</ele>
        <time>2021-08-31T02:11:26.591Z</time>
      </trkpt>
      <trkpt lat="42.57822" lon="2.6175">
        <ele>442.2</ele>
        <time>2021-08-31T02:11:37.067Z</time>
      </trkpt>
      <trkpt lat="42.57802" lon="2.6176">
        <ele>447.9</ele>
        <time>2021-08-31T02:11:50.428Z</time>
      </trkpt>
      <trkpt lat="42.57793" lon="2.61768">
        <ele>449.4</ele>
        <time>2021-08-31T02:11:57.172Z</time>
      </trkpt>
      <trkpt lat="42.5778" lon="2.618">
        <ele>446.5</ele>
        <time>2021-08-31T02:11:59.439Z</time>
      </trkpt>
      <trkpt lat="42.57742" lon="2.61864">
        <ele>447.4</ele>
        <time>2021-08-31T02:12:10.830Z</time>
      </trkpt>
      <trkpt lat="42.57733" lon="2.61894">
        <ele>446.4</ele>
        <time>2021-08-31T02:12:13.096Z</time>
      </trkpt>
      <trkpt lat="42.57719" lon="2.6193">
        <ele>446.8</ele>
        <time>2021-08-31T02:12:18.647Z</time>
      </trkpt>
      <trkpt lat="42.57705" lon="2.61956">
        <ele>447.3</ele>
        <time>2021-08-31T02:12:23.425Z</time>
      </trkpt>
      <trkpt lat="42.577" lon="2.61963">
        <ele>447.4</ele>
        <time>2021-08-31T02:12:24.763Z</time>
      </trkpt>
      <trkpt lat="42.57687" lon="2.61974">
        <ele>447.7</ele>
        <time>2021-08-31T02:12:27.797Z</time>
      </trkpt>
      <trkpt lat="42.57635" lon="2.61996">
        <ele>451.6</ele>
        <time>2021-08-31T02:12:45.829Z</time>
      </trkpt>
      <trkpt lat="42.57585" lon="2.62023">
        <ele>455.1</ele>
        <time>2021-08-31T02:13:02.794Z</time>
      </trkpt>
      <trkpt lat="42.57572" lon="2.62028">
        <ele>456.5</ele>
        <time>2021-08-31T02:13:08.714Z</time>
      </trkpt>
      <trkpt lat="42.57562" lon="2.62027">
        <ele>459.3</ele>
        <time>2021-08-31T02:13:15.000Z</time>
      </trkpt>
      <trkpt lat="42.57542" lon="2.62015">
        <ele>466.2</ele>
        <time>2021-08-31T02:13:28.708Z</time>
      </trkpt>
      <trkpt lat="42.57536" lon="2.62013">
        <ele>468</ele>
        <time>2021-08-31T02:13:32.581Z</time>
      </trkpt>
      <trkpt lat="42.57511" lon="2.62014">
        <ele>473</ele>
        <time>2021-08-31T02:13:48.261Z</time>
      </trkpt>
      <trkpt lat="42.57507" lon="2.62015">
        <ele>473.7</ele>
        <time>2021-08-31T02:13:50.811Z</time>
      </trkpt>
      <trkpt lat="42.57502" lon="2.6202">
        <ele>474.3</ele>
        <time>2021-08-31T02:13:53.352Z</time>
      </trkpt>
      <trkpt lat="42.57499" lon="2.62024">
        <ele>474.4</ele>
        <time>2021-08-31T02:13:54.226Z</time>
      </trkpt>
      <trkpt lat="42.57497" lon="2.62039">
        <ele>473.6</ele>
        <time>2021-08-31T02:13:55.172Z</time>
      </trkpt>
      <trkpt lat="42.57498" lon="2.62063">
        <ele>470.3</ele>
        <time>2021-08-31T02:13:56.663Z</time>
      </trkpt>
      <trkpt lat="42.57507" lon="2.62107">
        <ele>462.3</ele>
        <time>2021-08-31T02:13:59.496Z</time>
      </trkpt>
      <trkpt lat="42.575" lon="2.62133">
        <ele>461.5</ele>
        <time>2021-08-31T02:14:01.482Z</time>
      </trkpt>
      <trkpt lat="42.57484" lon="2.6217">
        <ele>463.6</ele>
        <time>2021-08-31T02:14:11.548Z</time>
      </trkpt>
      <trkpt lat="42.57479" lon="2.62178">
        <ele>464</ele>
        <time>2021-08-31T02:14:13.770Z</time>
      </trkpt>
      <trkpt lat="42.57469" lon="2.62189">
        <ele>465.3</ele>
        <time>2021-08-31T02:14:19.264Z</time>
      </trkpt>
      <trkpt lat="42.57449" lon="2.62204">
        <ele>468.5</ele>
        <time>2021-08-31T02:14:33.588Z</time>
      </trkpt>
      <trkpt lat="42.57432" lon="2.62212">
        <ele>471.8</ele>
        <time>2021-08-31T02:14:44.868Z</time>
      </trkpt>
      <trkpt lat="42.57394" lon="2.62225">
        <ele>482.2</ele>
        <time>2021-08-31T02:15:09.436Z</time>
      </trkpt>
      <trkpt lat="42.57385" lon="2.62231">
        <ele>484.7</ele>
        <time>2021-08-31T02:15:15.721Z</time>
      </trkpt>
      <trkpt lat="42.57374" lon="2.62242">
        <ele>486.8</ele>
        <time>2021-08-31T02:15:24.286Z</time>
      </trkpt>
      <trkpt lat="42.5735" lon="2.62272">
        <ele>489.8</ele>
        <time>2021-08-31T02:15:37.073Z</time>
      </trkpt>
      <trkpt lat="42.57344" lon="2.62286">
        <ele>488.8</ele>
        <time>2021-08-31T02:15:38.078Z</time>
      </trkpt>
      <trkpt lat="42.57335" lon="2.62318">
        <ele>482.9</ele>
        <time>2021-08-31T02:15:40.203Z</time>
      </trkpt>
      <trkpt lat="42.57308" lon="2.62371">
        <ele>476</ele>
        <time>2021-08-31T02:15:44.201Z</time>
      </trkpt>
      <trkpt lat="42.57303" lon="2.62376">
        <ele>476</ele>
        <time>2021-08-31T02:15:45.210Z</time>
      </trkpt>
      <trkpt lat="42.57292" lon="2.62379">
        <ele>477.5</ele>
        <time>2021-08-31T02:15:52.244Z</time>
      </trkpt>
      <trkpt lat="42.57282" lon="2.62374">
        <ele>480.8</ele>
        <time>2021-08-31T02:15:58.925Z</time>
      </trkpt>
      <trkpt lat="42.57252" lon="2.62338">
        <ele>493.8</ele>
        <time>2021-08-31T02:16:24.025Z</time>
      </trkpt>
      <trkpt lat="42.57202" lon="2.62286">
        <ele>510.3</ele>
        <time>2021-08-31T02:17:03.509Z</time>
      </trkpt>
      <trkpt lat="42.57189" lon="2.62273">
        <ele>512.4</ele>
        <time>2021-08-31T02:17:13.162Z</time>
      </trkpt>
      <trkpt lat="42.57181" lon="2.62272">
        <ele>512.3</ele>
        <time>2021-08-31T02:17:14.214Z</time>
      </trkpt>
      <trkpt lat="42.57175" lon="2.62277">
        <ele>511.5</ele>
        <time>2021-08-31T02:17:14.808Z</time>
      </trkpt>
      <trkpt lat="42.57173" lon="2.62284">
        <ele>510.8</ele>
        <time>2021-08-31T02:17:15.273Z</time>
      </trkpt>
      <trkpt lat="42.57173" lon="2.62298">
        <ele>509.2</ele>
        <time>2021-08-31T02:17:16.142Z</time>
      </trkpt>
      <trkpt lat="42.57183" lon="2.62381">
        <ele>501.6</ele>
        <time>2021-08-31T02:17:21.360Z</time>
      </trkpt>
      <trkpt lat="42.57184" lon="2.62393">
        <ele>500.8</ele>
        <time>2021-08-31T02:17:22.109Z</time>
      </trkpt>
      <trkpt lat="42.57183" lon="2.62403">
        <ele>500.6</ele>
        <time>2021-08-31T02:17:22.930Z</time>
      </trkpt>
      <trkpt lat="42.57176" lon="2.62424">
        <ele>500.9</ele>
        <time>2021-08-31T02:17:26.222Z</time>
      </trkpt>
      <trkpt lat="42.57144" lon="2.62486">
        <ele>498.8</ele>
        <time>2021-08-31T02:17:31.738Z</time>
      </trkpt>
      <trkpt lat="42.57136" lon="2.62493">
        <ele>498.9</ele>
        <time>2021-08-31T02:17:33.449Z</time>
      </trkpt>
      <trkpt lat="42.57126" lon="2.62496">
        <ele>499.7</ele>
        <time>2021-08-31T02:17:37.017Z</time>
      </trkpt>
      <trkpt lat="42.57082" lon="2.62485">
        <ele>509.5</ele>
        <time>2021-08-31T02:18:05.066Z</time>
      </trkpt>
      <trkpt lat="42.57017" lon="2.62453">
        <ele>520.5</ele>
        <time>2021-08-31T02:18:48.412Z</time>
      </trkpt>
      <trkpt lat="42.56993" lon="2.62436">
        <ele>525.7</ele>
        <time>2021-08-31T02:19:05.383Z</time>
      </trkpt>
      <trkpt lat="42.56982" lon="2.62432">
        <ele>527.5</ele>
        <time>2021-08-31T02:19:12.522Z</time>
      </trkpt>
      <trkpt lat="42.56934" lon="2.62446">
        <ele>528.3</ele>
        <time>2021-08-31T02:19:21.902Z</time>
      </trkpt>
      <trkpt lat="42.5693" lon="2.62449">
        <ele>528.1</ele>
        <time>2021-08-31T02:19:22.329Z</time>
      </trkpt>
      <trkpt lat="42.56923" lon="2.6246">
        <ele>526.7</ele>
        <time>2021-08-31T02:19:23.231Z</time>
      </trkpt>
      <trkpt lat="42.56917" lon="2.62489">
        <ele>522.1</ele>
        <time>2021-08-31T02:19:25.100Z</time>
      </trkpt>
      <trkpt lat="42.5691" lon="2.62495">
        <ele>523</ele>
        <time>2021-08-31T02:19:28.924Z</time>
      </trkpt>
      <trkpt lat="42.56906" lon="2.62497">
        <ele>524.1</ele>
        <time>2021-08-31T02:19:31.596Z</time>
      </trkpt>
      <trkpt lat="42.56888" lon="2.62496">
        <ele>530.2</ele>
        <time>2021-08-31T02:19:42.890Z</time>
      </trkpt>
      <trkpt lat="42.56884" lon="2.62497">
        <ele>531.5</ele>
        <time>2021-08-31T02:19:45.440Z</time>
      </trkpt>
      <trkpt lat="42.56878" lon="2.62504">
        <ele>533</ele>
        <time>2021-08-31T02:19:50.400Z</time>
      </trkpt>
      <trkpt lat="42.56876" lon="2.62509">
        <ele>533.7</ele>
        <time>2021-08-31T02:19:53.027Z</time>
      </trkpt>
      <trkpt lat="42.56876" lon="2.62515">
        <ele>533.8</ele>
        <time>2021-08-31T02:19:53.933Z</time>
      </trkpt>
      <trkpt lat="42.5689" lon="2.62554">
        <ele>529.4</ele>
        <time>2021-08-31T02:19:56.625Z</time>
      </trkpt>
      <trkpt lat="42.56891" lon="2.62561">
        <ele>529.1</ele>
        <time>2021-08-31T02:19:57.062Z</time>
      </trkpt>
      <trkpt lat="42.5689" lon="2.62573">
        <ele>529.6</ele>
        <time>2021-08-31T02:19:59.697Z</time>
      </trkpt>
      <trkpt lat="42.56882" lon="2.62586">
        <ele>532.5</ele>
        <time>2021-08-31T02:20:07.519Z</time>
      </trkpt>
      <trkpt lat="42.56879" lon="2.62588">
        <ele>533.7</ele>
        <time>2021-08-31T02:20:09.614Z</time>
      </trkpt>
      <trkpt lat="42.56864" lon="2.62592">
        <ele>538.8</ele>
        <time>2021-08-31T02:20:19.198Z</time>
      </trkpt>
      <trkpt lat="42.56856" lon="2.62596">
        <ele>541.8</ele>
        <time>2021-08-31T02:20:24.542Z</time>
      </trkpt>
      <trkpt lat="42.56854" lon="2.62599">
        <ele>542.7</ele>
        <time>2021-08-31T02:20:26.411Z</time>
      </trkpt>
      <trkpt lat="42.56854" lon="2.6261">
        <ele>543.6</ele>
        <time>2021-08-31T02:20:30.250Z</time>
      </trkpt>
      <trkpt lat="42.56856" lon="2.62615">
        <ele>543.4</ele>
        <time>2021-08-31T02:20:30.628Z</time>
      </trkpt>
      <trkpt lat="42.5686" lon="2.62619">
        <ele>542.6</ele>
        <time>2021-08-31T02:20:31.046Z</time>
      </trkpt>
      <trkpt lat="42.56869" lon="2.62625">
        <ele>540.9</ele>
        <time>2021-08-31T02:20:31.891Z</time>
      </trkpt>
      <trkpt lat="42.56905" lon="2.62639">
        <ele>533.7</ele>
        <time>2021-08-31T02:20:35.046Z</time>
      </trkpt>
      <trkpt lat="42.5691" lon="2.62642">
        <ele>533</ele>
        <time>2021-08-31T02:20:35.506Z</time>
      </trkpt>
      <trkpt lat="42.5692" lon="2.62652">
        <ele>532.4</ele>
        <time>2021-08-31T02:20:36.619Z</time>
      </trkpt>
      <trkpt lat="42.56939" lon="2.62682">
        <ele>532.3</ele>
        <time>2021-08-31T02:20:41.119Z</time>
      </trkpt>
      <trkpt lat="42.56948" lon="2.6271">
        <ele>533.7</ele>
        <time>2021-08-31T02:20:48.070Z</time>
      </trkpt>
      <trkpt lat="42.56947" lon="2.62728">
        <ele>536.4</ele>
        <time>2021-08-31T02:20:56.405Z</time>
      </trkpt>
      <trkpt lat="42.56943" lon="2.62754">
        <ele>540.5</ele>
        <time>2021-08-31T02:21:08.669Z</time>
      </trkpt>
      <trkpt lat="42.56928" lon="2.62831">
        <ele>544.1</ele>
        <time>2021-08-31T02:21:26.682Z</time>
      </trkpt>
      <trkpt lat="42.56915" lon="2.62887">
        <ele>546.1</ele>
        <time>2021-08-31T02:21:38.677Z</time>
      </trkpt>
      <trkpt lat="42.56909" lon="2.62906">
        <ele>547</ele>
        <time>2021-08-31T02:21:43.279Z</time>
      </trkpt>
      <trkpt lat="42.56896" lon="2.6294">
        <ele>546.9</ele>
        <time>2021-08-31T02:21:47.628Z</time>
      </trkpt>
      <trkpt lat="42.56881" lon="2.62969">
        <ele>547.3</ele>
        <time>2021-08-31T02:21:52.563Z</time>
      </trkpt>
      <trkpt lat="42.56869" lon="2.62989">
        <ele>548.6</ele>
        <time>2021-08-31T02:21:58.704Z</time>
      </trkpt>
      <trkpt lat="42.56784" lon="2.63045">
        <ele>566.4</ele>
        <time>2021-08-31T02:22:57.935Z</time>
      </trkpt>
      <trkpt lat="42.56766" lon="2.63054">
        <ele>570.9</ele>
        <time>2021-08-31T02:23:09.961Z</time>
      </trkpt>
      <trkpt lat="42.56742" lon="2.63059">
        <ele>577.3</ele>
        <time>2021-08-31T02:23:25.183Z</time>
      </trkpt>
      <trkpt lat="42.56735" lon="2.63066">
        <ele>578.1</ele>
        <time>2021-08-31T02:23:28.593Z</time>
      </trkpt>
      <trkpt lat="42.56732" lon="2.63076">
        <ele>577.3</ele>
        <time>2021-08-31T02:23:29.263Z</time>
      </trkpt>
      <trkpt lat="42.56735" lon="2.63087">
        <ele>576.4</ele>
        <time>2021-08-31T02:23:29.991Z</time>
      </trkpt>
      <trkpt lat="42.56739" lon="2.63091">
        <ele>576.5</ele>
        <time>2021-08-31T02:23:30.981Z</time>
      </trkpt>
      <trkpt lat="42.56775" lon="2.63107">
        <ele>568.8</ele>
        <time>2021-08-31T02:23:34.172Z</time>
      </trkpt>
      <trkpt lat="42.56789" lon="2.63117">
        <ele>566.4</ele>
        <time>2021-08-31T02:23:35.505Z</time>
      </trkpt>
      <trkpt lat="42.56796" lon="2.63126">
        <ele>566.1</ele>
        <time>2021-08-31T02:23:36.523Z</time>
      </trkpt>
      <trkpt lat="42.56802" lon="2.63137">
        <ele>566.3</ele>
        <time>2021-08-31T02:23:38.525Z</time>
      </trkpt>
      <trkpt lat="42.56808" lon="2.63155">
        <ele>568</ele>
        <time>2021-08-31T02:23:45.882Z</time>
      </trkpt>
      <trkpt lat="42.56807" lon="2.6317">
        <ele>571.9</ele>
        <time>2021-08-31T02:23:52.837Z</time>
      </trkpt>
      <trkpt lat="42.56802" lon="2.6319">
        <ele>578.8</ele>
        <time>2021-08-31T02:24:02.589Z</time>
      </trkpt>
      <trkpt lat="42.56803" lon="2.63197">
        <ele>580.1</ele>
        <time>2021-08-31T02:24:05.881Z</time>
      </trkpt>
      <trkpt lat="42.56807" lon="2.63207">
        <ele>581.6</ele>
        <time>2021-08-31T02:24:11.135Z</time>
      </trkpt>
      <trkpt lat="42.56815" lon="2.63214">
        <ele>581.2</ele>
        <time>2021-08-31T02:24:12.038Z</time>
      </trkpt>
      <trkpt lat="42.5682" lon="2.63215">
        <ele>580</ele>
        <time>2021-08-31T02:24:12.464Z</time>
      </trkpt>
      <trkpt lat="42.56825" lon="2.63213">
        <ele>578.2</ele>
        <time>2021-08-31T02:24:12.903Z</time>
      </trkpt>
      <trkpt lat="42.56835" lon="2.63205">
        <ele>573.6</ele>
        <time>2021-08-31T02:24:13.881Z</time>
      </trkpt>
      <trkpt lat="42.56841" lon="2.63199">
        <ele>571.8</ele>
        <time>2021-08-31T02:24:14.509Z</time>
      </trkpt>
      <trkpt lat="42.56869" lon="2.63184">
        <ele>568.4</ele>
        <time>2021-08-31T02:24:17.045Z</time>
      </trkpt>
      <trkpt lat="42.56907" lon="2.63173">
        <ele>567.1</ele>
        <time>2021-08-31T02:24:21.052Z</time>
      </trkpt>
      <trkpt lat="42.56919" lon="2.63172">
        <ele>566.7</ele>
        <time>2021-08-31T02:24:22.294Z</time>
      </trkpt>
      <trkpt lat="42.56926" lon="2.63173">
        <ele>565.1</ele>
        <time>2021-08-31T02:24:22.887Z</time>
      </trkpt>
      <trkpt lat="42.56939" lon="2.63182">
        <ele>563.5</ele>
        <time>2021-08-31T02:24:24.117Z</time>
      </trkpt>
      <trkpt lat="42.56943" lon="2.63186">
        <ele>563.4</ele>
        <time>2021-08-31T02:24:24.709Z</time>
      </trkpt>
      <trkpt lat="42.56947" lon="2.63198">
        <ele>564</ele>
        <time>2021-08-31T02:24:27.698Z</time>
      </trkpt>
      <trkpt lat="42.56948" lon="2.63213">
        <ele>566</ele>
        <time>2021-08-31T02:24:34.652Z</time>
      </trkpt>
      <trkpt lat="42.56938" lon="2.63245">
        <ele>575.3</ele>
        <time>2021-08-31T02:24:50.702Z</time>
      </trkpt>
      <trkpt lat="42.56937" lon="2.6326">
        <ele>577.6</ele>
        <time>2021-08-31T02:24:57.656Z</time>
      </trkpt>
      <trkpt lat="42.56948" lon="2.63378">
        <ele>579.7</ele>
        <time>2021-08-31T02:25:15.900Z</time>
      </trkpt>
      <trkpt lat="42.56947" lon="2.63398">
        <ele>581</ele>
        <time>2021-08-31T02:25:21.489Z</time>
      </trkpt>
      <trkpt lat="42.56938" lon="2.63453">
        <ele>581.7</ele>
        <time>2021-08-31T02:25:29.466Z</time>
      </trkpt>
      <trkpt lat="42.56935" lon="2.63459">
        <ele>582.6</ele>
        <time>2021-08-31T02:25:32.815Z</time>
      </trkpt>
      <trkpt lat="42.56907" lon="2.63491">
        <ele>591.5</ele>
        <time>2021-08-31T02:25:55.759Z</time>
      </trkpt>
      <trkpt lat="42.56902" lon="2.63501">
        <ele>592.3</ele>
        <time>2021-08-31T02:25:59.184Z</time>
      </trkpt>
      <trkpt lat="42.56888" lon="2.63542">
        <ele>594.2</ele>
        <time>2021-08-31T02:26:09.103Z</time>
      </trkpt>
      <trkpt lat="42.56874" lon="2.63571">
        <ele>596.8</ele>
        <time>2021-08-31T02:26:20.092Z</time>
      </trkpt>
      <trkpt lat="42.56863" lon="2.63598">
        <ele>600.4</ele>
        <time>2021-08-31T02:26:34.338Z</time>
      </trkpt>
      <trkpt lat="42.56857" lon="2.63632">
        <ele>604.4</ele>
        <time>2021-08-31T02:26:50.481Z</time>
      </trkpt>
      <trkpt lat="42.56852" lon="2.63645">
        <ele>606.3</ele>
        <time>2021-08-31T02:26:57.253Z</time>
      </trkpt>
      <trkpt lat="42.56842" lon="2.63664">
        <ele>609.8</ele>
        <time>2021-08-31T02:27:08.035Z</time>
      </trkpt>
      <trkpt lat="42.56841" lon="2.63671">
        <ele>610.2</ele>
        <time>2021-08-31T02:27:09.837Z</time>
      </trkpt>
      <trkpt lat="42.56844" lon="2.63684">
        <ele>609.6</ele>
        <time>2021-08-31T02:27:10.654Z</time>
      </trkpt>
      <trkpt lat="42.56847" lon="2.63688">
        <ele>608.9</ele>
        <time>2021-08-31T02:27:11.008Z</time>
      </trkpt>
      <trkpt lat="42.56857" lon="2.63693">
        <ele>606.7</ele>
        <time>2021-08-31T02:27:11.905Z</time>
      </trkpt>
      <trkpt lat="42.56881" lon="2.63686">
        <ele>600.5</ele>
        <time>2021-08-31T02:27:13.974Z</time>
      </trkpt>
      <trkpt lat="42.56891" lon="2.63687">
        <ele>598.2</ele>
        <time>2021-08-31T02:27:14.818Z</time>
      </trkpt>
      <trkpt lat="42.56899" lon="2.63694">
        <ele>596.7</ele>
        <time>2021-08-31T02:27:15.620Z</time>
      </trkpt>
      <trkpt lat="42.56903" lon="2.63708">
        <ele>596.2</ele>
        <time>2021-08-31T02:27:16.639Z</time>
      </trkpt>
      <trkpt lat="42.56902" lon="2.63718">
        <ele>596.9</ele>
        <time>2021-08-31T02:27:19.612Z</time>
      </trkpt>
      <trkpt lat="42.56898" lon="2.63733">
        <ele>598.5</ele>
        <time>2021-08-31T02:27:26.978Z</time>
      </trkpt>
      <trkpt lat="42.56871" lon="2.63775">
        <ele>604.7</ele>
        <time>2021-08-31T02:27:52.719Z</time>
      </trkpt>
      <trkpt lat="42.5683" lon="2.6391">
        <ele>615.1</ele>
        <time>2021-08-31T02:28:36.761Z</time>
      </trkpt>
      <trkpt lat="42.56831" lon="2.63928">
        <ele>615</ele>
        <time>2021-08-31T02:28:38.621Z</time>
      </trkpt>
      <trkpt lat="42.56848" lon="2.64021">
        <ele>613.5</ele>
        <time>2021-08-31T02:28:46.926Z</time>
      </trkpt>
      <trkpt lat="42.56852" lon="2.64055">
        <ele>613.6</ele>
        <time>2021-08-31T02:28:51.202Z</time>
      </trkpt>
      <trkpt lat="42.56851" lon="2.64083">
        <ele>614.7</ele>
        <time>2021-08-31T02:28:57.199Z</time>
      </trkpt>
      <trkpt lat="42.56843" lon="2.64153">
        <ele>617.1</ele>
        <time>2021-08-31T02:29:11.647Z</time>
      </trkpt>
      <trkpt lat="42.56838" lon="2.64168">
        <ele>618.4</ele>
        <time>2021-08-31T02:29:17.160Z</time>
      </trkpt>
      <trkpt lat="42.56806" lon="2.64231">
        <ele>620.7</ele>
        <time>2021-08-31T02:29:31.789Z</time>
      </trkpt>
      <trkpt lat="42.56793" lon="2.64247">
        <ele>622.4</ele>
        <time>2021-08-31T02:29:38.987Z</time>
      </trkpt>
      <trkpt lat="42.56781" lon="2.64256">
        <ele>624.7</ele>
        <time>2021-08-31T02:29:47.582Z</time>
      </trkpt>
      <trkpt lat="42.56737" lon="2.64271">
        <ele>634.6</ele>
        <time>2021-08-31T02:30:16.023Z</time>
      </trkpt>
      <trkpt lat="42.56732" lon="2.64275">
        <ele>635.3</ele>
        <time>2021-08-31T02:30:19.093Z</time>
      </trkpt>
      <trkpt lat="42.56727" lon="2.64286">
        <ele>635.6</ele>
        <time>2021-08-31T02:30:21.268Z</time>
      </trkpt>
      <trkpt lat="42.56726" lon="2.64293">
        <ele>635.1</ele>
        <time>2021-08-31T02:30:21.711Z</time>
      </trkpt>
      <trkpt lat="42.56728" lon="2.64337">
        <ele>630.2</ele>
        <time>2021-08-31T02:30:24.446Z</time>
      </trkpt>
      <trkpt lat="42.56722" lon="2.64366">
        <ele>628.9</ele>
        <time>2021-08-31T02:30:26.270Z</time>
      </trkpt>
      <trkpt lat="42.56701" lon="2.64405">
        <ele>631.3</ele>
        <time>2021-08-31T02:30:37.688Z</time>
      </trkpt>
      <trkpt lat="42.56687" lon="2.64425">
        <ele>632.8</ele>
        <time>2021-08-31T02:30:44.531Z</time>
      </trkpt>
      <trkpt lat="42.56675" lon="2.6444">
        <ele>633</ele>
        <time>2021-08-31T02:30:47.518Z</time>
      </trkpt>
      <trkpt lat="42.56657" lon="2.64458">
        <ele>633.5</ele>
        <time>2021-08-31T02:30:52.087Z</time>
      </trkpt>
      <trkpt lat="42.56642" lon="2.64468">
        <ele>634.4</ele>
        <time>2021-08-31T02:30:56.960Z</time>
      </trkpt>
      <trkpt lat="42.5663" lon="2.64473">
        <ele>635.7</ele>
        <time>2021-08-31T02:31:02.456Z</time>
      </trkpt>
      <trkpt lat="42.56573" lon="2.64485">
        <ele>644.3</ele>
        <time>2021-08-31T02:31:38.619Z</time>
      </trkpt>
      <trkpt lat="42.56558" lon="2.64492">
        <ele>645</ele>
        <time>2021-08-31T02:31:42.946Z</time>
      </trkpt>
      <trkpt lat="42.56553" lon="2.64496">
        <ele>645</ele>
        <time>2021-08-31T02:31:43.889Z</time>
      </trkpt>
      <trkpt lat="42.56548" lon="2.64502">
        <ele>645</ele>
        <time>2021-08-31T02:31:44.974Z</time>
      </trkpt>
      <trkpt lat="42.56522" lon="2.64553">
        <ele>645.7</ele>
        <time>2021-08-31T02:31:53.612Z</time>
      </trkpt>
      <trkpt lat="42.56511" lon="2.64579">
        <ele>646.1</ele>
        <time>2021-08-31T02:31:57.915Z</time>
      </trkpt>
      <trkpt lat="42.56504" lon="2.64592">
        <ele>647.6</ele>
        <time>2021-08-31T02:32:04.671Z</time>
      </trkpt>
      <trkpt lat="42.56482" lon="2.64629">
        <ele>648.8</ele>
        <time>2021-08-31T02:32:12.967Z</time>
      </trkpt>
      <trkpt lat="42.56477" lon="2.64635">
        <ele>648.8</ele>
        <time>2021-08-31T02:32:14.052Z</time>
      </trkpt>
      <trkpt lat="42.56463" lon="2.64644">
        <ele>648.6</ele>
        <time>2021-08-31T02:32:16.069Z</time>
      </trkpt>
      <trkpt lat="42.56438" lon="2.64653">
        <ele>648</ele>
        <time>2021-08-31T02:32:19.046Z</time>
      </trkpt>
      <trkpt lat="42.56414" lon="2.64665">
        <ele>647.4</ele>
        <time>2021-08-31T02:32:21.981Z</time>
      </trkpt>
      <trkpt lat="42.56402" lon="2.64674">
        <ele>646.7</ele>
        <time>2021-08-31T02:32:23.181Z</time>
      </trkpt>
      <trkpt lat="42.56372" lon="2.64704">
        <ele>644.8</ele>
        <time>2021-08-31T02:32:26.444Z</time>
      </trkpt>
      <trkpt lat="42.56354" lon="2.64731">
        <ele>643.1</ele>
        <time>2021-08-31T02:32:28.567Z</time>
      </trkpt>
      <trkpt lat="42.56345" lon="2.64747">
        <ele>642</ele>
        <time>2021-08-31T02:32:29.817Z</time>
      </trkpt>
      <trkpt lat="42.56339" lon="2.64763">
        <ele>640.3</ele>
        <time>2021-08-31T02:32:30.931Z</time>
      </trkpt>
      <trkpt lat="42.56332" lon="2.64789">
        <ele>638.2</ele>
        <time>2021-08-31T02:32:32.648Z</time>
      </trkpt>
      <trkpt lat="42.56332" lon="2.64801">
        <ele>638.1</ele>
        <time>2021-08-31T02:32:33.823Z</time>
      </trkpt>
      <trkpt lat="42.56336" lon="2.64812">
        <ele>639</ele>
        <time>2021-08-31T02:32:37.628Z</time>
      </trkpt>
      <trkpt lat="42.56341" lon="2.6482">
        <ele>640</ele>
        <time>2021-08-31T02:32:42.206Z</time>
      </trkpt>
      <trkpt lat="42.56352" lon="2.64832">
        <ele>642.8</ele>
        <time>2021-08-31T02:32:51.053Z</time>
      </trkpt>
      <trkpt lat="42.5636" lon="2.64849">
        <ele>646.7</ele>
        <time>2021-08-31T02:33:00.368Z</time>
      </trkpt>
      <trkpt lat="42.5636" lon="2.64861">
        <ele>648.2</ele>
        <time>2021-08-31T02:33:05.909Z</time>
      </trkpt>
      <trkpt lat="42.56358" lon="2.64872">
        <ele>649.2</ele>
        <time>2021-08-31T02:33:10.281Z</time>
      </trkpt>
      <trkpt lat="42.5635" lon="2.64889">
        <ele>649.7</ele>
        <time>2021-08-31T02:33:13.773Z</time>
      </trkpt>
      <trkpt lat="42.56335" lon="2.64899">
        <ele>647.9</ele>
        <time>2021-08-31T02:33:15.180Z</time>
      </trkpt>
      <trkpt lat="42.56242" lon="2.64926">
        <ele>636.9</ele>
        <time>2021-08-31T02:33:23.192Z</time>
      </trkpt>
      <trkpt lat="42.56227" lon="2.64933">
        <ele>635.6</ele>
        <time>2021-08-31T02:33:24.529Z</time>
      </trkpt>
      <trkpt lat="42.56214" lon="2.6494">
        <ele>634.7</ele>
        <time>2021-08-31T02:33:25.627Z</time>
      </trkpt>
      <trkpt lat="42.56203" lon="2.64949">
        <ele>634.3</ele>
        <time>2021-08-31T02:33:26.984Z</time>
      </trkpt>
      <trkpt lat="42.56192" lon="2.64962">
        <ele>634.3</ele>
        <time>2021-08-31T02:33:29.354Z</time>
      </trkpt>
      <trkpt lat="42.56181" lon="2.64975">
        <ele>634.4</ele>
        <time>2021-08-31T02:33:31.883Z</time>
      </trkpt>
      <trkpt lat="42.56149" lon="2.65026">
        <ele>632.9</ele>
        <time>2021-08-31T02:33:37.136Z</time>
      </trkpt>
      <trkpt lat="42.56134" lon="2.65058">
        <ele>631.5</ele>
        <time>2021-08-31T02:33:39.601Z</time>
      </trkpt>
      <trkpt lat="42.56128" lon="2.65076">
        <ele>631.5</ele>
        <time>2021-08-31T02:33:41.966Z</time>
      </trkpt>
      <trkpt lat="42.56125" lon="2.65095">
        <ele>631.9</ele>
        <time>2021-08-31T02:33:45.093Z</time>
      </trkpt>
      <trkpt lat="42.56124" lon="2.65112">
        <ele>632.9</ele>
        <time>2021-08-31T02:33:49.523Z</time>
      </trkpt>
      <trkpt lat="42.56125" lon="2.65188">
        <ele>642.2</ele>
        <time>2021-08-31T02:34:24.623Z</time>
      </trkpt>
      <trkpt lat="42.56124" lon="2.65199">
        <ele>643.9</ele>
        <time>2021-08-31T02:34:29.741Z</time>
      </trkpt>
      <trkpt lat="42.56118" lon="2.65214">
        <ele>644.9</ele>
        <time>2021-08-31T02:34:34.172Z</time>
      </trkpt>
      <trkpt lat="42.56111" lon="2.65218">
        <ele>643.8</ele>
        <time>2021-08-31T02:34:34.811Z</time>
      </trkpt>
      <trkpt lat="42.56104" lon="2.6522">
        <ele>642</ele>
        <time>2021-08-31T02:34:35.414Z</time>
      </trkpt>
      <trkpt lat="42.56056" lon="2.65214">
        <ele>628.2</ele>
        <time>2021-08-31T02:34:39.475Z</time>
      </trkpt>
      <trkpt lat="42.56045" lon="2.65216">
        <ele>626.3</ele>
        <time>2021-08-31T02:34:40.410Z</time>
      </trkpt>
      <trkpt lat="42.56017" lon="2.65227">
        <ele>623.8</ele>
        <time>2021-08-31T02:34:42.866Z</time>
      </trkpt>
      <trkpt lat="42.56" lon="2.65244">
        <ele>625.8</ele>
        <time>2021-08-31T02:34:51.354Z</time>
      </trkpt>
      <trkpt lat="42.55943" lon="2.65334">
        <ele>629.1</ele>
        <time>2021-08-31T02:35:13.073Z</time>
      </trkpt>
      <trkpt lat="42.55937" lon="2.65355">
        <ele>629.3</ele>
        <time>2021-08-31T02:35:16.105Z</time>
      </trkpt>
      <trkpt lat="42.55937" lon="2.65365">
        <ele>630.1</ele>
        <time>2021-08-31T02:35:19.503Z</time>
      </trkpt>
      <trkpt lat="42.55945" lon="2.65391">
        <ele>635</ele>
        <time>2021-08-31T02:35:32.515Z</time>
      </trkpt>
      <trkpt lat="42.55947" lon="2.65402">
        <ele>636.9</ele>
        <time>2021-08-31T02:35:37.747Z</time>
      </trkpt>
      <trkpt lat="42.55946" lon="2.65412">
        <ele>637.4</ele>
        <time>2021-08-31T02:35:40.129Z</time>
      </trkpt>
      <trkpt lat="42.55942" lon="2.6542">
        <ele>636.8</ele>
        <time>2021-08-31T02:35:40.729Z</time>
      </trkpt>
      <trkpt lat="42.55936" lon="2.65425">
        <ele>635.8</ele>
        <time>2021-08-31T02:35:41.323Z</time>
      </trkpt>
      <trkpt lat="42.55919" lon="2.65435">
        <ele>631.3</ele>
        <time>2021-08-31T02:35:42.883Z</time>
      </trkpt>
      <trkpt lat="42.55904" lon="2.65446">
        <ele>628.6</ele>
        <time>2021-08-31T02:35:44.320Z</time>
      </trkpt>
      <trkpt lat="42.55863" lon="2.65482">
        <ele>622.2</ele>
        <time>2021-08-31T02:35:48.433Z</time>
      </trkpt>
      <trkpt lat="42.55848" lon="2.65498">
        <ele>620.4</ele>
        <time>2021-08-31T02:35:50.040Z</time>
      </trkpt>
      <trkpt lat="42.55843" lon="2.65507">
        <ele>620.7</ele>
        <time>2021-08-31T02:35:52.057Z</time>
      </trkpt>
      <trkpt lat="42.55841" lon="2.65517">
        <ele>622.7</ele>
        <time>2021-08-31T02:35:56.843Z</time>
      </trkpt>
      <trkpt lat="42.5584" lon="2.65541">
        <ele>628.3</ele>
        <time>2021-08-31T02:36:07.943Z</time>
      </trkpt>
      <trkpt lat="42.55836" lon="2.65548">
        <ele>629.1</ele>
        <time>2021-08-31T02:36:11.480Z</time>
      </trkpt>
      <trkpt lat="42.55831" lon="2.65553">
        <ele>628.7</ele>
        <time>2021-08-31T02:36:11.968Z</time>
      </trkpt>
      <trkpt lat="42.55824" lon="2.65556">
        <ele>627.7</ele>
        <time>2021-08-31T02:36:12.586Z</time>
      </trkpt>
      <trkpt lat="42.55801" lon="2.65559">
        <ele>623.3</ele>
        <time>2021-08-31T02:36:14.533Z</time>
      </trkpt>
      <trkpt lat="42.55783" lon="2.65567">
        <ele>621.4</ele>
        <time>2021-08-31T02:36:16.129Z</time>
      </trkpt>
      <trkpt lat="42.55761" lon="2.65604">
        <ele>629</ele>
        <time>2021-08-31T02:36:38.087Z</time>
      </trkpt>
      <trkpt lat="42.55755" lon="2.6561">
        <ele>629.4</ele>
        <time>2021-08-31T02:36:40.257Z</time>
      </trkpt>
      <trkpt lat="42.5575" lon="2.65611">
        <ele>628.8</ele>
        <time>2021-08-31T02:36:40.683Z</time>
      </trkpt>
      <trkpt lat="42.55743" lon="2.6561">
        <ele>628.5</ele>
        <time>2021-08-31T02:36:41.347Z</time>
      </trkpt>
      <trkpt lat="42.55736" lon="2.65604">
        <ele>626.7</ele>
        <time>2021-08-31T02:36:42.045Z</time>
      </trkpt>
      <trkpt lat="42.55721" lon="2.65588">
        <ele>621.5</ele>
        <time>2021-08-31T02:36:43.652Z</time>
      </trkpt>
      <trkpt lat="42.5571" lon="2.6558">
        <ele>618.5</ele>
        <time>2021-08-31T02:36:44.703Z</time>
      </trkpt>
      <trkpt lat="42.55688" lon="2.6557">
        <ele>614.6</ele>
        <time>2021-08-31T02:36:46.658Z</time>
      </trkpt>
      <trkpt lat="42.5566" lon="2.65563">
        <ele>611.7</ele>
        <time>2021-08-31T02:36:49.056Z</time>
      </trkpt>
      <trkpt lat="42.55645" lon="2.65563">
        <ele>611.5</ele>
        <time>2021-08-31T02:36:51.000Z</time>
      </trkpt>
      <trkpt lat="42.55564" lon="2.65573">
        <ele>611.3</ele>
        <time>2021-08-31T02:37:03.740Z</time>
      </trkpt>
      <trkpt lat="42.55537" lon="2.65581">
        <ele>610.8</ele>
        <time>2021-08-31T02:37:07.115Z</time>
      </trkpt>
      <trkpt lat="42.55517" lon="2.656">
        <ele>612</ele>
        <time>2021-08-31T02:37:14.015Z</time>
      </trkpt>
      <trkpt lat="42.55428" lon="2.65708">
        <ele>606.4</ele>
        <time>2021-08-31T02:37:24.850Z</time>
      </trkpt>
      <trkpt lat="42.55407" lon="2.65727">
        <ele>604.2</ele>
        <time>2021-08-31T02:37:26.976Z</time>
      </trkpt>
      <trkpt lat="42.55388" lon="2.65735">
        <ele>601.4</ele>
        <time>2021-08-31T02:37:28.652Z</time>
      </trkpt>
      <trkpt lat="42.55382" lon="2.6574">
        <ele>600.8</ele>
        <time>2021-08-31T02:37:29.245Z</time>
      </trkpt>
      <trkpt lat="42.55375" lon="2.65749">
        <ele>600.4</ele>
        <time>2021-08-31T02:37:30.165Z</time>
      </trkpt>
      <trkpt lat="42.55371" lon="2.65759">
        <ele>599.1</ele>
        <time>2021-08-31T02:37:30.871Z</time>
      </trkpt>
      <trkpt lat="42.5537" lon="2.65769">
        <ele>598.1</ele>
        <time>2021-08-31T02:37:31.498Z</time>
      </trkpt>
      <trkpt lat="42.55372" lon="2.6578">
        <ele>597.4</ele>
        <time>2021-08-31T02:37:32.201Z</time>
      </trkpt>
      <trkpt lat="42.55377" lon="2.65787">
        <ele>597.4</ele>
        <time>2021-08-31T02:37:33.368Z</time>
      </trkpt>
      <trkpt lat="42.55384" lon="2.65791">
        <ele>597.6</ele>
        <time>2021-08-31T02:37:34.995Z</time>
      </trkpt>
      <trkpt lat="42.55406" lon="2.65792">
        <ele>599.5</ele>
        <time>2021-08-31T02:37:43.204Z</time>
      </trkpt>
      <trkpt lat="42.55487" lon="2.65776">
        <ele>608.8</ele>
        <time>2021-08-31T02:38:23.096Z</time>
      </trkpt>
      <trkpt lat="42.55494" lon="2.65777">
        <ele>609.3</ele>
        <time>2021-08-31T02:38:25.416Z</time>
      </trkpt>
      <trkpt lat="42.555" lon="2.65781">
        <ele>609.2</ele>
        <time>2021-08-31T02:38:26.265Z</time>
      </trkpt>
      <trkpt lat="42.55505" lon="2.65788">
        <ele>609.6</ele>
        <time>2021-08-31T02:38:28.385Z</time>
      </trkpt>
      <trkpt lat="42.55508" lon="2.65797">
        <ele>609.3</ele>
        <time>2021-08-31T02:38:29.081Z</time>
      </trkpt>
      <trkpt lat="42.55508" lon="2.65806">
        <ele>608.3</ele>
        <time>2021-08-31T02:38:29.639Z</time>
      </trkpt>
      <trkpt lat="42.55506" lon="2.65816">
        <ele>606.7</ele>
        <time>2021-08-31T02:38:30.282Z</time>
      </trkpt>
      <trkpt lat="42.5549" lon="2.65837">
        <ele>602.2</ele>
        <time>2021-08-31T02:38:32.157Z</time>
      </trkpt>
      <trkpt lat="42.55471" lon="2.65868">
        <ele>601</ele>
        <time>2021-08-31T02:38:35.020Z</time>
      </trkpt>
      <trkpt lat="42.5543" lon="2.65954">
        <ele>591.5</ele>
        <time>2021-08-31T02:38:41.377Z</time>
      </trkpt>
      <trkpt lat="42.55422" lon="2.65989">
        <ele>591.4</ele>
        <time>2021-08-31T02:38:45.529Z</time>
      </trkpt>
      <trkpt lat="42.5541" lon="2.6609">
        <ele>585.3</ele>
        <time>2021-08-31T02:38:51.878Z</time>
      </trkpt>
      <trkpt lat="42.55409" lon="2.66108">
        <ele>583.6</ele>
        <time>2021-08-31T02:38:52.998Z</time>
      </trkpt>
      <trkpt lat="42.5541" lon="2.66123">
        <ele>582.7</ele>
        <time>2021-08-31T02:38:53.933Z</time>
      </trkpt>
      <trkpt lat="42.55414" lon="2.66137">
        <ele>582.5</ele>
        <time>2021-08-31T02:38:55.284Z</time>
      </trkpt>
      <trkpt lat="42.55441" lon="2.66177">
        <ele>584.2</ele>
        <time>2021-08-31T02:39:05.927Z</time>
      </trkpt>
      <trkpt lat="42.55462" lon="2.66216">
        <ele>582.5</ele>
        <time>2021-08-31T02:39:09.132Z</time>
      </trkpt>
      <trkpt lat="42.55471" lon="2.66228">
        <ele>581.9</ele>
        <time>2021-08-31T02:39:10.271Z</time>
      </trkpt>
      <trkpt lat="42.55479" lon="2.66236">
        <ele>581.7</ele>
        <time>2021-08-31T02:39:11.456Z</time>
      </trkpt>
      <trkpt lat="42.55508" lon="2.6625">
        <ele>583.4</ele>
        <time>2021-08-31T02:39:20.514Z</time>
      </trkpt>
      <trkpt lat="42.55518" lon="2.66258">
        <ele>584.5</ele>
        <time>2021-08-31T02:39:25.182Z</time>
      </trkpt>
      <trkpt lat="42.55539" lon="2.66281">
        <ele>585.7</ele>
        <time>2021-08-31T02:39:32.582Z</time>
      </trkpt>
      <trkpt lat="42.55553" lon="2.66308">
        <ele>584.4</ele>
        <time>2021-08-31T02:39:34.668Z</time>
      </trkpt>
      <trkpt lat="42.55557" lon="2.66323">
        <ele>583</ele>
        <time>2021-08-31T02:39:35.658Z</time>
      </trkpt>
      <trkpt lat="42.55559" lon="2.66339">
        <ele>581.2</ele>
        <time>2021-08-31T02:39:36.666Z</time>
      </trkpt>
      <trkpt lat="42.55556" lon="2.66355">
        <ele>579.6</ele>
        <time>2021-08-31T02:39:37.690Z</time>
      </trkpt>
      <trkpt lat="42.55552" lon="2.66371">
        <ele>578</ele>
        <time>2021-08-31T02:39:38.739Z</time>
      </trkpt>
      <trkpt lat="42.55534" lon="2.66403">
        <ele>575.9</ele>
        <time>2021-08-31T02:39:41.237Z</time>
      </trkpt>
      <trkpt lat="42.55515" lon="2.66431">
        <ele>572.8</ele>
        <time>2021-08-31T02:39:43.600Z</time>
      </trkpt>
      <trkpt lat="42.555" lon="2.66445">
        <ele>570.5</ele>
        <time>2021-08-31T02:39:45.133Z</time>
      </trkpt>
      <trkpt lat="42.55483" lon="2.66459">
        <ele>568.7</ele>
        <time>2021-08-31T02:39:46.808Z</time>
      </trkpt>
      <trkpt lat="42.55471" lon="2.66468">
        <ele>567.8</ele>
        <time>2021-08-31T02:39:47.875Z</time>
      </trkpt>
      <trkpt lat="42.55461" lon="2.66472">
        <ele>567.6</ele>
        <time>2021-08-31T02:39:49.132Z</time>
      </trkpt>
      <trkpt lat="42.55451" lon="2.66473">
        <ele>568.2</ele>
        <time>2021-08-31T02:39:52.178Z</time>
      </trkpt>
      <trkpt lat="42.55433" lon="2.66471">
        <ele>570.2</ele>
        <time>2021-08-31T02:40:00.704Z</time>
      </trkpt>
      <trkpt lat="42.55415" lon="2.66478">
        <ele>570.5</ele>
        <time>2021-08-31T02:40:04.271Z</time>
      </trkpt>
      <trkpt lat="42.55397" lon="2.66496">
        <ele>570.5</ele>
        <time>2021-08-31T02:40:07.905Z</time>
      </trkpt>
      <trkpt lat="42.55385" lon="2.66517">
        <ele>568.9</ele>
        <time>2021-08-31T02:40:09.554Z</time>
      </trkpt>
      <trkpt lat="42.55378" lon="2.66544">
        <ele>565.2</ele>
        <time>2021-08-31T02:40:11.330Z</time>
      </trkpt>
      <trkpt lat="42.55359" lon="2.66581">
        <ele>563.5</ele>
        <time>2021-08-31T02:40:14.236Z</time>
      </trkpt>
      <trkpt lat="42.55355" lon="2.66594">
        <ele>561.9</ele>
        <time>2021-08-31T02:40:15.110Z</time>
      </trkpt>
      <trkpt lat="42.55351" lon="2.66635">
        <ele>554.9</ele>
        <time>2021-08-31T02:40:17.677Z</time>
      </trkpt>
      <trkpt lat="42.55344" lon="2.66661">
        <ele>552.4</ele>
        <time>2021-08-31T02:40:19.395Z</time>
      </trkpt>
      <trkpt lat="42.55331" lon="2.66686">
        <ele>551.5</ele>
        <time>2021-08-31T02:40:21.577Z</time>
      </trkpt>
      <trkpt lat="42.55312" lon="2.66708">
        <ele>551.4</ele>
        <time>2021-08-31T02:40:25.401Z</time>
      </trkpt>
      <trkpt lat="42.55298" lon="2.66729">
        <ele>550.7</ele>
        <time>2021-08-31T02:40:27.551Z</time>
      </trkpt>
      <trkpt lat="42.55277" lon="2.66788">
        <ele>542.5</ele>
        <time>2021-08-31T02:40:31.618Z</time>
      </trkpt>
      <trkpt lat="42.55265" lon="2.66805">
        <ele>540.9</ele>
        <time>2021-08-31T02:40:33.079Z</time>
      </trkpt>
      <trkpt lat="42.55228" lon="2.66835">
        <ele>538</ele>
        <time>2021-08-31T02:40:36.710Z</time>
      </trkpt>
      <trkpt lat="42.55207" lon="2.66855">
        <ele>535.6</ele>
        <time>2021-08-31T02:40:38.871Z</time>
      </trkpt>
      <trkpt lat="42.55183" lon="2.66884">
        <ele>531.9</ele>
        <time>2021-08-31T02:40:41.578Z</time>
      </trkpt>
      <trkpt lat="42.55176" lon="2.66891">
        <ele>531.5</ele>
        <time>2021-08-31T02:40:42.373Z</time>
      </trkpt>
      <trkpt lat="42.55163" lon="2.66895">
        <ele>531.2</ele>
        <time>2021-08-31T02:40:43.920Z</time>
      </trkpt>
      <trkpt lat="42.55153" lon="2.66896">
        <ele>529.8</ele>
        <time>2021-08-31T02:40:44.764Z</time>
      </trkpt>
      <trkpt lat="42.55137" lon="2.66894">
        <ele>528.2</ele>
        <time>2021-08-31T02:40:46.118Z</time>
      </trkpt>
      <trkpt lat="42.55122" lon="2.66889">
        <ele>527.2</ele>
        <time>2021-08-31T02:40:47.328Z</time>
      </trkpt>
      <trkpt lat="42.55113" lon="2.66883">
        <ele>527.3</ele>
        <time>2021-08-31T02:40:49.121Z</time>
      </trkpt>
      <trkpt lat="42.55103" lon="2.66871">
        <ele>528.3</ele>
        <time>2021-08-31T02:40:53.655Z</time>
      </trkpt>
      <trkpt lat="42.55082" lon="2.66832">
        <ele>533.4</ele>
        <time>2021-08-31T02:41:15.966Z</time>
      </trkpt>
      <trkpt lat="42.55074" lon="2.6682">
        <ele>535.5</ele>
        <time>2021-08-31T02:41:23.440Z</time>
      </trkpt>
      <trkpt lat="42.55066" lon="2.6681">
        <ele>537.2</ele>
        <time>2021-08-31T02:41:30.258Z</time>
      </trkpt>
      <trkpt lat="42.55048" lon="2.66794">
        <ele>539.9</ele>
        <time>2021-08-31T02:41:42.358Z</time>
      </trkpt>
      <trkpt lat="42.55041" lon="2.66793">
        <ele>540.1</ele>
        <time>2021-08-31T02:41:43.905Z</time>
      </trkpt>
      <trkpt lat="42.55034" lon="2.66794">
        <ele>540</ele>
        <time>2021-08-31T02:41:44.806Z</time>
      </trkpt>
      <trkpt lat="42.55029" lon="2.66799">
        <ele>539.3</ele>
        <time>2021-08-31T02:41:45.330Z</time>
      </trkpt>
      <trkpt lat="42.55023" lon="2.66809">
        <ele>538.2</ele>
        <time>2021-08-31T02:41:46.130Z</time>
      </trkpt>
      <trkpt lat="42.55018" lon="2.66827">
        <ele>536.1</ele>
        <time>2021-08-31T02:41:47.324Z</time>
      </trkpt>
      <trkpt lat="42.55006" lon="2.66902">
        <ele>527.2</ele>
        <time>2021-08-31T02:41:52.087Z</time>
      </trkpt>
      <trkpt lat="42.55" lon="2.66994">
        <ele>519.7</ele>
        <time>2021-08-31T02:41:57.819Z</time>
      </trkpt>
      <trkpt lat="42.55" lon="2.67019">
        <ele>517.5</ele>
        <time>2021-08-31T02:41:59.371Z</time>
      </trkpt>
      <trkpt lat="42.55001" lon="2.67039">
        <ele>515.6</ele>
        <time>2021-08-31T02:42:00.615Z</time>
      </trkpt>
      <trkpt lat="42.55005" lon="2.67061">
        <ele>512.8</ele>
        <time>2021-08-31T02:42:02.021Z</time>
      </trkpt>
      <trkpt lat="42.55038" lon="2.6718">
        <ele>501.5</ele>
        <time>2021-08-31T02:42:09.913Z</time>
      </trkpt>
      <trkpt lat="42.55044" lon="2.6721">
        <ele>500.1</ele>
        <time>2021-08-31T02:42:11.757Z</time>
      </trkpt>
      <trkpt lat="42.55042" lon="2.67226">
        <ele>500.1</ele>
        <time>2021-08-31T02:42:13.701Z</time>
      </trkpt>
      <trkpt lat="42.5503" lon="2.67284">
        <ele>501.1</ele>
        <time>2021-08-31T02:42:22.790Z</time>
      </trkpt>
      <trkpt lat="42.55025" lon="2.67347">
        <ele>500.2</ele>
        <time>2021-08-31T02:42:28.412Z</time>
      </trkpt>
      <trkpt lat="42.55026" lon="2.67362">
        <ele>500.3</ele>
        <time>2021-08-31T02:42:30.378Z</time>
      </trkpt>
      <trkpt lat="42.55029" lon="2.6737">
        <ele>500.1</ele>
        <time>2021-08-31T02:42:31.083Z</time>
      </trkpt>
      <trkpt lat="42.55052" lon="2.6741">
        <ele>495.4</ele>
        <time>2021-08-31T02:42:34.232Z</time>
      </trkpt>
      <trkpt lat="42.55075" lon="2.67465">
        <ele>491.9</ele>
        <time>2021-08-31T02:42:38.157Z</time>
      </trkpt>
      <trkpt lat="42.55093" lon="2.67497">
        <ele>489.7</ele>
        <time>2021-08-31T02:42:40.656Z</time>
      </trkpt>
      <trkpt lat="42.55097" lon="2.67513">
        <ele>488.5</ele>
        <time>2021-08-31T02:42:41.704Z</time>
      </trkpt>
      <trkpt lat="42.55095" lon="2.6753">
        <ele>487.7</ele>
        <time>2021-08-31T02:42:42.710Z</time>
      </trkpt>
      <trkpt lat="42.55083" lon="2.67548">
        <ele>488.1</ele>
        <time>2021-08-31T02:42:46.366Z</time>
      </trkpt>
      <trkpt lat="42.55044" lon="2.67588">
        <ele>496</ele>
        <time>2021-08-31T02:43:17.011Z</time>
      </trkpt>
      <trkpt lat="42.55035" lon="2.67601">
        <ele>497</ele>
        <time>2021-08-31T02:43:21.517Z</time>
      </trkpt>
      <trkpt lat="42.55012" lon="2.67652">
        <ele>498</ele>
        <time>2021-08-31T02:43:30.556Z</time>
      </trkpt>
      <trkpt lat="42.55003" lon="2.67668">
        <ele>499</ele>
        <time>2021-08-31T02:43:35.315Z</time>
      </trkpt>
      <trkpt lat="42.54926" lon="2.6779">
        <ele>508.7</ele>
        <time>2021-08-31T02:44:17.860Z</time>
      </trkpt>
      <trkpt lat="42.54903" lon="2.67818">
        <ele>510.4</ele>
        <time>2021-08-31T02:44:26.940Z</time>
      </trkpt>
      <trkpt lat="42.54887" lon="2.67835">
        <ele>511.7</ele>
        <time>2021-08-31T02:44:33.297Z</time>
      </trkpt>
      <trkpt lat="42.54876" lon="2.6785">
        <ele>513</ele>
        <time>2021-08-31T02:44:38.968Z</time>
      </trkpt>
      <trkpt lat="42.54827" lon="2.67934">
        <ele>521.8</ele>
        <time>2021-08-31T02:45:16.537Z</time>
      </trkpt>
      <trkpt lat="42.54823" lon="2.67943">
        <ele>523.5</ele>
        <time>2021-08-31T02:45:21.392Z</time>
      </trkpt>
      <trkpt lat="42.54821" lon="2.67953">
        <ele>524.1</ele>
        <time>2021-08-31T02:45:24.062Z</time>
      </trkpt>
      <trkpt lat="42.54824" lon="2.67975">
        <ele>523.8</ele>
        <time>2021-08-31T02:45:26.072Z</time>
      </trkpt>
      <trkpt lat="42.54828" lon="2.67989">
        <ele>522.6</ele>
        <time>2021-08-31T02:45:27.004Z</time>
      </trkpt>
      <trkpt lat="42.5483" lon="2.68004">
        <ele>522</ele>
        <time>2021-08-31T02:45:27.968Z</time>
      </trkpt>
      <trkpt lat="42.5483" lon="2.68025">
        <ele>521</ele>
        <time>2021-08-31T02:45:29.180Z</time>
      </trkpt>
      <trkpt lat="42.54825" lon="2.68058">
        <ele>521.2</ele>
        <time>2021-08-31T02:45:33.536Z</time>
      </trkpt>
      <trkpt lat="42.54821" lon="2.6807">
        <ele>521.7</ele>
        <time>2021-08-31T02:45:36.322Z</time>
      </trkpt>
      <trkpt lat="42.54816" lon="2.68081">
        <ele>522.9</ele>
        <time>2021-08-31T02:45:41.714Z</time>
      </trkpt>
      <trkpt lat="42.54801" lon="2.68098">
        <ele>527.3</ele>
        <time>2021-08-31T02:45:53.965Z</time>
      </trkpt>
      <trkpt lat="42.54788" lon="2.68108">
        <ele>530.3</ele>
        <time>2021-08-31T02:46:03.333Z</time>
      </trkpt>
      <trkpt lat="42.54757" lon="2.68121">
        <ele>536.6</ele>
        <time>2021-08-31T02:46:23.674Z</time>
      </trkpt>
      <trkpt lat="42.54684" lon="2.68145">
        <ele>544.5</ele>
        <time>2021-08-31T02:46:57.109Z</time>
      </trkpt>
      <trkpt lat="42.54639" lon="2.68178">
        <ele>548.1</ele>
        <time>2021-08-31T02:47:13.886Z</time>
      </trkpt>
      <trkpt lat="42.54633" lon="2.68186">
        <ele>549.8</ele>
        <time>2021-08-31T02:47:19.159Z</time>
      </trkpt>
      <trkpt lat="42.54629" lon="2.68195">
        <ele>551</ele>
        <time>2021-08-31T02:47:24.014Z</time>
      </trkpt>
      <trkpt lat="42.54628" lon="2.68206">
        <ele>551.8</ele>
        <time>2021-08-31T02:47:27.399Z</time>
      </trkpt>
      <trkpt lat="42.5463" lon="2.68217">
        <ele>552.2</ele>
        <time>2021-08-31T02:47:29.739Z</time>
      </trkpt>
      <trkpt lat="42.54635" lon="2.68226">
        <ele>552.2</ele>
        <time>2021-08-31T02:47:31.089Z</time>
      </trkpt>
      <trkpt lat="42.54647" lon="2.68236">
        <ele>551.3</ele>
        <time>2021-08-31T02:47:32.199Z</time>
      </trkpt>
      <trkpt lat="42.54655" lon="2.68238">
        <ele>550.4</ele>
        <time>2021-08-31T02:47:32.884Z</time>
      </trkpt>
      <trkpt lat="42.54666" lon="2.68237">
        <ele>548.9</ele>
        <time>2021-08-31T02:47:33.813Z</time>
      </trkpt>
      <trkpt lat="42.54681" lon="2.68231">
        <ele>547.4</ele>
        <time>2021-08-31T02:47:35.130Z</time>
      </trkpt>
      <trkpt lat="42.54698" lon="2.68226">
        <ele>545.9</ele>
        <time>2021-08-31T02:47:36.596Z</time>
      </trkpt>
      <trkpt lat="42.54726" lon="2.68227">
        <ele>544.5</ele>
        <time>2021-08-31T02:47:39.070Z</time>
      </trkpt>
      <trkpt lat="42.54743" lon="2.68231">
        <ele>544.2</ele>
        <time>2021-08-31T02:47:41.196Z</time>
      </trkpt>
      <trkpt lat="42.54779" lon="2.68242">
        <ele>545.8</ele>
        <time>2021-08-31T02:47:51.145Z</time>
      </trkpt>
      <trkpt lat="42.54793" lon="2.68243">
        <ele>545.7</ele>
        <time>2021-08-31T02:47:53.199Z</time>
      </trkpt>
      <trkpt lat="42.54806" lon="2.68242">
        <ele>545.2</ele>
        <time>2021-08-31T02:47:54.478Z</time>
      </trkpt>
      <trkpt lat="42.5484" lon="2.68233">
        <ele>541.6</ele>
        <time>2021-08-31T02:47:57.397Z</time>
      </trkpt>
      <trkpt lat="42.54849" lon="2.68233">
        <ele>541.7</ele>
        <time>2021-08-31T02:47:59.025Z</time>
      </trkpt>
      <trkpt lat="42.54857" lon="2.68236">
        <ele>542.7</ele>
        <time>2021-08-31T02:48:03.408Z</time>
      </trkpt>
      <trkpt lat="42.54886" lon="2.6826">
        <ele>547.9</ele>
        <time>2021-08-31T02:48:24.702Z</time>
      </trkpt>
      <trkpt lat="42.54897" lon="2.68271">
        <ele>548.6</ele>
        <time>2021-08-31T02:48:28.617Z</time>
      </trkpt>
      <trkpt lat="42.54901" lon="2.68279">
        <ele>548.8</ele>
        <time>2021-08-31T02:48:30.175Z</time>
      </trkpt>
      <trkpt lat="42.54906" lon="2.68294">
        <ele>549.2</ele>
        <time>2021-08-31T02:48:33.000Z</time>
      </trkpt>
      <trkpt lat="42.54906" lon="2.68304">
        <ele>549.7</ele>
        <time>2021-08-31T02:48:35.372Z</time>
      </trkpt>
      <trkpt lat="42.54905" lon="2.68311">
        <ele>550.2</ele>
        <time>2021-08-31T02:48:37.492Z</time>
      </trkpt>
      <trkpt lat="42.54897" lon="2.68328">
        <ele>552.7</ele>
        <time>2021-08-31T02:48:46.809Z</time>
      </trkpt>
      <trkpt lat="42.54867" lon="2.68366">
        <ele>552.2</ele>
        <time>2021-08-31T02:48:52.204Z</time>
      </trkpt>
      <trkpt lat="42.54836" lon="2.68409">
        <ele>550.7</ele>
        <time>2021-08-31T02:48:56.757Z</time>
      </trkpt>
      <trkpt lat="42.54826" lon="2.68419">
        <ele>550.3</ele>
        <time>2021-08-31T02:48:58.055Z</time>
      </trkpt>
      <trkpt lat="42.54817" lon="2.68425">
        <ele>550</ele>
        <time>2021-08-31T02:48:59.127Z</time>
      </trkpt>
      <trkpt lat="42.54805" lon="2.6843">
        <ele>550.2</ele>
        <time>2021-08-31T02:49:01.516Z</time>
      </trkpt>
      <trkpt lat="42.54711" lon="2.68462">
        <ele>551.5</ele>
        <time>2021-08-31T02:49:19.475Z</time>
      </trkpt>
      <trkpt lat="42.54659" lon="2.68472">
        <ele>551.2</ele>
        <time>2021-08-31T02:49:27.324Z</time>
      </trkpt>
      <trkpt lat="42.54633" lon="2.68473">
        <ele>551.4</ele>
        <time>2021-08-31T02:49:31.872Z</time>
      </trkpt>
      <trkpt lat="42.54604" lon="2.68468">
        <ele>553.2</ele>
        <time>2021-08-31T02:49:40.862Z</time>
      </trkpt>
      <trkpt lat="42.54553" lon="2.68466">
        <ele>551.6</ele>
        <time>2021-08-31T02:49:46.239Z</time>
      </trkpt>
      <trkpt lat="42.54502" lon="2.68453">
        <ele>551.5</ele>
        <time>2021-08-31T02:49:54.431Z</time>
      </trkpt>
      <trkpt lat="42.54472" lon="2.68443">
        <ele>556.4</ele>
        <time>2021-08-31T02:50:13.798Z</time>
      </trkpt>
      <trkpt lat="42.54463" lon="2.68441">
        <ele>557.8</ele>
        <time>2021-08-31T02:50:19.516Z</time>
      </trkpt>
      <trkpt lat="42.54455" lon="2.68441">
        <ele>558.4</ele>
        <time>2021-08-31T02:50:22.235Z</time>
      </trkpt>
      <trkpt lat="42.54447" lon="2.68445">
        <ele>557.4</ele>
        <time>2021-08-31T02:50:22.953Z</time>
      </trkpt>
      <trkpt lat="42.54431" lon="2.68465">
        <ele>550.8</ele>
        <time>2021-08-31T02:50:24.786Z</time>
      </trkpt>
      <trkpt lat="42.54415" lon="2.68476">
        <ele>546.7</ele>
        <time>2021-08-31T02:50:26.296Z</time>
      </trkpt>
      <trkpt lat="42.54404" lon="2.6848">
        <ele>545.7</ele>
        <time>2021-08-31T02:50:27.256Z</time>
      </trkpt>
      <trkpt lat="42.5439" lon="2.6848">
        <ele>546.1</ele>
        <time>2021-08-31T02:50:30.338Z</time>
      </trkpt>
      <trkpt lat="42.54376" lon="2.68478">
        <ele>546.9</ele>
        <time>2021-08-31T02:50:34.526Z</time>
      </trkpt>
      <trkpt lat="42.54364" lon="2.68474">
        <ele>548.7</ele>
        <time>2021-08-31T02:50:42.273Z</time>
      </trkpt>
      <trkpt lat="42.54349" lon="2.68465">
        <ele>552.3</ele>
        <time>2021-08-31T02:50:52.555Z</time>
      </trkpt>
      <trkpt lat="42.54339" lon="2.6846">
        <ele>553.9</ele>
        <time>2021-08-31T02:50:59.236Z</time>
      </trkpt>
      <trkpt lat="42.54329" lon="2.6846">
        <ele>553.7</ele>
        <time>2021-08-31T02:51:00.430Z</time>
      </trkpt>
      <trkpt lat="42.54296" lon="2.68466">
        <ele>550.1</ele>
        <time>2021-08-31T02:51:03.235Z</time>
      </trkpt>
      <trkpt lat="42.54266" lon="2.68465">
        <ele>548.7</ele>
        <time>2021-08-31T02:51:05.966Z</time>
      </trkpt>
      <trkpt lat="42.54238" lon="2.6846">
        <ele>548.4</ele>
        <time>2021-08-31T02:51:09.755Z</time>
      </trkpt>
      <trkpt lat="42.54226" lon="2.68456">
        <ele>548.9</ele>
        <time>2021-08-31T02:51:12.946Z</time>
      </trkpt>
      <trkpt lat="42.54197" lon="2.68438">
        <ele>551.9</ele>
        <time>2021-08-31T02:51:25.689Z</time>
      </trkpt>
      <trkpt lat="42.5419" lon="2.68436">
        <ele>551.9</ele>
        <time>2021-08-31T02:51:26.852Z</time>
      </trkpt>
      <trkpt lat="42.54183" lon="2.68437">
        <ele>551.3</ele>
        <time>2021-08-31T02:51:27.445Z</time>
      </trkpt>
      <trkpt lat="42.54175" lon="2.68442">
        <ele>549.4</ele>
        <time>2021-08-31T02:51:28.187Z</time>
      </trkpt>
      <trkpt lat="42.54169" lon="2.68449">
        <ele>547.3</ele>
        <time>2021-08-31T02:51:28.854Z</time>
      </trkpt>
      <trkpt lat="42.54161" lon="2.68457">
        <ele>545.7</ele>
        <time>2021-08-31T02:51:29.691Z</time>
      </trkpt>
      <trkpt lat="42.54152" lon="2.68461">
        <ele>545.3</ele>
        <time>2021-08-31T02:51:30.588Z</time>
      </trkpt>
      <trkpt lat="42.54144" lon="2.68461">
        <ele>545.8</ele>
        <time>2021-08-31T02:51:33.064Z</time>
      </trkpt>
      <trkpt lat="42.54136" lon="2.68458">
        <ele>547.1</ele>
        <time>2021-08-31T02:51:38.268Z</time>
      </trkpt>
      <trkpt lat="42.54114" lon="2.68443">
        <ele>551.8</ele>
        <time>2021-08-31T02:51:53.703Z</time>
      </trkpt>
      <trkpt lat="42.54105" lon="2.68441">
        <ele>552.8</ele>
        <time>2021-08-31T02:51:57.958Z</time>
      </trkpt>
      <trkpt lat="42.54094" lon="2.68442">
        <ele>553.2</ele>
        <time>2021-08-31T02:52:00.642Z</time>
      </trkpt>
      <trkpt lat="42.54075" lon="2.68455">
        <ele>552.1</ele>
        <time>2021-08-31T02:52:02.494Z</time>
      </trkpt>
      <trkpt lat="42.54033" lon="2.685">
        <ele>548.1</ele>
        <time>2021-08-31T02:52:07.002Z</time>
      </trkpt>
      <trkpt lat="42.54001" lon="2.68539">
        <ele>547.3</ele>
        <time>2021-08-31T02:52:12.223Z</time>
      </trkpt>
      <trkpt lat="42.53989" lon="2.68564">
        <ele>545.2</ele>
        <time>2021-08-31T02:52:14.075Z</time>
      </trkpt>
      <trkpt lat="42.53978" lon="2.68594">
        <ele>542.8</ele>
        <time>2021-08-31T02:52:16.156Z</time>
      </trkpt>
      <trkpt lat="42.53963" lon="2.68619">
        <ele>541.3</ele>
        <time>2021-08-31T02:52:18.039Z</time>
      </trkpt>
      <trkpt lat="42.53952" lon="2.68629">
        <ele>541.1</ele>
        <time>2021-08-31T02:52:19.716Z</time>
      </trkpt>
      <trkpt lat="42.53906" lon="2.68663">
        <ele>541.7</ele>
        <time>2021-08-31T02:52:29.228Z</time>
      </trkpt>
      <trkpt lat="42.53892" lon="2.68676">
        <ele>542.1</ele>
        <time>2021-08-31T02:52:32.745Z</time>
      </trkpt>
      <trkpt lat="42.53883" lon="2.68688">
        <ele>542.2</ele>
        <time>2021-08-31T02:52:34.956Z</time>
      </trkpt>
      <trkpt lat="42.53864" lon="2.68727">
        <ele>540.9</ele>
        <time>2021-08-31T02:52:38.362Z</time>
      </trkpt>
      <trkpt lat="42.53856" lon="2.68737">
        <ele>541.2</ele>
        <time>2021-08-31T02:52:40.727Z</time>
      </trkpt>
      <trkpt lat="42.5384" lon="2.68761">
        <ele>541.8</ele>
        <time>2021-08-31T02:52:45.764Z</time>
      </trkpt>
      <trkpt lat="42.53831" lon="2.68783">
        <ele>541.6</ele>
        <time>2021-08-31T02:52:48.246Z</time>
      </trkpt>
      <trkpt lat="42.53827" lon="2.68799">
        <ele>540.5</ele>
        <time>2021-08-31T02:52:49.295Z</time>
      </trkpt>
      <trkpt lat="42.5383" lon="2.68821">
        <ele>540</ele>
        <time>2021-08-31T02:52:51.051Z</time>
      </trkpt>
      <trkpt lat="42.53835" lon="2.68842">
        <ele>539.4</ele>
        <time>2021-08-31T02:52:52.672Z</time>
      </trkpt>
      <trkpt lat="42.53837" lon="2.68857">
        <ele>538.6</ele>
        <time>2021-08-31T02:52:53.618Z</time>
      </trkpt>
      <trkpt lat="42.53834" lon="2.68872">
        <ele>538.4</ele>
        <time>2021-08-31T02:52:55.027Z</time>
      </trkpt>
      <trkpt lat="42.5382" lon="2.68916">
        <ele>536.5</ele>
        <time>2021-08-31T02:52:58.047Z</time>
      </trkpt>
      <trkpt lat="42.53816" lon="2.68939">
        <ele>536.2</ele>
        <time>2021-08-31T02:53:00.197Z</time>
      </trkpt>
      <trkpt lat="42.53825" lon="2.68979">
        <ele>535.7</ele>
        <time>2021-08-31T02:53:04.047Z</time>
      </trkpt>
      <trkpt lat="42.53826" lon="2.68992">
        <ele>535.4</ele>
        <time>2021-08-31T02:53:05.064Z</time>
      </trkpt>
      <trkpt lat="42.53823" lon="2.69021">
        <ele>536.2</ele>
        <time>2021-08-31T02:53:10.375Z</time>
      </trkpt>
      <trkpt lat="42.53824" lon="2.69032">
        <ele>536.6</ele>
        <time>2021-08-31T02:53:12.681Z</time>
      </trkpt>
      <trkpt lat="42.53827" lon="2.6904">
        <ele>536.9</ele>
        <time>2021-08-31T02:53:14.505Z</time>
      </trkpt>
      <trkpt lat="42.53839" lon="2.69054">
        <ele>536.7</ele>
        <time>2021-08-31T02:53:16.573Z</time>
      </trkpt>
      <trkpt lat="42.53851" lon="2.69062">
        <ele>535.2</ele>
        <time>2021-08-31T02:53:17.699Z</time>
      </trkpt>
      <trkpt lat="42.53883" lon="2.69091">
        <ele>531.8</ele>
        <time>2021-08-31T02:53:20.941Z</time>
      </trkpt>
      <trkpt lat="42.53901" lon="2.69108">
        <ele>529.8</ele>
        <time>2021-08-31T02:53:22.788Z</time>
      </trkpt>
      <trkpt lat="42.53911" lon="2.6912">
        <ele>528.8</ele>
        <time>2021-08-31T02:53:23.913Z</time>
      </trkpt>
      <trkpt lat="42.53925" lon="2.69146">
        <ele>527.8</ele>
        <time>2021-08-31T02:53:26.162Z</time>
      </trkpt>
      <trkpt lat="42.53929" lon="2.69177">
        <ele>528.8</ele>
        <time>2021-08-31T02:53:32.392Z</time>
      </trkpt>
      <trkpt lat="42.53937" lon="2.69198">
        <ele>529</ele>
        <time>2021-08-31T02:53:35.556Z</time>
      </trkpt>
      <trkpt lat="42.53943" lon="2.69207">
        <ele>528.7</ele>
        <time>2021-08-31T02:53:36.478Z</time>
      </trkpt>
      <trkpt lat="42.53977" lon="2.69236">
        <ele>524.5</ele>
        <time>2021-08-31T02:53:39.861Z</time>
      </trkpt>
      <trkpt lat="42.53986" lon="2.69242">
        <ele>523.3</ele>
        <time>2021-08-31T02:53:40.706Z</time>
      </trkpt>
      <trkpt lat="42.53995" lon="2.69246">
        <ele>521.6</ele>
        <time>2021-08-31T02:53:41.503Z</time>
      </trkpt>
      <trkpt lat="42.54006" lon="2.69246">
        <ele>520.5</ele>
        <time>2021-08-31T02:53:42.430Z</time>
      </trkpt>
      <trkpt lat="42.5403" lon="2.69241">
        <ele>519.1</ele>
        <time>2021-08-31T02:53:44.441Z</time>
      </trkpt>
      <trkpt lat="42.54041" lon="2.69241">
        <ele>518.6</ele>
        <time>2021-08-31T02:53:45.453Z</time>
      </trkpt>
      <trkpt lat="42.54051" lon="2.69246">
        <ele>518.6</ele>
        <time>2021-08-31T02:53:47.185Z</time>
      </trkpt>
      <trkpt lat="42.54082" lon="2.69268">
        <ele>519.4</ele>
        <time>2021-08-31T02:53:54.378Z</time>
      </trkpt>
      <trkpt lat="42.54093" lon="2.69273">
        <ele>518.3</ele>
        <time>2021-08-31T02:53:55.355Z</time>
      </trkpt>
      <trkpt lat="42.54118" lon="2.69278">
        <ele>514.9</ele>
        <time>2021-08-31T02:53:57.484Z</time>
      </trkpt>
      <trkpt lat="42.54127" lon="2.69282">
        <ele>513.7</ele>
        <time>2021-08-31T02:53:58.282Z</time>
      </trkpt>
      <trkpt lat="42.54136" lon="2.69294">
        <ele>512.9</ele>
        <time>2021-08-31T02:53:59.280Z</time>
      </trkpt>
      <trkpt lat="42.54138" lon="2.69301">
        <ele>512.9</ele>
        <time>2021-08-31T02:54:00.179Z</time>
      </trkpt>
      <trkpt lat="42.5414" lon="2.69334">
        <ele>513.8</ele>
        <time>2021-08-31T02:54:06.168Z</time>
      </trkpt>
      <trkpt lat="42.54142" lon="2.69346">
        <ele>514.2</ele>
        <time>2021-08-31T02:54:08.641Z</time>
      </trkpt>
      <trkpt lat="42.54148" lon="2.69359">
        <ele>514.1</ele>
        <time>2021-08-31T02:54:10.194Z</time>
      </trkpt>
      <trkpt lat="42.54157" lon="2.69368">
        <ele>513.1</ele>
        <time>2021-08-31T02:54:11.136Z</time>
      </trkpt>
      <trkpt lat="42.54184" lon="2.69376">
        <ele>509.1</ele>
        <time>2021-08-31T02:54:13.464Z</time>
      </trkpt>
      <trkpt lat="42.5419" lon="2.69382">
        <ele>508.4</ele>
        <time>2021-08-31T02:54:14.092Z</time>
      </trkpt>
      <trkpt lat="42.54196" lon="2.69396">
        <ele>508.1</ele>
        <time>2021-08-31T02:54:15.436Z</time>
      </trkpt>
      <trkpt lat="42.54197" lon="2.69404">
        <ele>508.4</ele>
        <time>2021-08-31T02:54:17.137Z</time>
      </trkpt>
      <trkpt lat="42.54196" lon="2.69426">
        <ele>509.9</ele>
        <time>2021-08-31T02:54:23.526Z</time>
      </trkpt>
      <trkpt lat="42.54199" lon="2.69446">
        <ele>510.3</ele>
        <time>2021-08-31T02:54:26.758Z</time>
      </trkpt>
      <trkpt lat="42.54208" lon="2.6946">
        <ele>509.5</ele>
        <time>2021-08-31T02:54:27.884Z</time>
      </trkpt>
      <trkpt lat="42.54235" lon="2.69476">
        <ele>505.4</ele>
        <time>2021-08-31T02:54:30.366Z</time>
      </trkpt>
      <trkpt lat="42.5424" lon="2.69483">
        <ele>504.8</ele>
        <time>2021-08-31T02:54:30.972Z</time>
      </trkpt>
      <trkpt lat="42.54244" lon="2.69492">
        <ele>504.6</ele>
        <time>2021-08-31T02:54:31.837Z</time>
      </trkpt>
      <trkpt lat="42.54247" lon="2.69513">
        <ele>503.9</ele>
        <time>2021-08-31T02:54:33.300Z</time>
      </trkpt>
      <trkpt lat="42.54246" lon="2.69527">
        <ele>503.4</ele>
        <time>2021-08-31T02:54:34.230Z</time>
      </trkpt>
      <trkpt lat="42.54237" lon="2.69584">
        <ele>503</ele>
        <time>2021-08-31T02:54:40.094Z</time>
      </trkpt>
      <trkpt lat="42.54234" lon="2.69619">
        <ele>504.3</ele>
        <time>2021-08-31T02:54:47.476Z</time>
      </trkpt>
      <trkpt lat="42.54235" lon="2.69643">
        <ele>504.4</ele>
        <time>2021-08-31T02:54:50.511Z</time>
      </trkpt>
      <trkpt lat="42.54241" lon="2.69658">
        <ele>503.4</ele>
        <time>2021-08-31T02:54:51.571Z</time>
      </trkpt>
      <trkpt lat="42.54251" lon="2.6967">
        <ele>502.5</ele>
        <time>2021-08-31T02:54:52.695Z</time>
      </trkpt>
      <trkpt lat="42.54267" lon="2.69678">
        <ele>502.7</ele>
        <time>2021-08-31T02:54:55.800Z</time>
      </trkpt>
      <trkpt lat="42.54297" lon="2.69688">
        <ele>502.2</ele>
        <time>2021-08-31T02:54:59.662Z</time>
      </trkpt>
      <trkpt lat="42.54327" lon="2.69699">
        <ele>501.4</ele>
        <time>2021-08-31T02:55:03.139Z</time>
      </trkpt>
      <trkpt lat="42.54373" lon="2.69707">
        <ele>496.9</ele>
        <time>2021-08-31T02:55:07.046Z</time>
      </trkpt>
      <trkpt lat="42.54386" lon="2.69712">
        <ele>495.6</ele>
        <time>2021-08-31T02:55:08.184Z</time>
      </trkpt>
      <trkpt lat="42.54391" lon="2.69718">
        <ele>495.1</ele>
        <time>2021-08-31T02:55:08.746Z</time>
      </trkpt>
      <trkpt lat="42.54423" lon="2.69769">
        <ele>491</ele>
        <time>2021-08-31T02:55:12.904Z</time>
      </trkpt>
      <trkpt lat="42.54435" lon="2.69793">
        <ele>489.6</ele>
        <time>2021-08-31T02:55:14.568Z</time>
      </trkpt>
      <trkpt lat="42.54436" lon="2.69801">
        <ele>489.5</ele>
        <time>2021-08-31T02:55:15.311Z</time>
      </trkpt>
      <trkpt lat="42.54435" lon="2.69813">
        <ele>489.5</ele>
        <time>2021-08-31T02:55:16.757Z</time>
      </trkpt>
      <trkpt lat="42.54426" lon="2.69839">
        <ele>489.8</ele>
        <time>2021-08-31T02:55:20.710Z</time>
      </trkpt>
      <trkpt lat="42.54414" lon="2.69859">
        <ele>489.6</ele>
        <time>2021-08-31T02:55:23.263Z</time>
      </trkpt>
      <trkpt lat="42.54406" lon="2.69889">
        <ele>489.1</ele>
        <time>2021-08-31T02:55:26.029Z</time>
      </trkpt>
      <trkpt lat="42.5439" lon="2.70016">
        <ele>483.1</ele>
        <time>2021-08-31T02:55:33.552Z</time>
      </trkpt>
      <trkpt lat="42.54389" lon="2.70044">
        <ele>482.1</ele>
        <time>2021-08-31T02:55:35.402Z</time>
      </trkpt>
      <trkpt lat="42.54391" lon="2.70057">
        <ele>481.3</ele>
        <time>2021-08-31T02:55:36.227Z</time>
      </trkpt>
      <trkpt lat="42.54396" lon="2.7007">
        <ele>480.5</ele>
        <time>2021-08-31T02:55:37.137Z</time>
      </trkpt>
      <trkpt lat="42.54401" lon="2.7008">
        <ele>479.8</ele>
        <time>2021-08-31T02:55:37.887Z</time>
      </trkpt>
      <trkpt lat="42.54422" lon="2.70112">
        <ele>477.8</ele>
        <time>2021-08-31T02:55:40.386Z</time>
      </trkpt>
      <trkpt lat="42.54436" lon="2.7014">
        <ele>476.8</ele>
        <time>2021-08-31T02:55:42.796Z</time>
      </trkpt>
      <trkpt lat="42.54443" lon="2.70175">
        <ele>476</ele>
        <time>2021-08-31T02:55:45.653Z</time>
      </trkpt>
      <trkpt lat="42.54441" lon="2.70212">
        <ele>474.2</ele>
        <time>2021-08-31T02:55:47.776Z</time>
      </trkpt>
      <trkpt lat="42.54433" lon="2.70264">
        <ele>472.6</ele>
        <time>2021-08-31T02:55:51.530Z</time>
      </trkpt>
      <trkpt lat="42.54424" lon="2.70308">
        <ele>473.8</ele>
        <time>2021-08-31T02:55:59.652Z</time>
      </trkpt>
      <trkpt lat="42.54402" lon="2.70385">
        <ele>472.8</ele>
        <time>2021-08-31T02:56:07.235Z</time>
      </trkpt>
      <trkpt lat="42.54396" lon="2.70423">
        <ele>472</ele>
        <time>2021-08-31T02:56:10.363Z</time>
      </trkpt>
      <trkpt lat="42.54397" lon="2.70438">
        <ele>471.9</ele>
        <time>2021-08-31T02:56:11.884Z</time>
      </trkpt>
      <trkpt lat="42.54406" lon="2.70468">
        <ele>474.1</ele>
        <time>2021-08-31T02:56:21.258Z</time>
      </trkpt>
      <trkpt lat="42.54413" lon="2.70479">
        <ele>475.7</ele>
        <time>2021-08-31T02:56:27.971Z</time>
      </trkpt>
      <trkpt lat="42.54433" lon="2.70503">
        <ele>479.9</ele>
        <time>2021-08-31T02:56:44.708Z</time>
      </trkpt>
      <trkpt lat="42.54436" lon="2.70512">
        <ele>481.1</ele>
        <time>2021-08-31T02:56:49.271Z</time>
      </trkpt>
      <trkpt lat="42.54436" lon="2.70522">
        <ele>481.6</ele>
        <time>2021-08-31T02:56:51.642Z</time>
      </trkpt>
      <trkpt lat="42.5443" lon="2.70547">
        <ele>481.4</ele>
        <time>2021-08-31T02:56:54.252Z</time>
      </trkpt>
      <trkpt lat="42.54396" lon="2.70631">
        <ele>477.8</ele>
        <time>2021-08-31T02:57:00.436Z</time>
      </trkpt>
      <trkpt lat="42.54388" lon="2.70667">
        <ele>478</ele>
        <time>2021-08-31T02:57:05.258Z</time>
      </trkpt>
      <trkpt lat="42.54385" lon="2.70703">
        <ele>478.5</ele>
        <time>2021-08-31T02:57:10.495Z</time>
      </trkpt>
      <trkpt lat="42.54379" lon="2.70738">
        <ele>478.4</ele>
        <time>2021-08-31T02:57:14.563Z</time>
      </trkpt>
      <trkpt lat="42.54375" lon="2.70752">
        <ele>477.7</ele>
        <time>2021-08-31T02:57:15.440Z</time>
      </trkpt>
      <trkpt lat="42.54363" lon="2.70779">
        <ele>476.9</ele>
        <time>2021-08-31T02:57:17.812Z</time>
      </trkpt>
      <trkpt lat="42.54317" lon="2.70852">
        <ele>473.8</ele>
        <time>2021-08-31T02:57:24.419Z</time>
      </trkpt>
      <trkpt lat="42.54309" lon="2.70868">
        <ele>473.1</ele>
        <time>2021-08-31T02:57:25.687Z</time>
      </trkpt>
      <trkpt lat="42.54305" lon="2.7088">
        <ele>473.2</ele>
        <time>2021-08-31T02:57:27.429Z</time>
      </trkpt>
      <trkpt lat="42.54304" lon="2.70893">
        <ele>473.8</ele>
        <time>2021-08-31T02:57:30.406Z</time>
      </trkpt>
      <trkpt lat="42.5431" lon="2.70914">
        <ele>475.7</ele>
        <time>2021-08-31T02:57:38.574Z</time>
      </trkpt>
      <trkpt lat="42.54317" lon="2.70922">
        <ele>475.8</ele>
        <time>2021-08-31T02:57:40.227Z</time>
      </trkpt>
      <trkpt lat="42.54326" lon="2.70928">
        <ele>476</ele>
        <time>2021-08-31T02:57:42.221Z</time>
      </trkpt>
      <trkpt lat="42.54338" lon="2.70931">
        <ele>476.9</ele>
        <time>2021-08-31T02:57:46.328Z</time>
      </trkpt>
      <trkpt lat="42.54367" lon="2.70932">
        <ele>480</ele>
        <time>2021-08-31T02:57:59.468Z</time>
      </trkpt>
      <trkpt lat="42.54381" lon="2.70935">
        <ele>481</ele>
        <time>2021-08-31T02:58:04.123Z</time>
      </trkpt>
      <trkpt lat="42.54391" lon="2.7094">
        <ele>481.5</ele>
        <time>2021-08-31T02:58:07.092Z</time>
      </trkpt>
      <trkpt lat="42.54413" lon="2.70958">
        <ele>481.1</ele>
        <time>2021-08-31T02:58:10.328Z</time>
      </trkpt>
      <trkpt lat="42.54423" lon="2.70964">
        <ele>481</ele>
        <time>2021-08-31T02:58:11.824Z</time>
      </trkpt>
      <trkpt lat="42.54435" lon="2.70968">
        <ele>481.3</ele>
        <time>2021-08-31T02:58:14.407Z</time>
      </trkpt>
      <trkpt lat="42.54472" lon="2.70962">
        <ele>484.6</ele>
        <time>2021-08-31T02:58:28.577Z</time>
      </trkpt>
      <trkpt lat="42.54484" lon="2.70964">
        <ele>485</ele>
        <time>2021-08-31T02:58:31.397Z</time>
      </trkpt>
      <trkpt lat="42.54489" lon="2.70968">
        <ele>484.9</ele>
        <time>2021-08-31T02:58:32.113Z</time>
      </trkpt>
      <trkpt lat="42.54495" lon="2.70974">
        <ele>484.4</ele>
        <time>2021-08-31T02:58:32.741Z</time>
      </trkpt>
      <trkpt lat="42.54508" lon="2.71007">
        <ele>480.2</ele>
        <time>2021-08-31T02:58:35.064Z</time>
      </trkpt>
      <trkpt lat="42.54515" lon="2.7103">
        <ele>478.5</ele>
        <time>2021-08-31T02:58:36.608Z</time>
      </trkpt>
      <trkpt lat="42.54534" lon="2.71062">
        <ele>477.6</ele>
        <time>2021-08-31T02:58:39.854Z</time>
      </trkpt>
      <trkpt lat="42.54538" lon="2.71072">
        <ele>477.5</ele>
        <time>2021-08-31T02:58:40.960Z</time>
      </trkpt>
      <trkpt lat="42.54541" lon="2.71091">
        <ele>478.2</ele>
        <time>2021-08-31T02:58:44.999Z</time>
      </trkpt>
      <trkpt lat="42.5454" lon="2.71102">
        <ele>479.2</ele>
        <time>2021-08-31T02:58:49.418Z</time>
      </trkpt>
      <trkpt lat="42.54529" lon="2.71136">
        <ele>481.3</ele>
        <time>2021-08-31T02:58:58.847Z</time>
      </trkpt>
      <trkpt lat="42.54473" lon="2.71254">
        <ele>488.3</ele>
        <time>2021-08-31T02:59:32.090Z</time>
      </trkpt>
      <trkpt lat="42.54436" lon="2.71336">
        <ele>487.5</ele>
        <time>2021-08-31T02:59:41.513Z</time>
      </trkpt>
      <trkpt lat="42.54417" lon="2.71358">
        <ele>485.6</ele>
        <time>2021-08-31T02:59:43.617Z</time>
      </trkpt>
      <trkpt lat="42.54406" lon="2.71367">
        <ele>485.1</ele>
        <time>2021-08-31T02:59:44.872Z</time>
      </trkpt>
      <trkpt lat="42.54396" lon="2.71373">
        <ele>484.9</ele>
        <time>2021-08-31T02:59:46.204Z</time>
      </trkpt>
      <trkpt lat="42.54368" lon="2.71383">
        <ele>485.5</ele>
        <time>2021-08-31T02:59:52.013Z</time>
      </trkpt>
      <trkpt lat="42.54343" lon="2.71402">
        <ele>486.4</ele>
        <time>2021-08-31T02:59:58.551Z</time>
      </trkpt>
      <trkpt lat="42.54332" lon="2.71415">
        <ele>487</ele>
        <time>2021-08-31T03:00:02.355Z</time>
      </trkpt>
      <trkpt lat="42.54324" lon="2.71429">
        <ele>485.8</ele>
        <time>2021-08-31T03:00:03.455Z</time>
      </trkpt>
      <trkpt lat="42.54289" lon="2.71518">
        <ele>482.9</ele>
        <time>2021-08-31T03:00:10.712Z</time>
      </trkpt>
      <trkpt lat="42.54279" lon="2.71536">
        <ele>482.7</ele>
        <time>2021-08-31T03:00:12.900Z</time>
      </trkpt>
      <trkpt lat="42.54269" lon="2.71559">
        <ele>481.7</ele>
        <time>2021-08-31T03:00:14.626Z</time>
      </trkpt>
      <trkpt lat="42.54264" lon="2.71587">
        <ele>479.7</ele>
        <time>2021-08-31T03:00:16.414Z</time>
      </trkpt>
      <trkpt lat="42.54266" lon="2.71643">
        <ele>476.5</ele>
        <time>2021-08-31T03:00:19.894Z</time>
      </trkpt>
      <trkpt lat="42.54264" lon="2.7166">
        <ele>476.1</ele>
        <time>2021-08-31T03:00:21.228Z</time>
      </trkpt>
      <trkpt lat="42.54259" lon="2.71675">
        <ele>475.6</ele>
        <time>2021-08-31T03:00:22.388Z</time>
      </trkpt>
      <trkpt lat="42.54252" lon="2.71689">
        <ele>475.4</ele>
        <time>2021-08-31T03:00:23.949Z</time>
      </trkpt>
      <trkpt lat="42.54243" lon="2.71701">
        <ele>475.7</ele>
        <time>2021-08-31T03:00:26.571Z</time>
      </trkpt>
      <trkpt lat="42.54236" lon="2.71709">
        <ele>476.6</ele>
        <time>2021-08-31T03:00:30.378Z</time>
      </trkpt>
      <trkpt lat="42.54229" lon="2.7172">
        <ele>477</ele>
        <time>2021-08-31T03:00:33.023Z</time>
      </trkpt>
      <trkpt lat="42.54225" lon="2.71734">
        <ele>476.7</ele>
        <time>2021-08-31T03:00:34.243Z</time>
      </trkpt>
      <trkpt lat="42.54225" lon="2.71793">
        <ele>473.9</ele>
        <time>2021-08-31T03:00:37.656Z</time>
      </trkpt>
      <trkpt lat="42.54234" lon="2.71822">
        <ele>471.6</ele>
        <time>2021-08-31T03:00:39.609Z</time>
      </trkpt>
      <trkpt lat="42.54264" lon="2.71856">
        <ele>468</ele>
        <time>2021-08-31T03:00:42.902Z</time>
      </trkpt>
      <trkpt lat="42.54272" lon="2.71869">
        <ele>467.3</ele>
        <time>2021-08-31T03:00:43.949Z</time>
      </trkpt>
      <trkpt lat="42.54284" lon="2.71896">
        <ele>467</ele>
        <time>2021-08-31T03:00:46.975Z</time>
      </trkpt>
      <trkpt lat="42.54294" lon="2.71927">
        <ele>467.4</ele>
        <time>2021-08-31T03:00:51.725Z</time>
      </trkpt>
      <trkpt lat="42.543" lon="2.71938">
        <ele>467.1</ele>
        <time>2021-08-31T03:00:52.806Z</time>
      </trkpt>
      <trkpt lat="42.54308" lon="2.71949">
        <ele>466.6</ele>
        <time>2021-08-31T03:00:53.868Z</time>
      </trkpt>
      <trkpt lat="42.54347" lon="2.71986">
        <ele>461.5</ele>
        <time>2021-08-31T03:00:57.877Z</time>
      </trkpt>
      <trkpt lat="42.54355" lon="2.72006">
        <ele>461.2</ele>
        <time>2021-08-31T03:00:59.930Z</time>
      </trkpt>
      <trkpt lat="42.54355" lon="2.72019">
        <ele>461.9</ele>
        <time>2021-08-31T03:01:03.137Z</time>
      </trkpt>
      <trkpt lat="42.54352" lon="2.72044">
        <ele>464</ele>
        <time>2021-08-31T03:01:12.122Z</time>
      </trkpt>
      <trkpt lat="42.54352" lon="2.7207">
        <ele>465.5</ele>
        <time>2021-08-31T03:01:18.806Z</time>
      </trkpt>
      <trkpt lat="42.54363" lon="2.72128">
        <ele>464.6</ele>
        <time>2021-08-31T03:01:24.051Z</time>
      </trkpt>
      <trkpt lat="42.54367" lon="2.72141">
        <ele>464.2</ele>
        <time>2021-08-31T03:01:25.069Z</time>
      </trkpt>
      <trkpt lat="42.54379" lon="2.72167">
        <ele>462</ele>
        <time>2021-08-31T03:01:26.973Z</time>
      </trkpt>
      <trkpt lat="42.54396" lon="2.72219">
        <ele>460.4</ele>
        <time>2021-08-31T03:01:31.099Z</time>
      </trkpt>
      <trkpt lat="42.54411" lon="2.72249">
        <ele>457.6</ele>
        <time>2021-08-31T03:01:33.349Z</time>
      </trkpt>
      <trkpt lat="42.54415" lon="2.72264">
        <ele>456.8</ele>
        <time>2021-08-31T03:01:34.340Z</time>
      </trkpt>
      <trkpt lat="42.54424" lon="2.72311">
        <ele>455.4</ele>
        <time>2021-08-31T03:01:37.829Z</time>
      </trkpt>
      <trkpt lat="42.5444" lon="2.72371">
        <ele>452.9</ele>
        <time>2021-08-31T03:01:41.871Z</time>
      </trkpt>
      <trkpt lat="42.54456" lon="2.72461">
        <ele>449.4</ele>
        <time>2021-08-31T03:01:47.828Z</time>
      </trkpt>
      <trkpt lat="42.54457" lon="2.72479">
        <ele>448.8</ele>
        <time>2021-08-31T03:01:49.055Z</time>
      </trkpt>
      <trkpt lat="42.54456" lon="2.72493">
        <ele>448.8</ele>
        <time>2021-08-31T03:01:50.739Z</time>
      </trkpt>
      <trkpt lat="42.54451" lon="2.7252">
        <ele>448.8</ele>
        <time>2021-08-31T03:01:54.073Z</time>
      </trkpt>
      <trkpt lat="42.54447" lon="2.72536">
        <ele>449</ele>
        <time>2021-08-31T03:01:56.446Z</time>
      </trkpt>
      <trkpt lat="42.54441" lon="2.72602">
        <ele>446.5</ele>
        <time>2021-08-31T03:02:00.736Z</time>
      </trkpt>
      <trkpt lat="42.54436" lon="2.72619">
        <ele>445.9</ele>
        <time>2021-08-31T03:02:01.987Z</time>
      </trkpt>
      <trkpt lat="42.54424" lon="2.72653">
        <ele>444.1</ele>
        <time>2021-08-31T03:02:04.161Z</time>
      </trkpt>
      <trkpt lat="42.54409" lon="2.72677">
        <ele>443</ele>
        <time>2021-08-31T03:02:06.256Z</time>
      </trkpt>
      <trkpt lat="42.544" lon="2.72687">
        <ele>442.8</ele>
        <time>2021-08-31T03:02:07.692Z</time>
      </trkpt>
      <trkpt lat="42.5439" lon="2.72697">
        <ele>442.4</ele>
        <time>2021-08-31T03:02:08.990Z</time>
      </trkpt>
      <trkpt lat="42.54364" lon="2.72716">
        <ele>441.1</ele>
        <time>2021-08-31T03:02:11.741Z</time>
      </trkpt>
      <trkpt lat="42.54309" lon="2.72747">
        <ele>435.2</ele>
        <time>2021-08-31T03:02:16.758Z</time>
      </trkpt>
      <trkpt lat="42.543" lon="2.72754">
        <ele>433.9</ele>
        <time>2021-08-31T03:02:17.632Z</time>
      </trkpt>
      <trkpt lat="42.54293" lon="2.72764">
        <ele>432.5</ele>
        <time>2021-08-31T03:02:18.488Z</time>
      </trkpt>
      <trkpt lat="42.54285" lon="2.72774">
        <ele>431.2</ele>
        <time>2021-08-31T03:02:19.404Z</time>
      </trkpt>
      <trkpt lat="42.54278" lon="2.72789">
        <ele>429.8</ele>
        <time>2021-08-31T03:02:20.506Z</time>
      </trkpt>
      <trkpt lat="42.5426" lon="2.72831">
        <ele>427.1</ele>
        <time>2021-08-31T03:02:23.522Z</time>
      </trkpt>
      <trkpt lat="42.5425" lon="2.72852">
        <ele>424.1</ele>
        <time>2021-08-31T03:02:25.074Z</time>
      </trkpt>
      <trkpt lat="42.54239" lon="2.72871">
        <ele>420.4</ele>
        <time>2021-08-31T03:02:26.574Z</time>
      </trkpt>
      <trkpt lat="42.54221" lon="2.72896">
        <ele>416.2</ele>
        <time>2021-08-31T03:02:28.744Z</time>
      </trkpt>
      <trkpt lat="42.54208" lon="2.72903">
        <ele>415</ele>
        <time>2021-08-31T03:02:29.922Z</time>
      </trkpt>
      <trkpt lat="42.54202" lon="2.72902">
        <ele>414.9</ele>
        <time>2021-08-31T03:02:30.674Z</time>
      </trkpt>
      <trkpt lat="42.54198" lon="2.72899">
        <ele>415.1</ele>
        <time>2021-08-31T03:02:31.914Z</time>
      </trkpt>
      <trkpt lat="42.54194" lon="2.72892">
        <ele>415.6</ele>
        <time>2021-08-31T03:02:34.161Z</time>
      </trkpt>
      <trkpt lat="42.54192" lon="2.72882">
        <ele>416.4</ele>
        <time>2021-08-31T03:02:37.546Z</time>
      </trkpt>
      <trkpt lat="42.54193" lon="2.72844">
        <ele>419.9</ele>
        <time>2021-08-31T03:02:53.187Z</time>
      </trkpt>
      <trkpt lat="42.54195" lon="2.72824">
        <ele>421.9</ele>
        <time>2021-08-31T03:03:02.510Z</time>
      </trkpt>
      <trkpt lat="42.54207" lon="2.72753">
        <ele>428.2</ele>
        <time>2021-08-31T03:03:29.822Z</time>
      </trkpt>
      <trkpt lat="42.54206" lon="2.72744">
        <ele>429.1</ele>
        <time>2021-08-31T03:03:34.026Z</time>
      </trkpt>
      <trkpt lat="42.54202" lon="2.72738">
        <ele>429.8</ele>
        <time>2021-08-31T03:03:37.061Z</time>
      </trkpt>
      <trkpt lat="42.54197" lon="2.72736">
        <ele>429.9</ele>
        <time>2021-08-31T03:03:38.089Z</time>
      </trkpt>
      <trkpt lat="42.54191" lon="2.72737">
        <ele>429.5</ele>
        <time>2021-08-31T03:03:38.557Z</time>
      </trkpt>
      <trkpt lat="42.54186" lon="2.72743">
        <ele>428.6</ele>
        <time>2021-08-31T03:03:39.120Z</time>
      </trkpt>
      <trkpt lat="42.54179" lon="2.72773">
        <ele>425.2</ele>
        <time>2021-08-31T03:03:41.073Z</time>
      </trkpt>
      <trkpt lat="42.5416" lon="2.72817">
        <ele>421.1</ele>
        <time>2021-08-31T03:03:44.239Z</time>
      </trkpt>
      <trkpt lat="42.54152" lon="2.72844">
        <ele>419.6</ele>
        <time>2021-08-31T03:03:46.045Z</time>
      </trkpt>
      <trkpt lat="42.54147" lon="2.72856">
        <ele>419.4</ele>
        <time>2021-08-31T03:03:47.262Z</time>
      </trkpt>
      <trkpt lat="42.5414" lon="2.72865">
        <ele>419.3</ele>
        <time>2021-08-31T03:03:48.560Z</time>
      </trkpt>
      <trkpt lat="42.54114" lon="2.72885">
        <ele>419.8</ele>
        <time>2021-08-31T03:03:54.297Z</time>
      </trkpt>
      <trkpt lat="42.54102" lon="2.72904">
        <ele>418.1</ele>
        <time>2021-08-31T03:03:55.850Z</time>
      </trkpt>
      <trkpt lat="42.54089" lon="2.72958">
        <ele>411.4</ele>
        <time>2021-08-31T03:03:59.377Z</time>
      </trkpt>
      <trkpt lat="42.54083" lon="2.73005">
        <ele>405.7</ele>
        <time>2021-08-31T03:04:02.338Z</time>
      </trkpt>
      <trkpt lat="42.54083" lon="2.73022">
        <ele>404.7</ele>
        <time>2021-08-31T03:04:03.393Z</time>
      </trkpt>
      <trkpt lat="42.54089" lon="2.73062">
        <ele>401.5</ele>
        <time>2021-08-31T03:04:05.927Z</time>
      </trkpt>
      <trkpt lat="42.54105" lon="2.73123">
        <ele>392.8</ele>
        <time>2021-08-31T03:04:09.946Z</time>
      </trkpt>
      <trkpt lat="42.54107" lon="2.73137">
        <ele>390.8</ele>
        <time>2021-08-31T03:04:10.831Z</time>
      </trkpt>
      <trkpt lat="42.54107" lon="2.7315">
        <ele>389.4</ele>
        <time>2021-08-31T03:04:11.638Z</time>
      </trkpt>
      <trkpt lat="42.541" lon="2.7318">
        <ele>387.5</ele>
        <time>2021-08-31T03:04:13.591Z</time>
      </trkpt>
      <trkpt lat="42.54057" lon="2.73323">
        <ele>380.4</ele>
        <time>2021-08-31T03:04:22.668Z</time>
      </trkpt>
      <trkpt lat="42.54018" lon="2.73416">
        <ele>379.4</ele>
        <time>2021-08-31T03:04:32.967Z</time>
      </trkpt>
      <trkpt lat="42.54031" lon="2.73429">
        <ele>379.9</ele>
        <time>2021-08-31T03:04:36.631Z</time>
      </trkpt>
      <trkpt lat="42.54018" lon="2.73416">
        <ele>379.4</ele>
        <time>2021-08-31T03:04:38.339Z</time>
      </trkpt>
      <trkpt lat="42.53999" lon="2.73391">
        <ele>381.1</ele>
        <time>2021-08-31T03:04:46.634Z</time>
      </trkpt>
      <trkpt lat="42.53985" lon="2.73365">
        <ele>381.6</ele>
        <time>2021-08-31T03:04:51.413Z</time>
      </trkpt>
      <trkpt lat="42.53981" lon="2.7335">
        <ele>382.4</ele>
        <time>2021-08-31T03:04:55.202Z</time>
      </trkpt>
      <trkpt lat="42.53977" lon="2.73341">
        <ele>382.9</ele>
        <time>2021-08-31T03:04:57.636Z</time>
      </trkpt>
      <trkpt lat="42.53967" lon="2.73327">
        <ele>384.3</ele>
        <time>2021-08-31T03:05:03.561Z</time>
      </trkpt>
      <trkpt lat="42.53962" lon="2.73323">
        <ele>384.9</ele>
        <time>2021-08-31T03:05:06.097Z</time>
      </trkpt>
      <trkpt lat="42.53949" lon="2.73318">
        <ele>385.4</ele>
        <time>2021-08-31T03:05:09.420Z</time>
      </trkpt>
      <trkpt lat="42.5394" lon="2.73317">
        <ele>385.5</ele>
        <time>2021-08-31T03:05:11.053Z</time>
      </trkpt>
      <trkpt lat="42.53898" lon="2.73323">
        <ele>381.8</ele>
        <time>2021-08-31T03:05:14.611Z</time>
      </trkpt>
      <trkpt lat="42.53881" lon="2.73321">
        <ele>379.9</ele>
        <time>2021-08-31T03:05:16.049Z</time>
      </trkpt>
      <trkpt lat="42.53862" lon="2.73314">
        <ele>379.1</ele>
        <time>2021-08-31T03:05:17.942Z</time>
      </trkpt>
      <trkpt lat="42.53847" lon="2.73304">
        <ele>379</ele>
        <time>2021-08-31T03:05:20.430Z</time>
      </trkpt>
      <trkpt lat="42.5384" lon="2.73297">
        <ele>379.4</ele>
        <time>2021-08-31T03:05:22.838Z</time>
      </trkpt>
      <trkpt lat="42.53828" lon="2.7328">
        <ele>381.3</ele>
        <time>2021-08-31T03:05:30.921Z</time>
      </trkpt>
      <trkpt lat="42.53811" lon="2.73247">
        <ele>385.5</ele>
        <time>2021-08-31T03:05:49.521Z</time>
      </trkpt>
      <trkpt lat="42.53798" lon="2.73198">
        <ele>392.9</ele>
        <time>2021-08-31T03:06:13.579Z</time>
      </trkpt>
      <trkpt lat="42.53791" lon="2.73182">
        <ele>395.3</ele>
        <time>2021-08-31T03:06:22.175Z</time>
      </trkpt>
      <trkpt lat="42.53786" lon="2.73176">
        <ele>396.2</ele>
        <time>2021-08-31T03:06:26.359Z</time>
      </trkpt>
      <trkpt lat="42.53776" lon="2.73171">
        <ele>396.4</ele>
        <time>2021-08-31T03:06:28.451Z</time>
      </trkpt>
      <trkpt lat="42.5377" lon="2.73171">
        <ele>396.1</ele>
        <time>2021-08-31T03:06:28.981Z</time>
      </trkpt>
      <trkpt lat="42.53765" lon="2.73173">
        <ele>395.5</ele>
        <time>2021-08-31T03:06:29.420Z</time>
      </trkpt>
      <trkpt lat="42.53755" lon="2.73181">
        <ele>393.6</ele>
        <time>2021-08-31T03:06:30.398Z</time>
      </trkpt>
      <trkpt lat="42.5375" lon="2.73189">
        <ele>391.7</ele>
        <time>2021-08-31T03:06:31.049Z</time>
      </trkpt>
      <trkpt lat="42.53729" lon="2.73237">
        <ele>386.1</ele>
        <time>2021-08-31T03:06:34.514Z</time>
      </trkpt>
      <trkpt lat="42.53717" lon="2.73256">
        <ele>384.8</ele>
        <time>2021-08-31T03:06:36.068Z</time>
      </trkpt>
      <trkpt lat="42.5371" lon="2.73265">
        <ele>384.5</ele>
        <time>2021-08-31T03:06:37.087Z</time>
      </trkpt>
      <trkpt lat="42.53686" lon="2.73285">
        <ele>384.4</ele>
        <time>2021-08-31T03:06:41.428Z</time>
      </trkpt>
      <trkpt lat="42.53657" lon="2.73301">
        <ele>384.9</ele>
        <time>2021-08-31T03:06:47.388Z</time>
      </trkpt>
      <trkpt lat="42.53645" lon="2.73306">
        <ele>385</ele>
        <time>2021-08-31T03:06:49.589Z</time>
      </trkpt>
      <trkpt lat="42.53561" lon="2.73331">
        <ele>383.6</ele>
        <time>2021-08-31T03:07:00.327Z</time>
      </trkpt>
      <trkpt lat="42.53545" lon="2.7333">
        <ele>381.8</ele>
        <time>2021-08-31T03:07:01.676Z</time>
      </trkpt>
      <trkpt lat="42.53536" lon="2.73327">
        <ele>381.1</ele>
        <time>2021-08-31T03:07:02.457Z</time>
      </trkpt>
      <trkpt lat="42.53528" lon="2.73323">
        <ele>380.5</ele>
        <time>2021-08-31T03:07:03.175Z</time>
      </trkpt>
      <trkpt lat="42.53513" lon="2.73307">
        <ele>379.8</ele>
        <time>2021-08-31T03:07:05.081Z</time>
      </trkpt>
      <trkpt lat="42.53503" lon="2.73287">
        <ele>379.9</ele>
        <time>2021-08-31T03:07:08.132Z</time>
      </trkpt>
      <trkpt lat="42.535" lon="2.73276">
        <ele>380</ele>
        <time>2021-08-31T03:07:09.704Z</time>
      </trkpt>
      <trkpt lat="42.53496" lon="2.73251">
        <ele>380.6</ele>
        <time>2021-08-31T03:07:14.029Z</time>
      </trkpt>
      <trkpt lat="42.53495" lon="2.73233">
        <ele>379.1</ele>
        <time>2021-08-31T03:07:15.149Z</time>
      </trkpt>
      <trkpt lat="42.53498" lon="2.73198">
        <ele>377.4</ele>
        <time>2021-08-31T03:07:17.171Z</time>
      </trkpt>
      <trkpt lat="42.53503" lon="2.73167">
        <ele>376.9</ele>
        <time>2021-08-31T03:07:19.919Z</time>
      </trkpt>
      <trkpt lat="42.53575" lon="2.72949">
        <ele>371.6</ele>
        <time>2021-08-31T03:07:38.713Z</time>
      </trkpt>
      <trkpt lat="42.53579" lon="2.72941">
        <ele>371.5</ele>
        <time>2021-08-31T03:07:39.627Z</time>
      </trkpt>
      <trkpt lat="42.53589" lon="2.72929">
        <ele>372.1</ele>
        <time>2021-08-31T03:07:43.300Z</time>
      </trkpt>
      <trkpt lat="42.53609" lon="2.72917">
        <ele>374.9</ele>
        <time>2021-08-31T03:07:56.018Z</time>
      </trkpt>
      <trkpt lat="42.53616" lon="2.72911">
        <ele>376.7</ele>
        <time>2021-08-31T03:08:01.209Z</time>
      </trkpt>
      <trkpt lat="42.53618" lon="2.72896">
        <ele>378</ele>
        <time>2021-08-31T03:08:06.817Z</time>
      </trkpt>
      <trkpt lat="42.53614" lon="2.72882">
        <ele>378.1</ele>
        <time>2021-08-31T03:08:08.777Z</time>
      </trkpt>
      <trkpt lat="42.53599" lon="2.72873">
        <ele>375.5</ele>
        <time>2021-08-31T03:08:10.159Z</time>
      </trkpt>
      <trkpt lat="42.53548" lon="2.7287">
        <ele>365.1</ele>
        <time>2021-08-31T03:08:14.460Z</time>
      </trkpt>
      <trkpt lat="42.53536" lon="2.72865">
        <ele>363.2</ele>
        <time>2021-08-31T03:08:15.517Z</time>
      </trkpt>
      <trkpt lat="42.53524" lon="2.72855">
        <ele>362.3</ele>
        <time>2021-08-31T03:08:16.627Z</time>
      </trkpt>
      <trkpt lat="42.53508" lon="2.72845">
        <ele>360.7</ele>
        <time>2021-08-31T03:08:18.111Z</time>
      </trkpt>
      <trkpt lat="42.53484" lon="2.72844">
        <ele>355.8</ele>
        <time>2021-08-31T03:08:20.134Z</time>
      </trkpt>
      <trkpt lat="42.53477" lon="2.72842">
        <ele>354.7</ele>
        <time>2021-08-31T03:08:20.737Z</time>
      </trkpt>
      <trkpt lat="42.53472" lon="2.72838">
        <ele>354.2</ele>
        <time>2021-08-31T03:08:21.225Z</time>
      </trkpt>
      <trkpt lat="42.53469" lon="2.72834">
        <ele>354</ele>
        <time>2021-08-31T03:08:21.605Z</time>
      </trkpt>
      <trkpt lat="42.53466" lon="2.72817">
        <ele>356.2</ele>
        <time>2021-08-31T03:08:29.681Z</time>
      </trkpt>
      <trkpt lat="42.53474" lon="2.72786">
        <ele>361.9</ele>
        <time>2021-08-31T03:08:44.854Z</time>
      </trkpt>
      <trkpt lat="42.53473" lon="2.72771">
        <ele>363.8</ele>
        <time>2021-08-31T03:08:51.812Z</time>
      </trkpt>
      <trkpt lat="42.53466" lon="2.7276">
        <ele>364.6</ele>
        <time>2021-08-31T03:08:55.444Z</time>
      </trkpt>
      <trkpt lat="42.53461" lon="2.72756">
        <ele>364.8</ele>
        <time>2021-08-31T03:08:56.822Z</time>
      </trkpt>
      <trkpt lat="42.53454" lon="2.72754">
        <ele>364.4</ele>
        <time>2021-08-31T03:08:57.423Z</time>
      </trkpt>
      <trkpt lat="42.53439" lon="2.72755">
        <ele>362.9</ele>
        <time>2021-08-31T03:08:58.689Z</time>
      </trkpt>
      <trkpt lat="42.53407" lon="2.72766">
        <ele>358.8</ele>
        <time>2021-08-31T03:09:01.470Z</time>
      </trkpt>
      <trkpt lat="42.53366" lon="2.72796">
        <ele>353.1</ele>
        <time>2021-08-31T03:09:05.394Z</time>
      </trkpt>
      <trkpt lat="42.53336" lon="2.72823">
        <ele>347.5</ele>
        <time>2021-08-31T03:09:08.426Z</time>
      </trkpt>
      <trkpt lat="42.53328" lon="2.72827">
        <ele>346.1</ele>
        <time>2021-08-31T03:09:09.145Z</time>
      </trkpt>
      <trkpt lat="42.53314" lon="2.7283">
        <ele>344.3</ele>
        <time>2021-08-31T03:09:10.339Z</time>
      </trkpt>
      <trkpt lat="42.53298" lon="2.72828">
        <ele>343.4</ele>
        <time>2021-08-31T03:09:11.688Z</time>
      </trkpt>
      <trkpt lat="42.53285" lon="2.72819">
        <ele>343.8</ele>
        <time>2021-08-31T03:09:14.855Z</time>
      </trkpt>
      <trkpt lat="42.53272" lon="2.72806">
        <ele>344.5</ele>
        <time>2021-08-31T03:09:19.208Z</time>
      </trkpt>
      <trkpt lat="42.53238" lon="2.72766">
        <ele>346.2</ele>
        <time>2021-08-31T03:09:30.392Z</time>
      </trkpt>
      <trkpt lat="42.53231" lon="2.72761">
        <ele>346.5</ele>
        <time>2021-08-31T03:09:32.362Z</time>
      </trkpt>
      <trkpt lat="42.53225" lon="2.72759">
        <ele>346.6</ele>
        <time>2021-08-31T03:09:33.542Z</time>
      </trkpt>
      <trkpt lat="42.53219" lon="2.72759">
        <ele>346.5</ele>
        <time>2021-08-31T03:09:34.287Z</time>
      </trkpt>
      <trkpt lat="42.53206" lon="2.72764">
        <ele>346</ele>
        <time>2021-08-31T03:09:35.632Z</time>
      </trkpt>
      <trkpt lat="42.53196" lon="2.72776">
        <ele>345.1</ele>
        <time>2021-08-31T03:09:36.757Z</time>
      </trkpt>
      <trkpt lat="42.53172" lon="2.72833">
        <ele>342.7</ele>
        <time>2021-08-31T03:09:41.045Z</time>
      </trkpt>
      <trkpt lat="42.53157" lon="2.7286">
        <ele>339.7</ele>
        <time>2021-08-31T03:09:43.144Z</time>
      </trkpt>
      <trkpt lat="42.53108" lon="2.7292">
        <ele>337.2</ele>
        <time>2021-08-31T03:09:49.659Z</time>
      </trkpt>
      <trkpt lat="42.53102" lon="2.72926">
        <ele>337.2</ele>
        <time>2021-08-31T03:09:50.871Z</time>
      </trkpt>
      <trkpt lat="42.5309" lon="2.7293">
        <ele>338.2</ele>
        <time>2021-08-31T03:09:55.275Z</time>
      </trkpt>
      <trkpt lat="42.53082" lon="2.72931">
        <ele>338.9</ele>
        <time>2021-08-31T03:09:58.293Z</time>
      </trkpt>
      <trkpt lat="42.53074" lon="2.7293">
        <ele>338.9</ele>
        <time>2021-08-31T03:09:59.598Z</time>
      </trkpt>
      <trkpt lat="42.53058" lon="2.72923">
        <ele>339.4</ele>
        <time>2021-08-31T03:10:03.354Z</time>
      </trkpt>
      <trkpt lat="42.53012" lon="2.72897">
        <ele>340.6</ele>
        <time>2021-08-31T03:10:13.746Z</time>
      </trkpt>
      <trkpt lat="42.52988" lon="2.72886">
        <ele>341.7</ele>
        <time>2021-08-31T03:10:20.582Z</time>
      </trkpt>
      <trkpt lat="42.52976" lon="2.72885">
        <ele>342.5</ele>
        <time>2021-08-31T03:10:24.415Z</time>
      </trkpt>
      <trkpt lat="42.52964" lon="2.72889">
        <ele>343.1</ele>
        <time>2021-08-31T03:10:27.894Z</time>
      </trkpt>
      <trkpt lat="42.52953" lon="2.72899">
        <ele>343.4</ele>
        <time>2021-08-31T03:10:30.609Z</time>
      </trkpt>
      <trkpt lat="42.5291" lon="2.72955">
        <ele>343.2</ele>
        <time>2021-08-31T03:10:39.823Z</time>
      </trkpt>
      <trkpt lat="42.52897" lon="2.72986">
        <ele>342.8</ele>
        <time>2021-08-31T03:10:43.148Z</time>
      </trkpt>
      <trkpt lat="42.52886" lon="2.73026">
        <ele>341.2</ele>
        <time>2021-08-31T03:10:45.907Z</time>
      </trkpt>
      <trkpt lat="42.52877" lon="2.73048">
        <ele>340.9</ele>
        <time>2021-08-31T03:10:48.225Z</time>
      </trkpt>
      <trkpt lat="42.52872" lon="2.73056">
        <ele>341.2</ele>
        <time>2021-08-31T03:10:50.175Z</time>
      </trkpt>
      <trkpt lat="42.52854" lon="2.73073">
        <ele>343.5</ele>
        <time>2021-08-31T03:10:59.907Z</time>
      </trkpt>
      <trkpt lat="42.5285" lon="2.73079">
        <ele>344</ele>
        <time>2021-08-31T03:11:02.085Z</time>
      </trkpt>
      <trkpt lat="42.52845" lon="2.73094">
        <ele>343.9</ele>
        <time>2021-08-31T03:11:03.765Z</time>
      </trkpt>
      <trkpt lat="42.52844" lon="2.73104">
        <ele>343.5</ele>
        <time>2021-08-31T03:11:04.401Z</time>
      </trkpt>
      <trkpt lat="42.52846" lon="2.73152">
        <ele>340</ele>
        <time>2021-08-31T03:11:07.386Z</time>
      </trkpt>
      <trkpt lat="42.52845" lon="2.73174">
        <ele>338.5</ele>
        <time>2021-08-31T03:11:08.754Z</time>
      </trkpt>
      <trkpt lat="42.52843" lon="2.73184">
        <ele>338.1</ele>
        <time>2021-08-31T03:11:09.415Z</time>
      </trkpt>
      <trkpt lat="42.5283" lon="2.7322">
        <ele>336.4</ele>
        <time>2021-08-31T03:11:11.865Z</time>
      </trkpt>
      <trkpt lat="42.52826" lon="2.73227">
        <ele>335.7</ele>
        <time>2021-08-31T03:11:12.415Z</time>
      </trkpt>
      <trkpt lat="42.52821" lon="2.73235">
        <ele>334.9</ele>
        <time>2021-08-31T03:11:13.066Z</time>
      </trkpt>
      <trkpt lat="42.52808" lon="2.73243">
        <ele>334.2</ele>
        <time>2021-08-31T03:11:14.338Z</time>
      </trkpt>
      <trkpt lat="42.52789" lon="2.73246">
        <ele>334</ele>
        <time>2021-08-31T03:11:16.910Z</time>
      </trkpt>
      <trkpt lat="42.52763" lon="2.73247">
        <ele>334.2</ele>
        <time>2021-08-31T03:11:21.458Z</time>
      </trkpt>
      <trkpt lat="42.52749" lon="2.73246">
        <ele>334.7</ele>
        <time>2021-08-31T03:11:24.842Z</time>
      </trkpt>
      <trkpt lat="42.52742" lon="2.73244">
        <ele>335.4</ele>
        <time>2021-08-31T03:11:27.804Z</time>
      </trkpt>
      <trkpt lat="42.52728" lon="2.73235">
        <ele>337.7</ele>
        <time>2021-08-31T03:11:37.516Z</time>
      </trkpt>
      <trkpt lat="42.52713" lon="2.7322">
        <ele>340.8</ele>
        <time>2021-08-31T03:11:49.198Z</time>
      </trkpt>
      <trkpt lat="42.52703" lon="2.7322">
        <ele>341.4</ele>
        <time>2021-08-31T03:11:52.239Z</time>
      </trkpt>
      <trkpt lat="42.52696" lon="2.73224">
        <ele>341.1</ele>
        <time>2021-08-31T03:11:52.977Z</time>
      </trkpt>
      <trkpt lat="42.52689" lon="2.73236">
        <ele>339.8</ele>
        <time>2021-08-31T03:11:53.928Z</time>
      </trkpt>
      <trkpt lat="42.52682" lon="2.73253">
        <ele>337.6</ele>
        <time>2021-08-31T03:11:55.137Z</time>
      </trkpt>
      <trkpt lat="42.52668" lon="2.73316">
        <ele>328.6</ele>
        <time>2021-08-31T03:11:59.222Z</time>
      </trkpt>
      <trkpt lat="42.52655" lon="2.73356">
        <ele>322.5</ele>
        <time>2021-08-31T03:12:01.936Z</time>
      </trkpt>
      <trkpt lat="42.52642" lon="2.73377">
        <ele>319.2</ele>
        <time>2021-08-31T03:12:03.639Z</time>
      </trkpt>
      <trkpt lat="42.52637" lon="2.73382">
        <ele>318.7</ele>
        <time>2021-08-31T03:12:04.162Z</time>
      </trkpt>
      <trkpt lat="42.52625" lon="2.73385">
        <ele>318.5</ele>
        <time>2021-08-31T03:12:05.684Z</time>
      </trkpt>
      <trkpt lat="42.52615" lon="2.73382">
        <ele>319.3</ele>
        <time>2021-08-31T03:12:09.252Z</time>
      </trkpt>
      <trkpt lat="42.526" lon="2.73359">
        <ele>323</ele>
        <time>2021-08-31T03:12:23.442Z</time>
      </trkpt>
      <trkpt lat="42.52592" lon="2.73355">
        <ele>323.8</ele>
        <time>2021-08-31T03:12:26.841Z</time>
      </trkpt>
      <trkpt lat="42.52588" lon="2.73355">
        <ele>323.8</ele>
        <time>2021-08-31T03:12:27.491Z</time>
      </trkpt>
      <trkpt lat="42.52576" lon="2.73359">
        <ele>324.2</ele>
        <time>2021-08-31T03:12:30.346Z</time>
      </trkpt>
      <trkpt lat="42.52554" lon="2.73379">
        <ele>323</ele>
        <time>2021-08-31T03:12:32.785Z</time>
      </trkpt>
      <trkpt lat="42.52509" lon="2.73404">
        <ele>320.8</ele>
        <time>2021-08-31T03:12:37.265Z</time>
      </trkpt>
      <trkpt lat="42.52497" lon="2.73415">
        <ele>319.1</ele>
        <time>2021-08-31T03:12:38.485Z</time>
      </trkpt>
      <trkpt lat="42.52487" lon="2.73429">
        <ele>317.9</ele>
        <time>2021-08-31T03:12:39.696Z</time>
      </trkpt>
      <trkpt lat="42.52468" lon="2.73469">
        <ele>313.3</ele>
        <time>2021-08-31T03:12:42.650Z</time>
      </trkpt>
      <trkpt lat="42.52425" lon="2.73508">
        <ele>313</ele>
        <time>2021-08-31T03:12:50.371Z</time>
      </trkpt>
      <trkpt lat="42.52415" lon="2.73524">
        <ele>311</ele>
        <time>2021-08-31T03:12:51.673Z</time>
      </trkpt>
      <trkpt lat="42.52409" lon="2.73539">
        <ele>307.6</ele>
        <time>2021-08-31T03:12:52.733Z</time>
      </trkpt>
      <trkpt lat="42.52394" lon="2.73559">
        <ele>303.5</ele>
        <time>2021-08-31T03:12:54.505Z</time>
      </trkpt>
      <trkpt lat="42.52369" lon="2.73571">
        <ele>300.9</ele>
        <time>2021-08-31T03:12:56.739Z</time>
      </trkpt>
      <trkpt lat="42.52351" lon="2.73577">
        <ele>299.9</ele>
        <time>2021-08-31T03:12:58.322Z</time>
      </trkpt>
      <trkpt lat="42.52344" lon="2.73577">
        <ele>299.9</ele>
        <time>2021-08-31T03:12:59.460Z</time>
      </trkpt>
      <trkpt lat="42.52332" lon="2.7357">
        <ele>300.4</ele>
        <time>2021-08-31T03:13:02.729Z</time>
      </trkpt>
      <trkpt lat="42.52325" lon="2.73554">
        <ele>301.1</ele>
        <time>2021-08-31T03:13:06.653Z</time>
      </trkpt>
      <trkpt lat="42.52321" lon="2.73501">
        <ele>307.1</ele>
        <time>2021-08-31T03:13:31.270Z</time>
      </trkpt>
      <trkpt lat="42.52315" lon="2.73479">
        <ele>309.7</ele>
        <time>2021-08-31T03:13:42.109Z</time>
      </trkpt>
      <trkpt lat="42.52304" lon="2.73453">
        <ele>312.5</ele>
        <time>2021-08-31T03:13:54.737Z</time>
      </trkpt>
      <trkpt lat="42.52295" lon="2.73445">
        <ele>312.9</ele>
        <time>2021-08-31T03:13:57.389Z</time>
      </trkpt>
      <trkpt lat="42.52288" lon="2.73443">
        <ele>312.6</ele>
        <time>2021-08-31T03:13:58.068Z</time>
      </trkpt>
      <trkpt lat="42.52279" lon="2.73442">
        <ele>311.9</ele>
        <time>2021-08-31T03:13:58.829Z</time>
      </trkpt>
      <trkpt lat="42.52262" lon="2.73445">
        <ele>309.5</ele>
        <time>2021-08-31T03:14:00.273Z</time>
      </trkpt>
      <trkpt lat="42.52248" lon="2.73454">
        <ele>306.6</ele>
        <time>2021-08-31T03:14:01.578Z</time>
      </trkpt>
      <trkpt lat="42.5223" lon="2.73482">
        <ele>303.4</ele>
        <time>2021-08-31T03:14:03.885Z</time>
      </trkpt>
      <trkpt lat="42.52218" lon="2.735">
        <ele>301.8</ele>
        <time>2021-08-31T03:14:05.392Z</time>
      </trkpt>
      <trkpt lat="42.5218" lon="2.73531">
        <ele>301.4</ele>
        <time>2021-08-31T03:14:11.470Z</time>
      </trkpt>
      <trkpt lat="42.52136" lon="2.73579">
        <ele>297.9</ele>
        <time>2021-08-31T03:14:15.987Z</time>
      </trkpt>
      <trkpt lat="42.5213" lon="2.73589">
        <ele>297</ele>
        <time>2021-08-31T03:14:16.788Z</time>
      </trkpt>
      <trkpt lat="42.52114" lon="2.73633">
        <ele>291.7</ele>
        <time>2021-08-31T03:14:19.834Z</time>
      </trkpt>
      <trkpt lat="42.52108" lon="2.73639">
        <ele>291.5</ele>
        <time>2021-08-31T03:14:20.658Z</time>
      </trkpt>
      <trkpt lat="42.52097" lon="2.73645">
        <ele>292.1</ele>
        <time>2021-08-31T03:14:24.041Z</time>
      </trkpt>
      <trkpt lat="42.52091" lon="2.73644">
        <ele>293.3</ele>
        <time>2021-08-31T03:14:27.831Z</time>
      </trkpt>
      <trkpt lat="42.52078" lon="2.73635">
        <ele>296</ele>
        <time>2021-08-31T03:14:36.981Z</time>
      </trkpt>
      <trkpt lat="42.52066" lon="2.73632">
        <ele>296.7</ele>
        <time>2021-08-31T03:14:40.625Z</time>
      </trkpt>
      <trkpt lat="42.5206" lon="2.73633">
        <ele>296.6</ele>
        <time>2021-08-31T03:14:41.377Z</time>
      </trkpt>
      <trkpt lat="42.52053" lon="2.73635">
        <ele>296.3</ele>
        <time>2021-08-31T03:14:42.057Z</time>
      </trkpt>
      <trkpt lat="42.51989" lon="2.73674">
        <ele>288.4</ele>
        <time>2021-08-31T03:14:47.967Z</time>
      </trkpt>
      <trkpt lat="42.51973" lon="2.73682">
        <ele>285.1</ele>
        <time>2021-08-31T03:14:49.404Z</time>
      </trkpt>
      <trkpt lat="42.51967" lon="2.73683">
        <ele>284.2</ele>
        <time>2021-08-31T03:14:49.913Z</time>
      </trkpt>
      <trkpt lat="42.51961" lon="2.73682">
        <ele>283.5</ele>
        <time>2021-08-31T03:14:50.422Z</time>
      </trkpt>
      <trkpt lat="42.5195" lon="2.73673">
        <ele>283.1</ele>
        <time>2021-08-31T03:14:51.779Z</time>
      </trkpt>
      <trkpt lat="42.51942" lon="2.73654">
        <ele>284</ele>
        <time>2021-08-31T03:14:56.544Z</time>
      </trkpt>
      <trkpt lat="42.51938" lon="2.7363">
        <ele>285.9</ele>
        <time>2021-08-31T03:15:04.583Z</time>
      </trkpt>
      <trkpt lat="42.51934" lon="2.73622">
        <ele>286.2</ele>
        <time>2021-08-31T03:15:06.468Z</time>
      </trkpt>
      <trkpt lat="42.51925" lon="2.73611">
        <ele>285.3</ele>
        <time>2021-08-31T03:15:07.488Z</time>
      </trkpt>
      <trkpt lat="42.51908" lon="2.73601">
        <ele>282.8</ele>
        <time>2021-08-31T03:15:09.049Z</time>
      </trkpt>
      <trkpt lat="42.51903" lon="2.73597">
        <ele>282.3</ele>
        <time>2021-08-31T03:15:09.538Z</time>
      </trkpt>
      <trkpt lat="42.51898" lon="2.73584">
        <ele>282.3</ele>
        <time>2021-08-31T03:15:11.295Z</time>
      </trkpt>
      <trkpt lat="42.519" lon="2.73564">
        <ele>283.1</ele>
        <time>2021-08-31T03:15:15.630Z</time>
      </trkpt>
      <trkpt lat="42.51914" lon="2.73497">
        <ele>287.4</ele>
        <time>2021-08-31T03:15:34.364Z</time>
      </trkpt>
      <trkpt lat="42.51916" lon="2.73472">
        <ele>287.9</ele>
        <time>2021-08-31T03:15:38.365Z</time>
      </trkpt>
      <trkpt lat="42.51912" lon="2.73456">
        <ele>287.1</ele>
        <time>2021-08-31T03:15:39.344Z</time>
      </trkpt>
      <trkpt lat="42.51908" lon="2.73448">
        <ele>286.3</ele>
        <time>2021-08-31T03:15:39.945Z</time>
      </trkpt>
      <trkpt lat="42.51902" lon="2.73441">
        <ele>285.4</ele>
        <time>2021-08-31T03:15:40.611Z</time>
      </trkpt>
      <trkpt lat="42.51895" lon="2.73434">
        <ele>284.2</ele>
        <time>2021-08-31T03:15:41.344Z</time>
      </trkpt>
      <trkpt lat="42.51887" lon="2.73422">
        <ele>283.2</ele>
        <time>2021-08-31T03:15:42.349Z</time>
      </trkpt>
      <trkpt lat="42.51885" lon="2.73414">
        <ele>283.2</ele>
        <time>2021-08-31T03:15:43.361Z</time>
      </trkpt>
      <trkpt lat="42.51886" lon="2.73388">
        <ele>285</ele>
        <time>2021-08-31T03:15:51.010Z</time>
      </trkpt>
      <trkpt lat="42.51883" lon="2.73373">
        <ele>285.6</ele>
        <time>2021-08-31T03:15:54.317Z</time>
      </trkpt>
      <trkpt lat="42.51876" lon="2.73362">
        <ele>285.6</ele>
        <time>2021-08-31T03:15:56.058Z</time>
      </trkpt>
      <trkpt lat="42.51866" lon="2.73355">
        <ele>285</ele>
        <time>2021-08-31T03:15:57.024Z</time>
      </trkpt>
      <trkpt lat="42.51858" lon="2.73353">
        <ele>284.4</ele>
        <time>2021-08-31T03:15:57.709Z</time>
      </trkpt>
      <trkpt lat="42.51822" lon="2.73354">
        <ele>280.3</ele>
        <time>2021-08-31T03:16:00.743Z</time>
      </trkpt>
      <trkpt lat="42.51807" lon="2.7335">
        <ele>278.6</ele>
        <time>2021-08-31T03:16:02.031Z</time>
      </trkpt>
      <trkpt lat="42.51801" lon="2.73345">
        <ele>278.5</ele>
        <time>2021-08-31T03:16:02.933Z</time>
      </trkpt>
      <trkpt lat="42.51794" lon="2.7333">
        <ele>278.9</ele>
        <time>2021-08-31T03:16:05.887Z</time>
      </trkpt>
      <trkpt lat="42.51791" lon="2.73311">
        <ele>279.2</ele>
        <time>2021-08-31T03:16:08.768Z</time>
      </trkpt>
      <trkpt lat="42.51787" lon="2.73301">
        <ele>279</ele>
        <time>2021-08-31T03:16:09.726Z</time>
      </trkpt>
      <trkpt lat="42.51783" lon="2.73294">
        <ele>278.7</ele>
        <time>2021-08-31T03:16:10.323Z</time>
      </trkpt>
      <trkpt lat="42.51772" lon="2.73281">
        <ele>277.5</ele>
        <time>2021-08-31T03:16:11.552Z</time>
      </trkpt>
      <trkpt lat="42.51765" lon="2.73276">
        <ele>276.6</ele>
        <time>2021-08-31T03:16:12.219Z</time>
      </trkpt>
      <trkpt lat="42.51748" lon="2.73271">
        <ele>274.4</ele>
        <time>2021-08-31T03:16:13.684Z</time>
      </trkpt>
      <trkpt lat="42.5174" lon="2.73271">
        <ele>273.9</ele>
        <time>2021-08-31T03:16:14.322Z</time>
      </trkpt>
      <trkpt lat="42.51733" lon="2.73273">
        <ele>273.4</ele>
        <time>2021-08-31T03:16:14.925Z</time>
      </trkpt>
      <trkpt lat="42.51718" lon="2.73282">
        <ele>272.5</ele>
        <time>2021-08-31T03:16:16.315Z</time>
      </trkpt>
      <trkpt lat="42.51686" lon="2.73304">
        <ele>271.1</ele>
        <time>2021-08-31T03:16:19.817Z</time>
      </trkpt>
      <trkpt lat="42.51669" lon="2.73312">
        <ele>270.6</ele>
        <time>2021-08-31T03:16:21.786Z</time>
      </trkpt>
      <trkpt lat="42.51637" lon="2.73318">
        <ele>271.2</ele>
        <time>2021-08-31T03:16:28.113Z</time>
      </trkpt>
      <trkpt lat="42.51577" lon="2.73325">
        <ele>271.6</ele>
        <time>2021-08-31T03:16:38.535Z</time>
      </trkpt>
      <trkpt lat="42.51558" lon="2.7333">
        <ele>271.4</ele>
        <time>2021-08-31T03:16:41.142Z</time>
      </trkpt>
      <trkpt lat="42.51536" lon="2.73339">
        <ele>271.2</ele>
        <time>2021-08-31T03:16:44.305Z</time>
      </trkpt>
      <trkpt lat="42.51526" lon="2.73345">
        <ele>270.9</ele>
        <time>2021-08-31T03:16:45.506Z</time>
      </trkpt>
      <trkpt lat="42.51481" lon="2.7338">
        <ele>268.4</ele>
        <time>2021-08-31T03:16:50.161Z</time>
      </trkpt>
      <trkpt lat="42.51465" lon="2.73389">
        <ele>268</ele>
        <time>2021-08-31T03:16:52.157Z</time>
      </trkpt>
      <trkpt lat="42.51457" lon="2.73391">
        <ele>268</ele>
        <time>2021-08-31T03:16:53.479Z</time>
      </trkpt>
      <trkpt lat="42.51439" lon="2.73392">
        <ele>268</ele>
        <time>2021-08-31T03:16:56.408Z</time>
      </trkpt>
      <trkpt lat="42.51402" lon="2.73382">
        <ele>268.4</ele>
        <time>2021-08-31T03:17:03.199Z</time>
      </trkpt>
      <trkpt lat="42.51394" lon="2.73377">
        <ele>268.7</ele>
        <time>2021-08-31T03:17:05.280Z</time>
      </trkpt>
      <trkpt lat="42.51379" lon="2.73364">
        <ele>269.8</ele>
        <time>2021-08-31T03:17:10.763Z</time>
      </trkpt>
      <trkpt lat="42.51371" lon="2.73349">
        <ele>270.9</ele>
        <time>2021-08-31T03:17:15.614Z</time>
      </trkpt>
      <trkpt lat="42.51366" lon="2.73323">
        <ele>271.6</ele>
        <time>2021-08-31T03:17:20.374Z</time>
      </trkpt>
      <trkpt lat="42.51367" lon="2.73311">
        <ele>270.9</ele>
        <time>2021-08-31T03:17:21.124Z</time>
      </trkpt>
      <trkpt lat="42.5138" lon="2.73257">
        <ele>265.5</ele>
        <time>2021-08-31T03:17:24.652Z</time>
      </trkpt>
      <trkpt lat="42.5138" lon="2.73246">
        <ele>264.3</ele>
        <time>2021-08-31T03:17:25.335Z</time>
      </trkpt>
      <trkpt lat="42.51376" lon="2.73228">
        <ele>261.7</ele>
        <time>2021-08-31T03:17:26.503Z</time>
      </trkpt>
      <trkpt lat="42.51373" lon="2.73221">
        <ele>260.8</ele>
        <time>2021-08-31T03:17:27.005Z</time>
      </trkpt>
      <trkpt lat="42.51365" lon="2.7321">
        <ele>260.1</ele>
        <time>2021-08-31T03:17:27.921Z</time>
      </trkpt>
      <trkpt lat="42.51354" lon="2.73201">
        <ele>259.8</ele>
        <time>2021-08-31T03:17:29.397Z</time>
      </trkpt>
      <trkpt lat="42.51338" lon="2.73198">
        <ele>261.3</ele>
        <time>2021-08-31T03:17:35.780Z</time>
      </trkpt>
      <trkpt lat="42.51313" lon="2.73201">
        <ele>261.1</ele>
        <time>2021-08-31T03:17:39.270Z</time>
      </trkpt>
      <trkpt lat="42.51288" lon="2.73207">
        <ele>260.5</ele>
        <time>2021-08-31T03:17:42.177Z</time>
      </trkpt>
      <trkpt lat="42.51269" lon="2.73217">
        <ele>261.8</ele>
        <time>2021-08-31T03:17:48.545Z</time>
      </trkpt>
      <trkpt lat="42.51231" lon="2.73248">
        <ele>266.9</ele>
        <time>2021-08-31T03:18:10.500Z</time>
      </trkpt>
      <trkpt lat="42.51212" lon="2.73256">
        <ele>267</ele>
        <time>2021-08-31T03:18:13.889Z</time>
      </trkpt>
      <trkpt lat="42.51194" lon="2.73258">
        <ele>266</ele>
        <time>2021-08-31T03:18:15.414Z</time>
      </trkpt>
      <trkpt lat="42.5114" lon="2.73251">
        <ele>261.5</ele>
        <time>2021-08-31T03:18:19.984Z</time>
      </trkpt>
      <trkpt lat="42.51121" lon="2.73252">
        <ele>261.3</ele>
        <time>2021-08-31T03:18:22.538Z</time>
      </trkpt>
      <trkpt lat="42.51114" lon="2.73255">
        <ele>261.8</ele>
        <time>2021-08-31T03:18:24.906Z</time>
      </trkpt>
      <trkpt lat="42.51094" lon="2.73271">
        <ele>264.6</ele>
        <time>2021-08-31T03:18:37.184Z</time>
      </trkpt>
      <trkpt lat="42.5108" lon="2.73275">
        <ele>265.5</ele>
        <time>2021-08-31T03:18:41.625Z</time>
      </trkpt>
      <trkpt lat="42.51073" lon="2.73273">
        <ele>266</ele>
        <time>2021-08-31T03:18:43.963Z</time>
      </trkpt>
      <trkpt lat="42.51062" lon="2.73264">
        <ele>265.5</ele>
        <time>2021-08-31T03:18:45.219Z</time>
      </trkpt>
      <trkpt lat="42.51035" lon="2.73211">
        <ele>257.6</ele>
        <time>2021-08-31T03:18:49.220Z</time>
      </trkpt>
      <trkpt lat="42.51021" lon="2.73198">
        <ele>256.8</ele>
        <time>2021-08-31T03:18:50.756Z</time>
      </trkpt>
      <trkpt lat="42.51008" lon="2.73191">
        <ele>257.1</ele>
        <time>2021-08-31T03:18:53.585Z</time>
      </trkpt>
      <trkpt lat="42.5099" lon="2.73188">
        <ele>258.1</ele>
        <time>2021-08-31T03:18:58.919Z</time>
      </trkpt>
      <trkpt lat="42.509" lon="2.73199">
        <ele>259.3</ele>
        <time>2021-08-31T03:19:15.641Z</time>
      </trkpt>
      <trkpt lat="42.50845" lon="2.73222">
        <ele>254.5</ele>
        <time>2021-08-31T03:19:20.490Z</time>
      </trkpt>
      <trkpt lat="42.50835" lon="2.73232">
        <ele>253.2</ele>
        <time>2021-08-31T03:19:21.536Z</time>
      </trkpt>
      <trkpt lat="42.50831" lon="2.73248">
        <ele>252.5</ele>
        <time>2021-08-31T03:19:22.580Z</time>
      </trkpt>
      <trkpt lat="42.50842" lon="2.733">
        <ele>253.7</ele>
        <time>2021-08-31T03:19:31.529Z</time>
      </trkpt>
      <trkpt lat="42.50844" lon="2.73321">
        <ele>253.9</ele>
        <time>2021-08-31T03:19:34.403Z</time>
      </trkpt>
      <trkpt lat="42.50843" lon="2.73377">
        <ele>252.5</ele>
        <time>2021-08-31T03:19:38.643Z</time>
      </trkpt>
      <trkpt lat="42.50838" lon="2.73405">
        <ele>250.4</ele>
        <time>2021-08-31T03:19:40.432Z</time>
      </trkpt>
      <trkpt lat="42.5083" lon="2.73429">
        <ele>248.3</ele>
        <time>2021-08-31T03:19:42.068Z</time>
      </trkpt>
      <trkpt lat="42.50819" lon="2.73449">
        <ele>246.1</ele>
        <time>2021-08-31T03:19:43.618Z</time>
      </trkpt>
      <trkpt lat="42.50802" lon="2.73465">
        <ele>243.5</ele>
        <time>2021-08-31T03:19:45.361Z</time>
      </trkpt>
      <trkpt lat="42.50775" lon="2.73488">
        <ele>240.3</ele>
        <time>2021-08-31T03:19:48.047Z</time>
      </trkpt>
      <trkpt lat="42.50765" lon="2.735">
        <ele>239.9</ele>
        <time>2021-08-31T03:19:49.475Z</time>
      </trkpt>
      <trkpt lat="42.50762" lon="2.73507">
        <ele>239.2</ele>
        <time>2021-08-31T03:19:49.977Z</time>
      </trkpt>
      <trkpt lat="42.50761" lon="2.73519">
        <ele>238.5</ele>
        <time>2021-08-31T03:19:50.727Z</time>
      </trkpt>
      <trkpt lat="42.50766" lon="2.73532">
        <ele>238.6</ele>
        <time>2021-08-31T03:19:52.647Z</time>
      </trkpt>
      <trkpt lat="42.50779" lon="2.73542">
        <ele>239.8</ele>
        <time>2021-08-31T03:19:57.946Z</time>
      </trkpt>
      <trkpt lat="42.50814" lon="2.73561">
        <ele>243.6</ele>
        <time>2021-08-31T03:20:14.006Z</time>
      </trkpt>
      <trkpt lat="42.50825" lon="2.73572">
        <ele>244.4</ele>
        <time>2021-08-31T03:20:18.120Z</time>
      </trkpt>
      <trkpt lat="42.50831" lon="2.73588">
        <ele>244.8</ele>
        <time>2021-08-31T03:20:21.095Z</time>
      </trkpt>
      <trkpt lat="42.5083" lon="2.73606">
        <ele>244.8</ele>
        <time>2021-08-31T03:20:23.258Z</time>
      </trkpt>
      <trkpt lat="42.50827" lon="2.73615">
        <ele>244.2</ele>
        <time>2021-08-31T03:20:23.871Z</time>
      </trkpt>
      <trkpt lat="42.50819" lon="2.73633">
        <ele>242.5</ele>
        <time>2021-08-31T03:20:25.176Z</time>
      </trkpt>
      <trkpt lat="42.50793" lon="2.73662">
        <ele>235.5</ele>
        <time>2021-08-31T03:20:28.012Z</time>
      </trkpt>
      <trkpt lat="42.50758" lon="2.73724">
        <ele>229.7</ele>
        <time>2021-08-31T03:20:32.862Z</time>
      </trkpt>
      <trkpt lat="42.50743" lon="2.73746">
        <ele>227.6</ele>
        <time>2021-08-31T03:20:34.723Z</time>
      </trkpt>
      <trkpt lat="42.50712" lon="2.73777">
        <ele>225.9</ele>
        <time>2021-08-31T03:20:38.307Z</time>
      </trkpt>
      <trkpt lat="42.50665" lon="2.73809">
        <ele>220</ele>
        <time>2021-08-31T03:20:42.738Z</time>
      </trkpt>
      <trkpt lat="42.50644" lon="2.73827">
        <ele>216.9</ele>
        <time>2021-08-31T03:20:44.830Z</time>
      </trkpt>
      <trkpt lat="42.50628" lon="2.73847">
        <ele>214.6</ele>
        <time>2021-08-31T03:20:46.663Z</time>
      </trkpt>
      <trkpt lat="42.50619" lon="2.73859">
        <ele>213.6</ele>
        <time>2021-08-31T03:20:47.726Z</time>
      </trkpt>
      <trkpt lat="42.50537" lon="2.73998">
        <ele>204</ele>
        <time>2021-08-31T03:20:58.783Z</time>
      </trkpt>
      <trkpt lat="42.50491" lon="2.74059">
        <ele>200.6</ele>
        <time>2021-08-31T03:21:04.328Z</time>
      </trkpt>
      <trkpt lat="42.50451" lon="2.741">
        <ele>196.1</ele>
        <time>2021-08-31T03:21:08.552Z</time>
      </trkpt>
      <trkpt lat="42.50414" lon="2.74128">
        <ele>192.2</ele>
        <time>2021-08-31T03:21:12.122Z</time>
      </trkpt>
      <trkpt lat="42.50395" lon="2.74146">
        <ele>192.5</ele>
        <time>2021-08-31T03:21:16.395Z</time>
      </trkpt>
      <trkpt lat="42.50373" lon="2.74171">
        <ele>193.1</ele>
        <time>2021-08-31T03:21:22.165Z</time>
      </trkpt>
      <trkpt lat="42.50364" lon="2.74177">
        <ele>192.6</ele>
        <time>2021-08-31T03:21:23.052Z</time>
      </trkpt>
      <trkpt lat="42.50355" lon="2.7418">
        <ele>191.9</ele>
        <time>2021-08-31T03:21:23.833Z</time>
      </trkpt>
      <trkpt lat="42.50329" lon="2.74183">
        <ele>188.7</ele>
        <time>2021-08-31T03:21:26.031Z</time>
      </trkpt>
      <trkpt lat="42.50246" lon="2.74186">
        <ele>180.9</ele>
        <time>2021-08-31T03:21:33.026Z</time>
      </trkpt>
      <trkpt lat="42.5022" lon="2.74194">
        <ele>180.1</ele>
        <time>2021-08-31T03:21:35.875Z</time>
      </trkpt>
      <trkpt lat="42.50193" lon="2.74206">
        <ele>180.2</ele>
        <time>2021-08-31T03:21:40.647Z</time>
      </trkpt>
      <trkpt lat="42.50186" lon="2.74207">
        <ele>179.7</ele>
        <time>2021-08-31T03:21:41.240Z</time>
      </trkpt>
      <trkpt lat="42.50165" lon="2.74206">
        <ele>177.1</ele>
        <time>2021-08-31T03:21:43.010Z</time>
      </trkpt>
      <trkpt lat="42.50144" lon="2.74199">
        <ele>173.7</ele>
        <time>2021-08-31T03:21:44.832Z</time>
      </trkpt>
      <trkpt lat="42.50134" lon="2.74198">
        <ele>172.6</ele>
        <time>2021-08-31T03:21:45.677Z</time>
      </trkpt>
      <trkpt lat="42.50068" lon="2.74207">
        <ele>168.3</ele>
        <time>2021-08-31T03:21:50.869Z</time>
      </trkpt>
      <trkpt lat="42.50048" lon="2.74216">
        <ele>167.7</ele>
        <time>2021-08-31T03:21:53.158Z</time>
      </trkpt>
      <trkpt lat="42.50027" lon="2.74234">
        <ele>168.4</ele>
        <time>2021-08-31T03:21:58.600Z</time>
      </trkpt>
      <trkpt lat="42.50007" lon="2.74246">
        <ele>168.2</ele>
        <time>2021-08-31T03:22:01.593Z</time>
      </trkpt>
      <trkpt lat="42.49952" lon="2.74255">
        <ele>164.1</ele>
        <time>2021-08-31T03:22:06.260Z</time>
      </trkpt>
      <trkpt lat="42.49788" lon="2.74295">
        <ele>150</ele>
        <time>2021-08-31T03:22:20.298Z</time>
      </trkpt>
      <trkpt lat="42.49778" lon="2.74299">
        <ele>149.4</ele>
        <time>2021-08-31T03:22:21.162Z</time>
      </trkpt>
      <trkpt lat="42.49761" lon="2.74313">
        <ele>148.1</ele>
        <time>2021-08-31T03:22:22.712Z</time>
      </trkpt>
      <trkpt lat="42.49725" lon="2.74346">
        <ele>145.4</ele>
        <time>2021-08-31T03:22:26.185Z</time>
      </trkpt>
      <trkpt lat="42.49715" lon="2.74354">
        <ele>144.8</ele>
        <time>2021-08-31T03:22:27.196Z</time>
      </trkpt>
      <trkpt lat="42.49707" lon="2.74358">
        <ele>144.4</ele>
        <time>2021-08-31T03:22:27.970Z</time>
      </trkpt>
      <trkpt lat="42.4969" lon="2.74363">
        <ele>143.4</ele>
        <time>2021-08-31T03:22:29.413Z</time>
      </trkpt>
      <trkpt lat="42.49681" lon="2.74369">
        <ele>143.1</ele>
        <time>2021-08-31T03:22:30.486Z</time>
      </trkpt>
      <trkpt lat="42.49664" lon="2.74396">
        <ele>142.9</ele>
        <time>2021-08-31T03:22:34.142Z</time>
      </trkpt>
      <trkpt lat="42.49651" lon="2.74411">
        <ele>141.1</ele>
        <time>2021-08-31T03:22:35.580Z</time>
      </trkpt>
      <trkpt lat="42.49627" lon="2.74447">
        <ele>138.4</ele>
        <time>2021-08-31T03:22:38.594Z</time>
      </trkpt>
      <trkpt lat="42.49627" lon="2.74447">
        <ele>138.4</ele>
        <time>2021-08-31T03:22:38.594Z</time>
      </trkpt>
      <trkpt lat="42.4961" lon="2.74452">
        <ele>136.2</ele>
        <time>2021-08-31T03:22:40.060Z</time>
      </trkpt>
      <trkpt lat="42.49602" lon="2.74453">
        <ele>135.2</ele>
        <time>2021-08-31T03:22:40.737Z</time>
      </trkpt>
      <trkpt lat="42.4959" lon="2.74453">
        <ele>133.4</ele>
        <time>2021-08-31T03:22:41.748Z</time>
      </trkpt>
      <trkpt lat="42.49587" lon="2.74462">
        <ele>133.8</ele>
        <time>2021-08-31T03:22:43.886Z</time>
      </trkpt>
      <trkpt lat="42.49588" lon="2.74466">
        <ele>134.3</ele>
        <time>2021-08-31T03:22:45.839Z</time>
      </trkpt>
      <trkpt lat="42.49594" lon="2.74463">
        <ele>134.9</ele>
        <time>2021-08-31T03:22:48.388Z</time>
      </trkpt>
      <trkpt lat="42.49603" lon="2.74459">
        <ele>135.8</ele>
        <time>2021-08-31T03:22:52.206Z</time>
      </trkpt>
      <trkpt lat="42.49616" lon="2.74457">
        <ele>137.4</ele>
        <time>2021-08-31T03:22:59.271Z</time>
      </trkpt>
      <trkpt lat="42.49608" lon="2.74473">
        <ele>137.4</ele>
        <time>2021-08-31T03:23:01.588Z</time>
      </trkpt>
      <trkpt lat="42.49608" lon="2.7448">
        <ele>137.9</ele>
        <time>2021-08-31T03:23:03.705Z</time>
      </trkpt>
      <trkpt lat="42.49618" lon="2.74486">
        <ele>139.5</ele>
        <time>2021-08-31T03:23:10.561Z</time>
      </trkpt>
      <trkpt lat="42.4965" lon="2.74501">
        <ele>143.4</ele>
        <time>2021-08-31T03:23:27.358Z</time>
      </trkpt>
      <trkpt lat="42.49652" lon="2.74501">
        <ele>143.6</ele>
        <time>2021-08-31T03:23:28.203Z</time>
      </trkpt>
      <trkpt lat="42.49661" lon="2.74503">
        <ele>144.5</ele>
        <time>2021-08-31T03:23:32.009Z</time>
      </trkpt>
      <trkpt lat="42.49706" lon="2.74501">
        <ele>145.9</ele>
        <time>2021-08-31T03:23:42.242Z</time>
      </trkpt>
      <trkpt lat="42.49714" lon="2.74503">
        <ele>146.1</ele>
        <time>2021-08-31T03:23:43.948Z</time>
      </trkpt>
      <trkpt lat="42.49721" lon="2.7451">
        <ele>146.3</ele>
        <time>2021-08-31T03:23:45.739Z</time>
      </trkpt>
      <trkpt lat="42.49738" lon="2.7454">
        <ele>146.4</ele>
        <time>2021-08-31T03:23:50.427Z</time>
      </trkpt>
      <trkpt lat="42.49759" lon="2.74568">
        <ele>146.2</ele>
        <time>2021-08-31T03:23:54.763Z</time>
      </trkpt>
      <trkpt lat="42.49774" lon="2.74586">
        <ele>146</ele>
        <time>2021-08-31T03:23:57.473Z</time>
      </trkpt>
      <trkpt lat="42.49793" lon="2.74606">
        <ele>145.9</ele>
        <time>2021-08-31T03:24:01.148Z</time>
      </trkpt>
      <trkpt lat="42.49801" lon="2.74613">
        <ele>145.9</ele>
        <time>2021-08-31T03:24:02.695Z</time>
      </trkpt>
      <trkpt lat="42.49811" lon="2.74608">
        <ele>145.9</ele>
        <time>2021-08-31T03:24:04.428Z</time>
      </trkpt>
      <trkpt lat="42.49816" lon="2.74606">
        <ele>145.9</ele>
        <time>2021-08-31T03:24:05.275Z</time>
      </trkpt>
      <trkpt lat="42.49821" lon="2.74624">
        <ele>145.9</ele>
        <time>2021-08-31T03:24:07.580Z</time>
      </trkpt>
      <trkpt lat="42.49825" lon="2.74637">
        <ele>145.9</ele>
        <time>2021-08-31T03:24:09.268Z</time>
      </trkpt>
      <trkpt lat="42.49841" lon="2.7465">
        <ele>146</ele>
        <time>2021-08-31T03:24:12.456Z</time>
      </trkpt>
      <trkpt lat="42.49863" lon="2.74667">
        <ele>146</ele>
        <time>2021-08-31T03:24:16.572Z</time>
      </trkpt>
      <trkpt lat="42.49873" lon="2.74675">
        <ele>145.8</ele>
        <time>2021-08-31T03:24:18.005Z</time>
      </trkpt>
      <trkpt lat="42.49886" lon="2.7469">
        <ele>145.6</ele>
        <time>2021-08-31T03:24:20.262Z</time>
      </trkpt>
      <trkpt lat="42.49898" lon="2.74697">
        <ele>145.6</ele>
        <time>2021-08-31T03:24:22.385Z</time>
      </trkpt>
      <trkpt lat="42.49937" lon="2.7469">
        <ele>146</ele>
        <time>2021-08-31T03:24:29.436Z</time>
      </trkpt>
      <trkpt lat="42.49951" lon="2.74691">
        <ele>146.1</ele>
        <time>2021-08-31T03:24:31.874Z</time>
      </trkpt>
      <trkpt lat="42.49965" lon="2.74698">
        <ele>146.2</ele>
        <time>2021-08-31T03:24:34.458Z</time>
      </trkpt>
      <trkpt lat="42.49977" lon="2.74711">
        <ele>146.2</ele>
        <time>2021-08-31T03:24:36.954Z</time>
      </trkpt>
      <trkpt lat="42.49989" lon="2.74731">
        <ele>146.1</ele>
        <time>2021-08-31T03:24:39.814Z</time>
      </trkpt>
      <trkpt lat="42.50014" lon="2.74773">
        <ele>145.7</ele>
        <time>2021-08-31T03:24:45.194Z</time>
      </trkpt>
      <trkpt lat="42.50017" lon="2.74784">
        <ele>145.6</ele>
        <time>2021-08-31T03:24:46.340Z</time>
      </trkpt>
      <trkpt lat="42.50082" lon="2.74899">
        <ele>144.2</ele>
        <time>2021-08-31T03:25:00.221Z</time>
      </trkpt>
      <trkpt lat="42.50114" lon="2.74948">
        <ele>144.4</ele>
        <time>2021-08-31T03:25:08.375Z</time>
      </trkpt>
      <trkpt lat="42.50119" lon="2.74961">
        <ele>144.3</ele>
        <time>2021-08-31T03:25:09.852Z</time>
      </trkpt>
      <trkpt lat="42.50127" lon="2.7499">
        <ele>144.2</ele>
        <time>2021-08-31T03:25:13.329Z</time>
      </trkpt>
      <trkpt lat="42.50142" lon="2.7508">
        <ele>143.4</ele>
        <time>2021-08-31T03:25:22.322Z</time>
      </trkpt>
      <trkpt lat="42.50149" lon="2.75098">
        <ele>143.4</ele>
        <time>2021-08-31T03:25:24.760Z</time>
      </trkpt>
      <trkpt lat="42.50153" lon="2.75108">
        <ele>143.4</ele>
        <time>2021-08-31T03:25:26.124Z</time>
      </trkpt>
      <trkpt lat="42.50156" lon="2.75117">
        <ele>143.3</ele>
        <time>2021-08-31T03:25:27.062Z</time>
      </trkpt>
      <trkpt lat="42.50172" lon="2.75152">
        <ele>143.2</ele>
        <time>2021-08-31T03:25:31.760Z</time>
      </trkpt>
      <trkpt lat="42.50183" lon="2.75167">
        <ele>143.2</ele>
        <time>2021-08-31T03:25:34.295Z</time>
      </trkpt>
      <trkpt lat="42.50214" lon="2.75211">
        <ele>143</ele>
        <time>2021-08-31T03:25:41.122Z</time>
      </trkpt>
      <trkpt lat="42.50246" lon="2.75266">
        <ele>142.8</ele>
        <time>2021-08-31T03:25:49.048Z</time>
      </trkpt>
      <trkpt lat="42.50263" lon="2.75299">
        <ele>142.4</ele>
        <time>2021-08-31T03:25:52.886Z</time>
      </trkpt>
      <trkpt lat="42.50268" lon="2.75308">
        <ele>142.3</ele>
        <time>2021-08-31T03:25:53.980Z</time>
      </trkpt>
      <trkpt lat="42.50296" lon="2.7537">
        <ele>141.4</ele>
        <time>2021-08-31T03:26:00.632Z</time>
      </trkpt>
      <trkpt lat="42.50309" lon="2.75402">
        <ele>140.9</ele>
        <time>2021-08-31T03:26:03.904Z</time>
      </trkpt>
      <trkpt lat="42.50313" lon="2.75419">
        <ele>140.7</ele>
        <time>2021-08-31T03:26:05.568Z</time>
      </trkpt>
      <trkpt lat="42.50321" lon="2.7545">
        <ele>140.5</ele>
        <time>2021-08-31T03:26:08.922Z</time>
      </trkpt>
      <trkpt lat="42.50334" lon="2.75488">
        <ele>140.1</ele>
        <time>2021-08-31T03:26:12.942Z</time>
      </trkpt>
      <trkpt lat="42.50346" lon="2.75517">
        <ele>139.6</ele>
        <time>2021-08-31T03:26:15.856Z</time>
      </trkpt>
      <trkpt lat="42.50366" lon="2.75555">
        <ele>138.7</ele>
        <time>2021-08-31T03:26:19.691Z</time>
      </trkpt>
      <trkpt lat="42.50411" lon="2.75679">
        <ele>137.6</ele>
        <time>2021-08-31T03:26:33.331Z</time>
      </trkpt>
      <trkpt lat="42.50422" lon="2.75696">
        <ele>137.3</ele>
        <time>2021-08-31T03:26:35.370Z</time>
      </trkpt>
      <trkpt lat="42.50425" lon="2.75701">
        <ele>137.2</ele>
        <time>2021-08-31T03:26:35.931Z</time>
      </trkpt>
      <trkpt lat="42.50475" lon="2.75785">
        <ele>135.3</ele>
        <time>2021-08-31T03:26:45.023Z</time>
      </trkpt>
      <trkpt lat="42.50492" lon="2.75812">
        <ele>134.6</ele>
        <time>2021-08-31T03:26:47.919Z</time>
      </trkpt>
      <trkpt lat="42.50524" lon="2.7586">
        <ele>134.2</ele>
        <time>2021-08-31T03:26:54.515Z</time>
      </trkpt>
      <trkpt lat="42.50557" lon="2.75905">
        <ele>134.1</ele>
        <time>2021-08-31T03:27:01.880Z</time>
      </trkpt>
      <trkpt lat="42.50588" lon="2.75944">
        <ele>133.7</ele>
        <time>2021-08-31T03:27:07.641Z</time>
      </trkpt>
      <trkpt lat="42.50627" lon="2.76008">
        <ele>133.5</ele>
        <time>2021-08-31T03:27:17.116Z</time>
      </trkpt>
      <trkpt lat="42.50658" lon="2.76065">
        <ele>133.8</ele>
        <time>2021-08-31T03:27:26.075Z</time>
      </trkpt>
      <trkpt lat="42.50665" lon="2.76079">
        <ele>134</ele>
        <time>2021-08-31T03:27:28.451Z</time>
      </trkpt>
      <trkpt lat="42.50676" lon="2.76095">
        <ele>133.6</ele>
        <time>2021-08-31T03:27:30.274Z</time>
      </trkpt>
      <trkpt lat="42.50695" lon="2.76114">
        <ele>133.2</ele>
        <time>2021-08-31T03:27:33.198Z</time>
      </trkpt>
      <trkpt lat="42.5072" lon="2.76128">
        <ele>133</ele>
        <time>2021-08-31T03:27:36.988Z</time>
      </trkpt>
      <trkpt lat="42.50755" lon="2.76151">
        <ele>133</ele>
        <time>2021-08-31T03:27:43.309Z</time>
      </trkpt>
      <trkpt lat="42.50773" lon="2.76168">
        <ele>133</ele>
        <time>2021-08-31T03:27:46.874Z</time>
      </trkpt>
      <trkpt lat="42.50795" lon="2.76198">
        <ele>132</ele>
        <time>2021-08-31T03:27:50.138Z</time>
      </trkpt>
      <trkpt lat="42.50802" lon="2.7621">
        <ele>131.6</ele>
        <time>2021-08-31T03:27:51.278Z</time>
      </trkpt>
      <trkpt lat="42.50821" lon="2.76248">
        <ele>130.2</ele>
        <time>2021-08-31T03:27:54.511Z</time>
      </trkpt>
      <trkpt lat="42.50871" lon="2.76317">
        <ele>130.4</ele>
        <time>2021-08-31T03:28:06.409Z</time>
      </trkpt>
      <trkpt lat="42.50929" lon="2.76403">
        <ele>130.9</ele>
        <time>2021-08-31T03:28:21.162Z</time>
      </trkpt>
      <trkpt lat="42.50949" lon="2.76443">
        <ele>130.1</ele>
        <time>2021-08-31T03:28:25.298Z</time>
      </trkpt>
      <trkpt lat="42.50961" lon="2.76476">
        <ele>129.4</ele>
        <time>2021-08-31T03:28:28.330Z</time>
      </trkpt>
      <trkpt lat="42.50967" lon="2.76502">
        <ele>129</ele>
        <time>2021-08-31T03:28:30.731Z</time>
      </trkpt>
      <trkpt lat="42.50988" lon="2.76596">
        <ele>127.9</ele>
        <time>2021-08-31T03:28:39.894Z</time>
      </trkpt>
      <trkpt lat="42.50998" lon="2.76625">
        <ele>128.5</ele>
        <time>2021-08-31T03:28:44.895Z</time>
      </trkpt>
      <trkpt lat="42.51005" lon="2.76643">
        <ele>128.9</ele>
        <time>2021-08-31T03:28:48.121Z</time>
      </trkpt>
      <trkpt lat="42.51009" lon="2.76653">
        <ele>129.2</ele>
        <time>2021-08-31T03:28:50.148Z</time>
      </trkpt>
      <trkpt lat="42.51015" lon="2.76665">
        <ele>129.5</ele>
        <time>2021-08-31T03:28:52.487Z</time>
      </trkpt>
      <trkpt lat="42.51028" lon="2.76677">
        <ele>129.7</ele>
        <time>2021-08-31T03:28:55.380Z</time>
      </trkpt>
      <trkpt lat="42.51071" lon="2.76711">
        <ele>129.6</ele>
        <time>2021-08-31T03:29:03.228Z</time>
      </trkpt>
      <trkpt lat="42.51162" lon="2.76802">
        <ele>130.7</ele>
        <time>2021-08-31T03:29:23.401Z</time>
      </trkpt>
      <trkpt lat="42.51174" lon="2.76816">
        <ele>130.4</ele>
        <time>2021-08-31T03:29:25.315Z</time>
      </trkpt>
      <trkpt lat="42.51217" lon="2.76882">
        <ele>129.9</ele>
        <time>2021-08-31T03:29:34.375Z</time>
      </trkpt>
      <trkpt lat="42.51263" lon="2.76969">
        <ele>129.3</ele>
        <time>2021-08-31T03:29:45.404Z</time>
      </trkpt>
      <trkpt lat="42.51278" lon="2.77007">
        <ele>128.3</ele>
        <time>2021-08-31T03:29:48.748Z</time>
      </trkpt>
      <trkpt lat="42.51292" lon="2.77045">
        <ele>126.6</ele>
        <time>2021-08-31T03:29:51.415Z</time>
      </trkpt>
      <trkpt lat="42.51297" lon="2.77054">
        <ele>126.3</ele>
        <time>2021-08-31T03:29:52.249Z</time>
      </trkpt>
      <trkpt lat="42.51303" lon="2.77063">
        <ele>126</ele>
        <time>2021-08-31T03:29:53.171Z</time>
      </trkpt>
      <trkpt lat="42.51307" lon="2.77072">
        <ele>125.8</ele>
        <time>2021-08-31T03:29:54.037Z</time>
      </trkpt>
      <trkpt lat="42.51327" lon="2.77136">
        <ele>124</ele>
        <time>2021-08-31T03:29:59.234Z</time>
      </trkpt>
      <trkpt lat="42.51325" lon="2.77157">
        <ele>123.2</ele>
        <time>2021-08-31T03:30:00.598Z</time>
      </trkpt>
      <trkpt lat="42.51333" lon="2.77191">
        <ele>123.3</ele>
        <time>2021-08-31T03:30:05.028Z</time>
      </trkpt>
      <trkpt lat="42.51338" lon="2.77199">
        <ele>123.6</ele>
        <time>2021-08-31T03:30:06.978Z</time>
      </trkpt>
      <trkpt lat="42.51347" lon="2.77202">
        <ele>124</ele>
        <time>2021-08-31T03:30:09.469Z</time>
      </trkpt>
      <trkpt lat="42.51353" lon="2.7721">
        <ele>124.4</ele>
        <time>2021-08-31T03:30:11.822Z</time>
      </trkpt>
      <trkpt lat="42.51357" lon="2.77269">
        <ele>125.1</ele>
        <time>2021-08-31T03:30:20.142Z</time>
      </trkpt>
      <trkpt lat="42.51375" lon="2.7733">
        <ele>126</ele>
        <time>2021-08-31T03:30:29.629Z</time>
      </trkpt>
      <trkpt lat="42.51382" lon="2.77348">
        <ele>126.1</ele>
        <time>2021-08-31T03:30:32.226Z</time>
      </trkpt>
      <trkpt lat="42.51406" lon="2.77389">
        <ele>127.2</ele>
        <time>2021-08-31T03:30:40.715Z</time>
      </trkpt>
      <trkpt lat="42.5142" lon="2.77419">
        <ele>128.1</ele>
        <time>2021-08-31T03:30:46.926Z</time>
      </trkpt>
      <trkpt lat="42.51437" lon="2.77444">
        <ele>128.2</ele>
        <time>2021-08-31T03:30:51.155Z</time>
      </trkpt>
      <trkpt lat="42.51451" lon="2.77457">
        <ele>128.5</ele>
        <time>2021-08-31T03:30:54.446Z</time>
      </trkpt>
      <trkpt lat="42.5146" lon="2.7746">
        <ele>128.8</ele>
        <time>2021-08-31T03:30:56.587Z</time>
      </trkpt>
      <trkpt lat="42.51465" lon="2.77466">
        <ele>128.9</ele>
        <time>2021-08-31T03:30:57.844Z</time>
      </trkpt>
      <trkpt lat="42.51467" lon="2.77475">
        <ele>128.8</ele>
        <time>2021-08-31T03:30:58.730Z</time>
      </trkpt>
      <trkpt lat="42.51464" lon="2.77495">
        <ele>128.4</ele>
        <time>2021-08-31T03:31:00.397Z</time>
      </trkpt>
      <trkpt lat="42.51462" lon="2.77502">
        <ele>128.1</ele>
        <time>2021-08-31T03:31:00.869Z</time>
      </trkpt>
      <trkpt lat="42.51463" lon="2.77508">
        <ele>128.1</ele>
        <time>2021-08-31T03:31:01.606Z</time>
      </trkpt>
      <trkpt lat="42.51477" lon="2.77572">
        <ele>127.4</ele>
        <time>2021-08-31T03:31:07.909Z</time>
      </trkpt>
      <trkpt lat="42.5148" lon="2.77586">
        <ele>127.2</ele>
        <time>2021-08-31T03:31:09.214Z</time>
      </trkpt>
      <trkpt lat="42.51503" lon="2.777">
        <ele>126.3</ele>
        <time>2021-08-31T03:31:20.948Z</time>
      </trkpt>
      <trkpt lat="42.51504" lon="2.77716">
        <ele>126</ele>
        <time>2021-08-31T03:31:22.278Z</time>
      </trkpt>
      <trkpt lat="42.51503" lon="2.7772">
        <ele>125.9</ele>
        <time>2021-08-31T03:31:22.604Z</time>
      </trkpt>
      <trkpt lat="42.515" lon="2.77723">
        <ele>125.6</ele>
        <time>2021-08-31T03:31:22.918Z</time>
      </trkpt>
      <trkpt lat="42.51367" lon="2.77799">
        <ele>121.7</ele>
        <time>2021-08-31T03:31:38.840Z</time>
      </trkpt>
      <trkpt lat="42.51362" lon="2.77805">
        <ele>121.7</ele>
        <time>2021-08-31T03:31:39.925Z</time>
      </trkpt>
      <trkpt lat="42.51361" lon="2.77811">
        <ele>121.7</ele>
        <time>2021-08-31T03:31:40.662Z</time>
      </trkpt>
      <trkpt lat="42.51362" lon="2.77818">
        <ele>121.7</ele>
        <time>2021-08-31T03:31:41.516Z</time>
      </trkpt>
      <trkpt lat="42.51429" lon="2.77986">
        <ele>121.5</ele>
        <time>2021-08-31T03:32:03.914Z</time>
      </trkpt>
      <trkpt lat="42.51433" lon="2.78003">
        <ele>121.1</ele>
        <time>2021-08-31T03:32:05.314Z</time>
      </trkpt>
      <trkpt lat="42.51432" lon="2.78012">
        <ele>120.9</ele>
        <time>2021-08-31T03:32:06.032Z</time>
      </trkpt>
      <trkpt lat="42.51431" lon="2.78016">
        <ele>120.8</ele>
        <time>2021-08-31T03:32:06.358Z</time>
      </trkpt>
      <trkpt lat="42.51429" lon="2.78022">
        <ele>120.7</ele>
        <time>2021-08-31T03:32:06.933Z</time>
      </trkpt>
      <trkpt lat="42.51422" lon="2.7804">
        <ele>120.4</ele>
        <time>2021-08-31T03:32:08.725Z</time>
      </trkpt>
      <trkpt lat="42.51421" lon="2.78045">
        <ele>120.2</ele>
        <time>2021-08-31T03:32:09.055Z</time>
      </trkpt>
      <trkpt lat="42.51404" lon="2.78114">
        <ele>118.4</ele>
        <time>2021-08-31T03:32:14.580Z</time>
      </trkpt>
      <trkpt lat="42.51402" lon="2.78123">
        <ele>118.2</ele>
        <time>2021-08-31T03:32:15.330Z</time>
      </trkpt>
      <trkpt lat="42.51402" lon="2.78142">
        <ele>117.8</ele>
        <time>2021-08-31T03:32:16.850Z</time>
      </trkpt>
      <trkpt lat="42.51405" lon="2.78158">
        <ele>117.3</ele>
        <time>2021-08-31T03:32:18.015Z</time>
      </trkpt>
      <trkpt lat="42.51406" lon="2.78165">
        <ele>117.2</ele>
        <time>2021-08-31T03:32:18.650Z</time>
      </trkpt>
      <trkpt lat="42.51403" lon="2.78172">
        <ele>117.1</ele>
        <time>2021-08-31T03:32:19.390Z</time>
      </trkpt>
      <trkpt lat="42.5133" lon="2.78227">
        <ele>116.6</ele>
        <time>2021-08-31T03:32:31.822Z</time>
      </trkpt>
      <trkpt lat="42.51325" lon="2.78237">
        <ele>116.5</ele>
        <time>2021-08-31T03:32:33.008Z</time>
      </trkpt>
      <trkpt lat="42.51325" lon="2.78241">
        <ele>116.4</ele>
        <time>2021-08-31T03:32:33.311Z</time>
      </trkpt>
      <trkpt lat="42.51425" lon="2.78471">
        <ele>116</ele>
        <time>2021-08-31T03:33:04.337Z</time>
      </trkpt>
      <trkpt lat="42.51458" lon="2.78548">
        <ele>115.7</ele>
        <time>2021-08-31T03:33:14.310Z</time>
      </trkpt>
      <trkpt lat="42.51492" lon="2.78623">
        <ele>115.5</ele>
        <time>2021-08-31T03:33:24.384Z</time>
      </trkpt>
      <trkpt lat="42.51516" lon="2.78658">
        <ele>115.1</ele>
        <time>2021-08-31T03:33:29.066Z</time>
      </trkpt>
      <trkpt lat="42.51519" lon="2.78666">
        <ele>115</ele>
        <time>2021-08-31T03:33:29.904Z</time>
      </trkpt>
      <trkpt lat="42.51519" lon="2.78672">
        <ele>115</ele>
        <time>2021-08-31T03:33:30.623Z</time>
      </trkpt>
      <trkpt lat="42.51511" lon="2.78685">
        <ele>115</ele>
        <time>2021-08-31T03:33:32.652Z</time>
      </trkpt>
      <trkpt lat="42.515" lon="2.78686">
        <ele>115</ele>
        <time>2021-08-31T03:33:34.444Z</time>
      </trkpt>
      <trkpt lat="42.51489" lon="2.78687">
        <ele>115.1</ele>
        <time>2021-08-31T03:33:36.398Z</time>
      </trkpt>
      <trkpt lat="42.51481" lon="2.78692">
        <ele>115.1</ele>
        <time>2021-08-31T03:33:37.830Z</time>
      </trkpt>
      <trkpt lat="42.51477" lon="2.78686">
        <ele>115.1</ele>
        <time>2021-08-31T03:33:38.799Z</time>
      </trkpt>
      <trkpt lat="42.51472" lon="2.78684">
        <ele>115.2</ele>
        <time>2021-08-31T03:33:39.827Z</time>
      </trkpt>
      <trkpt lat="42.51466" lon="2.78684">
        <ele>115.2</ele>
        <time>2021-08-31T03:33:40.802Z</time>
      </trkpt>
      <trkpt lat="42.5146" lon="2.78688">
        <ele>115.2</ele>
        <time>2021-08-31T03:33:41.889Z</time>
      </trkpt>
      <trkpt lat="42.51458" lon="2.78692">
        <ele>115.2</ele>
        <time>2021-08-31T03:33:42.468Z</time>
      </trkpt>
      <trkpt lat="42.51456" lon="2.78696">
        <ele>115.2</ele>
        <time>2021-08-31T03:33:43.047Z</time>
      </trkpt>
      <trkpt lat="42.51438" lon="2.78695">
        <ele>115.2</ele>
        <time>2021-08-31T03:33:45.975Z</time>
      </trkpt>
      <trkpt lat="42.51414" lon="2.78704">
        <ele>115.1</ele>
        <time>2021-08-31T03:33:49.788Z</time>
      </trkpt>
      <trkpt lat="42.51403" lon="2.78712">
        <ele>114.7</ele>
        <time>2021-08-31T03:33:51.094Z</time>
      </trkpt>
      <trkpt lat="42.51396" lon="2.78716">
        <ele>114.6</ele>
        <time>2021-08-31T03:33:52.080Z</time>
      </trkpt>
      <trkpt lat="42.51331" lon="2.78739">
        <ele>113.2</ele>
        <time>2021-08-31T03:34:00.023Z</time>
      </trkpt>
      <trkpt lat="42.51314" lon="2.78748">
        <ele>112.1</ele>
        <time>2021-08-31T03:34:01.503Z</time>
      </trkpt>
      <trkpt lat="42.51306" lon="2.78754">
        <ele>111.7</ele>
        <time>2021-08-31T03:34:02.357Z</time>
      </trkpt>
      <trkpt lat="42.51299" lon="2.78765">
        <ele>111.2</ele>
        <time>2021-08-31T03:34:03.332Z</time>
      </trkpt>
      <trkpt lat="42.51288" lon="2.78795">
        <ele>110.2</ele>
        <time>2021-08-31T03:34:05.710Z</time>
      </trkpt>
      <trkpt lat="42.5128" lon="2.78849">
        <ele>108.7</ele>
        <time>2021-08-31T03:34:09.754Z</time>
      </trkpt>
      <trkpt lat="42.51273" lon="2.78869">
        <ele>107.5</ele>
        <time>2021-08-31T03:34:11.129Z</time>
      </trkpt>
      <trkpt lat="42.51262" lon="2.78878">
        <ele>106.3</ele>
        <time>2021-08-31T03:34:12.211Z</time>
      </trkpt>
      <trkpt lat="42.5125" lon="2.78884">
        <ele>105.2</ele>
        <time>2021-08-31T03:34:13.289Z</time>
      </trkpt>
      <trkpt lat="42.5123" lon="2.78898">
        <ele>103.4</ele>
        <time>2021-08-31T03:34:15.185Z</time>
      </trkpt>
      <trkpt lat="42.51217" lon="2.78911">
        <ele>102.5</ele>
        <time>2021-08-31T03:34:16.544Z</time>
      </trkpt>
      <trkpt lat="42.51167" lon="2.78984">
        <ele>104.8</ele>
        <time>2021-08-31T03:34:33.284Z</time>
      </trkpt>
      <trkpt lat="42.51161" lon="2.78987">
        <ele>105</ele>
        <time>2021-08-31T03:34:34.741Z</time>
      </trkpt>
      <trkpt lat="42.51162" lon="2.78997">
        <ele>105.7</ele>
        <time>2021-08-31T03:34:37.714Z</time>
      </trkpt>
      <trkpt lat="42.51173" lon="2.79004">
        <ele>105.9</ele>
        <time>2021-08-31T03:34:40.040Z</time>
      </trkpt>
      <trkpt lat="42.51185" lon="2.79016">
        <ele>105.7</ele>
        <time>2021-08-31T03:34:41.969Z</time>
      </trkpt>
      <trkpt lat="42.5119" lon="2.79021">
        <ele>105.6</ele>
        <time>2021-08-31T03:34:42.747Z</time>
      </trkpt>
      <trkpt lat="42.51212" lon="2.79035">
        <ele>105</ele>
        <time>2021-08-31T03:34:45.497Z</time>
      </trkpt>
      <trkpt lat="42.51238" lon="2.79062">
        <ele>103.9</ele>
        <time>2021-08-31T03:34:48.869Z</time>
      </trkpt>
      <trkpt lat="42.51265" lon="2.79085">
        <ele>103.5</ele>
        <time>2021-08-31T03:34:53.041Z</time>
      </trkpt>
      <trkpt lat="42.51269" lon="2.7909">
        <ele>103.6</ele>
        <time>2021-08-31T03:34:54.104Z</time>
      </trkpt>
      <trkpt lat="42.51276" lon="2.79107">
        <ele>103.5</ele>
        <time>2021-08-31T03:34:56.212Z</time>
      </trkpt>
      <trkpt lat="42.51277" lon="2.79116">
        <ele>103.4</ele>
        <time>2021-08-31T03:34:57.065Z</time>
      </trkpt>
      <trkpt lat="42.51271" lon="2.79159">
        <ele>102.4</ele>
        <time>2021-08-31T03:35:00.477Z</time>
      </trkpt>
      <trkpt lat="42.51267" lon="2.79165">
        <ele>102.1</ele>
        <time>2021-08-31T03:35:01.002Z</time>
      </trkpt>
      <trkpt lat="42.5124" lon="2.792">
        <ele>101.9</ele>
        <time>2021-08-31T03:35:06.612Z</time>
      </trkpt>
      <trkpt lat="42.51221" lon="2.79208">
        <ele>102.2</ele>
        <time>2021-08-31T03:35:10.364Z</time>
      </trkpt>
      <trkpt lat="42.51187" lon="2.79249">
        <ele>101.5</ele>
        <time>2021-08-31T03:35:16.107Z</time>
      </trkpt>
      <trkpt lat="42.51186" lon="2.79257">
        <ele>101.4</ele>
        <time>2021-08-31T03:35:16.849Z</time>
      </trkpt>
      <trkpt lat="42.51198" lon="2.79276">
        <ele>101.9</ele>
        <time>2021-08-31T03:35:20.837Z</time>
      </trkpt>
      <trkpt lat="42.512" lon="2.79284">
        <ele>102</ele>
        <time>2021-08-31T03:35:22.024Z</time>
      </trkpt>
      <trkpt lat="42.51198" lon="2.79291">
        <ele>101.9</ele>
        <time>2021-08-31T03:35:22.700Z</time>
      </trkpt>
      <trkpt lat="42.5118" lon="2.79324">
        <ele>99.9</ele>
        <time>2021-08-31T03:35:25.046Z</time>
      </trkpt>
      <trkpt lat="42.51181" lon="2.79333">
        <ele>99.9</ele>
        <time>2021-08-31T03:35:26.137Z</time>
      </trkpt>
      <trkpt lat="42.51185" lon="2.79341">
        <ele>100.1</ele>
        <time>2021-08-31T03:35:27.696Z</time>
      </trkpt>
      <trkpt lat="42.51167" lon="2.79354">
        <ele>97.3</ele>
        <time>2021-08-31T03:35:29.413Z</time>
      </trkpt>
      <trkpt lat="42.51183" lon="2.79414">
        <ele>96.9</ele>
        <time>2021-08-31T03:35:35.905Z</time>
      </trkpt>
      <trkpt lat="42.51189" lon="2.79431">
        <ele>96.7</ele>
        <time>2021-08-31T03:35:37.681Z</time>
      </trkpt>
      <trkpt lat="42.51216" lon="2.79486">
        <ele>94.2</ele>
        <time>2021-08-31T03:35:41.935Z</time>
      </trkpt>
      <trkpt lat="42.51247" lon="2.79545">
        <ele>92.5</ele>
        <time>2021-08-31T03:35:47.536Z</time>
      </trkpt>
      <trkpt lat="42.51258" lon="2.79572">
        <ele>92.3</ele>
        <time>2021-08-31T03:35:50.662Z</time>
      </trkpt>
      <trkpt lat="42.51259" lon="2.79581">
        <ele>92.2</ele>
        <time>2021-08-31T03:35:51.514Z</time>
      </trkpt>
      <trkpt lat="42.5126" lon="2.79595">
        <ele>92.1</ele>
        <time>2021-08-31T03:35:52.924Z</time>
      </trkpt>
      <trkpt lat="42.51255" lon="2.79635">
        <ele>91.5</ele>
        <time>2021-08-31T03:35:56.492Z</time>
      </trkpt>
      <trkpt lat="42.51262" lon="2.79708">
        <ele>91</ele>
        <time>2021-08-31T03:36:03.911Z</time>
      </trkpt>
      <trkpt lat="42.51268" lon="2.79784">
        <ele>92.3</ele>
        <time>2021-08-31T03:36:15.523Z</time>
      </trkpt>
      <trkpt lat="42.51271" lon="2.79818">
        <ele>93.3</ele>
        <time>2021-08-31T03:36:21.962Z</time>
      </trkpt>
      <trkpt lat="42.5128" lon="2.79844">
        <ele>93.5</ele>
        <time>2021-08-31T03:36:25.730Z</time>
      </trkpt>
      <trkpt lat="42.51284" lon="2.79861">
        <ele>92.7</ele>
        <time>2021-08-31T03:36:26.792Z</time>
      </trkpt>
      <trkpt lat="42.51286" lon="2.79883">
        <ele>91.6</ele>
        <time>2021-08-31T03:36:28.169Z</time>
      </trkpt>
      <trkpt lat="42.5129" lon="2.79896">
        <ele>90.8</ele>
        <time>2021-08-31T03:36:29.043Z</time>
      </trkpt>
      <trkpt lat="42.51286" lon="2.7991">
        <ele>90.1</ele>
        <time>2021-08-31T03:36:29.920Z</time>
      </trkpt>
      <trkpt lat="42.51276" lon="2.7996">
        <ele>89.9</ele>
        <time>2021-08-31T03:36:35.666Z</time>
      </trkpt>
      <trkpt lat="42.51227" lon="2.80036">
        <ele>88.5</ele>
        <time>2021-08-31T03:36:44.680Z</time>
      </trkpt>
      <trkpt lat="42.51221" lon="2.80055">
        <ele>87.9</ele>
        <time>2021-08-31T03:36:46.163Z</time>
      </trkpt>
      <trkpt lat="42.51217" lon="2.80079">
        <ele>87.1</ele>
        <time>2021-08-31T03:36:47.851Z</time>
      </trkpt>
      <trkpt lat="42.51202" lon="2.80163">
        <ele>87</ele>
        <time>2021-08-31T03:36:57.963Z</time>
      </trkpt>
      <trkpt lat="42.512" lon="2.80177">
        <ele>87.1</ele>
        <time>2021-08-31T03:36:59.835Z</time>
      </trkpt>
      <trkpt lat="42.51201" lon="2.80184">
        <ele>87.1</ele>
        <time>2021-08-31T03:37:00.689Z</time>
      </trkpt>
      <trkpt lat="42.51195" lon="2.80198">
        <ele>87.4</ele>
        <time>2021-08-31T03:37:03.210Z</time>
      </trkpt>
      <trkpt lat="42.51191" lon="2.80206">
        <ele>87.6</ele>
        <time>2021-08-31T03:37:04.769Z</time>
      </trkpt>
      <trkpt lat="42.51179" lon="2.80239">
        <ele>88.8</ele>
        <time>2021-08-31T03:37:12.181Z</time>
      </trkpt>
      <trkpt lat="42.51174" lon="2.8027">
        <ele>89.3</ele>
        <time>2021-08-31T03:37:16.909Z</time>
      </trkpt>
      <trkpt lat="42.51166" lon="2.8031">
        <ele>89.3</ele>
        <time>2021-08-31T03:37:21.875Z</time>
      </trkpt>
      <trkpt lat="42.51161" lon="2.80336">
        <ele>88.7</ele>
        <time>2021-08-31T03:37:23.986Z</time>
      </trkpt>
      <trkpt lat="42.51148" lon="2.80403">
        <ele>86.1</ele>
        <time>2021-08-31T03:37:28.462Z</time>
      </trkpt>
      <trkpt lat="42.51145" lon="2.80447">
        <ele>84.1</ele>
        <time>2021-08-31T03:37:31.080Z</time>
      </trkpt>
      <trkpt lat="42.51148" lon="2.80532">
        <ele>81.4</ele>
        <time>2021-08-31T03:37:36.977Z</time>
      </trkpt>
      <trkpt lat="42.51152" lon="2.80556">
        <ele>81.9</ele>
        <time>2021-08-31T03:37:40.921Z</time>
      </trkpt>
      <trkpt lat="42.51158" lon="2.80574">
        <ele>82.4</ele>
        <time>2021-08-31T03:37:44.374Z</time>
      </trkpt>
      <trkpt lat="42.51226" lon="2.80705">
        <ele>86.3</ele>
        <time>2021-08-31T03:38:11.895Z</time>
      </trkpt>
      <trkpt lat="42.51248" lon="2.80728">
        <ele>85.5</ele>
        <time>2021-08-31T03:38:14.901Z</time>
      </trkpt>
      <trkpt lat="42.5128" lon="2.80796">
        <ele>81.4</ele>
        <time>2021-08-31T03:38:19.911Z</time>
      </trkpt>
      <trkpt lat="42.51349" lon="2.80921">
        <ele>81.8</ele>
        <time>2021-08-31T03:38:39.237Z</time>
      </trkpt>
      <trkpt lat="42.51385" lon="2.81003">
        <ele>80.9</ele>
        <time>2021-08-31T03:38:48.413Z</time>
      </trkpt>
      <trkpt lat="42.51398" lon="2.81023">
        <ele>81.8</ele>
        <time>2021-08-31T03:38:53.850Z</time>
      </trkpt>
      <trkpt lat="42.51418" lon="2.81063">
        <ele>83.5</ele>
        <time>2021-08-31T03:39:03.826Z</time>
      </trkpt>
      <trkpt lat="42.51446" lon="2.81127">
        <ele>83.7</ele>
        <time>2021-08-31T03:39:13.051Z</time>
      </trkpt>
      <trkpt lat="42.5148" lon="2.81186">
        <ele>84.4</ele>
        <time>2021-08-31T03:39:23.202Z</time>
      </trkpt>
      <trkpt lat="42.51501" lon="2.81229">
        <ele>83.3</ele>
        <time>2021-08-31T03:39:27.312Z</time>
      </trkpt>
      <trkpt lat="42.51517" lon="2.81246">
        <ele>82.4</ele>
        <time>2021-08-31T03:39:29.201Z</time>
      </trkpt>
      <trkpt lat="42.51538" lon="2.81254">
        <ele>82.4</ele>
        <time>2021-08-31T03:39:32.747Z</time>
      </trkpt>
      <trkpt lat="42.51545" lon="2.81257">
        <ele>82.4</ele>
        <time>2021-08-31T03:39:33.940Z</time>
      </trkpt>
      <trkpt lat="42.51573" lon="2.81291">
        <ele>82.7</ele>
        <time>2021-08-31T03:39:40.529Z</time>
      </trkpt>
      <trkpt lat="42.51606" lon="2.81338">
        <ele>80.6</ele>
        <time>2021-08-31T03:39:44.992Z</time>
      </trkpt>
      <trkpt lat="42.51618" lon="2.81366">
        <ele>78.7</ele>
        <time>2021-08-31T03:39:47.004Z</time>
      </trkpt>
      <trkpt lat="42.51626" lon="2.81391">
        <ele>77.6</ele>
        <time>2021-08-31T03:39:48.708Z</time>
      </trkpt>
      <trkpt lat="42.51634" lon="2.81435">
        <ele>77.1</ele>
        <time>2021-08-31T03:39:52.947Z</time>
      </trkpt>
      <trkpt lat="42.51641" lon="2.81467">
        <ele>77.5</ele>
        <time>2021-08-31T03:39:57.646Z</time>
      </trkpt>
      <trkpt lat="42.51652" lon="2.81496">
        <ele>77.9</ele>
        <time>2021-08-31T03:40:02.256Z</time>
      </trkpt>
      <trkpt lat="42.51656" lon="2.81508">
        <ele>77.8</ele>
        <time>2021-08-31T03:40:03.564Z</time>
      </trkpt>
      <trkpt lat="42.51699" lon="2.81613">
        <ele>78.1</ele>
        <time>2021-08-31T03:40:18.415Z</time>
      </trkpt>
      <trkpt lat="42.51709" lon="2.81632">
        <ele>78.5</ele>
        <time>2021-08-31T03:40:21.969Z</time>
      </trkpt>
      <trkpt lat="42.51718" lon="2.81645">
        <ele>78.8</ele>
        <time>2021-08-31T03:40:24.670Z</time>
      </trkpt>
      <trkpt lat="42.51724" lon="2.81651">
        <ele>79</ele>
        <time>2021-08-31T03:40:26.277Z</time>
      </trkpt>
      <trkpt lat="42.51758" lon="2.81673">
        <ele>79.8</ele>
        <time>2021-08-31T03:40:33.878Z</time>
      </trkpt>
      <trkpt lat="42.51805" lon="2.81703">
        <ele>78.5</ele>
        <time>2021-08-31T03:40:39.735Z</time>
      </trkpt>
      <trkpt lat="42.51811" lon="2.81719">
        <ele>78</ele>
        <time>2021-08-31T03:40:41.043Z</time>
      </trkpt>
      <trkpt lat="42.5182" lon="2.81741">
        <ele>77.4</ele>
        <time>2021-08-31T03:40:42.977Z</time>
      </trkpt>
      <trkpt lat="42.5183" lon="2.8176">
        <ele>77.3</ele>
        <time>2021-08-31T03:40:45.545Z</time>
      </trkpt>
      <trkpt lat="42.51833" lon="2.81774">
        <ele>77.6</ele>
        <time>2021-08-31T03:40:47.892Z</time>
      </trkpt>
      <trkpt lat="42.51832" lon="2.81789">
        <ele>77.9</ele>
        <time>2021-08-31T03:40:50.290Z</time>
      </trkpt>
      <trkpt lat="42.51797" lon="2.81854">
        <ele>77.9</ele>
        <time>2021-08-31T03:40:59.934Z</time>
      </trkpt>
      <trkpt lat="42.51796" lon="2.81866">
        <ele>77.7</ele>
        <time>2021-08-31T03:41:00.967Z</time>
      </trkpt>
      <trkpt lat="42.51813" lon="2.81918">
        <ele>77.5</ele>
        <time>2021-08-31T03:41:07.318Z</time>
      </trkpt>
      <trkpt lat="42.51867" lon="2.82045">
        <ele>77.4</ele>
        <time>2021-08-31T03:41:24.637Z</time>
      </trkpt>
      <trkpt lat="42.5188" lon="2.82089">
        <ele>77.4</ele>
        <time>2021-08-31T03:41:30.316Z</time>
      </trkpt>
      <trkpt lat="42.51885" lon="2.82116">
        <ele>77.6</ele>
        <time>2021-08-31T03:41:33.978Z</time>
      </trkpt>
      <trkpt lat="42.51916" lon="2.82198">
        <ele>79</ele>
        <time>2021-08-31T03:41:47.588Z</time>
      </trkpt>
      <trkpt lat="42.51932" lon="2.82267">
        <ele>80.1</ele>
        <time>2021-08-31T03:41:58.273Z</time>
      </trkpt>
      <trkpt lat="42.51942" lon="2.82325">
        <ele>79.9</ele>
        <time>2021-08-31T03:42:04.943Z</time>
      </trkpt>
      <trkpt lat="42.51961" lon="2.8237">
        <ele>79.8</ele>
        <time>2021-08-31T03:42:10.917Z</time>
      </trkpt>
      <trkpt lat="42.51965" lon="2.82399">
        <ele>78.7</ele>
        <time>2021-08-31T03:42:12.828Z</time>
      </trkpt>
      <trkpt lat="42.51966" lon="2.82448">
        <ele>78.1</ele>
        <time>2021-08-31T03:42:17.321Z</time>
      </trkpt>
      <trkpt lat="42.51962" lon="2.82532">
        <ele>78</ele>
        <time>2021-08-31T03:42:27.162Z</time>
      </trkpt>
      <trkpt lat="42.51959" lon="2.8257">
        <ele>77.6</ele>
        <time>2021-08-31T03:42:30.771Z</time>
      </trkpt>
      <trkpt lat="42.51952" lon="2.82612">
        <ele>76.7</ele>
        <time>2021-08-31T03:42:34.223Z</time>
      </trkpt>
      <trkpt lat="42.51945" lon="2.82643">
        <ele>75.8</ele>
        <time>2021-08-31T03:42:36.587Z</time>
      </trkpt>
      <trkpt lat="42.51941" lon="2.82664">
        <ele>75.3</ele>
        <time>2021-08-31T03:42:38.273Z</time>
      </trkpt>
      <trkpt lat="42.51936" lon="2.82686">
        <ele>75.2</ele>
        <time>2021-08-31T03:42:40.803Z</time>
      </trkpt>
      <trkpt lat="42.51935" lon="2.82696">
        <ele>75.3</ele>
        <time>2021-08-31T03:42:42.181Z</time>
      </trkpt>
      <trkpt lat="42.5194" lon="2.82731">
        <ele>76.4</ele>
        <time>2021-08-31T03:42:49.109Z</time>
      </trkpt>
      <trkpt lat="42.51945" lon="2.82789">
        <ele>77.2</ele>
        <time>2021-08-31T03:42:57.540Z</time>
      </trkpt>
      <trkpt lat="42.51949" lon="2.82859">
        <ele>77.5</ele>
        <time>2021-08-31T03:43:06.423Z</time>
      </trkpt>
      <trkpt lat="42.51942" lon="2.82893">
        <ele>76.3</ele>
        <time>2021-08-31T03:43:08.801Z</time>
      </trkpt>
      <trkpt lat="42.51937" lon="2.82915">
        <ele>75.5</ele>
        <time>2021-08-31T03:43:10.338Z</time>
      </trkpt>
      <trkpt lat="42.51924" lon="2.82959">
        <ele>73.3</ele>
        <time>2021-08-31T03:43:13.112Z</time>
      </trkpt>
      <trkpt lat="42.51919" lon="2.82982">
        <ele>72.5</ele>
        <time>2021-08-31T03:43:14.741Z</time>
      </trkpt>
      <trkpt lat="42.51916" lon="2.83009">
        <ele>72.1</ele>
        <time>2021-08-31T03:43:17.147Z</time>
      </trkpt>
      <trkpt lat="42.51907" lon="2.83055">
        <ele>72.7</ele>
        <time>2021-08-31T03:43:23.908Z</time>
      </trkpt>
      <trkpt lat="42.51907" lon="2.83091">
        <ele>73</ele>
        <time>2021-08-31T03:43:28.719Z</time>
      </trkpt>
      <trkpt lat="42.5191" lon="2.83111">
        <ele>72.8</ele>
        <time>2021-08-31T03:43:30.669Z</time>
      </trkpt>
      <trkpt lat="42.51914" lon="2.8315">
        <ele>72.3</ele>
        <time>2021-08-31T03:43:34.251Z</time>
      </trkpt>
      <trkpt lat="42.51918" lon="2.83167">
        <ele>72.1</ele>
        <time>2021-08-31T03:43:35.915Z</time>
      </trkpt>
      <trkpt lat="42.5193" lon="2.83182">
        <ele>72.3</ele>
        <time>2021-08-31T03:43:38.903Z</time>
      </trkpt>
      <trkpt lat="42.51939" lon="2.83172">
        <ele>73.2</ele>
        <time>2021-08-31T03:43:42.931Z</time>
      </trkpt>
      <trkpt lat="42.51945" lon="2.83171">
        <ele>73.5</ele>
        <time>2021-08-31T03:43:44.645Z</time>
      </trkpt>
      <trkpt lat="42.51959" lon="2.83174">
        <ele>74.2</ele>
        <time>2021-08-31T03:43:48.657Z</time>
      </trkpt>
      <trkpt lat="42.52011" lon="2.8319">
        <ele>76.1</ele>
        <time>2021-08-31T03:44:01.524Z</time>
      </trkpt>
      <trkpt lat="42.52035" lon="2.83195">
        <ele>76.8</ele>
        <time>2021-08-31T03:44:06.886Z</time>
      </trkpt>
      <trkpt lat="42.52045" lon="2.8319">
        <ele>77.5</ele>
        <time>2021-08-31T03:44:10.262Z</time>
      </trkpt>
      <trkpt lat="42.5202" lon="2.83167">
        <ele>77.7</ele>
        <time>2021-08-31T03:44:15.489Z</time>
      </trkpt>
      <trkpt lat="42.52016" lon="2.83162">
        <ele>77.6</ele>
        <time>2021-08-31T03:44:16.151Z</time>
      </trkpt>
      <trkpt lat="42.52015" lon="2.83155">
        <ele>77.7</ele>
        <time>2021-08-31T03:44:17.185Z</time>
      </trkpt>
      <trkpt lat="42.52015" lon="2.8315">
        <ele>77.8</ele>
        <time>2021-08-31T03:44:17.982Z</time>
      </trkpt>
      <trkpt lat="42.51997" lon="2.83147">
        <ele>77.1</ele>
        <time>2021-08-31T03:44:19.760Z</time>
      </trkpt>
      <trkpt lat="42.51993" lon="2.83148">
        <ele>76.8</ele>
        <time>2021-08-31T03:44:20.103Z</time>
      </trkpt>
      <trkpt lat="42.51969" lon="2.83151">
        <ele>75.3</ele>
        <time>2021-08-31T03:44:22.027Z</time>
      </trkpt>
      <trkpt lat="42.51958" lon="2.83153">
        <ele>74.6</ele>
        <time>2021-08-31T03:44:22.908Z</time>
      </trkpt>
      <trkpt lat="42.51849" lon="2.83187">
        <ele>73.1</ele>
        <time>2021-08-31T03:44:37.382Z</time>
      </trkpt>
      <trkpt lat="42.51803" lon="2.83203">
        <ele>73.7</ele>
        <time>2021-08-31T03:44:46.111Z</time>
      </trkpt>
      <trkpt lat="42.51791" lon="2.83203">
        <ele>73.9</ele>
        <time>2021-08-31T03:44:48.413Z</time>
      </trkpt>
      <trkpt lat="42.51793" lon="2.8321">
        <ele>73.7</ele>
        <time>2021-08-31T03:44:48.969Z</time>
      </trkpt>
      <trkpt lat="42.51794" lon="2.83217">
        <ele>73.5</ele>
        <time>2021-08-31T03:44:49.487Z</time>
      </trkpt>
      <trkpt lat="42.51801" lon="2.8321">
        <ele>73.5</ele>
        <time>2021-08-31T03:44:50.900Z</time>
      </trkpt>
      <trkpt lat="42.51839" lon="2.83197">
        <ele>73.1</ele>
        <time>2021-08-31T03:44:56.187Z</time>
      </trkpt>
      <trkpt lat="42.51797" lon="2.83237">
        <ele>73.1</ele>
        <time>2021-08-31T03:45:04.528Z</time>
      </trkpt>
      <trkpt lat="42.51808" lon="2.83271">
        <ele>72.4</ele>
        <time>2021-08-31T03:45:07.595Z</time>
      </trkpt>
      <trkpt lat="42.51809" lon="2.8333">
        <ele>71.9</ele>
        <time>2021-08-31T03:45:13.365Z</time>
      </trkpt>
      <trkpt lat="42.51807" lon="2.83342">
        <ele>71.8</ele>
        <time>2021-08-31T03:45:14.576Z</time>
      </trkpt>
      <trkpt lat="42.51802" lon="2.83383">
        <ele>71.3</ele>
        <time>2021-08-31T03:45:18.398Z</time>
      </trkpt>
      <trkpt lat="42.51805" lon="2.83481">
        <ele>71.2</ele>
        <time>2021-08-31T03:45:29.905Z</time>
      </trkpt>
      <trkpt lat="42.51809" lon="2.83545">
        <ele>71.8</ele>
        <time>2021-08-31T03:45:38.611Z</time>
      </trkpt>
      <trkpt lat="42.51808" lon="2.83585">
        <ele>72.3</ele>
        <time>2021-08-31T03:45:44.287Z</time>
      </trkpt>
      <trkpt lat="42.51801" lon="2.83632">
        <ele>73.4</ele>
        <time>2021-08-31T03:45:52.322Z</time>
      </trkpt>
      <trkpt lat="42.51803" lon="2.83695">
        <ele>74.1</ele>
        <time>2021-08-31T03:46:01.085Z</time>
      </trkpt>
      <trkpt lat="42.51808" lon="2.83732">
        <ele>73.9</ele>
        <time>2021-08-31T03:46:05.143Z</time>
      </trkpt>
      <trkpt lat="42.51812" lon="2.83769">
        <ele>74.1</ele>
        <time>2021-08-31T03:46:09.942Z</time>
      </trkpt>
      <trkpt lat="42.51853" lon="2.83905">
        <ele>78.8</ele>
        <time>2021-08-31T03:46:39.160Z</time>
      </trkpt>
      <trkpt lat="42.51872" lon="2.83918">
        <ele>78.3</ele>
        <time>2021-08-31T03:46:41.601Z</time>
      </trkpt>
      <trkpt lat="42.51895" lon="2.83925">
        <ele>77.1</ele>
        <time>2021-08-31T03:46:43.667Z</time>
      </trkpt>
      <trkpt lat="42.5192" lon="2.83952">
        <ele>76.9</ele>
        <time>2021-08-31T03:46:48.406Z</time>
      </trkpt>
      <trkpt lat="42.51935" lon="2.83974">
        <ele>77.2</ele>
        <time>2021-08-31T03:46:52.506Z</time>
      </trkpt>
      <trkpt lat="42.51935" lon="2.83983">
        <ele>77.7</ele>
        <time>2021-08-31T03:46:54.768Z</time>
      </trkpt>
      <trkpt lat="42.51935" lon="2.83989">
        <ele>78</ele>
        <time>2021-08-31T03:46:56.191Z</time>
      </trkpt>
      <trkpt lat="42.51928" lon="2.8401">
        <ele>79.6</ele>
        <time>2021-08-31T03:47:02.986Z</time>
      </trkpt>
      <trkpt lat="42.51916" lon="2.8403">
        <ele>81.1</ele>
        <time>2021-08-31T03:47:09.651Z</time>
      </trkpt>
      <trkpt lat="42.51911" lon="2.84042">
        <ele>81.8</ele>
        <time>2021-08-31T03:47:12.947Z</time>
      </trkpt>
      <trkpt lat="42.51908" lon="2.84051">
        <ele>82.2</ele>
        <time>2021-08-31T03:47:15.085Z</time>
      </trkpt>
      <trkpt lat="42.5191" lon="2.84071">
        <ele>82.8</ele>
        <time>2021-08-31T03:47:18.920Z</time>
      </trkpt>
      <trkpt lat="42.51975" lon="2.84177">
        <ele>83.7</ele>
        <time>2021-08-31T03:47:36.897Z</time>
      </trkpt>
      <trkpt lat="42.51976" lon="2.84176">
        <ele>83.7</ele>
        <time>2021-08-31T03:47:37.099Z</time>
      </trkpt>
      <trkpt lat="42.51981" lon="2.84185">
        <ele>83.6</ele>
        <time>2021-08-31T03:47:38.193Z</time>
      </trkpt>
      <trkpt lat="42.51988" lon="2.84195">
        <ele>83.6</ele>
        <time>2021-08-31T03:47:39.845Z</time>
      </trkpt>
      <trkpt lat="42.51995" lon="2.84206">
        <ele>83.6</ele>
        <time>2021-08-31T03:47:41.586Z</time>
      </trkpt>
      <trkpt lat="42.52002" lon="2.84216">
        <ele>83.6</ele>
        <time>2021-08-31T03:47:43.238Z</time>
      </trkpt>
      <trkpt lat="42.52009" lon="2.84227">
        <ele>83.5</ele>
        <time>2021-08-31T03:47:44.700Z</time>
      </trkpt>
      <trkpt lat="42.52016" lon="2.84238">
        <ele>83.5</ele>
        <time>2021-08-31T03:47:46.441Z</time>
      </trkpt>
      <trkpt lat="42.52024" lon="2.8425">
        <ele>83.4</ele>
        <time>2021-08-31T03:47:48.090Z</time>
      </trkpt>
      <trkpt lat="42.52032" lon="2.84262">
        <ele>83.1</ele>
        <time>2021-08-31T03:47:49.433Z</time>
      </trkpt>
      <trkpt lat="42.5204" lon="2.84274">
        <ele>82.7</ele>
        <time>2021-08-31T03:47:50.662Z</time>
      </trkpt>
      <trkpt lat="42.52056" lon="2.84297">
        <ele>82.3</ele>
        <time>2021-08-31T03:47:53.541Z</time>
      </trkpt>
      <trkpt lat="42.52063" lon="2.84308">
        <ele>82.1</ele>
        <time>2021-08-31T03:47:54.841Z</time>
      </trkpt>
      <trkpt lat="42.52076" lon="2.84327">
        <ele>82</ele>
        <time>2021-08-31T03:47:57.716Z</time>
      </trkpt>
      <trkpt lat="42.5208" lon="2.84334">
        <ele>82</ele>
        <time>2021-08-31T03:47:58.777Z</time>
      </trkpt>
      <trkpt lat="42.52081" lon="2.84335">
        <ele>82</ele>
        <time>2021-08-31T03:47:58.979Z</time>
      </trkpt>
      <trkpt lat="42.52091" lon="2.84347">
        <ele>81.7</ele>
        <time>2021-08-31T03:48:00.528Z</time>
      </trkpt>
      <trkpt lat="42.52095" lon="2.8435">
        <ele>81.6</ele>
        <time>2021-08-31T03:48:01.062Z</time>
      </trkpt>
      <trkpt lat="42.52098" lon="2.84352">
        <ele>81.5</ele>
        <time>2021-08-31T03:48:01.420Z</time>
      </trkpt>
      <trkpt lat="42.52102" lon="2.84353">
        <ele>81.4</ele>
        <time>2021-08-31T03:48:01.881Z</time>
      </trkpt>
      <trkpt lat="42.52106" lon="2.84353">
        <ele>81.3</ele>
        <time>2021-08-31T03:48:02.332Z</time>
      </trkpt>
      <trkpt lat="42.52111" lon="2.84354">
        <ele>81.2</ele>
        <time>2021-08-31T03:48:02.937Z</time>
      </trkpt>
      <trkpt lat="42.52117" lon="2.84355">
        <ele>81.1</ele>
        <time>2021-08-31T03:48:03.689Z</time>
      </trkpt>
      <trkpt lat="42.52123" lon="2.84356">
        <ele>81</ele>
        <time>2021-08-31T03:48:04.442Z</time>
      </trkpt>
      <trkpt lat="42.5213" lon="2.84358">
        <ele>80.9</ele>
        <time>2021-08-31T03:48:05.361Z</time>
      </trkpt>
      <trkpt lat="42.52137" lon="2.84359">
        <ele>80.8</ele>
        <time>2021-08-31T03:48:06.263Z</time>
      </trkpt>
      <trkpt lat="42.5214" lon="2.84359">
        <ele>80.7</ele>
        <time>2021-08-31T03:48:06.572Z</time>
      </trkpt>
      <trkpt lat="42.52145" lon="2.8436">
        <ele>80.7</ele>
        <time>2021-08-31T03:48:07.394Z</time>
      </trkpt>
      <trkpt lat="42.52161" lon="2.84363">
        <ele>80.4</ele>
        <time>2021-08-31T03:48:09.356Z</time>
      </trkpt>
      <trkpt lat="42.52169" lon="2.84365">
        <ele>80.3</ele>
        <time>2021-08-31T03:48:10.423Z</time>
      </trkpt>
      <trkpt lat="42.52177" lon="2.84367">
        <ele>80</ele>
        <time>2021-08-31T03:48:11.234Z</time>
      </trkpt>
      <trkpt lat="42.52184" lon="2.84369">
        <ele>79.8</ele>
        <time>2021-08-31T03:48:12.016Z</time>
      </trkpt>
      <trkpt lat="42.5219" lon="2.84373">
        <ele>79.6</ele>
        <time>2021-08-31T03:48:12.731Z</time>
      </trkpt>
      <trkpt lat="42.52196" lon="2.84378">
        <ele>79.5</ele>
        <time>2021-08-31T03:48:13.633Z</time>
      </trkpt>
      <trkpt lat="42.52199" lon="2.84383">
        <ele>79.4</ele>
        <time>2021-08-31T03:48:14.194Z</time>
      </trkpt>
      <trkpt lat="42.52201" lon="2.84385">
        <ele>79.4</ele>
        <time>2021-08-31T03:48:14.597Z</time>
      </trkpt>
      <trkpt lat="42.52205" lon="2.84393">
        <ele>79.3</ele>
        <time>2021-08-31T03:48:15.512Z</time>
      </trkpt>
      <trkpt lat="42.52209" lon="2.84401">
        <ele>79.3</ele>
        <time>2021-08-31T03:48:16.670Z</time>
      </trkpt>
      <trkpt lat="42.52213" lon="2.8441">
        <ele>79.2</ele>
        <time>2021-08-31T03:48:17.679Z</time>
      </trkpt>
      <trkpt lat="42.52218" lon="2.84419">
        <ele>79.2</ele>
        <time>2021-08-31T03:48:19.029Z</time>
      </trkpt>
      <trkpt lat="42.52228" lon="2.84438">
        <ele>79.2</ele>
        <time>2021-08-31T03:48:21.826Z</time>
      </trkpt>
      <trkpt lat="42.52237" lon="2.84456">
        <ele>79.3</ele>
        <time>2021-08-31T03:48:24.590Z</time>
      </trkpt>
      <trkpt lat="42.52242" lon="2.84465">
        <ele>79.3</ele>
        <time>2021-08-31T03:48:25.940Z</time>
      </trkpt>
      <trkpt lat="42.52247" lon="2.84475">
        <ele>79.5</ele>
        <time>2021-08-31T03:48:27.762Z</time>
      </trkpt>
      <trkpt lat="42.52257" lon="2.84494">
        <ele>79.3</ele>
        <time>2021-08-31T03:48:30.041Z</time>
      </trkpt>
      <trkpt lat="42.52262" lon="2.84502">
        <ele>79.1</ele>
        <time>2021-08-31T03:48:30.905Z</time>
      </trkpt>
      <trkpt lat="42.52266" lon="2.84511">
        <ele>78.9</ele>
        <time>2021-08-31T03:48:31.771Z</time>
      </trkpt>
      <trkpt lat="42.52271" lon="2.84519">
        <ele>78.7</ele>
        <time>2021-08-31T03:48:32.634Z</time>
      </trkpt>
      <trkpt lat="42.5228" lon="2.84537">
        <ele>78.5</ele>
        <time>2021-08-31T03:48:34.734Z</time>
      </trkpt>
      <trkpt lat="42.52285" lon="2.84545">
        <ele>78.4</ele>
        <time>2021-08-31T03:48:35.741Z</time>
      </trkpt>
      <trkpt lat="42.52289" lon="2.84553">
        <ele>78.4</ele>
        <time>2021-08-31T03:48:36.899Z</time>
      </trkpt>
      <trkpt lat="42.52292" lon="2.8456">
        <ele>78.4</ele>
        <time>2021-08-31T03:48:37.869Z</time>
      </trkpt>
      <trkpt lat="42.52295" lon="2.84573">
        <ele>78.7</ele>
        <time>2021-08-31T03:48:40.116Z</time>
      </trkpt>
      <trkpt lat="42.52294" lon="2.84575">
        <ele>78.8</ele>
        <time>2021-08-31T03:48:40.643Z</time>
      </trkpt>
      <trkpt lat="42.52291" lon="2.84583">
        <ele>79</ele>
        <time>2021-08-31T03:48:42.130Z</time>
      </trkpt>
      <trkpt lat="42.52288" lon="2.84589">
        <ele>79.1</ele>
        <time>2021-08-31T03:48:43.178Z</time>
      </trkpt>
      <trkpt lat="42.5229" lon="2.84594">
        <ele>79.1</ele>
        <time>2021-08-31T03:48:43.860Z</time>
      </trkpt>
      <trkpt lat="42.52291" lon="2.846">
        <ele>79.1</ele>
        <time>2021-08-31T03:48:44.597Z</time>
      </trkpt>
      <trkpt lat="42.52291" lon="2.84607">
        <ele>79.2</ele>
        <time>2021-08-31T03:48:45.616Z</time>
      </trkpt>
      <trkpt lat="42.5229" lon="2.84615">
        <ele>79.2</ele>
        <time>2021-08-31T03:48:46.588Z</time>
      </trkpt>
      <trkpt lat="42.52288" lon="2.84627">
        <ele>79.3</ele>
        <time>2021-08-31T03:48:48.228Z</time>
      </trkpt>
      <trkpt lat="42.52287" lon="2.84635">
        <ele>79.4</ele>
        <time>2021-08-31T03:48:49.376Z</time>
      </trkpt>
      <trkpt lat="42.52287" lon="2.84644">
        <ele>79.4</ele>
        <time>2021-08-31T03:48:50.454Z</time>
      </trkpt>
      <trkpt lat="42.52288" lon="2.84654">
        <ele>79.5</ele>
        <time>2021-08-31T03:48:51.832Z</time>
      </trkpt>
      <trkpt lat="42.52291" lon="2.84668">
        <ele>79.5</ele>
        <time>2021-08-31T03:48:53.579Z</time>
      </trkpt>
      <trkpt lat="42.52294" lon="2.84683">
        <ele>79.8</ele>
        <time>2021-08-31T03:48:56.028Z</time>
      </trkpt>
      <trkpt lat="42.52294" lon="2.84695">
        <ele>80</ele>
        <time>2021-08-31T03:48:57.841Z</time>
      </trkpt>
      <trkpt lat="42.52323" lon="2.84743">
        <ele>80.2</ele>
        <time>2021-08-31T03:49:05.587Z</time>
      </trkpt>
      <trkpt lat="42.52326" lon="2.84748">
        <ele>80.2</ele>
        <time>2021-08-31T03:49:06.359Z</time>
      </trkpt>
      <trkpt lat="42.52334" lon="2.84761">
        <ele>80</ele>
        <time>2021-08-31T03:49:07.923Z</time>
      </trkpt>
      <trkpt lat="42.52339" lon="2.84769">
        <ele>79.9</ele>
        <time>2021-08-31T03:49:08.929Z</time>
      </trkpt>
      <trkpt lat="42.52342" lon="2.84774">
        <ele>79.8</ele>
        <time>2021-08-31T03:49:09.490Z</time>
      </trkpt>
      <trkpt lat="42.52351" lon="2.84788">
        <ele>79.7</ele>
        <time>2021-08-31T03:49:11.411Z</time>
      </trkpt>
      <trkpt lat="42.52359" lon="2.84802">
        <ele>79.6</ele>
        <time>2021-08-31T03:49:13.234Z</time>
      </trkpt>
      <trkpt lat="42.52368" lon="2.84815">
        <ele>79.5</ele>
        <time>2021-08-31T03:49:15.070Z</time>
      </trkpt>
      <trkpt lat="42.52376" lon="2.84829">
        <ele>79.5</ele>
        <time>2021-08-31T03:49:17.192Z</time>
      </trkpt>
      <trkpt lat="42.52384" lon="2.84842">
        <ele>79.5</ele>
        <time>2021-08-31T03:49:19.221Z</time>
      </trkpt>
      <trkpt lat="42.52392" lon="2.84854">
        <ele>79.4</ele>
        <time>2021-08-31T03:49:20.870Z</time>
      </trkpt>
      <trkpt lat="42.524" lon="2.84867">
        <ele>79.4</ele>
        <time>2021-08-31T03:49:22.899Z</time>
      </trkpt>
      <trkpt lat="42.52408" lon="2.84879">
        <ele>79.2</ele>
        <time>2021-08-31T03:49:24.379Z</time>
      </trkpt>
      <trkpt lat="42.52415" lon="2.8489">
        <ele>79.1</ele>
        <time>2021-08-31T03:49:25.841Z</time>
      </trkpt>
      <trkpt lat="42.52422" lon="2.84901">
        <ele>78.9</ele>
        <time>2021-08-31T03:49:27.140Z</time>
      </trkpt>
      <trkpt lat="42.52429" lon="2.84912">
        <ele>78.7</ele>
        <time>2021-08-31T03:49:28.439Z</time>
      </trkpt>
      <trkpt lat="42.52437" lon="2.84923">
        <ele>78.3</ele>
        <time>2021-08-31T03:49:29.595Z</time>
      </trkpt>
      <trkpt lat="42.52445" lon="2.84934">
        <ele>77.9</ele>
        <time>2021-08-31T03:49:30.750Z</time>
      </trkpt>
      <trkpt lat="42.52453" lon="2.84945">
        <ele>77.4</ele>
        <time>2021-08-31T03:49:31.812Z</time>
      </trkpt>
      <trkpt lat="42.5246" lon="2.84957">
        <ele>77</ele>
        <time>2021-08-31T03:49:32.952Z</time>
      </trkpt>
      <trkpt lat="42.52468" lon="2.84969">
        <ele>76.7</ele>
        <time>2021-08-31T03:49:34.295Z</time>
      </trkpt>
      <trkpt lat="42.52476" lon="2.84981">
        <ele>76.4</ele>
        <time>2021-08-31T03:49:35.638Z</time>
      </trkpt>
      <trkpt lat="42.52484" lon="2.84997">
        <ele>76.1</ele>
        <time>2021-08-31T03:49:37.319Z</time>
      </trkpt>
      <trkpt lat="42.52485" lon="2.85">
        <ele>76</ele>
        <time>2021-08-31T03:49:37.551Z</time>
      </trkpt>
      <trkpt lat="42.52514" lon="2.85046">
        <ele>75</ele>
        <time>2021-08-31T03:49:42.732Z</time>
      </trkpt>
      <trkpt lat="42.52518" lon="2.85053">
        <ele>74.9</ele>
        <time>2021-08-31T03:49:43.556Z</time>
      </trkpt>
      <trkpt lat="42.52522" lon="2.85057">
        <ele>74.9</ele>
        <time>2021-08-31T03:49:44.364Z</time>
      </trkpt>
      <trkpt lat="42.52551" lon="2.85103">
        <ele>75.5</ele>
        <time>2021-08-31T03:49:52.634Z</time>
      </trkpt>
      <trkpt lat="42.52578" lon="2.85144">
        <ele>76.6</ele>
        <time>2021-08-31T03:50:01.400Z</time>
      </trkpt>
      <trkpt lat="42.52595" lon="2.85171">
        <ele>77.1</ele>
        <time>2021-08-31T03:50:06.556Z</time>
      </trkpt>
      <trkpt lat="42.52607" lon="2.85191">
        <ele>77.3</ele>
        <time>2021-08-31T03:50:09.975Z</time>
      </trkpt>
      <trkpt lat="42.52629" lon="2.85227">
        <ele>77.7</ele>
        <time>2021-08-31T03:50:16.244Z</time>
      </trkpt>
      <trkpt lat="42.52629" lon="2.85228">
        <ele>77.7</ele>
        <time>2021-08-31T03:50:16.363Z</time>
      </trkpt>
      <trkpt lat="42.52682" lon="2.85308">
        <ele>78.8</ele>
        <time>2021-08-31T03:50:31.125Z</time>
      </trkpt>
      <trkpt lat="42.52691" lon="2.85321">
        <ele>78.7</ele>
        <time>2021-08-31T03:50:32.962Z</time>
      </trkpt>
      <trkpt lat="42.52713" lon="2.85351">
        <ele>79.3</ele>
        <time>2021-08-31T03:50:39.116Z</time>
      </trkpt>
      <trkpt lat="42.52732" lon="2.85378">
        <ele>79.2</ele>
        <time>2021-08-31T03:50:43.352Z</time>
      </trkpt>
      <trkpt lat="42.52746" lon="2.85395">
        <ele>78</ele>
        <time>2021-08-31T03:50:44.833Z</time>
      </trkpt>
      <trkpt lat="42.5275" lon="2.85398">
        <ele>77.6</ele>
        <time>2021-08-31T03:50:45.218Z</time>
      </trkpt>
      <trkpt lat="42.52753" lon="2.85401">
        <ele>77.5</ele>
        <time>2021-08-31T03:50:45.630Z</time>
      </trkpt>
      <trkpt lat="42.52756" lon="2.85404">
        <ele>77.4</ele>
        <time>2021-08-31T03:50:46.042Z</time>
      </trkpt>
      <trkpt lat="42.5276" lon="2.85408">
        <ele>77.3</ele>
        <time>2021-08-31T03:50:46.635Z</time>
      </trkpt>
      <trkpt lat="42.52763" lon="2.85412">
        <ele>77.2</ele>
        <time>2021-08-31T03:50:47.115Z</time>
      </trkpt>
      <trkpt lat="42.52766" lon="2.85416">
        <ele>77</ele>
        <time>2021-08-31T03:50:47.495Z</time>
      </trkpt>
      <trkpt lat="42.52769" lon="2.8542">
        <ele>76.9</ele>
        <time>2021-08-31T03:50:47.976Z</time>
      </trkpt>
      <trkpt lat="42.52772" lon="2.85423">
        <ele>76.8</ele>
        <time>2021-08-31T03:50:48.388Z</time>
      </trkpt>
      <trkpt lat="42.52775" lon="2.85432">
        <ele>76.7</ele>
        <time>2021-08-31T03:50:49.326Z</time>
      </trkpt>
      <trkpt lat="42.52775" lon="2.85437">
        <ele>76.8</ele>
        <time>2021-08-31T03:50:50.123Z</time>
      </trkpt>
      <trkpt lat="42.52775" lon="2.85441">
        <ele>76.8</ele>
        <time>2021-08-31T03:50:50.602Z</time>
      </trkpt>
      <trkpt lat="42.52777" lon="2.85444">
        <ele>76.7</ele>
        <time>2021-08-31T03:50:50.910Z</time>
      </trkpt>
      <trkpt lat="42.52779" lon="2.85448">
        <ele>76.6</ele>
        <time>2021-08-31T03:50:51.298Z</time>
      </trkpt>
      <trkpt lat="42.52782" lon="2.85451">
        <ele>76.5</ele>
        <time>2021-08-31T03:50:51.710Z</time>
      </trkpt>
      <trkpt lat="42.52784" lon="2.85453">
        <ele>76.4</ele>
        <time>2021-08-31T03:50:51.950Z</time>
      </trkpt>
      <trkpt lat="42.52788" lon="2.85454">
        <ele>76.2</ele>
        <time>2021-08-31T03:50:52.312Z</time>
      </trkpt>
      <trkpt lat="42.52791" lon="2.85454">
        <ele>76</ele>
        <time>2021-08-31T03:50:52.543Z</time>
      </trkpt>
      <trkpt lat="42.52792" lon="2.85454">
        <ele>75.9</ele>
        <time>2021-08-31T03:50:52.628Z</time>
      </trkpt>
      <trkpt lat="42.52794" lon="2.85456">
        <ele>75.8</ele>
        <time>2021-08-31T03:50:52.867Z</time>
      </trkpt>
      <trkpt lat="42.52796" lon="2.85458">
        <ele>75.8</ele>
        <time>2021-08-31T03:50:53.271Z</time>
      </trkpt>
      <trkpt lat="42.52797" lon="2.85459">
        <ele>75.7</ele>
        <time>2021-08-31T03:50:53.376Z</time>
      </trkpt>
      <trkpt lat="42.52799" lon="2.85461">
        <ele>75.6</ele>
        <time>2021-08-31T03:50:53.616Z</time>
      </trkpt>
      <trkpt lat="42.52801" lon="2.85464">
        <ele>75.5</ele>
        <time>2021-08-31T03:50:53.923Z</time>
      </trkpt>
      <trkpt lat="42.52803" lon="2.85467">
        <ele>75.5</ele>
        <time>2021-08-31T03:50:54.407Z</time>
      </trkpt>
      <trkpt lat="42.52805" lon="2.8547">
        <ele>75.4</ele>
        <time>2021-08-31T03:50:54.715Z</time>
      </trkpt>
      <trkpt lat="42.52807" lon="2.85474">
        <ele>75.3</ele>
        <time>2021-08-31T03:50:55.103Z</time>
      </trkpt>
      <trkpt lat="42.52809" lon="2.85477">
        <ele>75.2</ele>
        <time>2021-08-31T03:50:55.410Z</time>
      </trkpt>
      <trkpt lat="42.52811" lon="2.8548">
        <ele>75.1</ele>
        <time>2021-08-31T03:50:55.718Z</time>
      </trkpt>
      <trkpt lat="42.52816" lon="2.85488">
        <ele>74.9</ele>
        <time>2021-08-31T03:50:56.581Z</time>
      </trkpt>
      <trkpt lat="42.52818" lon="2.85494">
        <ele>74.8</ele>
        <time>2021-08-31T03:50:57.157Z</time>
      </trkpt>
      <trkpt lat="42.52822" lon="2.855">
        <ele>74.7</ele>
        <time>2021-08-31T03:50:57.897Z</time>
      </trkpt>
      <trkpt lat="42.52825" lon="2.85505">
        <ele>74.5</ele>
        <time>2021-08-31T03:50:58.347Z</time>
      </trkpt>
      <trkpt lat="42.52828" lon="2.85512">
        <ele>74.3</ele>
        <time>2021-08-31T03:50:58.963Z</time>
      </trkpt>
      <trkpt lat="42.52833" lon="2.85519">
        <ele>74</ele>
        <time>2021-08-31T03:50:59.646Z</time>
      </trkpt>
      <trkpt lat="42.52838" lon="2.85526">
        <ele>73.8</ele>
        <time>2021-08-31T03:51:00.432Z</time>
      </trkpt>
      <trkpt lat="42.52843" lon="2.85534">
        <ele>73.5</ele>
        <time>2021-08-31T03:51:01.188Z</time>
      </trkpt>
      <trkpt lat="42.52848" lon="2.85541">
        <ele>73.3</ele>
        <time>2021-08-31T03:51:01.974Z</time>
      </trkpt>
      <trkpt lat="42.52853" lon="2.85548">
        <ele>73</ele>
        <time>2021-08-31T03:51:02.657Z</time>
      </trkpt>
      <trkpt lat="42.52857" lon="2.85554">
        <ele>72.8</ele>
        <time>2021-08-31T03:51:03.272Z</time>
      </trkpt>
      <trkpt lat="42.52861" lon="2.8556">
        <ele>72.5</ele>
        <time>2021-08-31T03:51:03.797Z</time>
      </trkpt>
      <trkpt lat="42.52865" lon="2.85566">
        <ele>72.2</ele>
        <time>2021-08-31T03:51:04.322Z</time>
      </trkpt>
      <trkpt lat="42.52874" lon="2.85578">
        <ele>71.7</ele>
        <time>2021-08-31T03:51:05.547Z</time>
      </trkpt>
      <trkpt lat="42.52878" lon="2.85584">
        <ele>71.3</ele>
        <time>2021-08-31T03:51:06.049Z</time>
      </trkpt>
      <trkpt lat="42.52936" lon="2.85667">
        <ele>72.2</ele>
        <time>2021-08-31T03:51:21.235Z</time>
      </trkpt>
      <trkpt lat="42.52939" lon="2.85672">
        <ele>72.3</ele>
        <time>2021-08-31T03:51:22.192Z</time>
      </trkpt>
      <trkpt lat="42.52942" lon="2.85678">
        <ele>72.3</ele>
        <time>2021-08-31T03:51:23.060Z</time>
      </trkpt>
      <trkpt lat="42.52945" lon="2.85684">
        <ele>72.3</ele>
        <time>2021-08-31T03:51:23.929Z</time>
      </trkpt>
      <trkpt lat="42.52949" lon="2.8569">
        <ele>72.2</ele>
        <time>2021-08-31T03:51:24.669Z</time>
      </trkpt>
      <trkpt lat="42.52952" lon="2.85696">
        <ele>72.2</ele>
        <time>2021-08-31T03:51:25.537Z</time>
      </trkpt>
      <trkpt lat="42.52955" lon="2.85701">
        <ele>72.1</ele>
        <time>2021-08-31T03:51:26.098Z</time>
      </trkpt>
      <trkpt lat="42.52958" lon="2.85705">
        <ele>72</ele>
        <time>2021-08-31T03:51:26.579Z</time>
      </trkpt>
      <trkpt lat="42.53013" lon="2.85785">
        <ele>69.9</ele>
        <time>2021-08-31T03:51:35.570Z</time>
      </trkpt>
      <trkpt lat="42.53014" lon="2.85787">
        <ele>69.9</ele>
        <time>2021-08-31T03:51:35.859Z</time>
      </trkpt>
      <trkpt lat="42.53016" lon="2.85789">
        <ele>69.9</ele>
        <time>2021-08-31T03:51:36.263Z</time>
      </trkpt>
      <trkpt lat="42.53018" lon="2.85791">
        <ele>69.9</ele>
        <time>2021-08-31T03:51:36.667Z</time>
      </trkpt>
      <trkpt lat="42.53021" lon="2.85795">
        <ele>69.9</ele>
        <time>2021-08-31T03:51:37.350Z</time>
      </trkpt>
      <trkpt lat="42.53025" lon="2.858">
        <ele>69.8</ele>
        <time>2021-08-31T03:51:38.012Z</time>
      </trkpt>
      <trkpt lat="42.5303" lon="2.85805">
        <ele>69.8</ele>
        <time>2021-08-31T03:51:39.022Z</time>
      </trkpt>
      <trkpt lat="42.53035" lon="2.85812">
        <ele>69.7</ele>
        <time>2021-08-31T03:51:39.946Z</time>
      </trkpt>
      <trkpt lat="42.53041" lon="2.85819">
        <ele>69.6</ele>
        <time>2021-08-31T03:51:40.980Z</time>
      </trkpt>
      <trkpt lat="42.53048" lon="2.85827">
        <ele>69.5</ele>
        <time>2021-08-31T03:51:42.203Z</time>
      </trkpt>
      <trkpt lat="42.53054" lon="2.85835">
        <ele>69.3</ele>
        <time>2021-08-31T03:51:43.165Z</time>
      </trkpt>
      <trkpt lat="42.53062" lon="2.85845">
        <ele>69.1</ele>
        <time>2021-08-31T03:51:44.489Z</time>
      </trkpt>
      <trkpt lat="42.53068" lon="2.85853">
        <ele>69</ele>
        <time>2021-08-31T03:51:45.599Z</time>
      </trkpt>
      <trkpt lat="42.53075" lon="2.85863">
        <ele>68.8</ele>
        <time>2021-08-31T03:51:46.817Z</time>
      </trkpt>
      <trkpt lat="42.53104" lon="2.85904">
        <ele>68.6</ele>
        <time>2021-08-31T03:51:53.160Z</time>
      </trkpt>
      <trkpt lat="42.53137" lon="2.85949">
        <ele>69.3</ele>
        <time>2021-08-31T03:52:01.972Z</time>
      </trkpt>
      <trkpt lat="42.5314" lon="2.85954">
        <ele>69.4</ele>
        <time>2021-08-31T03:52:02.928Z</time>
      </trkpt>
      <trkpt lat="42.53142" lon="2.85957">
        <ele>69.4</ele>
        <time>2021-08-31T03:52:03.413Z</time>
      </trkpt>
      <trkpt lat="42.53157" lon="2.85979">
        <ele>69.8</ele>
        <time>2021-08-31T03:52:07.717Z</time>
      </trkpt>
      <trkpt lat="42.53161" lon="2.85984">
        <ele>69.9</ele>
        <time>2021-08-31T03:52:08.780Z</time>
      </trkpt>
      <trkpt lat="42.53169" lon="2.85998">
        <ele>70</ele>
        <time>2021-08-31T03:52:11.062Z</time>
      </trkpt>
      <trkpt lat="42.53177" lon="2.86012">
        <ele>70.4</ele>
        <time>2021-08-31T03:52:14.012Z</time>
      </trkpt>
      <trkpt lat="42.53186" lon="2.86025">
        <ele>70.6</ele>
        <time>2021-08-31T03:52:16.494Z</time>
      </trkpt>
      <trkpt lat="42.53194" lon="2.86039">
        <ele>70.8</ele>
        <time>2021-08-31T03:52:18.962Z</time>
      </trkpt>
      <trkpt lat="42.53196" lon="2.86042">
        <ele>70.8</ele>
        <time>2021-08-31T03:52:19.447Z</time>
      </trkpt>
      <trkpt lat="42.53202" lon="2.86052">
        <ele>70.9</ele>
        <time>2021-08-31T03:52:21.156Z</time>
      </trkpt>
      <trkpt lat="42.5321" lon="2.86065">
        <ele>70.9</ele>
        <time>2021-08-31T03:52:23.185Z</time>
      </trkpt>
      <trkpt lat="42.53218" lon="2.86078">
        <ele>70.8</ele>
        <time>2021-08-31T03:52:24.919Z</time>
      </trkpt>
      <trkpt lat="42.53225" lon="2.86089">
        <ele>70.6</ele>
        <time>2021-08-31T03:52:26.218Z</time>
      </trkpt>
      <trkpt lat="42.53232" lon="2.861">
        <ele>70.6</ele>
        <time>2021-08-31T03:52:27.959Z</time>
      </trkpt>
      <trkpt lat="42.53238" lon="2.8611">
        <ele>70.6</ele>
        <time>2021-08-31T03:52:29.504Z</time>
      </trkpt>
      <trkpt lat="42.53243" lon="2.86119">
        <ele>70.6</ele>
        <time>2021-08-31T03:52:30.854Z</time>
      </trkpt>
      <trkpt lat="42.53248" lon="2.86127">
        <ele>70.6</ele>
        <time>2021-08-31T03:52:32.110Z</time>
      </trkpt>
      <trkpt lat="42.53254" lon="2.86134">
        <ele>70.6</ele>
        <time>2021-08-31T03:52:33.396Z</time>
      </trkpt>
      <trkpt lat="42.53259" lon="2.8614">
        <ele>70.6</ele>
        <time>2021-08-31T03:52:34.481Z</time>
      </trkpt>
      <trkpt lat="42.53265" lon="2.86145">
        <ele>70.6</ele>
        <time>2021-08-31T03:52:35.625Z</time>
      </trkpt>
      <trkpt lat="42.53271" lon="2.8615">
        <ele>70.6</ele>
        <time>2021-08-31T03:52:36.770Z</time>
      </trkpt>
      <trkpt lat="42.53277" lon="2.86158">
        <ele>70.6</ele>
        <time>2021-08-31T03:52:38.137Z</time>
      </trkpt>
      <trkpt lat="42.53283" lon="2.86166">
        <ele>70.6</ele>
        <time>2021-08-31T03:52:39.504Z</time>
      </trkpt>
      <trkpt lat="42.53289" lon="2.86177">
        <ele>70.6</ele>
        <time>2021-08-31T03:52:41.143Z</time>
      </trkpt>
      <trkpt lat="42.53295" lon="2.8619">
        <ele>70.6</ele>
        <time>2021-08-31T03:52:42.981Z</time>
      </trkpt>
      <trkpt lat="42.53302" lon="2.86203">
        <ele>70.7</ele>
        <time>2021-08-31T03:52:45.070Z</time>
      </trkpt>
      <trkpt lat="42.53309" lon="2.86217">
        <ele>70.7</ele>
        <time>2021-08-31T03:52:47.097Z</time>
      </trkpt>
      <trkpt lat="42.53316" lon="2.86232">
        <ele>70.8</ele>
        <time>2021-08-31T03:52:49.383Z</time>
      </trkpt>
      <trkpt lat="42.53323" lon="2.86247">
        <ele>71</ele>
        <time>2021-08-31T03:52:51.856Z</time>
      </trkpt>
      <trkpt lat="42.5333" lon="2.86262">
        <ele>71.1</ele>
        <time>2021-08-31T03:52:54.143Z</time>
      </trkpt>
      <trkpt lat="42.53337" lon="2.86277">
        <ele>71.3</ele>
        <time>2021-08-31T03:52:56.616Z</time>
      </trkpt>
      <trkpt lat="42.53344" lon="2.86293">
        <ele>71.3</ele>
        <time>2021-08-31T03:52:58.844Z</time>
      </trkpt>
      <trkpt lat="42.53347" lon="2.86298">
        <ele>71.3</ele>
        <time>2021-08-31T03:52:59.617Z</time>
      </trkpt>
      <trkpt lat="42.53351" lon="2.86308">
        <ele>71.3</ele>
        <time>2021-08-31T03:53:00.979Z</time>
      </trkpt>
      <trkpt lat="42.53358" lon="2.86323">
        <ele>71.3</ele>
        <time>2021-08-31T03:53:03.106Z</time>
      </trkpt>
      <trkpt lat="42.53365" lon="2.86339">
        <ele>71.2</ele>
        <time>2021-08-31T03:53:05.030Z</time>
      </trkpt>
      <trkpt lat="42.53372" lon="2.86354">
        <ele>70.9</ele>
        <time>2021-08-31T03:53:06.541Z</time>
      </trkpt>
      <trkpt lat="42.53379" lon="2.86369">
        <ele>70.7</ele>
        <time>2021-08-31T03:53:08.194Z</time>
      </trkpt>
      <trkpt lat="42.53386" lon="2.86384">
        <ele>70.5</ele>
        <time>2021-08-31T03:53:09.848Z</time>
      </trkpt>
      <trkpt lat="42.53393" lon="2.86399">
        <ele>70.3</ele>
        <time>2021-08-31T03:53:11.502Z</time>
      </trkpt>
      <trkpt lat="42.534" lon="2.86414">
        <ele>70.2</ele>
        <time>2021-08-31T03:53:13.329Z</time>
      </trkpt>
      <trkpt lat="42.53407" lon="2.8643">
        <ele>70</ele>
        <time>2021-08-31T03:53:15.077Z</time>
      </trkpt>
      <trkpt lat="42.53414" lon="2.86446">
        <ele>69.7</ele>
        <time>2021-08-31T03:53:16.680Z</time>
      </trkpt>
      <trkpt lat="42.53421" lon="2.86461">
        <ele>69.4</ele>
        <time>2021-08-31T03:53:18.190Z</time>
      </trkpt>
      <trkpt lat="42.53428" lon="2.86476">
        <ele>69.1</ele>
        <time>2021-08-31T03:53:19.700Z</time>
      </trkpt>
      <trkpt lat="42.5343" lon="2.86482">
        <ele>69</ele>
        <time>2021-08-31T03:53:20.276Z</time>
      </trkpt>
      <trkpt lat="42.53434" lon="2.8649">
        <ele>68.9</ele>
        <time>2021-08-31T03:53:21.191Z</time>
      </trkpt>
      <trkpt lat="42.5344" lon="2.86503">
        <ele>68.8</ele>
        <time>2021-08-31T03:53:22.743Z</time>
      </trkpt>
      <trkpt lat="42.53445" lon="2.86517">
        <ele>68.9</ele>
        <time>2021-08-31T03:53:24.769Z</time>
      </trkpt>
      <trkpt lat="42.53451" lon="2.86531">
        <ele>69</ele>
        <time>2021-08-31T03:53:26.870Z</time>
      </trkpt>
      <trkpt lat="42.53455" lon="2.86545">
        <ele>69.1</ele>
        <time>2021-08-31T03:53:28.830Z</time>
      </trkpt>
      <trkpt lat="42.5346" lon="2.86559">
        <ele>69.2</ele>
        <time>2021-08-31T03:53:30.856Z</time>
      </trkpt>
      <trkpt lat="42.53465" lon="2.86572">
        <ele>69.3</ele>
        <time>2021-08-31T03:53:32.775Z</time>
      </trkpt>
      <trkpt lat="42.53471" lon="2.86585">
        <ele>69.4</ele>
        <time>2021-08-31T03:53:34.774Z</time>
      </trkpt>
      <trkpt lat="42.53477" lon="2.86599">
        <ele>69.4</ele>
        <time>2021-08-31T03:53:36.714Z</time>
      </trkpt>
      <trkpt lat="42.53483" lon="2.86612">
        <ele>69.5</ele>
        <time>2021-08-31T03:53:38.713Z</time>
      </trkpt>
      <trkpt lat="42.53489" lon="2.86624">
        <ele>69.6</ele>
        <time>2021-08-31T03:53:40.612Z</time>
      </trkpt>
      <trkpt lat="42.53494" lon="2.86636">
        <ele>69.7</ele>
        <time>2021-08-31T03:53:42.427Z</time>
      </trkpt>
      <trkpt lat="42.53499" lon="2.86646">
        <ele>69.8</ele>
        <time>2021-08-31T03:53:44.041Z</time>
      </trkpt>
      <trkpt lat="42.53501" lon="2.8665">
        <ele>69.8</ele>
        <time>2021-08-31T03:53:44.619Z</time>
      </trkpt>
      <trkpt lat="42.53504" lon="2.86657">
        <ele>69.8</ele>
        <time>2021-08-31T03:53:45.589Z</time>
      </trkpt>
      <trkpt lat="42.53509" lon="2.86668">
        <ele>69.8</ele>
        <time>2021-08-31T03:53:47.137Z</time>
      </trkpt>
      <trkpt lat="42.53514" lon="2.8668">
        <ele>69.9</ele>
        <time>2021-08-31T03:53:48.952Z</time>
      </trkpt>
      <trkpt lat="42.5352" lon="2.86692">
        <ele>70</ele>
        <time>2021-08-31T03:53:50.852Z</time>
      </trkpt>
      <trkpt lat="42.53526" lon="2.86704">
        <ele>70.1</ele>
        <time>2021-08-31T03:53:52.751Z</time>
      </trkpt>
      <trkpt lat="42.53532" lon="2.86717">
        <ele>70.2</ele>
        <time>2021-08-31T03:53:54.751Z</time>
      </trkpt>
      <trkpt lat="42.53538" lon="2.86731">
        <ele>70.3</ele>
        <time>2021-08-31T03:53:56.852Z</time>
      </trkpt>
      <trkpt lat="42.53544" lon="2.86747">
        <ele>70.3</ele>
        <time>2021-08-31T03:53:59.002Z</time>
      </trkpt>
      <trkpt lat="42.5355" lon="2.86762">
        <ele>70.2</ele>
        <time>2021-08-31T03:54:00.751Z</time>
      </trkpt>
      <trkpt lat="42.53556" lon="2.86777">
        <ele>70.1</ele>
        <time>2021-08-31T03:54:02.500Z</time>
      </trkpt>
      <trkpt lat="42.53562" lon="2.8679">
        <ele>70</ele>
        <time>2021-08-31T03:54:04.053Z</time>
      </trkpt>
      <trkpt lat="42.53567" lon="2.86802">
        <ele>70</ele>
        <time>2021-08-31T03:54:05.704Z</time>
      </trkpt>
      <trkpt lat="42.53572" lon="2.86811">
        <ele>69.9</ele>
        <time>2021-08-31T03:54:06.798Z</time>
      </trkpt>
      <trkpt lat="42.53576" lon="2.86819">
        <ele>69.9</ele>
        <time>2021-08-31T03:54:07.956Z</time>
      </trkpt>
      <trkpt lat="42.5358" lon="2.86827">
        <ele>70</ele>
        <time>2021-08-31T03:54:09.284Z</time>
      </trkpt>
      <trkpt lat="42.53584" lon="2.86835">
        <ele>69.9</ele>
        <time>2021-08-31T03:54:10.199Z</time>
      </trkpt>
      <trkpt lat="42.53586" lon="2.86841">
        <ele>69.8</ele>
        <time>2021-08-31T03:54:10.774Z</time>
      </trkpt>
      <trkpt lat="42.53589" lon="2.86847">
        <ele>69.6</ele>
        <time>2021-08-31T03:54:11.304Z</time>
      </trkpt>
      <trkpt lat="42.53591" lon="2.86852">
        <ele>69.4</ele>
        <time>2021-08-31T03:54:11.682Z</time>
      </trkpt>
      <trkpt lat="42.53592" lon="2.86855">
        <ele>69.4</ele>
        <time>2021-08-31T03:54:12.076Z</time>
      </trkpt>
      <trkpt lat="42.53595" lon="2.86864">
        <ele>69.1</ele>
        <time>2021-08-31T03:54:12.772Z</time>
      </trkpt>
      <trkpt lat="42.53599" lon="2.86874">
        <ele>68.9</ele>
        <time>2021-08-31T03:54:13.730Z</time>
      </trkpt>
      <trkpt lat="42.53602" lon="2.86884">
        <ele>68.8</ele>
        <time>2021-08-31T03:54:14.771Z</time>
      </trkpt>
      <trkpt lat="42.53606" lon="2.86894">
        <ele>68.6</ele>
        <time>2021-08-31T03:54:15.729Z</time>
      </trkpt>
      <trkpt lat="42.53609" lon="2.86904">
        <ele>68.5</ele>
        <time>2021-08-31T03:54:16.770Z</time>
      </trkpt>
      <trkpt lat="42.53612" lon="2.86914">
        <ele>68.4</ele>
        <time>2021-08-31T03:54:17.810Z</time>
      </trkpt>
      <trkpt lat="42.53616" lon="2.86923">
        <ele>68.4</ele>
        <time>2021-08-31T03:54:19.069Z</time>
      </trkpt>
      <trkpt lat="42.53619" lon="2.86933">
        <ele>68.4</ele>
        <time>2021-08-31T03:54:20.362Z</time>
      </trkpt>
      <trkpt lat="42.53623" lon="2.86945">
        <ele>68.5</ele>
        <time>2021-08-31T03:54:22.104Z</time>
      </trkpt>
      <trkpt lat="42.53628" lon="2.86958">
        <ele>68.5</ele>
        <time>2021-08-31T03:54:23.860Z</time>
      </trkpt>
      <trkpt lat="42.53632" lon="2.86972">
        <ele>68.6</ele>
        <time>2021-08-31T03:54:25.821Z</time>
      </trkpt>
      <trkpt lat="42.53638" lon="2.86987">
        <ele>68.7</ele>
        <time>2021-08-31T03:54:28.026Z</time>
      </trkpt>
      <trkpt lat="42.53644" lon="2.87002">
        <ele>68.7</ele>
        <time>2021-08-31T03:54:30.070Z</time>
      </trkpt>
      <trkpt lat="42.5365" lon="2.87017">
        <ele>68.6</ele>
        <time>2021-08-31T03:54:31.819Z</time>
      </trkpt>
      <trkpt lat="42.53656" lon="2.8703">
        <ele>68.5</ele>
        <time>2021-08-31T03:54:33.372Z</time>
      </trkpt>
      <trkpt lat="42.53662" lon="2.87043">
        <ele>68.4</ele>
        <time>2021-08-31T03:54:34.925Z</time>
      </trkpt>
      <trkpt lat="42.53667" lon="2.87053">
        <ele>68.4</ele>
        <time>2021-08-31T03:54:36.372Z</time>
      </trkpt>
      <trkpt lat="42.53671" lon="2.87062">
        <ele>68.2</ele>
        <time>2021-08-31T03:54:37.238Z</time>
      </trkpt>
      <trkpt lat="42.53674" lon="2.87069">
        <ele>68</ele>
        <time>2021-08-31T03:54:37.853Z</time>
      </trkpt>
      <trkpt lat="42.53675" lon="2.87075">
        <ele>67.9</ele>
        <time>2021-08-31T03:54:38.381Z</time>
      </trkpt>
      <trkpt lat="42.53675" lon="2.87078">
        <ele>67.9</ele>
        <time>2021-08-31T03:54:38.741Z</time>
      </trkpt>
      <trkpt lat="42.53682" lon="2.87086">
        <ele>67.6</ele>
        <time>2021-08-31T03:54:39.691Z</time>
      </trkpt>
      <trkpt lat="42.53684" lon="2.87091">
        <ele>67.5</ele>
        <time>2021-08-31T03:54:40.170Z</time>
      </trkpt>
      <trkpt lat="42.53685" lon="2.87095">
        <ele>67.3</ele>
        <time>2021-08-31T03:54:40.415Z</time>
      </trkpt>
      <trkpt lat="42.53686" lon="2.87099">
        <ele>67.3</ele>
        <time>2021-08-31T03:54:40.920Z</time>
      </trkpt>
      <trkpt lat="42.53686" lon="2.87105">
        <ele>67.1</ele>
        <time>2021-08-31T03:54:41.328Z</time>
      </trkpt>
      <trkpt lat="42.53686" lon="2.87112">
        <ele>67</ele>
        <time>2021-08-31T03:54:41.948Z</time>
      </trkpt>
      <trkpt lat="42.53685" lon="2.8712">
        <ele>66.9</ele>
        <time>2021-08-31T03:54:42.691Z</time>
      </trkpt>
      <trkpt lat="42.53686" lon="2.8712">
        <ele>66.9</ele>
        <time>2021-08-31T03:54:42.853Z</time>
      </trkpt>
      <trkpt lat="42.53684" lon="2.8712">
        <ele>66.9</ele>
        <time>2021-08-31T03:54:43.178Z</time>
      </trkpt>
      <trkpt lat="42.53683" lon="2.87132">
        <ele>66.7</ele>
        <time>2021-08-31T03:54:44.211Z</time>
      </trkpt>
      <trkpt lat="42.5368" lon="2.87154">
        <ele>66.3</ele>
        <time>2021-08-31T03:54:46.086Z</time>
      </trkpt>
      <trkpt lat="42.53679" lon="2.87172">
        <ele>66</ele>
        <time>2021-08-31T03:54:47.628Z</time>
      </trkpt>
      <trkpt lat="42.5368" lon="2.87181">
        <ele>66</ele>
        <time>2021-08-31T03:54:48.718Z</time>
      </trkpt>
      <trkpt lat="42.5368" lon="2.87187">
        <ele>66</ele>
        <time>2021-08-31T03:54:49.437Z</time>
      </trkpt>
      <trkpt lat="42.53688" lon="2.8721">
        <ele>66.1</ele>
        <time>2021-08-31T03:54:52.639Z</time>
      </trkpt>
      <trkpt lat="42.537" lon="2.87261">
        <ele>66.2</ele>
        <time>2021-08-31T03:54:59.204Z</time>
      </trkpt>
      <trkpt lat="42.53701" lon="2.8727">
        <ele>66</ele>
        <time>2021-08-31T03:54:59.922Z</time>
      </trkpt>
      <trkpt lat="42.537" lon="2.87277">
        <ele>65.9</ele>
        <time>2021-08-31T03:55:00.556Z</time>
      </trkpt>
      <trkpt lat="42.53693" lon="2.87298">
        <ele>65.3</ele>
        <time>2021-08-31T03:55:02.276Z</time>
      </trkpt>
      <trkpt lat="42.53693" lon="2.87308">
        <ele>65.1</ele>
        <time>2021-08-31T03:55:03.087Z</time>
      </trkpt>
      <trkpt lat="42.53714" lon="2.87437">
        <ele>64.5</ele>
        <time>2021-08-31T03:55:17.544Z</time>
      </trkpt>
      <trkpt lat="42.53719" lon="2.87465">
        <ele>64.5</ele>
        <time>2021-08-31T03:55:20.995Z</time>
      </trkpt>
      <trkpt lat="42.53724" lon="2.87472">
        <ele>64.4</ele>
        <time>2021-08-31T03:55:21.919Z</time>
      </trkpt>
      <trkpt lat="42.53728" lon="2.87474">
        <ele>64.4</ele>
        <time>2021-08-31T03:55:22.611Z</time>
      </trkpt>
      <trkpt lat="42.53736" lon="2.87475">
        <ele>64.4</ele>
        <time>2021-08-31T03:55:23.917Z</time>
      </trkpt>
      <trkpt lat="42.5374" lon="2.8748">
        <ele>64.3</ele>
        <time>2021-08-31T03:55:24.579Z</time>
      </trkpt>
      <trkpt lat="42.53741" lon="2.87489">
        <ele>64.2</ele>
        <time>2021-08-31T03:55:25.431Z</time>
      </trkpt>
      <trkpt lat="42.53733" lon="2.87533">
        <ele>64.5</ele>
        <time>2021-08-31T03:55:31.345Z</time>
      </trkpt>
      <trkpt lat="42.53732" lon="2.87538">
        <ele>64.6</ele>
        <time>2021-08-31T03:55:32.162Z</time>
      </trkpt>
      <trkpt lat="42.53738" lon="2.87544">
        <ele>64.6</ele>
        <time>2021-08-31T03:55:33.373Z</time>
      </trkpt>
      <trkpt lat="42.53743" lon="2.87549">
        <ele>64.6</ele>
        <time>2021-08-31T03:55:34.383Z</time>
      </trkpt>
      <trkpt lat="42.53745" lon="2.87577">
        <ele>64.9</ele>
        <time>2021-08-31T03:55:38.267Z</time>
      </trkpt>
      <trkpt lat="42.53754" lon="2.87627">
        <ele>65.5</ele>
        <time>2021-08-31T03:55:45.476Z</time>
      </trkpt>
      <trkpt lat="42.53764" lon="2.87665">
        <ele>65.7</ele>
        <time>2021-08-31T03:55:50.625Z</time>
      </trkpt>
      <trkpt lat="42.5377" lon="2.87688">
        <ele>64.8</ele>
        <time>2021-08-31T03:55:52.213Z</time>
      </trkpt>
      <trkpt lat="42.53793" lon="2.87772">
        <ele>62.2</ele>
        <time>2021-08-31T03:55:58.638Z</time>
      </trkpt>
      <trkpt lat="42.53819" lon="2.87848">
        <ele>62.3</ele>
        <time>2021-08-31T03:56:08.824Z</time>
      </trkpt>
      <trkpt lat="42.5383" lon="2.87887">
        <ele>62.1</ele>
        <time>2021-08-31T03:56:13.372Z</time>
      </trkpt>
      <trkpt lat="42.53842" lon="2.87923">
        <ele>62</ele>
        <time>2021-08-31T03:56:17.868Z</time>
      </trkpt>
      <trkpt lat="42.53882" lon="2.88057">
        <ele>61.1</ele>
        <time>2021-08-31T03:56:32.583Z</time>
      </trkpt>
      <trkpt lat="42.53917" lon="2.88184">
        <ele>60.8</ele>
        <time>2021-08-31T03:56:48.107Z</time>
      </trkpt>
      <trkpt lat="42.53956" lon="2.88314">
        <ele>59.1</ele>
        <time>2021-08-31T03:57:00.996Z</time>
      </trkpt>
      <trkpt lat="42.53969" lon="2.88352">
        <ele>59</ele>
        <time>2021-08-31T03:57:05.776Z</time>
      </trkpt>
      <trkpt lat="42.53979" lon="2.88374">
        <ele>58.8</ele>
        <time>2021-08-31T03:57:08.336Z</time>
      </trkpt>
      <trkpt lat="42.53989" lon="2.88415">
        <ele>58</ele>
        <time>2021-08-31T03:57:11.920Z</time>
      </trkpt>
      <trkpt lat="42.53996" lon="2.88436">
        <ele>57.8</ele>
        <time>2021-08-31T03:57:14.164Z</time>
      </trkpt>
      <trkpt lat="42.5403" lon="2.88546">
        <ele>57.7</ele>
        <time>2021-08-31T03:57:28.205Z</time>
      </trkpt>
      <trkpt lat="42.54033" lon="2.88557">
        <ele>57.5</ele>
        <time>2021-08-31T03:57:29.200Z</time>
      </trkpt>
      <trkpt lat="42.54031" lon="2.88572">
        <ele>57</ele>
        <time>2021-08-31T03:57:30.242Z</time>
      </trkpt>
      <trkpt lat="42.54033" lon="2.8858">
        <ele>56.9</ele>
        <time>2021-08-31T03:57:31.021Z</time>
      </trkpt>
      <trkpt lat="42.54072" lon="2.88702">
        <ele>57.2</ele>
        <time>2021-08-31T03:57:47.407Z</time>
      </trkpt>
      <trkpt lat="42.54085" lon="2.88745">
        <ele>57</ele>
        <time>2021-08-31T03:57:52.516Z</time>
      </trkpt>
      <trkpt lat="42.54093" lon="2.8877">
        <ele>56.5</ele>
        <time>2021-08-31T03:57:54.784Z</time>
      </trkpt>
      <trkpt lat="42.54104" lon="2.88802">
        <ele>55.9</ele>
        <time>2021-08-31T03:57:57.784Z</time>
      </trkpt>
      <trkpt lat="42.54111" lon="2.88812">
        <ele>55.6</ele>
        <time>2021-08-31T03:57:58.875Z</time>
      </trkpt>
      <trkpt lat="42.54118" lon="2.88831">
        <ele>55.2</ele>
        <time>2021-08-31T03:58:00.630Z</time>
      </trkpt>
      <trkpt lat="42.54126" lon="2.88856">
        <ele>55.8</ele>
        <time>2021-08-31T03:58:05.124Z</time>
      </trkpt>
      <trkpt lat="42.54129" lon="2.88863">
        <ele>56</ele>
        <time>2021-08-31T03:58:06.523Z</time>
      </trkpt>
      <trkpt lat="42.54142" lon="2.88923">
        <ele>57.6</ele>
        <time>2021-08-31T03:58:17.506Z</time>
      </trkpt>
      <trkpt lat="42.54161" lon="2.88982">
        <ele>57.9</ele>
        <time>2021-08-31T03:58:25.691Z</time>
      </trkpt>
      <trkpt lat="42.54173" lon="2.89024">
        <ele>57.5</ele>
        <time>2021-08-31T03:58:30.062Z</time>
      </trkpt>
      <trkpt lat="42.54212" lon="2.8916">
        <ele>56.8</ele>
        <time>2021-08-31T03:58:45.954Z</time>
      </trkpt>
      <trkpt lat="42.54223" lon="2.89214">
        <ele>56.5</ele>
        <time>2021-08-31T03:58:51.749Z</time>
      </trkpt>
      <trkpt lat="42.54236" lon="2.89278">
        <ele>55.8</ele>
        <time>2021-08-31T03:58:58.007Z</time>
      </trkpt>
      <trkpt lat="42.54246" lon="2.89307">
        <ele>55.2</ele>
        <time>2021-08-31T03:59:00.656Z</time>
      </trkpt>
      <trkpt lat="42.54252" lon="2.89309">
        <ele>55</ele>
        <time>2021-08-31T03:59:01.300Z</time>
      </trkpt>
      <trkpt lat="42.54257" lon="2.8931">
        <ele>55</ele>
        <time>2021-08-31T03:59:02.122Z</time>
      </trkpt>
      <trkpt lat="42.54264" lon="2.8931">
        <ele>54.9</ele>
        <time>2021-08-31T03:59:03.017Z</time>
      </trkpt>
      <trkpt lat="42.54268" lon="2.89316">
        <ele>54.9</ele>
        <time>2021-08-31T03:59:03.987Z</time>
      </trkpt>
      <trkpt lat="42.54273" lon="2.89337">
        <ele>54.7</ele>
        <time>2021-08-31T03:59:06.121Z</time>
      </trkpt>
      <trkpt lat="42.54272" lon="2.89345">
        <ele>54.7</ele>
        <time>2021-08-31T03:59:07.093Z</time>
      </trkpt>
      <trkpt lat="42.54272" lon="2.89362">
        <ele>54.6</ele>
        <time>2021-08-31T03:59:08.834Z</time>
      </trkpt>
      <trkpt lat="42.54271" lon="2.89379">
        <ele>54.6</ele>
        <time>2021-08-31T03:59:10.876Z</time>
      </trkpt>
      <trkpt lat="42.54263" lon="2.89388">
        <ele>54.7</ele>
        <time>2021-08-31T03:59:12.728Z</time>
      </trkpt>
      <trkpt lat="42.54253" lon="2.89394">
        <ele>54.9</ele>
        <time>2021-08-31T03:59:14.863Z</time>
      </trkpt>
      <trkpt lat="42.54252" lon="2.89396">
        <ele>55</ele>
        <time>2021-08-31T03:59:15.390Z</time>
      </trkpt>
      <trkpt lat="42.54249" lon="2.89396">
        <ele>55</ele>
        <time>2021-08-31T03:59:15.878Z</time>
      </trkpt>
      <trkpt lat="42.54248" lon="2.894">
        <ele>55.1</ele>
        <time>2021-08-31T03:59:16.595Z</time>
      </trkpt>
      <trkpt lat="42.54246" lon="2.89408">
        <ele>55.2</ele>
        <time>2021-08-31T03:59:17.781Z</time>
      </trkpt>
      <trkpt lat="42.54246" lon="2.89422">
        <ele>55.3</ele>
        <time>2021-08-31T03:59:19.621Z</time>
      </trkpt>
      <trkpt lat="42.54248" lon="2.89459">
        <ele>56.1</ele>
        <time>2021-08-31T03:59:25.691Z</time>
      </trkpt>
      <trkpt lat="42.54248" lon="2.89499">
        <ele>57</ele>
        <time>2021-08-31T03:59:32.342Z</time>
      </trkpt>
      <trkpt lat="42.54248" lon="2.89513">
        <ele>57</ele>
        <time>2021-08-31T03:59:34.018Z</time>
      </trkpt>
      <trkpt lat="42.54246" lon="2.89543">
        <ele>57.1</ele>
        <time>2021-08-31T03:59:37.781Z</time>
      </trkpt>
      <trkpt lat="42.54243" lon="2.89576">
        <ele>57.2</ele>
        <time>2021-08-31T03:59:41.918Z</time>
      </trkpt>
      <trkpt lat="42.5424" lon="2.89621">
        <ele>56.8</ele>
        <time>2021-08-31T03:59:46.304Z</time>
      </trkpt>
      <trkpt lat="42.54238" lon="2.8966">
        <ele>56.5</ele>
        <time>2021-08-31T03:59:50.179Z</time>
      </trkpt>
      <trkpt lat="42.54237" lon="2.8968">
        <ele>56.6</ele>
        <time>2021-08-31T03:59:52.738Z</time>
      </trkpt>
      <trkpt lat="42.54239" lon="2.89725">
        <ele>57</ele>
        <time>2021-08-31T03:59:58.806Z</time>
      </trkpt>
      <trkpt lat="42.54243" lon="2.89779">
        <ele>56.5</ele>
        <time>2021-08-31T04:00:04.042Z</time>
      </trkpt>
      <trkpt lat="42.54246" lon="2.8982">
        <ele>55.5</ele>
        <time>2021-08-31T04:00:07.189Z</time>
      </trkpt>
      <trkpt lat="42.54246" lon="2.89824">
        <ele>55.4</ele>
        <time>2021-08-31T04:00:07.492Z</time>
      </trkpt>
      <trkpt lat="42.54247" lon="2.89828">
        <ele>55.2</ele>
        <time>2021-08-31T04:00:07.736Z</time>
      </trkpt>
      <trkpt lat="42.5425" lon="2.89838">
        <ele>55.1</ele>
        <time>2021-08-31T04:00:08.777Z</time>
      </trkpt>
      <trkpt lat="42.54256" lon="2.89876">
        <ele>55.3</ele>
        <time>2021-08-31T04:00:13.749Z</time>
      </trkpt>
      <trkpt lat="42.5426" lon="2.89913">
        <ele>55.6</ele>
        <time>2021-08-31T04:00:18.723Z</time>
      </trkpt>
      <trkpt lat="42.54263" lon="2.89943">
        <ele>55.6</ele>
        <time>2021-08-31T04:00:22.349Z</time>
      </trkpt>
      <trkpt lat="42.54264" lon="2.89953">
        <ele>55.6</ele>
        <time>2021-08-31T04:00:23.558Z</time>
      </trkpt>
      <trkpt lat="42.54266" lon="2.8997">
        <ele>55.5</ele>
        <time>2021-08-31T04:00:25.323Z</time>
      </trkpt>
      <trkpt lat="42.5427" lon="2.89996">
        <ele>55.5</ele>
        <time>2021-08-31T04:00:28.504Z</time>
      </trkpt>
      <trkpt lat="42.54275" lon="2.90035">
        <ele>55.1</ele>
        <time>2021-08-31T04:00:32.264Z</time>
      </trkpt>
      <trkpt lat="42.54279" lon="2.90055">
        <ele>54.9</ele>
        <time>2021-08-31T04:00:34.248Z</time>
      </trkpt>
      <trkpt lat="42.54286" lon="2.90081">
        <ele>54.6</ele>
        <time>2021-08-31T04:00:36.845Z</time>
      </trkpt>
      <trkpt lat="42.54292" lon="2.9011">
        <ele>54</ele>
        <time>2021-08-31T04:00:39.293Z</time>
      </trkpt>
      <trkpt lat="42.54303" lon="2.90151">
        <ele>53</ele>
        <time>2021-08-31T04:00:42.689Z</time>
      </trkpt>
      <trkpt lat="42.54314" lon="2.90192">
        <ele>52.5</ele>
        <time>2021-08-31T04:00:46.740Z</time>
      </trkpt>
      <trkpt lat="42.54321" lon="2.90217">
        <ele>52.3</ele>
        <time>2021-08-31T04:00:49.400Z</time>
      </trkpt>
      <trkpt lat="42.54332" lon="2.90247">
        <ele>52</ele>
        <time>2021-08-31T04:00:52.647Z</time>
      </trkpt>
      <trkpt lat="42.54347" lon="2.90276">
        <ele>51.8</ele>
        <time>2021-08-31T04:00:56.292Z</time>
      </trkpt>
      <trkpt lat="42.54354" lon="2.90287">
        <ele>51.8</ele>
        <time>2021-08-31T04:00:58.033Z</time>
      </trkpt>
      <trkpt lat="42.54357" lon="2.90291">
        <ele>51.7</ele>
        <time>2021-08-31T04:00:58.514Z</time>
      </trkpt>
      <trkpt lat="42.54364" lon="2.90298">
        <ele>51.6</ele>
        <time>2021-08-31T04:00:59.667Z</time>
      </trkpt>
      <trkpt lat="42.5437" lon="2.90303">
        <ele>51.6</ele>
        <time>2021-08-31T04:01:00.811Z</time>
      </trkpt>
      <trkpt lat="42.54376" lon="2.90308">
        <ele>51.5</ele>
        <time>2021-08-31T04:01:01.713Z</time>
      </trkpt>
      <trkpt lat="42.54383" lon="2.90314">
        <ele>51.4</ele>
        <time>2021-08-31T04:01:02.803Z</time>
      </trkpt>
      <trkpt lat="42.54388" lon="2.90318">
        <ele>51.3</ele>
        <time>2021-08-31T04:01:03.520Z</time>
      </trkpt>
      <trkpt lat="42.54386" lon="2.90323">
        <ele>51.4</ele>
        <time>2021-08-31T04:01:04.391Z</time>
      </trkpt>
      <trkpt lat="42.54376" lon="2.90342">
        <ele>51.4</ele>
        <time>2021-08-31T04:01:07.188Z</time>
      </trkpt>
      <trkpt lat="42.54373" lon="2.90351">
        <ele>51.3</ele>
        <time>2021-08-31T04:01:08.126Z</time>
      </trkpt>
      <trkpt lat="42.54374" lon="2.90356">
        <ele>51.2</ele>
        <time>2021-08-31T04:01:08.550Z</time>
      </trkpt>
      <trkpt lat="42.5438" lon="2.90373">
        <ele>51</ele>
        <time>2021-08-31T04:01:10.325Z</time>
      </trkpt>
      <trkpt lat="42.54382" lon="2.90379">
        <ele>51</ele>
        <time>2021-08-31T04:01:11.114Z</time>
      </trkpt>
      <trkpt lat="42.54387" lon="2.90389">
        <ele>50.9</ele>
        <time>2021-08-31T04:01:12.299Z</time>
      </trkpt>
      <trkpt lat="42.54392" lon="2.90399">
        <ele>50.8</ele>
        <time>2021-08-31T04:01:13.484Z</time>
      </trkpt>
      <trkpt lat="42.54398" lon="2.90415">
        <ele>50.8</ele>
        <time>2021-08-31T04:01:15.634Z</time>
      </trkpt>
      <trkpt lat="42.54407" lon="2.90436">
        <ele>50.6</ele>
        <time>2021-08-31T04:01:18.019Z</time>
      </trkpt>
      <trkpt lat="42.54422" lon="2.90478">
        <ele>50.3</ele>
        <time>2021-08-31T04:01:22.751Z</time>
      </trkpt>
      <trkpt lat="42.54438" lon="2.9052">
        <ele>50</ele>
        <time>2021-08-31T04:01:27.552Z</time>
      </trkpt>
      <trkpt lat="42.54454" lon="2.90565">
        <ele>50</ele>
        <time>2021-08-31T04:01:33.536Z</time>
      </trkpt>
      <trkpt lat="42.54469" lon="2.90604">
        <ele>49.8</ele>
        <time>2021-08-31T04:01:38.349Z</time>
      </trkpt>
      <trkpt lat="42.54481" lon="2.90636">
        <ele>49.7</ele>
        <time>2021-08-31T04:01:42.413Z</time>
      </trkpt>
      <trkpt lat="42.54485" lon="2.90647">
        <ele>49.7</ele>
        <time>2021-08-31T04:01:43.882Z</time>
      </trkpt>
      <trkpt lat="42.54497" lon="2.90675">
        <ele>49.7</ele>
        <time>2021-08-31T04:01:47.761Z</time>
      </trkpt>
      <trkpt lat="42.54503" lon="2.90689">
        <ele>49.4</ele>
        <time>2021-08-31T04:01:49.105Z</time>
      </trkpt>
      <trkpt lat="42.54512" lon="2.90712">
        <ele>48.9</ele>
        <time>2021-08-31T04:01:51.245Z</time>
      </trkpt>
      <trkpt lat="42.5454" lon="2.90782">
        <ele>48.1</ele>
        <time>2021-08-31T04:01:58.818Z</time>
      </trkpt>
      <trkpt lat="42.54562" lon="2.90837">
        <ele>47.7</ele>
        <time>2021-08-31T04:02:05.167Z</time>
      </trkpt>
      <trkpt lat="42.54581" lon="2.90884">
        <ele>46.8</ele>
        <time>2021-08-31T04:02:09.735Z</time>
      </trkpt>
      <trkpt lat="42.54598" lon="2.90927">
        <ele>46.2</ele>
        <time>2021-08-31T04:02:14.201Z</time>
      </trkpt>
      <trkpt lat="42.54618" lon="2.90978">
        <ele>46.1</ele>
        <time>2021-08-31T04:02:20.879Z</time>
      </trkpt>
      <trkpt lat="42.54644" lon="2.91042">
        <ele>46</ele>
        <time>2021-08-31T04:02:29.389Z</time>
      </trkpt>
      <trkpt lat="42.54669" lon="2.91102">
        <ele>45.8</ele>
        <time>2021-08-31T04:02:37.174Z</time>
      </trkpt>
      <trkpt lat="42.54695" lon="2.91165">
        <ele>44.7</ele>
        <time>2021-08-31T04:02:43.477Z</time>
      </trkpt>
      <trkpt lat="42.5471" lon="2.91205">
        <ele>44</ele>
        <time>2021-08-31T04:02:47.372Z</time>
      </trkpt>
      <trkpt lat="42.5473" lon="2.91256">
        <ele>43.8</ele>
        <time>2021-08-31T04:02:53.826Z</time>
      </trkpt>
      <trkpt lat="42.54748" lon="2.91295">
        <ele>44.5</ele>
        <time>2021-08-31T04:03:00.622Z</time>
      </trkpt>
      <trkpt lat="42.5476" lon="2.91316">
        <ele>44.7</ele>
        <time>2021-08-31T04:03:04.133Z</time>
      </trkpt>
      <trkpt lat="42.54766" lon="2.91321">
        <ele>44.7</ele>
        <time>2021-08-31T04:03:05.277Z</time>
      </trkpt>
      <trkpt lat="42.54772" lon="2.91324">
        <ele>44.6</ele>
        <time>2021-08-31T04:03:06.082Z</time>
      </trkpt>
      <trkpt lat="42.5478" lon="2.91325">
        <ele>44.5</ele>
        <time>2021-08-31T04:03:07.134Z</time>
      </trkpt>
      <trkpt lat="42.54785" lon="2.91326">
        <ele>44.5</ele>
        <time>2021-08-31T04:03:07.956Z</time>
      </trkpt>
      <trkpt lat="42.54787" lon="2.91327">
        <ele>44.5</ele>
        <time>2021-08-31T04:03:08.302Z</time>
      </trkpt>
      <trkpt lat="42.54794" lon="2.91327">
        <ele>44.4</ele>
        <time>2021-08-31T04:03:09.198Z</time>
      </trkpt>
      <trkpt lat="42.54804" lon="2.91331">
        <ele>44.3</ele>
        <time>2021-08-31T04:03:10.616Z</time>
      </trkpt>
      <trkpt lat="42.54814" lon="2.91335">
        <ele>44.3</ele>
        <time>2021-08-31T04:03:12.311Z</time>
      </trkpt>
      <trkpt lat="42.5482" lon="2.91339">
        <ele>44.2</ele>
        <time>2021-08-31T04:03:13.159Z</time>
      </trkpt>
      <trkpt lat="42.54825" lon="2.91343">
        <ele>44.2</ele>
        <time>2021-08-31T04:03:14.102Z</time>
      </trkpt>
      <trkpt lat="42.54831" lon="2.91351">
        <ele>44.2</ele>
        <time>2021-08-31T04:03:15.469Z</time>
      </trkpt>
      <trkpt lat="42.54834" lon="2.91356">
        <ele>44.3</ele>
        <time>2021-08-31T04:03:16.426Z</time>
      </trkpt>
      <trkpt lat="42.54837" lon="2.91362">
        <ele>44.3</ele>
        <time>2021-08-31T04:03:17.294Z</time>
      </trkpt>
      <trkpt lat="42.54841" lon="2.91368">
        <ele>44.4</ele>
        <time>2021-08-31T04:03:18.439Z</time>
      </trkpt>
      <trkpt lat="42.54844" lon="2.91374">
        <ele>44.5</ele>
        <time>2021-08-31T04:03:19.487Z</time>
      </trkpt>
      <trkpt lat="42.54848" lon="2.91379">
        <ele>44.5</ele>
        <time>2021-08-31T04:03:20.371Z</time>
      </trkpt>
      <trkpt lat="42.54854" lon="2.91387">
        <ele>44.6</ele>
        <time>2021-08-31T04:03:21.905Z</time>
      </trkpt>
      <trkpt lat="42.54865" lon="2.91402">
        <ele>44.8</ele>
        <time>2021-08-31T04:03:24.777Z</time>
      </trkpt>
      <trkpt lat="42.54874" lon="2.91409">
        <ele>44.9</ele>
        <time>2021-08-31T04:03:26.626Z</time>
      </trkpt>
      <trkpt lat="42.54882" lon="2.91418">
        <ele>45</ele>
        <time>2021-08-31T04:03:28.478Z</time>
      </trkpt>
      <trkpt lat="42.54887" lon="2.91423">
        <ele>44.9</ele>
        <time>2021-08-31T04:03:29.255Z</time>
      </trkpt>
      <trkpt lat="42.54908" lon="2.91439">
        <ele>44.5</ele>
        <time>2021-08-31T04:03:32.250Z</time>
      </trkpt>
      <trkpt lat="42.54917" lon="2.91445">
        <ele>44.3</ele>
        <time>2021-08-31T04:03:33.448Z</time>
      </trkpt>
      <trkpt lat="42.54926" lon="2.91449">
        <ele>44.1</ele>
        <time>2021-08-31T04:03:34.565Z</time>
      </trkpt>
      <trkpt lat="42.54937" lon="2.91453">
        <ele>43.8</ele>
        <time>2021-08-31T04:03:35.830Z</time>
      </trkpt>
      <trkpt lat="42.54948" lon="2.91456">
        <ele>43.7</ele>
        <time>2021-08-31T04:03:37.370Z</time>
      </trkpt>
      <trkpt lat="42.54959" lon="2.91461">
        <ele>43.5</ele>
        <time>2021-08-31T04:03:38.802Z</time>
      </trkpt>
      <trkpt lat="42.54971" lon="2.91469">
        <ele>43.3</ele>
        <time>2021-08-31T04:03:40.499Z</time>
      </trkpt>
      <trkpt lat="42.54975" lon="2.91478">
        <ele>43.2</ele>
        <time>2021-08-31T04:03:41.507Z</time>
      </trkpt>
      <trkpt lat="42.54979" lon="2.91486">
        <ele>43.1</ele>
        <time>2021-08-31T04:03:42.422Z</time>
      </trkpt>
      <trkpt lat="42.5498" lon="2.91489">
        <ele>43.1</ele>
        <time>2021-08-31T04:03:42.816Z</time>
      </trkpt>
      <trkpt lat="42.54982" lon="2.91494">
        <ele>43</ele>
        <time>2021-08-31T04:03:43.295Z</time>
      </trkpt>
      <trkpt lat="42.54985" lon="2.91503">
        <ele>43</ele>
        <time>2021-08-31T04:03:44.478Z</time>
      </trkpt>
      <trkpt lat="42.54988" lon="2.91519">
        <ele>43</ele>
        <time>2021-08-31T04:03:46.455Z</time>
      </trkpt>
      <trkpt lat="42.54989" lon="2.91536">
        <ele>42.9</ele>
        <time>2021-08-31T04:03:48.202Z</time>
      </trkpt>
      <trkpt lat="42.54988" lon="2.91554">
        <ele>42.9</ele>
        <time>2021-08-31T04:03:50.363Z</time>
      </trkpt>
      <trkpt lat="42.54988" lon="2.91581">
        <ele>42.9</ele>
        <time>2021-08-31T04:03:53.596Z</time>
      </trkpt>
      <trkpt lat="42.54987" lon="2.91612">
        <ele>43</ele>
        <time>2021-08-31T04:03:57.467Z</time>
      </trkpt>
      <trkpt lat="42.54987" lon="2.91624">
        <ele>43</ele>
        <time>2021-08-31T04:03:58.904Z</time>
      </trkpt>
      <trkpt lat="42.54986" lon="2.91642">
        <ele>43.1</ele>
        <time>2021-08-31T04:04:01.225Z</time>
      </trkpt>
      <trkpt lat="42.54985" lon="2.91649">
        <ele>43.1</ele>
        <time>2021-08-31T04:04:02.079Z</time>
      </trkpt>
      <trkpt lat="42.54985" lon="2.91655">
        <ele>43.1</ele>
        <time>2021-08-31T04:04:02.797Z</time>
      </trkpt>
      <trkpt lat="42.54986" lon="2.91663">
        <ele>43.2</ele>
        <time>2021-08-31T04:04:03.945Z</time>
      </trkpt>
      <trkpt lat="42.54987" lon="2.9167">
        <ele>43.2</ele>
        <time>2021-08-31T04:04:04.799Z</time>
      </trkpt>
      <trkpt lat="42.5499" lon="2.91677">
        <ele>43.1</ele>
        <time>2021-08-31T04:04:05.539Z</time>
      </trkpt>
      <trkpt lat="42.54992" lon="2.91681">
        <ele>43.1</ele>
        <time>2021-08-31T04:04:06.118Z</time>
      </trkpt>
      <trkpt lat="42.54996" lon="2.9169">
        <ele>43.1</ele>
        <time>2021-08-31T04:04:07.377Z</time>
      </trkpt>
      <trkpt lat="42.54998" lon="2.91693">
        <ele>43</ele>
        <time>2021-08-31T04:04:07.684Z</time>
      </trkpt>
      <trkpt lat="42.54999" lon="2.91695">
        <ele>43</ele>
        <time>2021-08-31T04:04:07.973Z</time>
      </trkpt>
      <trkpt lat="42.55002" lon="2.91699">
        <ele>43</ele>
        <time>2021-08-31T04:04:08.657Z</time>
      </trkpt>
      <trkpt lat="42.55008" lon="2.91707">
        <ele>42.9</ele>
        <time>2021-08-31T04:04:09.767Z</time>
      </trkpt>
      <trkpt lat="42.55001" lon="2.91713">
        <ele>43</ele>
        <time>2021-08-31T04:04:11.280Z</time>
      </trkpt>
      <trkpt lat="42.54978" lon="2.91729">
        <ele>43.3</ele>
        <time>2021-08-31T04:04:15.980Z</time>
      </trkpt>
      <trkpt lat="42.54961" lon="2.91743">
        <ele>43.5</ele>
        <time>2021-08-31T04:04:19.540Z</time>
      </trkpt>
      <trkpt lat="42.54947" lon="2.91756">
        <ele>43.5</ele>
        <time>2021-08-31T04:04:22.297Z</time>
      </trkpt>
      <trkpt lat="42.54938" lon="2.91766">
        <ele>43.4</ele>
        <time>2021-08-31T04:04:23.900Z</time>
      </trkpt>
      <trkpt lat="42.5493" lon="2.91776">
        <ele>43.3</ele>
        <time>2021-08-31T04:04:25.387Z</time>
      </trkpt>
      <trkpt lat="42.54918" lon="2.91792">
        <ele>43</ele>
        <time>2021-08-31T04:04:27.448Z</time>
      </trkpt>
      <trkpt lat="42.54911" lon="2.91801">
        <ele>42.9</ele>
        <time>2021-08-31T04:04:28.746Z</time>
      </trkpt>
      <trkpt lat="42.54902" lon="2.91817">
        <ele>42.7</ele>
        <time>2021-08-31T04:04:30.664Z</time>
      </trkpt>
      <trkpt lat="42.54891" lon="2.91836">
        <ele>42.6</ele>
        <time>2021-08-31T04:04:33.328Z</time>
      </trkpt>
      <trkpt lat="42.54884" lon="2.91848">
        <ele>42.8</ele>
        <time>2021-08-31T04:04:35.516Z</time>
      </trkpt>
      <trkpt lat="42.54884" lon="2.91851">
        <ele>42.8</ele>
        <time>2021-08-31T04:04:35.876Z</time>
      </trkpt>
      <trkpt lat="42.54883" lon="2.91853">
        <ele>42.8</ele>
        <time>2021-08-31T04:04:36.165Z</time>
      </trkpt>
      <trkpt lat="42.54887" lon="2.91859">
        <ele>42.7</ele>
        <time>2021-08-31T04:04:36.905Z</time>
      </trkpt>
      <trkpt lat="42.54889" lon="2.91863">
        <ele>42.7</ele>
        <time>2021-08-31T04:04:37.484Z</time>
      </trkpt>
      <trkpt lat="42.54891" lon="2.9187">
        <ele>42.6</ele>
        <time>2021-08-31T04:04:38.160Z</time>
      </trkpt>
      <trkpt lat="42.54891" lon="2.91877">
        <ele>42.6</ele>
        <time>2021-08-31T04:04:38.998Z</time>
      </trkpt>
      <trkpt lat="42.54891" lon="2.91884">
        <ele>42.6</ele>
        <time>2021-08-31T04:04:39.836Z</time>
      </trkpt>
      <trkpt lat="42.54887" lon="2.91904">
        <ele>42.7</ele>
        <time>2021-08-31T04:04:42.476Z</time>
      </trkpt>
      <trkpt lat="42.54885" lon="2.91916">
        <ele>42.8</ele>
        <time>2021-08-31T04:04:44.115Z</time>
      </trkpt>
      <trkpt lat="42.54885" lon="2.91929">
        <ele>42.9</ele>
        <time>2021-08-31T04:04:45.836Z</time>
      </trkpt>
      <trkpt lat="42.54886" lon="2.91958">
        <ele>43.1</ele>
        <time>2021-08-31T04:04:49.638Z</time>
      </trkpt>
      <trkpt lat="42.54888" lon="2.92022">
        <ele>43.2</ele>
        <time>2021-08-31T04:04:57.460Z</time>
      </trkpt>
      <trkpt lat="42.54888" lon="2.92069">
        <ele>42.8</ele>
        <time>2021-08-31T04:05:02.050Z</time>
      </trkpt>
      <trkpt lat="42.54889" lon="2.92108">
        <ele>42.8</ele>
        <time>2021-08-31T04:05:06.723Z</time>
      </trkpt>
      <trkpt lat="42.54889" lon="2.9213">
        <ele>42.9</ele>
        <time>2021-08-31T04:05:09.515Z</time>
      </trkpt>
      <trkpt lat="42.54889" lon="2.92135">
        <ele>42.9</ele>
        <time>2021-08-31T04:05:10.113Z</time>
      </trkpt>
      <trkpt lat="42.5489" lon="2.92159">
        <ele>42.9</ele>
        <time>2021-08-31T04:05:12.992Z</time>
      </trkpt>
      <trkpt lat="42.54891" lon="2.92173">
        <ele>42.9</ele>
        <time>2021-08-31T04:05:14.676Z</time>
      </trkpt>
      <trkpt lat="42.54891" lon="2.92182">
        <ele>42.8</ele>
        <time>2021-08-31T04:05:15.516Z</time>
      </trkpt>
      <trkpt lat="42.5489" lon="2.92187">
        <ele>42.7</ele>
        <time>2021-08-31T04:05:15.941Z</time>
      </trkpt>
      <trkpt lat="42.54886" lon="2.92208">
        <ele>42.6</ele>
        <time>2021-08-31T04:05:18.311Z</time>
      </trkpt>
      <trkpt lat="42.54882" lon="2.92233">
        <ele>42.4</ele>
        <time>2021-08-31T04:05:20.840Z</time>
      </trkpt>
      <trkpt lat="42.5488" lon="2.92257">
        <ele>42.3</ele>
        <time>2021-08-31T04:05:23.503Z</time>
      </trkpt>
      <trkpt lat="42.54879" lon="2.92269">
        <ele>42.3</ele>
        <time>2021-08-31T04:05:24.949Z</time>
      </trkpt>
      <trkpt lat="42.54874" lon="2.92345">
        <ele>42</ele>
        <time>2021-08-31T04:05:33.395Z</time>
      </trkpt>
      <trkpt lat="42.54872" lon="2.92351">
        <ele>42</ele>
        <time>2021-08-31T04:05:34.184Z</time>
      </trkpt>
      <trkpt lat="42.5487" lon="2.92375">
        <ele>42</ele>
        <time>2021-08-31T04:05:37.076Z</time>
      </trkpt>
      <trkpt lat="42.54867" lon="2.92408">
        <ele>42</ele>
        <time>2021-08-31T04:05:41.057Z</time>
      </trkpt>
      <trkpt lat="42.54862" lon="2.92477">
        <ele>42</ele>
        <time>2021-08-31T04:05:49.360Z</time>
      </trkpt>
      <trkpt lat="42.5486" lon="2.92506">
        <ele>42.1</ele>
        <time>2021-08-31T04:05:53.003Z</time>
      </trkpt>
      <trkpt lat="42.54857" lon="2.92549">
        <ele>42.6</ele>
        <time>2021-08-31T04:05:59.044Z</time>
      </trkpt>
      <trkpt lat="42.54853" lon="2.92602">
        <ele>42.9</ele>
        <time>2021-08-31T04:06:05.904Z</time>
      </trkpt>
      <trkpt lat="42.54849" lon="2.92648">
        <ele>42.7</ele>
        <time>2021-08-31T04:06:10.994Z</time>
      </trkpt>
      <trkpt lat="42.54848" lon="2.92671">
        <ele>42.4</ele>
        <time>2021-08-31T04:06:13.077Z</time>
      </trkpt>
      <trkpt lat="42.54847" lon="2.92694">
        <ele>41.8</ele>
        <time>2021-08-31T04:06:14.795Z</time>
      </trkpt>
      <trkpt lat="42.54847" lon="2.92703">
        <ele>41.5</ele>
        <time>2021-08-31T04:06:15.406Z</time>
      </trkpt>
      <trkpt lat="42.54847" lon="2.92736">
        <ele>40.7</ele>
        <time>2021-08-31T04:06:17.928Z</time>
      </trkpt>
      <trkpt lat="42.54847" lon="2.92744">
        <ele>40.5</ele>
        <time>2021-08-31T04:06:18.533Z</time>
      </trkpt>
      <trkpt lat="42.54848" lon="2.92748">
        <ele>40.4</ele>
        <time>2021-08-31T04:06:18.858Z</time>
      </trkpt>
      <trkpt lat="42.54849" lon="2.92753">
        <ele>40.4</ele>
        <time>2021-08-31T04:06:19.478Z</time>
      </trkpt>
      <trkpt lat="42.54846" lon="2.92757">
        <ele>40.3</ele>
        <time>2021-08-31T04:06:19.959Z</time>
      </trkpt>
      <trkpt lat="42.54845" lon="2.92759">
        <ele>40.3</ele>
        <time>2021-08-31T04:06:20.249Z</time>
      </trkpt>
      <trkpt lat="42.54845" lon="2.92764">
        <ele>40.2</ele>
        <time>2021-08-31T04:06:20.654Z</time>
      </trkpt>
      <trkpt lat="42.54843" lon="2.92781">
        <ele>40.1</ele>
        <time>2021-08-31T04:06:22.420Z</time>
      </trkpt>
      <trkpt lat="42.54841" lon="2.92799">
        <ele>40.1</ele>
        <time>2021-08-31T04:06:24.599Z</time>
      </trkpt>
      <trkpt lat="42.54839" lon="2.92819">
        <ele>40</ele>
        <time>2021-08-31T04:06:26.791Z</time>
      </trkpt>
      <trkpt lat="42.54838" lon="2.92828">
        <ele>40</ele>
        <time>2021-08-31T04:06:27.880Z</time>
      </trkpt>
      <trkpt lat="42.54837" lon="2.92838">
        <ele>40.1</ele>
        <time>2021-08-31T04:06:29.259Z</time>
      </trkpt>
      <trkpt lat="42.54835" lon="2.9286">
        <ele>40.6</ele>
        <time>2021-08-31T04:06:32.948Z</time>
      </trkpt>
      <trkpt lat="42.54832" lon="2.92896">
        <ele>41.5</ele>
        <time>2021-08-31T04:06:39.225Z</time>
      </trkpt>
      <trkpt lat="42.54831" lon="2.92919">
        <ele>42</ele>
        <time>2021-08-31T04:06:43.003Z</time>
      </trkpt>
      <trkpt lat="42.54828" lon="2.9294">
        <ele>42</ele>
        <time>2021-08-31T04:06:45.564Z</time>
      </trkpt>
      <trkpt lat="42.54826" lon="2.92963">
        <ele>42</ele>
        <time>2021-08-31T04:06:48.338Z</time>
      </trkpt>
      <trkpt lat="42.54825" lon="2.92984">
        <ele>42</ele>
        <time>2021-08-31T04:06:50.857Z</time>
      </trkpt>
      <trkpt lat="42.54825" lon="2.93009">
        <ele>41.9</ele>
        <time>2021-08-31T04:06:53.621Z</time>
      </trkpt>
      <trkpt lat="42.54824" lon="2.93032">
        <ele>41.7</ele>
        <time>2021-08-31T04:06:55.864Z</time>
      </trkpt>
      <trkpt lat="42.54823" lon="2.93056">
        <ele>41.4</ele>
        <time>2021-08-31T04:06:58.058Z</time>
      </trkpt>
      <trkpt lat="42.54822" lon="2.93074">
        <ele>41.2</ele>
        <time>2021-08-31T04:06:59.744Z</time>
      </trkpt>
      <trkpt lat="42.54821" lon="2.9309">
        <ele>41.1</ele>
        <time>2021-08-31T04:07:01.378Z</time>
      </trkpt>
      <trkpt lat="42.54821" lon="2.93092">
        <ele>41.1</ele>
        <time>2021-08-31T04:07:01.617Z</time>
      </trkpt>
      <trkpt lat="42.54821" lon="2.93097">
        <ele>41</ele>
        <time>2021-08-31T04:07:02.023Z</time>
      </trkpt>
      <trkpt lat="42.54819" lon="2.93116">
        <ele>40.9</ele>
        <time>2021-08-31T04:07:04.097Z</time>
      </trkpt>
      <trkpt lat="42.54816" lon="2.93143">
        <ele>40.8</ele>
        <time>2021-08-31T04:07:07.135Z</time>
      </trkpt>
      <trkpt lat="42.54813" lon="2.93171">
        <ele>40.8</ele>
        <time>2021-08-31T04:07:10.523Z</time>
      </trkpt>
      <trkpt lat="42.54812" lon="2.93189">
        <ele>41.2</ele>
        <time>2021-08-31T04:07:13.507Z</time>
      </trkpt>
      <trkpt lat="42.54811" lon="2.93202">
        <ele>41.4</ele>
        <time>2021-08-31T04:07:15.439Z</time>
      </trkpt>
      <trkpt lat="42.54809" lon="2.93244">
        <ele>42.2</ele>
        <time>2021-08-31T04:07:22.039Z</time>
      </trkpt>
      <trkpt lat="42.54809" lon="2.93252">
        <ele>42.3</ele>
        <time>2021-08-31T04:07:23.173Z</time>
      </trkpt>
      <trkpt lat="42.54809" lon="2.93287">
        <ele>41.5</ele>
        <time>2021-08-31T04:07:25.900Z</time>
      </trkpt>
      <trkpt lat="42.5481" lon="2.93319">
        <ele>40.9</ele>
        <time>2021-08-31T04:07:28.549Z</time>
      </trkpt>
      <trkpt lat="42.5481" lon="2.93348">
        <ele>40.8</ele>
        <time>2021-08-31T04:07:31.789Z</time>
      </trkpt>
      <trkpt lat="42.54811" lon="2.93383">
        <ele>41.3</ele>
        <time>2021-08-31T04:07:36.888Z</time>
      </trkpt>
      <trkpt lat="42.54813" lon="2.93412">
        <ele>41.7</ele>
        <time>2021-08-31T04:07:41.094Z</time>
      </trkpt>
      <trkpt lat="42.54814" lon="2.93454">
        <ele>41.8</ele>
        <time>2021-08-31T04:07:46.279Z</time>
      </trkpt>
      <trkpt lat="42.54818" lon="2.93502">
        <ele>41.7</ele>
        <time>2021-08-31T04:07:51.825Z</time>
      </trkpt>
      <trkpt lat="42.54822" lon="2.93539">
        <ele>41.5</ele>
        <time>2021-08-31T04:07:55.693Z</time>
      </trkpt>
      <trkpt lat="42.5483" lon="2.93605">
        <ele>41.1</ele>
        <time>2021-08-31T04:08:02.530Z</time>
      </trkpt>
      <trkpt lat="42.54835" lon="2.93641">
        <ele>41</ele>
        <time>2021-08-31T04:08:06.681Z</time>
      </trkpt>
      <trkpt lat="42.54844" lon="2.93677">
        <ele>41.1</ele>
        <time>2021-08-31T04:08:11.387Z</time>
      </trkpt>
      <trkpt lat="42.54847" lon="2.93691">
        <ele>41.4</ele>
        <time>2021-08-31T04:08:13.733Z</time>
      </trkpt>
      <trkpt lat="42.54843" lon="2.93693">
        <ele>41.5</ele>
        <time>2021-08-31T04:08:14.616Z</time>
      </trkpt>
      <trkpt lat="42.54845" lon="2.93704">
        <ele>41.7</ele>
        <time>2021-08-31T04:08:16.354Z</time>
      </trkpt>
      <trkpt lat="42.54849" lon="2.93728">
        <ele>42.1</ele>
        <time>2021-08-31T04:08:20.047Z</time>
      </trkpt>
      <trkpt lat="42.54853" lon="2.9375">
        <ele>42.5</ele>
        <time>2021-08-31T04:08:23.523Z</time>
      </trkpt>
      <trkpt lat="42.54856" lon="2.93765">
        <ele>42.6</ele>
        <time>2021-08-31T04:08:25.546Z</time>
      </trkpt>
      <trkpt lat="42.54859" lon="2.93777">
        <ele>42.7</ele>
        <time>2021-08-31T04:08:27.229Z</time>
      </trkpt>
      <trkpt lat="42.54861" lon="2.93783">
        <ele>42.7</ele>
        <time>2021-08-31T04:08:28.017Z</time>
      </trkpt>
      <trkpt lat="42.54865" lon="2.93789">
        <ele>42.7</ele>
        <time>2021-08-31T04:08:28.986Z</time>
      </trkpt>
      <trkpt lat="42.54868" lon="2.93794">
        <ele>42.7</ele>
        <time>2021-08-31T04:08:29.758Z</time>
      </trkpt>
      <trkpt lat="42.5487" lon="2.93801">
        <ele>42.7</ele>
        <time>2021-08-31T04:08:30.657Z</time>
      </trkpt>
      <trkpt lat="42.54871" lon="2.93813">
        <ele>42.9</ele>
        <time>2021-08-31T04:08:32.479Z</time>
      </trkpt>
      <trkpt lat="42.54872" lon="2.9382">
        <ele>42.9</ele>
        <time>2021-08-31T04:08:33.332Z</time>
      </trkpt>
      <trkpt lat="42.54875" lon="2.93826">
        <ele>42.9</ele>
        <time>2021-08-31T04:08:34.201Z</time>
      </trkpt>
      <trkpt lat="42.54879" lon="2.93832">
        <ele>42.9</ele>
        <time>2021-08-31T04:08:35.170Z</time>
      </trkpt>
      <trkpt lat="42.54879" lon="2.93834">
        <ele>42.9</ele>
        <time>2021-08-31T04:08:35.409Z</time>
      </trkpt>
      <trkpt lat="42.54885" lon="2.93856">
        <ele>42.8</ele>
        <time>2021-08-31T04:08:37.989Z</time>
      </trkpt>
      <trkpt lat="42.54892" lon="2.93877">
        <ele>42.6</ele>
        <time>2021-08-31T04:08:40.234Z</time>
      </trkpt>
      <trkpt lat="42.54899" lon="2.939">
        <ele>42.4</ele>
        <time>2021-08-31T04:08:42.684Z</time>
      </trkpt>
      <trkpt lat="42.54906" lon="2.93924">
        <ele>42.1</ele>
        <time>2021-08-31T04:08:45.073Z</time>
      </trkpt>
      <trkpt lat="42.54911" lon="2.93947">
        <ele>41.4</ele>
        <time>2021-08-31T04:08:46.788Z</time>
      </trkpt>
      <trkpt lat="42.54916" lon="2.93966">
        <ele>40.8</ele>
        <time>2021-08-31T04:08:48.221Z</time>
      </trkpt>
      <trkpt lat="42.5492" lon="2.9398">
        <ele>40.5</ele>
        <time>2021-08-31T04:08:49.440Z</time>
      </trkpt>
      <trkpt lat="42.54926" lon="2.93995">
        <ele>40.2</ele>
        <time>2021-08-31T04:08:50.877Z</time>
      </trkpt>
      <trkpt lat="42.5494" lon="2.94034">
        <ele>39.9</ele>
        <time>2021-08-31T04:08:55.236Z</time>
      </trkpt>
      <trkpt lat="42.54951" lon="2.94063">
        <ele>39.7</ele>
        <time>2021-08-31T04:08:58.561Z</time>
      </trkpt>
      <trkpt lat="42.54963" lon="2.94096">
        <ele>39.8</ele>
        <time>2021-08-31T04:09:03.122Z</time>
      </trkpt>
      <trkpt lat="42.54978" lon="2.94136">
        <ele>40.5</ele>
        <time>2021-08-31T04:09:09.789Z</time>
      </trkpt>
      <trkpt lat="42.5498" lon="2.94142">
        <ele>40.6</ele>
        <time>2021-08-31T04:09:10.761Z</time>
      </trkpt>
      <trkpt lat="42.54995" lon="2.94184">
        <ele>41.2</ele>
        <time>2021-08-31T04:09:17.413Z</time>
      </trkpt>
      <trkpt lat="42.55012" lon="2.9423">
        <ele>41.3</ele>
        <time>2021-08-31T04:09:23.728Z</time>
      </trkpt>
      <trkpt lat="42.55024" lon="2.94262">
        <ele>41.1</ele>
        <time>2021-08-31T04:09:27.426Z</time>
      </trkpt>
      <trkpt lat="42.55027" lon="2.94267">
        <ele>41</ele>
        <time>2021-08-31T04:09:27.987Z</time>
      </trkpt>
      <trkpt lat="42.5503" lon="2.94272">
        <ele>40.9</ele>
        <time>2021-08-31T04:09:28.547Z</time>
      </trkpt>
      <trkpt lat="42.55034" lon="2.94276">
        <ele>40.8</ele>
        <time>2021-08-31T04:09:29.140Z</time>
      </trkpt>
      <trkpt lat="42.55036" lon="2.9428">
        <ele>40.7</ele>
        <time>2021-08-31T04:09:29.528Z</time>
      </trkpt>
      <trkpt lat="42.55041" lon="2.94285">
        <ele>40.5</ele>
        <time>2021-08-31T04:09:30.177Z</time>
      </trkpt>
      <trkpt lat="42.55046" lon="2.94291">
        <ele>40.3</ele>
        <time>2021-08-31T04:09:30.890Z</time>
      </trkpt>
      <trkpt lat="42.55049" lon="2.94294">
        <ele>40.2</ele>
        <time>2021-08-31T04:09:31.302Z</time>
      </trkpt>
      <trkpt lat="42.55051" lon="2.94298">
        <ele>40.2</ele>
        <time>2021-08-31T04:09:31.881Z</time>
      </trkpt>
      <trkpt lat="42.55051" lon="2.94302">
        <ele>40.2</ele>
        <time>2021-08-31T04:09:32.360Z</time>
      </trkpt>
      <trkpt lat="42.55051" lon="2.94305">
        <ele>40.2</ele>
        <time>2021-08-31T04:09:32.719Z</time>
      </trkpt>
      <trkpt lat="42.55055" lon="2.94308">
        <ele>40</ele>
        <time>2021-08-31T04:09:33.146Z</time>
      </trkpt>
      <trkpt lat="42.5506" lon="2.94312">
        <ele>39.8</ele>
        <time>2021-08-31T04:09:33.739Z</time>
      </trkpt>
      <trkpt lat="42.55065" lon="2.9432">
        <ele>39.6</ele>
        <time>2021-08-31T04:09:34.602Z</time>
      </trkpt>
      <trkpt lat="42.55072" lon="2.9433">
        <ele>39.4</ele>
        <time>2021-08-31T04:09:35.820Z</time>
      </trkpt>
      <trkpt lat="42.55084" lon="2.94352">
        <ele>38.8</ele>
        <time>2021-08-31T04:09:37.981Z</time>
      </trkpt>
      <trkpt lat="42.55096" lon="2.94372">
        <ele>38.5</ele>
        <time>2021-08-31T04:09:40.368Z</time>
      </trkpt>
      <trkpt lat="42.55104" lon="2.94383">
        <ele>38.4</ele>
        <time>2021-08-31T04:09:41.934Z</time>
      </trkpt>
      <trkpt lat="42.55112" lon="2.94392">
        <ele>38.3</ele>
        <time>2021-08-31T04:09:43.347Z</time>
      </trkpt>
      <trkpt lat="42.55118" lon="2.94397">
        <ele>38.2</ele>
        <time>2021-08-31T04:09:44.249Z</time>
      </trkpt>
      <trkpt lat="42.55126" lon="2.94401">
        <ele>38.2</ele>
        <time>2021-08-31T04:09:45.635Z</time>
      </trkpt>
      <trkpt lat="42.55135" lon="2.94404">
        <ele>38.1</ele>
        <time>2021-08-31T04:09:46.875Z</time>
      </trkpt>
      <trkpt lat="42.55139" lon="2.94408">
        <ele>38.1</ele>
        <time>2021-08-31T04:09:47.683Z</time>
      </trkpt>
      <trkpt lat="42.5514" lon="2.94411">
        <ele>38.1</ele>
        <time>2021-08-31T04:09:48.077Z</time>
      </trkpt>
      <trkpt lat="42.5514" lon="2.94414">
        <ele>38</ele>
        <time>2021-08-31T04:09:48.281Z</time>
      </trkpt>
      <trkpt lat="42.55139" lon="2.94417">
        <ele>38</ele>
        <time>2021-08-31T04:09:48.675Z</time>
      </trkpt>
      <trkpt lat="42.55136" lon="2.9442">
        <ele>38.1</ele>
        <time>2021-08-31T04:09:49.478Z</time>
      </trkpt>
      <trkpt lat="42.55121" lon="2.94432">
        <ele>38.3</ele>
        <time>2021-08-31T04:09:52.641Z</time>
      </trkpt>
      <trkpt lat="42.55118" lon="2.94435">
        <ele>38.4</ele>
        <time>2021-08-31T04:09:53.444Z</time>
      </trkpt>
      <trkpt lat="42.55099" lon="2.94452">
        <ele>38.6</ele>
        <time>2021-08-31T04:09:57.466Z</time>
      </trkpt>
      <trkpt lat="42.55088" lon="2.94463">
        <ele>38.6</ele>
        <time>2021-08-31T04:09:59.687Z</time>
      </trkpt>
      <trkpt lat="42.55085" lon="2.94468">
        <ele>38.6</ele>
        <time>2021-08-31T04:10:00.459Z</time>
      </trkpt>
      <trkpt lat="42.55083" lon="2.94473">
        <ele>38.7</ele>
        <time>2021-08-31T04:10:01.331Z</time>
      </trkpt>
      <trkpt lat="42.55082" lon="2.9448">
        <ele>38.8</ele>
        <time>2021-08-31T04:10:02.365Z</time>
      </trkpt>
      <trkpt lat="42.55083" lon="2.94487">
        <ele>38.9</ele>
        <time>2021-08-31T04:10:03.399Z</time>
      </trkpt>
      <trkpt lat="42.55084" lon="2.94497">
        <ele>39</ele>
        <time>2021-08-31T04:10:04.777Z</time>
      </trkpt>
      <trkpt lat="42.55089" lon="2.94521">
        <ele>39.1</ele>
        <time>2021-08-31T04:10:07.921Z</time>
      </trkpt>
      <trkpt lat="42.55102" lon="2.94581">
        <ele>39</ele>
        <time>2021-08-31T04:10:15.168Z</time>
      </trkpt>
      <trkpt lat="42.55111" lon="2.94624">
        <ele>38.7</ele>
        <time>2021-08-31T04:10:19.676Z</time>
      </trkpt>
      <trkpt lat="42.55118" lon="2.9465">
        <ele>38.3</ele>
        <time>2021-08-31T04:10:22.123Z</time>
      </trkpt>
      <trkpt lat="42.55126" lon="2.9468">
        <ele>38.1</ele>
        <time>2021-08-31T04:10:25.367Z</time>
      </trkpt>
      <trkpt lat="42.55129" lon="2.94688">
        <ele>38.2</ele>
        <time>2021-08-31T04:10:26.614Z</time>
      </trkpt>
      <trkpt lat="42.55131" lon="2.94695">
        <ele>38.2</ele>
        <time>2021-08-31T04:10:27.513Z</time>
      </trkpt>
      <trkpt lat="42.55133" lon="2.94702">
        <ele>38.3</ele>
        <time>2021-08-31T04:10:28.591Z</time>
      </trkpt>
      <trkpt lat="42.55146" lon="2.94746">
        <ele>38.9</ele>
        <time>2021-08-31T04:10:35.327Z</time>
      </trkpt>
      <trkpt lat="42.55156" lon="2.94777">
        <ele>39</ele>
        <time>2021-08-31T04:10:39.534Z</time>
      </trkpt>
      <trkpt lat="42.55165" lon="2.948">
        <ele>39</ele>
        <time>2021-08-31T04:10:42.652Z</time>
      </trkpt>
      <trkpt lat="42.55173" lon="2.94823">
        <ele>38.9</ele>
        <time>2021-08-31T04:10:45.467Z</time>
      </trkpt>
      <trkpt lat="42.55186" lon="2.9485">
        <ele>38.8</ele>
        <time>2021-08-31T04:10:49.096Z</time>
      </trkpt>
      <trkpt lat="42.55191" lon="2.94862">
        <ele>38.7</ele>
        <time>2021-08-31T04:10:50.472Z</time>
      </trkpt>
      <trkpt lat="42.55194" lon="2.94872">
        <ele>38.7</ele>
        <time>2021-08-31T04:10:51.765Z</time>
      </trkpt>
      <trkpt lat="42.55202" lon="2.94894">
        <ele>38.6</ele>
        <time>2021-08-31T04:10:54.473Z</time>
      </trkpt>
      <trkpt lat="42.55211" lon="2.9492">
        <ele>38.5</ele>
        <time>2021-08-31T04:10:57.681Z</time>
      </trkpt>
      <trkpt lat="42.55225" lon="2.94951">
        <ele>38.1</ele>
        <time>2021-08-31T04:11:01.082Z</time>
      </trkpt>
      <trkpt lat="42.55247" lon="2.94995">
        <ele>37.2</ele>
        <time>2021-08-31T04:11:05.602Z</time>
      </trkpt>
      <trkpt lat="42.5527" lon="2.95038">
        <ele>37.4</ele>
        <time>2021-08-31T04:11:12.277Z</time>
      </trkpt>
      <trkpt lat="42.55288" lon="2.95066">
        <ele>37.4</ele>
        <time>2021-08-31T04:11:16.727Z</time>
      </trkpt>
      <trkpt lat="42.55305" lon="2.95093">
        <ele>37.1</ele>
        <time>2021-08-31T04:11:20.199Z</time>
      </trkpt>
      <trkpt lat="42.55322" lon="2.95117">
        <ele>36.8</ele>
        <time>2021-08-31T04:11:23.421Z</time>
      </trkpt>
      <trkpt lat="42.55362" lon="2.95164">
        <ele>36.6</ele>
        <time>2021-08-31T04:11:31.549Z</time>
      </trkpt>
      <trkpt lat="42.55386" lon="2.95197">
        <ele>36.1</ele>
        <time>2021-08-31T04:11:35.902Z</time>
      </trkpt>
      <trkpt lat="42.55396" lon="2.95211">
        <ele>35.8</ele>
        <time>2021-08-31T04:11:37.600Z</time>
      </trkpt>
      <trkpt lat="42.55428" lon="2.95251">
        <ele>34.8</ele>
        <time>2021-08-31T04:11:42.619Z</time>
      </trkpt>
      <trkpt lat="42.55459" lon="2.95286">
        <ele>34.4</ele>
        <time>2021-08-31T04:11:48.079Z</time>
      </trkpt>
      <trkpt lat="42.55496" lon="2.9533">
        <ele>34</ele>
        <time>2021-08-31T04:11:54.903Z</time>
      </trkpt>
      <trkpt lat="42.55522" lon="2.95359">
        <ele>34</ele>
        <time>2021-08-31T04:12:00.373Z</time>
      </trkpt>
      <trkpt lat="42.55547" lon="2.95385">
        <ele>34.1</ele>
        <time>2021-08-31T04:12:05.645Z</time>
      </trkpt>
      <trkpt lat="42.55581" lon="2.95425">
        <ele>33.9</ele>
        <time>2021-08-31T04:12:12.491Z</time>
      </trkpt>
      <trkpt lat="42.5561" lon="2.9546">
        <ele>33.5</ele>
        <time>2021-08-31T04:12:17.719Z</time>
      </trkpt>
      <trkpt lat="42.55611" lon="2.95461">
        <ele>33.5</ele>
        <time>2021-08-31T04:12:17.921Z</time>
      </trkpt>
      <trkpt lat="42.55635" lon="2.95496">
        <ele>33.6</ele>
        <time>2021-08-31T04:12:23.799Z</time>
      </trkpt>
      <trkpt lat="42.55651" lon="2.9552">
        <ele>33.8</ele>
        <time>2021-08-31T04:12:27.997Z</time>
      </trkpt>
      <trkpt lat="42.55664" lon="2.95539">
        <ele>34</ele>
        <time>2021-08-31T04:12:31.431Z</time>
      </trkpt>
      <trkpt lat="42.55679" lon="2.95563">
        <ele>33.8</ele>
        <time>2021-08-31T04:12:34.626Z</time>
      </trkpt>
      <trkpt lat="42.55686" lon="2.95581">
        <ele>33.8</ele>
        <time>2021-08-31T04:12:37.063Z</time>
      </trkpt>
      <trkpt lat="42.55694" lon="2.956">
        <ele>33.5</ele>
        <time>2021-08-31T04:12:39.020Z</time>
      </trkpt>
      <trkpt lat="42.55723" lon="2.95665">
        <ele>32.3</ele>
        <time>2021-08-31T04:12:45.594Z</time>
      </trkpt>
      <trkpt lat="42.55745" lon="2.95719">
        <ele>32</ele>
        <time>2021-08-31T04:12:52.304Z</time>
      </trkpt>
      <trkpt lat="42.55745" lon="2.95721">
        <ele>32</ele>
        <time>2021-08-31T04:12:52.543Z</time>
      </trkpt>
      <trkpt lat="42.55759" lon="2.95764">
        <ele>31.7</ele>
        <time>2021-08-31T04:12:57.313Z</time>
      </trkpt>
      <trkpt lat="42.55774" lon="2.95817">
        <ele>31.6</ele>
        <time>2021-08-31T04:13:03.870Z</time>
      </trkpt>
      <trkpt lat="42.55789" lon="2.95873">
        <ele>32</ele>
        <time>2021-08-31T04:13:11.654Z</time>
      </trkpt>
      <trkpt lat="42.55804" lon="2.95945">
        <ele>32.4</ele>
        <time>2021-08-31T04:13:21.250Z</time>
      </trkpt>
      <trkpt lat="42.55813" lon="2.95997">
        <ele>32</ele>
        <time>2021-08-31T04:13:26.561Z</time>
      </trkpt>
      <trkpt lat="42.55818" lon="2.96056">
        <ele>31.6</ele>
        <time>2021-08-31T04:13:32.548Z</time>
      </trkpt>
      <trkpt lat="42.55821" lon="2.96084">
        <ele>31.3</ele>
        <time>2021-08-31T04:13:35.212Z</time>
      </trkpt>
      <trkpt lat="42.55823" lon="2.96119">
        <ele>30.8</ele>
        <time>2021-08-31T04:13:38.324Z</time>
      </trkpt>
      <trkpt lat="42.55825" lon="2.96154">
        <ele>30.4</ele>
        <time>2021-08-31T04:13:41.585Z</time>
      </trkpt>
      <trkpt lat="42.55826" lon="2.96206">
        <ele>29.7</ele>
        <time>2021-08-31T04:13:46.255Z</time>
      </trkpt>
      <trkpt lat="42.55828" lon="2.96261">
        <ele>29.1</ele>
        <time>2021-08-31T04:13:51.414Z</time>
      </trkpt>
      <trkpt lat="42.55829" lon="2.96323">
        <ele>29.1</ele>
        <time>2021-08-31T04:13:58.839Z</time>
      </trkpt>
      <trkpt lat="42.55832" lon="2.9639">
        <ele>28.3</ele>
        <time>2021-08-31T04:14:05.020Z</time>
      </trkpt>
      <trkpt lat="42.55834" lon="2.96404">
        <ele>28.2</ele>
        <time>2021-08-31T04:14:06.450Z</time>
      </trkpt>
      <trkpt lat="42.55838" lon="2.96426">
        <ele>28.3</ele>
        <time>2021-08-31T04:14:09.321Z</time>
      </trkpt>
      <trkpt lat="42.55845" lon="2.96447">
        <ele>29</ele>
        <time>2021-08-31T04:14:13.755Z</time>
      </trkpt>
      <trkpt lat="42.55848" lon="2.96464">
        <ele>29.6</ele>
        <time>2021-08-31T04:14:17.335Z</time>
      </trkpt>
      <trkpt lat="42.55849" lon="2.96479">
        <ele>30.1</ele>
        <time>2021-08-31T04:14:20.389Z</time>
      </trkpt>
      <trkpt lat="42.55847" lon="2.9649">
        <ele>30.5</ele>
        <time>2021-08-31T04:14:22.729Z</time>
      </trkpt>
      <trkpt lat="42.55845" lon="2.96494">
        <ele>30.6</ele>
        <time>2021-08-31T04:14:23.508Z</time>
      </trkpt>
      <trkpt lat="42.55844" lon="2.96504">
        <ele>30.9</ele>
        <time>2021-08-31T04:14:25.425Z</time>
      </trkpt>
      <trkpt lat="42.55843" lon="2.96511">
        <ele>30.9</ele>
        <time>2021-08-31T04:14:26.279Z</time>
      </trkpt>
      <trkpt lat="42.55843" lon="2.96515">
        <ele>30.9</ele>
        <time>2021-08-31T04:14:26.758Z</time>
      </trkpt>
      <trkpt lat="42.55842" lon="2.9652">
        <ele>30.9</ele>
        <time>2021-08-31T04:14:27.378Z</time>
      </trkpt>
      <trkpt lat="42.55841" lon="2.96524">
        <ele>30.9</ele>
        <time>2021-08-31T04:14:27.884Z</time>
      </trkpt>
      <trkpt lat="42.55841" lon="2.96528">
        <ele>30.9</ele>
        <time>2021-08-31T04:14:28.363Z</time>
      </trkpt>
      <trkpt lat="42.55841" lon="2.96529">
        <ele>30.9</ele>
        <time>2021-08-31T04:14:28.482Z</time>
      </trkpt>
      <trkpt lat="42.55843" lon="2.96529">
        <ele>30.8</ele>
        <time>2021-08-31T04:14:28.659Z</time>
      </trkpt>
      <trkpt lat="42.55857" lon="2.96529">
        <ele>30.6</ele>
        <time>2021-08-31T04:14:30.451Z</time>
      </trkpt>
      <trkpt lat="42.55864" lon="2.96528">
        <ele>30.5</ele>
        <time>2021-08-31T04:14:31.353Z</time>
      </trkpt>
      <trkpt lat="42.55866" lon="2.96528">
        <ele>30.5</ele>
        <time>2021-08-31T04:14:31.678Z</time>
      </trkpt>
      <trkpt lat="42.55867" lon="2.96529">
        <ele>30.5</ele>
        <time>2021-08-31T04:14:31.880Z</time>
      </trkpt>
      <trkpt lat="42.55868" lon="2.96531">
        <ele>30.4</ele>
        <time>2021-08-31T04:14:32.029Z</time>
      </trkpt>
      <trkpt lat="42.55868" lon="2.96536">
        <ele>30.4</ele>
        <time>2021-08-31T04:14:32.628Z</time>
      </trkpt>
      <trkpt lat="42.55867" lon="2.96544">
        <ele>30.4</ele>
        <time>2021-08-31T04:14:33.599Z</time>
      </trkpt>
      <trkpt lat="42.55866" lon="2.96545">
        <ele>30.4</ele>
        <time>2021-08-31T04:14:33.801Z</time>
      </trkpt>
      <trkpt lat="42.5586" lon="2.96549">
        <ele>30.5</ele>
        <time>2021-08-31T04:14:35.060Z</time>
      </trkpt>
      <trkpt lat="42.55856" lon="2.96554">
        <ele>30.6</ele>
        <time>2021-08-31T04:14:36.123Z</time>
      </trkpt>
      <trkpt lat="42.5585" lon="2.96565">
        <ele>30.7</ele>
        <time>2021-08-31T04:14:37.925Z</time>
      </trkpt>
      <trkpt lat="42.55843" lon="2.9658">
        <ele>30.8</ele>
        <time>2021-08-31T04:14:40.211Z</time>
      </trkpt>
      <trkpt lat="42.55839" lon="2.96591">
        <ele>30.7</ele>
        <time>2021-08-31T04:14:41.417Z</time>
      </trkpt>
      <trkpt lat="42.55835" lon="2.96605">
        <ele>30.4</ele>
        <time>2021-08-31T04:14:42.636Z</time>
      </trkpt>
      <trkpt lat="42.55831" lon="2.96623">
        <ele>30</ele>
        <time>2021-08-31T04:14:44.133Z</time>
      </trkpt>
      <trkpt lat="42.55823" lon="2.96672">
        <ele>29</ele>
        <time>2021-08-31T04:14:48.211Z</time>
      </trkpt>
      <trkpt lat="42.55819" lon="2.967">
        <ele>28.7</ele>
        <time>2021-08-31T04:14:50.900Z</time>
      </trkpt>
      <trkpt lat="42.55813" lon="2.96736">
        <ele>28.2</ele>
        <time>2021-08-31T04:14:54.209Z</time>
      </trkpt>
      <trkpt lat="42.55808" lon="2.96768">
        <ele>27.9</ele>
        <time>2021-08-31T04:14:57.366Z</time>
      </trkpt>
      <trkpt lat="42.55807" lon="2.96782">
        <ele>27.7</ele>
        <time>2021-08-31T04:14:58.614Z</time>
      </trkpt>
      <trkpt lat="42.55806" lon="2.96792">
        <ele>27.7</ele>
        <time>2021-08-31T04:14:59.822Z</time>
      </trkpt>
      <trkpt lat="42.55804" lon="2.96813">
        <ele>27.5</ele>
        <time>2021-08-31T04:15:01.856Z</time>
      </trkpt>
      <trkpt lat="42.55804" lon="2.96819">
        <ele>27.5</ele>
        <time>2021-08-31T04:15:02.574Z</time>
      </trkpt>
      <trkpt lat="42.55804" lon="2.96819">
        <ele>27.5</ele>
        <time>2021-08-31T04:15:02.574Z</time>
      </trkpt>
      <trkpt lat="42.55802" lon="2.96841">
        <ele>27.4</ele>
        <time>2021-08-31T04:15:05.000Z</time>
      </trkpt>
      <trkpt lat="42.55802" lon="2.96853">
        <ele>27.4</ele>
        <time>2021-08-31T04:15:06.437Z</time>
      </trkpt>
      <trkpt lat="42.55802" lon="2.96865">
        <ele>27.4</ele>
        <time>2021-08-31T04:15:07.874Z</time>
      </trkpt>
      <trkpt lat="42.55803" lon="2.96874">
        <ele>27.4</ele>
        <time>2021-08-31T04:15:08.963Z</time>
      </trkpt>
      <trkpt lat="42.55801" lon="2.96893">
        <ele>27.4</ele>
        <time>2021-08-31T04:15:11.261Z</time>
      </trkpt>
      <trkpt lat="42.55798" lon="2.96935">
        <ele>27</ele>
        <time>2021-08-31T04:15:15.312Z</time>
      </trkpt>
      <trkpt lat="42.55795" lon="2.96995">
        <ele>25.6</ele>
        <time>2021-08-31T04:15:19.968Z</time>
      </trkpt>
      <trkpt lat="42.55795" lon="2.97003">
        <ele>25.4</ele>
        <time>2021-08-31T04:15:20.573Z</time>
      </trkpt>
      <trkpt lat="42.55796" lon="2.97007">
        <ele>25.4</ele>
        <time>2021-08-31T04:15:21.078Z</time>
      </trkpt>
      <trkpt lat="42.55798" lon="2.9701">
        <ele>25.4</ele>
        <time>2021-08-31T04:15:21.563Z</time>
      </trkpt>
      <trkpt lat="42.55804" lon="2.97016">
        <ele>25.3</ele>
        <time>2021-08-31T04:15:22.527Z</time>
      </trkpt>
      <trkpt lat="42.55813" lon="2.9702">
        <ele>25.2</ele>
        <time>2021-08-31T04:15:23.799Z</time>
      </trkpt>
      <trkpt lat="42.55823" lon="2.97021">
        <ele>25.1</ele>
        <time>2021-08-31T04:15:25.156Z</time>
      </trkpt>
      <trkpt lat="42.55835" lon="2.97021">
        <ele>25</ele>
        <time>2021-08-31T04:15:26.816Z</time>
      </trkpt>
      <trkpt lat="42.55846" lon="2.97019">
        <ele>24.9</ele>
        <time>2021-08-31T04:15:28.337Z</time>
      </trkpt>
      <trkpt lat="42.55854" lon="2.97017">
        <ele>24.8</ele>
        <time>2021-08-31T04:15:29.405Z</time>
      </trkpt>
      <trkpt lat="42.55857" lon="2.97018">
        <ele>24.7</ele>
        <time>2021-08-31T04:15:29.727Z</time>
      </trkpt>
      <trkpt lat="42.55871" lon="2.97024">
        <ele>24.5</ele>
        <time>2021-08-31T04:15:31.622Z</time>
      </trkpt>
      <trkpt lat="42.55873" lon="2.9703">
        <ele>24.5</ele>
        <time>2021-08-31T04:15:32.411Z</time>
      </trkpt>
      <trkpt lat="42.55874" lon="2.97035">
        <ele>24.5</ele>
        <time>2021-08-31T04:15:33.031Z</time>
      </trkpt>
      <trkpt lat="42.55874" lon="2.97039">
        <ele>24.5</ele>
        <time>2021-08-31T04:15:33.510Z</time>
      </trkpt>
      <trkpt lat="42.55873" lon="2.97043">
        <ele>24.5</ele>
        <time>2021-08-31T04:15:34.016Z</time>
      </trkpt>
      <trkpt lat="42.55872" lon="2.97046">
        <ele>24.5</ele>
        <time>2021-08-31T04:15:34.410Z</time>
      </trkpt>
      <trkpt lat="42.5587" lon="2.9705">
        <ele>24.6</ele>
        <time>2021-08-31T04:15:35.189Z</time>
      </trkpt>
      <trkpt lat="42.55868" lon="2.97052">
        <ele>24.6</ele>
        <time>2021-08-31T04:15:35.593Z</time>
      </trkpt>
      <trkpt lat="42.55865" lon="2.97054">
        <ele>24.6</ele>
        <time>2021-08-31T04:15:36.136Z</time>
      </trkpt>
      <trkpt lat="42.5586" lon="2.97058">
        <ele>24.7</ele>
        <time>2021-08-31T04:15:37.256Z</time>
      </trkpt>
      <trkpt lat="42.55855" lon="2.9706">
        <ele>24.7</ele>
        <time>2021-08-31T04:15:38.104Z</time>
      </trkpt>
      <trkpt lat="42.55839" lon="2.97065">
        <ele>24.9</ele>
        <time>2021-08-31T04:15:41.107Z</time>
      </trkpt>
      <trkpt lat="42.55825" lon="2.97069">
        <ele>25</ele>
        <time>2021-08-31T04:15:43.592Z</time>
      </trkpt>
      <trkpt lat="42.55818" lon="2.97072">
        <ele>25</ele>
        <time>2021-08-31T04:15:44.785Z</time>
      </trkpt>
      <trkpt lat="42.55812" lon="2.97076">
        <ele>25</ele>
        <time>2021-08-31T04:15:45.871Z</time>
      </trkpt>
      <trkpt lat="42.55809" lon="2.97078">
        <ele>25</ele>
        <time>2021-08-31T04:15:46.415Z</time>
      </trkpt>
      <trkpt lat="42.55804" lon="2.97083">
        <ele>25</ele>
        <time>2021-08-31T04:15:47.424Z</time>
      </trkpt>
      <trkpt lat="42.558" lon="2.97086">
        <ele>25</ele>
        <time>2021-08-31T04:15:48.167Z</time>
      </trkpt>
      <trkpt lat="42.55797" lon="2.97089">
        <ele>25</ele>
        <time>2021-08-31T04:15:48.772Z</time>
      </trkpt>
      <trkpt lat="42.55796" lon="2.97091">
        <ele>25</ele>
        <time>2021-08-31T04:15:49.062Z</time>
      </trkpt>
      <trkpt lat="42.55794" lon="2.97097">
        <ele>25</ele>
        <time>2021-08-31T04:15:49.850Z</time>
      </trkpt>
      <trkpt lat="42.55792" lon="2.97104">
        <ele>25</ele>
        <time>2021-08-31T04:15:50.749Z</time>
      </trkpt>
      <trkpt lat="42.55791" lon="2.9711">
        <ele>25</ele>
        <time>2021-08-31T04:15:51.486Z</time>
      </trkpt>
      <trkpt lat="42.5579" lon="2.97121">
        <ele>25</ele>
        <time>2021-08-31T04:15:52.813Z</time>
      </trkpt>
      <trkpt lat="42.5579" lon="2.9713">
        <ele>25</ele>
        <time>2021-08-31T04:15:53.890Z</time>
      </trkpt>
      <trkpt lat="42.55789" lon="2.9716">
        <ele>25</ele>
        <time>2021-08-31T04:15:57.486Z</time>
      </trkpt>
      <trkpt lat="42.55788" lon="2.97198">
        <ele>24.6</ele>
        <time>2021-08-31T04:16:01.071Z</time>
      </trkpt>
      <trkpt lat="42.55787" lon="2.97224">
        <ele>24.3</ele>
        <time>2021-08-31T04:16:03.484Z</time>
      </trkpt>
      <trkpt lat="42.55787" lon="2.97247">
        <ele>24</ele>
        <time>2021-08-31T04:16:05.563Z</time>
      </trkpt>
      <trkpt lat="42.55786" lon="2.97271">
        <ele>23.7</ele>
        <time>2021-08-31T04:16:07.756Z</time>
      </trkpt>
      <trkpt lat="42.55785" lon="2.97297">
        <ele>23.4</ele>
        <time>2021-08-31T04:16:10.170Z</time>
      </trkpt>
      <trkpt lat="42.55785" lon="2.9732">
        <ele>23.2</ele>
        <time>2021-08-31T04:16:12.408Z</time>
      </trkpt>
      <trkpt lat="42.55786" lon="2.97325">
        <ele>23.1</ele>
        <time>2021-08-31T04:16:12.833Z</time>
      </trkpt>
      <trkpt lat="42.55787" lon="2.97332">
        <ele>23</ele>
        <time>2021-08-31T04:16:13.467Z</time>
      </trkpt>
      <trkpt lat="42.55791" lon="2.97344">
        <ele>22.9</ele>
        <time>2021-08-31T04:16:14.774Z</time>
      </trkpt>
      <trkpt lat="42.55796" lon="2.97357">
        <ele>22.9</ele>
        <time>2021-08-31T04:16:16.530Z</time>
      </trkpt>
      <trkpt lat="42.55796" lon="2.97359">
        <ele>22.9</ele>
        <time>2021-08-31T04:16:16.770Z</time>
      </trkpt>
      <trkpt lat="42.55793" lon="2.97365">
        <ele>22.8</ele>
        <time>2021-08-31T04:16:17.417Z</time>
      </trkpt>
      <trkpt lat="42.5579" lon="2.9737">
        <ele>22.8</ele>
        <time>2021-08-31T04:16:18.189Z</time>
      </trkpt>
      <trkpt lat="42.55787" lon="2.97373">
        <ele>22.7</ele>
        <time>2021-08-31T04:16:18.601Z</time>
      </trkpt>
      <trkpt lat="42.55782" lon="2.97375">
        <ele>22.7</ele>
        <time>2021-08-31T04:16:19.448Z</time>
      </trkpt>
      <trkpt lat="42.55779" lon="2.97379">
        <ele>22.6</ele>
        <time>2021-08-31T04:16:19.929Z</time>
      </trkpt>
      <trkpt lat="42.55776" lon="2.97383">
        <ele>22.6</ele>
        <time>2021-08-31T04:16:20.613Z</time>
      </trkpt>
      <trkpt lat="42.55773" lon="2.97397">
        <ele>22.5</ele>
        <time>2021-08-31T04:16:22.079Z</time>
      </trkpt>
      <trkpt lat="42.55772" lon="2.974">
        <ele>22.4</ele>
        <time>2021-08-31T04:16:22.311Z</time>
      </trkpt>
      <trkpt lat="42.55772" lon="2.97405">
        <ele>22.4</ele>
        <time>2021-08-31T04:16:22.910Z</time>
      </trkpt>
      <trkpt lat="42.55772" lon="2.97411">
        <ele>22.3</ele>
        <time>2021-08-31T04:16:23.422Z</time>
      </trkpt>
      <trkpt lat="42.55772" lon="2.97413">
        <ele>22.3</ele>
        <time>2021-08-31T04:16:23.661Z</time>
      </trkpt>
      <trkpt lat="42.55774" lon="2.97418">
        <ele>22.3</ele>
        <time>2021-08-31T04:16:24.342Z</time>
      </trkpt>
      <trkpt lat="42.55779" lon="2.97426">
        <ele>22.3</ele>
        <time>2021-08-31T04:16:25.598Z</time>
      </trkpt>
      <trkpt lat="42.55781" lon="2.9743">
        <ele>22.4</ele>
        <time>2021-08-31T04:16:26.378Z</time>
      </trkpt>
      <trkpt lat="42.5578" lon="2.97459">
        <ele>22.4</ele>
        <time>2021-08-31T04:16:29.853Z</time>
      </trkpt>
      <trkpt lat="42.55779" lon="2.97472">
        <ele>22.4</ele>
        <time>2021-08-31T04:16:31.418Z</time>
      </trkpt>
      <trkpt lat="42.55779" lon="2.97494">
        <ele>22.4</ele>
        <time>2021-08-31T04:16:34.052Z</time>
      </trkpt>
      <trkpt lat="42.55779" lon="2.97499">
        <ele>22.4</ele>
        <time>2021-08-31T04:16:34.651Z</time>
      </trkpt>
      <trkpt lat="42.55781" lon="2.97519">
        <ele>22.6</ele>
        <time>2021-08-31T04:16:37.407Z</time>
      </trkpt>
      <trkpt lat="42.55781" lon="2.97542">
        <ele>22.9</ele>
        <time>2021-08-31T04:16:40.694Z</time>
      </trkpt>
      <trkpt lat="42.55781" lon="2.97571">
        <ele>23.2</ele>
        <time>2021-08-31T04:16:44.678Z</time>
      </trkpt>
      <trkpt lat="42.5578" lon="2.97613">
        <ele>24.3</ele>
        <time>2021-08-31T04:16:52.138Z</time>
      </trkpt>
      <trkpt lat="42.5578" lon="2.97631">
        <ele>24.9</ele>
        <time>2021-08-31T04:16:55.792Z</time>
      </trkpt>
      <trkpt lat="42.55778" lon="2.97642">
        <ele>25.2</ele>
        <time>2021-08-31T04:16:57.815Z</time>
      </trkpt>
      <trkpt lat="42.55778" lon="2.97644">
        <ele>25.3</ele>
        <time>2021-08-31T04:16:58.289Z</time>
      </trkpt>
      <trkpt lat="42.55776" lon="2.97655">
        <ele>25.6</ele>
        <time>2021-08-31T04:17:00.311Z</time>
      </trkpt>
      <trkpt lat="42.55767" lon="2.97663">
        <ele>25.9</ele>
        <time>2021-08-31T04:17:02.660Z</time>
      </trkpt>
      <trkpt lat="42.55763" lon="2.97665">
        <ele>25.9</ele>
        <time>2021-08-31T04:17:03.352Z</time>
      </trkpt>
      <trkpt lat="42.55767" lon="2.97669">
        <ele>26</ele>
        <time>2021-08-31T04:17:04.343Z</time>
      </trkpt>
      <trkpt lat="42.55771" lon="2.97674">
        <ele>25.9</ele>
        <time>2021-08-31T04:17:05.004Z</time>
      </trkpt>
      <trkpt lat="42.55776" lon="2.97681">
        <ele>25.9</ele>
        <time>2021-08-31T04:17:06.172Z</time>
      </trkpt>
      <trkpt lat="42.55779" lon="2.97689">
        <ele>25.8</ele>
        <time>2021-08-31T04:17:07.009Z</time>
      </trkpt>
      <trkpt lat="42.55781" lon="2.97696">
        <ele>25.8</ele>
        <time>2021-08-31T04:17:07.908Z</time>
      </trkpt>
      <trkpt lat="42.55781" lon="2.977">
        <ele>25.7</ele>
        <time>2021-08-31T04:17:08.211Z</time>
      </trkpt>
      <trkpt lat="42.55781" lon="2.97703">
        <ele>25.7</ele>
        <time>2021-08-31T04:17:08.570Z</time>
      </trkpt>
      <trkpt lat="42.55779" lon="2.97716">
        <ele>25.6</ele>
        <time>2021-08-31T04:17:09.889Z</time>
      </trkpt>
      <trkpt lat="42.55773" lon="2.9774">
        <ele>25.4</ele>
        <time>2021-08-31T04:17:12.391Z</time>
      </trkpt>
      <trkpt lat="42.55763" lon="2.97771">
        <ele>25.4</ele>
        <time>2021-08-31T04:17:16.443Z</time>
      </trkpt>
      <trkpt lat="42.5575" lon="2.97809">
        <ele>25.7</ele>
        <time>2021-08-31T04:17:21.950Z</time>
      </trkpt>
      <trkpt lat="42.55742" lon="2.97843">
        <ele>26.3</ele>
        <time>2021-08-31T04:17:27.352Z</time>
      </trkpt>
      <trkpt lat="42.55739" lon="2.97867">
        <ele>26.9</ele>
        <time>2021-08-31T04:17:31.555Z</time>
      </trkpt>
      <trkpt lat="42.55739" lon="2.97886">
        <ele>27.3</ele>
        <time>2021-08-31T04:17:34.636Z</time>
      </trkpt>
      <trkpt lat="42.55742" lon="2.97902">
        <ele>27.7</ele>
        <time>2021-08-31T04:17:37.465Z</time>
      </trkpt>
      <trkpt lat="42.55746" lon="2.97915">
        <ele>28</ele>
        <time>2021-08-31T04:17:39.760Z</time>
      </trkpt>
      <trkpt lat="42.55746" lon="2.97916">
        <ele>28</ele>
        <time>2021-08-31T04:17:39.879Z</time>
      </trkpt>
      <trkpt lat="42.55749" lon="2.97923">
        <ele>27.9</ele>
        <time>2021-08-31T04:17:40.620Z</time>
      </trkpt>
      <trkpt lat="42.5574" lon="2.97934">
        <ele>27.6</ele>
        <time>2021-08-31T04:17:41.989Z</time>
      </trkpt>
      <trkpt lat="42.5573" lon="2.97948">
        <ele>27.4</ele>
        <time>2021-08-31T04:17:43.836Z</time>
      </trkpt>
      <trkpt lat="42.55705" lon="2.97982">
        <ele>27.3</ele>
        <time>2021-08-31T04:17:49.349Z</time>
      </trkpt>
      <trkpt lat="42.55702" lon="2.97986">
        <ele>27.3</ele>
        <time>2021-08-31T04:17:50.033Z</time>
      </trkpt>
      <trkpt lat="42.557" lon="2.97992">
        <ele>27.3</ele>
        <time>2021-08-31T04:17:50.821Z</time>
      </trkpt>
      <trkpt lat="42.55695" lon="2.98015">
        <ele>27.2</ele>
        <time>2021-08-31T04:17:53.463Z</time>
      </trkpt>
      <trkpt lat="42.55681" lon="2.98063">
        <ele>27</ele>
        <time>2021-08-31T04:17:59.183Z</time>
      </trkpt>
      <trkpt lat="42.55667" lon="2.98116">
        <ele>27</ele>
        <time>2021-08-31T04:18:05.925Z</time>
      </trkpt>
      <trkpt lat="42.55654" lon="2.98159">
        <ele>27.6</ele>
        <time>2021-08-31T04:18:12.554Z</time>
      </trkpt>
      <trkpt lat="42.55653" lon="2.98163">
        <ele>27.6</ele>
        <time>2021-08-31T04:18:13.059Z</time>
      </trkpt>
      <trkpt lat="42.55652" lon="2.98166">
        <ele>27.7</ele>
        <time>2021-08-31T04:18:13.693Z</time>
      </trkpt>
      <trkpt lat="42.55649" lon="2.98178">
        <ele>27.8</ele>
        <time>2021-08-31T04:18:15.375Z</time>
      </trkpt>
      <trkpt lat="42.55639" lon="2.98211">
        <ele>28.3</ele>
        <time>2021-08-31T04:18:20.549Z</time>
      </trkpt>
      <trkpt lat="42.55625" lon="2.98265">
        <ele>28.9</ele>
        <time>2021-08-31T04:18:28.430Z</time>
      </trkpt>
      <trkpt lat="42.55604" lon="2.98336">
        <ele>29.3</ele>
        <time>2021-08-31T04:18:38.228Z</time>
      </trkpt>
      <trkpt lat="42.55588" lon="2.98392">
        <ele>29.9</ele>
        <time>2021-08-31T04:18:46.439Z</time>
      </trkpt>
      <trkpt lat="42.55586" lon="2.98397">
        <ele>29.9</ele>
        <time>2021-08-31T04:18:47.120Z</time>
      </trkpt>
      <trkpt lat="42.55585" lon="2.984">
        <ele>30</ele>
        <time>2021-08-31T04:18:47.754Z</time>
      </trkpt>
      <trkpt lat="42.5557" lon="2.98457">
        <ele>29.6</ele>
        <time>2021-08-31T04:18:53.869Z</time>
      </trkpt>
      <trkpt lat="42.55561" lon="2.98486">
        <ele>29.4</ele>
        <time>2021-08-31T04:18:57.063Z</time>
      </trkpt>
      <trkpt lat="42.5556" lon="2.98489">
        <ele>29.4</ele>
        <time>2021-08-31T04:18:57.458Z</time>
      </trkpt>
      <trkpt lat="42.55558" lon="2.98493">
        <ele>29.4</ele>
        <time>2021-08-31T04:18:58.036Z</time>
      </trkpt>
      <trkpt lat="42.55546" lon="2.98535">
        <ele>28.8</ele>
        <time>2021-08-31T04:19:02.090Z</time>
      </trkpt>
      <trkpt lat="42.55536" lon="2.98571">
        <ele>28.3</ele>
        <time>2021-08-31T04:19:05.571Z</time>
      </trkpt>
      <trkpt lat="42.55527" lon="2.986">
        <ele>28.2</ele>
        <time>2021-08-31T04:19:09.105Z</time>
      </trkpt>
      <trkpt lat="42.55515" lon="2.98645">
        <ele>28</ele>
        <time>2021-08-31T04:19:14.377Z</time>
      </trkpt>
      <trkpt lat="42.55506" lon="2.98682">
        <ele>27.6</ele>
        <time>2021-08-31T04:19:18.067Z</time>
      </trkpt>
      <trkpt lat="42.55505" lon="2.98685">
        <ele>27.5</ele>
        <time>2021-08-31T04:19:18.299Z</time>
      </trkpt>
      <trkpt lat="42.55503" lon="2.98689">
        <ele>27.4</ele>
        <time>2021-08-31T04:19:18.687Z</time>
      </trkpt>
      <trkpt lat="42.55492" lon="2.9873">
        <ele>26.7</ele>
        <time>2021-08-31T04:19:22.447Z</time>
      </trkpt>
      <trkpt lat="42.55467" lon="2.98821">
        <ele>26.6</ele>
        <time>2021-08-31T04:19:33.832Z</time>
      </trkpt>
      <trkpt lat="42.55462" lon="2.98837">
        <ele>26.9</ele>
        <time>2021-08-31T04:19:36.482Z</time>
      </trkpt>
      <trkpt lat="42.55444" lon="2.989">
        <ele>27.7</ele>
        <time>2021-08-31T04:19:45.969Z</time>
      </trkpt>
      <trkpt lat="42.55426" lon="2.9896">
        <ele>27.4</ele>
        <time>2021-08-31T04:19:53.044Z</time>
      </trkpt>
      <trkpt lat="42.55402" lon="2.99045">
        <ele>27.4</ele>
        <time>2021-08-31T04:20:03.944Z</time>
      </trkpt>
      <trkpt lat="42.5539" lon="2.99084">
        <ele>27.6</ele>
        <time>2021-08-31T04:20:09.321Z</time>
      </trkpt>
      <trkpt lat="42.55377" lon="2.99135">
        <ele>28</ele>
        <time>2021-08-31T04:20:16.438Z</time>
      </trkpt>
      <trkpt lat="42.55361" lon="2.9919">
        <ele>28</ele>
        <time>2021-08-31T04:20:23.518Z</time>
      </trkpt>
      <trkpt lat="42.55337" lon="2.99274">
        <ele>27.3</ele>
        <time>2021-08-31T04:20:32.432Z</time>
      </trkpt>
      <trkpt lat="42.55329" lon="2.99302">
        <ele>27.7</ele>
        <time>2021-08-31T04:20:36.742Z</time>
      </trkpt>
      <trkpt lat="42.55324" lon="2.99317">
        <ele>27.8</ele>
        <time>2021-08-31T04:20:38.874Z</time>
      </trkpt>
      <trkpt lat="42.5531" lon="2.99371">
        <ele>28</ele>
        <time>2021-08-31T04:20:46.040Z</time>
      </trkpt>
      <trkpt lat="42.55296" lon="2.99424">
        <ele>27.9</ele>
        <time>2021-08-31T04:20:52.541Z</time>
      </trkpt>
      <trkpt lat="42.55277" lon="2.99481">
        <ele>26.7</ele>
        <time>2021-08-31T04:20:57.681Z</time>
      </trkpt>
      <trkpt lat="42.55265" lon="2.99509">
        <ele>26.4</ele>
        <time>2021-08-31T04:21:00.803Z</time>
      </trkpt>
      <trkpt lat="42.5526" lon="2.99524">
        <ele>26.7</ele>
        <time>2021-08-31T04:21:03.352Z</time>
      </trkpt>
      <trkpt lat="42.55245" lon="2.99562">
        <ele>27.5</ele>
        <time>2021-08-31T04:21:10.062Z</time>
      </trkpt>
      <trkpt lat="42.55244" lon="2.99566">
        <ele>27.6</ele>
        <time>2021-08-31T04:21:10.779Z</time>
      </trkpt>
      <trkpt lat="42.55231" lon="2.99592">
        <ele>28</ele>
        <time>2021-08-31T04:21:15.249Z</time>
      </trkpt>
      <trkpt lat="42.55217" lon="2.99623">
        <ele>28</ele>
        <time>2021-08-31T04:21:19.602Z</time>
      </trkpt>
      <trkpt lat="42.55184" lon="2.99688">
        <ele>27.9</ele>
        <time>2021-08-31T04:21:28.812Z</time>
      </trkpt>
      <trkpt lat="42.55167" lon="2.99726">
        <ele>28</ele>
        <time>2021-08-31T04:21:34.288Z</time>
      </trkpt>
      <trkpt lat="42.55163" lon="2.99745">
        <ele>28.1</ele>
        <time>2021-08-31T04:21:36.813Z</time>
      </trkpt>
      <trkpt lat="42.5516" lon="2.99762">
        <ele>27.9</ele>
        <time>2021-08-31T04:21:38.436Z</time>
      </trkpt>
      <trkpt lat="42.55157" lon="2.99772">
        <ele>27.8</ele>
        <time>2021-08-31T04:21:39.477Z</time>
      </trkpt>
      <trkpt lat="42.55153" lon="2.99785">
        <ele>27.6</ele>
        <time>2021-08-31T04:21:40.727Z</time>
      </trkpt>
      <trkpt lat="42.55156" lon="2.99791">
        <ele>27.4</ele>
        <time>2021-08-31T04:21:41.256Z</time>
      </trkpt>
      <trkpt lat="42.55167" lon="2.99812">
        <ele>26.5</ele>
        <time>2021-08-31T04:21:42.972Z</time>
      </trkpt>
      <trkpt lat="42.55172" lon="2.99827">
        <ele>26</ele>
        <time>2021-08-31T04:21:44.131Z</time>
      </trkpt>
      <trkpt lat="42.55174" lon="2.99841">
        <ele>25.9</ele>
        <time>2021-08-31T04:21:45.562Z</time>
      </trkpt>
      <trkpt lat="42.55176" lon="2.99881">
        <ele>26.8</ele>
        <time>2021-08-31T04:21:52.221Z</time>
      </trkpt>
      <trkpt lat="42.55175" lon="2.99905">
        <ele>27.3</ele>
        <time>2021-08-31T04:21:56.103Z</time>
      </trkpt>
      <trkpt lat="42.55175" lon="2.99914">
        <ele>27.6</ele>
        <time>2021-08-31T04:21:57.931Z</time>
      </trkpt>
      <trkpt lat="42.55173" lon="2.99933">
        <ele>27.7</ele>
        <time>2021-08-31T04:22:00.388Z</time>
      </trkpt>
      <trkpt lat="42.55169" lon="2.99963">
        <ele>27.9</ele>
        <time>2021-08-31T04:22:04.363Z</time>
      </trkpt>
      <trkpt lat="42.55169" lon="2.99975">
        <ele>27.9</ele>
        <time>2021-08-31T04:22:05.800Z</time>
      </trkpt>
      <trkpt lat="42.55164" lon="3.00023">
        <ele>28.1</ele>
        <time>2021-08-31T04:22:11.918Z</time>
      </trkpt>
      <trkpt lat="42.55162" lon="3.00056">
        <ele>28.1</ele>
        <time>2021-08-31T04:22:15.883Z</time>
      </trkpt>
      <trkpt lat="42.55169" lon="3.00056">
        <ele>27.9</ele>
        <time>2021-08-31T04:22:16.642Z</time>
      </trkpt>
      <trkpt lat="42.55185" lon="3.00054">
        <ele>27.3</ele>
        <time>2021-08-31T04:22:18.237Z</time>
      </trkpt>
      <trkpt lat="42.55189" lon="3.00053">
        <ele>27.2</ele>
        <time>2021-08-31T04:22:18.698Z</time>
      </trkpt>
      <trkpt lat="42.55207" lon="3.00051">
        <ele>26.5</ele>
        <time>2021-08-31T04:22:20.465Z</time>
      </trkpt>
      <trkpt lat="42.5521" lon="3.00051">
        <ele>26.5</ele>
        <time>2021-08-31T04:22:20.953Z</time>
      </trkpt>
      <trkpt lat="42.55226" lon="3.00049">
        <ele>25.9</ele>
        <time>2021-08-31T04:22:22.548Z</time>
      </trkpt>
      <trkpt lat="42.55239" lon="3.00046">
        <ele>25.4</ele>
        <time>2021-08-31T04:22:23.849Z</time>
      </trkpt>
      <trkpt lat="42.55248" lon="3.00042">
        <ele>25.1</ele>
        <time>2021-08-31T04:22:24.843Z</time>
      </trkpt>
      <trkpt lat="42.55255" lon="3.00035">
        <ele>24.9</ele>
        <time>2021-08-31T04:22:25.846Z</time>
      </trkpt>
      <trkpt lat="42.55267" lon="3.00022">
        <ele>24.6</ele>
        <time>2021-08-31T04:22:27.690Z</time>
      </trkpt>
      <trkpt lat="42.55269" lon="3.00019">
        <ele>24.5</ele>
        <time>2021-08-31T04:22:27.997Z</time>
      </trkpt>
      <trkpt lat="42.55285" lon="2.99999">
        <ele>24.1</ele>
        <time>2021-08-31T04:22:30.644Z</time>
      </trkpt>
      <trkpt lat="42.55303" lon="2.99978">
        <ele>23.5</ele>
        <time>2021-08-31T04:22:33.313Z</time>
      </trkpt>
      <trkpt lat="42.55318" lon="2.99962">
        <ele>22.9</ele>
        <time>2021-08-31T04:22:35.321Z</time>
      </trkpt>
      <trkpt lat="42.55332" lon="2.99951">
        <ele>22.4</ele>
        <time>2021-08-31T04:22:37.034Z</time>
      </trkpt>
      <trkpt lat="42.55344" lon="2.99944">
        <ele>22.2</ele>
        <time>2021-08-31T04:22:38.684Z</time>
      </trkpt>
      <trkpt lat="42.55356" lon="2.99939">
        <ele>22.1</ele>
        <time>2021-08-31T04:22:40.430Z</time>
      </trkpt>
      <trkpt lat="42.5537" lon="2.99934">
        <ele>22</ele>
        <time>2021-08-31T04:22:42.558Z</time>
      </trkpt>
      <trkpt lat="42.55379" lon="2.99931">
        <ele>22</ele>
        <time>2021-08-31T04:22:44.064Z</time>
      </trkpt>
      <trkpt lat="42.55414" lon="2.99919">
        <ele>22</ele>
        <time>2021-08-31T04:22:49.931Z</time>
      </trkpt>
      <trkpt lat="42.55445" lon="2.99911">
        <ele>22.7</ele>
        <time>2021-08-31T04:22:56.368Z</time>
      </trkpt>
      <trkpt lat="42.55452" lon="2.99909">
        <ele>22.9</ele>
        <time>2021-08-31T04:22:57.931Z</time>
      </trkpt>
      <trkpt lat="42.55456" lon="2.99908">
        <ele>23</ele>
        <time>2021-08-31T04:22:58.784Z</time>
      </trkpt>
      <trkpt lat="42.55508" lon="2.99893">
        <ele>23.7</ele>
        <time>2021-08-31T04:23:08.610Z</time>
      </trkpt>
      <trkpt lat="42.55518" lon="2.99891">
        <ele>23.8</ele>
        <time>2021-08-31T04:23:10.417Z</time>
      </trkpt>
      <trkpt lat="42.55537" lon="2.99888">
        <ele>23.8</ele>
        <time>2021-08-31T04:23:13.526Z</time>
      </trkpt>
      <trkpt lat="42.55556" lon="2.99886">
        <ele>23.9</ele>
        <time>2021-08-31T04:23:16.780Z</time>
      </trkpt>
      <trkpt lat="42.55569" lon="2.99885">
        <ele>23.9</ele>
        <time>2021-08-31T04:23:18.896Z</time>
      </trkpt>
      <trkpt lat="42.55579" lon="2.99885">
        <ele>24</ele>
        <time>2021-08-31T04:23:20.686Z</time>
      </trkpt>
      <trkpt lat="42.55581" lon="2.99886">
        <ele>24</ele>
        <time>2021-08-31T04:23:21.032Z</time>
      </trkpt>
      <trkpt lat="42.55596" lon="2.99887">
        <ele>23.5</ele>
        <time>2021-08-31T04:23:22.583Z</time>
      </trkpt>
      <trkpt lat="42.55599" lon="2.99887">
        <ele>23.4</ele>
        <time>2021-08-31T04:23:22.893Z</time>
      </trkpt>
      <trkpt lat="42.55606" lon="2.99888">
        <ele>23.2</ele>
        <time>2021-08-31T04:23:23.658Z</time>
      </trkpt>
      <trkpt lat="42.55611" lon="2.99888">
        <ele>23</ele>
        <time>2021-08-31T04:23:24.142Z</time>
      </trkpt>
      <trkpt lat="42.55626" lon="2.99888">
        <ele>22.5</ele>
        <time>2021-08-31T04:23:25.691Z</time>
      </trkpt>
      <trkpt lat="42.55646" lon="2.99886">
        <ele>21.7</ele>
        <time>2021-08-31T04:23:27.633Z</time>
      </trkpt>
      <trkpt lat="42.55659" lon="2.99886">
        <ele>21.3</ele>
        <time>2021-08-31T04:23:29.011Z</time>
      </trkpt>
      <trkpt lat="42.55664" lon="2.99888">
        <ele>21.1</ele>
        <time>2021-08-31T04:23:29.523Z</time>
      </trkpt>
      <trkpt lat="42.55671" lon="2.99895">
        <ele>21</ele>
        <time>2021-08-31T04:23:30.676Z</time>
      </trkpt>
      <trkpt lat="42.55673" lon="2.99897">
        <ele>21</ele>
        <time>2021-08-31T04:23:31.080Z</time>
      </trkpt>
      <trkpt lat="42.55677" lon="2.99901">
        <ele>21</ele>
        <time>2021-08-31T04:23:31.888Z</time>
      </trkpt>
      <trkpt lat="42.55679" lon="2.99903">
        <ele>21</ele>
        <time>2021-08-31T04:23:32.291Z</time>
      </trkpt>
      <trkpt lat="42.55688" lon="2.99912">
        <ele>21</ele>
        <time>2021-08-31T04:23:34.108Z</time>
      </trkpt>
      <trkpt lat="42.55697" lon="2.99922">
        <ele>20.9</ele>
        <time>2021-08-31T04:23:35.712Z</time>
      </trkpt>
      <trkpt lat="42.55707" lon="2.9993">
        <ele>20.8</ele>
        <time>2021-08-31T04:23:37.311Z</time>
      </trkpt>
      <trkpt lat="42.557" lon="2.99934">
        <ele>20.7</ele>
        <time>2021-08-31T04:23:38.297Z</time>
      </trkpt>
      <trkpt lat="42.55686" lon="2.99951">
        <ele>20.5</ele>
        <time>2021-08-31T04:23:40.816Z</time>
      </trkpt>
      <trkpt lat="42.55652" lon="3.00002">
        <ele>20.2</ele>
        <time>2021-08-31T04:23:48.367Z</time>
      </trkpt>
      <trkpt lat="42.55651" lon="3.00005">
        <ele>20.2</ele>
        <time>2021-08-31T04:23:48.761Z</time>
      </trkpt>
      <trkpt lat="42.55579" lon="3.00132">
        <ele>20.1</ele>
        <time>2021-08-31T04:24:07.703Z</time>
      </trkpt>
      <trkpt lat="42.55539" lon="3.00205">
        <ele>20.7</ele>
        <time>2021-08-31T04:24:19.569Z</time>
      </trkpt>
      <trkpt lat="42.55423" lon="3.00407">
        <ele>19.3</ele>
        <time>2021-08-31T04:24:45.999Z</time>
      </trkpt>
      <trkpt lat="42.55402" lon="3.0044">
        <ele>19.7</ele>
        <time>2021-08-31T04:24:51.893Z</time>
      </trkpt>
      <trkpt lat="42.55384" lon="3.00471">
        <ele>20.2</ele>
        <time>2021-08-31T04:24:57.503Z</time>
      </trkpt>
      <trkpt lat="42.55348" lon="3.00533">
        <ele>20.4</ele>
        <time>2021-08-31T04:25:07.262Z</time>
      </trkpt>
      <trkpt lat="42.55318" lon="3.00584">
        <ele>20.5</ele>
        <time>2021-08-31T04:25:15.229Z</time>
      </trkpt>
      <trkpt lat="42.55308" lon="3.00602">
        <ele>20.5</ele>
        <time>2021-08-31T04:25:17.928Z</time>
      </trkpt>
      <trkpt lat="42.55304" lon="3.0061">
        <ele>20.4</ele>
        <time>2021-08-31T04:25:18.843Z</time>
      </trkpt>
      <trkpt lat="42.55299" lon="3.00617">
        <ele>20.3</ele>
        <time>2021-08-31T04:25:19.766Z</time>
      </trkpt>
      <trkpt lat="42.5528" lon="3.00651">
        <ele>19.5</ele>
        <time>2021-08-31T04:25:23.295Z</time>
      </trkpt>
      <trkpt lat="42.55194" lon="3.00806">
        <ele>20.5</ele>
        <time>2021-08-31T04:25:48.120Z</time>
      </trkpt>
      <trkpt lat="42.55154" lon="3.0088">
        <ele>20.1</ele>
        <time>2021-08-31T04:25:58.196Z</time>
      </trkpt>
      <trkpt lat="42.55149" lon="3.00889">
        <ele>20</ele>
        <time>2021-08-31T04:25:59.290Z</time>
      </trkpt>
      <trkpt lat="42.55147" lon="3.00896">
        <ele>19.9</ele>
        <time>2021-08-31T04:25:59.966Z</time>
      </trkpt>
      <trkpt lat="42.55146" lon="3.00905">
        <ele>19.9</ele>
        <time>2021-08-31T04:26:01.056Z</time>
      </trkpt>
      <trkpt lat="42.55146" lon="3.00913">
        <ele>19.8</ele>
        <time>2021-08-31T04:26:01.785Z</time>
      </trkpt>
      <trkpt lat="42.55147" lon="3.00923">
        <ele>19.7</ele>
        <time>2021-08-31T04:26:02.747Z</time>
      </trkpt>
      <trkpt lat="42.5515" lon="3.00936">
        <ele>19.6</ele>
        <time>2021-08-31T04:26:04.105Z</time>
      </trkpt>
      <trkpt lat="42.55155" lon="3.00951">
        <ele>19.4</ele>
        <time>2021-08-31T04:26:05.616Z</time>
      </trkpt>
      <trkpt lat="42.55158" lon="3.00963">
        <ele>19.3</ele>
        <time>2021-08-31T04:26:06.867Z</time>
      </trkpt>
      <trkpt lat="42.55159" lon="3.00972">
        <ele>19.2</ele>
        <time>2021-08-31T04:26:07.718Z</time>
      </trkpt>
      <trkpt lat="42.55158" lon="3.0098">
        <ele>19.1</ele>
        <time>2021-08-31T04:26:08.461Z</time>
      </trkpt>
      <trkpt lat="42.55157" lon="3.00985">
        <ele>19.1</ele>
        <time>2021-08-31T04:26:09.081Z</time>
      </trkpt>
      <trkpt lat="42.55156" lon="3.00992">
        <ele>19</ele>
        <time>2021-08-31T04:26:09.716Z</time>
      </trkpt>
      <trkpt lat="42.55158" lon="3.00996">
        <ele>18.9</ele>
        <time>2021-08-31T04:26:10.104Z</time>
      </trkpt>
      <trkpt lat="42.5516" lon="3.01002">
        <ele>18.9</ele>
        <time>2021-08-31T04:26:10.893Z</time>
      </trkpt>
      <trkpt lat="42.55162" lon="3.01008">
        <ele>18.9</ele>
        <time>2021-08-31T04:26:11.681Z</time>
      </trkpt>
      <trkpt lat="42.55162" lon="3.01014">
        <ele>18.8</ele>
        <time>2021-08-31T04:26:12.193Z</time>
      </trkpt>
      <trkpt lat="42.5516" lon="3.01018">
        <ele>18.7</ele>
        <time>2021-08-31T04:26:12.582Z</time>
      </trkpt>
      <trkpt lat="42.55159" lon="3.01022">
        <ele>18.7</ele>
        <time>2021-08-31T04:26:13.087Z</time>
      </trkpt>
      <trkpt lat="42.55156" lon="3.01027">
        <ele>18.6</ele>
        <time>2021-08-31T04:26:13.648Z</time>
      </trkpt>
      <trkpt lat="42.55152" lon="3.0103">
        <ele>18.5</ele>
        <time>2021-08-31T04:26:14.182Z</time>
      </trkpt>
      <trkpt lat="42.55147" lon="3.01031">
        <ele>18.5</ele>
        <time>2021-08-31T04:26:15.003Z</time>
      </trkpt>
      <trkpt lat="42.55144" lon="3.01031">
        <ele>18.5</ele>
        <time>2021-08-31T04:26:15.491Z</time>
      </trkpt>
      <trkpt lat="42.55136" lon="3.01036">
        <ele>18.4</ele>
        <time>2021-08-31T04:26:16.661Z</time>
      </trkpt>
      <trkpt lat="42.55132" lon="3.01041">
        <ele>18.3</ele>
        <time>2021-08-31T04:26:17.323Z</time>
      </trkpt>
      <trkpt lat="42.55127" lon="3.01047">
        <ele>18.2</ele>
        <time>2021-08-31T04:26:18.170Z</time>
      </trkpt>
      <trkpt lat="42.55119" lon="3.01058">
        <ele>18.1</ele>
        <time>2021-08-31T04:26:19.736Z</time>
      </trkpt>
      <trkpt lat="42.55104" lon="3.01076">
        <ele>18</ele>
        <time>2021-08-31T04:26:22.758Z</time>
      </trkpt>
      <trkpt lat="42.55085" lon="3.01107">
        <ele>18.3</ele>
        <time>2021-08-31T04:26:28.079Z</time>
      </trkpt>
      <trkpt lat="42.55063" lon="3.01143">
        <ele>18.6</ele>
        <time>2021-08-31T04:26:34.165Z</time>
      </trkpt>
      <trkpt lat="42.55057" lon="3.01154">
        <ele>18.6</ele>
        <time>2021-08-31T04:26:35.804Z</time>
      </trkpt>
      <trkpt lat="42.5504" lon="3.01181">
        <ele>18.2</ele>
        <time>2021-08-31T04:26:39.112Z</time>
      </trkpt>
      <trkpt lat="42.55028" lon="3.01203">
        <ele>17.6</ele>
        <time>2021-08-31T04:26:41.273Z</time>
      </trkpt>
      <trkpt lat="42.55024" lon="3.01211">
        <ele>17.4</ele>
        <time>2021-08-31T04:26:42.049Z</time>
      </trkpt>
      <trkpt lat="42.55022" lon="3.01216">
        <ele>17.2</ele>
        <time>2021-08-31T04:26:42.427Z</time>
      </trkpt>
      <trkpt lat="42.55016" lon="3.0123">
        <ele>16.8</ele>
        <time>2021-08-31T04:26:43.657Z</time>
      </trkpt>
      <trkpt lat="42.55014" lon="3.01243">
        <ele>16.5</ele>
        <time>2021-08-31T04:26:44.695Z</time>
      </trkpt>
      <trkpt lat="42.55013" lon="3.01252">
        <ele>16.3</ele>
        <time>2021-08-31T04:26:45.413Z</time>
      </trkpt>
      <trkpt lat="42.5501" lon="3.01313">
        <ele>16.9</ele>
        <time>2021-08-31T04:26:53.751Z</time>
      </trkpt>
      <trkpt lat="42.55008" lon="3.01337">
        <ele>17.1</ele>
        <time>2021-08-31T04:26:56.975Z</time>
      </trkpt>
      <trkpt lat="42.55007" lon="3.01355">
        <ele>17.1</ele>
        <time>2021-08-31T04:26:59.137Z</time>
      </trkpt>
      <trkpt lat="42.55006" lon="3.01361">
        <ele>17</ele>
        <time>2021-08-31T04:26:59.665Z</time>
      </trkpt>
      <trkpt lat="42.54997" lon="3.01358">
        <ele>17</ele>
        <time>2021-08-31T04:27:01.171Z</time>
      </trkpt>
      <trkpt lat="42.54993" lon="3.01357">
        <ele>16.9</ele>
        <time>2021-08-31T04:27:01.632Z</time>
      </trkpt>
      <trkpt lat="42.54976" lon="3.01356">
        <ele>16.8</ele>
        <time>2021-08-31T04:27:04.170Z</time>
      </trkpt>
      <trkpt lat="42.54974" lon="3.01406">
        <ele>17</ele>
        <time>2021-08-31T04:27:10.479Z</time>
      </trkpt>
      <trkpt lat="42.54973" lon="3.01408">
        <ele>17</ele>
        <time>2021-08-31T04:27:10.768Z</time>
      </trkpt>
      <trkpt lat="42.54962" lon="3.0142">
        <ele>17</ele>
        <time>2021-08-31T04:27:13.062Z</time>
      </trkpt>
      <trkpt lat="42.54932" lon="3.01459">
        <ele>16.6</ele>
        <time>2021-08-31T04:27:18.709Z</time>
      </trkpt>
      <trkpt lat="42.54909" lon="3.01488">
        <ele>16.1</ele>
        <time>2021-08-31T04:27:22.646Z</time>
      </trkpt>
      <trkpt lat="42.54904" lon="3.01494">
        <ele>16.1</ele>
        <time>2021-08-31T04:27:23.731Z</time>
      </trkpt>
      <trkpt lat="42.54893" lon="3.01511">
        <ele>16</ele>
        <time>2021-08-31T04:27:26.212Z</time>
      </trkpt>
      <trkpt lat="42.54884" lon="3.01527">
        <ele>16.1</ele>
        <time>2021-08-31T04:27:28.781Z</time>
      </trkpt>
      <trkpt lat="42.54868" lon="3.01556">
        <ele>16.4</ele>
        <time>2021-08-31T04:27:33.617Z</time>
      </trkpt>
      <trkpt lat="42.54858" lon="3.01575">
        <ele>16.6</ele>
        <time>2021-08-31T04:27:36.747Z</time>
      </trkpt>
      <trkpt lat="42.54854" lon="3.01584">
        <ele>16.7</ele>
        <time>2021-08-31T04:27:38.174Z</time>
      </trkpt>
      <trkpt lat="42.54845" lon="3.01602">
        <ele>16.4</ele>
        <time>2021-08-31T04:27:40.117Z</time>
      </trkpt>
      <trkpt lat="42.54839" lon="3.01612">
        <ele>16.3</ele>
        <time>2021-08-31T04:27:41.394Z</time>
      </trkpt>
      <trkpt lat="42.54826" lon="3.01632">
        <ele>15.7</ele>
        <time>2021-08-31T04:27:43.482Z</time>
      </trkpt>
      <trkpt lat="42.54816" lon="3.01642">
        <ele>15.1</ele>
        <time>2021-08-31T04:27:44.596Z</time>
      </trkpt>
      <trkpt lat="42.54813" lon="3.01644">
        <ele>15</ele>
        <time>2021-08-31T04:27:44.953Z</time>
      </trkpt>
      <trkpt lat="42.54797" lon="3.01653">
        <ele>14.2</ele>
        <time>2021-08-31T04:27:46.535Z</time>
      </trkpt>
      <trkpt lat="42.54789" lon="3.0166">
        <ele>13.6</ele>
        <time>2021-08-31T04:27:47.291Z</time>
      </trkpt>
      <trkpt lat="42.54784" lon="3.01669">
        <ele>13.1</ele>
        <time>2021-08-31T04:27:47.965Z</time>
      </trkpt>
      <trkpt lat="42.54784" lon="3.0167">
        <ele>13.1</ele>
        <time>2021-08-31T04:27:48.084Z</time>
      </trkpt>
      <trkpt lat="42.54783" lon="3.01679">
        <ele>12.7</ele>
        <time>2021-08-31T04:27:48.631Z</time>
      </trkpt>
      <trkpt lat="42.54777" lon="3.01681">
        <ele>12.5</ele>
        <time>2021-08-31T04:27:49.275Z</time>
      </trkpt>
      <trkpt lat="42.54748" lon="3.01723">
        <ele>10.7</ele>
        <time>2021-08-31T04:27:53.284Z</time>
      </trkpt>
      <trkpt lat="42.54747" lon="3.01724">
        <ele>10.6</ele>
        <time>2021-08-31T04:27:53.389Z</time>
      </trkpt>
      <trkpt lat="42.54735" lon="3.01743">
        <ele>10.1</ele>
        <time>2021-08-31T04:27:55.421Z</time>
      </trkpt>
      <trkpt lat="42.54705" lon="3.01792">
        <ele>10</ele>
        <time>2021-08-31T04:28:02.809Z</time>
      </trkpt>
      <trkpt lat="42.54702" lon="3.01795">
        <ele>10</ele>
        <time>2021-08-31T04:28:03.415Z</time>
      </trkpt>
      <trkpt lat="42.54697" lon="3.018">
        <ele>10</ele>
        <time>2021-08-31T04:28:04.424Z</time>
      </trkpt>
      <trkpt lat="42.54693" lon="3.01804">
        <ele>10</ele>
        <time>2021-08-31T04:28:05.232Z</time>
      </trkpt>
      <trkpt lat="42.54691" lon="3.01805">
        <ele>10</ele>
        <time>2021-08-31T04:28:05.578Z</time>
      </trkpt>
      <trkpt lat="42.54687" lon="3.0181">
        <ele>10</ele>
        <time>2021-08-31T04:28:06.462Z</time>
      </trkpt>
      <trkpt lat="42.54682" lon="3.01814">
        <ele>10</ele>
        <time>2021-08-31T04:28:07.405Z</time>
      </trkpt>
      <trkpt lat="42.5468" lon="3.01815">
        <ele>10</ele>
        <time>2021-08-31T04:28:07.752Z</time>
      </trkpt>
      <trkpt lat="42.54678" lon="3.01817">
        <ele>10</ele>
        <time>2021-08-31T04:28:08.155Z</time>
      </trkpt>
      <trkpt lat="42.5467" lon="3.01823">
        <ele>10</ele>
        <time>2021-08-31T04:28:09.641Z</time>
      </trkpt>
      <trkpt lat="42.54673" lon="3.01838">
        <ele>10</ele>
        <time>2021-08-31T04:28:11.502Z</time>
      </trkpt>
      <trkpt lat="42.54674" lon="3.01841">
        <ele>10.1</ele>
        <time>2021-08-31T04:28:12.136Z</time>
      </trkpt>
      <trkpt lat="42.54678" lon="3.01851">
        <ele>10.2</ele>
        <time>2021-08-31T04:28:13.665Z</time>
      </trkpt>
      <trkpt lat="42.54681" lon="3.01857">
        <ele>10.2</ele>
        <time>2021-08-31T04:28:14.534Z</time>
      </trkpt>
      <trkpt lat="42.54687" lon="3.01883">
        <ele>10.3</ele>
        <time>2021-08-31T04:28:17.952Z</time>
      </trkpt>
      <trkpt lat="42.54694" lon="3.01892">
        <ele>10.2</ele>
        <time>2021-08-31T04:28:19.250Z</time>
      </trkpt>
      <trkpt lat="42.54722" lon="3.01955">
        <ele>10</ele>
        <time>2021-08-31T04:28:27.589Z</time>
      </trkpt>
      <trkpt lat="42.54746" lon="3.02001">
        <ele>10.1</ele>
        <time>2021-08-31T04:28:34.491Z</time>
      </trkpt>
      <trkpt lat="42.54752" lon="3.02012">
        <ele>10.3</ele>
        <time>2021-08-31T04:28:36.494Z</time>
      </trkpt>
      <trkpt lat="42.54764" lon="3.02037">
        <ele>10.5</ele>
        <time>2021-08-31T04:28:40.392Z</time>
      </trkpt>
      <trkpt lat="42.54767" lon="3.02046">
        <ele>10.6</ele>
        <time>2021-08-31T04:28:41.745Z</time>
      </trkpt>
      <trkpt lat="42.54772" lon="3.02061">
        <ele>10.6</ele>
        <time>2021-08-31T04:28:43.717Z</time>
      </trkpt>
      <trkpt lat="42.54776" lon="3.02069">
        <ele>10.6</ele>
        <time>2021-08-31T04:28:44.874Z</time>
      </trkpt>
      <trkpt lat="42.54778" lon="3.02078">
        <ele>10.6</ele>
        <time>2021-08-31T04:28:46.000Z</time>
      </trkpt>
      <trkpt lat="42.5478" lon="3.02085">
        <ele>10.7</ele>
        <time>2021-08-31T04:28:47.077Z</time>
      </trkpt>
      <trkpt lat="42.54789" lon="3.02093">
        <ele>10.5</ele>
        <time>2021-08-31T04:28:48.384Z</time>
      </trkpt>
      <trkpt lat="42.54795" lon="3.02108">
        <ele>10.8</ele>
        <time>2021-08-31T04:28:50.999Z</time>
      </trkpt>
      <trkpt lat="42.54796" lon="3.02123">
        <ele>11.4</ele>
        <time>2021-08-31T04:28:54.239Z</time>
      </trkpt>
      <trkpt lat="42.54795" lon="3.02134">
        <ele>11.9</ele>
        <time>2021-08-31T04:28:56.744Z</time>
      </trkpt>
      <trkpt lat="42.54815" lon="3.02175">
        <ele>11.8</ele>
        <time>2021-08-31T04:29:02.393Z</time>
      </trkpt>
      <trkpt lat="42.54817" lon="3.02178">
        <ele>11.7</ele>
        <time>2021-08-31T04:29:02.701Z</time>
      </trkpt>
      <trkpt lat="42.54823" lon="3.02189">
        <ele>11.4</ele>
        <time>2021-08-31T04:29:03.781Z</time>
      </trkpt>
      <trkpt lat="42.54833" lon="3.02203">
        <ele>10.9</ele>
        <time>2021-08-31T04:29:05.243Z</time>
      </trkpt>
      <trkpt lat="42.54848" lon="3.02229">
        <ele>11.2</ele>
        <time>2021-08-31T04:29:09.701Z</time>
      </trkpt>
      <trkpt lat="42.54875" lon="3.02296">
        <ele>10.2</ele>
        <time>2021-08-31T04:29:16.599Z</time>
      </trkpt>
      <trkpt lat="42.5488" lon="3.02322">
        <ele>9.6</ele>
        <time>2021-08-31T04:29:18.708Z</time>
      </trkpt>
      <trkpt lat="42.54881" lon="3.02339">
        <ele>9.3</ele>
        <time>2021-08-31T04:29:20.143Z</time>
      </trkpt>
      <trkpt lat="42.54877" lon="3.02372">
        <ele>9</ele>
        <time>2021-08-31T04:29:23.383Z</time>
      </trkpt>
      <trkpt lat="42.5487" lon="3.02416">
        <ele>8.7</ele>
        <time>2021-08-31T04:29:27.927Z</time>
      </trkpt>
      <trkpt lat="42.54868" lon="3.02428">
        <ele>8.7</ele>
        <time>2021-08-31T04:29:29.400Z</time>
      </trkpt>
      <trkpt lat="42.54876" lon="3.02428">
        <ele>8.4</ele>
        <time>2021-08-31T04:29:30.193Z</time>
      </trkpt>
      <trkpt lat="42.54885" lon="3.02428">
        <ele>8.1</ele>
        <time>2021-08-31T04:29:31.122Z</time>
      </trkpt>
      <trkpt lat="42.54901" lon="3.0243">
        <ele>7.5</ele>
        <time>2021-08-31T04:29:32.716Z</time>
      </trkpt>
      <trkpt lat="42.54913" lon="3.02433">
        <ele>7.1</ele>
        <time>2021-08-31T04:29:33.984Z</time>
      </trkpt>
      <trkpt lat="42.54938" lon="3.02441">
        <ele>7</ele>
        <time>2021-08-31T04:29:37.923Z</time>
      </trkpt>
      <trkpt lat="42.5497" lon="3.02452">
        <ele>7</ele>
        <time>2021-08-31T04:29:43.289Z</time>
      </trkpt>
      <trkpt lat="42.5497" lon="3.02452">
        <ele>7</ele>
        <time>2021-08-31T04:29:43.289Z</time>
      </trkpt>
      <trkpt lat="42.55006" lon="3.02467">
        <ele>7</ele>
        <time>2021-08-31T04:29:49.410Z</time>
      </trkpt>
      <trkpt lat="42.55015" lon="3.02472">
        <ele>7</ele>
        <time>2021-08-31T04:29:50.990Z</time>
      </trkpt>
      <trkpt lat="42.55046" lon="3.02487">
        <ele>7</ele>
        <time>2021-08-31T04:29:56.340Z</time>
      </trkpt>
      <trkpt lat="42.55054" lon="3.02491">
        <ele>7</ele>
        <time>2021-08-31T04:29:57.725Z</time>
      </trkpt>
      <trkpt lat="42.55059" lon="3.0249">
        <ele>7</ele>
        <time>2021-08-31T04:29:58.547Z</time>
      </trkpt>
      <trkpt lat="42.55061" lon="3.02494">
        <ele>7</ele>
        <time>2021-08-31T04:29:59.126Z</time>
      </trkpt>
      <trkpt lat="42.55062" lon="3.02498">
        <ele>7</ele>
        <time>2021-08-31T04:29:59.631Z</time>
      </trkpt>
      <trkpt lat="42.55064" lon="3.025">
        <ele>7</ele>
        <time>2021-08-31T04:30:00.035Z</time>
      </trkpt>
      <trkpt lat="42.55066" lon="3.02502">
        <ele>7</ele>
        <time>2021-08-31T04:30:00.439Z</time>
      </trkpt>
      <trkpt lat="42.55071" lon="3.02503">
        <ele>7</ele>
        <time>2021-08-31T04:30:01.260Z</time>
      </trkpt>
      <trkpt lat="42.55072" lon="3.02501">
        <ele>7</ele>
        <time>2021-08-31T04:30:01.550Z</time>
      </trkpt>
      <trkpt lat="42.55075" lon="3.025">
        <ele>7</ele>
        <time>2021-08-31T04:30:02.052Z</time>
      </trkpt>
      <trkpt lat="42.55097" lon="3.0259">
        <ele>7.1</ele>
        <time>2021-08-31T04:30:13.557Z</time>
      </trkpt>
      <trkpt lat="42.55093" lon="3.02618">
        <ele>6.7</ele>
        <time>2021-08-31T04:30:16.095Z</time>
      </trkpt>
      <trkpt lat="42.55096" lon="3.02662">
        <ele>6.2</ele>
        <time>2021-08-31T04:30:20.206Z</time>
      </trkpt>
      <trkpt lat="42.55102" lon="3.0272">
        <ele>6.1</ele>
        <time>2021-08-31T04:30:26.978Z</time>
      </trkpt>
      <trkpt lat="42.55112" lon="3.02786">
        <ele>5.6</ele>
        <time>2021-08-31T04:30:33.687Z</time>
      </trkpt>
      <trkpt lat="42.55103" lon="3.02849">
        <ele>5</ele>
        <time>2021-08-31T04:30:39.862Z</time>
      </trkpt>
      <trkpt lat="42.55075" lon="3.02876">
        <ele>5.1</ele>
        <time>2021-08-31T04:30:45.597Z</time>
      </trkpt>
      <trkpt lat="42.55061" lon="3.02905">
        <ele>5.3</ele>
        <time>2021-08-31T04:30:50.070Z</time>
      </trkpt>
      <trkpt lat="42.55055" lon="3.02928">
        <ele>5.6</ele>
        <time>2021-08-31T04:30:53.518Z</time>
      </trkpt>
      <trkpt lat="42.55059" lon="3.02934">
        <ele>5.6</ele>
        <time>2021-08-31T04:30:54.487Z</time>
      </trkpt>
      <trkpt lat="42.55114" lon="3.03024">
        <ele>6.8</ele>
        <time>2021-08-31T04:31:10.537Z</time>
      </trkpt>
      <trkpt lat="42.55116" lon="3.03022">
        <ele>6.8</ele>
        <time>2021-08-31T04:31:10.941Z</time>
      </trkpt>
      <trkpt lat="42.5512" lon="3.03027">
        <ele>6.7</ele>
        <time>2021-08-31T04:31:11.603Z</time>
      </trkpt>
      <trkpt lat="42.55141" lon="3.03053">
        <ele>6.5</ele>
        <time>2021-08-31T04:31:15.773Z</time>
      </trkpt>
      <trkpt lat="42.55149" lon="3.03064">
        <ele>6.4</ele>
        <time>2021-08-31T04:31:17.339Z</time>
      </trkpt>
      <trkpt lat="42.55163" lon="3.03072">
        <ele>6.1</ele>
        <time>2021-08-31T04:31:19.158Z</time>
      </trkpt>
      <trkpt lat="42.55173" lon="3.0307">
        <ele>5.9</ele>
        <time>2021-08-31T04:31:20.368Z</time>
      </trkpt>
      <trkpt lat="42.55175" lon="3.0308">
        <ele>5.9</ele>
        <time>2021-08-31T04:31:21.609Z</time>
      </trkpt>
      <trkpt lat="42.55188" lon="3.03118">
        <ele>6.1</ele>
        <time>2021-08-31T04:31:26.942Z</time>
      </trkpt>
      <trkpt lat="42.55208" lon="3.03155">
        <ele>5.9</ele>
        <time>2021-08-31T04:31:31.980Z</time>
      </trkpt>
      <trkpt lat="42.55243" lon="3.03228">
        <ele>4.4</ele>
        <time>2021-08-31T04:31:39.350Z</time>
      </trkpt>
      <trkpt lat="42.55264" lon="3.03335">
        <ele>3.3</ele>
        <time>2021-08-31T04:31:49.897Z</time>
      </trkpt>
      <trkpt lat="42.55264" lon="3.03354">
        <ele>3.2</ele>
        <time>2021-08-31T04:31:51.948Z</time>
      </trkpt>
      <trkpt lat="42.55258" lon="3.03374">
        <ele>3.1</ele>
        <time>2021-08-31T04:31:54.306Z</time>
      </trkpt>
      <trkpt lat="42.55256" lon="3.03377">
        <ele>3</ele>
        <time>2021-08-31T04:31:54.613Z</time>
      </trkpt>
      <trkpt lat="42.55238" lon="3.03397">
        <ele>3.3</ele>
        <time>2021-08-31T04:31:58.901Z</time>
      </trkpt>
      <trkpt lat="42.55234" lon="3.03412">
        <ele>3.4</ele>
        <time>2021-08-31T04:32:00.972Z</time>
      </trkpt>
      <trkpt lat="42.5523" lon="3.03437">
        <ele>3.7</ele>
        <time>2021-08-31T04:32:04.558Z</time>
      </trkpt>
      <trkpt lat="42.5523" lon="3.03478">
        <ele>4.2</ele>
        <time>2021-08-31T04:32:10.345Z</time>
      </trkpt>
      <trkpt lat="42.55232" lon="3.0349">
        <ele>4.4</ele>
        <time>2021-08-31T04:32:12.191Z</time>
      </trkpt>
      <trkpt lat="42.55238" lon="3.03502">
        <ele>4.7</ele>
        <time>2021-08-31T04:32:14.529Z</time>
      </trkpt>
      <trkpt lat="42.55264" lon="3.0353">
        <ele>4.9</ele>
        <time>2021-08-31T04:32:20.239Z</time>
      </trkpt>
      <trkpt lat="42.55289" lon="3.03554">
        <ele>4.2</ele>
        <time>2021-08-31T04:32:23.776Z</time>
      </trkpt>
      <trkpt lat="42.55425" lon="3.0366">
        <ele>2.8</ele>
        <time>2021-08-31T04:32:45.299Z</time>
      </trkpt>
      <trkpt lat="42.55452" lon="3.03691">
        <ele>2.5</ele>
        <time>2021-08-31T04:32:50.181Z</time>
      </trkpt>
      <trkpt lat="42.55483" lon="3.03765">
        <ele>1.3</ele>
        <time>2021-08-31T04:32:57.746Z</time>
      </trkpt>
      <trkpt lat="42.55489" lon="3.03774">
        <ele>1.2</ele>
        <time>2021-08-31T04:32:58.937Z</time>
      </trkpt>
      <trkpt lat="42.55497" lon="3.03788">
        <ele>1</ele>
        <time>2021-08-31T04:33:00.586Z</time>
      </trkpt>
      <trkpt lat="42.55514" lon="3.03811">
        <ele>1.2</ele>
        <time>2021-08-31T04:33:04.809Z</time>
      </trkpt>
      <trkpt lat="42.55531" lon="3.03824">
        <ele>1.4</ele>
        <time>2021-08-31T04:33:08.309Z</time>
      </trkpt>
      <trkpt lat="42.55596" lon="3.03856">
        <ele>2.1</ele>
        <time>2021-08-31T04:33:20.696Z</time>
      </trkpt>
      <trkpt lat="42.55606" lon="3.03864">
        <ele>2.1</ele>
        <time>2021-08-31T04:33:22.583Z</time>
      </trkpt>
      <trkpt lat="42.55626" lon="3.03924">
        <ele>2.5</ele>
        <time>2021-08-31T04:33:31.112Z</time>
      </trkpt>
      <trkpt lat="42.5563" lon="3.03944">
        <ele>2.6</ele>
        <time>2021-08-31T04:33:33.752Z</time>
      </trkpt>
      <trkpt lat="42.55632" lon="3.03954">
        <ele>2.7</ele>
        <time>2021-08-31T04:33:35.162Z</time>
      </trkpt>
      <trkpt lat="42.55632" lon="3.03961">
        <ele>2.7</ele>
        <time>2021-08-31T04:33:36.000Z</time>
      </trkpt>
      <trkpt lat="42.55637" lon="3.03965">
        <ele>2.7</ele>
        <time>2021-08-31T04:33:36.943Z</time>
      </trkpt>
      <trkpt lat="42.55644" lon="3.03969">
        <ele>2.7</ele>
        <time>2021-08-31T04:33:38.177Z</time>
      </trkpt>
      <trkpt lat="42.55645" lon="3.0398">
        <ele>2.8</ele>
        <time>2021-08-31T04:33:39.672Z</time>
      </trkpt>
      <trkpt lat="42.55644" lon="3.03996">
        <ele>3</ele>
        <time>2021-08-31T04:33:41.947Z</time>
      </trkpt>
      <trkpt lat="42.55642" lon="3.04007">
        <ele>3.1</ele>
        <time>2021-08-31T04:33:43.471Z</time>
      </trkpt>
      <trkpt lat="42.55632" lon="3.04034">
        <ele>3.2</ele>
        <time>2021-08-31T04:33:47.244Z</time>
      </trkpt>
      <trkpt lat="42.55693" lon="3.04097">
        <ele>3.8</ele>
        <time>2021-08-31T04:34:00.665Z</time>
      </trkpt>
      <trkpt lat="42.55698" lon="3.04161">
        <ele>4.2</ele>
        <time>2021-08-31T04:34:09.015Z</time>
      </trkpt>
      <trkpt lat="42.55698" lon="3.04181">
        <ele>4</ele>
        <time>2021-08-31T04:34:10.918Z</time>
      </trkpt>
      <trkpt lat="42.55697" lon="3.04194">
        <ele>3.9</ele>
        <time>2021-08-31T04:34:12.214Z</time>
      </trkpt>
      <trkpt lat="42.55697" lon="3.04199">
        <ele>3.8</ele>
        <time>2021-08-31T04:34:12.620Z</time>
      </trkpt>
      <trkpt lat="42.55706" lon="3.04299">
        <ele>3.9</ele>
        <time>2021-08-31T04:34:24.832Z</time>
      </trkpt>
      <trkpt lat="42.55707" lon="3.04306">
        <ele>4</ele>
        <time>2021-08-31T04:34:25.866Z</time>
      </trkpt>
      <trkpt lat="42.55713" lon="3.04386">
        <ele>4.7</ele>
        <time>2021-08-31T04:34:36.663Z</time>
      </trkpt>
      <trkpt lat="42.55715" lon="3.04405">
        <ele>4.8</ele>
        <time>2021-08-31T04:34:39.120Z</time>
      </trkpt>
      <trkpt lat="42.55724" lon="3.04496">
        <ele>4.3</ele>
        <time>2021-08-31T04:34:48.597Z</time>
      </trkpt>
      <trkpt lat="42.55725" lon="3.04507">
        <ele>4.3</ele>
        <time>2021-08-31T04:34:49.924Z</time>
      </trkpt>
      <trkpt lat="42.55733" lon="3.04595">
        <ele>4.2</ele>
        <time>2021-08-31T04:35:00.297Z</time>
      </trkpt>
      <trkpt lat="42.55732" lon="3.04596">
        <ele>4.2</ele>
        <time>2021-08-31T04:35:00.499Z</time>
      </trkpt>
      <trkpt lat="42.55729" lon="3.046">
        <ele>4.3</ele>
        <time>2021-08-31T04:35:01.373Z</time>
      </trkpt>
      <trkpt lat="42.55727" lon="3.04606">
        <ele>4.3</ele>
        <time>2021-08-31T04:35:02.161Z</time>
      </trkpt>
      <trkpt lat="42.55728" lon="3.04612">
        <ele>4.3</ele>
        <time>2021-08-31T04:35:02.898Z</time>
      </trkpt>
      <trkpt lat="42.5573" lon="3.04617">
        <ele>4.2</ele>
        <time>2021-08-31T04:35:03.376Z</time>
      </trkpt>
      <trkpt lat="42.55734" lon="3.04621">
        <ele>4.2</ele>
        <time>2021-08-31T04:35:04.184Z</time>
      </trkpt>
      <trkpt lat="42.55739" lon="3.04621">
        <ele>4.1</ele>
        <time>2021-08-31T04:35:04.781Z</time>
      </trkpt>
      <trkpt lat="42.5574" lon="3.04634">
        <ele>4.1</ele>
        <time>2021-08-31T04:35:06.346Z</time>
      </trkpt>
    </trkseg>
  </trk>
</gpx>